<?xml version="1.0" encoding="UTF-8" standalone="no" ?>
<gpx xmlns="http://www.topografix.com/GPX/1/1" xmlns:xsi="http://www.w3.org/2001/XMLSchema-instance" xsi:schemaLocation="http://www.topografix.com/GPX/1/1 http://www.topografix.com/GPX/1/1/gpx.xsd" version="1.1" creator="VisuGPX - https://www.visugpx.com">
  <metadata>
    <name>Glaris-Engelberg</name>
  </metadata>
  <trk>
    <name><![CDATA[Glaris-Engelberg_1]]></name>
    <extensions>
      <line xmlns="http://www.topografix.com/GPX/gpx_style/0/2">
        <color>0000FF</color>
        <width>4</width>
      </line>
    </extensions>
    <trkseg>
      <trkpt lat="47.03918" lon="9.06161">
        <ele>494</ele>
        <time>2021-08-02T07:44:44.315Z</time>
      </trkpt>
      <trkpt lat="47.03918" lon="9.06161">
        <ele>494</ele>
        <time>2021-08-02T07:44:44.315Z</time>
      </trkpt>
      <trkpt lat="47.03918" lon="9.0616">
        <ele>494</ele>
        <time>2021-08-02T07:44:45.315Z</time>
      </trkpt>
      <trkpt lat="47.03918" lon="9.06159">
        <ele>494</ele>
        <time>2021-08-02T07:44:46.315Z</time>
      </trkpt>
      <trkpt lat="47.03918" lon="9.06158">
        <ele>494</ele>
        <time>2021-08-02T07:44:47.315Z</time>
      </trkpt>
      <trkpt lat="47.03919" lon="9.06157">
        <ele>494</ele>
        <time>2021-08-02T07:44:48.316Z</time>
      </trkpt>
      <trkpt lat="47.03919" lon="9.06156">
        <ele>493</ele>
        <time>2021-08-02T07:44:49.315Z</time>
      </trkpt>
      <trkpt lat="47.03919" lon="9.06155">
        <ele>493</ele>
        <time>2021-08-02T07:44:50.315Z</time>
      </trkpt>
      <trkpt lat="47.03919" lon="9.06155">
        <ele>493</ele>
        <time>2021-08-02T07:44:51.316Z</time>
      </trkpt>
      <trkpt lat="47.0392" lon="9.06154">
        <ele>492</ele>
        <time>2021-08-02T07:44:52.316Z</time>
      </trkpt>
      <trkpt lat="47.0392" lon="9.06153">
        <ele>492</ele>
        <time>2021-08-02T07:44:53.316Z</time>
      </trkpt>
      <trkpt lat="47.0392" lon="9.06154">
        <ele>492</ele>
        <time>2021-08-02T07:44:54.316Z</time>
      </trkpt>
      <trkpt lat="47.0392" lon="9.06154">
        <ele>491</ele>
        <time>2021-08-02T07:44:55.315Z</time>
      </trkpt>
      <trkpt lat="47.0392" lon="9.06154">
        <ele>491</ele>
        <time>2021-08-02T07:44:56.316Z</time>
      </trkpt>
      <trkpt lat="47.0392" lon="9.06155">
        <ele>491</ele>
        <time>2021-08-02T07:44:57.315Z</time>
      </trkpt>
      <trkpt lat="47.0392" lon="9.06156">
        <ele>491</ele>
        <time>2021-08-02T07:44:58.315Z</time>
      </trkpt>
      <trkpt lat="47.0392" lon="9.06158">
        <ele>491</ele>
        <time>2021-08-02T07:44:59.316Z</time>
      </trkpt>
      <trkpt lat="47.0392" lon="9.06159">
        <ele>491</ele>
        <time>2021-08-02T07:45:00.315Z</time>
      </trkpt>
      <trkpt lat="47.0392" lon="9.0616">
        <ele>491</ele>
        <time>2021-08-02T07:45:01.316Z</time>
      </trkpt>
      <trkpt lat="47.0392" lon="9.06161">
        <ele>492</ele>
        <time>2021-08-02T07:45:02.316Z</time>
      </trkpt>
      <trkpt lat="47.0392" lon="9.06162">
        <ele>492</ele>
        <time>2021-08-02T07:45:03.315Z</time>
      </trkpt>
      <trkpt lat="47.0392" lon="9.06164">
        <ele>492</ele>
        <time>2021-08-02T07:45:04.315Z</time>
      </trkpt>
      <trkpt lat="47.0392" lon="9.06166">
        <ele>492</ele>
        <time>2021-08-02T07:45:05.316Z</time>
      </trkpt>
      <trkpt lat="47.03921" lon="9.06167">
        <ele>492</ele>
        <time>2021-08-02T07:45:06.316Z</time>
      </trkpt>
      <trkpt lat="47.03921" lon="9.06169">
        <ele>492</ele>
        <time>2021-08-02T07:45:07.315Z</time>
      </trkpt>
      <trkpt lat="47.0392" lon="9.06171">
        <ele>492</ele>
        <time>2021-08-02T07:45:08.315Z</time>
      </trkpt>
      <trkpt lat="47.0392" lon="9.06173">
        <ele>492</ele>
        <time>2021-08-02T07:45:09.315Z</time>
      </trkpt>
      <trkpt lat="47.0392" lon="9.06175">
        <ele>492</ele>
        <time>2021-08-02T07:45:10.315Z</time>
      </trkpt>
      <trkpt lat="47.0392" lon="9.06177">
        <ele>492</ele>
        <time>2021-08-02T07:45:11.315Z</time>
      </trkpt>
      <trkpt lat="47.03921" lon="9.06178">
        <ele>492</ele>
        <time>2021-08-02T07:45:12.315Z</time>
      </trkpt>
      <trkpt lat="47.03921" lon="9.0618">
        <ele>492</ele>
        <time>2021-08-02T07:45:13.315Z</time>
      </trkpt>
      <trkpt lat="47.03921" lon="9.06182">
        <ele>492</ele>
        <time>2021-08-02T07:45:14.315Z</time>
      </trkpt>
      <trkpt lat="47.03921" lon="9.06184">
        <ele>492</ele>
        <time>2021-08-02T07:45:15.315Z</time>
      </trkpt>
      <trkpt lat="47.03922" lon="9.06186">
        <ele>492</ele>
        <time>2021-08-02T07:45:16.315Z</time>
      </trkpt>
      <trkpt lat="47.03922" lon="9.06188">
        <ele>492</ele>
        <time>2021-08-02T07:45:17.315Z</time>
      </trkpt>
      <trkpt lat="47.03922" lon="9.0619">
        <ele>492</ele>
        <time>2021-08-02T07:45:18.315Z</time>
      </trkpt>
      <trkpt lat="47.03922" lon="9.06191">
        <ele>491</ele>
        <time>2021-08-02T07:45:19.316Z</time>
      </trkpt>
      <trkpt lat="47.03922" lon="9.06193">
        <ele>491</ele>
        <time>2021-08-02T07:45:20.316Z</time>
      </trkpt>
      <trkpt lat="47.03922" lon="9.06195">
        <ele>491</ele>
        <time>2021-08-02T07:45:21.315Z</time>
      </trkpt>
      <trkpt lat="47.03922" lon="9.06197">
        <ele>491</ele>
        <time>2021-08-02T07:45:22.315Z</time>
      </trkpt>
      <trkpt lat="47.03922" lon="9.062">
        <ele>491</ele>
        <time>2021-08-02T07:45:23.316Z</time>
      </trkpt>
      <trkpt lat="47.03922" lon="9.06202">
        <ele>491</ele>
        <time>2021-08-02T07:45:24.316Z</time>
      </trkpt>
      <trkpt lat="47.03922" lon="9.06203">
        <ele>491</ele>
        <time>2021-08-02T07:45:25.316Z</time>
      </trkpt>
      <trkpt lat="47.03922" lon="9.06205">
        <ele>491</ele>
        <time>2021-08-02T07:45:26.316Z</time>
      </trkpt>
      <trkpt lat="47.03923" lon="9.06207">
        <ele>491</ele>
        <time>2021-08-02T07:45:27.315Z</time>
      </trkpt>
      <trkpt lat="47.03923" lon="9.06209">
        <ele>491</ele>
        <time>2021-08-02T07:45:28.316Z</time>
      </trkpt>
      <trkpt lat="47.03924" lon="9.0621">
        <ele>492</ele>
        <time>2021-08-02T07:45:29.316Z</time>
      </trkpt>
      <trkpt lat="47.03924" lon="9.06212">
        <ele>492</ele>
        <time>2021-08-02T07:45:30.316Z</time>
      </trkpt>
      <trkpt lat="47.03924" lon="9.06214">
        <ele>493</ele>
        <time>2021-08-02T07:45:31.316Z</time>
      </trkpt>
      <trkpt lat="47.03924" lon="9.06216">
        <ele>494</ele>
        <time>2021-08-02T07:45:32.316Z</time>
      </trkpt>
      <trkpt lat="47.03924" lon="9.06218">
        <ele>494</ele>
        <time>2021-08-02T07:45:33.316Z</time>
      </trkpt>
      <trkpt lat="47.03925" lon="9.0622">
        <ele>495</ele>
        <time>2021-08-02T07:45:34.316Z</time>
      </trkpt>
      <trkpt lat="47.03925" lon="9.06222">
        <ele>496</ele>
        <time>2021-08-02T07:45:35.316Z</time>
      </trkpt>
      <trkpt lat="47.03925" lon="9.06224">
        <ele>496</ele>
        <time>2021-08-02T07:45:36.315Z</time>
      </trkpt>
      <trkpt lat="47.03925" lon="9.06225">
        <ele>498</ele>
        <time>2021-08-02T07:45:37.316Z</time>
      </trkpt>
      <trkpt lat="47.03925" lon="9.06228">
        <ele>499</ele>
        <time>2021-08-02T07:45:38.315Z</time>
      </trkpt>
      <trkpt lat="47.03926" lon="9.0623">
        <ele>500</ele>
        <time>2021-08-02T07:45:39.316Z</time>
      </trkpt>
      <trkpt lat="47.03926" lon="9.06232">
        <ele>501</ele>
        <time>2021-08-02T07:45:40.316Z</time>
      </trkpt>
      <trkpt lat="47.03926" lon="9.06233">
        <ele>502</ele>
        <time>2021-08-02T07:45:41.316Z</time>
      </trkpt>
      <trkpt lat="47.03926" lon="9.06233">
        <ele>502</ele>
        <time>2021-08-02T07:45:42.316Z</time>
      </trkpt>
      <trkpt lat="47.03926" lon="9.06231">
        <ele>503</ele>
        <time>2021-08-02T07:45:43.315Z</time>
      </trkpt>
      <trkpt lat="47.03925" lon="9.0623">
        <ele>503</ele>
        <time>2021-08-02T07:45:44.315Z</time>
      </trkpt>
      <trkpt lat="47.03925" lon="9.06228">
        <ele>502</ele>
        <time>2021-08-02T07:45:45.316Z</time>
      </trkpt>
      <trkpt lat="47.03925" lon="9.06226">
        <ele>502</ele>
        <time>2021-08-02T07:45:46.316Z</time>
      </trkpt>
      <trkpt lat="47.03925" lon="9.06224">
        <ele>502</ele>
        <time>2021-08-02T07:45:47.316Z</time>
      </trkpt>
      <trkpt lat="47.03925" lon="9.06222">
        <ele>501</ele>
        <time>2021-08-02T07:45:48.315Z</time>
      </trkpt>
      <trkpt lat="47.03925" lon="9.0622">
        <ele>501</ele>
        <time>2021-08-02T07:45:49.316Z</time>
      </trkpt>
      <trkpt lat="47.03925" lon="9.06218">
        <ele>500</ele>
        <time>2021-08-02T07:45:50.316Z</time>
      </trkpt>
      <trkpt lat="47.03925" lon="9.06217">
        <ele>500</ele>
        <time>2021-08-02T07:45:51.315Z</time>
      </trkpt>
      <trkpt lat="47.03925" lon="9.06215">
        <ele>499</ele>
        <time>2021-08-02T07:45:52.316Z</time>
      </trkpt>
      <trkpt lat="47.03925" lon="9.06214">
        <ele>499</ele>
        <time>2021-08-02T07:45:53.316Z</time>
      </trkpt>
      <trkpt lat="47.03925" lon="9.06213">
        <ele>499</ele>
        <time>2021-08-02T07:45:54.316Z</time>
      </trkpt>
      <trkpt lat="47.03925" lon="9.06211">
        <ele>499</ele>
        <time>2021-08-02T07:45:55.315Z</time>
      </trkpt>
      <trkpt lat="47.03925" lon="9.06209">
        <ele>498</ele>
        <time>2021-08-02T07:45:56.315Z</time>
      </trkpt>
      <trkpt lat="47.03925" lon="9.06206">
        <ele>498</ele>
        <time>2021-08-02T07:45:57.316Z</time>
      </trkpt>
      <trkpt lat="47.03925" lon="9.06205">
        <ele>498</ele>
        <time>2021-08-02T07:45:58.316Z</time>
      </trkpt>
      <trkpt lat="47.03926" lon="9.06204">
        <ele>497</ele>
        <time>2021-08-02T07:45:59.316Z</time>
      </trkpt>
      <trkpt lat="47.03927" lon="9.06203">
        <ele>497</ele>
        <time>2021-08-02T07:46:00.316Z</time>
      </trkpt>
      <trkpt lat="47.03927" lon="9.06201">
        <ele>497</ele>
        <time>2021-08-02T07:46:01.316Z</time>
      </trkpt>
      <trkpt lat="47.03927" lon="9.06199">
        <ele>497</ele>
        <time>2021-08-02T07:46:02.315Z</time>
      </trkpt>
      <trkpt lat="47.03926" lon="9.06196">
        <ele>497</ele>
        <time>2021-08-02T07:46:03.315Z</time>
      </trkpt>
      <trkpt lat="47.03925" lon="9.06194">
        <ele>497</ele>
        <time>2021-08-02T07:46:04.316Z</time>
      </trkpt>
      <trkpt lat="47.03925" lon="9.06192">
        <ele>497</ele>
        <time>2021-08-02T07:46:05.316Z</time>
      </trkpt>
      <trkpt lat="47.03926" lon="9.0619">
        <ele>497</ele>
        <time>2021-08-02T07:46:06.316Z</time>
      </trkpt>
      <trkpt lat="47.03926" lon="9.06188">
        <ele>497</ele>
        <time>2021-08-02T07:46:07.316Z</time>
      </trkpt>
      <trkpt lat="47.03926" lon="9.06187">
        <ele>498</ele>
        <time>2021-08-02T07:46:08.316Z</time>
      </trkpt>
      <trkpt lat="47.03925" lon="9.06185">
        <ele>498</ele>
        <time>2021-08-02T07:46:09.316Z</time>
      </trkpt>
      <trkpt lat="47.03925" lon="9.06183">
        <ele>498</ele>
        <time>2021-08-02T07:46:10.316Z</time>
      </trkpt>
      <trkpt lat="47.03925" lon="9.0618">
        <ele>499</ele>
        <time>2021-08-02T07:46:11.316Z</time>
      </trkpt>
      <trkpt lat="47.03925" lon="9.06179">
        <ele>499</ele>
        <time>2021-08-02T07:46:12.315Z</time>
      </trkpt>
      <trkpt lat="47.03925" lon="9.06178">
        <ele>499</ele>
        <time>2021-08-02T07:46:13.316Z</time>
      </trkpt>
      <trkpt lat="47.03926" lon="9.06177">
        <ele>499</ele>
        <time>2021-08-02T07:46:14.316Z</time>
      </trkpt>
      <trkpt lat="47.03926" lon="9.06175">
        <ele>499</ele>
        <time>2021-08-02T07:46:15.316Z</time>
      </trkpt>
      <trkpt lat="47.03926" lon="9.06174">
        <ele>499</ele>
        <time>2021-08-02T07:46:16.315Z</time>
      </trkpt>
      <trkpt lat="47.03926" lon="9.06172">
        <ele>499</ele>
        <time>2021-08-02T07:46:17.316Z</time>
      </trkpt>
      <trkpt lat="47.03926" lon="9.0617">
        <ele>499</ele>
        <time>2021-08-02T07:46:18.316Z</time>
      </trkpt>
      <trkpt lat="47.03926" lon="9.06168">
        <ele>499</ele>
        <time>2021-08-02T07:46:19.316Z</time>
      </trkpt>
      <trkpt lat="47.03926" lon="9.06166">
        <ele>500</ele>
        <time>2021-08-02T07:46:20.316Z</time>
      </trkpt>
      <trkpt lat="47.03925" lon="9.06165">
        <ele>500</ele>
        <time>2021-08-02T07:46:21.316Z</time>
      </trkpt>
      <trkpt lat="47.03925" lon="9.06163">
        <ele>500</ele>
        <time>2021-08-02T07:46:22.316Z</time>
      </trkpt>
      <trkpt lat="47.03925" lon="9.06161">
        <ele>499</ele>
        <time>2021-08-02T07:46:23.316Z</time>
      </trkpt>
      <trkpt lat="47.03925" lon="9.06159">
        <ele>499</ele>
        <time>2021-08-02T07:46:24.316Z</time>
      </trkpt>
      <trkpt lat="47.03925" lon="9.06157">
        <ele>499</ele>
        <time>2021-08-02T07:46:25.316Z</time>
      </trkpt>
      <trkpt lat="47.03925" lon="9.06155">
        <ele>499</ele>
        <time>2021-08-02T07:46:26.315Z</time>
      </trkpt>
      <trkpt lat="47.03925" lon="9.06153">
        <ele>499</ele>
        <time>2021-08-02T07:46:27.316Z</time>
      </trkpt>
      <trkpt lat="47.03925" lon="9.06151">
        <ele>499</ele>
        <time>2021-08-02T07:46:28.316Z</time>
      </trkpt>
      <trkpt lat="47.03925" lon="9.06149">
        <ele>500</ele>
        <time>2021-08-02T07:46:29.316Z</time>
      </trkpt>
      <trkpt lat="47.03926" lon="9.06147">
        <ele>499</ele>
        <time>2021-08-02T07:46:30.316Z</time>
      </trkpt>
      <trkpt lat="47.03926" lon="9.06146">
        <ele>499</ele>
        <time>2021-08-02T07:46:31.316Z</time>
      </trkpt>
      <trkpt lat="47.03927" lon="9.06144">
        <ele>499</ele>
        <time>2021-08-02T07:46:32.315Z</time>
      </trkpt>
      <trkpt lat="47.03928" lon="9.06142">
        <ele>499</ele>
        <time>2021-08-02T07:46:33.315Z</time>
      </trkpt>
      <trkpt lat="47.03928" lon="9.0614">
        <ele>498</ele>
        <time>2021-08-02T07:46:34.315Z</time>
      </trkpt>
      <trkpt lat="47.03928" lon="9.06138">
        <ele>498</ele>
        <time>2021-08-02T07:46:35.315Z</time>
      </trkpt>
      <trkpt lat="47.03927" lon="9.06135">
        <ele>498</ele>
        <time>2021-08-02T07:46:36.316Z</time>
      </trkpt>
      <trkpt lat="47.03926" lon="9.06132">
        <ele>498</ele>
        <time>2021-08-02T07:46:37.316Z</time>
      </trkpt>
      <trkpt lat="47.03926" lon="9.0613">
        <ele>498</ele>
        <time>2021-08-02T07:46:38.316Z</time>
      </trkpt>
      <trkpt lat="47.03926" lon="9.06129">
        <ele>498</ele>
        <time>2021-08-02T07:46:39.316Z</time>
      </trkpt>
      <trkpt lat="47.03926" lon="9.06127">
        <ele>499</ele>
        <time>2021-08-02T07:46:40.316Z</time>
      </trkpt>
      <trkpt lat="47.03925" lon="9.06126">
        <ele>499</ele>
        <time>2021-08-02T07:46:41.315Z</time>
      </trkpt>
      <trkpt lat="47.03925" lon="9.06124">
        <ele>498</ele>
        <time>2021-08-02T07:46:42.315Z</time>
      </trkpt>
      <trkpt lat="47.03925" lon="9.06122">
        <ele>498</ele>
        <time>2021-08-02T07:46:43.315Z</time>
      </trkpt>
      <trkpt lat="47.03926" lon="9.06121">
        <ele>498</ele>
        <time>2021-08-02T07:46:44.315Z</time>
      </trkpt>
      <trkpt lat="47.03926" lon="9.06119">
        <ele>498</ele>
        <time>2021-08-02T07:46:45.315Z</time>
      </trkpt>
      <trkpt lat="47.03927" lon="9.06117">
        <ele>498</ele>
        <time>2021-08-02T07:46:46.316Z</time>
      </trkpt>
      <trkpt lat="47.03927" lon="9.06116">
        <ele>498</ele>
        <time>2021-08-02T07:46:47.316Z</time>
      </trkpt>
      <trkpt lat="47.03927" lon="9.06114">
        <ele>498</ele>
        <time>2021-08-02T07:46:48.316Z</time>
      </trkpt>
      <trkpt lat="47.03927" lon="9.06112">
        <ele>499</ele>
        <time>2021-08-02T07:46:49.315Z</time>
      </trkpt>
      <trkpt lat="47.03926" lon="9.0611">
        <ele>499</ele>
        <time>2021-08-02T07:46:50.316Z</time>
      </trkpt>
      <trkpt lat="47.03926" lon="9.06108">
        <ele>500</ele>
        <time>2021-08-02T07:46:51.316Z</time>
      </trkpt>
      <trkpt lat="47.03926" lon="9.06106">
        <ele>500</ele>
        <time>2021-08-02T07:46:52.316Z</time>
      </trkpt>
      <trkpt lat="47.03926" lon="9.06104">
        <ele>501</ele>
        <time>2021-08-02T07:46:53.315Z</time>
      </trkpt>
      <trkpt lat="47.03926" lon="9.06103">
        <ele>501</ele>
        <time>2021-08-02T07:46:54.316Z</time>
      </trkpt>
      <trkpt lat="47.03926" lon="9.06101">
        <ele>502</ele>
        <time>2021-08-02T07:46:55.316Z</time>
      </trkpt>
      <trkpt lat="47.03925" lon="9.06099">
        <ele>502</ele>
        <time>2021-08-02T07:46:56.316Z</time>
      </trkpt>
      <trkpt lat="47.03925" lon="9.06098">
        <ele>503</ele>
        <time>2021-08-02T07:46:57.315Z</time>
      </trkpt>
      <trkpt lat="47.03925" lon="9.06096">
        <ele>503</ele>
        <time>2021-08-02T07:46:58.315Z</time>
      </trkpt>
      <trkpt lat="47.03925" lon="9.06095">
        <ele>503</ele>
        <time>2021-08-02T07:46:59.316Z</time>
      </trkpt>
      <trkpt lat="47.03924" lon="9.06093">
        <ele>504</ele>
        <time>2021-08-02T07:47:00.316Z</time>
      </trkpt>
      <trkpt lat="47.03924" lon="9.06092">
        <ele>504</ele>
        <time>2021-08-02T07:47:01.315Z</time>
      </trkpt>
      <trkpt lat="47.03924" lon="9.06091">
        <ele>504</ele>
        <time>2021-08-02T07:47:02.315Z</time>
      </trkpt>
      <trkpt lat="47.03924" lon="9.0609">
        <ele>505</ele>
        <time>2021-08-02T07:47:03.315Z</time>
      </trkpt>
      <trkpt lat="47.03923" lon="9.06089">
        <ele>505</ele>
        <time>2021-08-02T07:47:04.315Z</time>
      </trkpt>
      <trkpt lat="47.03923" lon="9.06088">
        <ele>505</ele>
        <time>2021-08-02T07:47:05.316Z</time>
      </trkpt>
      <trkpt lat="47.03924" lon="9.06086">
        <ele>505</ele>
        <time>2021-08-02T07:47:06.316Z</time>
      </trkpt>
      <trkpt lat="47.03924" lon="9.06085">
        <ele>505</ele>
        <time>2021-08-02T07:47:07.316Z</time>
      </trkpt>
      <trkpt lat="47.03925" lon="9.06086">
        <ele>505</ele>
        <time>2021-08-02T07:47:08.315Z</time>
      </trkpt>
      <trkpt lat="47.03926" lon="9.06086">
        <ele>505</ele>
        <time>2021-08-02T07:47:09.316Z</time>
      </trkpt>
      <trkpt lat="47.03926" lon="9.06085">
        <ele>504</ele>
        <time>2021-08-02T07:47:10.315Z</time>
      </trkpt>
      <trkpt lat="47.03927" lon="9.06084">
        <ele>504</ele>
        <time>2021-08-02T07:47:11.316Z</time>
      </trkpt>
      <trkpt lat="47.03928" lon="9.06083">
        <ele>503</ele>
        <time>2021-08-02T07:47:12.316Z</time>
      </trkpt>
      <trkpt lat="47.03928" lon="9.06082">
        <ele>502</ele>
        <time>2021-08-02T07:47:13.315Z</time>
      </trkpt>
      <trkpt lat="47.03927" lon="9.06081">
        <ele>502</ele>
        <time>2021-08-02T07:47:14.316Z</time>
      </trkpt>
      <trkpt lat="47.03926" lon="9.0608">
        <ele>501</ele>
        <time>2021-08-02T07:47:15.316Z</time>
      </trkpt>
      <trkpt lat="47.03925" lon="9.06078">
        <ele>501</ele>
        <time>2021-08-02T07:47:16.315Z</time>
      </trkpt>
      <trkpt lat="47.03925" lon="9.06077">
        <ele>501</ele>
        <time>2021-08-02T07:47:17.316Z</time>
      </trkpt>
      <trkpt lat="47.03924" lon="9.06076">
        <ele>501</ele>
        <time>2021-08-02T07:47:18.316Z</time>
      </trkpt>
      <trkpt lat="47.03924" lon="9.06074">
        <ele>501</ele>
        <time>2021-08-02T07:47:19.316Z</time>
      </trkpt>
      <trkpt lat="47.03924" lon="9.06073">
        <ele>500</ele>
        <time>2021-08-02T07:47:20.316Z</time>
      </trkpt>
      <trkpt lat="47.03923" lon="9.06071">
        <ele>500</ele>
        <time>2021-08-02T07:47:21.315Z</time>
      </trkpt>
      <trkpt lat="47.03923" lon="9.0607">
        <ele>500</ele>
        <time>2021-08-02T07:47:22.315Z</time>
      </trkpt>
      <trkpt lat="47.03923" lon="9.06068">
        <ele>499</ele>
        <time>2021-08-02T07:47:23.316Z</time>
      </trkpt>
      <trkpt lat="47.03923" lon="9.06066">
        <ele>499</ele>
        <time>2021-08-02T07:47:24.315Z</time>
      </trkpt>
      <trkpt lat="47.03923" lon="9.06064">
        <ele>500</ele>
        <time>2021-08-02T07:47:25.315Z</time>
      </trkpt>
      <trkpt lat="47.03922" lon="9.06062">
        <ele>500</ele>
        <time>2021-08-02T07:47:26.316Z</time>
      </trkpt>
      <trkpt lat="47.03923" lon="9.06061">
        <ele>500</ele>
        <time>2021-08-02T07:47:27.316Z</time>
      </trkpt>
      <trkpt lat="47.03923" lon="9.06059">
        <ele>501</ele>
        <time>2021-08-02T07:47:28.316Z</time>
      </trkpt>
      <trkpt lat="47.03922" lon="9.06058">
        <ele>501</ele>
        <time>2021-08-02T07:47:29.316Z</time>
      </trkpt>
      <trkpt lat="47.03922" lon="9.06057">
        <ele>502</ele>
        <time>2021-08-02T07:47:30.316Z</time>
      </trkpt>
      <trkpt lat="47.03922" lon="9.06055">
        <ele>502</ele>
        <time>2021-08-02T07:47:31.316Z</time>
      </trkpt>
      <trkpt lat="47.03922" lon="9.06054">
        <ele>503</ele>
        <time>2021-08-02T07:47:32.316Z</time>
      </trkpt>
      <trkpt lat="47.03922" lon="9.06052">
        <ele>503</ele>
        <time>2021-08-02T07:47:33.316Z</time>
      </trkpt>
      <trkpt lat="47.03921" lon="9.0605">
        <ele>503</ele>
        <time>2021-08-02T07:47:34.316Z</time>
      </trkpt>
      <trkpt lat="47.03921" lon="9.06048">
        <ele>504</ele>
        <time>2021-08-02T07:47:35.316Z</time>
      </trkpt>
      <trkpt lat="47.03921" lon="9.06046">
        <ele>504</ele>
        <time>2021-08-02T07:47:36.316Z</time>
      </trkpt>
      <trkpt lat="47.03921" lon="9.06045">
        <ele>504</ele>
        <time>2021-08-02T07:47:37.315Z</time>
      </trkpt>
      <trkpt lat="47.03921" lon="9.06043">
        <ele>504</ele>
        <time>2021-08-02T07:47:38.316Z</time>
      </trkpt>
      <trkpt lat="47.0392" lon="9.06041">
        <ele>503</ele>
        <time>2021-08-02T07:47:39.315Z</time>
      </trkpt>
      <trkpt lat="47.0392" lon="9.06039">
        <ele>503</ele>
        <time>2021-08-02T07:47:40.316Z</time>
      </trkpt>
      <trkpt lat="47.03919" lon="9.06038">
        <ele>504</ele>
        <time>2021-08-02T07:47:41.316Z</time>
      </trkpt>
      <trkpt lat="47.03919" lon="9.06037">
        <ele>504</ele>
        <time>2021-08-02T07:47:42.316Z</time>
      </trkpt>
      <trkpt lat="47.03918" lon="9.06035">
        <ele>504</ele>
        <time>2021-08-02T07:47:43.315Z</time>
      </trkpt>
      <trkpt lat="47.03917" lon="9.06033">
        <ele>505</ele>
        <time>2021-08-02T07:47:44.316Z</time>
      </trkpt>
      <trkpt lat="47.03916" lon="9.06031">
        <ele>505</ele>
        <time>2021-08-02T07:47:45.316Z</time>
      </trkpt>
      <trkpt lat="47.03916" lon="9.06029">
        <ele>506</ele>
        <time>2021-08-02T07:47:46.316Z</time>
      </trkpt>
      <trkpt lat="47.03916" lon="9.06028">
        <ele>506</ele>
        <time>2021-08-02T07:47:47.316Z</time>
      </trkpt>
      <trkpt lat="47.03916" lon="9.06027">
        <ele>507</ele>
        <time>2021-08-02T07:47:48.315Z</time>
      </trkpt>
      <trkpt lat="47.03916" lon="9.06025">
        <ele>508</ele>
        <time>2021-08-02T07:47:49.316Z</time>
      </trkpt>
      <trkpt lat="47.03916" lon="9.06023">
        <ele>508</ele>
        <time>2021-08-02T07:47:50.316Z</time>
      </trkpt>
      <trkpt lat="47.03916" lon="9.06022">
        <ele>509</ele>
        <time>2021-08-02T07:47:51.316Z</time>
      </trkpt>
      <trkpt lat="47.03917" lon="9.0602">
        <ele>509</ele>
        <time>2021-08-02T07:47:52.316Z</time>
      </trkpt>
      <trkpt lat="47.03918" lon="9.06018">
        <ele>510</ele>
        <time>2021-08-02T07:47:53.316Z</time>
      </trkpt>
      <trkpt lat="47.03918" lon="9.06017">
        <ele>511</ele>
        <time>2021-08-02T07:47:54.315Z</time>
      </trkpt>
      <trkpt lat="47.03919" lon="9.06016">
        <ele>511</ele>
        <time>2021-08-02T07:47:55.315Z</time>
      </trkpt>
      <trkpt lat="47.03918" lon="9.06014">
        <ele>512</ele>
        <time>2021-08-02T07:47:56.316Z</time>
      </trkpt>
      <trkpt lat="47.03918" lon="9.06013">
        <ele>512</ele>
        <time>2021-08-02T07:47:57.315Z</time>
      </trkpt>
      <trkpt lat="47.03917" lon="9.06011">
        <ele>513</ele>
        <time>2021-08-02T07:47:58.316Z</time>
      </trkpt>
      <trkpt lat="47.03917" lon="9.06009">
        <ele>513</ele>
        <time>2021-08-02T07:47:59.316Z</time>
      </trkpt>
      <trkpt lat="47.03917" lon="9.06007">
        <ele>514</ele>
        <time>2021-08-02T07:48:00.316Z</time>
      </trkpt>
      <trkpt lat="47.03917" lon="9.06005">
        <ele>514</ele>
        <time>2021-08-02T07:48:01.316Z</time>
      </trkpt>
      <trkpt lat="47.03916" lon="9.06003">
        <ele>514</ele>
        <time>2021-08-02T07:48:02.316Z</time>
      </trkpt>
      <trkpt lat="47.03915" lon="9.06002">
        <ele>513</ele>
        <time>2021-08-02T07:48:03.315Z</time>
      </trkpt>
      <trkpt lat="47.03915" lon="9.05999">
        <ele>513</ele>
        <time>2021-08-02T07:48:04.315Z</time>
      </trkpt>
      <trkpt lat="47.03915" lon="9.05998">
        <ele>512</ele>
        <time>2021-08-02T07:48:05.316Z</time>
      </trkpt>
      <trkpt lat="47.03914" lon="9.05997">
        <ele>512</ele>
        <time>2021-08-02T07:48:06.316Z</time>
      </trkpt>
      <trkpt lat="47.03914" lon="9.05995">
        <ele>511</ele>
        <time>2021-08-02T07:48:07.316Z</time>
      </trkpt>
      <trkpt lat="47.03914" lon="9.05993">
        <ele>511</ele>
        <time>2021-08-02T07:48:08.316Z</time>
      </trkpt>
      <trkpt lat="47.03914" lon="9.05992">
        <ele>510</ele>
        <time>2021-08-02T07:48:09.315Z</time>
      </trkpt>
      <trkpt lat="47.03914" lon="9.0599">
        <ele>510</ele>
        <time>2021-08-02T07:48:10.315Z</time>
      </trkpt>
      <trkpt lat="47.03914" lon="9.05989">
        <ele>509</ele>
        <time>2021-08-02T07:48:11.316Z</time>
      </trkpt>
      <trkpt lat="47.03914" lon="9.05987">
        <ele>508</ele>
        <time>2021-08-02T07:48:12.316Z</time>
      </trkpt>
      <trkpt lat="47.03914" lon="9.05986">
        <ele>508</ele>
        <time>2021-08-02T07:48:13.316Z</time>
      </trkpt>
      <trkpt lat="47.03914" lon="9.05984">
        <ele>507</ele>
        <time>2021-08-02T07:48:14.315Z</time>
      </trkpt>
      <trkpt lat="47.03914" lon="9.05982">
        <ele>506</ele>
        <time>2021-08-02T07:48:15.316Z</time>
      </trkpt>
      <trkpt lat="47.03914" lon="9.0598">
        <ele>506</ele>
        <time>2021-08-02T07:48:16.315Z</time>
      </trkpt>
      <trkpt lat="47.03914" lon="9.05978">
        <ele>506</ele>
        <time>2021-08-02T07:48:17.315Z</time>
      </trkpt>
      <trkpt lat="47.03914" lon="9.05977">
        <ele>506</ele>
        <time>2021-08-02T07:48:18.316Z</time>
      </trkpt>
      <trkpt lat="47.03914" lon="9.05976">
        <ele>505</ele>
        <time>2021-08-02T07:48:19.316Z</time>
      </trkpt>
      <trkpt lat="47.03914" lon="9.05974">
        <ele>505</ele>
        <time>2021-08-02T07:48:20.316Z</time>
      </trkpt>
      <trkpt lat="47.03914" lon="9.05972">
        <ele>505</ele>
        <time>2021-08-02T07:48:21.316Z</time>
      </trkpt>
      <trkpt lat="47.03914" lon="9.0597">
        <ele>505</ele>
        <time>2021-08-02T07:48:22.316Z</time>
      </trkpt>
      <trkpt lat="47.03914" lon="9.05969">
        <ele>505</ele>
        <time>2021-08-02T07:48:23.316Z</time>
      </trkpt>
      <trkpt lat="47.03914" lon="9.05967">
        <ele>505</ele>
        <time>2021-08-02T07:48:24.315Z</time>
      </trkpt>
      <trkpt lat="47.03914" lon="9.05965">
        <ele>505</ele>
        <time>2021-08-02T07:48:25.316Z</time>
      </trkpt>
      <trkpt lat="47.03915" lon="9.05964">
        <ele>505</ele>
        <time>2021-08-02T07:48:26.316Z</time>
      </trkpt>
      <trkpt lat="47.03915" lon="9.05963">
        <ele>504</ele>
        <time>2021-08-02T07:48:27.316Z</time>
      </trkpt>
      <trkpt lat="47.03915" lon="9.05962">
        <ele>504</ele>
        <time>2021-08-02T07:48:28.316Z</time>
      </trkpt>
      <trkpt lat="47.03915" lon="9.0596">
        <ele>503</ele>
        <time>2021-08-02T07:48:29.316Z</time>
      </trkpt>
      <trkpt lat="47.03914" lon="9.05959">
        <ele>503</ele>
        <time>2021-08-02T07:48:30.316Z</time>
      </trkpt>
      <trkpt lat="47.03914" lon="9.05956">
        <ele>502</ele>
        <time>2021-08-02T07:48:31.315Z</time>
      </trkpt>
      <trkpt lat="47.03914" lon="9.05954">
        <ele>502</ele>
        <time>2021-08-02T07:48:32.316Z</time>
      </trkpt>
      <trkpt lat="47.03913" lon="9.05952">
        <ele>502</ele>
        <time>2021-08-02T07:48:33.316Z</time>
      </trkpt>
      <trkpt lat="47.03913" lon="9.0595">
        <ele>502</ele>
        <time>2021-08-02T07:48:34.316Z</time>
      </trkpt>
      <trkpt lat="47.03913" lon="9.05949">
        <ele>502</ele>
        <time>2021-08-02T07:48:35.316Z</time>
      </trkpt>
      <trkpt lat="47.03913" lon="9.05948">
        <ele>502</ele>
        <time>2021-08-02T07:48:36.316Z</time>
      </trkpt>
      <trkpt lat="47.03913" lon="9.05947">
        <ele>502</ele>
        <time>2021-08-02T07:48:37.316Z</time>
      </trkpt>
      <trkpt lat="47.03913" lon="9.05945">
        <ele>502</ele>
        <time>2021-08-02T07:48:38.316Z</time>
      </trkpt>
      <trkpt lat="47.03914" lon="9.05944">
        <ele>502</ele>
        <time>2021-08-02T07:48:39.315Z</time>
      </trkpt>
      <trkpt lat="47.03914" lon="9.05943">
        <ele>502</ele>
        <time>2021-08-02T07:48:40.316Z</time>
      </trkpt>
      <trkpt lat="47.03914" lon="9.05941">
        <ele>502</ele>
        <time>2021-08-02T07:48:41.316Z</time>
      </trkpt>
      <trkpt lat="47.03914" lon="9.05939">
        <ele>501</ele>
        <time>2021-08-02T07:48:42.315Z</time>
      </trkpt>
      <trkpt lat="47.03914" lon="9.05937">
        <ele>501</ele>
        <time>2021-08-02T07:48:43.316Z</time>
      </trkpt>
      <trkpt lat="47.03915" lon="9.05935">
        <ele>501</ele>
        <time>2021-08-02T07:48:44.315Z</time>
      </trkpt>
      <trkpt lat="47.03914" lon="9.05933">
        <ele>501</ele>
        <time>2021-08-02T07:48:45.316Z</time>
      </trkpt>
      <trkpt lat="47.03914" lon="9.05932">
        <ele>501</ele>
        <time>2021-08-02T07:48:46.315Z</time>
      </trkpt>
      <trkpt lat="47.03914" lon="9.05931">
        <ele>501</ele>
        <time>2021-08-02T07:48:47.316Z</time>
      </trkpt>
      <trkpt lat="47.03914" lon="9.05929">
        <ele>501</ele>
        <time>2021-08-02T07:48:48.316Z</time>
      </trkpt>
      <trkpt lat="47.03914" lon="9.05927">
        <ele>501</ele>
        <time>2021-08-02T07:48:49.316Z</time>
      </trkpt>
      <trkpt lat="47.03914" lon="9.05926">
        <ele>501</ele>
        <time>2021-08-02T07:48:50.315Z</time>
      </trkpt>
      <trkpt lat="47.03914" lon="9.05924">
        <ele>501</ele>
        <time>2021-08-02T07:48:51.316Z</time>
      </trkpt>
      <trkpt lat="47.03914" lon="9.05923">
        <ele>502</ele>
        <time>2021-08-02T07:48:52.316Z</time>
      </trkpt>
      <trkpt lat="47.03914" lon="9.05921">
        <ele>502</ele>
        <time>2021-08-02T07:48:53.316Z</time>
      </trkpt>
      <trkpt lat="47.03914" lon="9.05919">
        <ele>503</ele>
        <time>2021-08-02T07:48:54.315Z</time>
      </trkpt>
      <trkpt lat="47.03914" lon="9.05918">
        <ele>503</ele>
        <time>2021-08-02T07:48:55.316Z</time>
      </trkpt>
      <trkpt lat="47.03914" lon="9.05916">
        <ele>504</ele>
        <time>2021-08-02T07:48:56.316Z</time>
      </trkpt>
      <trkpt lat="47.03914" lon="9.05915">
        <ele>504</ele>
        <time>2021-08-02T07:48:57.315Z</time>
      </trkpt>
      <trkpt lat="47.03914" lon="9.05913">
        <ele>504</ele>
        <time>2021-08-02T07:48:58.316Z</time>
      </trkpt>
      <trkpt lat="47.03914" lon="9.05912">
        <ele>504</ele>
        <time>2021-08-02T07:48:59.315Z</time>
      </trkpt>
      <trkpt lat="47.03914" lon="9.0591">
        <ele>504</ele>
        <time>2021-08-02T07:49:00.315Z</time>
      </trkpt>
      <trkpt lat="47.03915" lon="9.05909">
        <ele>504</ele>
        <time>2021-08-02T07:49:01.316Z</time>
      </trkpt>
      <trkpt lat="47.03916" lon="9.05908">
        <ele>504</ele>
        <time>2021-08-02T07:49:02.316Z</time>
      </trkpt>
      <trkpt lat="47.03916" lon="9.05907">
        <ele>503</ele>
        <time>2021-08-02T07:49:03.315Z</time>
      </trkpt>
      <trkpt lat="47.03916" lon="9.05906">
        <ele>503</ele>
        <time>2021-08-02T07:49:04.316Z</time>
      </trkpt>
      <trkpt lat="47.03917" lon="9.05904">
        <ele>503</ele>
        <time>2021-08-02T07:49:05.316Z</time>
      </trkpt>
      <trkpt lat="47.03917" lon="9.05903">
        <ele>503</ele>
        <time>2021-08-02T07:49:06.315Z</time>
      </trkpt>
      <trkpt lat="47.03917" lon="9.05901">
        <ele>502</ele>
        <time>2021-08-02T07:49:07.316Z</time>
      </trkpt>
      <trkpt lat="47.03918" lon="9.059">
        <ele>502</ele>
        <time>2021-08-02T07:49:08.315Z</time>
      </trkpt>
      <trkpt lat="47.03918" lon="9.05899">
        <ele>502</ele>
        <time>2021-08-02T07:49:09.316Z</time>
      </trkpt>
      <trkpt lat="47.03918" lon="9.05898">
        <ele>502</ele>
        <time>2021-08-02T07:49:10.315Z</time>
      </trkpt>
      <trkpt lat="47.03919" lon="9.05898">
        <ele>503</ele>
        <time>2021-08-02T07:49:11.316Z</time>
      </trkpt>
      <trkpt lat="47.0392" lon="9.05898">
        <ele>503</ele>
        <time>2021-08-02T07:49:12.315Z</time>
      </trkpt>
      <trkpt lat="47.03921" lon="9.05897">
        <ele>503</ele>
        <time>2021-08-02T07:49:13.316Z</time>
      </trkpt>
      <trkpt lat="47.03921" lon="9.05896">
        <ele>503</ele>
        <time>2021-08-02T07:49:14.315Z</time>
      </trkpt>
      <trkpt lat="47.03922" lon="9.05894">
        <ele>503</ele>
        <time>2021-08-02T07:49:15.316Z</time>
      </trkpt>
      <trkpt lat="47.03923" lon="9.05892">
        <ele>504</ele>
        <time>2021-08-02T07:49:16.316Z</time>
      </trkpt>
      <trkpt lat="47.03923" lon="9.05891">
        <ele>504</ele>
        <time>2021-08-02T07:49:17.316Z</time>
      </trkpt>
      <trkpt lat="47.03924" lon="9.0589">
        <ele>504</ele>
        <time>2021-08-02T07:49:18.316Z</time>
      </trkpt>
      <trkpt lat="47.03925" lon="9.05888">
        <ele>504</ele>
        <time>2021-08-02T07:49:19.315Z</time>
      </trkpt>
      <trkpt lat="47.03925" lon="9.05887">
        <ele>504</ele>
        <time>2021-08-02T07:49:20.316Z</time>
      </trkpt>
      <trkpt lat="47.03925" lon="9.05886">
        <ele>504</ele>
        <time>2021-08-02T07:49:21.315Z</time>
      </trkpt>
      <trkpt lat="47.03926" lon="9.05884">
        <ele>504</ele>
        <time>2021-08-02T07:49:22.315Z</time>
      </trkpt>
      <trkpt lat="47.03926" lon="9.05882">
        <ele>504</ele>
        <time>2021-08-02T07:49:23.315Z</time>
      </trkpt>
      <trkpt lat="47.03926" lon="9.05881">
        <ele>505</ele>
        <time>2021-08-02T07:49:24.315Z</time>
      </trkpt>
      <trkpt lat="47.03927" lon="9.05879">
        <ele>505</ele>
        <time>2021-08-02T07:49:25.315Z</time>
      </trkpt>
      <trkpt lat="47.03927" lon="9.05878">
        <ele>506</ele>
        <time>2021-08-02T07:49:26.315Z</time>
      </trkpt>
      <trkpt lat="47.03926" lon="9.05876">
        <ele>506</ele>
        <time>2021-08-02T07:49:27.315Z</time>
      </trkpt>
      <trkpt lat="47.03926" lon="9.05874">
        <ele>507</ele>
        <time>2021-08-02T07:49:28.315Z</time>
      </trkpt>
      <trkpt lat="47.03925" lon="9.05872">
        <ele>507</ele>
        <time>2021-08-02T07:49:29.315Z</time>
      </trkpt>
      <trkpt lat="47.03925" lon="9.0587">
        <ele>508</ele>
        <time>2021-08-02T07:49:30.315Z</time>
      </trkpt>
      <trkpt lat="47.03925" lon="9.05868">
        <ele>508</ele>
        <time>2021-08-02T07:49:31.316Z</time>
      </trkpt>
      <trkpt lat="47.03926" lon="9.05867">
        <ele>508</ele>
        <time>2021-08-02T07:49:32.315Z</time>
      </trkpt>
      <trkpt lat="47.03926" lon="9.05866">
        <ele>509</ele>
        <time>2021-08-02T07:49:33.315Z</time>
      </trkpt>
      <trkpt lat="47.03926" lon="9.05865">
        <ele>509</ele>
        <time>2021-08-02T07:49:34.315Z</time>
      </trkpt>
      <trkpt lat="47.03926" lon="9.05864">
        <ele>509</ele>
        <time>2021-08-02T07:49:35.315Z</time>
      </trkpt>
      <trkpt lat="47.03926" lon="9.05863">
        <ele>509</ele>
        <time>2021-08-02T07:49:36.315Z</time>
      </trkpt>
      <trkpt lat="47.03926" lon="9.05861">
        <ele>509</ele>
        <time>2021-08-02T07:49:37.315Z</time>
      </trkpt>
      <trkpt lat="47.03926" lon="9.0586">
        <ele>509</ele>
        <time>2021-08-02T07:49:38.315Z</time>
      </trkpt>
      <trkpt lat="47.03927" lon="9.05858">
        <ele>509</ele>
        <time>2021-08-02T07:49:39.315Z</time>
      </trkpt>
      <trkpt lat="47.03928" lon="9.05857">
        <ele>509</ele>
        <time>2021-08-02T07:49:40.315Z</time>
      </trkpt>
      <trkpt lat="47.03927" lon="9.05856">
        <ele>509</ele>
        <time>2021-08-02T07:49:41.315Z</time>
      </trkpt>
      <trkpt lat="47.03927" lon="9.05854">
        <ele>508</ele>
        <time>2021-08-02T07:49:42.315Z</time>
      </trkpt>
      <trkpt lat="47.03928" lon="9.05853">
        <ele>508</ele>
        <time>2021-08-02T07:49:43.315Z</time>
      </trkpt>
      <trkpt lat="47.03928" lon="9.05852">
        <ele>508</ele>
        <time>2021-08-02T07:49:44.315Z</time>
      </trkpt>
      <trkpt lat="47.03929" lon="9.05851">
        <ele>508</ele>
        <time>2021-08-02T07:49:45.315Z</time>
      </trkpt>
      <trkpt lat="47.0393" lon="9.0585">
        <ele>508</ele>
        <time>2021-08-02T07:49:46.315Z</time>
      </trkpt>
      <trkpt lat="47.0393" lon="9.05849">
        <ele>508</ele>
        <time>2021-08-02T07:49:47.315Z</time>
      </trkpt>
      <trkpt lat="47.03931" lon="9.05848">
        <ele>508</ele>
        <time>2021-08-02T07:49:48.315Z</time>
      </trkpt>
      <trkpt lat="47.03931" lon="9.05847">
        <ele>508</ele>
        <time>2021-08-02T07:49:49.315Z</time>
      </trkpt>
      <trkpt lat="47.03931" lon="9.05845">
        <ele>508</ele>
        <time>2021-08-02T07:49:50.316Z</time>
      </trkpt>
      <trkpt lat="47.03932" lon="9.05844">
        <ele>509</ele>
        <time>2021-08-02T07:49:51.316Z</time>
      </trkpt>
      <trkpt lat="47.03932" lon="9.05842">
        <ele>509</ele>
        <time>2021-08-02T07:49:52.316Z</time>
      </trkpt>
      <trkpt lat="47.03932" lon="9.0584">
        <ele>510</ele>
        <time>2021-08-02T07:49:53.316Z</time>
      </trkpt>
      <trkpt lat="47.03932" lon="9.05839">
        <ele>511</ele>
        <time>2021-08-02T07:49:54.316Z</time>
      </trkpt>
      <trkpt lat="47.03932" lon="9.05837">
        <ele>511</ele>
        <time>2021-08-02T07:49:55.316Z</time>
      </trkpt>
      <trkpt lat="47.03932" lon="9.05836">
        <ele>511</ele>
        <time>2021-08-02T07:49:56.316Z</time>
      </trkpt>
      <trkpt lat="47.03932" lon="9.05835">
        <ele>511</ele>
        <time>2021-08-02T07:49:57.316Z</time>
      </trkpt>
      <trkpt lat="47.03932" lon="9.05833">
        <ele>511</ele>
        <time>2021-08-02T07:49:58.316Z</time>
      </trkpt>
      <trkpt lat="47.03933" lon="9.05831">
        <ele>511</ele>
        <time>2021-08-02T07:49:59.316Z</time>
      </trkpt>
      <trkpt lat="47.03933" lon="9.0583">
        <ele>511</ele>
        <time>2021-08-02T07:50:00.316Z</time>
      </trkpt>
      <trkpt lat="47.03934" lon="9.05829">
        <ele>511</ele>
        <time>2021-08-02T07:50:01.315Z</time>
      </trkpt>
      <trkpt lat="47.03935" lon="9.05828">
        <ele>510</ele>
        <time>2021-08-02T07:50:02.316Z</time>
      </trkpt>
      <trkpt lat="47.03936" lon="9.05827">
        <ele>510</ele>
        <time>2021-08-02T07:50:03.316Z</time>
      </trkpt>
      <trkpt lat="47.03938" lon="9.05827">
        <ele>509</ele>
        <time>2021-08-02T07:50:04.316Z</time>
      </trkpt>
      <trkpt lat="47.03939" lon="9.05825">
        <ele>509</ele>
        <time>2021-08-02T07:50:05.316Z</time>
      </trkpt>
      <trkpt lat="47.0394" lon="9.05823">
        <ele>508</ele>
        <time>2021-08-02T07:50:06.315Z</time>
      </trkpt>
      <trkpt lat="47.03941" lon="9.05822">
        <ele>508</ele>
        <time>2021-08-02T07:50:07.316Z</time>
      </trkpt>
      <trkpt lat="47.03942" lon="9.05821">
        <ele>508</ele>
        <time>2021-08-02T07:50:08.316Z</time>
      </trkpt>
      <trkpt lat="47.03942" lon="9.0582">
        <ele>507</ele>
        <time>2021-08-02T07:50:09.316Z</time>
      </trkpt>
      <trkpt lat="47.03942" lon="9.05818">
        <ele>507</ele>
        <time>2021-08-02T07:50:10.315Z</time>
      </trkpt>
      <trkpt lat="47.03943" lon="9.05817">
        <ele>507</ele>
        <time>2021-08-02T07:50:11.316Z</time>
      </trkpt>
      <trkpt lat="47.03944" lon="9.05815">
        <ele>507</ele>
        <time>2021-08-02T07:50:12.315Z</time>
      </trkpt>
      <trkpt lat="47.03945" lon="9.05814">
        <ele>508</ele>
        <time>2021-08-02T07:50:13.316Z</time>
      </trkpt>
      <trkpt lat="47.03946" lon="9.05813">
        <ele>508</ele>
        <time>2021-08-02T07:50:14.316Z</time>
      </trkpt>
      <trkpt lat="47.03946" lon="9.05811">
        <ele>507</ele>
        <time>2021-08-02T07:50:15.316Z</time>
      </trkpt>
      <trkpt lat="47.03946" lon="9.0581">
        <ele>507</ele>
        <time>2021-08-02T07:50:16.315Z</time>
      </trkpt>
      <trkpt lat="47.03946" lon="9.05808">
        <ele>507</ele>
        <time>2021-08-02T07:50:17.315Z</time>
      </trkpt>
      <trkpt lat="47.03946" lon="9.05807">
        <ele>507</ele>
        <time>2021-08-02T07:50:18.316Z</time>
      </trkpt>
      <trkpt lat="47.03946" lon="9.05805">
        <ele>507</ele>
        <time>2021-08-02T07:50:19.316Z</time>
      </trkpt>
      <trkpt lat="47.03946" lon="9.05803">
        <ele>507</ele>
        <time>2021-08-02T07:50:20.315Z</time>
      </trkpt>
      <trkpt lat="47.03946" lon="9.05801">
        <ele>508</ele>
        <time>2021-08-02T07:50:21.316Z</time>
      </trkpt>
      <trkpt lat="47.03947" lon="9.058">
        <ele>508</ele>
        <time>2021-08-02T07:50:22.316Z</time>
      </trkpt>
      <trkpt lat="47.03948" lon="9.05799">
        <ele>508</ele>
        <time>2021-08-02T07:50:23.315Z</time>
      </trkpt>
      <trkpt lat="47.03948" lon="9.05798">
        <ele>508</ele>
        <time>2021-08-02T07:50:24.315Z</time>
      </trkpt>
      <trkpt lat="47.03948" lon="9.05797">
        <ele>508</ele>
        <time>2021-08-02T07:50:25.315Z</time>
      </trkpt>
      <trkpt lat="47.03948" lon="9.05796">
        <ele>508</ele>
        <time>2021-08-02T07:50:26.315Z</time>
      </trkpt>
      <trkpt lat="47.03947" lon="9.05794">
        <ele>508</ele>
        <time>2021-08-02T07:50:27.316Z</time>
      </trkpt>
      <trkpt lat="47.03947" lon="9.05792">
        <ele>508</ele>
        <time>2021-08-02T07:50:28.316Z</time>
      </trkpt>
      <trkpt lat="47.03947" lon="9.05791">
        <ele>508</ele>
        <time>2021-08-02T07:50:29.315Z</time>
      </trkpt>
      <trkpt lat="47.03947" lon="9.05789">
        <ele>509</ele>
        <time>2021-08-02T07:50:30.316Z</time>
      </trkpt>
      <trkpt lat="47.03947" lon="9.05788">
        <ele>509</ele>
        <time>2021-08-02T07:50:31.316Z</time>
      </trkpt>
      <trkpt lat="47.03947" lon="9.05786">
        <ele>509</ele>
        <time>2021-08-02T07:50:32.316Z</time>
      </trkpt>
      <trkpt lat="47.03947" lon="9.05785">
        <ele>509</ele>
        <time>2021-08-02T07:50:33.316Z</time>
      </trkpt>
      <trkpt lat="47.03947" lon="9.05784">
        <ele>509</ele>
        <time>2021-08-02T07:50:34.316Z</time>
      </trkpt>
      <trkpt lat="47.03947" lon="9.05783">
        <ele>509</ele>
        <time>2021-08-02T07:50:35.316Z</time>
      </trkpt>
      <trkpt lat="47.03948" lon="9.05781">
        <ele>509</ele>
        <time>2021-08-02T07:50:36.315Z</time>
      </trkpt>
      <trkpt lat="47.03948" lon="9.0578">
        <ele>509</ele>
        <time>2021-08-02T07:50:37.316Z</time>
      </trkpt>
      <trkpt lat="47.03948" lon="9.05779">
        <ele>509</ele>
        <time>2021-08-02T07:50:38.316Z</time>
      </trkpt>
      <trkpt lat="47.03949" lon="9.05778">
        <ele>509</ele>
        <time>2021-08-02T07:50:39.316Z</time>
      </trkpt>
      <trkpt lat="47.0395" lon="9.05777">
        <ele>509</ele>
        <time>2021-08-02T07:50:40.316Z</time>
      </trkpt>
      <trkpt lat="47.03951" lon="9.05775">
        <ele>509</ele>
        <time>2021-08-02T07:50:41.316Z</time>
      </trkpt>
      <trkpt lat="47.03952" lon="9.05774">
        <ele>509</ele>
        <time>2021-08-02T07:50:42.315Z</time>
      </trkpt>
      <trkpt lat="47.03952" lon="9.05773">
        <ele>509</ele>
        <time>2021-08-02T07:50:43.316Z</time>
      </trkpt>
      <trkpt lat="47.03952" lon="9.05773">
        <ele>509</ele>
        <time>2021-08-02T07:50:44.316Z</time>
      </trkpt>
      <trkpt lat="47.03952" lon="9.05771">
        <ele>509</ele>
        <time>2021-08-02T07:50:45.316Z</time>
      </trkpt>
      <trkpt lat="47.03952" lon="9.05769">
        <ele>509</ele>
        <time>2021-08-02T07:50:46.315Z</time>
      </trkpt>
      <trkpt lat="47.03953" lon="9.05768">
        <ele>509</ele>
        <time>2021-08-02T07:50:47.315Z</time>
      </trkpt>
      <trkpt lat="47.03953" lon="9.05768">
        <ele>509</ele>
        <time>2021-08-02T07:50:48.316Z</time>
      </trkpt>
      <trkpt lat="47.03954" lon="9.05767">
        <ele>509</ele>
        <time>2021-08-02T07:50:49.315Z</time>
      </trkpt>
      <trkpt lat="47.03954" lon="9.05765">
        <ele>509</ele>
        <time>2021-08-02T07:50:50.316Z</time>
      </trkpt>
      <trkpt lat="47.03954" lon="9.05764">
        <ele>509</ele>
        <time>2021-08-02T07:50:51.315Z</time>
      </trkpt>
      <trkpt lat="47.03955" lon="9.05763">
        <ele>509</ele>
        <time>2021-08-02T07:50:52.315Z</time>
      </trkpt>
      <trkpt lat="47.03956" lon="9.05761">
        <ele>509</ele>
        <time>2021-08-02T07:50:53.316Z</time>
      </trkpt>
      <trkpt lat="47.03956" lon="9.05759">
        <ele>509</ele>
        <time>2021-08-02T07:50:54.316Z</time>
      </trkpt>
      <trkpt lat="47.03957" lon="9.05758">
        <ele>509</ele>
        <time>2021-08-02T07:50:55.316Z</time>
      </trkpt>
      <trkpt lat="47.03958" lon="9.05756">
        <ele>508</ele>
        <time>2021-08-02T07:50:56.315Z</time>
      </trkpt>
      <trkpt lat="47.03958" lon="9.05755">
        <ele>508</ele>
        <time>2021-08-02T07:50:57.316Z</time>
      </trkpt>
      <trkpt lat="47.03958" lon="9.05754">
        <ele>508</ele>
        <time>2021-08-02T07:50:58.315Z</time>
      </trkpt>
      <trkpt lat="47.03958" lon="9.05753">
        <ele>508</ele>
        <time>2021-08-02T07:50:59.316Z</time>
      </trkpt>
      <trkpt lat="47.03958" lon="9.05752">
        <ele>508</ele>
        <time>2021-08-02T07:51:00.315Z</time>
      </trkpt>
      <trkpt lat="47.03958" lon="9.05751">
        <ele>508</ele>
        <time>2021-08-02T07:51:01.316Z</time>
      </trkpt>
      <trkpt lat="47.03959" lon="9.05749">
        <ele>508</ele>
        <time>2021-08-02T07:51:02.315Z</time>
      </trkpt>
      <trkpt lat="47.03959" lon="9.05748">
        <ele>508</ele>
        <time>2021-08-02T07:51:03.316Z</time>
      </trkpt>
      <trkpt lat="47.0396" lon="9.05747">
        <ele>508</ele>
        <time>2021-08-02T07:51:04.315Z</time>
      </trkpt>
      <trkpt lat="47.0396" lon="9.05746">
        <ele>509</ele>
        <time>2021-08-02T07:51:05.316Z</time>
      </trkpt>
      <trkpt lat="47.03961" lon="9.05746">
        <ele>509</ele>
        <time>2021-08-02T07:51:06.315Z</time>
      </trkpt>
      <trkpt lat="47.03961" lon="9.05745">
        <ele>510</ele>
        <time>2021-08-02T07:51:07.316Z</time>
      </trkpt>
      <trkpt lat="47.03962" lon="9.05745">
        <ele>511</ele>
        <time>2021-08-02T07:51:08.316Z</time>
      </trkpt>
      <trkpt lat="47.03962" lon="9.05745">
        <ele>511</ele>
        <time>2021-08-02T07:51:09.316Z</time>
      </trkpt>
      <trkpt lat="47.03963" lon="9.05746">
        <ele>512</ele>
        <time>2021-08-02T07:51:10.316Z</time>
      </trkpt>
      <trkpt lat="47.03964" lon="9.05745">
        <ele>512</ele>
        <time>2021-08-02T07:51:11.316Z</time>
      </trkpt>
      <trkpt lat="47.03965" lon="9.05745">
        <ele>512</ele>
        <time>2021-08-02T07:51:12.316Z</time>
      </trkpt>
      <trkpt lat="47.03966" lon="9.05744">
        <ele>512</ele>
        <time>2021-08-02T07:51:13.315Z</time>
      </trkpt>
      <trkpt lat="47.03967" lon="9.05744">
        <ele>512</ele>
        <time>2021-08-02T07:51:14.315Z</time>
      </trkpt>
      <trkpt lat="47.03967" lon="9.05744">
        <ele>512</ele>
        <time>2021-08-02T07:51:15.315Z</time>
      </trkpt>
      <trkpt lat="47.03966" lon="9.05741">
        <ele>510</ele>
        <time>2021-08-02T07:51:16.316Z</time>
      </trkpt>
      <trkpt lat="47.03967" lon="9.05741">
        <ele>510</ele>
        <time>2021-08-02T07:51:17.315Z</time>
      </trkpt>
      <trkpt lat="47.03968" lon="9.05741">
        <ele>510</ele>
        <time>2021-08-02T07:51:18.315Z</time>
      </trkpt>
      <trkpt lat="47.0397" lon="9.05741">
        <ele>510</ele>
        <time>2021-08-02T07:51:19.316Z</time>
      </trkpt>
      <trkpt lat="47.03971" lon="9.05741">
        <ele>510</ele>
        <time>2021-08-02T07:51:20.316Z</time>
      </trkpt>
      <trkpt lat="47.03972" lon="9.05741">
        <ele>510</ele>
        <time>2021-08-02T07:51:21.315Z</time>
      </trkpt>
      <trkpt lat="47.03973" lon="9.05741">
        <ele>510</ele>
        <time>2021-08-02T07:51:22.315Z</time>
      </trkpt>
      <trkpt lat="47.03974" lon="9.0574">
        <ele>509</ele>
        <time>2021-08-02T07:51:23.316Z</time>
      </trkpt>
      <trkpt lat="47.03975" lon="9.05739">
        <ele>509</ele>
        <time>2021-08-02T07:51:24.316Z</time>
      </trkpt>
      <trkpt lat="47.03976" lon="9.05739">
        <ele>509</ele>
        <time>2021-08-02T07:51:25.316Z</time>
      </trkpt>
      <trkpt lat="47.03977" lon="9.05739">
        <ele>509</ele>
        <time>2021-08-02T07:51:26.316Z</time>
      </trkpt>
      <trkpt lat="47.03978" lon="9.05739">
        <ele>508</ele>
        <time>2021-08-02T07:51:27.316Z</time>
      </trkpt>
      <trkpt lat="47.03979" lon="9.05738">
        <ele>508</ele>
        <time>2021-08-02T07:51:28.316Z</time>
      </trkpt>
      <trkpt lat="47.0398" lon="9.05738">
        <ele>508</ele>
        <time>2021-08-02T07:51:29.316Z</time>
      </trkpt>
      <trkpt lat="47.03981" lon="9.05737">
        <ele>509</ele>
        <time>2021-08-02T07:51:30.316Z</time>
      </trkpt>
      <trkpt lat="47.03983" lon="9.05737">
        <ele>509</ele>
        <time>2021-08-02T07:51:31.315Z</time>
      </trkpt>
      <trkpt lat="47.03984" lon="9.05737">
        <ele>510</ele>
        <time>2021-08-02T07:51:32.315Z</time>
      </trkpt>
      <trkpt lat="47.03985" lon="9.05736">
        <ele>511</ele>
        <time>2021-08-02T07:51:33.316Z</time>
      </trkpt>
      <trkpt lat="47.03986" lon="9.05735">
        <ele>511</ele>
        <time>2021-08-02T07:51:34.315Z</time>
      </trkpt>
      <trkpt lat="47.03987" lon="9.05734">
        <ele>511</ele>
        <time>2021-08-02T07:51:35.316Z</time>
      </trkpt>
      <trkpt lat="47.03988" lon="9.05734">
        <ele>512</ele>
        <time>2021-08-02T07:51:36.316Z</time>
      </trkpt>
      <trkpt lat="47.03989" lon="9.05733">
        <ele>512</ele>
        <time>2021-08-02T07:51:37.315Z</time>
      </trkpt>
      <trkpt lat="47.03991" lon="9.05733">
        <ele>512</ele>
        <time>2021-08-02T07:51:38.316Z</time>
      </trkpt>
      <trkpt lat="47.03992" lon="9.05733">
        <ele>512</ele>
        <time>2021-08-02T07:51:39.316Z</time>
      </trkpt>
      <trkpt lat="47.03993" lon="9.05733">
        <ele>513</ele>
        <time>2021-08-02T07:51:40.316Z</time>
      </trkpt>
      <trkpt lat="47.03994" lon="9.05733">
        <ele>513</ele>
        <time>2021-08-02T07:51:41.316Z</time>
      </trkpt>
      <trkpt lat="47.03995" lon="9.05733">
        <ele>514</ele>
        <time>2021-08-02T07:51:42.316Z</time>
      </trkpt>
      <trkpt lat="47.03995" lon="9.05733">
        <ele>514</ele>
        <time>2021-08-02T07:51:43.316Z</time>
      </trkpt>
      <trkpt lat="47.03996" lon="9.05733">
        <ele>515</ele>
        <time>2021-08-02T07:51:44.316Z</time>
      </trkpt>
      <trkpt lat="47.03997" lon="9.05732">
        <ele>516</ele>
        <time>2021-08-02T07:51:45.316Z</time>
      </trkpt>
      <trkpt lat="47.03998" lon="9.05732">
        <ele>516</ele>
        <time>2021-08-02T07:51:46.315Z</time>
      </trkpt>
      <trkpt lat="47.03999" lon="9.05732">
        <ele>517</ele>
        <time>2021-08-02T07:51:47.315Z</time>
      </trkpt>
      <trkpt lat="47.04" lon="9.05732">
        <ele>518</ele>
        <time>2021-08-02T07:51:48.316Z</time>
      </trkpt>
      <trkpt lat="47.04001" lon="9.05732">
        <ele>518</ele>
        <time>2021-08-02T07:51:49.316Z</time>
      </trkpt>
      <trkpt lat="47.04002" lon="9.05732">
        <ele>518</ele>
        <time>2021-08-02T07:51:50.316Z</time>
      </trkpt>
      <trkpt lat="47.04003" lon="9.05732">
        <ele>518</ele>
        <time>2021-08-02T07:51:51.316Z</time>
      </trkpt>
      <trkpt lat="47.04004" lon="9.05732">
        <ele>517</ele>
        <time>2021-08-02T07:51:52.315Z</time>
      </trkpt>
      <trkpt lat="47.04005" lon="9.05732">
        <ele>517</ele>
        <time>2021-08-02T07:51:53.316Z</time>
      </trkpt>
      <trkpt lat="47.04006" lon="9.05732">
        <ele>517</ele>
        <time>2021-08-02T07:51:54.316Z</time>
      </trkpt>
      <trkpt lat="47.04007" lon="9.05731">
        <ele>516</ele>
        <time>2021-08-02T07:51:55.316Z</time>
      </trkpt>
      <trkpt lat="47.04008" lon="9.05731">
        <ele>516</ele>
        <time>2021-08-02T07:51:56.316Z</time>
      </trkpt>
      <trkpt lat="47.04009" lon="9.05731">
        <ele>517</ele>
        <time>2021-08-02T07:51:57.315Z</time>
      </trkpt>
      <trkpt lat="47.0401" lon="9.05731">
        <ele>517</ele>
        <time>2021-08-02T07:51:58.316Z</time>
      </trkpt>
      <trkpt lat="47.04011" lon="9.05732">
        <ele>517</ele>
        <time>2021-08-02T07:51:59.316Z</time>
      </trkpt>
      <trkpt lat="47.04012" lon="9.05732">
        <ele>517</ele>
        <time>2021-08-02T07:52:00.316Z</time>
      </trkpt>
      <trkpt lat="47.04013" lon="9.05732">
        <ele>517</ele>
        <time>2021-08-02T07:52:01.315Z</time>
      </trkpt>
      <trkpt lat="47.04014" lon="9.05732">
        <ele>518</ele>
        <time>2021-08-02T07:52:02.316Z</time>
      </trkpt>
      <trkpt lat="47.04015" lon="9.05732">
        <ele>518</ele>
        <time>2021-08-02T07:52:03.316Z</time>
      </trkpt>
      <trkpt lat="47.04016" lon="9.05731">
        <ele>519</ele>
        <time>2021-08-02T07:52:04.316Z</time>
      </trkpt>
      <trkpt lat="47.04018" lon="9.0573">
        <ele>519</ele>
        <time>2021-08-02T07:52:05.316Z</time>
      </trkpt>
      <trkpt lat="47.04019" lon="9.05729">
        <ele>519</ele>
        <time>2021-08-02T07:52:06.316Z</time>
      </trkpt>
      <trkpt lat="47.04021" lon="9.05729">
        <ele>518</ele>
        <time>2021-08-02T07:52:07.316Z</time>
      </trkpt>
      <trkpt lat="47.04022" lon="9.05729">
        <ele>518</ele>
        <time>2021-08-02T07:52:08.316Z</time>
      </trkpt>
      <trkpt lat="47.04023" lon="9.05729">
        <ele>517</ele>
        <time>2021-08-02T07:52:09.315Z</time>
      </trkpt>
      <trkpt lat="47.04025" lon="9.05729">
        <ele>517</ele>
        <time>2021-08-02T07:52:10.316Z</time>
      </trkpt>
      <trkpt lat="47.04026" lon="9.05728">
        <ele>516</ele>
        <time>2021-08-02T07:52:11.316Z</time>
      </trkpt>
      <trkpt lat="47.04027" lon="9.05728">
        <ele>516</ele>
        <time>2021-08-02T07:52:12.315Z</time>
      </trkpt>
      <trkpt lat="47.04028" lon="9.05728">
        <ele>516</ele>
        <time>2021-08-02T07:52:13.316Z</time>
      </trkpt>
      <trkpt lat="47.04029" lon="9.05727">
        <ele>516</ele>
        <time>2021-08-02T07:52:14.316Z</time>
      </trkpt>
      <trkpt lat="47.0403" lon="9.05726">
        <ele>516</ele>
        <time>2021-08-02T07:52:15.316Z</time>
      </trkpt>
      <trkpt lat="47.04031" lon="9.05725">
        <ele>516</ele>
        <time>2021-08-02T07:52:16.315Z</time>
      </trkpt>
      <trkpt lat="47.04031" lon="9.05725">
        <ele>516</ele>
        <time>2021-08-02T07:52:17.316Z</time>
      </trkpt>
      <trkpt lat="47.04031" lon="9.05724">
        <ele>516</ele>
        <time>2021-08-02T07:52:18.316Z</time>
      </trkpt>
      <trkpt lat="47.04031" lon="9.05722">
        <ele>516</ele>
        <time>2021-08-02T07:52:19.316Z</time>
      </trkpt>
      <trkpt lat="47.04031" lon="9.05721">
        <ele>517</ele>
        <time>2021-08-02T07:52:20.316Z</time>
      </trkpt>
      <trkpt lat="47.0403" lon="9.05719">
        <ele>517</ele>
        <time>2021-08-02T07:52:21.316Z</time>
      </trkpt>
      <trkpt lat="47.0403" lon="9.05718">
        <ele>517</ele>
        <time>2021-08-02T07:52:22.316Z</time>
      </trkpt>
      <trkpt lat="47.0403" lon="9.05716">
        <ele>517</ele>
        <time>2021-08-02T07:52:23.316Z</time>
      </trkpt>
      <trkpt lat="47.04029" lon="9.05714">
        <ele>516</ele>
        <time>2021-08-02T07:52:24.316Z</time>
      </trkpt>
      <trkpt lat="47.04029" lon="9.05712">
        <ele>516</ele>
        <time>2021-08-02T07:52:25.315Z</time>
      </trkpt>
      <trkpt lat="47.04029" lon="9.0571">
        <ele>516</ele>
        <time>2021-08-02T07:52:26.316Z</time>
      </trkpt>
      <trkpt lat="47.04029" lon="9.05708">
        <ele>516</ele>
        <time>2021-08-02T07:52:27.316Z</time>
      </trkpt>
      <trkpt lat="47.04028" lon="9.05706">
        <ele>516</ele>
        <time>2021-08-02T07:52:28.315Z</time>
      </trkpt>
      <trkpt lat="47.04028" lon="9.05703">
        <ele>516</ele>
        <time>2021-08-02T07:52:29.315Z</time>
      </trkpt>
      <trkpt lat="47.04029" lon="9.05701">
        <ele>517</ele>
        <time>2021-08-02T07:52:30.316Z</time>
      </trkpt>
      <trkpt lat="47.04029" lon="9.057">
        <ele>517</ele>
        <time>2021-08-02T07:52:31.316Z</time>
      </trkpt>
      <trkpt lat="47.0403" lon="9.05698">
        <ele>517</ele>
        <time>2021-08-02T07:52:32.315Z</time>
      </trkpt>
      <trkpt lat="47.04029" lon="9.05696">
        <ele>517</ele>
        <time>2021-08-02T07:52:33.316Z</time>
      </trkpt>
      <trkpt lat="47.04029" lon="9.05695">
        <ele>517</ele>
        <time>2021-08-02T07:52:34.316Z</time>
      </trkpt>
      <trkpt lat="47.04029" lon="9.05694">
        <ele>517</ele>
        <time>2021-08-02T07:52:35.316Z</time>
      </trkpt>
      <trkpt lat="47.04029" lon="9.05693">
        <ele>517</ele>
        <time>2021-08-02T07:52:36.316Z</time>
      </trkpt>
      <trkpt lat="47.04029" lon="9.05692">
        <ele>517</ele>
        <time>2021-08-02T07:52:37.316Z</time>
      </trkpt>
      <trkpt lat="47.04029" lon="9.05691">
        <ele>517</ele>
        <time>2021-08-02T07:52:38.316Z</time>
      </trkpt>
      <trkpt lat="47.04029" lon="9.0569">
        <ele>517</ele>
        <time>2021-08-02T07:52:39.316Z</time>
      </trkpt>
      <trkpt lat="47.04029" lon="9.05689">
        <ele>517</ele>
        <time>2021-08-02T07:52:40.316Z</time>
      </trkpt>
      <trkpt lat="47.0403" lon="9.05688">
        <ele>516</ele>
        <time>2021-08-02T07:52:41.316Z</time>
      </trkpt>
      <trkpt lat="47.0403" lon="9.05686">
        <ele>516</ele>
        <time>2021-08-02T07:52:42.316Z</time>
      </trkpt>
      <trkpt lat="47.0403" lon="9.05684">
        <ele>516</ele>
        <time>2021-08-02T07:52:43.316Z</time>
      </trkpt>
      <trkpt lat="47.0403" lon="9.05683">
        <ele>516</ele>
        <time>2021-08-02T07:52:44.315Z</time>
      </trkpt>
      <trkpt lat="47.04029" lon="9.05681">
        <ele>517</ele>
        <time>2021-08-02T07:52:45.316Z</time>
      </trkpt>
      <trkpt lat="47.04029" lon="9.05679">
        <ele>517</ele>
        <time>2021-08-02T07:52:46.316Z</time>
      </trkpt>
      <trkpt lat="47.04029" lon="9.05677">
        <ele>518</ele>
        <time>2021-08-02T07:52:47.316Z</time>
      </trkpt>
      <trkpt lat="47.04029" lon="9.05675">
        <ele>518</ele>
        <time>2021-08-02T07:52:48.316Z</time>
      </trkpt>
      <trkpt lat="47.0403" lon="9.05675">
        <ele>519</ele>
        <time>2021-08-02T07:52:49.315Z</time>
      </trkpt>
      <trkpt lat="47.0403" lon="9.05674">
        <ele>519</ele>
        <time>2021-08-02T07:52:50.315Z</time>
      </trkpt>
      <trkpt lat="47.04029" lon="9.05673">
        <ele>519</ele>
        <time>2021-08-02T07:52:51.316Z</time>
      </trkpt>
      <trkpt lat="47.0403" lon="9.05672">
        <ele>520</ele>
        <time>2021-08-02T07:52:52.315Z</time>
      </trkpt>
      <trkpt lat="47.0403" lon="9.0567">
        <ele>520</ele>
        <time>2021-08-02T07:52:53.316Z</time>
      </trkpt>
      <trkpt lat="47.0403" lon="9.05668">
        <ele>521</ele>
        <time>2021-08-02T07:52:54.316Z</time>
      </trkpt>
      <trkpt lat="47.04031" lon="9.05667">
        <ele>521</ele>
        <time>2021-08-02T07:52:55.316Z</time>
      </trkpt>
      <trkpt lat="47.04031" lon="9.05666">
        <ele>521</ele>
        <time>2021-08-02T07:52:56.316Z</time>
      </trkpt>
      <trkpt lat="47.04032" lon="9.05664">
        <ele>521</ele>
        <time>2021-08-02T07:52:57.315Z</time>
      </trkpt>
      <trkpt lat="47.04032" lon="9.05662">
        <ele>522</ele>
        <time>2021-08-02T07:52:58.315Z</time>
      </trkpt>
      <trkpt lat="47.04032" lon="9.05661">
        <ele>522</ele>
        <time>2021-08-02T07:52:59.315Z</time>
      </trkpt>
      <trkpt lat="47.04033" lon="9.05659">
        <ele>523</ele>
        <time>2021-08-02T07:53:00.316Z</time>
      </trkpt>
      <trkpt lat="47.04033" lon="9.05657">
        <ele>523</ele>
        <time>2021-08-02T07:53:01.316Z</time>
      </trkpt>
      <trkpt lat="47.04033" lon="9.05656">
        <ele>523</ele>
        <time>2021-08-02T07:53:02.315Z</time>
      </trkpt>
      <trkpt lat="47.04035" lon="9.05656">
        <ele>524</ele>
        <time>2021-08-02T07:53:03.316Z</time>
      </trkpt>
      <trkpt lat="47.04036" lon="9.05655">
        <ele>524</ele>
        <time>2021-08-02T07:53:04.316Z</time>
      </trkpt>
      <trkpt lat="47.04037" lon="9.05655">
        <ele>524</ele>
        <time>2021-08-02T07:53:05.316Z</time>
      </trkpt>
      <trkpt lat="47.04039" lon="9.05654">
        <ele>524</ele>
        <time>2021-08-02T07:53:06.315Z</time>
      </trkpt>
      <trkpt lat="47.0404" lon="9.05654">
        <ele>524</ele>
        <time>2021-08-02T07:53:07.316Z</time>
      </trkpt>
      <trkpt lat="47.04041" lon="9.05653">
        <ele>524</ele>
        <time>2021-08-02T07:53:08.315Z</time>
      </trkpt>
      <trkpt lat="47.04042" lon="9.05653">
        <ele>524</ele>
        <time>2021-08-02T07:53:09.316Z</time>
      </trkpt>
      <trkpt lat="47.04043" lon="9.05653">
        <ele>524</ele>
        <time>2021-08-02T07:53:10.315Z</time>
      </trkpt>
      <trkpt lat="47.04044" lon="9.05653">
        <ele>524</ele>
        <time>2021-08-02T07:53:11.315Z</time>
      </trkpt>
      <trkpt lat="47.04045" lon="9.05652">
        <ele>525</ele>
        <time>2021-08-02T07:53:12.316Z</time>
      </trkpt>
      <trkpt lat="47.04046" lon="9.05651">
        <ele>525</ele>
        <time>2021-08-02T07:53:13.316Z</time>
      </trkpt>
      <trkpt lat="47.04047" lon="9.05651">
        <ele>525</ele>
        <time>2021-08-02T07:53:14.316Z</time>
      </trkpt>
      <trkpt lat="47.04048" lon="9.0565">
        <ele>524</ele>
        <time>2021-08-02T07:53:15.315Z</time>
      </trkpt>
      <trkpt lat="47.0405" lon="9.0565">
        <ele>524</ele>
        <time>2021-08-02T07:53:16.315Z</time>
      </trkpt>
      <trkpt lat="47.04051" lon="9.05649">
        <ele>523</ele>
        <time>2021-08-02T07:53:17.315Z</time>
      </trkpt>
      <trkpt lat="47.04053" lon="9.05648">
        <ele>523</ele>
        <time>2021-08-02T07:53:18.316Z</time>
      </trkpt>
      <trkpt lat="47.04054" lon="9.05648">
        <ele>523</ele>
        <time>2021-08-02T07:53:19.316Z</time>
      </trkpt>
      <trkpt lat="47.04054" lon="9.05646">
        <ele>523</ele>
        <time>2021-08-02T07:53:20.316Z</time>
      </trkpt>
      <trkpt lat="47.04054" lon="9.05644">
        <ele>523</ele>
        <time>2021-08-02T07:53:21.315Z</time>
      </trkpt>
      <trkpt lat="47.04055" lon="9.05642">
        <ele>523</ele>
        <time>2021-08-02T07:53:22.316Z</time>
      </trkpt>
      <trkpt lat="47.04055" lon="9.0564">
        <ele>523</ele>
        <time>2021-08-02T07:53:23.316Z</time>
      </trkpt>
      <trkpt lat="47.04056" lon="9.05638">
        <ele>523</ele>
        <time>2021-08-02T07:53:24.316Z</time>
      </trkpt>
      <trkpt lat="47.04057" lon="9.05638">
        <ele>523</ele>
        <time>2021-08-02T07:53:25.316Z</time>
      </trkpt>
      <trkpt lat="47.04059" lon="9.05638">
        <ele>523</ele>
        <time>2021-08-02T07:53:26.316Z</time>
      </trkpt>
      <trkpt lat="47.0406" lon="9.05638">
        <ele>523</ele>
        <time>2021-08-02T07:53:27.315Z</time>
      </trkpt>
      <trkpt lat="47.04061" lon="9.05638">
        <ele>523</ele>
        <time>2021-08-02T07:53:28.315Z</time>
      </trkpt>
      <trkpt lat="47.04061" lon="9.05637">
        <ele>523</ele>
        <time>2021-08-02T07:53:29.316Z</time>
      </trkpt>
      <trkpt lat="47.04063" lon="9.05636">
        <ele>523</ele>
        <time>2021-08-02T07:53:30.315Z</time>
      </trkpt>
      <trkpt lat="47.04064" lon="9.05636">
        <ele>523</ele>
        <time>2021-08-02T07:53:31.316Z</time>
      </trkpt>
      <trkpt lat="47.04065" lon="9.05636">
        <ele>523</ele>
        <time>2021-08-02T07:53:32.315Z</time>
      </trkpt>
      <trkpt lat="47.04066" lon="9.05635">
        <ele>524</ele>
        <time>2021-08-02T07:53:33.316Z</time>
      </trkpt>
      <trkpt lat="47.04067" lon="9.05635">
        <ele>525</ele>
        <time>2021-08-02T07:53:34.316Z</time>
      </trkpt>
      <trkpt lat="47.04068" lon="9.05635">
        <ele>525</ele>
        <time>2021-08-02T07:53:35.316Z</time>
      </trkpt>
      <trkpt lat="47.04069" lon="9.05634">
        <ele>526</ele>
        <time>2021-08-02T07:53:36.315Z</time>
      </trkpt>
      <trkpt lat="47.0407" lon="9.05634">
        <ele>527</ele>
        <time>2021-08-02T07:53:37.316Z</time>
      </trkpt>
      <trkpt lat="47.04071" lon="9.05633">
        <ele>527</ele>
        <time>2021-08-02T07:53:38.316Z</time>
      </trkpt>
      <trkpt lat="47.04072" lon="9.05631">
        <ele>528</ele>
        <time>2021-08-02T07:53:39.316Z</time>
      </trkpt>
      <trkpt lat="47.04074" lon="9.05629">
        <ele>529</ele>
        <time>2021-08-02T07:53:40.315Z</time>
      </trkpt>
      <trkpt lat="47.04075" lon="9.05628">
        <ele>529</ele>
        <time>2021-08-02T07:53:41.316Z</time>
      </trkpt>
      <trkpt lat="47.04076" lon="9.05627">
        <ele>530</ele>
        <time>2021-08-02T07:53:42.316Z</time>
      </trkpt>
      <trkpt lat="47.04077" lon="9.05626">
        <ele>531</ele>
        <time>2021-08-02T07:53:43.315Z</time>
      </trkpt>
      <trkpt lat="47.04078" lon="9.05626">
        <ele>531</ele>
        <time>2021-08-02T07:53:44.316Z</time>
      </trkpt>
      <trkpt lat="47.04079" lon="9.05627">
        <ele>532</ele>
        <time>2021-08-02T07:53:45.315Z</time>
      </trkpt>
      <trkpt lat="47.04079" lon="9.05626">
        <ele>533</ele>
        <time>2021-08-02T07:53:46.316Z</time>
      </trkpt>
      <trkpt lat="47.0408" lon="9.05626">
        <ele>533</ele>
        <time>2021-08-02T07:53:47.316Z</time>
      </trkpt>
      <trkpt lat="47.0408" lon="9.05626">
        <ele>534</ele>
        <time>2021-08-02T07:53:48.316Z</time>
      </trkpt>
      <trkpt lat="47.04081" lon="9.05626">
        <ele>534</ele>
        <time>2021-08-02T07:53:49.315Z</time>
      </trkpt>
      <trkpt lat="47.04082" lon="9.05627">
        <ele>535</ele>
        <time>2021-08-02T07:53:50.316Z</time>
      </trkpt>
      <trkpt lat="47.04083" lon="9.05627">
        <ele>536</ele>
        <time>2021-08-02T07:53:51.315Z</time>
      </trkpt>
      <trkpt lat="47.04084" lon="9.05627">
        <ele>536</ele>
        <time>2021-08-02T07:53:52.316Z</time>
      </trkpt>
      <trkpt lat="47.04085" lon="9.05627">
        <ele>536</ele>
        <time>2021-08-02T07:53:53.316Z</time>
      </trkpt>
      <trkpt lat="47.04086" lon="9.05627">
        <ele>537</ele>
        <time>2021-08-02T07:53:54.316Z</time>
      </trkpt>
      <trkpt lat="47.04086" lon="9.05628">
        <ele>537</ele>
        <time>2021-08-02T07:53:55.316Z</time>
      </trkpt>
      <trkpt lat="47.04087" lon="9.05629">
        <ele>538</ele>
        <time>2021-08-02T07:53:56.316Z</time>
      </trkpt>
      <trkpt lat="47.04088" lon="9.05629">
        <ele>538</ele>
        <time>2021-08-02T07:53:57.315Z</time>
      </trkpt>
      <trkpt lat="47.04088" lon="9.05629">
        <ele>539</ele>
        <time>2021-08-02T07:53:58.316Z</time>
      </trkpt>
      <trkpt lat="47.04089" lon="9.05629">
        <ele>540</ele>
        <time>2021-08-02T07:53:59.316Z</time>
      </trkpt>
      <trkpt lat="47.0409" lon="9.05629">
        <ele>540</ele>
        <time>2021-08-02T07:54:00.316Z</time>
      </trkpt>
      <trkpt lat="47.04091" lon="9.05628">
        <ele>541</ele>
        <time>2021-08-02T07:54:01.316Z</time>
      </trkpt>
      <trkpt lat="47.04093" lon="9.05627">
        <ele>541</ele>
        <time>2021-08-02T07:54:02.315Z</time>
      </trkpt>
      <trkpt lat="47.04094" lon="9.05626">
        <ele>542</ele>
        <time>2021-08-02T07:54:03.316Z</time>
      </trkpt>
      <trkpt lat="47.04095" lon="9.05626">
        <ele>542</ele>
        <time>2021-08-02T07:54:04.316Z</time>
      </trkpt>
      <trkpt lat="47.04097" lon="9.05627">
        <ele>543</ele>
        <time>2021-08-02T07:54:05.316Z</time>
      </trkpt>
      <trkpt lat="47.04099" lon="9.05627">
        <ele>543</ele>
        <time>2021-08-02T07:54:06.315Z</time>
      </trkpt>
      <trkpt lat="47.041" lon="9.05627">
        <ele>544</ele>
        <time>2021-08-02T07:54:07.316Z</time>
      </trkpt>
      <trkpt lat="47.04101" lon="9.05627">
        <ele>544</ele>
        <time>2021-08-02T07:54:08.315Z</time>
      </trkpt>
      <trkpt lat="47.04102" lon="9.05626">
        <ele>544</ele>
        <time>2021-08-02T07:54:09.316Z</time>
      </trkpt>
      <trkpt lat="47.04103" lon="9.05626">
        <ele>545</ele>
        <time>2021-08-02T07:54:10.316Z</time>
      </trkpt>
      <trkpt lat="47.04105" lon="9.05626">
        <ele>545</ele>
        <time>2021-08-02T07:54:11.316Z</time>
      </trkpt>
      <trkpt lat="47.04106" lon="9.05627">
        <ele>546</ele>
        <time>2021-08-02T07:54:12.316Z</time>
      </trkpt>
      <trkpt lat="47.04107" lon="9.05627">
        <ele>546</ele>
        <time>2021-08-02T07:54:13.316Z</time>
      </trkpt>
      <trkpt lat="47.04108" lon="9.05627">
        <ele>547</ele>
        <time>2021-08-02T07:54:14.316Z</time>
      </trkpt>
      <trkpt lat="47.04109" lon="9.05628">
        <ele>547</ele>
        <time>2021-08-02T07:54:15.315Z</time>
      </trkpt>
      <trkpt lat="47.0411" lon="9.05628">
        <ele>548</ele>
        <time>2021-08-02T07:54:16.316Z</time>
      </trkpt>
      <trkpt lat="47.04111" lon="9.05628">
        <ele>548</ele>
        <time>2021-08-02T07:54:17.315Z</time>
      </trkpt>
      <trkpt lat="47.04111" lon="9.05629">
        <ele>549</ele>
        <time>2021-08-02T07:54:18.316Z</time>
      </trkpt>
      <trkpt lat="47.04112" lon="9.05631">
        <ele>550</ele>
        <time>2021-08-02T07:54:19.316Z</time>
      </trkpt>
      <trkpt lat="47.04113" lon="9.05632">
        <ele>550</ele>
        <time>2021-08-02T07:54:20.316Z</time>
      </trkpt>
      <trkpt lat="47.04114" lon="9.05632">
        <ele>551</ele>
        <time>2021-08-02T07:54:21.315Z</time>
      </trkpt>
      <trkpt lat="47.04116" lon="9.05633">
        <ele>551</ele>
        <time>2021-08-02T07:54:22.315Z</time>
      </trkpt>
      <trkpt lat="47.04117" lon="9.05634">
        <ele>552</ele>
        <time>2021-08-02T07:54:23.316Z</time>
      </trkpt>
      <trkpt lat="47.04117" lon="9.05635">
        <ele>553</ele>
        <time>2021-08-02T07:54:24.316Z</time>
      </trkpt>
      <trkpt lat="47.04117" lon="9.05635">
        <ele>554</ele>
        <time>2021-08-02T07:54:25.316Z</time>
      </trkpt>
      <trkpt lat="47.04118" lon="9.05635">
        <ele>554</ele>
        <time>2021-08-02T07:54:26.316Z</time>
      </trkpt>
      <trkpt lat="47.0412" lon="9.05636">
        <ele>555</ele>
        <time>2021-08-02T07:54:27.315Z</time>
      </trkpt>
      <trkpt lat="47.04121" lon="9.05637">
        <ele>556</ele>
        <time>2021-08-02T07:54:28.316Z</time>
      </trkpt>
      <trkpt lat="47.04122" lon="9.05637">
        <ele>556</ele>
        <time>2021-08-02T07:54:29.316Z</time>
      </trkpt>
      <trkpt lat="47.04124" lon="9.05637">
        <ele>556</ele>
        <time>2021-08-02T07:54:30.316Z</time>
      </trkpt>
      <trkpt lat="47.04125" lon="9.05636">
        <ele>556</ele>
        <time>2021-08-02T07:54:31.316Z</time>
      </trkpt>
      <trkpt lat="47.04126" lon="9.05636">
        <ele>556</ele>
        <time>2021-08-02T07:54:32.316Z</time>
      </trkpt>
      <trkpt lat="47.04128" lon="9.05636">
        <ele>556</ele>
        <time>2021-08-02T07:54:33.316Z</time>
      </trkpt>
      <trkpt lat="47.04129" lon="9.05636">
        <ele>556</ele>
        <time>2021-08-02T07:54:34.316Z</time>
      </trkpt>
      <trkpt lat="47.0413" lon="9.05636">
        <ele>556</ele>
        <time>2021-08-02T07:54:35.316Z</time>
      </trkpt>
      <trkpt lat="47.04131" lon="9.05636">
        <ele>556</ele>
        <time>2021-08-02T07:54:36.315Z</time>
      </trkpt>
      <trkpt lat="47.04132" lon="9.05637">
        <ele>557</ele>
        <time>2021-08-02T07:54:37.316Z</time>
      </trkpt>
      <trkpt lat="47.04133" lon="9.05636">
        <ele>557</ele>
        <time>2021-08-02T07:54:38.316Z</time>
      </trkpt>
      <trkpt lat="47.04134" lon="9.05637">
        <ele>557</ele>
        <time>2021-08-02T07:54:39.315Z</time>
      </trkpt>
      <trkpt lat="47.04135" lon="9.05637">
        <ele>557</ele>
        <time>2021-08-02T07:54:40.316Z</time>
      </trkpt>
      <trkpt lat="47.04136" lon="9.05637">
        <ele>556</ele>
        <time>2021-08-02T07:54:41.316Z</time>
      </trkpt>
      <trkpt lat="47.04137" lon="9.05636">
        <ele>556</ele>
        <time>2021-08-02T07:54:42.316Z</time>
      </trkpt>
      <trkpt lat="47.04139" lon="9.05635">
        <ele>556</ele>
        <time>2021-08-02T07:54:43.315Z</time>
      </trkpt>
      <trkpt lat="47.0414" lon="9.05634">
        <ele>556</ele>
        <time>2021-08-02T07:54:44.315Z</time>
      </trkpt>
      <trkpt lat="47.0414" lon="9.05634">
        <ele>555</ele>
        <time>2021-08-02T07:54:45.315Z</time>
      </trkpt>
      <trkpt lat="47.04141" lon="9.05634">
        <ele>555</ele>
        <time>2021-08-02T07:54:46.316Z</time>
      </trkpt>
      <trkpt lat="47.04142" lon="9.05634">
        <ele>555</ele>
        <time>2021-08-02T07:54:47.316Z</time>
      </trkpt>
      <trkpt lat="47.04143" lon="9.05634">
        <ele>555</ele>
        <time>2021-08-02T07:54:48.315Z</time>
      </trkpt>
      <trkpt lat="47.04144" lon="9.05635">
        <ele>555</ele>
        <time>2021-08-02T07:54:49.316Z</time>
      </trkpt>
      <trkpt lat="47.04146" lon="9.05635">
        <ele>555</ele>
        <time>2021-08-02T07:54:50.315Z</time>
      </trkpt>
      <trkpt lat="47.04147" lon="9.05635">
        <ele>555</ele>
        <time>2021-08-02T07:54:51.315Z</time>
      </trkpt>
      <trkpt lat="47.04148" lon="9.05635">
        <ele>555</ele>
        <time>2021-08-02T07:54:52.316Z</time>
      </trkpt>
      <trkpt lat="47.04149" lon="9.05635">
        <ele>555</ele>
        <time>2021-08-02T07:54:53.316Z</time>
      </trkpt>
      <trkpt lat="47.0415" lon="9.05635">
        <ele>555</ele>
        <time>2021-08-02T07:54:54.316Z</time>
      </trkpt>
      <trkpt lat="47.04151" lon="9.05635">
        <ele>554</ele>
        <time>2021-08-02T07:54:55.316Z</time>
      </trkpt>
      <trkpt lat="47.04152" lon="9.05635">
        <ele>554</ele>
        <time>2021-08-02T07:54:56.315Z</time>
      </trkpt>
      <trkpt lat="47.04153" lon="9.05634">
        <ele>554</ele>
        <time>2021-08-02T07:54:57.315Z</time>
      </trkpt>
      <trkpt lat="47.04154" lon="9.05635">
        <ele>553</ele>
        <time>2021-08-02T07:54:58.316Z</time>
      </trkpt>
      <trkpt lat="47.04155" lon="9.05634">
        <ele>553</ele>
        <time>2021-08-02T07:54:59.316Z</time>
      </trkpt>
      <trkpt lat="47.04156" lon="9.05634">
        <ele>552</ele>
        <time>2021-08-02T07:55:00.316Z</time>
      </trkpt>
      <trkpt lat="47.04157" lon="9.05635">
        <ele>552</ele>
        <time>2021-08-02T07:55:01.316Z</time>
      </trkpt>
      <trkpt lat="47.04158" lon="9.05635">
        <ele>551</ele>
        <time>2021-08-02T07:55:02.315Z</time>
      </trkpt>
      <trkpt lat="47.04159" lon="9.05634">
        <ele>550</ele>
        <time>2021-08-02T07:55:03.316Z</time>
      </trkpt>
      <trkpt lat="47.0416" lon="9.05634">
        <ele>550</ele>
        <time>2021-08-02T07:55:04.315Z</time>
      </trkpt>
      <trkpt lat="47.04162" lon="9.05634">
        <ele>549</ele>
        <time>2021-08-02T07:55:05.315Z</time>
      </trkpt>
      <trkpt lat="47.04162" lon="9.05635">
        <ele>549</ele>
        <time>2021-08-02T07:55:06.316Z</time>
      </trkpt>
      <trkpt lat="47.04163" lon="9.05635">
        <ele>548</ele>
        <time>2021-08-02T07:55:07.316Z</time>
      </trkpt>
      <trkpt lat="47.04164" lon="9.05634">
        <ele>548</ele>
        <time>2021-08-02T07:55:08.316Z</time>
      </trkpt>
      <trkpt lat="47.04164" lon="9.05633">
        <ele>547</ele>
        <time>2021-08-02T07:55:09.316Z</time>
      </trkpt>
      <trkpt lat="47.04165" lon="9.05633">
        <ele>547</ele>
        <time>2021-08-02T07:55:10.316Z</time>
      </trkpt>
      <trkpt lat="47.04166" lon="9.05633">
        <ele>547</ele>
        <time>2021-08-02T07:55:11.316Z</time>
      </trkpt>
      <trkpt lat="47.04166" lon="9.05632">
        <ele>547</ele>
        <time>2021-08-02T07:55:12.316Z</time>
      </trkpt>
      <trkpt lat="47.04167" lon="9.05632">
        <ele>547</ele>
        <time>2021-08-02T07:55:13.316Z</time>
      </trkpt>
      <trkpt lat="47.04169" lon="9.05632">
        <ele>547</ele>
        <time>2021-08-02T07:55:14.316Z</time>
      </trkpt>
      <trkpt lat="47.0417" lon="9.05632">
        <ele>547</ele>
        <time>2021-08-02T07:55:15.315Z</time>
      </trkpt>
      <trkpt lat="47.0417" lon="9.05633">
        <ele>547</ele>
        <time>2021-08-02T07:55:16.316Z</time>
      </trkpt>
      <trkpt lat="47.0417" lon="9.05633">
        <ele>547</ele>
        <time>2021-08-02T07:55:17.315Z</time>
      </trkpt>
      <trkpt lat="47.0417" lon="9.05633">
        <ele>547</ele>
        <time>2021-08-02T07:55:18.315Z</time>
      </trkpt>
      <trkpt lat="47.04171" lon="9.05634">
        <ele>547</ele>
        <time>2021-08-02T07:55:19.315Z</time>
      </trkpt>
      <trkpt lat="47.04172" lon="9.05635">
        <ele>547</ele>
        <time>2021-08-02T07:55:20.315Z</time>
      </trkpt>
      <trkpt lat="47.04173" lon="9.05635">
        <ele>546</ele>
        <time>2021-08-02T07:55:21.315Z</time>
      </trkpt>
      <trkpt lat="47.04174" lon="9.05635">
        <ele>546</ele>
        <time>2021-08-02T07:55:22.316Z</time>
      </trkpt>
      <trkpt lat="47.04175" lon="9.05635">
        <ele>546</ele>
        <time>2021-08-02T07:55:23.316Z</time>
      </trkpt>
      <trkpt lat="47.04176" lon="9.05634">
        <ele>546</ele>
        <time>2021-08-02T07:55:24.316Z</time>
      </trkpt>
      <trkpt lat="47.04177" lon="9.05634">
        <ele>546</ele>
        <time>2021-08-02T07:55:25.316Z</time>
      </trkpt>
      <trkpt lat="47.04178" lon="9.05634">
        <ele>546</ele>
        <time>2021-08-02T07:55:26.316Z</time>
      </trkpt>
      <trkpt lat="47.04178" lon="9.05634">
        <ele>546</ele>
        <time>2021-08-02T07:55:27.316Z</time>
      </trkpt>
      <trkpt lat="47.04179" lon="9.05635">
        <ele>546</ele>
        <time>2021-08-02T07:55:28.315Z</time>
      </trkpt>
      <trkpt lat="47.0418" lon="9.05634">
        <ele>546</ele>
        <time>2021-08-02T07:55:29.316Z</time>
      </trkpt>
      <trkpt lat="47.04181" lon="9.05635">
        <ele>546</ele>
        <time>2021-08-02T07:55:30.316Z</time>
      </trkpt>
      <trkpt lat="47.04182" lon="9.05635">
        <ele>545</ele>
        <time>2021-08-02T07:55:31.315Z</time>
      </trkpt>
      <trkpt lat="47.04183" lon="9.05635">
        <ele>545</ele>
        <time>2021-08-02T07:55:32.316Z</time>
      </trkpt>
      <trkpt lat="47.04184" lon="9.05636">
        <ele>544</ele>
        <time>2021-08-02T07:55:33.315Z</time>
      </trkpt>
      <trkpt lat="47.04185" lon="9.05636">
        <ele>544</ele>
        <time>2021-08-02T07:55:34.316Z</time>
      </trkpt>
      <trkpt lat="47.04186" lon="9.05635">
        <ele>543</ele>
        <time>2021-08-02T07:55:35.316Z</time>
      </trkpt>
      <trkpt lat="47.04188" lon="9.05635">
        <ele>542</ele>
        <time>2021-08-02T07:55:36.315Z</time>
      </trkpt>
      <trkpt lat="47.04189" lon="9.05635">
        <ele>541</ele>
        <time>2021-08-02T07:55:37.315Z</time>
      </trkpt>
      <trkpt lat="47.0419" lon="9.05636">
        <ele>540</ele>
        <time>2021-08-02T07:55:38.315Z</time>
      </trkpt>
      <trkpt lat="47.04191" lon="9.05636">
        <ele>540</ele>
        <time>2021-08-02T07:55:39.316Z</time>
      </trkpt>
      <trkpt lat="47.04192" lon="9.05636">
        <ele>539</ele>
        <time>2021-08-02T07:55:40.316Z</time>
      </trkpt>
      <trkpt lat="47.04193" lon="9.05636">
        <ele>539</ele>
        <time>2021-08-02T07:55:41.316Z</time>
      </trkpt>
      <trkpt lat="47.04195" lon="9.05636">
        <ele>538</ele>
        <time>2021-08-02T07:55:42.315Z</time>
      </trkpt>
      <trkpt lat="47.04196" lon="9.05636">
        <ele>537</ele>
        <time>2021-08-02T07:55:43.316Z</time>
      </trkpt>
      <trkpt lat="47.04198" lon="9.05636">
        <ele>536</ele>
        <time>2021-08-02T07:55:44.315Z</time>
      </trkpt>
      <trkpt lat="47.04199" lon="9.05636">
        <ele>536</ele>
        <time>2021-08-02T07:55:45.316Z</time>
      </trkpt>
      <trkpt lat="47.042" lon="9.05636">
        <ele>535</ele>
        <time>2021-08-02T07:55:46.316Z</time>
      </trkpt>
      <trkpt lat="47.04201" lon="9.05636">
        <ele>535</ele>
        <time>2021-08-02T07:55:47.315Z</time>
      </trkpt>
      <trkpt lat="47.04202" lon="9.05637">
        <ele>535</ele>
        <time>2021-08-02T07:55:48.315Z</time>
      </trkpt>
      <trkpt lat="47.04203" lon="9.05637">
        <ele>534</ele>
        <time>2021-08-02T07:55:49.316Z</time>
      </trkpt>
      <trkpt lat="47.04203" lon="9.05637">
        <ele>534</ele>
        <time>2021-08-02T07:55:50.316Z</time>
      </trkpt>
      <trkpt lat="47.04205" lon="9.05637">
        <ele>534</ele>
        <time>2021-08-02T07:55:51.315Z</time>
      </trkpt>
      <trkpt lat="47.04205" lon="9.05637">
        <ele>533</ele>
        <time>2021-08-02T07:55:52.316Z</time>
      </trkpt>
      <trkpt lat="47.04206" lon="9.05637">
        <ele>533</ele>
        <time>2021-08-02T07:55:53.315Z</time>
      </trkpt>
      <trkpt lat="47.04207" lon="9.05637">
        <ele>533</ele>
        <time>2021-08-02T07:55:54.316Z</time>
      </trkpt>
      <trkpt lat="47.04208" lon="9.05637">
        <ele>532</ele>
        <time>2021-08-02T07:55:55.316Z</time>
      </trkpt>
      <trkpt lat="47.04209" lon="9.05637">
        <ele>532</ele>
        <time>2021-08-02T07:55:56.315Z</time>
      </trkpt>
      <trkpt lat="47.0421" lon="9.05637">
        <ele>532</ele>
        <time>2021-08-02T07:55:57.316Z</time>
      </trkpt>
      <trkpt lat="47.04211" lon="9.05638">
        <ele>532</ele>
        <time>2021-08-02T07:55:58.316Z</time>
      </trkpt>
      <trkpt lat="47.04211" lon="9.05638">
        <ele>531</ele>
        <time>2021-08-02T07:55:59.316Z</time>
      </trkpt>
      <trkpt lat="47.04213" lon="9.05638">
        <ele>531</ele>
        <time>2021-08-02T07:56:00.315Z</time>
      </trkpt>
      <trkpt lat="47.04215" lon="9.05638">
        <ele>530</ele>
        <time>2021-08-02T07:56:01.316Z</time>
      </trkpt>
      <trkpt lat="47.04215" lon="9.05638">
        <ele>530</ele>
        <time>2021-08-02T07:56:02.315Z</time>
      </trkpt>
      <trkpt lat="47.04215" lon="9.05638">
        <ele>530</ele>
        <time>2021-08-02T07:56:03.315Z</time>
      </trkpt>
      <trkpt lat="47.04216" lon="9.05638">
        <ele>530</ele>
        <time>2021-08-02T07:56:04.316Z</time>
      </trkpt>
      <trkpt lat="47.04216" lon="9.05637">
        <ele>530</ele>
        <time>2021-08-02T07:56:05.315Z</time>
      </trkpt>
      <trkpt lat="47.04217" lon="9.05637">
        <ele>530</ele>
        <time>2021-08-02T07:56:06.316Z</time>
      </trkpt>
      <trkpt lat="47.04217" lon="9.05636">
        <ele>531</ele>
        <time>2021-08-02T07:56:07.316Z</time>
      </trkpt>
      <trkpt lat="47.04217" lon="9.05636">
        <ele>531</ele>
        <time>2021-08-02T07:56:08.316Z</time>
      </trkpt>
      <trkpt lat="47.04217" lon="9.05635">
        <ele>531</ele>
        <time>2021-08-02T07:56:09.316Z</time>
      </trkpt>
      <trkpt lat="47.04218" lon="9.05634">
        <ele>531</ele>
        <time>2021-08-02T07:56:10.316Z</time>
      </trkpt>
      <trkpt lat="47.0422" lon="9.05634">
        <ele>531</ele>
        <time>2021-08-02T07:56:11.315Z</time>
      </trkpt>
      <trkpt lat="47.0422" lon="9.05634">
        <ele>532</ele>
        <time>2021-08-02T07:56:12.316Z</time>
      </trkpt>
      <trkpt lat="47.04221" lon="9.05633">
        <ele>532</ele>
        <time>2021-08-02T07:56:13.316Z</time>
      </trkpt>
      <trkpt lat="47.04222" lon="9.05632">
        <ele>532</ele>
        <time>2021-08-02T07:56:14.315Z</time>
      </trkpt>
      <trkpt lat="47.04222" lon="9.05631">
        <ele>533</ele>
        <time>2021-08-02T07:56:15.315Z</time>
      </trkpt>
      <trkpt lat="47.04223" lon="9.05629">
        <ele>533</ele>
        <time>2021-08-02T07:56:16.316Z</time>
      </trkpt>
      <trkpt lat="47.04224" lon="9.05629">
        <ele>534</ele>
        <time>2021-08-02T07:56:17.316Z</time>
      </trkpt>
      <trkpt lat="47.04225" lon="9.05628">
        <ele>534</ele>
        <time>2021-08-02T07:56:18.316Z</time>
      </trkpt>
      <trkpt lat="47.04226" lon="9.05628">
        <ele>534</ele>
        <time>2021-08-02T07:56:19.316Z</time>
      </trkpt>
      <trkpt lat="47.04227" lon="9.05627">
        <ele>534</ele>
        <time>2021-08-02T07:56:20.315Z</time>
      </trkpt>
      <trkpt lat="47.04228" lon="9.05626">
        <ele>535</ele>
        <time>2021-08-02T07:56:21.316Z</time>
      </trkpt>
      <trkpt lat="47.04228" lon="9.05626">
        <ele>536</ele>
        <time>2021-08-02T07:56:22.315Z</time>
      </trkpt>
      <trkpt lat="47.04229" lon="9.05625">
        <ele>537</ele>
        <time>2021-08-02T07:56:23.315Z</time>
      </trkpt>
      <trkpt lat="47.04229" lon="9.05623">
        <ele>537</ele>
        <time>2021-08-02T07:56:24.316Z</time>
      </trkpt>
      <trkpt lat="47.0423" lon="9.05622">
        <ele>538</ele>
        <time>2021-08-02T07:56:25.316Z</time>
      </trkpt>
      <trkpt lat="47.0423" lon="9.05621">
        <ele>538</ele>
        <time>2021-08-02T07:56:26.316Z</time>
      </trkpt>
      <trkpt lat="47.0423" lon="9.05619">
        <ele>539</ele>
        <time>2021-08-02T07:56:27.316Z</time>
      </trkpt>
      <trkpt lat="47.04231" lon="9.05618">
        <ele>539</ele>
        <time>2021-08-02T07:56:28.316Z</time>
      </trkpt>
      <trkpt lat="47.04232" lon="9.05618">
        <ele>539</ele>
        <time>2021-08-02T07:56:29.315Z</time>
      </trkpt>
      <trkpt lat="47.04233" lon="9.05617">
        <ele>539</ele>
        <time>2021-08-02T07:56:30.316Z</time>
      </trkpt>
      <trkpt lat="47.04235" lon="9.05617">
        <ele>539</ele>
        <time>2021-08-02T07:56:31.315Z</time>
      </trkpt>
      <trkpt lat="47.04236" lon="9.05616">
        <ele>539</ele>
        <time>2021-08-02T07:56:32.315Z</time>
      </trkpt>
      <trkpt lat="47.04237" lon="9.05616">
        <ele>539</ele>
        <time>2021-08-02T07:56:33.315Z</time>
      </trkpt>
      <trkpt lat="47.04238" lon="9.05615">
        <ele>539</ele>
        <time>2021-08-02T07:56:34.315Z</time>
      </trkpt>
      <trkpt lat="47.04239" lon="9.05614">
        <ele>539</ele>
        <time>2021-08-02T07:56:35.316Z</time>
      </trkpt>
      <trkpt lat="47.0424" lon="9.05614">
        <ele>539</ele>
        <time>2021-08-02T07:56:36.315Z</time>
      </trkpt>
      <trkpt lat="47.04241" lon="9.05613">
        <ele>538</ele>
        <time>2021-08-02T07:56:37.315Z</time>
      </trkpt>
      <trkpt lat="47.04242" lon="9.05612">
        <ele>538</ele>
        <time>2021-08-02T07:56:38.316Z</time>
      </trkpt>
      <trkpt lat="47.04243" lon="9.05611">
        <ele>537</ele>
        <time>2021-08-02T07:56:39.315Z</time>
      </trkpt>
      <trkpt lat="47.04244" lon="9.0561">
        <ele>537</ele>
        <time>2021-08-02T07:56:40.316Z</time>
      </trkpt>
      <trkpt lat="47.04245" lon="9.05609">
        <ele>538</ele>
        <time>2021-08-02T07:56:41.316Z</time>
      </trkpt>
      <trkpt lat="47.04246" lon="9.05609">
        <ele>538</ele>
        <time>2021-08-02T07:56:42.316Z</time>
      </trkpt>
      <trkpt lat="47.04247" lon="9.05608">
        <ele>538</ele>
        <time>2021-08-02T07:56:43.315Z</time>
      </trkpt>
      <trkpt lat="47.04247" lon="9.05607">
        <ele>538</ele>
        <time>2021-08-02T07:56:44.316Z</time>
      </trkpt>
      <trkpt lat="47.04248" lon="9.05605">
        <ele>539</ele>
        <time>2021-08-02T07:56:45.315Z</time>
      </trkpt>
      <trkpt lat="47.04249" lon="9.05604">
        <ele>539</ele>
        <time>2021-08-02T07:56:46.316Z</time>
      </trkpt>
      <trkpt lat="47.04249" lon="9.05603">
        <ele>539</ele>
        <time>2021-08-02T07:56:47.316Z</time>
      </trkpt>
      <trkpt lat="47.04249" lon="9.05601">
        <ele>539</ele>
        <time>2021-08-02T07:56:48.315Z</time>
      </trkpt>
      <trkpt lat="47.04248" lon="9.05599">
        <ele>540</ele>
        <time>2021-08-02T07:56:49.316Z</time>
      </trkpt>
      <trkpt lat="47.04247" lon="9.05597">
        <ele>540</ele>
        <time>2021-08-02T07:56:50.315Z</time>
      </trkpt>
      <trkpt lat="47.04245" lon="9.05591">
        <ele>545</ele>
        <time>2021-08-02T07:56:51.317Z</time>
      </trkpt>
      <trkpt lat="47.04247" lon="9.05591">
        <ele>545</ele>
        <time>2021-08-02T07:56:52.316Z</time>
      </trkpt>
      <trkpt lat="47.04248" lon="9.0559">
        <ele>545</ele>
        <time>2021-08-02T07:56:53.317Z</time>
      </trkpt>
      <trkpt lat="47.04248" lon="9.0559">
        <ele>545</ele>
        <time>2021-08-02T07:56:54.317Z</time>
      </trkpt>
      <trkpt lat="47.04248" lon="9.05589">
        <ele>545</ele>
        <time>2021-08-02T07:56:55.316Z</time>
      </trkpt>
      <trkpt lat="47.04249" lon="9.05588">
        <ele>544</ele>
        <time>2021-08-02T07:56:56.317Z</time>
      </trkpt>
      <trkpt lat="47.04249" lon="9.05588">
        <ele>544</ele>
        <time>2021-08-02T07:56:57.317Z</time>
      </trkpt>
      <trkpt lat="47.0425" lon="9.05587">
        <ele>543</ele>
        <time>2021-08-02T07:56:58.317Z</time>
      </trkpt>
      <trkpt lat="47.04251" lon="9.05588">
        <ele>543</ele>
        <time>2021-08-02T07:56:59.316Z</time>
      </trkpt>
      <trkpt lat="47.04252" lon="9.05588">
        <ele>542</ele>
        <time>2021-08-02T07:57:00.316Z</time>
      </trkpt>
      <trkpt lat="47.04253" lon="9.05588">
        <ele>542</ele>
        <time>2021-08-02T07:57:01.317Z</time>
      </trkpt>
      <trkpt lat="47.04254" lon="9.05588">
        <ele>542</ele>
        <time>2021-08-02T07:57:02.317Z</time>
      </trkpt>
      <trkpt lat="47.04256" lon="9.05588">
        <ele>542</ele>
        <time>2021-08-02T07:57:03.316Z</time>
      </trkpt>
      <trkpt lat="47.04257" lon="9.05588">
        <ele>542</ele>
        <time>2021-08-02T07:57:04.316Z</time>
      </trkpt>
      <trkpt lat="47.04258" lon="9.05588">
        <ele>542</ele>
        <time>2021-08-02T07:57:05.317Z</time>
      </trkpt>
      <trkpt lat="47.0426" lon="9.05587">
        <ele>542</ele>
        <time>2021-08-02T07:57:06.317Z</time>
      </trkpt>
      <trkpt lat="47.04261" lon="9.05586">
        <ele>542</ele>
        <time>2021-08-02T07:57:07.316Z</time>
      </trkpt>
      <trkpt lat="47.04263" lon="9.05585">
        <ele>542</ele>
        <time>2021-08-02T07:57:08.317Z</time>
      </trkpt>
      <trkpt lat="47.04264" lon="9.05584">
        <ele>543</ele>
        <time>2021-08-02T07:57:09.316Z</time>
      </trkpt>
      <trkpt lat="47.04265" lon="9.05585">
        <ele>543</ele>
        <time>2021-08-02T07:57:10.316Z</time>
      </trkpt>
      <trkpt lat="47.04267" lon="9.05585">
        <ele>543</ele>
        <time>2021-08-02T07:57:11.316Z</time>
      </trkpt>
      <trkpt lat="47.0427" lon="9.05586">
        <ele>543</ele>
        <time>2021-08-02T07:57:12.317Z</time>
      </trkpt>
      <trkpt lat="47.04271" lon="9.05586">
        <ele>543</ele>
        <time>2021-08-02T07:57:13.317Z</time>
      </trkpt>
      <trkpt lat="47.04272" lon="9.05586">
        <ele>543</ele>
        <time>2021-08-02T07:57:14.317Z</time>
      </trkpt>
      <trkpt lat="47.04273" lon="9.05585">
        <ele>542</ele>
        <time>2021-08-02T07:57:15.317Z</time>
      </trkpt>
      <trkpt lat="47.04274" lon="9.05584">
        <ele>542</ele>
        <time>2021-08-02T07:57:16.317Z</time>
      </trkpt>
      <trkpt lat="47.04276" lon="9.05584">
        <ele>542</ele>
        <time>2021-08-02T07:57:17.317Z</time>
      </trkpt>
      <trkpt lat="47.04277" lon="9.05583">
        <ele>542</ele>
        <time>2021-08-02T07:57:18.316Z</time>
      </trkpt>
      <trkpt lat="47.04278" lon="9.05583">
        <ele>542</ele>
        <time>2021-08-02T07:57:19.316Z</time>
      </trkpt>
      <trkpt lat="47.04279" lon="9.05583">
        <ele>541</ele>
        <time>2021-08-02T07:57:20.316Z</time>
      </trkpt>
      <trkpt lat="47.0428" lon="9.05582">
        <ele>541</ele>
        <time>2021-08-02T07:57:21.316Z</time>
      </trkpt>
      <trkpt lat="47.04281" lon="9.05581">
        <ele>540</ele>
        <time>2021-08-02T07:57:22.316Z</time>
      </trkpt>
      <trkpt lat="47.04281" lon="9.05581">
        <ele>540</ele>
        <time>2021-08-02T07:57:23.316Z</time>
      </trkpt>
      <trkpt lat="47.04282" lon="9.0558">
        <ele>539</ele>
        <time>2021-08-02T07:57:24.316Z</time>
      </trkpt>
      <trkpt lat="47.04288" lon="9.05579">
        <ele>537</ele>
        <time>2021-08-02T07:57:25.319Z</time>
      </trkpt>
      <trkpt lat="47.04288" lon="9.05578">
        <ele>537</ele>
        <time>2021-08-02T07:57:26.319Z</time>
      </trkpt>
      <trkpt lat="47.04289" lon="9.05578">
        <ele>537</ele>
        <time>2021-08-02T07:57:27.319Z</time>
      </trkpt>
      <trkpt lat="47.04293" lon="9.05576">
        <ele>538</ele>
        <time>2021-08-02T07:57:28.319Z</time>
      </trkpt>
      <trkpt lat="47.04294" lon="9.05575">
        <ele>538</ele>
        <time>2021-08-02T07:57:29.318Z</time>
      </trkpt>
      <trkpt lat="47.04295" lon="9.05574">
        <ele>538</ele>
        <time>2021-08-02T07:57:30.318Z</time>
      </trkpt>
      <trkpt lat="47.04296" lon="9.05574">
        <ele>538</ele>
        <time>2021-08-02T07:57:31.318Z</time>
      </trkpt>
      <trkpt lat="47.04296" lon="9.05572">
        <ele>537</ele>
        <time>2021-08-02T07:57:32.318Z</time>
      </trkpt>
      <trkpt lat="47.04296" lon="9.05572">
        <ele>537</ele>
        <time>2021-08-02T07:57:33.318Z</time>
      </trkpt>
      <trkpt lat="47.04297" lon="9.05571">
        <ele>537</ele>
        <time>2021-08-02T07:57:34.318Z</time>
      </trkpt>
      <trkpt lat="47.04298" lon="9.05572">
        <ele>537</ele>
        <time>2021-08-02T07:57:35.318Z</time>
      </trkpt>
      <trkpt lat="47.043" lon="9.05571">
        <ele>537</ele>
        <time>2021-08-02T07:57:36.318Z</time>
      </trkpt>
      <trkpt lat="47.04301" lon="9.0557">
        <ele>537</ele>
        <time>2021-08-02T07:57:37.319Z</time>
      </trkpt>
      <trkpt lat="47.04302" lon="9.05569">
        <ele>537</ele>
        <time>2021-08-02T07:57:38.319Z</time>
      </trkpt>
      <trkpt lat="47.04303" lon="9.05569">
        <ele>537</ele>
        <time>2021-08-02T07:57:39.319Z</time>
      </trkpt>
      <trkpt lat="47.04304" lon="9.05569">
        <ele>537</ele>
        <time>2021-08-02T07:57:40.318Z</time>
      </trkpt>
      <trkpt lat="47.04306" lon="9.05567">
        <ele>537</ele>
        <time>2021-08-02T07:57:41.318Z</time>
      </trkpt>
      <trkpt lat="47.04307" lon="9.05567">
        <ele>537</ele>
        <time>2021-08-02T07:57:42.318Z</time>
      </trkpt>
      <trkpt lat="47.04307" lon="9.05567">
        <ele>537</ele>
        <time>2021-08-02T07:57:43.318Z</time>
      </trkpt>
      <trkpt lat="47.04308" lon="9.05567">
        <ele>537</ele>
        <time>2021-08-02T07:57:44.318Z</time>
      </trkpt>
      <trkpt lat="47.04309" lon="9.05566">
        <ele>537</ele>
        <time>2021-08-02T07:57:45.318Z</time>
      </trkpt>
      <trkpt lat="47.04309" lon="9.05566">
        <ele>537</ele>
        <time>2021-08-02T07:57:46.319Z</time>
      </trkpt>
      <trkpt lat="47.0431" lon="9.05566">
        <ele>538</ele>
        <time>2021-08-02T07:57:47.318Z</time>
      </trkpt>
      <trkpt lat="47.04311" lon="9.05565">
        <ele>538</ele>
        <time>2021-08-02T07:57:48.318Z</time>
      </trkpt>
      <trkpt lat="47.04312" lon="9.05564">
        <ele>538</ele>
        <time>2021-08-02T07:57:49.319Z</time>
      </trkpt>
      <trkpt lat="47.04312" lon="9.05563">
        <ele>538</ele>
        <time>2021-08-02T07:57:50.318Z</time>
      </trkpt>
      <trkpt lat="47.04313" lon="9.05562">
        <ele>538</ele>
        <time>2021-08-02T07:57:51.318Z</time>
      </trkpt>
      <trkpt lat="47.04315" lon="9.05561">
        <ele>538</ele>
        <time>2021-08-02T07:57:52.319Z</time>
      </trkpt>
      <trkpt lat="47.04316" lon="9.0556">
        <ele>538</ele>
        <time>2021-08-02T07:57:53.319Z</time>
      </trkpt>
      <trkpt lat="47.04317" lon="9.05559">
        <ele>538</ele>
        <time>2021-08-02T07:57:54.318Z</time>
      </trkpt>
      <trkpt lat="47.04318" lon="9.05557">
        <ele>538</ele>
        <time>2021-08-02T07:57:55.318Z</time>
      </trkpt>
      <trkpt lat="47.0432" lon="9.05557">
        <ele>538</ele>
        <time>2021-08-02T07:57:56.319Z</time>
      </trkpt>
      <trkpt lat="47.04322" lon="9.05557">
        <ele>539</ele>
        <time>2021-08-02T07:57:57.318Z</time>
      </trkpt>
      <trkpt lat="47.04323" lon="9.05556">
        <ele>539</ele>
        <time>2021-08-02T07:57:58.318Z</time>
      </trkpt>
      <trkpt lat="47.04324" lon="9.05555">
        <ele>539</ele>
        <time>2021-08-02T07:57:59.319Z</time>
      </trkpt>
      <trkpt lat="47.04324" lon="9.05554">
        <ele>540</ele>
        <time>2021-08-02T07:58:00.319Z</time>
      </trkpt>
      <trkpt lat="47.04324" lon="9.05553">
        <ele>540</ele>
        <time>2021-08-02T07:58:01.318Z</time>
      </trkpt>
      <trkpt lat="47.04324" lon="9.05552">
        <ele>540</ele>
        <time>2021-08-02T07:58:02.318Z</time>
      </trkpt>
      <trkpt lat="47.04324" lon="9.05552">
        <ele>541</ele>
        <time>2021-08-02T07:58:03.318Z</time>
      </trkpt>
      <trkpt lat="47.04324" lon="9.05551">
        <ele>541</ele>
        <time>2021-08-02T07:58:04.318Z</time>
      </trkpt>
      <trkpt lat="47.04325" lon="9.0555">
        <ele>541</ele>
        <time>2021-08-02T07:58:05.318Z</time>
      </trkpt>
      <trkpt lat="47.04326" lon="9.0555">
        <ele>542</ele>
        <time>2021-08-02T07:58:06.318Z</time>
      </trkpt>
      <trkpt lat="47.04326" lon="9.0555">
        <ele>542</ele>
        <time>2021-08-02T07:58:07.318Z</time>
      </trkpt>
      <trkpt lat="47.04327" lon="9.05549">
        <ele>542</ele>
        <time>2021-08-02T07:58:08.319Z</time>
      </trkpt>
      <trkpt lat="47.04329" lon="9.0555">
        <ele>543</ele>
        <time>2021-08-02T07:58:09.319Z</time>
      </trkpt>
      <trkpt lat="47.0433" lon="9.0555">
        <ele>543</ele>
        <time>2021-08-02T07:58:10.318Z</time>
      </trkpt>
      <trkpt lat="47.04332" lon="9.05551">
        <ele>544</ele>
        <time>2021-08-02T07:58:11.318Z</time>
      </trkpt>
      <trkpt lat="47.04333" lon="9.05552">
        <ele>544</ele>
        <time>2021-08-02T07:58:12.319Z</time>
      </trkpt>
      <trkpt lat="47.04334" lon="9.05552">
        <ele>545</ele>
        <time>2021-08-02T07:58:13.319Z</time>
      </trkpt>
      <trkpt lat="47.04335" lon="9.05553">
        <ele>545</ele>
        <time>2021-08-02T07:58:14.318Z</time>
      </trkpt>
      <trkpt lat="47.04336" lon="9.05554">
        <ele>545</ele>
        <time>2021-08-02T07:58:15.318Z</time>
      </trkpt>
      <trkpt lat="47.04336" lon="9.05554">
        <ele>545</ele>
        <time>2021-08-02T07:58:16.318Z</time>
      </trkpt>
      <trkpt lat="47.04336" lon="9.05554">
        <ele>545</ele>
        <time>2021-08-02T07:58:17.318Z</time>
      </trkpt>
      <trkpt lat="47.04339" lon="9.05553">
        <ele>545</ele>
        <time>2021-08-02T07:58:18.319Z</time>
      </trkpt>
      <trkpt lat="47.04341" lon="9.05553">
        <ele>545</ele>
        <time>2021-08-02T07:58:19.319Z</time>
      </trkpt>
      <trkpt lat="47.04342" lon="9.05555">
        <ele>545</ele>
        <time>2021-08-02T07:58:20.320Z</time>
      </trkpt>
      <trkpt lat="47.04344" lon="9.05557">
        <ele>544</ele>
        <time>2021-08-02T07:58:21.319Z</time>
      </trkpt>
      <trkpt lat="47.04345" lon="9.05559">
        <ele>544</ele>
        <time>2021-08-02T07:58:22.319Z</time>
      </trkpt>
      <trkpt lat="47.04346" lon="9.05559">
        <ele>543</ele>
        <time>2021-08-02T07:58:23.319Z</time>
      </trkpt>
      <trkpt lat="47.04347" lon="9.0556">
        <ele>542</ele>
        <time>2021-08-02T07:58:24.319Z</time>
      </trkpt>
      <trkpt lat="47.04349" lon="9.05561">
        <ele>542</ele>
        <time>2021-08-02T07:58:25.319Z</time>
      </trkpt>
      <trkpt lat="47.0435" lon="9.05561">
        <ele>542</ele>
        <time>2021-08-02T07:58:26.319Z</time>
      </trkpt>
      <trkpt lat="47.04351" lon="9.05562">
        <ele>542</ele>
        <time>2021-08-02T07:58:27.319Z</time>
      </trkpt>
      <trkpt lat="47.04352" lon="9.05562">
        <ele>541</ele>
        <time>2021-08-02T07:58:28.319Z</time>
      </trkpt>
      <trkpt lat="47.04353" lon="9.05563">
        <ele>541</ele>
        <time>2021-08-02T07:58:29.319Z</time>
      </trkpt>
      <trkpt lat="47.04354" lon="9.05564">
        <ele>540</ele>
        <time>2021-08-02T07:58:30.319Z</time>
      </trkpt>
      <trkpt lat="47.04355" lon="9.05565">
        <ele>540</ele>
        <time>2021-08-02T07:58:31.319Z</time>
      </trkpt>
      <trkpt lat="47.04357" lon="9.05566">
        <ele>539</ele>
        <time>2021-08-02T07:58:32.319Z</time>
      </trkpt>
      <trkpt lat="47.04357" lon="9.05568">
        <ele>539</ele>
        <time>2021-08-02T07:58:33.319Z</time>
      </trkpt>
      <trkpt lat="47.04358" lon="9.05569">
        <ele>538</ele>
        <time>2021-08-02T07:58:34.319Z</time>
      </trkpt>
      <trkpt lat="47.04359" lon="9.05569">
        <ele>538</ele>
        <time>2021-08-02T07:58:35.320Z</time>
      </trkpt>
      <trkpt lat="47.0436" lon="9.05569">
        <ele>537</ele>
        <time>2021-08-02T07:58:36.320Z</time>
      </trkpt>
      <trkpt lat="47.04362" lon="9.05569">
        <ele>536</ele>
        <time>2021-08-02T07:58:37.320Z</time>
      </trkpt>
      <trkpt lat="47.04362" lon="9.05568">
        <ele>535</ele>
        <time>2021-08-02T07:58:38.320Z</time>
      </trkpt>
      <trkpt lat="47.04362" lon="9.05567">
        <ele>534</ele>
        <time>2021-08-02T07:58:39.319Z</time>
      </trkpt>
      <trkpt lat="47.04363" lon="9.05567">
        <ele>533</ele>
        <time>2021-08-02T07:58:40.320Z</time>
      </trkpt>
      <trkpt lat="47.04364" lon="9.05568">
        <ele>532</ele>
        <time>2021-08-02T07:58:41.319Z</time>
      </trkpt>
      <trkpt lat="47.04364" lon="9.05567">
        <ele>531</ele>
        <time>2021-08-02T07:58:42.319Z</time>
      </trkpt>
      <trkpt lat="47.04364" lon="9.05566">
        <ele>530</ele>
        <time>2021-08-02T07:58:43.319Z</time>
      </trkpt>
      <trkpt lat="47.04365" lon="9.05566">
        <ele>529</ele>
        <time>2021-08-02T07:58:44.320Z</time>
      </trkpt>
      <trkpt lat="47.04365" lon="9.05566">
        <ele>529</ele>
        <time>2021-08-02T07:58:45.320Z</time>
      </trkpt>
      <trkpt lat="47.04366" lon="9.05566">
        <ele>528</ele>
        <time>2021-08-02T07:58:46.320Z</time>
      </trkpt>
      <trkpt lat="47.04367" lon="9.05567">
        <ele>528</ele>
        <time>2021-08-02T07:58:47.320Z</time>
      </trkpt>
      <trkpt lat="47.04368" lon="9.05568">
        <ele>527</ele>
        <time>2021-08-02T07:58:48.320Z</time>
      </trkpt>
      <trkpt lat="47.04369" lon="9.05569">
        <ele>526</ele>
        <time>2021-08-02T07:58:49.320Z</time>
      </trkpt>
      <trkpt lat="47.0437" lon="9.0557">
        <ele>526</ele>
        <time>2021-08-02T07:58:50.320Z</time>
      </trkpt>
      <trkpt lat="47.0437" lon="9.0557">
        <ele>526</ele>
        <time>2021-08-02T07:58:51.320Z</time>
      </trkpt>
      <trkpt lat="47.04372" lon="9.0557">
        <ele>525</ele>
        <time>2021-08-02T07:58:52.319Z</time>
      </trkpt>
      <trkpt lat="47.04374" lon="9.05569">
        <ele>525</ele>
        <time>2021-08-02T07:58:53.320Z</time>
      </trkpt>
      <trkpt lat="47.04376" lon="9.05569">
        <ele>524</ele>
        <time>2021-08-02T07:58:54.320Z</time>
      </trkpt>
      <trkpt lat="47.04378" lon="9.05569">
        <ele>524</ele>
        <time>2021-08-02T07:58:55.320Z</time>
      </trkpt>
      <trkpt lat="47.0438" lon="9.05568">
        <ele>524</ele>
        <time>2021-08-02T07:58:56.320Z</time>
      </trkpt>
      <trkpt lat="47.04381" lon="9.05567">
        <ele>525</ele>
        <time>2021-08-02T07:58:57.320Z</time>
      </trkpt>
      <trkpt lat="47.04382" lon="9.05566">
        <ele>525</ele>
        <time>2021-08-02T07:58:58.320Z</time>
      </trkpt>
      <trkpt lat="47.04382" lon="9.05565">
        <ele>526</ele>
        <time>2021-08-02T07:58:59.320Z</time>
      </trkpt>
      <trkpt lat="47.04383" lon="9.05564">
        <ele>527</ele>
        <time>2021-08-02T07:59:00.320Z</time>
      </trkpt>
      <trkpt lat="47.04384" lon="9.05564">
        <ele>528</ele>
        <time>2021-08-02T07:59:01.320Z</time>
      </trkpt>
      <trkpt lat="47.04385" lon="9.05563">
        <ele>528</ele>
        <time>2021-08-02T07:59:02.319Z</time>
      </trkpt>
      <trkpt lat="47.04386" lon="9.05562">
        <ele>529</ele>
        <time>2021-08-02T07:59:03.320Z</time>
      </trkpt>
      <trkpt lat="47.04387" lon="9.05561">
        <ele>530</ele>
        <time>2021-08-02T07:59:04.319Z</time>
      </trkpt>
      <trkpt lat="47.04388" lon="9.05559">
        <ele>530</ele>
        <time>2021-08-02T07:59:05.319Z</time>
      </trkpt>
      <trkpt lat="47.04389" lon="9.05558">
        <ele>531</ele>
        <time>2021-08-02T07:59:06.320Z</time>
      </trkpt>
      <trkpt lat="47.0439" lon="9.05557">
        <ele>532</ele>
        <time>2021-08-02T07:59:07.320Z</time>
      </trkpt>
      <trkpt lat="47.04391" lon="9.05556">
        <ele>532</ele>
        <time>2021-08-02T07:59:08.319Z</time>
      </trkpt>
      <trkpt lat="47.04391" lon="9.05555">
        <ele>533</ele>
        <time>2021-08-02T07:59:09.320Z</time>
      </trkpt>
      <trkpt lat="47.04392" lon="9.05554">
        <ele>533</ele>
        <time>2021-08-02T07:59:10.319Z</time>
      </trkpt>
      <trkpt lat="47.04393" lon="9.05553">
        <ele>533</ele>
        <time>2021-08-02T07:59:11.319Z</time>
      </trkpt>
      <trkpt lat="47.04395" lon="9.05552">
        <ele>533</ele>
        <time>2021-08-02T07:59:12.319Z</time>
      </trkpt>
      <trkpt lat="47.04395" lon="9.05551">
        <ele>534</ele>
        <time>2021-08-02T07:59:13.319Z</time>
      </trkpt>
      <trkpt lat="47.04396" lon="9.0555">
        <ele>534</ele>
        <time>2021-08-02T07:59:14.320Z</time>
      </trkpt>
      <trkpt lat="47.04397" lon="9.05548">
        <ele>534</ele>
        <time>2021-08-02T07:59:15.320Z</time>
      </trkpt>
      <trkpt lat="47.04399" lon="9.05547">
        <ele>534</ele>
        <time>2021-08-02T07:59:16.320Z</time>
      </trkpt>
      <trkpt lat="47.044" lon="9.05546">
        <ele>534</ele>
        <time>2021-08-02T07:59:17.319Z</time>
      </trkpt>
      <trkpt lat="47.044" lon="9.05545">
        <ele>534</ele>
        <time>2021-08-02T07:59:18.319Z</time>
      </trkpt>
      <trkpt lat="47.04401" lon="9.05544">
        <ele>535</ele>
        <time>2021-08-02T07:59:19.320Z</time>
      </trkpt>
      <trkpt lat="47.04401" lon="9.05542">
        <ele>536</ele>
        <time>2021-08-02T07:59:20.320Z</time>
      </trkpt>
      <trkpt lat="47.04402" lon="9.05541">
        <ele>536</ele>
        <time>2021-08-02T07:59:21.320Z</time>
      </trkpt>
      <trkpt lat="47.04402" lon="9.0554">
        <ele>537</ele>
        <time>2021-08-02T07:59:22.320Z</time>
      </trkpt>
      <trkpt lat="47.04402" lon="9.05538">
        <ele>537</ele>
        <time>2021-08-02T07:59:23.320Z</time>
      </trkpt>
      <trkpt lat="47.04402" lon="9.05537">
        <ele>537</ele>
        <time>2021-08-02T07:59:24.320Z</time>
      </trkpt>
      <trkpt lat="47.04402" lon="9.05536">
        <ele>537</ele>
        <time>2021-08-02T07:59:25.320Z</time>
      </trkpt>
      <trkpt lat="47.04402" lon="9.05536">
        <ele>533</ele>
        <time>2021-08-02T07:59:26.319Z</time>
      </trkpt>
      <trkpt lat="47.04403" lon="9.05537">
        <ele>533</ele>
        <time>2021-08-02T07:59:27.320Z</time>
      </trkpt>
      <trkpt lat="47.04404" lon="9.05536">
        <ele>533</ele>
        <time>2021-08-02T07:59:28.319Z</time>
      </trkpt>
      <trkpt lat="47.04405" lon="9.05535">
        <ele>533</ele>
        <time>2021-08-02T07:59:29.319Z</time>
      </trkpt>
      <trkpt lat="47.04405" lon="9.05534">
        <ele>533</ele>
        <time>2021-08-02T07:59:30.319Z</time>
      </trkpt>
      <trkpt lat="47.04406" lon="9.05534">
        <ele>533</ele>
        <time>2021-08-02T07:59:31.320Z</time>
      </trkpt>
      <trkpt lat="47.04406" lon="9.05532">
        <ele>533</ele>
        <time>2021-08-02T07:59:32.320Z</time>
      </trkpt>
      <trkpt lat="47.04407" lon="9.05531">
        <ele>533</ele>
        <time>2021-08-02T07:59:33.320Z</time>
      </trkpt>
      <trkpt lat="47.04407" lon="9.0553">
        <ele>533</ele>
        <time>2021-08-02T07:59:34.320Z</time>
      </trkpt>
      <trkpt lat="47.04407" lon="9.05529">
        <ele>533</ele>
        <time>2021-08-02T07:59:35.320Z</time>
      </trkpt>
      <trkpt lat="47.04406" lon="9.05528">
        <ele>533</ele>
        <time>2021-08-02T07:59:36.320Z</time>
      </trkpt>
      <trkpt lat="47.04406" lon="9.05527">
        <ele>534</ele>
        <time>2021-08-02T07:59:37.319Z</time>
      </trkpt>
      <trkpt lat="47.04406" lon="9.05525">
        <ele>535</ele>
        <time>2021-08-02T07:59:38.320Z</time>
      </trkpt>
      <trkpt lat="47.04405" lon="9.05524">
        <ele>535</ele>
        <time>2021-08-02T07:59:39.319Z</time>
      </trkpt>
      <trkpt lat="47.04405" lon="9.05522">
        <ele>536</ele>
        <time>2021-08-02T07:59:40.319Z</time>
      </trkpt>
      <trkpt lat="47.04405" lon="9.05521">
        <ele>536</ele>
        <time>2021-08-02T07:59:41.319Z</time>
      </trkpt>
      <trkpt lat="47.04404" lon="9.0552">
        <ele>537</ele>
        <time>2021-08-02T07:59:42.319Z</time>
      </trkpt>
      <trkpt lat="47.04404" lon="9.05519">
        <ele>537</ele>
        <time>2021-08-02T07:59:43.320Z</time>
      </trkpt>
      <trkpt lat="47.04405" lon="9.05517">
        <ele>537</ele>
        <time>2021-08-02T07:59:44.320Z</time>
      </trkpt>
      <trkpt lat="47.04405" lon="9.05516">
        <ele>537</ele>
        <time>2021-08-02T07:59:45.319Z</time>
      </trkpt>
      <trkpt lat="47.04404" lon="9.05514">
        <ele>538</ele>
        <time>2021-08-02T07:59:46.320Z</time>
      </trkpt>
      <trkpt lat="47.04404" lon="9.05512">
        <ele>538</ele>
        <time>2021-08-02T07:59:47.319Z</time>
      </trkpt>
      <trkpt lat="47.04405" lon="9.05511">
        <ele>538</ele>
        <time>2021-08-02T07:59:48.320Z</time>
      </trkpt>
      <trkpt lat="47.04405" lon="9.0551">
        <ele>538</ele>
        <time>2021-08-02T07:59:49.319Z</time>
      </trkpt>
      <trkpt lat="47.04405" lon="9.05508">
        <ele>538</ele>
        <time>2021-08-02T07:59:50.320Z</time>
      </trkpt>
      <trkpt lat="47.04405" lon="9.05507">
        <ele>538</ele>
        <time>2021-08-02T07:59:51.320Z</time>
      </trkpt>
      <trkpt lat="47.04405" lon="9.05506">
        <ele>538</ele>
        <time>2021-08-02T07:59:52.320Z</time>
      </trkpt>
      <trkpt lat="47.04405" lon="9.05505">
        <ele>538</ele>
        <time>2021-08-02T07:59:53.319Z</time>
      </trkpt>
      <trkpt lat="47.04405" lon="9.05503">
        <ele>538</ele>
        <time>2021-08-02T07:59:54.319Z</time>
      </trkpt>
      <trkpt lat="47.04404" lon="9.05501">
        <ele>538</ele>
        <time>2021-08-02T07:59:55.320Z</time>
      </trkpt>
      <trkpt lat="47.04404" lon="9.05499">
        <ele>538</ele>
        <time>2021-08-02T07:59:56.320Z</time>
      </trkpt>
      <trkpt lat="47.04403" lon="9.05498">
        <ele>538</ele>
        <time>2021-08-02T07:59:57.320Z</time>
      </trkpt>
      <trkpt lat="47.04403" lon="9.05497">
        <ele>537</ele>
        <time>2021-08-02T07:59:58.319Z</time>
      </trkpt>
      <trkpt lat="47.04403" lon="9.05495">
        <ele>537</ele>
        <time>2021-08-02T07:59:59.320Z</time>
      </trkpt>
      <trkpt lat="47.04402" lon="9.05494">
        <ele>537</ele>
        <time>2021-08-02T08:00:00.320Z</time>
      </trkpt>
      <trkpt lat="47.04402" lon="9.05492">
        <ele>536</ele>
        <time>2021-08-02T08:00:01.320Z</time>
      </trkpt>
      <trkpt lat="47.04401" lon="9.05491">
        <ele>536</ele>
        <time>2021-08-02T08:00:02.320Z</time>
      </trkpt>
      <trkpt lat="47.04401" lon="9.05489">
        <ele>536</ele>
        <time>2021-08-02T08:00:03.320Z</time>
      </trkpt>
      <trkpt lat="47.044" lon="9.05488">
        <ele>535</ele>
        <time>2021-08-02T08:00:04.319Z</time>
      </trkpt>
      <trkpt lat="47.044" lon="9.05486">
        <ele>535</ele>
        <time>2021-08-02T08:00:05.320Z</time>
      </trkpt>
      <trkpt lat="47.044" lon="9.05485">
        <ele>535</ele>
        <time>2021-08-02T08:00:06.320Z</time>
      </trkpt>
      <trkpt lat="47.044" lon="9.05484">
        <ele>535</ele>
        <time>2021-08-02T08:00:07.319Z</time>
      </trkpt>
      <trkpt lat="47.044" lon="9.05483">
        <ele>535</ele>
        <time>2021-08-02T08:00:08.319Z</time>
      </trkpt>
      <trkpt lat="47.04399" lon="9.05482">
        <ele>535</ele>
        <time>2021-08-02T08:00:09.320Z</time>
      </trkpt>
      <trkpt lat="47.04399" lon="9.0548">
        <ele>535</ele>
        <time>2021-08-02T08:00:10.319Z</time>
      </trkpt>
      <trkpt lat="47.04398" lon="9.05479">
        <ele>535</ele>
        <time>2021-08-02T08:00:11.320Z</time>
      </trkpt>
      <trkpt lat="47.04398" lon="9.05477">
        <ele>535</ele>
        <time>2021-08-02T08:00:12.320Z</time>
      </trkpt>
      <trkpt lat="47.04398" lon="9.05475">
        <ele>535</ele>
        <time>2021-08-02T08:00:13.320Z</time>
      </trkpt>
      <trkpt lat="47.04398" lon="9.05473">
        <ele>535</ele>
        <time>2021-08-02T08:00:14.320Z</time>
      </trkpt>
      <trkpt lat="47.04398" lon="9.05472">
        <ele>535</ele>
        <time>2021-08-02T08:00:15.320Z</time>
      </trkpt>
      <trkpt lat="47.04398" lon="9.05471">
        <ele>535</ele>
        <time>2021-08-02T08:00:16.320Z</time>
      </trkpt>
      <trkpt lat="47.04398" lon="9.0547">
        <ele>535</ele>
        <time>2021-08-02T08:00:17.320Z</time>
      </trkpt>
      <trkpt lat="47.04398" lon="9.05469">
        <ele>536</ele>
        <time>2021-08-02T08:00:18.319Z</time>
      </trkpt>
      <trkpt lat="47.04398" lon="9.05468">
        <ele>536</ele>
        <time>2021-08-02T08:00:19.320Z</time>
      </trkpt>
      <trkpt lat="47.04398" lon="9.05467">
        <ele>536</ele>
        <time>2021-08-02T08:00:20.320Z</time>
      </trkpt>
      <trkpt lat="47.04398" lon="9.05466">
        <ele>536</ele>
        <time>2021-08-02T08:00:21.319Z</time>
      </trkpt>
      <trkpt lat="47.04397" lon="9.05465">
        <ele>537</ele>
        <time>2021-08-02T08:00:22.320Z</time>
      </trkpt>
      <trkpt lat="47.04397" lon="9.05464">
        <ele>537</ele>
        <time>2021-08-02T08:00:23.320Z</time>
      </trkpt>
      <trkpt lat="47.04398" lon="9.05463">
        <ele>537</ele>
        <time>2021-08-02T08:00:24.319Z</time>
      </trkpt>
      <trkpt lat="47.04398" lon="9.05462">
        <ele>538</ele>
        <time>2021-08-02T08:00:25.320Z</time>
      </trkpt>
      <trkpt lat="47.04398" lon="9.05461">
        <ele>538</ele>
        <time>2021-08-02T08:00:26.320Z</time>
      </trkpt>
      <trkpt lat="47.04398" lon="9.0546">
        <ele>538</ele>
        <time>2021-08-02T08:00:27.319Z</time>
      </trkpt>
      <trkpt lat="47.04398" lon="9.05458">
        <ele>538</ele>
        <time>2021-08-02T08:00:28.320Z</time>
      </trkpt>
      <trkpt lat="47.04398" lon="9.05456">
        <ele>538</ele>
        <time>2021-08-02T08:00:29.320Z</time>
      </trkpt>
      <trkpt lat="47.04398" lon="9.05454">
        <ele>539</ele>
        <time>2021-08-02T08:00:30.320Z</time>
      </trkpt>
      <trkpt lat="47.04397" lon="9.05452">
        <ele>539</ele>
        <time>2021-08-02T08:00:31.319Z</time>
      </trkpt>
      <trkpt lat="47.04396" lon="9.05449">
        <ele>540</ele>
        <time>2021-08-02T08:00:32.320Z</time>
      </trkpt>
      <trkpt lat="47.04396" lon="9.05447">
        <ele>540</ele>
        <time>2021-08-02T08:00:33.320Z</time>
      </trkpt>
      <trkpt lat="47.04395" lon="9.05446">
        <ele>540</ele>
        <time>2021-08-02T08:00:34.319Z</time>
      </trkpt>
      <trkpt lat="47.04395" lon="9.05444">
        <ele>541</ele>
        <time>2021-08-02T08:00:35.319Z</time>
      </trkpt>
      <trkpt lat="47.04395" lon="9.05443">
        <ele>541</ele>
        <time>2021-08-02T08:00:36.320Z</time>
      </trkpt>
      <trkpt lat="47.04394" lon="9.05442">
        <ele>541</ele>
        <time>2021-08-02T08:00:37.320Z</time>
      </trkpt>
      <trkpt lat="47.04394" lon="9.0544">
        <ele>541</ele>
        <time>2021-08-02T08:00:38.320Z</time>
      </trkpt>
      <trkpt lat="47.04393" lon="9.05438">
        <ele>542</ele>
        <time>2021-08-02T08:00:39.320Z</time>
      </trkpt>
      <trkpt lat="47.04393" lon="9.05436">
        <ele>543</ele>
        <time>2021-08-02T08:00:40.320Z</time>
      </trkpt>
      <trkpt lat="47.04393" lon="9.05435">
        <ele>543</ele>
        <time>2021-08-02T08:00:41.320Z</time>
      </trkpt>
      <trkpt lat="47.04392" lon="9.05434">
        <ele>543</ele>
        <time>2021-08-02T08:00:42.320Z</time>
      </trkpt>
      <trkpt lat="47.04392" lon="9.05432">
        <ele>544</ele>
        <time>2021-08-02T08:00:43.320Z</time>
      </trkpt>
      <trkpt lat="47.04391" lon="9.0543">
        <ele>544</ele>
        <time>2021-08-02T08:00:44.320Z</time>
      </trkpt>
      <trkpt lat="47.04391" lon="9.05429">
        <ele>544</ele>
        <time>2021-08-02T08:00:45.320Z</time>
      </trkpt>
      <trkpt lat="47.04392" lon="9.05428">
        <ele>545</ele>
        <time>2021-08-02T08:00:46.320Z</time>
      </trkpt>
      <trkpt lat="47.04393" lon="9.05427">
        <ele>545</ele>
        <time>2021-08-02T08:00:47.320Z</time>
      </trkpt>
      <trkpt lat="47.04393" lon="9.05426">
        <ele>545</ele>
        <time>2021-08-02T08:00:48.320Z</time>
      </trkpt>
      <trkpt lat="47.04393" lon="9.05424">
        <ele>545</ele>
        <time>2021-08-02T08:00:49.320Z</time>
      </trkpt>
      <trkpt lat="47.04392" lon="9.05422">
        <ele>545</ele>
        <time>2021-08-02T08:00:50.320Z</time>
      </trkpt>
      <trkpt lat="47.04391" lon="9.0542">
        <ele>545</ele>
        <time>2021-08-02T08:00:51.319Z</time>
      </trkpt>
      <trkpt lat="47.0439" lon="9.05418">
        <ele>546</ele>
        <time>2021-08-02T08:00:52.319Z</time>
      </trkpt>
      <trkpt lat="47.0439" lon="9.05417">
        <ele>546</ele>
        <time>2021-08-02T08:00:53.320Z</time>
      </trkpt>
      <trkpt lat="47.04389" lon="9.05415">
        <ele>546</ele>
        <time>2021-08-02T08:00:54.320Z</time>
      </trkpt>
      <trkpt lat="47.0439" lon="9.05414">
        <ele>547</ele>
        <time>2021-08-02T08:00:55.319Z</time>
      </trkpt>
      <trkpt lat="47.0439" lon="9.05413">
        <ele>547</ele>
        <time>2021-08-02T08:00:56.320Z</time>
      </trkpt>
      <trkpt lat="47.04391" lon="9.05413">
        <ele>547</ele>
        <time>2021-08-02T08:00:57.320Z</time>
      </trkpt>
      <trkpt lat="47.04392" lon="9.05412">
        <ele>547</ele>
        <time>2021-08-02T08:00:58.319Z</time>
      </trkpt>
      <trkpt lat="47.04392" lon="9.0541">
        <ele>548</ele>
        <time>2021-08-02T08:00:59.320Z</time>
      </trkpt>
      <trkpt lat="47.04392" lon="9.05409">
        <ele>548</ele>
        <time>2021-08-02T08:01:00.320Z</time>
      </trkpt>
      <trkpt lat="47.04393" lon="9.05408">
        <ele>548</ele>
        <time>2021-08-02T08:01:01.320Z</time>
      </trkpt>
      <trkpt lat="47.04393" lon="9.05407">
        <ele>549</ele>
        <time>2021-08-02T08:01:02.320Z</time>
      </trkpt>
      <trkpt lat="47.04394" lon="9.05407">
        <ele>549</ele>
        <time>2021-08-02T08:01:03.320Z</time>
      </trkpt>
      <trkpt lat="47.04394" lon="9.05406">
        <ele>550</ele>
        <time>2021-08-02T08:01:04.319Z</time>
      </trkpt>
      <trkpt lat="47.04394" lon="9.05405">
        <ele>550</ele>
        <time>2021-08-02T08:01:05.320Z</time>
      </trkpt>
      <trkpt lat="47.04395" lon="9.05404">
        <ele>550</ele>
        <time>2021-08-02T08:01:06.319Z</time>
      </trkpt>
      <trkpt lat="47.04396" lon="9.05403">
        <ele>551</ele>
        <time>2021-08-02T08:01:07.320Z</time>
      </trkpt>
      <trkpt lat="47.04396" lon="9.05402">
        <ele>551</ele>
        <time>2021-08-02T08:01:08.320Z</time>
      </trkpt>
      <trkpt lat="47.04397" lon="9.05402">
        <ele>551</ele>
        <time>2021-08-02T08:01:09.320Z</time>
      </trkpt>
      <trkpt lat="47.04397" lon="9.05401">
        <ele>551</ele>
        <time>2021-08-02T08:01:10.319Z</time>
      </trkpt>
      <trkpt lat="47.04397" lon="9.054">
        <ele>550</ele>
        <time>2021-08-02T08:01:11.320Z</time>
      </trkpt>
      <trkpt lat="47.04398" lon="9.05399">
        <ele>550</ele>
        <time>2021-08-02T08:01:12.320Z</time>
      </trkpt>
      <trkpt lat="47.04399" lon="9.05398">
        <ele>550</ele>
        <time>2021-08-02T08:01:13.319Z</time>
      </trkpt>
      <trkpt lat="47.044" lon="9.05397">
        <ele>550</ele>
        <time>2021-08-02T08:01:14.319Z</time>
      </trkpt>
      <trkpt lat="47.04401" lon="9.05396">
        <ele>550</ele>
        <time>2021-08-02T08:01:15.319Z</time>
      </trkpt>
      <trkpt lat="47.04402" lon="9.05396">
        <ele>550</ele>
        <time>2021-08-02T08:01:16.320Z</time>
      </trkpt>
      <trkpt lat="47.04402" lon="9.05396">
        <ele>550</ele>
        <time>2021-08-02T08:01:17.319Z</time>
      </trkpt>
      <trkpt lat="47.04402" lon="9.05394">
        <ele>550</ele>
        <time>2021-08-02T08:01:18.319Z</time>
      </trkpt>
      <trkpt lat="47.04402" lon="9.05393">
        <ele>549</ele>
        <time>2021-08-02T08:01:19.320Z</time>
      </trkpt>
      <trkpt lat="47.04402" lon="9.05392">
        <ele>549</ele>
        <time>2021-08-02T08:01:20.320Z</time>
      </trkpt>
      <trkpt lat="47.04403" lon="9.05391">
        <ele>548</ele>
        <time>2021-08-02T08:01:21.320Z</time>
      </trkpt>
      <trkpt lat="47.04403" lon="9.0539">
        <ele>548</ele>
        <time>2021-08-02T08:01:22.319Z</time>
      </trkpt>
      <trkpt lat="47.04403" lon="9.0539">
        <ele>548</ele>
        <time>2021-08-02T08:01:23.319Z</time>
      </trkpt>
      <trkpt lat="47.04403" lon="9.05388">
        <ele>548</ele>
        <time>2021-08-02T08:01:24.320Z</time>
      </trkpt>
      <trkpt lat="47.04404" lon="9.05387">
        <ele>548</ele>
        <time>2021-08-02T08:01:25.319Z</time>
      </trkpt>
      <trkpt lat="47.04405" lon="9.05386">
        <ele>548</ele>
        <time>2021-08-02T08:01:26.320Z</time>
      </trkpt>
      <trkpt lat="47.04405" lon="9.05385">
        <ele>548</ele>
        <time>2021-08-02T08:01:27.319Z</time>
      </trkpt>
      <trkpt lat="47.04405" lon="9.05383">
        <ele>548</ele>
        <time>2021-08-02T08:01:28.320Z</time>
      </trkpt>
      <trkpt lat="47.04405" lon="9.05381">
        <ele>548</ele>
        <time>2021-08-02T08:01:29.320Z</time>
      </trkpt>
      <trkpt lat="47.04405" lon="9.0538">
        <ele>548</ele>
        <time>2021-08-02T08:01:30.320Z</time>
      </trkpt>
      <trkpt lat="47.04406" lon="9.05378">
        <ele>548</ele>
        <time>2021-08-02T08:01:31.320Z</time>
      </trkpt>
      <trkpt lat="47.04407" lon="9.05378">
        <ele>548</ele>
        <time>2021-08-02T08:01:32.319Z</time>
      </trkpt>
      <trkpt lat="47.04407" lon="9.05377">
        <ele>548</ele>
        <time>2021-08-02T08:01:33.319Z</time>
      </trkpt>
      <trkpt lat="47.04408" lon="9.05376">
        <ele>548</ele>
        <time>2021-08-02T08:01:34.319Z</time>
      </trkpt>
      <trkpt lat="47.04409" lon="9.05375">
        <ele>548</ele>
        <time>2021-08-02T08:01:35.320Z</time>
      </trkpt>
      <trkpt lat="47.04409" lon="9.05374">
        <ele>548</ele>
        <time>2021-08-02T08:01:36.319Z</time>
      </trkpt>
      <trkpt lat="47.04409" lon="9.05373">
        <ele>548</ele>
        <time>2021-08-02T08:01:37.320Z</time>
      </trkpt>
      <trkpt lat="47.04409" lon="9.05371">
        <ele>548</ele>
        <time>2021-08-02T08:01:38.319Z</time>
      </trkpt>
      <trkpt lat="47.0441" lon="9.05371">
        <ele>548</ele>
        <time>2021-08-02T08:01:39.319Z</time>
      </trkpt>
      <trkpt lat="47.0441" lon="9.0537">
        <ele>548</ele>
        <time>2021-08-02T08:01:40.320Z</time>
      </trkpt>
      <trkpt lat="47.0441" lon="9.05369">
        <ele>548</ele>
        <time>2021-08-02T08:01:41.320Z</time>
      </trkpt>
      <trkpt lat="47.0441" lon="9.05368">
        <ele>548</ele>
        <time>2021-08-02T08:01:42.320Z</time>
      </trkpt>
      <trkpt lat="47.04411" lon="9.05367">
        <ele>548</ele>
        <time>2021-08-02T08:01:43.319Z</time>
      </trkpt>
      <trkpt lat="47.04411" lon="9.05366">
        <ele>548</ele>
        <time>2021-08-02T08:01:44.320Z</time>
      </trkpt>
      <trkpt lat="47.04411" lon="9.05365">
        <ele>547</ele>
        <time>2021-08-02T08:01:45.319Z</time>
      </trkpt>
      <trkpt lat="47.04411" lon="9.05364">
        <ele>547</ele>
        <time>2021-08-02T08:01:46.320Z</time>
      </trkpt>
      <trkpt lat="47.04411" lon="9.05363">
        <ele>547</ele>
        <time>2021-08-02T08:01:47.320Z</time>
      </trkpt>
      <trkpt lat="47.04411" lon="9.05362">
        <ele>547</ele>
        <time>2021-08-02T08:01:48.320Z</time>
      </trkpt>
      <trkpt lat="47.04411" lon="9.05361">
        <ele>547</ele>
        <time>2021-08-02T08:01:49.320Z</time>
      </trkpt>
      <trkpt lat="47.04411" lon="9.05361">
        <ele>546</ele>
        <time>2021-08-02T08:01:50.320Z</time>
      </trkpt>
      <trkpt lat="47.04411" lon="9.0536">
        <ele>546</ele>
        <time>2021-08-02T08:01:51.320Z</time>
      </trkpt>
      <trkpt lat="47.04411" lon="9.05359">
        <ele>546</ele>
        <time>2021-08-02T08:01:52.319Z</time>
      </trkpt>
      <trkpt lat="47.04411" lon="9.05357">
        <ele>546</ele>
        <time>2021-08-02T08:01:53.320Z</time>
      </trkpt>
      <trkpt lat="47.04409" lon="9.05354">
        <ele>545</ele>
        <time>2021-08-02T08:01:54.319Z</time>
      </trkpt>
      <trkpt lat="47.04409" lon="9.05355">
        <ele>545</ele>
        <time>2021-08-02T08:01:55.320Z</time>
      </trkpt>
      <trkpt lat="47.0441" lon="9.05357">
        <ele>545</ele>
        <time>2021-08-02T08:01:56.319Z</time>
      </trkpt>
      <trkpt lat="47.04407" lon="9.05355">
        <ele>548</ele>
        <time>2021-08-02T08:01:57.320Z</time>
      </trkpt>
      <trkpt lat="47.04407" lon="9.05355">
        <ele>549</ele>
        <time>2021-08-02T08:01:58.319Z</time>
      </trkpt>
      <trkpt lat="47.04407" lon="9.05356">
        <ele>550</ele>
        <time>2021-08-02T08:01:59.320Z</time>
      </trkpt>
      <trkpt lat="47.04408" lon="9.05357">
        <ele>551</ele>
        <time>2021-08-02T08:02:00.320Z</time>
      </trkpt>
      <trkpt lat="47.04408" lon="9.05357">
        <ele>551</ele>
        <time>2021-08-02T08:02:01.320Z</time>
      </trkpt>
      <trkpt lat="47.04408" lon="9.05357">
        <ele>552</ele>
        <time>2021-08-02T08:02:02.319Z</time>
      </trkpt>
      <trkpt lat="47.04408" lon="9.05356">
        <ele>552</ele>
        <time>2021-08-02T08:02:03.319Z</time>
      </trkpt>
      <trkpt lat="47.04408" lon="9.05355">
        <ele>553</ele>
        <time>2021-08-02T08:02:04.319Z</time>
      </trkpt>
      <trkpt lat="47.04408" lon="9.05355">
        <ele>553</ele>
        <time>2021-08-02T08:02:05.319Z</time>
      </trkpt>
      <trkpt lat="47.04408" lon="9.05352">
        <ele>554</ele>
        <time>2021-08-02T08:02:06.320Z</time>
      </trkpt>
      <trkpt lat="47.04408" lon="9.05352">
        <ele>555</ele>
        <time>2021-08-02T08:02:07.319Z</time>
      </trkpt>
      <trkpt lat="47.04408" lon="9.05351">
        <ele>555</ele>
        <time>2021-08-02T08:02:08.320Z</time>
      </trkpt>
      <trkpt lat="47.04407" lon="9.0535">
        <ele>555</ele>
        <time>2021-08-02T08:02:09.319Z</time>
      </trkpt>
      <trkpt lat="47.04407" lon="9.05349">
        <ele>555</ele>
        <time>2021-08-02T08:02:10.320Z</time>
      </trkpt>
      <trkpt lat="47.04407" lon="9.05347">
        <ele>555</ele>
        <time>2021-08-02T08:02:11.319Z</time>
      </trkpt>
      <trkpt lat="47.04408" lon="9.05347">
        <ele>555</ele>
        <time>2021-08-02T08:02:12.319Z</time>
      </trkpt>
      <trkpt lat="47.04408" lon="9.05346">
        <ele>555</ele>
        <time>2021-08-02T08:02:13.319Z</time>
      </trkpt>
      <trkpt lat="47.04409" lon="9.05345">
        <ele>555</ele>
        <time>2021-08-02T08:02:14.320Z</time>
      </trkpt>
      <trkpt lat="47.0441" lon="9.05344">
        <ele>554</ele>
        <time>2021-08-02T08:02:15.319Z</time>
      </trkpt>
      <trkpt lat="47.04411" lon="9.05342">
        <ele>553</ele>
        <time>2021-08-02T08:02:16.319Z</time>
      </trkpt>
      <trkpt lat="47.04412" lon="9.05342">
        <ele>553</ele>
        <time>2021-08-02T08:02:17.319Z</time>
      </trkpt>
      <trkpt lat="47.04413" lon="9.05341">
        <ele>552</ele>
        <time>2021-08-02T08:02:18.320Z</time>
      </trkpt>
      <trkpt lat="47.04415" lon="9.05341">
        <ele>551</ele>
        <time>2021-08-02T08:02:19.320Z</time>
      </trkpt>
      <trkpt lat="47.04415" lon="9.0534">
        <ele>550</ele>
        <time>2021-08-02T08:02:20.319Z</time>
      </trkpt>
      <trkpt lat="47.04416" lon="9.05338">
        <ele>550</ele>
        <time>2021-08-02T08:02:21.320Z</time>
      </trkpt>
      <trkpt lat="47.04416" lon="9.05337">
        <ele>550</ele>
        <time>2021-08-02T08:02:22.320Z</time>
      </trkpt>
      <trkpt lat="47.04416" lon="9.05336">
        <ele>550</ele>
        <time>2021-08-02T08:02:23.320Z</time>
      </trkpt>
      <trkpt lat="47.04418" lon="9.05335">
        <ele>549</ele>
        <time>2021-08-02T08:02:24.320Z</time>
      </trkpt>
      <trkpt lat="47.04419" lon="9.05335">
        <ele>549</ele>
        <time>2021-08-02T08:02:25.319Z</time>
      </trkpt>
      <trkpt lat="47.0442" lon="9.05334">
        <ele>548</ele>
        <time>2021-08-02T08:02:26.320Z</time>
      </trkpt>
      <trkpt lat="47.04421" lon="9.05334">
        <ele>548</ele>
        <time>2021-08-02T08:02:27.320Z</time>
      </trkpt>
      <trkpt lat="47.04422" lon="9.05333">
        <ele>547</ele>
        <time>2021-08-02T08:02:28.319Z</time>
      </trkpt>
      <trkpt lat="47.04422" lon="9.05332">
        <ele>547</ele>
        <time>2021-08-02T08:02:29.320Z</time>
      </trkpt>
      <trkpt lat="47.04423" lon="9.05332">
        <ele>546</ele>
        <time>2021-08-02T08:02:30.319Z</time>
      </trkpt>
      <trkpt lat="47.04424" lon="9.05331">
        <ele>546</ele>
        <time>2021-08-02T08:02:31.320Z</time>
      </trkpt>
      <trkpt lat="47.04425" lon="9.05331">
        <ele>545</ele>
        <time>2021-08-02T08:02:32.320Z</time>
      </trkpt>
      <trkpt lat="47.04426" lon="9.05331">
        <ele>545</ele>
        <time>2021-08-02T08:02:33.320Z</time>
      </trkpt>
      <trkpt lat="47.04427" lon="9.0533">
        <ele>545</ele>
        <time>2021-08-02T08:02:34.320Z</time>
      </trkpt>
      <trkpt lat="47.04428" lon="9.05331">
        <ele>545</ele>
        <time>2021-08-02T08:02:35.319Z</time>
      </trkpt>
      <trkpt lat="47.0443" lon="9.05331">
        <ele>545</ele>
        <time>2021-08-02T08:02:36.320Z</time>
      </trkpt>
      <trkpt lat="47.04431" lon="9.05331">
        <ele>544</ele>
        <time>2021-08-02T08:02:37.319Z</time>
      </trkpt>
      <trkpt lat="47.04433" lon="9.0533">
        <ele>544</ele>
        <time>2021-08-02T08:02:38.320Z</time>
      </trkpt>
      <trkpt lat="47.04433" lon="9.0533">
        <ele>543</ele>
        <time>2021-08-02T08:02:39.320Z</time>
      </trkpt>
      <trkpt lat="47.04434" lon="9.05329">
        <ele>542</ele>
        <time>2021-08-02T08:02:40.320Z</time>
      </trkpt>
      <trkpt lat="47.04434" lon="9.05328">
        <ele>542</ele>
        <time>2021-08-02T08:02:41.320Z</time>
      </trkpt>
      <trkpt lat="47.04435" lon="9.05328">
        <ele>541</ele>
        <time>2021-08-02T08:02:42.320Z</time>
      </trkpt>
      <trkpt lat="47.04438" lon="9.05331">
        <ele>540</ele>
        <time>2021-08-02T08:02:43.320Z</time>
      </trkpt>
      <trkpt lat="47.04439" lon="9.05328">
        <ele>539</ele>
        <time>2021-08-02T08:02:44.322Z</time>
      </trkpt>
      <trkpt lat="47.04439" lon="9.05328">
        <ele>539</ele>
        <time>2021-08-02T08:02:45.322Z</time>
      </trkpt>
      <trkpt lat="47.0444" lon="9.05326">
        <ele>540</ele>
        <time>2021-08-02T08:02:46.322Z</time>
      </trkpt>
      <trkpt lat="47.0444" lon="9.05326">
        <ele>541</ele>
        <time>2021-08-02T08:02:47.322Z</time>
      </trkpt>
      <trkpt lat="47.04442" lon="9.05325">
        <ele>542</ele>
        <time>2021-08-02T08:02:48.322Z</time>
      </trkpt>
      <trkpt lat="47.04443" lon="9.05323">
        <ele>543</ele>
        <time>2021-08-02T08:02:49.321Z</time>
      </trkpt>
      <trkpt lat="47.04443" lon="9.05322">
        <ele>544</ele>
        <time>2021-08-02T08:02:50.322Z</time>
      </trkpt>
      <trkpt lat="47.04444" lon="9.05321">
        <ele>545</ele>
        <time>2021-08-02T08:02:51.322Z</time>
      </trkpt>
      <trkpt lat="47.04445" lon="9.0532">
        <ele>546</ele>
        <time>2021-08-02T08:02:52.321Z</time>
      </trkpt>
      <trkpt lat="47.04445" lon="9.05319">
        <ele>547</ele>
        <time>2021-08-02T08:02:53.321Z</time>
      </trkpt>
      <trkpt lat="47.04446" lon="9.05318">
        <ele>547</ele>
        <time>2021-08-02T08:02:54.321Z</time>
      </trkpt>
      <trkpt lat="47.04447" lon="9.05318">
        <ele>548</ele>
        <time>2021-08-02T08:02:55.322Z</time>
      </trkpt>
      <trkpt lat="47.04447" lon="9.05317">
        <ele>548</ele>
        <time>2021-08-02T08:02:56.322Z</time>
      </trkpt>
      <trkpt lat="47.04448" lon="9.05316">
        <ele>548</ele>
        <time>2021-08-02T08:02:57.322Z</time>
      </trkpt>
      <trkpt lat="47.04448" lon="9.05315">
        <ele>548</ele>
        <time>2021-08-02T08:02:58.321Z</time>
      </trkpt>
      <trkpt lat="47.04449" lon="9.05315">
        <ele>548</ele>
        <time>2021-08-02T08:02:59.322Z</time>
      </trkpt>
      <trkpt lat="47.0445" lon="9.05314">
        <ele>548</ele>
        <time>2021-08-02T08:03:00.322Z</time>
      </trkpt>
      <trkpt lat="47.04451" lon="9.05314">
        <ele>548</ele>
        <time>2021-08-02T08:03:01.322Z</time>
      </trkpt>
      <trkpt lat="47.04452" lon="9.05313">
        <ele>548</ele>
        <time>2021-08-02T08:03:02.322Z</time>
      </trkpt>
      <trkpt lat="47.04453" lon="9.05313">
        <ele>548</ele>
        <time>2021-08-02T08:03:03.321Z</time>
      </trkpt>
      <trkpt lat="47.04454" lon="9.05314">
        <ele>547</ele>
        <time>2021-08-02T08:03:04.321Z</time>
      </trkpt>
      <trkpt lat="47.04454" lon="9.05314">
        <ele>547</ele>
        <time>2021-08-02T08:03:05.322Z</time>
      </trkpt>
      <trkpt lat="47.04456" lon="9.05315">
        <ele>546</ele>
        <time>2021-08-02T08:03:06.322Z</time>
      </trkpt>
      <trkpt lat="47.04457" lon="9.05316">
        <ele>546</ele>
        <time>2021-08-02T08:03:07.322Z</time>
      </trkpt>
      <trkpt lat="47.04458" lon="9.05316">
        <ele>546</ele>
        <time>2021-08-02T08:03:08.322Z</time>
      </trkpt>
      <trkpt lat="47.04459" lon="9.05316">
        <ele>546</ele>
        <time>2021-08-02T08:03:09.321Z</time>
      </trkpt>
      <trkpt lat="47.0446" lon="9.05316">
        <ele>546</ele>
        <time>2021-08-02T08:03:10.322Z</time>
      </trkpt>
      <trkpt lat="47.04461" lon="9.05316">
        <ele>545</ele>
        <time>2021-08-02T08:03:11.322Z</time>
      </trkpt>
      <trkpt lat="47.04462" lon="9.05316">
        <ele>545</ele>
        <time>2021-08-02T08:03:12.322Z</time>
      </trkpt>
      <trkpt lat="47.04463" lon="9.05315">
        <ele>544</ele>
        <time>2021-08-02T08:03:13.321Z</time>
      </trkpt>
      <trkpt lat="47.04465" lon="9.05315">
        <ele>544</ele>
        <time>2021-08-02T08:03:14.322Z</time>
      </trkpt>
      <trkpt lat="47.04465" lon="9.05314">
        <ele>544</ele>
        <time>2021-08-02T08:03:15.322Z</time>
      </trkpt>
      <trkpt lat="47.04466" lon="9.05313">
        <ele>545</ele>
        <time>2021-08-02T08:03:16.321Z</time>
      </trkpt>
      <trkpt lat="47.04468" lon="9.05313">
        <ele>544</ele>
        <time>2021-08-02T08:03:17.322Z</time>
      </trkpt>
      <trkpt lat="47.04469" lon="9.05313">
        <ele>544</ele>
        <time>2021-08-02T08:03:18.322Z</time>
      </trkpt>
      <trkpt lat="47.04471" lon="9.05312">
        <ele>544</ele>
        <time>2021-08-02T08:03:19.322Z</time>
      </trkpt>
      <trkpt lat="47.04472" lon="9.05312">
        <ele>544</ele>
        <time>2021-08-02T08:03:20.322Z</time>
      </trkpt>
      <trkpt lat="47.04472" lon="9.05311">
        <ele>543</ele>
        <time>2021-08-02T08:03:21.322Z</time>
      </trkpt>
      <trkpt lat="47.04474" lon="9.05311">
        <ele>543</ele>
        <time>2021-08-02T08:03:22.321Z</time>
      </trkpt>
      <trkpt lat="47.04475" lon="9.0531">
        <ele>543</ele>
        <time>2021-08-02T08:03:23.321Z</time>
      </trkpt>
      <trkpt lat="47.04476" lon="9.05309">
        <ele>543</ele>
        <time>2021-08-02T08:03:24.321Z</time>
      </trkpt>
      <trkpt lat="47.04476" lon="9.05308">
        <ele>543</ele>
        <time>2021-08-02T08:03:25.322Z</time>
      </trkpt>
      <trkpt lat="47.04477" lon="9.05307">
        <ele>543</ele>
        <time>2021-08-02T08:03:26.322Z</time>
      </trkpt>
      <trkpt lat="47.04478" lon="9.05306">
        <ele>543</ele>
        <time>2021-08-02T08:03:27.322Z</time>
      </trkpt>
      <trkpt lat="47.04478" lon="9.05304">
        <ele>543</ele>
        <time>2021-08-02T08:03:28.322Z</time>
      </trkpt>
      <trkpt lat="47.04479" lon="9.05302">
        <ele>544</ele>
        <time>2021-08-02T08:03:29.322Z</time>
      </trkpt>
      <trkpt lat="47.0448" lon="9.05301">
        <ele>545</ele>
        <time>2021-08-02T08:03:30.322Z</time>
      </trkpt>
      <trkpt lat="47.0448" lon="9.053">
        <ele>545</ele>
        <time>2021-08-02T08:03:31.322Z</time>
      </trkpt>
      <trkpt lat="47.04481" lon="9.05297">
        <ele>545</ele>
        <time>2021-08-02T08:03:32.321Z</time>
      </trkpt>
      <trkpt lat="47.04482" lon="9.05296">
        <ele>546</ele>
        <time>2021-08-02T08:03:33.322Z</time>
      </trkpt>
      <trkpt lat="47.04483" lon="9.05295">
        <ele>546</ele>
        <time>2021-08-02T08:03:34.321Z</time>
      </trkpt>
      <trkpt lat="47.04483" lon="9.05294">
        <ele>547</ele>
        <time>2021-08-02T08:03:35.322Z</time>
      </trkpt>
      <trkpt lat="47.04484" lon="9.05293">
        <ele>547</ele>
        <time>2021-08-02T08:03:36.322Z</time>
      </trkpt>
      <trkpt lat="47.04485" lon="9.05292">
        <ele>548</ele>
        <time>2021-08-02T08:03:37.321Z</time>
      </trkpt>
      <trkpt lat="47.04486" lon="9.05291">
        <ele>548</ele>
        <time>2021-08-02T08:03:38.322Z</time>
      </trkpt>
      <trkpt lat="47.04486" lon="9.0529">
        <ele>549</ele>
        <time>2021-08-02T08:03:39.322Z</time>
      </trkpt>
      <trkpt lat="47.04487" lon="9.05289">
        <ele>549</ele>
        <time>2021-08-02T08:03:40.322Z</time>
      </trkpt>
      <trkpt lat="47.04487" lon="9.05288">
        <ele>549</ele>
        <time>2021-08-02T08:03:41.322Z</time>
      </trkpt>
      <trkpt lat="47.04488" lon="9.05287">
        <ele>549</ele>
        <time>2021-08-02T08:03:42.321Z</time>
      </trkpt>
      <trkpt lat="47.04488" lon="9.05286">
        <ele>549</ele>
        <time>2021-08-02T08:03:43.321Z</time>
      </trkpt>
      <trkpt lat="47.04488" lon="9.05285">
        <ele>549</ele>
        <time>2021-08-02T08:03:44.322Z</time>
      </trkpt>
      <trkpt lat="47.04489" lon="9.05285">
        <ele>550</ele>
        <time>2021-08-02T08:03:45.322Z</time>
      </trkpt>
      <trkpt lat="47.04489" lon="9.05284">
        <ele>550</ele>
        <time>2021-08-02T08:03:46.321Z</time>
      </trkpt>
      <trkpt lat="47.0449" lon="9.05283">
        <ele>550</ele>
        <time>2021-08-02T08:03:47.321Z</time>
      </trkpt>
      <trkpt lat="47.0449" lon="9.05282">
        <ele>550</ele>
        <time>2021-08-02T08:03:48.321Z</time>
      </trkpt>
      <trkpt lat="47.04491" lon="9.05281">
        <ele>550</ele>
        <time>2021-08-02T08:03:49.322Z</time>
      </trkpt>
      <trkpt lat="47.04492" lon="9.0528">
        <ele>551</ele>
        <time>2021-08-02T08:03:50.321Z</time>
      </trkpt>
      <trkpt lat="47.04492" lon="9.0528">
        <ele>551</ele>
        <time>2021-08-02T08:03:51.322Z</time>
      </trkpt>
      <trkpt lat="47.04493" lon="9.05279">
        <ele>550</ele>
        <time>2021-08-02T08:03:52.321Z</time>
      </trkpt>
      <trkpt lat="47.04493" lon="9.05278">
        <ele>550</ele>
        <time>2021-08-02T08:03:53.321Z</time>
      </trkpt>
      <trkpt lat="47.04494" lon="9.05277">
        <ele>550</ele>
        <time>2021-08-02T08:03:54.321Z</time>
      </trkpt>
      <trkpt lat="47.04495" lon="9.05277">
        <ele>550</ele>
        <time>2021-08-02T08:03:55.321Z</time>
      </trkpt>
      <trkpt lat="47.04495" lon="9.05276">
        <ele>550</ele>
        <time>2021-08-02T08:03:56.321Z</time>
      </trkpt>
      <trkpt lat="47.04496" lon="9.05275">
        <ele>550</ele>
        <time>2021-08-02T08:03:57.321Z</time>
      </trkpt>
      <trkpt lat="47.04497" lon="9.05274">
        <ele>550</ele>
        <time>2021-08-02T08:03:58.321Z</time>
      </trkpt>
      <trkpt lat="47.04497" lon="9.05273">
        <ele>551</ele>
        <time>2021-08-02T08:03:59.321Z</time>
      </trkpt>
      <trkpt lat="47.04498" lon="9.05272">
        <ele>551</ele>
        <time>2021-08-02T08:04:00.321Z</time>
      </trkpt>
      <trkpt lat="47.04498" lon="9.05271">
        <ele>551</ele>
        <time>2021-08-02T08:04:01.322Z</time>
      </trkpt>
      <trkpt lat="47.04499" lon="9.0527">
        <ele>551</ele>
        <time>2021-08-02T08:04:02.321Z</time>
      </trkpt>
      <trkpt lat="47.04499" lon="9.0527">
        <ele>551</ele>
        <time>2021-08-02T08:04:03.321Z</time>
      </trkpt>
      <trkpt lat="47.045" lon="9.05269">
        <ele>552</ele>
        <time>2021-08-02T08:04:04.321Z</time>
      </trkpt>
      <trkpt lat="47.04501" lon="9.05266">
        <ele>552</ele>
        <time>2021-08-02T08:04:05.321Z</time>
      </trkpt>
      <trkpt lat="47.04503" lon="9.05265">
        <ele>552</ele>
        <time>2021-08-02T08:04:06.321Z</time>
      </trkpt>
      <trkpt lat="47.04504" lon="9.05265">
        <ele>552</ele>
        <time>2021-08-02T08:04:07.321Z</time>
      </trkpt>
      <trkpt lat="47.04505" lon="9.05264">
        <ele>552</ele>
        <time>2021-08-02T08:04:08.321Z</time>
      </trkpt>
      <trkpt lat="47.04505" lon="9.05264">
        <ele>552</ele>
        <time>2021-08-02T08:04:09.321Z</time>
      </trkpt>
      <trkpt lat="47.04505" lon="9.05263">
        <ele>552</ele>
        <time>2021-08-02T08:04:10.321Z</time>
      </trkpt>
      <trkpt lat="47.04506" lon="9.05263">
        <ele>552</ele>
        <time>2021-08-02T08:04:11.321Z</time>
      </trkpt>
      <trkpt lat="47.04506" lon="9.05263">
        <ele>552</ele>
        <time>2021-08-02T08:04:12.321Z</time>
      </trkpt>
      <trkpt lat="47.04507" lon="9.05263">
        <ele>551</ele>
        <time>2021-08-02T08:04:13.321Z</time>
      </trkpt>
      <trkpt lat="47.04507" lon="9.05263">
        <ele>551</ele>
        <time>2021-08-02T08:04:14.321Z</time>
      </trkpt>
      <trkpt lat="47.04508" lon="9.05263">
        <ele>551</ele>
        <time>2021-08-02T08:04:15.321Z</time>
      </trkpt>
      <trkpt lat="47.04508" lon="9.05263">
        <ele>551</ele>
        <time>2021-08-02T08:04:16.322Z</time>
      </trkpt>
      <trkpt lat="47.04508" lon="9.05263">
        <ele>551</ele>
        <time>2021-08-02T08:04:17.322Z</time>
      </trkpt>
      <trkpt lat="47.04508" lon="9.05263">
        <ele>551</ele>
        <time>2021-08-02T08:04:18.322Z</time>
      </trkpt>
      <trkpt lat="47.04506" lon="9.05263">
        <ele>553</ele>
        <time>2021-08-02T08:04:19.321Z</time>
      </trkpt>
      <trkpt lat="47.04506" lon="9.05263">
        <ele>555</ele>
        <time>2021-08-02T08:04:20.322Z</time>
      </trkpt>
      <trkpt lat="47.04506" lon="9.05263">
        <ele>556</ele>
        <time>2021-08-02T08:04:21.322Z</time>
      </trkpt>
      <trkpt lat="47.04505" lon="9.05262">
        <ele>559</ele>
        <time>2021-08-02T08:04:22.321Z</time>
      </trkpt>
      <trkpt lat="47.04505" lon="9.05262">
        <ele>559</ele>
        <time>2021-08-02T08:04:23.322Z</time>
      </trkpt>
      <trkpt lat="47.04505" lon="9.05261">
        <ele>559</ele>
        <time>2021-08-02T08:04:24.321Z</time>
      </trkpt>
      <trkpt lat="47.04505" lon="9.05262">
        <ele>559</ele>
        <time>2021-08-02T08:04:25.323Z</time>
      </trkpt>
      <trkpt lat="47.04505" lon="9.05262">
        <ele>559</ele>
        <time>2021-08-02T08:04:26.322Z</time>
      </trkpt>
      <trkpt lat="47.04505" lon="9.05262">
        <ele>559</ele>
        <time>2021-08-02T08:04:27.323Z</time>
      </trkpt>
      <trkpt lat="47.04505" lon="9.05262">
        <ele>559</ele>
        <time>2021-08-02T08:04:28.323Z</time>
      </trkpt>
      <trkpt lat="47.04505" lon="9.05262">
        <ele>559</ele>
        <time>2021-08-02T08:04:29.323Z</time>
      </trkpt>
      <trkpt lat="47.04505" lon="9.05262">
        <ele>559</ele>
        <time>2021-08-02T08:04:30.323Z</time>
      </trkpt>
      <trkpt lat="47.04504" lon="9.05262">
        <ele>559</ele>
        <time>2021-08-02T08:04:31.323Z</time>
      </trkpt>
      <trkpt lat="47.04504" lon="9.05262">
        <ele>558</ele>
        <time>2021-08-02T08:04:32.323Z</time>
      </trkpt>
      <trkpt lat="47.04504" lon="9.05262">
        <ele>558</ele>
        <time>2021-08-02T08:04:33.322Z</time>
      </trkpt>
      <trkpt lat="47.04505" lon="9.05263">
        <ele>554</ele>
        <time>2021-08-02T08:04:34.324Z</time>
      </trkpt>
      <trkpt lat="47.04506" lon="9.05263">
        <ele>553</ele>
        <time>2021-08-02T08:04:35.324Z</time>
      </trkpt>
      <trkpt lat="47.04506" lon="9.05263">
        <ele>553</ele>
        <time>2021-08-02T08:04:36.323Z</time>
      </trkpt>
      <trkpt lat="47.04506" lon="9.05263">
        <ele>553</ele>
        <time>2021-08-02T08:04:37.323Z</time>
      </trkpt>
      <trkpt lat="47.04509" lon="9.05263">
        <ele>552</ele>
        <time>2021-08-02T08:04:38.324Z</time>
      </trkpt>
      <trkpt lat="47.0451" lon="9.05262">
        <ele>552</ele>
        <time>2021-08-02T08:04:39.325Z</time>
      </trkpt>
      <trkpt lat="47.04511" lon="9.05262">
        <ele>552</ele>
        <time>2021-08-02T08:04:40.324Z</time>
      </trkpt>
      <trkpt lat="47.04511" lon="9.05262">
        <ele>551</ele>
        <time>2021-08-02T08:04:41.324Z</time>
      </trkpt>
      <trkpt lat="47.04512" lon="9.05261">
        <ele>551</ele>
        <time>2021-08-02T08:04:42.324Z</time>
      </trkpt>
      <trkpt lat="47.04513" lon="9.0526">
        <ele>550</ele>
        <time>2021-08-02T08:04:43.324Z</time>
      </trkpt>
      <trkpt lat="47.04513" lon="9.05259">
        <ele>550</ele>
        <time>2021-08-02T08:04:44.324Z</time>
      </trkpt>
      <trkpt lat="47.04513" lon="9.05259">
        <ele>550</ele>
        <time>2021-08-02T08:04:45.325Z</time>
      </trkpt>
      <trkpt lat="47.04513" lon="9.05258">
        <ele>549</ele>
        <time>2021-08-02T08:04:46.324Z</time>
      </trkpt>
      <trkpt lat="47.04514" lon="9.05258">
        <ele>549</ele>
        <time>2021-08-02T08:04:47.324Z</time>
      </trkpt>
      <trkpt lat="47.04514" lon="9.05255">
        <ele>548</ele>
        <time>2021-08-02T08:04:48.325Z</time>
      </trkpt>
      <trkpt lat="47.04514" lon="9.05255">
        <ele>548</ele>
        <time>2021-08-02T08:04:49.324Z</time>
      </trkpt>
      <trkpt lat="47.04514" lon="9.05251">
        <ele>547</ele>
        <time>2021-08-02T08:04:50.326Z</time>
      </trkpt>
      <trkpt lat="47.04514" lon="9.0525">
        <ele>547</ele>
        <time>2021-08-02T08:04:51.326Z</time>
      </trkpt>
      <trkpt lat="47.04514" lon="9.0525">
        <ele>547</ele>
        <time>2021-08-02T08:04:52.325Z</time>
      </trkpt>
      <trkpt lat="47.04515" lon="9.05249">
        <ele>546</ele>
        <time>2021-08-02T08:04:53.326Z</time>
      </trkpt>
      <trkpt lat="47.04516" lon="9.05249">
        <ele>546</ele>
        <time>2021-08-02T08:04:54.326Z</time>
      </trkpt>
      <trkpt lat="47.04517" lon="9.05248">
        <ele>545</ele>
        <time>2021-08-02T08:04:55.326Z</time>
      </trkpt>
      <trkpt lat="47.04518" lon="9.05247">
        <ele>545</ele>
        <time>2021-08-02T08:04:56.325Z</time>
      </trkpt>
      <trkpt lat="47.04519" lon="9.05246">
        <ele>545</ele>
        <time>2021-08-02T08:04:57.325Z</time>
      </trkpt>
      <trkpt lat="47.04519" lon="9.05245">
        <ele>545</ele>
        <time>2021-08-02T08:04:58.325Z</time>
      </trkpt>
      <trkpt lat="47.0452" lon="9.05244">
        <ele>544</ele>
        <time>2021-08-02T08:04:59.326Z</time>
      </trkpt>
      <trkpt lat="47.04522" lon="9.05242">
        <ele>544</ele>
        <time>2021-08-02T08:05:00.326Z</time>
      </trkpt>
      <trkpt lat="47.04524" lon="9.05241">
        <ele>544</ele>
        <time>2021-08-02T08:05:01.326Z</time>
      </trkpt>
      <trkpt lat="47.04525" lon="9.05241">
        <ele>544</ele>
        <time>2021-08-02T08:05:02.326Z</time>
      </trkpt>
      <trkpt lat="47.04526" lon="9.05241">
        <ele>544</ele>
        <time>2021-08-02T08:05:03.326Z</time>
      </trkpt>
      <trkpt lat="47.04527" lon="9.0524">
        <ele>544</ele>
        <time>2021-08-02T08:05:04.325Z</time>
      </trkpt>
      <trkpt lat="47.04528" lon="9.0524">
        <ele>543</ele>
        <time>2021-08-02T08:05:05.326Z</time>
      </trkpt>
      <trkpt lat="47.04529" lon="9.0524">
        <ele>543</ele>
        <time>2021-08-02T08:05:06.325Z</time>
      </trkpt>
      <trkpt lat="47.0453" lon="9.05239">
        <ele>542</ele>
        <time>2021-08-02T08:05:07.326Z</time>
      </trkpt>
      <trkpt lat="47.04532" lon="9.05239">
        <ele>541</ele>
        <time>2021-08-02T08:05:08.326Z</time>
      </trkpt>
      <trkpt lat="47.04534" lon="9.05238">
        <ele>541</ele>
        <time>2021-08-02T08:05:09.326Z</time>
      </trkpt>
      <trkpt lat="47.04535" lon="9.05237">
        <ele>540</ele>
        <time>2021-08-02T08:05:10.325Z</time>
      </trkpt>
      <trkpt lat="47.04536" lon="9.05237">
        <ele>540</ele>
        <time>2021-08-02T08:05:11.326Z</time>
      </trkpt>
      <trkpt lat="47.04538" lon="9.05238">
        <ele>539</ele>
        <time>2021-08-02T08:05:12.326Z</time>
      </trkpt>
      <trkpt lat="47.04539" lon="9.05238">
        <ele>539</ele>
        <time>2021-08-02T08:05:13.326Z</time>
      </trkpt>
      <trkpt lat="47.0454" lon="9.05239">
        <ele>539</ele>
        <time>2021-08-02T08:05:14.325Z</time>
      </trkpt>
      <trkpt lat="47.04542" lon="9.0524">
        <ele>538</ele>
        <time>2021-08-02T08:05:15.325Z</time>
      </trkpt>
      <trkpt lat="47.04543" lon="9.05239">
        <ele>538</ele>
        <time>2021-08-02T08:05:16.325Z</time>
      </trkpt>
      <trkpt lat="47.04544" lon="9.05239">
        <ele>537</ele>
        <time>2021-08-02T08:05:17.326Z</time>
      </trkpt>
      <trkpt lat="47.04545" lon="9.05239">
        <ele>536</ele>
        <time>2021-08-02T08:05:18.326Z</time>
      </trkpt>
      <trkpt lat="47.04546" lon="9.05239">
        <ele>535</ele>
        <time>2021-08-02T08:05:19.325Z</time>
      </trkpt>
      <trkpt lat="47.04547" lon="9.05239">
        <ele>535</ele>
        <time>2021-08-02T08:05:20.326Z</time>
      </trkpt>
      <trkpt lat="47.04548" lon="9.05239">
        <ele>534</ele>
        <time>2021-08-02T08:05:21.326Z</time>
      </trkpt>
      <trkpt lat="47.04549" lon="9.0524">
        <ele>533</ele>
        <time>2021-08-02T08:05:22.326Z</time>
      </trkpt>
      <trkpt lat="47.0455" lon="9.05239">
        <ele>533</ele>
        <time>2021-08-02T08:05:23.326Z</time>
      </trkpt>
      <trkpt lat="47.04552" lon="9.05239">
        <ele>532</ele>
        <time>2021-08-02T08:05:24.326Z</time>
      </trkpt>
      <trkpt lat="47.04553" lon="9.05239">
        <ele>532</ele>
        <time>2021-08-02T08:05:25.325Z</time>
      </trkpt>
      <trkpt lat="47.04554" lon="9.0524">
        <ele>531</ele>
        <time>2021-08-02T08:05:26.326Z</time>
      </trkpt>
      <trkpt lat="47.04556" lon="9.0524">
        <ele>530</ele>
        <time>2021-08-02T08:05:27.325Z</time>
      </trkpt>
      <trkpt lat="47.04557" lon="9.05241">
        <ele>530</ele>
        <time>2021-08-02T08:05:28.326Z</time>
      </trkpt>
      <trkpt lat="47.04558" lon="9.0524">
        <ele>529</ele>
        <time>2021-08-02T08:05:29.326Z</time>
      </trkpt>
      <trkpt lat="47.04559" lon="9.0524">
        <ele>528</ele>
        <time>2021-08-02T08:05:30.326Z</time>
      </trkpt>
      <trkpt lat="47.04559" lon="9.0524">
        <ele>527</ele>
        <time>2021-08-02T08:05:31.325Z</time>
      </trkpt>
      <trkpt lat="47.0456" lon="9.05239">
        <ele>527</ele>
        <time>2021-08-02T08:05:32.326Z</time>
      </trkpt>
      <trkpt lat="47.04561" lon="9.05239">
        <ele>526</ele>
        <time>2021-08-02T08:05:33.326Z</time>
      </trkpt>
      <trkpt lat="47.04562" lon="9.05239">
        <ele>526</ele>
        <time>2021-08-02T08:05:34.326Z</time>
      </trkpt>
      <trkpt lat="47.04562" lon="9.05239">
        <ele>526</ele>
        <time>2021-08-02T08:05:35.325Z</time>
      </trkpt>
      <trkpt lat="47.04563" lon="9.0524">
        <ele>526</ele>
        <time>2021-08-02T08:05:36.326Z</time>
      </trkpt>
      <trkpt lat="47.04564" lon="9.0524">
        <ele>526</ele>
        <time>2021-08-02T08:05:37.326Z</time>
      </trkpt>
      <trkpt lat="47.04565" lon="9.0524">
        <ele>527</ele>
        <time>2021-08-02T08:05:38.326Z</time>
      </trkpt>
      <trkpt lat="47.04566" lon="9.0524">
        <ele>527</ele>
        <time>2021-08-02T08:05:39.326Z</time>
      </trkpt>
      <trkpt lat="47.04567" lon="9.0524">
        <ele>527</ele>
        <time>2021-08-02T08:05:40.326Z</time>
      </trkpt>
      <trkpt lat="47.04568" lon="9.0524">
        <ele>527</ele>
        <time>2021-08-02T08:05:41.326Z</time>
      </trkpt>
      <trkpt lat="47.04568" lon="9.05239">
        <ele>527</ele>
        <time>2021-08-02T08:05:42.326Z</time>
      </trkpt>
      <trkpt lat="47.04569" lon="9.05239">
        <ele>527</ele>
        <time>2021-08-02T08:05:43.326Z</time>
      </trkpt>
      <trkpt lat="47.0457" lon="9.05239">
        <ele>527</ele>
        <time>2021-08-02T08:05:44.325Z</time>
      </trkpt>
      <trkpt lat="47.04571" lon="9.05239">
        <ele>527</ele>
        <time>2021-08-02T08:05:45.326Z</time>
      </trkpt>
      <trkpt lat="47.04572" lon="9.05239">
        <ele>527</ele>
        <time>2021-08-02T08:05:46.326Z</time>
      </trkpt>
      <trkpt lat="47.04572" lon="9.05239">
        <ele>527</ele>
        <time>2021-08-02T08:05:47.325Z</time>
      </trkpt>
      <trkpt lat="47.04573" lon="9.05239">
        <ele>527</ele>
        <time>2021-08-02T08:05:48.325Z</time>
      </trkpt>
      <trkpt lat="47.04574" lon="9.05239">
        <ele>527</ele>
        <time>2021-08-02T08:05:49.325Z</time>
      </trkpt>
      <trkpt lat="47.04575" lon="9.05239">
        <ele>528</ele>
        <time>2021-08-02T08:05:50.326Z</time>
      </trkpt>
      <trkpt lat="47.04576" lon="9.05239">
        <ele>528</ele>
        <time>2021-08-02T08:05:51.326Z</time>
      </trkpt>
      <trkpt lat="47.04577" lon="9.05239">
        <ele>529</ele>
        <time>2021-08-02T08:05:52.325Z</time>
      </trkpt>
      <trkpt lat="47.04579" lon="9.05239">
        <ele>529</ele>
        <time>2021-08-02T08:05:53.325Z</time>
      </trkpt>
      <trkpt lat="47.0458" lon="9.05239">
        <ele>530</ele>
        <time>2021-08-02T08:05:54.326Z</time>
      </trkpt>
      <trkpt lat="47.04581" lon="9.05239">
        <ele>530</ele>
        <time>2021-08-02T08:05:55.326Z</time>
      </trkpt>
      <trkpt lat="47.04582" lon="9.05239">
        <ele>529</ele>
        <time>2021-08-02T08:05:56.326Z</time>
      </trkpt>
      <trkpt lat="47.04584" lon="9.05239">
        <ele>529</ele>
        <time>2021-08-02T08:05:57.326Z</time>
      </trkpt>
      <trkpt lat="47.04585" lon="9.05239">
        <ele>529</ele>
        <time>2021-08-02T08:05:58.326Z</time>
      </trkpt>
      <trkpt lat="47.04586" lon="9.05239">
        <ele>529</ele>
        <time>2021-08-02T08:05:59.326Z</time>
      </trkpt>
      <trkpt lat="47.04587" lon="9.05239">
        <ele>528</ele>
        <time>2021-08-02T08:06:00.326Z</time>
      </trkpt>
      <trkpt lat="47.04588" lon="9.05239">
        <ele>528</ele>
        <time>2021-08-02T08:06:01.326Z</time>
      </trkpt>
      <trkpt lat="47.04589" lon="9.05239">
        <ele>528</ele>
        <time>2021-08-02T08:06:02.326Z</time>
      </trkpt>
      <trkpt lat="47.0459" lon="9.05239">
        <ele>528</ele>
        <time>2021-08-02T08:06:03.326Z</time>
      </trkpt>
      <trkpt lat="47.04591" lon="9.05239">
        <ele>528</ele>
        <time>2021-08-02T08:06:04.325Z</time>
      </trkpt>
      <trkpt lat="47.04593" lon="9.05238">
        <ele>527</ele>
        <time>2021-08-02T08:06:05.326Z</time>
      </trkpt>
      <trkpt lat="47.04594" lon="9.05238">
        <ele>526</ele>
        <time>2021-08-02T08:06:06.325Z</time>
      </trkpt>
      <trkpt lat="47.04595" lon="9.05238">
        <ele>526</ele>
        <time>2021-08-02T08:06:07.326Z</time>
      </trkpt>
      <trkpt lat="47.04596" lon="9.05238">
        <ele>526</ele>
        <time>2021-08-02T08:06:08.326Z</time>
      </trkpt>
      <trkpt lat="47.04597" lon="9.05238">
        <ele>526</ele>
        <time>2021-08-02T08:06:09.326Z</time>
      </trkpt>
      <trkpt lat="47.04599" lon="9.05238">
        <ele>525</ele>
        <time>2021-08-02T08:06:10.326Z</time>
      </trkpt>
      <trkpt lat="47.046" lon="9.05238">
        <ele>526</ele>
        <time>2021-08-02T08:06:11.326Z</time>
      </trkpt>
      <trkpt lat="47.04601" lon="9.05238">
        <ele>527</ele>
        <time>2021-08-02T08:06:12.326Z</time>
      </trkpt>
      <trkpt lat="47.04602" lon="9.05238">
        <ele>527</ele>
        <time>2021-08-02T08:06:13.326Z</time>
      </trkpt>
      <trkpt lat="47.04603" lon="9.05239">
        <ele>528</ele>
        <time>2021-08-02T08:06:14.326Z</time>
      </trkpt>
      <trkpt lat="47.04604" lon="9.05239">
        <ele>529</ele>
        <time>2021-08-02T08:06:15.326Z</time>
      </trkpt>
      <trkpt lat="47.04605" lon="9.05239">
        <ele>529</ele>
        <time>2021-08-02T08:06:16.326Z</time>
      </trkpt>
      <trkpt lat="47.04606" lon="9.05239">
        <ele>530</ele>
        <time>2021-08-02T08:06:17.325Z</time>
      </trkpt>
      <trkpt lat="47.04607" lon="9.05239">
        <ele>531</ele>
        <time>2021-08-02T08:06:18.326Z</time>
      </trkpt>
      <trkpt lat="47.04608" lon="9.05238">
        <ele>531</ele>
        <time>2021-08-02T08:06:19.326Z</time>
      </trkpt>
      <trkpt lat="47.04609" lon="9.05238">
        <ele>531</ele>
        <time>2021-08-02T08:06:20.326Z</time>
      </trkpt>
      <trkpt lat="47.0461" lon="9.05238">
        <ele>531</ele>
        <time>2021-08-02T08:06:21.325Z</time>
      </trkpt>
      <trkpt lat="47.04611" lon="9.05239">
        <ele>532</ele>
        <time>2021-08-02T08:06:22.325Z</time>
      </trkpt>
      <trkpt lat="47.04613" lon="9.05239">
        <ele>532</ele>
        <time>2021-08-02T08:06:23.325Z</time>
      </trkpt>
      <trkpt lat="47.04614" lon="9.05239">
        <ele>532</ele>
        <time>2021-08-02T08:06:24.326Z</time>
      </trkpt>
      <trkpt lat="47.04615" lon="9.05239">
        <ele>532</ele>
        <time>2021-08-02T08:06:25.326Z</time>
      </trkpt>
      <trkpt lat="47.04616" lon="9.05239">
        <ele>532</ele>
        <time>2021-08-02T08:06:26.326Z</time>
      </trkpt>
      <trkpt lat="47.04617" lon="9.05238">
        <ele>531</ele>
        <time>2021-08-02T08:06:27.325Z</time>
      </trkpt>
      <trkpt lat="47.04619" lon="9.05238">
        <ele>531</ele>
        <time>2021-08-02T08:06:28.326Z</time>
      </trkpt>
      <trkpt lat="47.0462" lon="9.05237">
        <ele>531</ele>
        <time>2021-08-02T08:06:29.325Z</time>
      </trkpt>
      <trkpt lat="47.0462" lon="9.05236">
        <ele>531</ele>
        <time>2021-08-02T08:06:30.326Z</time>
      </trkpt>
      <trkpt lat="47.04621" lon="9.05235">
        <ele>530</ele>
        <time>2021-08-02T08:06:31.326Z</time>
      </trkpt>
      <trkpt lat="47.04621" lon="9.05233">
        <ele>530</ele>
        <time>2021-08-02T08:06:32.325Z</time>
      </trkpt>
      <trkpt lat="47.04622" lon="9.05232">
        <ele>530</ele>
        <time>2021-08-02T08:06:33.326Z</time>
      </trkpt>
      <trkpt lat="47.04622" lon="9.0523">
        <ele>529</ele>
        <time>2021-08-02T08:06:34.326Z</time>
      </trkpt>
      <trkpt lat="47.04623" lon="9.05228">
        <ele>529</ele>
        <time>2021-08-02T08:06:35.325Z</time>
      </trkpt>
      <trkpt lat="47.04623" lon="9.05227">
        <ele>530</ele>
        <time>2021-08-02T08:06:36.326Z</time>
      </trkpt>
      <trkpt lat="47.04624" lon="9.05225">
        <ele>530</ele>
        <time>2021-08-02T08:06:37.326Z</time>
      </trkpt>
      <trkpt lat="47.04625" lon="9.05223">
        <ele>530</ele>
        <time>2021-08-02T08:06:38.325Z</time>
      </trkpt>
      <trkpt lat="47.04625" lon="9.05222">
        <ele>531</ele>
        <time>2021-08-02T08:06:39.325Z</time>
      </trkpt>
      <trkpt lat="47.04626" lon="9.05221">
        <ele>531</ele>
        <time>2021-08-02T08:06:40.325Z</time>
      </trkpt>
      <trkpt lat="47.04627" lon="9.05219">
        <ele>531</ele>
        <time>2021-08-02T08:06:41.325Z</time>
      </trkpt>
      <trkpt lat="47.04627" lon="9.05218">
        <ele>531</ele>
        <time>2021-08-02T08:06:42.325Z</time>
      </trkpt>
      <trkpt lat="47.04628" lon="9.05217">
        <ele>532</ele>
        <time>2021-08-02T08:06:43.325Z</time>
      </trkpt>
      <trkpt lat="47.04628" lon="9.05215">
        <ele>532</ele>
        <time>2021-08-02T08:06:44.325Z</time>
      </trkpt>
      <trkpt lat="47.04629" lon="9.05213">
        <ele>532</ele>
        <time>2021-08-02T08:06:45.325Z</time>
      </trkpt>
      <trkpt lat="47.04632" lon="9.05212">
        <ele>532</ele>
        <time>2021-08-02T08:06:46.326Z</time>
      </trkpt>
      <trkpt lat="47.04632" lon="9.05211">
        <ele>532</ele>
        <time>2021-08-02T08:06:47.326Z</time>
      </trkpt>
      <trkpt lat="47.04633" lon="9.05209">
        <ele>532</ele>
        <time>2021-08-02T08:06:48.326Z</time>
      </trkpt>
      <trkpt lat="47.04633" lon="9.05207">
        <ele>532</ele>
        <time>2021-08-02T08:06:49.326Z</time>
      </trkpt>
      <trkpt lat="47.04634" lon="9.05206">
        <ele>532</ele>
        <time>2021-08-02T08:06:50.326Z</time>
      </trkpt>
      <trkpt lat="47.04634" lon="9.05204">
        <ele>532</ele>
        <time>2021-08-02T08:06:51.325Z</time>
      </trkpt>
      <trkpt lat="47.04635" lon="9.05203">
        <ele>533</ele>
        <time>2021-08-02T08:06:52.326Z</time>
      </trkpt>
      <trkpt lat="47.04635" lon="9.05202">
        <ele>533</ele>
        <time>2021-08-02T08:06:53.326Z</time>
      </trkpt>
      <trkpt lat="47.04636" lon="9.052">
        <ele>534</ele>
        <time>2021-08-02T08:06:54.326Z</time>
      </trkpt>
      <trkpt lat="47.04636" lon="9.05199">
        <ele>534</ele>
        <time>2021-08-02T08:06:55.326Z</time>
      </trkpt>
      <trkpt lat="47.04637" lon="9.05198">
        <ele>535</ele>
        <time>2021-08-02T08:06:56.326Z</time>
      </trkpt>
      <trkpt lat="47.04638" lon="9.05196">
        <ele>536</ele>
        <time>2021-08-02T08:06:57.325Z</time>
      </trkpt>
      <trkpt lat="47.04638" lon="9.05194">
        <ele>536</ele>
        <time>2021-08-02T08:06:58.326Z</time>
      </trkpt>
      <trkpt lat="47.04639" lon="9.05192">
        <ele>537</ele>
        <time>2021-08-02T08:06:59.325Z</time>
      </trkpt>
      <trkpt lat="47.04639" lon="9.05191">
        <ele>537</ele>
        <time>2021-08-02T08:07:00.326Z</time>
      </trkpt>
      <trkpt lat="47.04639" lon="9.0519">
        <ele>537</ele>
        <time>2021-08-02T08:07:01.326Z</time>
      </trkpt>
      <trkpt lat="47.0464" lon="9.05189">
        <ele>537</ele>
        <time>2021-08-02T08:07:02.326Z</time>
      </trkpt>
      <trkpt lat="47.0464" lon="9.05188">
        <ele>536</ele>
        <time>2021-08-02T08:07:03.325Z</time>
      </trkpt>
      <trkpt lat="47.04641" lon="9.05186">
        <ele>536</ele>
        <time>2021-08-02T08:07:04.325Z</time>
      </trkpt>
      <trkpt lat="47.04641" lon="9.05185">
        <ele>536</ele>
        <time>2021-08-02T08:07:05.326Z</time>
      </trkpt>
      <trkpt lat="47.04642" lon="9.05184">
        <ele>536</ele>
        <time>2021-08-02T08:07:06.326Z</time>
      </trkpt>
      <trkpt lat="47.04642" lon="9.05183">
        <ele>536</ele>
        <time>2021-08-02T08:07:07.326Z</time>
      </trkpt>
      <trkpt lat="47.04643" lon="9.05181">
        <ele>535</ele>
        <time>2021-08-02T08:07:08.325Z</time>
      </trkpt>
      <trkpt lat="47.04643" lon="9.0518">
        <ele>535</ele>
        <time>2021-08-02T08:07:09.326Z</time>
      </trkpt>
      <trkpt lat="47.04643" lon="9.05179">
        <ele>535</ele>
        <time>2021-08-02T08:07:10.325Z</time>
      </trkpt>
      <trkpt lat="47.04643" lon="9.05177">
        <ele>535</ele>
        <time>2021-08-02T08:07:11.325Z</time>
      </trkpt>
      <trkpt lat="47.04644" lon="9.05176">
        <ele>536</ele>
        <time>2021-08-02T08:07:12.325Z</time>
      </trkpt>
      <trkpt lat="47.04644" lon="9.05175">
        <ele>536</ele>
        <time>2021-08-02T08:07:13.326Z</time>
      </trkpt>
      <trkpt lat="47.04645" lon="9.05174">
        <ele>536</ele>
        <time>2021-08-02T08:07:14.325Z</time>
      </trkpt>
      <trkpt lat="47.04645" lon="9.05173">
        <ele>536</ele>
        <time>2021-08-02T08:07:15.325Z</time>
      </trkpt>
      <trkpt lat="47.04645" lon="9.05171">
        <ele>536</ele>
        <time>2021-08-02T08:07:16.326Z</time>
      </trkpt>
      <trkpt lat="47.04646" lon="9.0517">
        <ele>536</ele>
        <time>2021-08-02T08:07:17.325Z</time>
      </trkpt>
      <trkpt lat="47.04646" lon="9.05169">
        <ele>536</ele>
        <time>2021-08-02T08:07:18.326Z</time>
      </trkpt>
      <trkpt lat="47.04647" lon="9.05168">
        <ele>536</ele>
        <time>2021-08-02T08:07:19.325Z</time>
      </trkpt>
      <trkpt lat="47.04647" lon="9.05166">
        <ele>536</ele>
        <time>2021-08-02T08:07:20.326Z</time>
      </trkpt>
      <trkpt lat="47.04648" lon="9.05165">
        <ele>536</ele>
        <time>2021-08-02T08:07:21.326Z</time>
      </trkpt>
      <trkpt lat="47.04648" lon="9.05163">
        <ele>536</ele>
        <time>2021-08-02T08:07:22.325Z</time>
      </trkpt>
      <trkpt lat="47.04649" lon="9.05163">
        <ele>536</ele>
        <time>2021-08-02T08:07:23.326Z</time>
      </trkpt>
      <trkpt lat="47.04649" lon="9.05161">
        <ele>536</ele>
        <time>2021-08-02T08:07:24.325Z</time>
      </trkpt>
      <trkpt lat="47.0465" lon="9.0516">
        <ele>536</ele>
        <time>2021-08-02T08:07:25.326Z</time>
      </trkpt>
      <trkpt lat="47.0465" lon="9.05159">
        <ele>536</ele>
        <time>2021-08-02T08:07:26.325Z</time>
      </trkpt>
      <trkpt lat="47.0465" lon="9.05157">
        <ele>536</ele>
        <time>2021-08-02T08:07:27.326Z</time>
      </trkpt>
      <trkpt lat="47.0465" lon="9.05156">
        <ele>536</ele>
        <time>2021-08-02T08:07:28.325Z</time>
      </trkpt>
      <trkpt lat="47.04651" lon="9.05155">
        <ele>536</ele>
        <time>2021-08-02T08:07:29.326Z</time>
      </trkpt>
      <trkpt lat="47.04651" lon="9.05153">
        <ele>536</ele>
        <time>2021-08-02T08:07:30.325Z</time>
      </trkpt>
      <trkpt lat="47.04651" lon="9.05152">
        <ele>536</ele>
        <time>2021-08-02T08:07:31.325Z</time>
      </trkpt>
      <trkpt lat="47.04652" lon="9.05151">
        <ele>536</ele>
        <time>2021-08-02T08:07:32.326Z</time>
      </trkpt>
      <trkpt lat="47.04652" lon="9.05151">
        <ele>536</ele>
        <time>2021-08-02T08:07:33.326Z</time>
      </trkpt>
      <trkpt lat="47.04652" lon="9.0515">
        <ele>537</ele>
        <time>2021-08-02T08:07:34.326Z</time>
      </trkpt>
      <trkpt lat="47.04653" lon="9.05149">
        <ele>537</ele>
        <time>2021-08-02T08:07:35.325Z</time>
      </trkpt>
      <trkpt lat="47.04654" lon="9.05149">
        <ele>537</ele>
        <time>2021-08-02T08:07:36.325Z</time>
      </trkpt>
      <trkpt lat="47.04654" lon="9.05149">
        <ele>538</ele>
        <time>2021-08-02T08:07:37.326Z</time>
      </trkpt>
      <trkpt lat="47.04655" lon="9.05149">
        <ele>537</ele>
        <time>2021-08-02T08:07:38.326Z</time>
      </trkpt>
      <trkpt lat="47.04656" lon="9.05149">
        <ele>537</ele>
        <time>2021-08-02T08:07:39.325Z</time>
      </trkpt>
      <trkpt lat="47.04657" lon="9.05149">
        <ele>537</ele>
        <time>2021-08-02T08:07:40.326Z</time>
      </trkpt>
      <trkpt lat="47.04659" lon="9.05149">
        <ele>537</ele>
        <time>2021-08-02T08:07:41.325Z</time>
      </trkpt>
      <trkpt lat="47.0466" lon="9.05149">
        <ele>537</ele>
        <time>2021-08-02T08:07:42.326Z</time>
      </trkpt>
      <trkpt lat="47.04661" lon="9.05149">
        <ele>537</ele>
        <time>2021-08-02T08:07:43.325Z</time>
      </trkpt>
      <trkpt lat="47.04662" lon="9.05149">
        <ele>537</ele>
        <time>2021-08-02T08:07:44.326Z</time>
      </trkpt>
      <trkpt lat="47.04663" lon="9.0515">
        <ele>537</ele>
        <time>2021-08-02T08:07:45.325Z</time>
      </trkpt>
      <trkpt lat="47.04663" lon="9.05151">
        <ele>538</ele>
        <time>2021-08-02T08:07:46.326Z</time>
      </trkpt>
      <trkpt lat="47.04664" lon="9.05153">
        <ele>538</ele>
        <time>2021-08-02T08:07:47.326Z</time>
      </trkpt>
      <trkpt lat="47.04665" lon="9.05153">
        <ele>539</ele>
        <time>2021-08-02T08:07:48.326Z</time>
      </trkpt>
      <trkpt lat="47.04666" lon="9.05154">
        <ele>539</ele>
        <time>2021-08-02T08:07:49.326Z</time>
      </trkpt>
      <trkpt lat="47.04667" lon="9.05157">
        <ele>539</ele>
        <time>2021-08-02T08:07:50.326Z</time>
      </trkpt>
      <trkpt lat="47.04668" lon="9.05157">
        <ele>539</ele>
        <time>2021-08-02T08:07:51.325Z</time>
      </trkpt>
      <trkpt lat="47.04668" lon="9.05158">
        <ele>539</ele>
        <time>2021-08-02T08:07:52.326Z</time>
      </trkpt>
      <trkpt lat="47.04669" lon="9.05158">
        <ele>539</ele>
        <time>2021-08-02T08:07:53.325Z</time>
      </trkpt>
      <trkpt lat="47.04671" lon="9.05158">
        <ele>539</ele>
        <time>2021-08-02T08:07:54.326Z</time>
      </trkpt>
      <trkpt lat="47.04672" lon="9.05158">
        <ele>540</ele>
        <time>2021-08-02T08:07:55.326Z</time>
      </trkpt>
      <trkpt lat="47.04673" lon="9.05159">
        <ele>540</ele>
        <time>2021-08-02T08:07:56.326Z</time>
      </trkpt>
      <trkpt lat="47.04674" lon="9.0516">
        <ele>540</ele>
        <time>2021-08-02T08:07:57.326Z</time>
      </trkpt>
      <trkpt lat="47.04675" lon="9.05161">
        <ele>540</ele>
        <time>2021-08-02T08:07:58.326Z</time>
      </trkpt>
      <trkpt lat="47.04677" lon="9.05162">
        <ele>540</ele>
        <time>2021-08-02T08:07:59.325Z</time>
      </trkpt>
      <trkpt lat="47.04678" lon="9.05162">
        <ele>540</ele>
        <time>2021-08-02T08:08:00.325Z</time>
      </trkpt>
      <trkpt lat="47.04679" lon="9.05163">
        <ele>541</ele>
        <time>2021-08-02T08:08:01.325Z</time>
      </trkpt>
      <trkpt lat="47.04681" lon="9.05163">
        <ele>541</ele>
        <time>2021-08-02T08:08:02.326Z</time>
      </trkpt>
      <trkpt lat="47.04683" lon="9.05163">
        <ele>541</ele>
        <time>2021-08-02T08:08:03.325Z</time>
      </trkpt>
      <trkpt lat="47.04684" lon="9.05163">
        <ele>541</ele>
        <time>2021-08-02T08:08:04.326Z</time>
      </trkpt>
      <trkpt lat="47.04685" lon="9.05163">
        <ele>541</ele>
        <time>2021-08-02T08:08:05.325Z</time>
      </trkpt>
      <trkpt lat="47.04686" lon="9.05162">
        <ele>542</ele>
        <time>2021-08-02T08:08:06.325Z</time>
      </trkpt>
      <trkpt lat="47.04687" lon="9.05162">
        <ele>542</ele>
        <time>2021-08-02T08:08:07.325Z</time>
      </trkpt>
      <trkpt lat="47.04688" lon="9.05161">
        <ele>542</ele>
        <time>2021-08-02T08:08:08.325Z</time>
      </trkpt>
      <trkpt lat="47.04689" lon="9.05161">
        <ele>543</ele>
        <time>2021-08-02T08:08:09.325Z</time>
      </trkpt>
      <trkpt lat="47.0469" lon="9.05161">
        <ele>542</ele>
        <time>2021-08-02T08:08:10.326Z</time>
      </trkpt>
      <trkpt lat="47.04691" lon="9.05161">
        <ele>542</ele>
        <time>2021-08-02T08:08:11.325Z</time>
      </trkpt>
      <trkpt lat="47.04692" lon="9.05161">
        <ele>542</ele>
        <time>2021-08-02T08:08:12.325Z</time>
      </trkpt>
      <trkpt lat="47.04693" lon="9.05161">
        <ele>542</ele>
        <time>2021-08-02T08:08:13.326Z</time>
      </trkpt>
      <trkpt lat="47.04695" lon="9.05161">
        <ele>541</ele>
        <time>2021-08-02T08:08:14.326Z</time>
      </trkpt>
      <trkpt lat="47.04696" lon="9.05161">
        <ele>541</ele>
        <time>2021-08-02T08:08:15.326Z</time>
      </trkpt>
      <trkpt lat="47.04697" lon="9.05161">
        <ele>540</ele>
        <time>2021-08-02T08:08:16.326Z</time>
      </trkpt>
      <trkpt lat="47.04698" lon="9.05161">
        <ele>540</ele>
        <time>2021-08-02T08:08:17.326Z</time>
      </trkpt>
      <trkpt lat="47.04699" lon="9.05161">
        <ele>540</ele>
        <time>2021-08-02T08:08:18.326Z</time>
      </trkpt>
      <trkpt lat="47.047" lon="9.0516">
        <ele>540</ele>
        <time>2021-08-02T08:08:19.325Z</time>
      </trkpt>
      <trkpt lat="47.04701" lon="9.0516">
        <ele>540</ele>
        <time>2021-08-02T08:08:20.326Z</time>
      </trkpt>
      <trkpt lat="47.04702" lon="9.0516">
        <ele>540</ele>
        <time>2021-08-02T08:08:21.326Z</time>
      </trkpt>
      <trkpt lat="47.04703" lon="9.0516">
        <ele>540</ele>
        <time>2021-08-02T08:08:22.326Z</time>
      </trkpt>
      <trkpt lat="47.04704" lon="9.0516">
        <ele>539</ele>
        <time>2021-08-02T08:08:23.326Z</time>
      </trkpt>
      <trkpt lat="47.04705" lon="9.05161">
        <ele>539</ele>
        <time>2021-08-02T08:08:24.326Z</time>
      </trkpt>
      <trkpt lat="47.04706" lon="9.0516">
        <ele>538</ele>
        <time>2021-08-02T08:08:25.326Z</time>
      </trkpt>
      <trkpt lat="47.04707" lon="9.0516">
        <ele>538</ele>
        <time>2021-08-02T08:08:26.326Z</time>
      </trkpt>
      <trkpt lat="47.04709" lon="9.0516">
        <ele>538</ele>
        <time>2021-08-02T08:08:27.325Z</time>
      </trkpt>
      <trkpt lat="47.04709" lon="9.05159">
        <ele>537</ele>
        <time>2021-08-02T08:08:28.326Z</time>
      </trkpt>
      <trkpt lat="47.04711" lon="9.05159">
        <ele>537</ele>
        <time>2021-08-02T08:08:29.326Z</time>
      </trkpt>
      <trkpt lat="47.04712" lon="9.05159">
        <ele>537</ele>
        <time>2021-08-02T08:08:30.326Z</time>
      </trkpt>
      <trkpt lat="47.04713" lon="9.05159">
        <ele>537</ele>
        <time>2021-08-02T08:08:31.325Z</time>
      </trkpt>
      <trkpt lat="47.04714" lon="9.05159">
        <ele>537</ele>
        <time>2021-08-02T08:08:32.326Z</time>
      </trkpt>
      <trkpt lat="47.04715" lon="9.05158">
        <ele>537</ele>
        <time>2021-08-02T08:08:33.326Z</time>
      </trkpt>
      <trkpt lat="47.04716" lon="9.05158">
        <ele>537</ele>
        <time>2021-08-02T08:08:34.326Z</time>
      </trkpt>
      <trkpt lat="47.04717" lon="9.05158">
        <ele>537</ele>
        <time>2021-08-02T08:08:35.326Z</time>
      </trkpt>
      <trkpt lat="47.04718" lon="9.05158">
        <ele>537</ele>
        <time>2021-08-02T08:08:36.326Z</time>
      </trkpt>
      <trkpt lat="47.04719" lon="9.05159">
        <ele>537</ele>
        <time>2021-08-02T08:08:37.326Z</time>
      </trkpt>
      <trkpt lat="47.0472" lon="9.05159">
        <ele>536</ele>
        <time>2021-08-02T08:08:38.325Z</time>
      </trkpt>
      <trkpt lat="47.04721" lon="9.05159">
        <ele>536</ele>
        <time>2021-08-02T08:08:39.326Z</time>
      </trkpt>
      <trkpt lat="47.04722" lon="9.05159">
        <ele>536</ele>
        <time>2021-08-02T08:08:40.326Z</time>
      </trkpt>
      <trkpt lat="47.04723" lon="9.0516">
        <ele>535</ele>
        <time>2021-08-02T08:08:41.325Z</time>
      </trkpt>
      <trkpt lat="47.04724" lon="9.0516">
        <ele>535</ele>
        <time>2021-08-02T08:08:42.325Z</time>
      </trkpt>
      <trkpt lat="47.04726" lon="9.0516">
        <ele>535</ele>
        <time>2021-08-02T08:08:43.326Z</time>
      </trkpt>
      <trkpt lat="47.04727" lon="9.05159">
        <ele>535</ele>
        <time>2021-08-02T08:08:44.325Z</time>
      </trkpt>
      <trkpt lat="47.04727" lon="9.05159">
        <ele>535</ele>
        <time>2021-08-02T08:08:45.326Z</time>
      </trkpt>
      <trkpt lat="47.04728" lon="9.05158">
        <ele>535</ele>
        <time>2021-08-02T08:08:46.325Z</time>
      </trkpt>
      <trkpt lat="47.04729" lon="9.05158">
        <ele>535</ele>
        <time>2021-08-02T08:08:47.325Z</time>
      </trkpt>
      <trkpt lat="47.0473" lon="9.05158">
        <ele>535</ele>
        <time>2021-08-02T08:08:48.325Z</time>
      </trkpt>
      <trkpt lat="47.04731" lon="9.05158">
        <ele>535</ele>
        <time>2021-08-02T08:08:49.326Z</time>
      </trkpt>
      <trkpt lat="47.04732" lon="9.05158">
        <ele>535</ele>
        <time>2021-08-02T08:08:50.326Z</time>
      </trkpt>
      <trkpt lat="47.04733" lon="9.05158">
        <ele>534</ele>
        <time>2021-08-02T08:08:51.326Z</time>
      </trkpt>
      <trkpt lat="47.04734" lon="9.05158">
        <ele>534</ele>
        <time>2021-08-02T08:08:52.325Z</time>
      </trkpt>
      <trkpt lat="47.04736" lon="9.05158">
        <ele>533</ele>
        <time>2021-08-02T08:08:53.325Z</time>
      </trkpt>
      <trkpt lat="47.04737" lon="9.05159">
        <ele>533</ele>
        <time>2021-08-02T08:08:54.326Z</time>
      </trkpt>
      <trkpt lat="47.04738" lon="9.05159">
        <ele>533</ele>
        <time>2021-08-02T08:08:55.325Z</time>
      </trkpt>
      <trkpt lat="47.04739" lon="9.05159">
        <ele>533</ele>
        <time>2021-08-02T08:08:56.326Z</time>
      </trkpt>
      <trkpt lat="47.04739" lon="9.05159">
        <ele>534</ele>
        <time>2021-08-02T08:08:57.325Z</time>
      </trkpt>
      <trkpt lat="47.0474" lon="9.05158">
        <ele>534</ele>
        <time>2021-08-02T08:08:58.326Z</time>
      </trkpt>
      <trkpt lat="47.04741" lon="9.05157">
        <ele>534</ele>
        <time>2021-08-02T08:08:59.326Z</time>
      </trkpt>
      <trkpt lat="47.04742" lon="9.05157">
        <ele>535</ele>
        <time>2021-08-02T08:09:00.325Z</time>
      </trkpt>
      <trkpt lat="47.04742" lon="9.05156">
        <ele>535</ele>
        <time>2021-08-02T08:09:01.326Z</time>
      </trkpt>
      <trkpt lat="47.04743" lon="9.05155">
        <ele>535</ele>
        <time>2021-08-02T08:09:02.325Z</time>
      </trkpt>
      <trkpt lat="47.04743" lon="9.05154">
        <ele>535</ele>
        <time>2021-08-02T08:09:03.326Z</time>
      </trkpt>
      <trkpt lat="47.04744" lon="9.05153">
        <ele>535</ele>
        <time>2021-08-02T08:09:04.326Z</time>
      </trkpt>
      <trkpt lat="47.04745" lon="9.05153">
        <ele>535</ele>
        <time>2021-08-02T08:09:05.325Z</time>
      </trkpt>
      <trkpt lat="47.04745" lon="9.05152">
        <ele>535</ele>
        <time>2021-08-02T08:09:06.326Z</time>
      </trkpt>
      <trkpt lat="47.04746" lon="9.05152">
        <ele>535</ele>
        <time>2021-08-02T08:09:07.326Z</time>
      </trkpt>
      <trkpt lat="47.04747" lon="9.05152">
        <ele>535</ele>
        <time>2021-08-02T08:09:08.326Z</time>
      </trkpt>
      <trkpt lat="47.04749" lon="9.05151">
        <ele>535</ele>
        <time>2021-08-02T08:09:09.326Z</time>
      </trkpt>
      <trkpt lat="47.04751" lon="9.05151">
        <ele>534</ele>
        <time>2021-08-02T08:09:10.326Z</time>
      </trkpt>
      <trkpt lat="47.04752" lon="9.05151">
        <ele>534</ele>
        <time>2021-08-02T08:09:11.325Z</time>
      </trkpt>
      <trkpt lat="47.04753" lon="9.0515">
        <ele>534</ele>
        <time>2021-08-02T08:09:12.325Z</time>
      </trkpt>
      <trkpt lat="47.04753" lon="9.05149">
        <ele>534</ele>
        <time>2021-08-02T08:09:13.326Z</time>
      </trkpt>
      <trkpt lat="47.04754" lon="9.05148">
        <ele>534</ele>
        <time>2021-08-02T08:09:14.326Z</time>
      </trkpt>
      <trkpt lat="47.04755" lon="9.05147">
        <ele>534</ele>
        <time>2021-08-02T08:09:15.326Z</time>
      </trkpt>
      <trkpt lat="47.04756" lon="9.05146">
        <ele>534</ele>
        <time>2021-08-02T08:09:16.326Z</time>
      </trkpt>
      <trkpt lat="47.04757" lon="9.05146">
        <ele>534</ele>
        <time>2021-08-02T08:09:17.325Z</time>
      </trkpt>
      <trkpt lat="47.04758" lon="9.05145">
        <ele>534</ele>
        <time>2021-08-02T08:09:18.325Z</time>
      </trkpt>
      <trkpt lat="47.04759" lon="9.05145">
        <ele>534</ele>
        <time>2021-08-02T08:09:19.326Z</time>
      </trkpt>
      <trkpt lat="47.04759" lon="9.05144">
        <ele>534</ele>
        <time>2021-08-02T08:09:20.326Z</time>
      </trkpt>
      <trkpt lat="47.0476" lon="9.05144">
        <ele>534</ele>
        <time>2021-08-02T08:09:21.326Z</time>
      </trkpt>
      <trkpt lat="47.04761" lon="9.05144">
        <ele>534</ele>
        <time>2021-08-02T08:09:22.326Z</time>
      </trkpt>
      <trkpt lat="47.04762" lon="9.05143">
        <ele>534</ele>
        <time>2021-08-02T08:09:23.326Z</time>
      </trkpt>
      <trkpt lat="47.04763" lon="9.05142">
        <ele>534</ele>
        <time>2021-08-02T08:09:24.326Z</time>
      </trkpt>
      <trkpt lat="47.04763" lon="9.05141">
        <ele>534</ele>
        <time>2021-08-02T08:09:25.325Z</time>
      </trkpt>
      <trkpt lat="47.04764" lon="9.0514">
        <ele>535</ele>
        <time>2021-08-02T08:09:26.326Z</time>
      </trkpt>
      <trkpt lat="47.04764" lon="9.05139">
        <ele>535</ele>
        <time>2021-08-02T08:09:27.326Z</time>
      </trkpt>
      <trkpt lat="47.04765" lon="9.05138">
        <ele>535</ele>
        <time>2021-08-02T08:09:28.326Z</time>
      </trkpt>
      <trkpt lat="47.04766" lon="9.05137">
        <ele>535</ele>
        <time>2021-08-02T08:09:29.325Z</time>
      </trkpt>
      <trkpt lat="47.04766" lon="9.05136">
        <ele>536</ele>
        <time>2021-08-02T08:09:30.326Z</time>
      </trkpt>
      <trkpt lat="47.04766" lon="9.05135">
        <ele>536</ele>
        <time>2021-08-02T08:09:31.325Z</time>
      </trkpt>
      <trkpt lat="47.04767" lon="9.05134">
        <ele>536</ele>
        <time>2021-08-02T08:09:32.325Z</time>
      </trkpt>
      <trkpt lat="47.04768" lon="9.05133">
        <ele>537</ele>
        <time>2021-08-02T08:09:33.326Z</time>
      </trkpt>
      <trkpt lat="47.04769" lon="9.05131">
        <ele>537</ele>
        <time>2021-08-02T08:09:34.326Z</time>
      </trkpt>
      <trkpt lat="47.0477" lon="9.0513">
        <ele>538</ele>
        <time>2021-08-02T08:09:35.326Z</time>
      </trkpt>
      <trkpt lat="47.0477" lon="9.05129">
        <ele>538</ele>
        <time>2021-08-02T08:09:36.325Z</time>
      </trkpt>
      <trkpt lat="47.04771" lon="9.05127">
        <ele>538</ele>
        <time>2021-08-02T08:09:37.326Z</time>
      </trkpt>
      <trkpt lat="47.04771" lon="9.05126">
        <ele>538</ele>
        <time>2021-08-02T08:09:38.326Z</time>
      </trkpt>
      <trkpt lat="47.04772" lon="9.05125">
        <ele>539</ele>
        <time>2021-08-02T08:09:39.326Z</time>
      </trkpt>
      <trkpt lat="47.04773" lon="9.05125">
        <ele>539</ele>
        <time>2021-08-02T08:09:40.326Z</time>
      </trkpt>
      <trkpt lat="47.04774" lon="9.05124">
        <ele>540</ele>
        <time>2021-08-02T08:09:41.325Z</time>
      </trkpt>
      <trkpt lat="47.04776" lon="9.05123">
        <ele>540</ele>
        <time>2021-08-02T08:09:42.326Z</time>
      </trkpt>
      <trkpt lat="47.04778" lon="9.05123">
        <ele>541</ele>
        <time>2021-08-02T08:09:43.325Z</time>
      </trkpt>
      <trkpt lat="47.04779" lon="9.05122">
        <ele>541</ele>
        <time>2021-08-02T08:09:44.325Z</time>
      </trkpt>
      <trkpt lat="47.0478" lon="9.05122">
        <ele>541</ele>
        <time>2021-08-02T08:09:45.326Z</time>
      </trkpt>
      <trkpt lat="47.04781" lon="9.05121">
        <ele>541</ele>
        <time>2021-08-02T08:09:46.326Z</time>
      </trkpt>
      <trkpt lat="47.04782" lon="9.0512">
        <ele>542</ele>
        <time>2021-08-02T08:09:47.326Z</time>
      </trkpt>
      <trkpt lat="47.04783" lon="9.0512">
        <ele>542</ele>
        <time>2021-08-02T08:09:48.326Z</time>
      </trkpt>
      <trkpt lat="47.04784" lon="9.0512">
        <ele>542</ele>
        <time>2021-08-02T08:09:49.326Z</time>
      </trkpt>
      <trkpt lat="47.04785" lon="9.0512">
        <ele>543</ele>
        <time>2021-08-02T08:09:50.326Z</time>
      </trkpt>
      <trkpt lat="47.04786" lon="9.05119">
        <ele>542</ele>
        <time>2021-08-02T08:09:51.326Z</time>
      </trkpt>
      <trkpt lat="47.04786" lon="9.05119">
        <ele>542</ele>
        <time>2021-08-02T08:09:52.326Z</time>
      </trkpt>
      <trkpt lat="47.04787" lon="9.05119">
        <ele>542</ele>
        <time>2021-08-02T08:09:53.325Z</time>
      </trkpt>
      <trkpt lat="47.04789" lon="9.05119">
        <ele>540</ele>
        <time>2021-08-02T08:09:54.327Z</time>
      </trkpt>
      <trkpt lat="47.0479" lon="9.05119">
        <ele>539</ele>
        <time>2021-08-02T08:09:55.327Z</time>
      </trkpt>
      <trkpt lat="47.0479" lon="9.05119">
        <ele>539</ele>
        <time>2021-08-02T08:09:56.326Z</time>
      </trkpt>
      <trkpt lat="47.04789" lon="9.0512">
        <ele>538</ele>
        <time>2021-08-02T08:09:57.327Z</time>
      </trkpt>
      <trkpt lat="47.04789" lon="9.0512">
        <ele>537</ele>
        <time>2021-08-02T08:09:58.327Z</time>
      </trkpt>
      <trkpt lat="47.04789" lon="9.0512">
        <ele>536</ele>
        <time>2021-08-02T08:09:59.327Z</time>
      </trkpt>
      <trkpt lat="47.04789" lon="9.05121">
        <ele>535</ele>
        <time>2021-08-02T08:10:00.327Z</time>
      </trkpt>
      <trkpt lat="47.04789" lon="9.0512">
        <ele>533</ele>
        <time>2021-08-02T08:10:01.327Z</time>
      </trkpt>
      <trkpt lat="47.04788" lon="9.05119">
        <ele>525</ele>
        <time>2021-08-02T08:10:02.328Z</time>
      </trkpt>
      <trkpt lat="47.04787" lon="9.05119">
        <ele>525</ele>
        <time>2021-08-02T08:10:03.327Z</time>
      </trkpt>
      <trkpt lat="47.04787" lon="9.05119">
        <ele>525</ele>
        <time>2021-08-02T08:10:04.327Z</time>
      </trkpt>
      <trkpt lat="47.04787" lon="9.05118">
        <ele>526</ele>
        <time>2021-08-02T08:10:05.328Z</time>
      </trkpt>
      <trkpt lat="47.04785" lon="9.05116">
        <ele>534</ele>
        <time>2021-08-02T08:10:06.329Z</time>
      </trkpt>
      <trkpt lat="47.04786" lon="9.05114">
        <ele>540</ele>
        <time>2021-08-02T08:10:07.329Z</time>
      </trkpt>
      <trkpt lat="47.04787" lon="9.05115">
        <ele>541</ele>
        <time>2021-08-02T08:10:08.329Z</time>
      </trkpt>
      <trkpt lat="47.04789" lon="9.05114">
        <ele>541</ele>
        <time>2021-08-02T08:10:09.328Z</time>
      </trkpt>
      <trkpt lat="47.0479" lon="9.05114">
        <ele>541</ele>
        <time>2021-08-02T08:10:10.329Z</time>
      </trkpt>
      <trkpt lat="47.04792" lon="9.05114">
        <ele>541</ele>
        <time>2021-08-02T08:10:11.329Z</time>
      </trkpt>
      <trkpt lat="47.04793" lon="9.05114">
        <ele>540</ele>
        <time>2021-08-02T08:10:12.328Z</time>
      </trkpt>
      <trkpt lat="47.04795" lon="9.05113">
        <ele>540</ele>
        <time>2021-08-02T08:10:13.328Z</time>
      </trkpt>
      <trkpt lat="47.04795" lon="9.05113">
        <ele>540</ele>
        <time>2021-08-02T08:10:14.329Z</time>
      </trkpt>
      <trkpt lat="47.04796" lon="9.05112">
        <ele>540</ele>
        <time>2021-08-02T08:10:15.329Z</time>
      </trkpt>
      <trkpt lat="47.04797" lon="9.05112">
        <ele>540</ele>
        <time>2021-08-02T08:10:16.329Z</time>
      </trkpt>
      <trkpt lat="47.04799" lon="9.05111">
        <ele>540</ele>
        <time>2021-08-02T08:10:17.329Z</time>
      </trkpt>
      <trkpt lat="47.048" lon="9.05112">
        <ele>540</ele>
        <time>2021-08-02T08:10:18.329Z</time>
      </trkpt>
      <trkpt lat="47.04802" lon="9.05112">
        <ele>540</ele>
        <time>2021-08-02T08:10:19.329Z</time>
      </trkpt>
      <trkpt lat="47.04804" lon="9.05113">
        <ele>540</ele>
        <time>2021-08-02T08:10:20.329Z</time>
      </trkpt>
      <trkpt lat="47.04805" lon="9.05114">
        <ele>540</ele>
        <time>2021-08-02T08:10:21.328Z</time>
      </trkpt>
      <trkpt lat="47.04805" lon="9.05114">
        <ele>539</ele>
        <time>2021-08-02T08:10:22.329Z</time>
      </trkpt>
      <trkpt lat="47.04805" lon="9.05114">
        <ele>539</ele>
        <time>2021-08-02T08:10:23.329Z</time>
      </trkpt>
      <trkpt lat="47.04805" lon="9.05114">
        <ele>539</ele>
        <time>2021-08-02T08:10:24.329Z</time>
      </trkpt>
      <trkpt lat="47.04806" lon="9.05115">
        <ele>539</ele>
        <time>2021-08-02T08:10:25.329Z</time>
      </trkpt>
      <trkpt lat="47.04807" lon="9.05115">
        <ele>539</ele>
        <time>2021-08-02T08:10:26.329Z</time>
      </trkpt>
      <trkpt lat="47.04808" lon="9.05114">
        <ele>538</ele>
        <time>2021-08-02T08:10:27.329Z</time>
      </trkpt>
      <trkpt lat="47.0481" lon="9.05115">
        <ele>538</ele>
        <time>2021-08-02T08:10:28.329Z</time>
      </trkpt>
      <trkpt lat="47.04811" lon="9.05115">
        <ele>538</ele>
        <time>2021-08-02T08:10:29.329Z</time>
      </trkpt>
      <trkpt lat="47.04812" lon="9.05115">
        <ele>537</ele>
        <time>2021-08-02T08:10:30.329Z</time>
      </trkpt>
      <trkpt lat="47.04813" lon="9.05115">
        <ele>537</ele>
        <time>2021-08-02T08:10:31.329Z</time>
      </trkpt>
      <trkpt lat="47.04814" lon="9.05115">
        <ele>536</ele>
        <time>2021-08-02T08:10:32.328Z</time>
      </trkpt>
      <trkpt lat="47.04814" lon="9.05114">
        <ele>536</ele>
        <time>2021-08-02T08:10:33.329Z</time>
      </trkpt>
      <trkpt lat="47.04815" lon="9.05113">
        <ele>536</ele>
        <time>2021-08-02T08:10:34.329Z</time>
      </trkpt>
      <trkpt lat="47.04815" lon="9.05113">
        <ele>535</ele>
        <time>2021-08-02T08:10:35.329Z</time>
      </trkpt>
      <trkpt lat="47.04816" lon="9.05112">
        <ele>535</ele>
        <time>2021-08-02T08:10:36.329Z</time>
      </trkpt>
      <trkpt lat="47.04816" lon="9.05111">
        <ele>535</ele>
        <time>2021-08-02T08:10:37.329Z</time>
      </trkpt>
      <trkpt lat="47.04817" lon="9.0511">
        <ele>534</ele>
        <time>2021-08-02T08:10:38.328Z</time>
      </trkpt>
      <trkpt lat="47.04816" lon="9.05109">
        <ele>534</ele>
        <time>2021-08-02T08:10:39.329Z</time>
      </trkpt>
      <trkpt lat="47.04817" lon="9.05108">
        <ele>534</ele>
        <time>2021-08-02T08:10:40.329Z</time>
      </trkpt>
      <trkpt lat="47.04817" lon="9.05107">
        <ele>534</ele>
        <time>2021-08-02T08:10:41.328Z</time>
      </trkpt>
      <trkpt lat="47.04817" lon="9.05106">
        <ele>534</ele>
        <time>2021-08-02T08:10:42.329Z</time>
      </trkpt>
      <trkpt lat="47.04817" lon="9.05105">
        <ele>534</ele>
        <time>2021-08-02T08:10:43.329Z</time>
      </trkpt>
      <trkpt lat="47.04817" lon="9.05104">
        <ele>534</ele>
        <time>2021-08-02T08:10:44.329Z</time>
      </trkpt>
      <trkpt lat="47.04818" lon="9.05103">
        <ele>534</ele>
        <time>2021-08-02T08:10:45.329Z</time>
      </trkpt>
      <trkpt lat="47.04818" lon="9.05103">
        <ele>534</ele>
        <time>2021-08-02T08:10:46.329Z</time>
      </trkpt>
      <trkpt lat="47.04818" lon="9.05102">
        <ele>534</ele>
        <time>2021-08-02T08:10:47.328Z</time>
      </trkpt>
      <trkpt lat="47.04819" lon="9.05101">
        <ele>534</ele>
        <time>2021-08-02T08:10:48.329Z</time>
      </trkpt>
      <trkpt lat="47.04819" lon="9.05099">
        <ele>534</ele>
        <time>2021-08-02T08:10:49.329Z</time>
      </trkpt>
      <trkpt lat="47.0482" lon="9.05097">
        <ele>534</ele>
        <time>2021-08-02T08:10:50.329Z</time>
      </trkpt>
      <trkpt lat="47.0482" lon="9.05097">
        <ele>534</ele>
        <time>2021-08-02T08:10:51.329Z</time>
      </trkpt>
      <trkpt lat="47.0482" lon="9.05096">
        <ele>535</ele>
        <time>2021-08-02T08:10:52.329Z</time>
      </trkpt>
      <trkpt lat="47.04821" lon="9.05096">
        <ele>535</ele>
        <time>2021-08-02T08:10:53.329Z</time>
      </trkpt>
      <trkpt lat="47.0482" lon="9.05094">
        <ele>535</ele>
        <time>2021-08-02T08:10:54.329Z</time>
      </trkpt>
      <trkpt lat="47.0482" lon="9.05093">
        <ele>535</ele>
        <time>2021-08-02T08:10:55.329Z</time>
      </trkpt>
      <trkpt lat="47.0482" lon="9.05091">
        <ele>535</ele>
        <time>2021-08-02T08:10:56.328Z</time>
      </trkpt>
      <trkpt lat="47.0482" lon="9.05089">
        <ele>536</ele>
        <time>2021-08-02T08:10:57.329Z</time>
      </trkpt>
      <trkpt lat="47.0482" lon="9.05088">
        <ele>536</ele>
        <time>2021-08-02T08:10:58.328Z</time>
      </trkpt>
      <trkpt lat="47.0482" lon="9.05086">
        <ele>536</ele>
        <time>2021-08-02T08:10:59.329Z</time>
      </trkpt>
      <trkpt lat="47.0482" lon="9.05085">
        <ele>536</ele>
        <time>2021-08-02T08:11:00.329Z</time>
      </trkpt>
      <trkpt lat="47.0482" lon="9.05084">
        <ele>536</ele>
        <time>2021-08-02T08:11:01.329Z</time>
      </trkpt>
      <trkpt lat="47.0482" lon="9.05082">
        <ele>536</ele>
        <time>2021-08-02T08:11:02.329Z</time>
      </trkpt>
      <trkpt lat="47.04819" lon="9.0508">
        <ele>536</ele>
        <time>2021-08-02T08:11:03.329Z</time>
      </trkpt>
      <trkpt lat="47.04819" lon="9.05078">
        <ele>536</ele>
        <time>2021-08-02T08:11:04.329Z</time>
      </trkpt>
      <trkpt lat="47.04818" lon="9.05077">
        <ele>537</ele>
        <time>2021-08-02T08:11:05.328Z</time>
      </trkpt>
      <trkpt lat="47.04818" lon="9.05076">
        <ele>537</ele>
        <time>2021-08-02T08:11:06.329Z</time>
      </trkpt>
      <trkpt lat="47.04818" lon="9.05075">
        <ele>538</ele>
        <time>2021-08-02T08:11:07.328Z</time>
      </trkpt>
      <trkpt lat="47.04818" lon="9.05074">
        <ele>538</ele>
        <time>2021-08-02T08:11:08.329Z</time>
      </trkpt>
      <trkpt lat="47.04818" lon="9.05071">
        <ele>539</ele>
        <time>2021-08-02T08:11:09.329Z</time>
      </trkpt>
      <trkpt lat="47.04818" lon="9.05069">
        <ele>539</ele>
        <time>2021-08-02T08:11:10.329Z</time>
      </trkpt>
      <trkpt lat="47.04818" lon="9.05068">
        <ele>540</ele>
        <time>2021-08-02T08:11:11.328Z</time>
      </trkpt>
      <trkpt lat="47.04819" lon="9.05067">
        <ele>540</ele>
        <time>2021-08-02T08:11:12.329Z</time>
      </trkpt>
      <trkpt lat="47.0482" lon="9.05067">
        <ele>541</ele>
        <time>2021-08-02T08:11:13.329Z</time>
      </trkpt>
      <trkpt lat="47.04821" lon="9.05066">
        <ele>541</ele>
        <time>2021-08-02T08:11:14.329Z</time>
      </trkpt>
      <trkpt lat="47.04821" lon="9.05065">
        <ele>541</ele>
        <time>2021-08-02T08:11:15.329Z</time>
      </trkpt>
      <trkpt lat="47.04821" lon="9.05064">
        <ele>541</ele>
        <time>2021-08-02T08:11:16.328Z</time>
      </trkpt>
      <trkpt lat="47.04822" lon="9.05062">
        <ele>542</ele>
        <time>2021-08-02T08:11:17.329Z</time>
      </trkpt>
      <trkpt lat="47.04822" lon="9.0506">
        <ele>542</ele>
        <time>2021-08-02T08:11:18.329Z</time>
      </trkpt>
      <trkpt lat="47.04821" lon="9.05058">
        <ele>543</ele>
        <time>2021-08-02T08:11:19.329Z</time>
      </trkpt>
      <trkpt lat="47.04821" lon="9.05057">
        <ele>543</ele>
        <time>2021-08-02T08:11:20.329Z</time>
      </trkpt>
      <trkpt lat="47.04821" lon="9.05055">
        <ele>543</ele>
        <time>2021-08-02T08:11:21.328Z</time>
      </trkpt>
      <trkpt lat="47.04821" lon="9.05053">
        <ele>544</ele>
        <time>2021-08-02T08:11:22.329Z</time>
      </trkpt>
      <trkpt lat="47.04821" lon="9.05052">
        <ele>544</ele>
        <time>2021-08-02T08:11:23.329Z</time>
      </trkpt>
      <trkpt lat="47.04822" lon="9.0505">
        <ele>544</ele>
        <time>2021-08-02T08:11:24.329Z</time>
      </trkpt>
      <trkpt lat="47.04823" lon="9.05049">
        <ele>545</ele>
        <time>2021-08-02T08:11:25.329Z</time>
      </trkpt>
      <trkpt lat="47.04824" lon="9.05047">
        <ele>545</ele>
        <time>2021-08-02T08:11:26.328Z</time>
      </trkpt>
      <trkpt lat="47.04824" lon="9.05046">
        <ele>545</ele>
        <time>2021-08-02T08:11:27.329Z</time>
      </trkpt>
      <trkpt lat="47.04824" lon="9.05045">
        <ele>545</ele>
        <time>2021-08-02T08:11:28.328Z</time>
      </trkpt>
      <trkpt lat="47.04824" lon="9.05044">
        <ele>545</ele>
        <time>2021-08-02T08:11:29.329Z</time>
      </trkpt>
      <trkpt lat="47.04824" lon="9.05042">
        <ele>545</ele>
        <time>2021-08-02T08:11:30.329Z</time>
      </trkpt>
      <trkpt lat="47.04824" lon="9.0504">
        <ele>545</ele>
        <time>2021-08-02T08:11:31.329Z</time>
      </trkpt>
      <trkpt lat="47.04825" lon="9.05038">
        <ele>545</ele>
        <time>2021-08-02T08:11:32.329Z</time>
      </trkpt>
      <trkpt lat="47.04825" lon="9.05036">
        <ele>545</ele>
        <time>2021-08-02T08:11:33.329Z</time>
      </trkpt>
      <trkpt lat="47.04825" lon="9.05034">
        <ele>545</ele>
        <time>2021-08-02T08:11:34.329Z</time>
      </trkpt>
      <trkpt lat="47.04825" lon="9.05032">
        <ele>545</ele>
        <time>2021-08-02T08:11:35.329Z</time>
      </trkpt>
      <trkpt lat="47.04826" lon="9.0503">
        <ele>545</ele>
        <time>2021-08-02T08:11:36.328Z</time>
      </trkpt>
      <trkpt lat="47.04826" lon="9.05028">
        <ele>545</ele>
        <time>2021-08-02T08:11:37.329Z</time>
      </trkpt>
      <trkpt lat="47.04826" lon="9.05025">
        <ele>545</ele>
        <time>2021-08-02T08:11:38.329Z</time>
      </trkpt>
      <trkpt lat="47.04826" lon="9.05023">
        <ele>545</ele>
        <time>2021-08-02T08:11:39.329Z</time>
      </trkpt>
      <trkpt lat="47.04825" lon="9.05023">
        <ele>545</ele>
        <time>2021-08-02T08:11:40.329Z</time>
      </trkpt>
      <trkpt lat="47.04823" lon="9.05023">
        <ele>545</ele>
        <time>2021-08-02T08:11:41.328Z</time>
      </trkpt>
      <trkpt lat="47.0482" lon="9.05024">
        <ele>544</ele>
        <time>2021-08-02T08:11:42.329Z</time>
      </trkpt>
      <trkpt lat="47.0482" lon="9.05024">
        <ele>545</ele>
        <time>2021-08-02T08:11:43.329Z</time>
      </trkpt>
      <trkpt lat="47.0482" lon="9.05022">
        <ele>546</ele>
        <time>2021-08-02T08:11:44.329Z</time>
      </trkpt>
      <trkpt lat="47.04821" lon="9.0502">
        <ele>546</ele>
        <time>2021-08-02T08:11:45.328Z</time>
      </trkpt>
      <trkpt lat="47.04821" lon="9.05019">
        <ele>546</ele>
        <time>2021-08-02T08:11:46.329Z</time>
      </trkpt>
      <trkpt lat="47.04822" lon="9.05017">
        <ele>546</ele>
        <time>2021-08-02T08:11:47.329Z</time>
      </trkpt>
      <trkpt lat="47.04823" lon="9.05016">
        <ele>546</ele>
        <time>2021-08-02T08:11:48.328Z</time>
      </trkpt>
      <trkpt lat="47.04823" lon="9.05014">
        <ele>546</ele>
        <time>2021-08-02T08:11:49.328Z</time>
      </trkpt>
      <trkpt lat="47.04824" lon="9.05013">
        <ele>546</ele>
        <time>2021-08-02T08:11:50.328Z</time>
      </trkpt>
      <trkpt lat="47.04824" lon="9.05012">
        <ele>546</ele>
        <time>2021-08-02T08:11:51.329Z</time>
      </trkpt>
      <trkpt lat="47.04824" lon="9.05011">
        <ele>545</ele>
        <time>2021-08-02T08:11:52.329Z</time>
      </trkpt>
      <trkpt lat="47.04824" lon="9.05009">
        <ele>545</ele>
        <time>2021-08-02T08:11:53.329Z</time>
      </trkpt>
      <trkpt lat="47.04824" lon="9.05008">
        <ele>545</ele>
        <time>2021-08-02T08:11:54.329Z</time>
      </trkpt>
      <trkpt lat="47.04824" lon="9.05007">
        <ele>545</ele>
        <time>2021-08-02T08:11:55.329Z</time>
      </trkpt>
      <trkpt lat="47.04824" lon="9.05006">
        <ele>545</ele>
        <time>2021-08-02T08:11:56.329Z</time>
      </trkpt>
      <trkpt lat="47.04824" lon="9.05005">
        <ele>545</ele>
        <time>2021-08-02T08:11:57.329Z</time>
      </trkpt>
      <trkpt lat="47.04824" lon="9.05004">
        <ele>545</ele>
        <time>2021-08-02T08:11:58.329Z</time>
      </trkpt>
      <trkpt lat="47.04825" lon="9.05004">
        <ele>545</ele>
        <time>2021-08-02T08:11:59.329Z</time>
      </trkpt>
      <trkpt lat="47.04826" lon="9.05002">
        <ele>544</ele>
        <time>2021-08-02T08:12:00.329Z</time>
      </trkpt>
      <trkpt lat="47.04826" lon="9.05001">
        <ele>544</ele>
        <time>2021-08-02T08:12:01.329Z</time>
      </trkpt>
      <trkpt lat="47.04826" lon="9.04999">
        <ele>544</ele>
        <time>2021-08-02T08:12:02.328Z</time>
      </trkpt>
      <trkpt lat="47.04826" lon="9.04998">
        <ele>544</ele>
        <time>2021-08-02T08:12:03.329Z</time>
      </trkpt>
      <trkpt lat="47.04826" lon="9.04996">
        <ele>543</ele>
        <time>2021-08-02T08:12:04.329Z</time>
      </trkpt>
      <trkpt lat="47.04825" lon="9.04994">
        <ele>543</ele>
        <time>2021-08-02T08:12:05.329Z</time>
      </trkpt>
      <trkpt lat="47.04825" lon="9.04992">
        <ele>543</ele>
        <time>2021-08-02T08:12:06.328Z</time>
      </trkpt>
      <trkpt lat="47.04826" lon="9.0499">
        <ele>542</ele>
        <time>2021-08-02T08:12:07.329Z</time>
      </trkpt>
      <trkpt lat="47.04826" lon="9.04989">
        <ele>542</ele>
        <time>2021-08-02T08:12:08.328Z</time>
      </trkpt>
      <trkpt lat="47.04827" lon="9.04987">
        <ele>542</ele>
        <time>2021-08-02T08:12:09.329Z</time>
      </trkpt>
      <trkpt lat="47.04828" lon="9.04985">
        <ele>541</ele>
        <time>2021-08-02T08:12:10.329Z</time>
      </trkpt>
      <trkpt lat="47.04829" lon="9.04983">
        <ele>541</ele>
        <time>2021-08-02T08:12:11.328Z</time>
      </trkpt>
      <trkpt lat="47.04829" lon="9.04982">
        <ele>540</ele>
        <time>2021-08-02T08:12:12.329Z</time>
      </trkpt>
      <trkpt lat="47.0483" lon="9.0498">
        <ele>540</ele>
        <time>2021-08-02T08:12:13.329Z</time>
      </trkpt>
      <trkpt lat="47.0483" lon="9.04978">
        <ele>539</ele>
        <time>2021-08-02T08:12:14.329Z</time>
      </trkpt>
      <trkpt lat="47.0483" lon="9.04976">
        <ele>539</ele>
        <time>2021-08-02T08:12:15.329Z</time>
      </trkpt>
      <trkpt lat="47.0483" lon="9.04973">
        <ele>539</ele>
        <time>2021-08-02T08:12:16.329Z</time>
      </trkpt>
      <trkpt lat="47.04829" lon="9.04971">
        <ele>538</ele>
        <time>2021-08-02T08:12:17.329Z</time>
      </trkpt>
      <trkpt lat="47.04829" lon="9.04969">
        <ele>538</ele>
        <time>2021-08-02T08:12:18.329Z</time>
      </trkpt>
      <trkpt lat="47.04829" lon="9.04968">
        <ele>537</ele>
        <time>2021-08-02T08:12:19.328Z</time>
      </trkpt>
      <trkpt lat="47.0483" lon="9.04968">
        <ele>537</ele>
        <time>2021-08-02T08:12:20.328Z</time>
      </trkpt>
      <trkpt lat="47.0483" lon="9.04967">
        <ele>537</ele>
        <time>2021-08-02T08:12:21.328Z</time>
      </trkpt>
      <trkpt lat="47.0483" lon="9.04967">
        <ele>536</ele>
        <time>2021-08-02T08:12:22.329Z</time>
      </trkpt>
      <trkpt lat="47.0483" lon="9.04965">
        <ele>536</ele>
        <time>2021-08-02T08:12:23.329Z</time>
      </trkpt>
      <trkpt lat="47.0483" lon="9.04963">
        <ele>535</ele>
        <time>2021-08-02T08:12:24.328Z</time>
      </trkpt>
      <trkpt lat="47.0483" lon="9.04961">
        <ele>535</ele>
        <time>2021-08-02T08:12:25.329Z</time>
      </trkpt>
      <trkpt lat="47.0483" lon="9.04959">
        <ele>535</ele>
        <time>2021-08-02T08:12:26.328Z</time>
      </trkpt>
      <trkpt lat="47.0483" lon="9.04957">
        <ele>534</ele>
        <time>2021-08-02T08:12:27.329Z</time>
      </trkpt>
      <trkpt lat="47.0483" lon="9.04956">
        <ele>534</ele>
        <time>2021-08-02T08:12:28.329Z</time>
      </trkpt>
      <trkpt lat="47.0483" lon="9.04954">
        <ele>534</ele>
        <time>2021-08-02T08:12:29.329Z</time>
      </trkpt>
      <trkpt lat="47.0483" lon="9.04953">
        <ele>534</ele>
        <time>2021-08-02T08:12:30.328Z</time>
      </trkpt>
      <trkpt lat="47.0483" lon="9.04951">
        <ele>534</ele>
        <time>2021-08-02T08:12:31.329Z</time>
      </trkpt>
      <trkpt lat="47.0483" lon="9.04949">
        <ele>534</ele>
        <time>2021-08-02T08:12:32.328Z</time>
      </trkpt>
      <trkpt lat="47.04831" lon="9.04948">
        <ele>534</ele>
        <time>2021-08-02T08:12:33.329Z</time>
      </trkpt>
      <trkpt lat="47.04831" lon="9.04946">
        <ele>534</ele>
        <time>2021-08-02T08:12:34.328Z</time>
      </trkpt>
      <trkpt lat="47.04831" lon="9.04945">
        <ele>534</ele>
        <time>2021-08-02T08:12:35.329Z</time>
      </trkpt>
      <trkpt lat="47.04832" lon="9.04944">
        <ele>534</ele>
        <time>2021-08-02T08:12:36.329Z</time>
      </trkpt>
      <trkpt lat="47.04832" lon="9.04944">
        <ele>534</ele>
        <time>2021-08-02T08:12:37.329Z</time>
      </trkpt>
      <trkpt lat="47.04833" lon="9.04942">
        <ele>533</ele>
        <time>2021-08-02T08:12:38.329Z</time>
      </trkpt>
      <trkpt lat="47.04833" lon="9.04941">
        <ele>533</ele>
        <time>2021-08-02T08:12:39.328Z</time>
      </trkpt>
      <trkpt lat="47.04833" lon="9.0494">
        <ele>533</ele>
        <time>2021-08-02T08:12:40.328Z</time>
      </trkpt>
      <trkpt lat="47.04834" lon="9.0494">
        <ele>532</ele>
        <time>2021-08-02T08:12:41.329Z</time>
      </trkpt>
      <trkpt lat="47.04834" lon="9.0494">
        <ele>532</ele>
        <time>2021-08-02T08:12:42.328Z</time>
      </trkpt>
      <trkpt lat="47.04835" lon="9.04939">
        <ele>532</ele>
        <time>2021-08-02T08:12:43.329Z</time>
      </trkpt>
      <trkpt lat="47.04836" lon="9.04939">
        <ele>532</ele>
        <time>2021-08-02T08:12:44.329Z</time>
      </trkpt>
      <trkpt lat="47.04836" lon="9.04939">
        <ele>532</ele>
        <time>2021-08-02T08:12:45.328Z</time>
      </trkpt>
      <trkpt lat="47.04837" lon="9.04939">
        <ele>532</ele>
        <time>2021-08-02T08:12:46.328Z</time>
      </trkpt>
      <trkpt lat="47.04838" lon="9.04939">
        <ele>532</ele>
        <time>2021-08-02T08:12:47.329Z</time>
      </trkpt>
      <trkpt lat="47.04839" lon="9.04939">
        <ele>532</ele>
        <time>2021-08-02T08:12:48.329Z</time>
      </trkpt>
      <trkpt lat="47.04839" lon="9.04938">
        <ele>533</ele>
        <time>2021-08-02T08:12:49.328Z</time>
      </trkpt>
      <trkpt lat="47.0484" lon="9.04938">
        <ele>533</ele>
        <time>2021-08-02T08:12:50.329Z</time>
      </trkpt>
      <trkpt lat="47.04841" lon="9.04938">
        <ele>534</ele>
        <time>2021-08-02T08:12:51.329Z</time>
      </trkpt>
      <trkpt lat="47.04842" lon="9.04937">
        <ele>535</ele>
        <time>2021-08-02T08:12:52.329Z</time>
      </trkpt>
      <trkpt lat="47.04843" lon="9.04937">
        <ele>536</ele>
        <time>2021-08-02T08:12:53.329Z</time>
      </trkpt>
      <trkpt lat="47.04844" lon="9.04936">
        <ele>536</ele>
        <time>2021-08-02T08:12:54.328Z</time>
      </trkpt>
      <trkpt lat="47.04844" lon="9.04936">
        <ele>537</ele>
        <time>2021-08-02T08:12:55.329Z</time>
      </trkpt>
      <trkpt lat="47.04845" lon="9.04935">
        <ele>537</ele>
        <time>2021-08-02T08:12:56.328Z</time>
      </trkpt>
      <trkpt lat="47.04845" lon="9.04934">
        <ele>538</ele>
        <time>2021-08-02T08:12:57.328Z</time>
      </trkpt>
      <trkpt lat="47.04845" lon="9.04933">
        <ele>538</ele>
        <time>2021-08-02T08:12:58.329Z</time>
      </trkpt>
      <trkpt lat="47.04845" lon="9.04933">
        <ele>538</ele>
        <time>2021-08-02T08:12:59.328Z</time>
      </trkpt>
      <trkpt lat="47.04844" lon="9.04933">
        <ele>538</ele>
        <time>2021-08-02T08:13:00.329Z</time>
      </trkpt>
      <trkpt lat="47.04844" lon="9.04933">
        <ele>538</ele>
        <time>2021-08-02T08:13:01.329Z</time>
      </trkpt>
      <trkpt lat="47.04844" lon="9.04934">
        <ele>537</ele>
        <time>2021-08-02T08:13:02.328Z</time>
      </trkpt>
      <trkpt lat="47.04841" lon="9.04931">
        <ele>537</ele>
        <time>2021-08-02T08:13:03.328Z</time>
      </trkpt>
      <trkpt lat="47.0484" lon="9.04929">
        <ele>537</ele>
        <time>2021-08-02T08:13:04.328Z</time>
      </trkpt>
      <trkpt lat="47.0484" lon="9.04928">
        <ele>536</ele>
        <time>2021-08-02T08:13:05.328Z</time>
      </trkpt>
      <trkpt lat="47.0484" lon="9.04928">
        <ele>536</ele>
        <time>2021-08-02T08:13:06.328Z</time>
      </trkpt>
      <trkpt lat="47.0484" lon="9.04928">
        <ele>536</ele>
        <time>2021-08-02T08:13:07.328Z</time>
      </trkpt>
      <trkpt lat="47.04839" lon="9.04927">
        <ele>536</ele>
        <time>2021-08-02T08:13:08.329Z</time>
      </trkpt>
      <trkpt lat="47.04839" lon="9.04926">
        <ele>536</ele>
        <time>2021-08-02T08:13:09.328Z</time>
      </trkpt>
      <trkpt lat="47.04838" lon="9.04925">
        <ele>536</ele>
        <time>2021-08-02T08:13:10.328Z</time>
      </trkpt>
      <trkpt lat="47.04838" lon="9.04924">
        <ele>537</ele>
        <time>2021-08-02T08:13:11.328Z</time>
      </trkpt>
      <trkpt lat="47.04838" lon="9.04923">
        <ele>537</ele>
        <time>2021-08-02T08:13:12.328Z</time>
      </trkpt>
      <trkpt lat="47.04838" lon="9.0492">
        <ele>538</ele>
        <time>2021-08-02T08:13:13.328Z</time>
      </trkpt>
      <trkpt lat="47.04838" lon="9.04919">
        <ele>538</ele>
        <time>2021-08-02T08:13:14.328Z</time>
      </trkpt>
      <trkpt lat="47.04838" lon="9.04918">
        <ele>539</ele>
        <time>2021-08-02T08:13:15.328Z</time>
      </trkpt>
      <trkpt lat="47.04838" lon="9.04917">
        <ele>540</ele>
        <time>2021-08-02T08:13:16.328Z</time>
      </trkpt>
      <trkpt lat="47.04838" lon="9.04916">
        <ele>540</ele>
        <time>2021-08-02T08:13:17.328Z</time>
      </trkpt>
      <trkpt lat="47.04838" lon="9.04914">
        <ele>541</ele>
        <time>2021-08-02T08:13:18.329Z</time>
      </trkpt>
      <trkpt lat="47.04838" lon="9.04913">
        <ele>542</ele>
        <time>2021-08-02T08:13:19.329Z</time>
      </trkpt>
      <trkpt lat="47.04838" lon="9.04911">
        <ele>543</ele>
        <time>2021-08-02T08:13:20.329Z</time>
      </trkpt>
      <trkpt lat="47.04839" lon="9.0491">
        <ele>544</ele>
        <time>2021-08-02T08:13:21.329Z</time>
      </trkpt>
      <trkpt lat="47.04839" lon="9.04908">
        <ele>545</ele>
        <time>2021-08-02T08:13:22.328Z</time>
      </trkpt>
      <trkpt lat="47.0484" lon="9.04906">
        <ele>546</ele>
        <time>2021-08-02T08:13:23.329Z</time>
      </trkpt>
      <trkpt lat="47.0484" lon="9.04905">
        <ele>547</ele>
        <time>2021-08-02T08:13:24.329Z</time>
      </trkpt>
      <trkpt lat="47.0484" lon="9.04903">
        <ele>549</ele>
        <time>2021-08-02T08:13:25.329Z</time>
      </trkpt>
      <trkpt lat="47.04841" lon="9.04902">
        <ele>550</ele>
        <time>2021-08-02T08:13:26.328Z</time>
      </trkpt>
      <trkpt lat="47.04841" lon="9.049">
        <ele>551</ele>
        <time>2021-08-02T08:13:27.328Z</time>
      </trkpt>
      <trkpt lat="47.04842" lon="9.04899">
        <ele>552</ele>
        <time>2021-08-02T08:13:28.329Z</time>
      </trkpt>
      <trkpt lat="47.04843" lon="9.04897">
        <ele>553</ele>
        <time>2021-08-02T08:13:29.329Z</time>
      </trkpt>
      <trkpt lat="47.04844" lon="9.04895">
        <ele>554</ele>
        <time>2021-08-02T08:13:30.329Z</time>
      </trkpt>
      <trkpt lat="47.04844" lon="9.04894">
        <ele>555</ele>
        <time>2021-08-02T08:13:31.328Z</time>
      </trkpt>
      <trkpt lat="47.04844" lon="9.04892">
        <ele>556</ele>
        <time>2021-08-02T08:13:32.328Z</time>
      </trkpt>
      <trkpt lat="47.04846" lon="9.0489">
        <ele>557</ele>
        <time>2021-08-02T08:13:33.329Z</time>
      </trkpt>
      <trkpt lat="47.04846" lon="9.04889">
        <ele>558</ele>
        <time>2021-08-02T08:13:34.329Z</time>
      </trkpt>
      <trkpt lat="47.04847" lon="9.04887">
        <ele>559</ele>
        <time>2021-08-02T08:13:35.329Z</time>
      </trkpt>
      <trkpt lat="47.04847" lon="9.04885">
        <ele>560</ele>
        <time>2021-08-02T08:13:36.329Z</time>
      </trkpt>
      <trkpt lat="47.04847" lon="9.04884">
        <ele>561</ele>
        <time>2021-08-02T08:13:37.329Z</time>
      </trkpt>
      <trkpt lat="47.04847" lon="9.04882">
        <ele>562</ele>
        <time>2021-08-02T08:13:38.329Z</time>
      </trkpt>
      <trkpt lat="47.04847" lon="9.0488">
        <ele>563</ele>
        <time>2021-08-02T08:13:39.329Z</time>
      </trkpt>
      <trkpt lat="47.04846" lon="9.04879">
        <ele>563</ele>
        <time>2021-08-02T08:13:40.328Z</time>
      </trkpt>
      <trkpt lat="47.04844" lon="9.04877">
        <ele>563</ele>
        <time>2021-08-02T08:13:41.329Z</time>
      </trkpt>
      <trkpt lat="47.04843" lon="9.04875">
        <ele>562</ele>
        <time>2021-08-02T08:13:42.328Z</time>
      </trkpt>
      <trkpt lat="47.04841" lon="9.04873">
        <ele>561</ele>
        <time>2021-08-02T08:13:43.329Z</time>
      </trkpt>
      <trkpt lat="47.04841" lon="9.04872">
        <ele>560</ele>
        <time>2021-08-02T08:13:44.329Z</time>
      </trkpt>
      <trkpt lat="47.0484" lon="9.0487">
        <ele>559</ele>
        <time>2021-08-02T08:13:45.328Z</time>
      </trkpt>
      <trkpt lat="47.04839" lon="9.04868">
        <ele>558</ele>
        <time>2021-08-02T08:13:46.329Z</time>
      </trkpt>
      <trkpt lat="47.04838" lon="9.04867">
        <ele>557</ele>
        <time>2021-08-02T08:13:47.329Z</time>
      </trkpt>
      <trkpt lat="47.04837" lon="9.04865">
        <ele>556</ele>
        <time>2021-08-02T08:13:48.329Z</time>
      </trkpt>
      <trkpt lat="47.04837" lon="9.04864">
        <ele>554</ele>
        <time>2021-08-02T08:13:49.328Z</time>
      </trkpt>
      <trkpt lat="47.04837" lon="9.04862">
        <ele>553</ele>
        <time>2021-08-02T08:13:50.329Z</time>
      </trkpt>
      <trkpt lat="47.04836" lon="9.04861">
        <ele>552</ele>
        <time>2021-08-02T08:13:51.329Z</time>
      </trkpt>
      <trkpt lat="47.04835" lon="9.04859">
        <ele>551</ele>
        <time>2021-08-02T08:13:52.329Z</time>
      </trkpt>
      <trkpt lat="47.04834" lon="9.04858">
        <ele>550</ele>
        <time>2021-08-02T08:13:53.329Z</time>
      </trkpt>
      <trkpt lat="47.04833" lon="9.04857">
        <ele>549</ele>
        <time>2021-08-02T08:13:54.328Z</time>
      </trkpt>
      <trkpt lat="47.04833" lon="9.04855">
        <ele>548</ele>
        <time>2021-08-02T08:13:55.328Z</time>
      </trkpt>
      <trkpt lat="47.04833" lon="9.04854">
        <ele>547</ele>
        <time>2021-08-02T08:13:56.328Z</time>
      </trkpt>
      <trkpt lat="47.04833" lon="9.04852">
        <ele>547</ele>
        <time>2021-08-02T08:13:57.328Z</time>
      </trkpt>
      <trkpt lat="47.04832" lon="9.04851">
        <ele>546</ele>
        <time>2021-08-02T08:13:58.329Z</time>
      </trkpt>
      <trkpt lat="47.04831" lon="9.04849">
        <ele>546</ele>
        <time>2021-08-02T08:13:59.329Z</time>
      </trkpt>
      <trkpt lat="47.0483" lon="9.04847">
        <ele>546</ele>
        <time>2021-08-02T08:14:00.329Z</time>
      </trkpt>
      <trkpt lat="47.0483" lon="9.04845">
        <ele>545</ele>
        <time>2021-08-02T08:14:01.329Z</time>
      </trkpt>
      <trkpt lat="47.0483" lon="9.04843">
        <ele>545</ele>
        <time>2021-08-02T08:14:02.329Z</time>
      </trkpt>
      <trkpt lat="47.0483" lon="9.04842">
        <ele>545</ele>
        <time>2021-08-02T08:14:03.329Z</time>
      </trkpt>
      <trkpt lat="47.04829" lon="9.0484">
        <ele>544</ele>
        <time>2021-08-02T08:14:04.329Z</time>
      </trkpt>
      <trkpt lat="47.04829" lon="9.04838">
        <ele>544</ele>
        <time>2021-08-02T08:14:05.329Z</time>
      </trkpt>
      <trkpt lat="47.04828" lon="9.04837">
        <ele>543</ele>
        <time>2021-08-02T08:14:06.329Z</time>
      </trkpt>
      <trkpt lat="47.04828" lon="9.04836">
        <ele>543</ele>
        <time>2021-08-02T08:14:07.329Z</time>
      </trkpt>
      <trkpt lat="47.04827" lon="9.04834">
        <ele>542</ele>
        <time>2021-08-02T08:14:08.329Z</time>
      </trkpt>
      <trkpt lat="47.04827" lon="9.04833">
        <ele>542</ele>
        <time>2021-08-02T08:14:09.328Z</time>
      </trkpt>
      <trkpt lat="47.04827" lon="9.04831">
        <ele>542</ele>
        <time>2021-08-02T08:14:10.328Z</time>
      </trkpt>
      <trkpt lat="47.04826" lon="9.04831">
        <ele>541</ele>
        <time>2021-08-02T08:14:11.329Z</time>
      </trkpt>
      <trkpt lat="47.04826" lon="9.04831">
        <ele>541</ele>
        <time>2021-08-02T08:14:12.329Z</time>
      </trkpt>
      <trkpt lat="47.04825" lon="9.04831">
        <ele>540</ele>
        <time>2021-08-02T08:14:13.329Z</time>
      </trkpt>
      <trkpt lat="47.04825" lon="9.04831">
        <ele>536</ele>
        <time>2021-08-02T08:14:14.329Z</time>
      </trkpt>
      <trkpt lat="47.04825" lon="9.0483">
        <ele>536</ele>
        <time>2021-08-02T08:14:15.330Z</time>
      </trkpt>
      <trkpt lat="47.04826" lon="9.04829">
        <ele>536</ele>
        <time>2021-08-02T08:14:16.330Z</time>
      </trkpt>
      <trkpt lat="47.04827" lon="9.04826">
        <ele>536</ele>
        <time>2021-08-02T08:14:17.329Z</time>
      </trkpt>
      <trkpt lat="47.04828" lon="9.04825">
        <ele>536</ele>
        <time>2021-08-02T08:14:18.330Z</time>
      </trkpt>
      <trkpt lat="47.04828" lon="9.04824">
        <ele>536</ele>
        <time>2021-08-02T08:14:19.329Z</time>
      </trkpt>
      <trkpt lat="47.04828" lon="9.04823">
        <ele>536</ele>
        <time>2021-08-02T08:14:20.330Z</time>
      </trkpt>
      <trkpt lat="47.04828" lon="9.04821">
        <ele>536</ele>
        <time>2021-08-02T08:14:21.330Z</time>
      </trkpt>
      <trkpt lat="47.04828" lon="9.0482">
        <ele>535</ele>
        <time>2021-08-02T08:14:22.330Z</time>
      </trkpt>
      <trkpt lat="47.04827" lon="9.04818">
        <ele>535</ele>
        <time>2021-08-02T08:14:23.330Z</time>
      </trkpt>
      <trkpt lat="47.04826" lon="9.04817">
        <ele>534</ele>
        <time>2021-08-02T08:14:24.329Z</time>
      </trkpt>
      <trkpt lat="47.04826" lon="9.04815">
        <ele>534</ele>
        <time>2021-08-02T08:14:25.330Z</time>
      </trkpt>
      <trkpt lat="47.04826" lon="9.04814">
        <ele>533</ele>
        <time>2021-08-02T08:14:26.330Z</time>
      </trkpt>
      <trkpt lat="47.04825" lon="9.04813">
        <ele>533</ele>
        <time>2021-08-02T08:14:27.329Z</time>
      </trkpt>
      <trkpt lat="47.04825" lon="9.04812">
        <ele>533</ele>
        <time>2021-08-02T08:14:28.329Z</time>
      </trkpt>
      <trkpt lat="47.04826" lon="9.0481">
        <ele>533</ele>
        <time>2021-08-02T08:14:29.329Z</time>
      </trkpt>
      <trkpt lat="47.04826" lon="9.04808">
        <ele>533</ele>
        <time>2021-08-02T08:14:30.330Z</time>
      </trkpt>
      <trkpt lat="47.04827" lon="9.04807">
        <ele>534</ele>
        <time>2021-08-02T08:14:31.329Z</time>
      </trkpt>
      <trkpt lat="47.04827" lon="9.04805">
        <ele>534</ele>
        <time>2021-08-02T08:14:32.329Z</time>
      </trkpt>
      <trkpt lat="47.04827" lon="9.04804">
        <ele>535</ele>
        <time>2021-08-02T08:14:33.329Z</time>
      </trkpt>
      <trkpt lat="47.04827" lon="9.04803">
        <ele>535</ele>
        <time>2021-08-02T08:14:34.329Z</time>
      </trkpt>
      <trkpt lat="47.04826" lon="9.04801">
        <ele>536</ele>
        <time>2021-08-02T08:14:35.329Z</time>
      </trkpt>
      <trkpt lat="47.04825" lon="9.048">
        <ele>536</ele>
        <time>2021-08-02T08:14:36.329Z</time>
      </trkpt>
      <trkpt lat="47.04825" lon="9.04799">
        <ele>537</ele>
        <time>2021-08-02T08:14:37.329Z</time>
      </trkpt>
      <trkpt lat="47.04824" lon="9.04798">
        <ele>537</ele>
        <time>2021-08-02T08:14:38.329Z</time>
      </trkpt>
      <trkpt lat="47.04824" lon="9.04797">
        <ele>538</ele>
        <time>2021-08-02T08:14:39.329Z</time>
      </trkpt>
      <trkpt lat="47.04824" lon="9.04795">
        <ele>539</ele>
        <time>2021-08-02T08:14:40.329Z</time>
      </trkpt>
      <trkpt lat="47.04824" lon="9.04794">
        <ele>540</ele>
        <time>2021-08-02T08:14:41.330Z</time>
      </trkpt>
      <trkpt lat="47.04824" lon="9.04793">
        <ele>540</ele>
        <time>2021-08-02T08:14:42.329Z</time>
      </trkpt>
      <trkpt lat="47.04824" lon="9.04791">
        <ele>541</ele>
        <time>2021-08-02T08:14:43.330Z</time>
      </trkpt>
      <trkpt lat="47.04824" lon="9.0479">
        <ele>541</ele>
        <time>2021-08-02T08:14:44.329Z</time>
      </trkpt>
      <trkpt lat="47.04824" lon="9.04788">
        <ele>541</ele>
        <time>2021-08-02T08:14:45.329Z</time>
      </trkpt>
      <trkpt lat="47.04824" lon="9.04787">
        <ele>541</ele>
        <time>2021-08-02T08:14:46.329Z</time>
      </trkpt>
      <trkpt lat="47.04824" lon="9.04785">
        <ele>542</ele>
        <time>2021-08-02T08:14:47.329Z</time>
      </trkpt>
      <trkpt lat="47.04824" lon="9.04784">
        <ele>542</ele>
        <time>2021-08-02T08:14:48.329Z</time>
      </trkpt>
      <trkpt lat="47.04824" lon="9.04783">
        <ele>543</ele>
        <time>2021-08-02T08:14:49.329Z</time>
      </trkpt>
      <trkpt lat="47.04824" lon="9.04782">
        <ele>543</ele>
        <time>2021-08-02T08:14:50.329Z</time>
      </trkpt>
      <trkpt lat="47.04824" lon="9.04781">
        <ele>543</ele>
        <time>2021-08-02T08:14:51.329Z</time>
      </trkpt>
      <trkpt lat="47.04824" lon="9.0478">
        <ele>543</ele>
        <time>2021-08-02T08:14:52.330Z</time>
      </trkpt>
      <trkpt lat="47.04824" lon="9.04779">
        <ele>542</ele>
        <time>2021-08-02T08:14:53.330Z</time>
      </trkpt>
      <trkpt lat="47.04824" lon="9.04777">
        <ele>542</ele>
        <time>2021-08-02T08:14:54.329Z</time>
      </trkpt>
      <trkpt lat="47.04825" lon="9.04776">
        <ele>542</ele>
        <time>2021-08-02T08:14:55.330Z</time>
      </trkpt>
      <trkpt lat="47.04825" lon="9.04774">
        <ele>542</ele>
        <time>2021-08-02T08:14:56.330Z</time>
      </trkpt>
      <trkpt lat="47.04825" lon="9.04773">
        <ele>542</ele>
        <time>2021-08-02T08:14:57.330Z</time>
      </trkpt>
      <trkpt lat="47.04824" lon="9.04772">
        <ele>542</ele>
        <time>2021-08-02T08:14:58.330Z</time>
      </trkpt>
      <trkpt lat="47.04824" lon="9.04771">
        <ele>542</ele>
        <time>2021-08-02T08:14:59.329Z</time>
      </trkpt>
      <trkpt lat="47.04824" lon="9.04769">
        <ele>542</ele>
        <time>2021-08-02T08:15:00.330Z</time>
      </trkpt>
      <trkpt lat="47.04825" lon="9.04768">
        <ele>542</ele>
        <time>2021-08-02T08:15:01.330Z</time>
      </trkpt>
      <trkpt lat="47.04825" lon="9.04767">
        <ele>542</ele>
        <time>2021-08-02T08:15:02.330Z</time>
      </trkpt>
      <trkpt lat="47.04825" lon="9.04765">
        <ele>542</ele>
        <time>2021-08-02T08:15:03.330Z</time>
      </trkpt>
      <trkpt lat="47.04826" lon="9.04764">
        <ele>542</ele>
        <time>2021-08-02T08:15:04.330Z</time>
      </trkpt>
      <trkpt lat="47.04826" lon="9.04762">
        <ele>541</ele>
        <time>2021-08-02T08:15:05.329Z</time>
      </trkpt>
      <trkpt lat="47.04826" lon="9.04761">
        <ele>541</ele>
        <time>2021-08-02T08:15:06.329Z</time>
      </trkpt>
      <trkpt lat="47.04827" lon="9.0476">
        <ele>541</ele>
        <time>2021-08-02T08:15:07.329Z</time>
      </trkpt>
      <trkpt lat="47.04827" lon="9.04758">
        <ele>541</ele>
        <time>2021-08-02T08:15:08.330Z</time>
      </trkpt>
      <trkpt lat="47.04828" lon="9.04757">
        <ele>541</ele>
        <time>2021-08-02T08:15:09.330Z</time>
      </trkpt>
      <trkpt lat="47.04829" lon="9.04756">
        <ele>541</ele>
        <time>2021-08-02T08:15:10.330Z</time>
      </trkpt>
      <trkpt lat="47.04829" lon="9.04754">
        <ele>542</ele>
        <time>2021-08-02T08:15:11.330Z</time>
      </trkpt>
      <trkpt lat="47.04829" lon="9.04753">
        <ele>542</ele>
        <time>2021-08-02T08:15:12.330Z</time>
      </trkpt>
      <trkpt lat="47.04829" lon="9.04751">
        <ele>543</ele>
        <time>2021-08-02T08:15:13.329Z</time>
      </trkpt>
      <trkpt lat="47.0483" lon="9.04749">
        <ele>543</ele>
        <time>2021-08-02T08:15:14.330Z</time>
      </trkpt>
      <trkpt lat="47.0483" lon="9.04748">
        <ele>544</ele>
        <time>2021-08-02T08:15:15.330Z</time>
      </trkpt>
      <trkpt lat="47.0483" lon="9.04746">
        <ele>544</ele>
        <time>2021-08-02T08:15:16.329Z</time>
      </trkpt>
      <trkpt lat="47.0483" lon="9.04744">
        <ele>544</ele>
        <time>2021-08-02T08:15:17.330Z</time>
      </trkpt>
      <trkpt lat="47.0483" lon="9.04743">
        <ele>544</ele>
        <time>2021-08-02T08:15:18.330Z</time>
      </trkpt>
      <trkpt lat="47.0483" lon="9.04741">
        <ele>544</ele>
        <time>2021-08-02T08:15:19.330Z</time>
      </trkpt>
      <trkpt lat="47.04831" lon="9.0474">
        <ele>544</ele>
        <time>2021-08-02T08:15:20.330Z</time>
      </trkpt>
      <trkpt lat="47.04831" lon="9.04738">
        <ele>544</ele>
        <time>2021-08-02T08:15:21.330Z</time>
      </trkpt>
      <trkpt lat="47.04831" lon="9.04737">
        <ele>543</ele>
        <time>2021-08-02T08:15:22.330Z</time>
      </trkpt>
      <trkpt lat="47.0483" lon="9.04735">
        <ele>543</ele>
        <time>2021-08-02T08:15:23.330Z</time>
      </trkpt>
      <trkpt lat="47.04829" lon="9.04734">
        <ele>543</ele>
        <time>2021-08-02T08:15:24.330Z</time>
      </trkpt>
      <trkpt lat="47.04828" lon="9.04732">
        <ele>542</ele>
        <time>2021-08-02T08:15:25.329Z</time>
      </trkpt>
      <trkpt lat="47.04828" lon="9.04731">
        <ele>542</ele>
        <time>2021-08-02T08:15:26.330Z</time>
      </trkpt>
      <trkpt lat="47.04828" lon="9.04729">
        <ele>541</ele>
        <time>2021-08-02T08:15:27.329Z</time>
      </trkpt>
      <trkpt lat="47.04827" lon="9.04727">
        <ele>541</ele>
        <time>2021-08-02T08:15:28.330Z</time>
      </trkpt>
      <trkpt lat="47.04827" lon="9.04726">
        <ele>541</ele>
        <time>2021-08-02T08:15:29.329Z</time>
      </trkpt>
      <trkpt lat="47.04826" lon="9.04725">
        <ele>541</ele>
        <time>2021-08-02T08:15:30.330Z</time>
      </trkpt>
      <trkpt lat="47.04826" lon="9.04723">
        <ele>541</ele>
        <time>2021-08-02T08:15:31.330Z</time>
      </trkpt>
      <trkpt lat="47.04826" lon="9.04722">
        <ele>542</ele>
        <time>2021-08-02T08:15:32.330Z</time>
      </trkpt>
      <trkpt lat="47.04826" lon="9.04721">
        <ele>542</ele>
        <time>2021-08-02T08:15:33.330Z</time>
      </trkpt>
      <trkpt lat="47.04825" lon="9.0472">
        <ele>542</ele>
        <time>2021-08-02T08:15:34.329Z</time>
      </trkpt>
      <trkpt lat="47.04825" lon="9.04718">
        <ele>542</ele>
        <time>2021-08-02T08:15:35.330Z</time>
      </trkpt>
      <trkpt lat="47.04824" lon="9.04717">
        <ele>542</ele>
        <time>2021-08-02T08:15:36.329Z</time>
      </trkpt>
      <trkpt lat="47.04823" lon="9.04716">
        <ele>542</ele>
        <time>2021-08-02T08:15:37.330Z</time>
      </trkpt>
      <trkpt lat="47.04822" lon="9.04714">
        <ele>542</ele>
        <time>2021-08-02T08:15:38.329Z</time>
      </trkpt>
      <trkpt lat="47.04821" lon="9.04713">
        <ele>542</ele>
        <time>2021-08-02T08:15:39.329Z</time>
      </trkpt>
      <trkpt lat="47.0482" lon="9.04712">
        <ele>542</ele>
        <time>2021-08-02T08:15:40.330Z</time>
      </trkpt>
      <trkpt lat="47.0482" lon="9.0471">
        <ele>541</ele>
        <time>2021-08-02T08:15:41.330Z</time>
      </trkpt>
      <trkpt lat="47.04819" lon="9.04709">
        <ele>541</ele>
        <time>2021-08-02T08:15:42.330Z</time>
      </trkpt>
      <trkpt lat="47.04818" lon="9.04708">
        <ele>541</ele>
        <time>2021-08-02T08:15:43.329Z</time>
      </trkpt>
      <trkpt lat="47.04818" lon="9.04706">
        <ele>542</ele>
        <time>2021-08-02T08:15:44.330Z</time>
      </trkpt>
      <trkpt lat="47.04817" lon="9.04704">
        <ele>542</ele>
        <time>2021-08-02T08:15:45.330Z</time>
      </trkpt>
      <trkpt lat="47.04816" lon="9.04702">
        <ele>543</ele>
        <time>2021-08-02T08:15:46.330Z</time>
      </trkpt>
      <trkpt lat="47.04815" lon="9.04702">
        <ele>543</ele>
        <time>2021-08-02T08:15:47.330Z</time>
      </trkpt>
      <trkpt lat="47.04814" lon="9.04701">
        <ele>544</ele>
        <time>2021-08-02T08:15:48.330Z</time>
      </trkpt>
      <trkpt lat="47.04812" lon="9.04699">
        <ele>544</ele>
        <time>2021-08-02T08:15:49.329Z</time>
      </trkpt>
      <trkpt lat="47.04811" lon="9.04698">
        <ele>544</ele>
        <time>2021-08-02T08:15:50.329Z</time>
      </trkpt>
      <trkpt lat="47.0481" lon="9.04696">
        <ele>545</ele>
        <time>2021-08-02T08:15:51.330Z</time>
      </trkpt>
      <trkpt lat="47.04809" lon="9.04695">
        <ele>545</ele>
        <time>2021-08-02T08:15:52.329Z</time>
      </trkpt>
      <trkpt lat="47.04809" lon="9.04694">
        <ele>545</ele>
        <time>2021-08-02T08:15:53.330Z</time>
      </trkpt>
      <trkpt lat="47.04808" lon="9.04692">
        <ele>546</ele>
        <time>2021-08-02T08:15:54.330Z</time>
      </trkpt>
      <trkpt lat="47.04807" lon="9.04691">
        <ele>546</ele>
        <time>2021-08-02T08:15:55.330Z</time>
      </trkpt>
      <trkpt lat="47.04806" lon="9.0469">
        <ele>547</ele>
        <time>2021-08-02T08:15:56.330Z</time>
      </trkpt>
      <trkpt lat="47.04806" lon="9.04689">
        <ele>547</ele>
        <time>2021-08-02T08:15:57.330Z</time>
      </trkpt>
      <trkpt lat="47.04805" lon="9.04689">
        <ele>547</ele>
        <time>2021-08-02T08:15:58.329Z</time>
      </trkpt>
      <trkpt lat="47.04804" lon="9.04688">
        <ele>547</ele>
        <time>2021-08-02T08:15:59.330Z</time>
      </trkpt>
      <trkpt lat="47.04804" lon="9.04688">
        <ele>547</ele>
        <time>2021-08-02T08:16:00.330Z</time>
      </trkpt>
      <trkpt lat="47.04803" lon="9.04687">
        <ele>546</ele>
        <time>2021-08-02T08:16:01.330Z</time>
      </trkpt>
      <trkpt lat="47.04802" lon="9.04686">
        <ele>546</ele>
        <time>2021-08-02T08:16:02.330Z</time>
      </trkpt>
      <trkpt lat="47.04801" lon="9.04685">
        <ele>545</ele>
        <time>2021-08-02T08:16:03.330Z</time>
      </trkpt>
      <trkpt lat="47.048" lon="9.04684">
        <ele>545</ele>
        <time>2021-08-02T08:16:04.330Z</time>
      </trkpt>
      <trkpt lat="47.04799" lon="9.04683">
        <ele>544</ele>
        <time>2021-08-02T08:16:05.330Z</time>
      </trkpt>
      <trkpt lat="47.04799" lon="9.04682">
        <ele>544</ele>
        <time>2021-08-02T08:16:06.330Z</time>
      </trkpt>
      <trkpt lat="47.04798" lon="9.04681">
        <ele>544</ele>
        <time>2021-08-02T08:16:07.330Z</time>
      </trkpt>
      <trkpt lat="47.04797" lon="9.0468">
        <ele>543</ele>
        <time>2021-08-02T08:16:08.329Z</time>
      </trkpt>
      <trkpt lat="47.04796" lon="9.04679">
        <ele>543</ele>
        <time>2021-08-02T08:16:09.329Z</time>
      </trkpt>
      <trkpt lat="47.04795" lon="9.04678">
        <ele>543</ele>
        <time>2021-08-02T08:16:10.330Z</time>
      </trkpt>
      <trkpt lat="47.04795" lon="9.04677">
        <ele>542</ele>
        <time>2021-08-02T08:16:11.330Z</time>
      </trkpt>
      <trkpt lat="47.04794" lon="9.04676">
        <ele>541</ele>
        <time>2021-08-02T08:16:12.330Z</time>
      </trkpt>
      <trkpt lat="47.04794" lon="9.04676">
        <ele>541</ele>
        <time>2021-08-02T08:16:13.330Z</time>
      </trkpt>
      <trkpt lat="47.04793" lon="9.04674">
        <ele>540</ele>
        <time>2021-08-02T08:16:14.330Z</time>
      </trkpt>
      <trkpt lat="47.04792" lon="9.04673">
        <ele>540</ele>
        <time>2021-08-02T08:16:15.330Z</time>
      </trkpt>
      <trkpt lat="47.04791" lon="9.04671">
        <ele>540</ele>
        <time>2021-08-02T08:16:16.330Z</time>
      </trkpt>
      <trkpt lat="47.04791" lon="9.04669">
        <ele>540</ele>
        <time>2021-08-02T08:16:17.330Z</time>
      </trkpt>
      <trkpt lat="47.04791" lon="9.04667">
        <ele>540</ele>
        <time>2021-08-02T08:16:18.330Z</time>
      </trkpt>
      <trkpt lat="47.0479" lon="9.04666">
        <ele>541</ele>
        <time>2021-08-02T08:16:19.330Z</time>
      </trkpt>
      <trkpt lat="47.04789" lon="9.04665">
        <ele>541</ele>
        <time>2021-08-02T08:16:20.330Z</time>
      </trkpt>
      <trkpt lat="47.04789" lon="9.04664">
        <ele>542</ele>
        <time>2021-08-02T08:16:21.330Z</time>
      </trkpt>
      <trkpt lat="47.04788" lon="9.04663">
        <ele>543</ele>
        <time>2021-08-02T08:16:22.330Z</time>
      </trkpt>
      <trkpt lat="47.04787" lon="9.04661">
        <ele>543</ele>
        <time>2021-08-02T08:16:23.330Z</time>
      </trkpt>
      <trkpt lat="47.04786" lon="9.0466">
        <ele>543</ele>
        <time>2021-08-02T08:16:24.330Z</time>
      </trkpt>
      <trkpt lat="47.04786" lon="9.04659">
        <ele>544</ele>
        <time>2021-08-02T08:16:25.330Z</time>
      </trkpt>
      <trkpt lat="47.04785" lon="9.04657">
        <ele>544</ele>
        <time>2021-08-02T08:16:26.330Z</time>
      </trkpt>
      <trkpt lat="47.04783" lon="9.04656">
        <ele>544</ele>
        <time>2021-08-02T08:16:27.329Z</time>
      </trkpt>
      <trkpt lat="47.04783" lon="9.04654">
        <ele>544</ele>
        <time>2021-08-02T08:16:28.330Z</time>
      </trkpt>
      <trkpt lat="47.04782" lon="9.04653">
        <ele>544</ele>
        <time>2021-08-02T08:16:29.330Z</time>
      </trkpt>
      <trkpt lat="47.04782" lon="9.04652">
        <ele>545</ele>
        <time>2021-08-02T08:16:30.330Z</time>
      </trkpt>
      <trkpt lat="47.04781" lon="9.04651">
        <ele>544</ele>
        <time>2021-08-02T08:16:31.329Z</time>
      </trkpt>
      <trkpt lat="47.0478" lon="9.04651">
        <ele>545</ele>
        <time>2021-08-02T08:16:32.330Z</time>
      </trkpt>
      <trkpt lat="47.04779" lon="9.0465">
        <ele>545</ele>
        <time>2021-08-02T08:16:33.329Z</time>
      </trkpt>
      <trkpt lat="47.04779" lon="9.04649">
        <ele>545</ele>
        <time>2021-08-02T08:16:34.330Z</time>
      </trkpt>
      <trkpt lat="47.04779" lon="9.04648">
        <ele>545</ele>
        <time>2021-08-02T08:16:35.330Z</time>
      </trkpt>
      <trkpt lat="47.04778" lon="9.04648">
        <ele>545</ele>
        <time>2021-08-02T08:16:36.330Z</time>
      </trkpt>
      <trkpt lat="47.04778" lon="9.04647">
        <ele>545</ele>
        <time>2021-08-02T08:16:37.330Z</time>
      </trkpt>
      <trkpt lat="47.04778" lon="9.04646">
        <ele>545</ele>
        <time>2021-08-02T08:16:38.329Z</time>
      </trkpt>
      <trkpt lat="47.04777" lon="9.04644">
        <ele>545</ele>
        <time>2021-08-02T08:16:39.330Z</time>
      </trkpt>
      <trkpt lat="47.04777" lon="9.04643">
        <ele>546</ele>
        <time>2021-08-02T08:16:40.330Z</time>
      </trkpt>
      <trkpt lat="47.04776" lon="9.04641">
        <ele>546</ele>
        <time>2021-08-02T08:16:41.329Z</time>
      </trkpt>
      <trkpt lat="47.04775" lon="9.04639">
        <ele>547</ele>
        <time>2021-08-02T08:16:42.330Z</time>
      </trkpt>
      <trkpt lat="47.04774" lon="9.04638">
        <ele>547</ele>
        <time>2021-08-02T08:16:43.330Z</time>
      </trkpt>
      <trkpt lat="47.04773" lon="9.04638">
        <ele>547</ele>
        <time>2021-08-02T08:16:44.329Z</time>
      </trkpt>
      <trkpt lat="47.04773" lon="9.04637">
        <ele>548</ele>
        <time>2021-08-02T08:16:45.330Z</time>
      </trkpt>
      <trkpt lat="47.04773" lon="9.04635">
        <ele>548</ele>
        <time>2021-08-02T08:16:46.330Z</time>
      </trkpt>
      <trkpt lat="47.04773" lon="9.04633">
        <ele>548</ele>
        <time>2021-08-02T08:16:47.330Z</time>
      </trkpt>
      <trkpt lat="47.04773" lon="9.04632">
        <ele>548</ele>
        <time>2021-08-02T08:16:48.329Z</time>
      </trkpt>
      <trkpt lat="47.04773" lon="9.04631">
        <ele>548</ele>
        <time>2021-08-02T08:16:49.330Z</time>
      </trkpt>
      <trkpt lat="47.04773" lon="9.04629">
        <ele>549</ele>
        <time>2021-08-02T08:16:50.330Z</time>
      </trkpt>
      <trkpt lat="47.04773" lon="9.04627">
        <ele>549</ele>
        <time>2021-08-02T08:16:51.329Z</time>
      </trkpt>
      <trkpt lat="47.04774" lon="9.04627">
        <ele>549</ele>
        <time>2021-08-02T08:16:52.329Z</time>
      </trkpt>
      <trkpt lat="47.04774" lon="9.04625">
        <ele>549</ele>
        <time>2021-08-02T08:16:53.330Z</time>
      </trkpt>
      <trkpt lat="47.04773" lon="9.04623">
        <ele>549</ele>
        <time>2021-08-02T08:16:54.330Z</time>
      </trkpt>
      <trkpt lat="47.04773" lon="9.04621">
        <ele>550</ele>
        <time>2021-08-02T08:16:55.330Z</time>
      </trkpt>
      <trkpt lat="47.04774" lon="9.04619">
        <ele>550</ele>
        <time>2021-08-02T08:16:56.330Z</time>
      </trkpt>
      <trkpt lat="47.04773" lon="9.04618">
        <ele>551</ele>
        <time>2021-08-02T08:16:57.329Z</time>
      </trkpt>
      <trkpt lat="47.04773" lon="9.04617">
        <ele>552</ele>
        <time>2021-08-02T08:16:58.330Z</time>
      </trkpt>
      <trkpt lat="47.04773" lon="9.04615">
        <ele>553</ele>
        <time>2021-08-02T08:16:59.329Z</time>
      </trkpt>
      <trkpt lat="47.04774" lon="9.04614">
        <ele>554</ele>
        <time>2021-08-02T08:17:00.330Z</time>
      </trkpt>
      <trkpt lat="47.04774" lon="9.04613">
        <ele>556</ele>
        <time>2021-08-02T08:17:01.330Z</time>
      </trkpt>
      <trkpt lat="47.04774" lon="9.04611">
        <ele>557</ele>
        <time>2021-08-02T08:17:02.330Z</time>
      </trkpt>
      <trkpt lat="47.04774" lon="9.04609">
        <ele>558</ele>
        <time>2021-08-02T08:17:03.329Z</time>
      </trkpt>
      <trkpt lat="47.04772" lon="9.04608">
        <ele>559</ele>
        <time>2021-08-02T08:17:04.329Z</time>
      </trkpt>
      <trkpt lat="47.04771" lon="9.04606">
        <ele>559</ele>
        <time>2021-08-02T08:17:05.329Z</time>
      </trkpt>
      <trkpt lat="47.0477" lon="9.04605">
        <ele>560</ele>
        <time>2021-08-02T08:17:06.330Z</time>
      </trkpt>
      <trkpt lat="47.04769" lon="9.04603">
        <ele>560</ele>
        <time>2021-08-02T08:17:07.329Z</time>
      </trkpt>
      <trkpt lat="47.0477" lon="9.04602">
        <ele>561</ele>
        <time>2021-08-02T08:17:08.330Z</time>
      </trkpt>
      <trkpt lat="47.0477" lon="9.046">
        <ele>561</ele>
        <time>2021-08-02T08:17:09.329Z</time>
      </trkpt>
      <trkpt lat="47.0477" lon="9.04599">
        <ele>562</ele>
        <time>2021-08-02T08:17:10.330Z</time>
      </trkpt>
      <trkpt lat="47.0477" lon="9.04598">
        <ele>563</ele>
        <time>2021-08-02T08:17:11.329Z</time>
      </trkpt>
      <trkpt lat="47.0477" lon="9.04597">
        <ele>564</ele>
        <time>2021-08-02T08:17:12.330Z</time>
      </trkpt>
      <trkpt lat="47.04769" lon="9.04596">
        <ele>564</ele>
        <time>2021-08-02T08:17:13.330Z</time>
      </trkpt>
      <trkpt lat="47.04769" lon="9.04596">
        <ele>565</ele>
        <time>2021-08-02T08:17:14.330Z</time>
      </trkpt>
      <trkpt lat="47.04768" lon="9.04595">
        <ele>566</ele>
        <time>2021-08-02T08:17:15.330Z</time>
      </trkpt>
      <trkpt lat="47.04768" lon="9.04595">
        <ele>566</ele>
        <time>2021-08-02T08:17:16.329Z</time>
      </trkpt>
      <trkpt lat="47.04768" lon="9.04594">
        <ele>567</ele>
        <time>2021-08-02T08:17:17.329Z</time>
      </trkpt>
      <trkpt lat="47.04768" lon="9.04592">
        <ele>567</ele>
        <time>2021-08-02T08:17:18.329Z</time>
      </trkpt>
      <trkpt lat="47.04768" lon="9.04591">
        <ele>568</ele>
        <time>2021-08-02T08:17:19.329Z</time>
      </trkpt>
      <trkpt lat="47.04768" lon="9.0459">
        <ele>568</ele>
        <time>2021-08-02T08:17:20.330Z</time>
      </trkpt>
      <trkpt lat="47.04768" lon="9.04589">
        <ele>569</ele>
        <time>2021-08-02T08:17:21.329Z</time>
      </trkpt>
      <trkpt lat="47.04769" lon="9.04588">
        <ele>569</ele>
        <time>2021-08-02T08:17:22.330Z</time>
      </trkpt>
      <trkpt lat="47.0477" lon="9.04587">
        <ele>570</ele>
        <time>2021-08-02T08:17:23.330Z</time>
      </trkpt>
      <trkpt lat="47.0477" lon="9.04586">
        <ele>570</ele>
        <time>2021-08-02T08:17:24.329Z</time>
      </trkpt>
      <trkpt lat="47.04771" lon="9.04584">
        <ele>570</ele>
        <time>2021-08-02T08:17:25.330Z</time>
      </trkpt>
      <trkpt lat="47.04771" lon="9.04583">
        <ele>570</ele>
        <time>2021-08-02T08:17:26.330Z</time>
      </trkpt>
      <trkpt lat="47.04771" lon="9.04581">
        <ele>571</ele>
        <time>2021-08-02T08:17:27.329Z</time>
      </trkpt>
      <trkpt lat="47.04771" lon="9.0458">
        <ele>571</ele>
        <time>2021-08-02T08:17:28.330Z</time>
      </trkpt>
      <trkpt lat="47.04771" lon="9.04579">
        <ele>571</ele>
        <time>2021-08-02T08:17:29.329Z</time>
      </trkpt>
      <trkpt lat="47.04772" lon="9.04576">
        <ele>572</ele>
        <time>2021-08-02T08:17:30.329Z</time>
      </trkpt>
      <trkpt lat="47.04772" lon="9.04575">
        <ele>571</ele>
        <time>2021-08-02T08:17:31.329Z</time>
      </trkpt>
      <trkpt lat="47.04773" lon="9.04574">
        <ele>571</ele>
        <time>2021-08-02T08:17:32.330Z</time>
      </trkpt>
      <trkpt lat="47.04774" lon="9.04572">
        <ele>571</ele>
        <time>2021-08-02T08:17:33.329Z</time>
      </trkpt>
      <trkpt lat="47.04774" lon="9.0457">
        <ele>571</ele>
        <time>2021-08-02T08:17:34.329Z</time>
      </trkpt>
      <trkpt lat="47.04774" lon="9.04568">
        <ele>571</ele>
        <time>2021-08-02T08:17:35.330Z</time>
      </trkpt>
      <trkpt lat="47.04774" lon="9.04567">
        <ele>571</ele>
        <time>2021-08-02T08:17:36.330Z</time>
      </trkpt>
      <trkpt lat="47.04774" lon="9.04566">
        <ele>571</ele>
        <time>2021-08-02T08:17:37.330Z</time>
      </trkpt>
      <trkpt lat="47.04773" lon="9.04565">
        <ele>571</ele>
        <time>2021-08-02T08:17:38.329Z</time>
      </trkpt>
      <trkpt lat="47.04772" lon="9.04564">
        <ele>571</ele>
        <time>2021-08-02T08:17:39.329Z</time>
      </trkpt>
      <trkpt lat="47.04772" lon="9.04563">
        <ele>572</ele>
        <time>2021-08-02T08:17:40.329Z</time>
      </trkpt>
      <trkpt lat="47.04772" lon="9.04562">
        <ele>572</ele>
        <time>2021-08-02T08:17:41.330Z</time>
      </trkpt>
      <trkpt lat="47.04772" lon="9.04561">
        <ele>572</ele>
        <time>2021-08-02T08:17:42.330Z</time>
      </trkpt>
      <trkpt lat="47.04772" lon="9.0456">
        <ele>572</ele>
        <time>2021-08-02T08:17:43.330Z</time>
      </trkpt>
      <trkpt lat="47.04772" lon="9.04559">
        <ele>572</ele>
        <time>2021-08-02T08:17:44.330Z</time>
      </trkpt>
      <trkpt lat="47.04771" lon="9.04558">
        <ele>572</ele>
        <time>2021-08-02T08:17:45.330Z</time>
      </trkpt>
      <trkpt lat="47.0477" lon="9.04556">
        <ele>572</ele>
        <time>2021-08-02T08:17:46.330Z</time>
      </trkpt>
      <trkpt lat="47.04769" lon="9.04555">
        <ele>572</ele>
        <time>2021-08-02T08:17:47.330Z</time>
      </trkpt>
      <trkpt lat="47.04769" lon="9.04554">
        <ele>572</ele>
        <time>2021-08-02T08:17:48.330Z</time>
      </trkpt>
      <trkpt lat="47.04769" lon="9.04553">
        <ele>572</ele>
        <time>2021-08-02T08:17:49.330Z</time>
      </trkpt>
      <trkpt lat="47.04769" lon="9.04552">
        <ele>572</ele>
        <time>2021-08-02T08:17:50.330Z</time>
      </trkpt>
      <trkpt lat="47.04769" lon="9.04551">
        <ele>572</ele>
        <time>2021-08-02T08:17:51.329Z</time>
      </trkpt>
      <trkpt lat="47.04769" lon="9.04551">
        <ele>572</ele>
        <time>2021-08-02T08:17:52.330Z</time>
      </trkpt>
      <trkpt lat="47.04769" lon="9.04549">
        <ele>571</ele>
        <time>2021-08-02T08:17:53.330Z</time>
      </trkpt>
      <trkpt lat="47.04768" lon="9.04548">
        <ele>571</ele>
        <time>2021-08-02T08:17:54.330Z</time>
      </trkpt>
      <trkpt lat="47.04769" lon="9.04547">
        <ele>571</ele>
        <time>2021-08-02T08:17:55.330Z</time>
      </trkpt>
      <trkpt lat="47.04769" lon="9.04546">
        <ele>571</ele>
        <time>2021-08-02T08:17:56.330Z</time>
      </trkpt>
      <trkpt lat="47.0477" lon="9.04545">
        <ele>570</ele>
        <time>2021-08-02T08:17:57.330Z</time>
      </trkpt>
      <trkpt lat="47.0477" lon="9.04543">
        <ele>570</ele>
        <time>2021-08-02T08:17:58.330Z</time>
      </trkpt>
      <trkpt lat="47.0477" lon="9.04541">
        <ele>570</ele>
        <time>2021-08-02T08:17:59.330Z</time>
      </trkpt>
      <trkpt lat="47.04771" lon="9.04539">
        <ele>569</ele>
        <time>2021-08-02T08:18:00.330Z</time>
      </trkpt>
      <trkpt lat="47.04771" lon="9.04538">
        <ele>569</ele>
        <time>2021-08-02T08:18:01.329Z</time>
      </trkpt>
      <trkpt lat="47.04772" lon="9.04537">
        <ele>569</ele>
        <time>2021-08-02T08:18:02.330Z</time>
      </trkpt>
      <trkpt lat="47.04772" lon="9.04536">
        <ele>568</ele>
        <time>2021-08-02T08:18:03.330Z</time>
      </trkpt>
      <trkpt lat="47.04772" lon="9.04534">
        <ele>568</ele>
        <time>2021-08-02T08:18:04.330Z</time>
      </trkpt>
      <trkpt lat="47.04772" lon="9.04532">
        <ele>568</ele>
        <time>2021-08-02T08:18:05.330Z</time>
      </trkpt>
      <trkpt lat="47.04773" lon="9.0453">
        <ele>568</ele>
        <time>2021-08-02T08:18:06.330Z</time>
      </trkpt>
      <trkpt lat="47.04773" lon="9.04528">
        <ele>567</ele>
        <time>2021-08-02T08:18:07.330Z</time>
      </trkpt>
      <trkpt lat="47.04774" lon="9.04527">
        <ele>567</ele>
        <time>2021-08-02T08:18:08.330Z</time>
      </trkpt>
      <trkpt lat="47.04775" lon="9.04524">
        <ele>567</ele>
        <time>2021-08-02T08:18:09.329Z</time>
      </trkpt>
      <trkpt lat="47.04775" lon="9.04523">
        <ele>567</ele>
        <time>2021-08-02T08:18:10.329Z</time>
      </trkpt>
      <trkpt lat="47.04775" lon="9.04521">
        <ele>567</ele>
        <time>2021-08-02T08:18:11.329Z</time>
      </trkpt>
      <trkpt lat="47.04774" lon="9.0452">
        <ele>567</ele>
        <time>2021-08-02T08:18:12.330Z</time>
      </trkpt>
      <trkpt lat="47.04774" lon="9.04519">
        <ele>567</ele>
        <time>2021-08-02T08:18:13.330Z</time>
      </trkpt>
      <trkpt lat="47.04774" lon="9.04517">
        <ele>567</ele>
        <time>2021-08-02T08:18:14.330Z</time>
      </trkpt>
      <trkpt lat="47.04774" lon="9.04516">
        <ele>567</ele>
        <time>2021-08-02T08:18:15.330Z</time>
      </trkpt>
      <trkpt lat="47.04774" lon="9.04515">
        <ele>567</ele>
        <time>2021-08-02T08:18:16.329Z</time>
      </trkpt>
      <trkpt lat="47.04774" lon="9.04514">
        <ele>567</ele>
        <time>2021-08-02T08:18:17.330Z</time>
      </trkpt>
      <trkpt lat="47.04774" lon="9.04513">
        <ele>567</ele>
        <time>2021-08-02T08:18:18.330Z</time>
      </trkpt>
      <trkpt lat="47.04774" lon="9.04513">
        <ele>567</ele>
        <time>2021-08-02T08:18:19.329Z</time>
      </trkpt>
      <trkpt lat="47.04773" lon="9.04513">
        <ele>567</ele>
        <time>2021-08-02T08:18:20.330Z</time>
      </trkpt>
      <trkpt lat="47.04771" lon="9.04514">
        <ele>568</ele>
        <time>2021-08-02T08:18:21.329Z</time>
      </trkpt>
      <trkpt lat="47.0477" lon="9.04513">
        <ele>568</ele>
        <time>2021-08-02T08:18:22.329Z</time>
      </trkpt>
      <trkpt lat="47.0477" lon="9.04512">
        <ele>569</ele>
        <time>2021-08-02T08:18:23.330Z</time>
      </trkpt>
      <trkpt lat="47.0477" lon="9.04511">
        <ele>569</ele>
        <time>2021-08-02T08:18:24.330Z</time>
      </trkpt>
      <trkpt lat="47.0477" lon="9.0451">
        <ele>569</ele>
        <time>2021-08-02T08:18:25.330Z</time>
      </trkpt>
      <trkpt lat="47.04769" lon="9.04509">
        <ele>569</ele>
        <time>2021-08-02T08:18:26.330Z</time>
      </trkpt>
      <trkpt lat="47.04769" lon="9.04508">
        <ele>570</ele>
        <time>2021-08-02T08:18:27.330Z</time>
      </trkpt>
      <trkpt lat="47.04769" lon="9.04508">
        <ele>570</ele>
        <time>2021-08-02T08:18:28.330Z</time>
      </trkpt>
      <trkpt lat="47.04769" lon="9.04507">
        <ele>570</ele>
        <time>2021-08-02T08:18:29.330Z</time>
      </trkpt>
      <trkpt lat="47.04768" lon="9.04506">
        <ele>571</ele>
        <time>2021-08-02T08:18:30.329Z</time>
      </trkpt>
      <trkpt lat="47.04768" lon="9.04505">
        <ele>571</ele>
        <time>2021-08-02T08:18:31.330Z</time>
      </trkpt>
      <trkpt lat="47.04768" lon="9.04505">
        <ele>572</ele>
        <time>2021-08-02T08:18:32.330Z</time>
      </trkpt>
      <trkpt lat="47.04767" lon="9.04503">
        <ele>572</ele>
        <time>2021-08-02T08:18:33.329Z</time>
      </trkpt>
      <trkpt lat="47.04767" lon="9.04502">
        <ele>573</ele>
        <time>2021-08-02T08:18:34.330Z</time>
      </trkpt>
      <trkpt lat="47.04767" lon="9.04501">
        <ele>574</ele>
        <time>2021-08-02T08:18:35.330Z</time>
      </trkpt>
      <trkpt lat="47.04767" lon="9.045">
        <ele>574</ele>
        <time>2021-08-02T08:18:36.330Z</time>
      </trkpt>
      <trkpt lat="47.04766" lon="9.045">
        <ele>575</ele>
        <time>2021-08-02T08:18:37.330Z</time>
      </trkpt>
      <trkpt lat="47.04766" lon="9.045">
        <ele>576</ele>
        <time>2021-08-02T08:18:38.330Z</time>
      </trkpt>
      <trkpt lat="47.04766" lon="9.04499">
        <ele>576</ele>
        <time>2021-08-02T08:18:39.330Z</time>
      </trkpt>
      <trkpt lat="47.04767" lon="9.04498">
        <ele>576</ele>
        <time>2021-08-02T08:18:40.329Z</time>
      </trkpt>
      <trkpt lat="47.04767" lon="9.04499">
        <ele>576</ele>
        <time>2021-08-02T08:18:41.329Z</time>
      </trkpt>
      <trkpt lat="47.04767" lon="9.045">
        <ele>576</ele>
        <time>2021-08-02T08:18:42.330Z</time>
      </trkpt>
      <trkpt lat="47.04766" lon="9.04496">
        <ele>577</ele>
        <time>2021-08-02T08:18:43.330Z</time>
      </trkpt>
      <trkpt lat="47.04766" lon="9.04495">
        <ele>577</ele>
        <time>2021-08-02T08:18:44.330Z</time>
      </trkpt>
      <trkpt lat="47.04766" lon="9.04494">
        <ele>577</ele>
        <time>2021-08-02T08:18:45.329Z</time>
      </trkpt>
      <trkpt lat="47.04766" lon="9.04494">
        <ele>577</ele>
        <time>2021-08-02T08:18:46.329Z</time>
      </trkpt>
      <trkpt lat="47.04766" lon="9.04493">
        <ele>577</ele>
        <time>2021-08-02T08:18:47.329Z</time>
      </trkpt>
      <trkpt lat="47.04766" lon="9.04492">
        <ele>577</ele>
        <time>2021-08-02T08:18:48.329Z</time>
      </trkpt>
      <trkpt lat="47.04766" lon="9.04492">
        <ele>577</ele>
        <time>2021-08-02T08:18:49.329Z</time>
      </trkpt>
      <trkpt lat="47.04766" lon="9.04491">
        <ele>577</ele>
        <time>2021-08-02T08:18:50.330Z</time>
      </trkpt>
      <trkpt lat="47.04765" lon="9.04491">
        <ele>577</ele>
        <time>2021-08-02T08:18:51.329Z</time>
      </trkpt>
      <trkpt lat="47.04765" lon="9.0449">
        <ele>577</ele>
        <time>2021-08-02T08:18:52.329Z</time>
      </trkpt>
      <trkpt lat="47.04764" lon="9.04489">
        <ele>576</ele>
        <time>2021-08-02T08:18:53.329Z</time>
      </trkpt>
      <trkpt lat="47.04764" lon="9.04488">
        <ele>576</ele>
        <time>2021-08-02T08:18:54.329Z</time>
      </trkpt>
      <trkpt lat="47.04765" lon="9.04486">
        <ele>575</ele>
        <time>2021-08-02T08:18:55.330Z</time>
      </trkpt>
      <trkpt lat="47.04765" lon="9.04485">
        <ele>575</ele>
        <time>2021-08-02T08:18:56.329Z</time>
      </trkpt>
      <trkpt lat="47.04765" lon="9.04482">
        <ele>575</ele>
        <time>2021-08-02T08:18:57.330Z</time>
      </trkpt>
      <trkpt lat="47.04765" lon="9.0448">
        <ele>574</ele>
        <time>2021-08-02T08:18:58.330Z</time>
      </trkpt>
      <trkpt lat="47.04765" lon="9.04478">
        <ele>574</ele>
        <time>2021-08-02T08:18:59.329Z</time>
      </trkpt>
      <trkpt lat="47.04765" lon="9.04476">
        <ele>573</ele>
        <time>2021-08-02T08:19:00.330Z</time>
      </trkpt>
      <trkpt lat="47.04765" lon="9.04474">
        <ele>572</ele>
        <time>2021-08-02T08:19:01.329Z</time>
      </trkpt>
      <trkpt lat="47.04765" lon="9.04473">
        <ele>571</ele>
        <time>2021-08-02T08:19:02.330Z</time>
      </trkpt>
      <trkpt lat="47.04764" lon="9.04471">
        <ele>570</ele>
        <time>2021-08-02T08:19:03.330Z</time>
      </trkpt>
      <trkpt lat="47.04764" lon="9.04469">
        <ele>570</ele>
        <time>2021-08-02T08:19:04.329Z</time>
      </trkpt>
      <trkpt lat="47.04763" lon="9.04468">
        <ele>569</ele>
        <time>2021-08-02T08:19:05.330Z</time>
      </trkpt>
      <trkpt lat="47.04764" lon="9.04467">
        <ele>568</ele>
        <time>2021-08-02T08:19:06.330Z</time>
      </trkpt>
      <trkpt lat="47.04764" lon="9.04465">
        <ele>568</ele>
        <time>2021-08-02T08:19:07.330Z</time>
      </trkpt>
      <trkpt lat="47.04764" lon="9.04463">
        <ele>568</ele>
        <time>2021-08-02T08:19:08.329Z</time>
      </trkpt>
      <trkpt lat="47.04764" lon="9.04461">
        <ele>568</ele>
        <time>2021-08-02T08:19:09.329Z</time>
      </trkpt>
      <trkpt lat="47.04764" lon="9.04459">
        <ele>567</ele>
        <time>2021-08-02T08:19:10.330Z</time>
      </trkpt>
      <trkpt lat="47.04764" lon="9.04457">
        <ele>567</ele>
        <time>2021-08-02T08:19:11.330Z</time>
      </trkpt>
      <trkpt lat="47.04764" lon="9.04455">
        <ele>567</ele>
        <time>2021-08-02T08:19:12.329Z</time>
      </trkpt>
      <trkpt lat="47.04765" lon="9.04453">
        <ele>567</ele>
        <time>2021-08-02T08:19:13.330Z</time>
      </trkpt>
      <trkpt lat="47.04766" lon="9.04451">
        <ele>567</ele>
        <time>2021-08-02T08:19:14.330Z</time>
      </trkpt>
      <trkpt lat="47.04766" lon="9.0445">
        <ele>566</ele>
        <time>2021-08-02T08:19:15.330Z</time>
      </trkpt>
      <trkpt lat="47.04766" lon="9.04448">
        <ele>566</ele>
        <time>2021-08-02T08:19:16.330Z</time>
      </trkpt>
      <trkpt lat="47.04766" lon="9.04445">
        <ele>566</ele>
        <time>2021-08-02T08:19:17.330Z</time>
      </trkpt>
      <trkpt lat="47.04767" lon="9.04444">
        <ele>566</ele>
        <time>2021-08-02T08:19:18.330Z</time>
      </trkpt>
      <trkpt lat="47.04767" lon="9.04442">
        <ele>566</ele>
        <time>2021-08-02T08:19:19.329Z</time>
      </trkpt>
      <trkpt lat="47.04767" lon="9.04441">
        <ele>566</ele>
        <time>2021-08-02T08:19:20.330Z</time>
      </trkpt>
      <trkpt lat="47.04767" lon="9.04439">
        <ele>567</ele>
        <time>2021-08-02T08:19:21.329Z</time>
      </trkpt>
      <trkpt lat="47.04767" lon="9.04437">
        <ele>567</ele>
        <time>2021-08-02T08:19:22.330Z</time>
      </trkpt>
      <trkpt lat="47.04767" lon="9.04434">
        <ele>566</ele>
        <time>2021-08-02T08:19:23.330Z</time>
      </trkpt>
      <trkpt lat="47.04767" lon="9.04431">
        <ele>566</ele>
        <time>2021-08-02T08:19:24.329Z</time>
      </trkpt>
      <trkpt lat="47.04767" lon="9.04429">
        <ele>566</ele>
        <time>2021-08-02T08:19:25.330Z</time>
      </trkpt>
      <trkpt lat="47.04767" lon="9.04427">
        <ele>566</ele>
        <time>2021-08-02T08:19:26.330Z</time>
      </trkpt>
      <trkpt lat="47.04767" lon="9.04426">
        <ele>566</ele>
        <time>2021-08-02T08:19:27.330Z</time>
      </trkpt>
      <trkpt lat="47.04767" lon="9.04424">
        <ele>566</ele>
        <time>2021-08-02T08:19:28.330Z</time>
      </trkpt>
      <trkpt lat="47.04768" lon="9.04423">
        <ele>566</ele>
        <time>2021-08-02T08:19:29.330Z</time>
      </trkpt>
      <trkpt lat="47.04768" lon="9.04421">
        <ele>567</ele>
        <time>2021-08-02T08:19:30.329Z</time>
      </trkpt>
      <trkpt lat="47.04769" lon="9.04419">
        <ele>567</ele>
        <time>2021-08-02T08:19:31.329Z</time>
      </trkpt>
      <trkpt lat="47.0477" lon="9.04417">
        <ele>568</ele>
        <time>2021-08-02T08:19:32.329Z</time>
      </trkpt>
      <trkpt lat="47.04771" lon="9.04415">
        <ele>568</ele>
        <time>2021-08-02T08:19:33.330Z</time>
      </trkpt>
      <trkpt lat="47.04771" lon="9.04414">
        <ele>568</ele>
        <time>2021-08-02T08:19:34.330Z</time>
      </trkpt>
      <trkpt lat="47.04771" lon="9.04412">
        <ele>568</ele>
        <time>2021-08-02T08:19:35.330Z</time>
      </trkpt>
      <trkpt lat="47.04772" lon="9.04411">
        <ele>568</ele>
        <time>2021-08-02T08:19:36.330Z</time>
      </trkpt>
      <trkpt lat="47.04771" lon="9.04409">
        <ele>568</ele>
        <time>2021-08-02T08:19:37.329Z</time>
      </trkpt>
      <trkpt lat="47.04771" lon="9.04407">
        <ele>568</ele>
        <time>2021-08-02T08:19:38.330Z</time>
      </trkpt>
      <trkpt lat="47.04771" lon="9.04406">
        <ele>569</ele>
        <time>2021-08-02T08:19:39.329Z</time>
      </trkpt>
      <trkpt lat="47.04771" lon="9.04404">
        <ele>569</ele>
        <time>2021-08-02T08:19:40.330Z</time>
      </trkpt>
      <trkpt lat="47.04771" lon="9.04402">
        <ele>570</ele>
        <time>2021-08-02T08:19:41.330Z</time>
      </trkpt>
      <trkpt lat="47.04771" lon="9.044">
        <ele>570</ele>
        <time>2021-08-02T08:19:42.330Z</time>
      </trkpt>
      <trkpt lat="47.04771" lon="9.04399">
        <ele>570</ele>
        <time>2021-08-02T08:19:43.330Z</time>
      </trkpt>
      <trkpt lat="47.04772" lon="9.04396">
        <ele>569</ele>
        <time>2021-08-02T08:19:44.330Z</time>
      </trkpt>
      <trkpt lat="47.04772" lon="9.04394">
        <ele>569</ele>
        <time>2021-08-02T08:19:45.330Z</time>
      </trkpt>
      <trkpt lat="47.04772" lon="9.04392">
        <ele>569</ele>
        <time>2021-08-02T08:19:46.330Z</time>
      </trkpt>
      <trkpt lat="47.04772" lon="9.0439">
        <ele>568</ele>
        <time>2021-08-02T08:19:47.329Z</time>
      </trkpt>
      <trkpt lat="47.04772" lon="9.0439">
        <ele>568</ele>
        <time>2021-08-02T08:19:48.329Z</time>
      </trkpt>
      <trkpt lat="47.04771" lon="9.04388">
        <ele>568</ele>
        <time>2021-08-02T08:19:49.330Z</time>
      </trkpt>
      <trkpt lat="47.04772" lon="9.04386">
        <ele>568</ele>
        <time>2021-08-02T08:19:50.330Z</time>
      </trkpt>
      <trkpt lat="47.04772" lon="9.04385">
        <ele>567</ele>
        <time>2021-08-02T08:19:51.330Z</time>
      </trkpt>
      <trkpt lat="47.04771" lon="9.04383">
        <ele>567</ele>
        <time>2021-08-02T08:19:52.329Z</time>
      </trkpt>
      <trkpt lat="47.04771" lon="9.04382">
        <ele>566</ele>
        <time>2021-08-02T08:19:53.329Z</time>
      </trkpt>
      <trkpt lat="47.0477" lon="9.04381">
        <ele>566</ele>
        <time>2021-08-02T08:19:54.330Z</time>
      </trkpt>
      <trkpt lat="47.0477" lon="9.0438">
        <ele>565</ele>
        <time>2021-08-02T08:19:55.330Z</time>
      </trkpt>
      <trkpt lat="47.0477" lon="9.04379">
        <ele>565</ele>
        <time>2021-08-02T08:19:56.330Z</time>
      </trkpt>
      <trkpt lat="47.0477" lon="9.04377">
        <ele>564</ele>
        <time>2021-08-02T08:19:57.329Z</time>
      </trkpt>
      <trkpt lat="47.0477" lon="9.04374">
        <ele>564</ele>
        <time>2021-08-02T08:19:58.329Z</time>
      </trkpt>
      <trkpt lat="47.04769" lon="9.04372">
        <ele>564</ele>
        <time>2021-08-02T08:19:59.330Z</time>
      </trkpt>
      <trkpt lat="47.04769" lon="9.0437">
        <ele>564</ele>
        <time>2021-08-02T08:20:00.329Z</time>
      </trkpt>
      <trkpt lat="47.04769" lon="9.04369">
        <ele>565</ele>
        <time>2021-08-02T08:20:01.330Z</time>
      </trkpt>
      <trkpt lat="47.04769" lon="9.04368">
        <ele>564</ele>
        <time>2021-08-02T08:20:02.330Z</time>
      </trkpt>
      <trkpt lat="47.04769" lon="9.04366">
        <ele>564</ele>
        <time>2021-08-02T08:20:03.330Z</time>
      </trkpt>
      <trkpt lat="47.04769" lon="9.04365">
        <ele>564</ele>
        <time>2021-08-02T08:20:04.330Z</time>
      </trkpt>
      <trkpt lat="47.0477" lon="9.04364">
        <ele>565</ele>
        <time>2021-08-02T08:20:05.330Z</time>
      </trkpt>
      <trkpt lat="47.0477" lon="9.04362">
        <ele>565</ele>
        <time>2021-08-02T08:20:06.329Z</time>
      </trkpt>
      <trkpt lat="47.0477" lon="9.04361">
        <ele>565</ele>
        <time>2021-08-02T08:20:07.330Z</time>
      </trkpt>
      <trkpt lat="47.04771" lon="9.0436">
        <ele>565</ele>
        <time>2021-08-02T08:20:08.330Z</time>
      </trkpt>
      <trkpt lat="47.04771" lon="9.04359">
        <ele>566</ele>
        <time>2021-08-02T08:20:09.329Z</time>
      </trkpt>
      <trkpt lat="47.04771" lon="9.04358">
        <ele>566</ele>
        <time>2021-08-02T08:20:10.330Z</time>
      </trkpt>
      <trkpt lat="47.04771" lon="9.04357">
        <ele>566</ele>
        <time>2021-08-02T08:20:11.329Z</time>
      </trkpt>
      <trkpt lat="47.04771" lon="9.04356">
        <ele>567</ele>
        <time>2021-08-02T08:20:12.330Z</time>
      </trkpt>
      <trkpt lat="47.04772" lon="9.04355">
        <ele>567</ele>
        <time>2021-08-02T08:20:13.330Z</time>
      </trkpt>
      <trkpt lat="47.04772" lon="9.04353">
        <ele>567</ele>
        <time>2021-08-02T08:20:14.330Z</time>
      </trkpt>
      <trkpt lat="47.04772" lon="9.04351">
        <ele>568</ele>
        <time>2021-08-02T08:20:15.330Z</time>
      </trkpt>
      <trkpt lat="47.04772" lon="9.0435">
        <ele>568</ele>
        <time>2021-08-02T08:20:16.329Z</time>
      </trkpt>
      <trkpt lat="47.04772" lon="9.04348">
        <ele>568</ele>
        <time>2021-08-02T08:20:17.330Z</time>
      </trkpt>
      <trkpt lat="47.04773" lon="9.04347">
        <ele>568</ele>
        <time>2021-08-02T08:20:18.330Z</time>
      </trkpt>
      <trkpt lat="47.04775" lon="9.04347">
        <ele>568</ele>
        <time>2021-08-02T08:20:19.330Z</time>
      </trkpt>
      <trkpt lat="47.04775" lon="9.04346">
        <ele>568</ele>
        <time>2021-08-02T08:20:20.329Z</time>
      </trkpt>
      <trkpt lat="47.04775" lon="9.04345">
        <ele>568</ele>
        <time>2021-08-02T08:20:21.329Z</time>
      </trkpt>
      <trkpt lat="47.04775" lon="9.04343">
        <ele>568</ele>
        <time>2021-08-02T08:20:22.329Z</time>
      </trkpt>
      <trkpt lat="47.04775" lon="9.04341">
        <ele>568</ele>
        <time>2021-08-02T08:20:23.330Z</time>
      </trkpt>
      <trkpt lat="47.04775" lon="9.0434">
        <ele>568</ele>
        <time>2021-08-02T08:20:24.330Z</time>
      </trkpt>
      <trkpt lat="47.04776" lon="9.04337">
        <ele>568</ele>
        <time>2021-08-02T08:20:25.329Z</time>
      </trkpt>
      <trkpt lat="47.04776" lon="9.04335">
        <ele>569</ele>
        <time>2021-08-02T08:20:26.330Z</time>
      </trkpt>
      <trkpt lat="47.04776" lon="9.04333">
        <ele>570</ele>
        <time>2021-08-02T08:20:27.329Z</time>
      </trkpt>
      <trkpt lat="47.04777" lon="9.04331">
        <ele>570</ele>
        <time>2021-08-02T08:20:28.330Z</time>
      </trkpt>
      <trkpt lat="47.04777" lon="9.04329">
        <ele>571</ele>
        <time>2021-08-02T08:20:29.329Z</time>
      </trkpt>
      <trkpt lat="47.04777" lon="9.04328">
        <ele>571</ele>
        <time>2021-08-02T08:20:30.330Z</time>
      </trkpt>
      <trkpt lat="47.04777" lon="9.04326">
        <ele>571</ele>
        <time>2021-08-02T08:20:31.330Z</time>
      </trkpt>
      <trkpt lat="47.04777" lon="9.04325">
        <ele>572</ele>
        <time>2021-08-02T08:20:32.330Z</time>
      </trkpt>
      <trkpt lat="47.04777" lon="9.04324">
        <ele>572</ele>
        <time>2021-08-02T08:20:33.330Z</time>
      </trkpt>
      <trkpt lat="47.04777" lon="9.04323">
        <ele>572</ele>
        <time>2021-08-02T08:20:34.329Z</time>
      </trkpt>
      <trkpt lat="47.04778" lon="9.04322">
        <ele>572</ele>
        <time>2021-08-02T08:20:35.330Z</time>
      </trkpt>
      <trkpt lat="47.04778" lon="9.0432">
        <ele>573</ele>
        <time>2021-08-02T08:20:36.329Z</time>
      </trkpt>
      <trkpt lat="47.04779" lon="9.04319">
        <ele>573</ele>
        <time>2021-08-02T08:20:37.330Z</time>
      </trkpt>
      <trkpt lat="47.0478" lon="9.04317">
        <ele>573</ele>
        <time>2021-08-02T08:20:38.330Z</time>
      </trkpt>
      <trkpt lat="47.0478" lon="9.04316">
        <ele>573</ele>
        <time>2021-08-02T08:20:39.330Z</time>
      </trkpt>
      <trkpt lat="47.04779" lon="9.04315">
        <ele>573</ele>
        <time>2021-08-02T08:20:40.330Z</time>
      </trkpt>
      <trkpt lat="47.04778" lon="9.04314">
        <ele>573</ele>
        <time>2021-08-02T08:20:41.330Z</time>
      </trkpt>
      <trkpt lat="47.04778" lon="9.04312">
        <ele>572</ele>
        <time>2021-08-02T08:20:42.329Z</time>
      </trkpt>
      <trkpt lat="47.04777" lon="9.04311">
        <ele>572</ele>
        <time>2021-08-02T08:20:43.329Z</time>
      </trkpt>
      <trkpt lat="47.04776" lon="9.0431">
        <ele>571</ele>
        <time>2021-08-02T08:20:44.330Z</time>
      </trkpt>
      <trkpt lat="47.04776" lon="9.04308">
        <ele>571</ele>
        <time>2021-08-02T08:20:45.329Z</time>
      </trkpt>
      <trkpt lat="47.04776" lon="9.04307">
        <ele>570</ele>
        <time>2021-08-02T08:20:46.329Z</time>
      </trkpt>
      <trkpt lat="47.04776" lon="9.04306">
        <ele>570</ele>
        <time>2021-08-02T08:20:47.330Z</time>
      </trkpt>
      <trkpt lat="47.04776" lon="9.04305">
        <ele>569</ele>
        <time>2021-08-02T08:20:48.330Z</time>
      </trkpt>
      <trkpt lat="47.04777" lon="9.04303">
        <ele>569</ele>
        <time>2021-08-02T08:20:49.329Z</time>
      </trkpt>
      <trkpt lat="47.04777" lon="9.04302">
        <ele>568</ele>
        <time>2021-08-02T08:20:50.329Z</time>
      </trkpt>
      <trkpt lat="47.04778" lon="9.043">
        <ele>567</ele>
        <time>2021-08-02T08:20:51.330Z</time>
      </trkpt>
      <trkpt lat="47.04778" lon="9.04299">
        <ele>567</ele>
        <time>2021-08-02T08:20:52.330Z</time>
      </trkpt>
      <trkpt lat="47.04779" lon="9.04297">
        <ele>566</ele>
        <time>2021-08-02T08:20:53.330Z</time>
      </trkpt>
      <trkpt lat="47.04779" lon="9.04296">
        <ele>566</ele>
        <time>2021-08-02T08:20:54.330Z</time>
      </trkpt>
      <trkpt lat="47.04779" lon="9.04294">
        <ele>565</ele>
        <time>2021-08-02T08:20:55.329Z</time>
      </trkpt>
      <trkpt lat="47.04779" lon="9.04293">
        <ele>565</ele>
        <time>2021-08-02T08:20:56.330Z</time>
      </trkpt>
      <trkpt lat="47.04779" lon="9.04291">
        <ele>564</ele>
        <time>2021-08-02T08:20:57.329Z</time>
      </trkpt>
      <trkpt lat="47.04779" lon="9.04289">
        <ele>564</ele>
        <time>2021-08-02T08:20:58.330Z</time>
      </trkpt>
      <trkpt lat="47.04779" lon="9.04288">
        <ele>563</ele>
        <time>2021-08-02T08:20:59.330Z</time>
      </trkpt>
      <trkpt lat="47.04779" lon="9.04286">
        <ele>563</ele>
        <time>2021-08-02T08:21:00.330Z</time>
      </trkpt>
      <trkpt lat="47.04779" lon="9.04285">
        <ele>564</ele>
        <time>2021-08-02T08:21:01.329Z</time>
      </trkpt>
      <trkpt lat="47.04779" lon="9.04283">
        <ele>564</ele>
        <time>2021-08-02T08:21:02.330Z</time>
      </trkpt>
      <trkpt lat="47.04779" lon="9.04282">
        <ele>564</ele>
        <time>2021-08-02T08:21:03.330Z</time>
      </trkpt>
      <trkpt lat="47.04779" lon="9.0428">
        <ele>564</ele>
        <time>2021-08-02T08:21:04.329Z</time>
      </trkpt>
      <trkpt lat="47.04779" lon="9.04279">
        <ele>564</ele>
        <time>2021-08-02T08:21:05.330Z</time>
      </trkpt>
      <trkpt lat="47.04779" lon="9.04277">
        <ele>564</ele>
        <time>2021-08-02T08:21:06.330Z</time>
      </trkpt>
      <trkpt lat="47.04779" lon="9.04276">
        <ele>564</ele>
        <time>2021-08-02T08:21:07.330Z</time>
      </trkpt>
      <trkpt lat="47.04778" lon="9.04275">
        <ele>564</ele>
        <time>2021-08-02T08:21:08.330Z</time>
      </trkpt>
      <trkpt lat="47.04777" lon="9.04273">
        <ele>564</ele>
        <time>2021-08-02T08:21:09.329Z</time>
      </trkpt>
      <trkpt lat="47.04777" lon="9.0427">
        <ele>564</ele>
        <time>2021-08-02T08:21:10.330Z</time>
      </trkpt>
      <trkpt lat="47.04777" lon="9.04268">
        <ele>564</ele>
        <time>2021-08-02T08:21:11.330Z</time>
      </trkpt>
      <trkpt lat="47.04777" lon="9.04267">
        <ele>564</ele>
        <time>2021-08-02T08:21:12.330Z</time>
      </trkpt>
      <trkpt lat="47.04778" lon="9.04265">
        <ele>565</ele>
        <time>2021-08-02T08:21:13.329Z</time>
      </trkpt>
      <trkpt lat="47.04779" lon="9.04263">
        <ele>565</ele>
        <time>2021-08-02T08:21:14.330Z</time>
      </trkpt>
      <trkpt lat="47.04778" lon="9.04262">
        <ele>566</ele>
        <time>2021-08-02T08:21:15.330Z</time>
      </trkpt>
      <trkpt lat="47.04778" lon="9.04261">
        <ele>566</ele>
        <time>2021-08-02T08:21:16.329Z</time>
      </trkpt>
      <trkpt lat="47.04778" lon="9.04259">
        <ele>566</ele>
        <time>2021-08-02T08:21:17.330Z</time>
      </trkpt>
      <trkpt lat="47.04778" lon="9.04258">
        <ele>567</ele>
        <time>2021-08-02T08:21:18.329Z</time>
      </trkpt>
      <trkpt lat="47.04778" lon="9.04257">
        <ele>567</ele>
        <time>2021-08-02T08:21:19.329Z</time>
      </trkpt>
      <trkpt lat="47.04778" lon="9.04255">
        <ele>568</ele>
        <time>2021-08-02T08:21:20.330Z</time>
      </trkpt>
      <trkpt lat="47.04777" lon="9.04253">
        <ele>568</ele>
        <time>2021-08-02T08:21:21.330Z</time>
      </trkpt>
      <trkpt lat="47.04777" lon="9.04252">
        <ele>568</ele>
        <time>2021-08-02T08:21:22.329Z</time>
      </trkpt>
      <trkpt lat="47.04777" lon="9.0425">
        <ele>568</ele>
        <time>2021-08-02T08:21:23.329Z</time>
      </trkpt>
      <trkpt lat="47.04777" lon="9.04249">
        <ele>568</ele>
        <time>2021-08-02T08:21:24.330Z</time>
      </trkpt>
      <trkpt lat="47.04776" lon="9.04247">
        <ele>567</ele>
        <time>2021-08-02T08:21:25.330Z</time>
      </trkpt>
      <trkpt lat="47.04776" lon="9.04246">
        <ele>566</ele>
        <time>2021-08-02T08:21:26.329Z</time>
      </trkpt>
      <trkpt lat="47.04776" lon="9.04244">
        <ele>566</ele>
        <time>2021-08-02T08:21:27.329Z</time>
      </trkpt>
      <trkpt lat="47.04776" lon="9.04243">
        <ele>565</ele>
        <time>2021-08-02T08:21:28.330Z</time>
      </trkpt>
      <trkpt lat="47.04776" lon="9.04242">
        <ele>564</ele>
        <time>2021-08-02T08:21:29.330Z</time>
      </trkpt>
      <trkpt lat="47.04776" lon="9.0424">
        <ele>564</ele>
        <time>2021-08-02T08:21:30.329Z</time>
      </trkpt>
      <trkpt lat="47.04775" lon="9.04239">
        <ele>563</ele>
        <time>2021-08-02T08:21:31.330Z</time>
      </trkpt>
      <trkpt lat="47.04775" lon="9.04238">
        <ele>563</ele>
        <time>2021-08-02T08:21:32.330Z</time>
      </trkpt>
      <trkpt lat="47.04776" lon="9.04236">
        <ele>563</ele>
        <time>2021-08-02T08:21:33.330Z</time>
      </trkpt>
      <trkpt lat="47.04776" lon="9.04234">
        <ele>563</ele>
        <time>2021-08-02T08:21:34.330Z</time>
      </trkpt>
      <trkpt lat="47.04775" lon="9.04233">
        <ele>563</ele>
        <time>2021-08-02T08:21:35.330Z</time>
      </trkpt>
      <trkpt lat="47.04775" lon="9.04232">
        <ele>563</ele>
        <time>2021-08-02T08:21:36.330Z</time>
      </trkpt>
      <trkpt lat="47.04775" lon="9.0423">
        <ele>563</ele>
        <time>2021-08-02T08:21:37.330Z</time>
      </trkpt>
      <trkpt lat="47.04775" lon="9.04229">
        <ele>563</ele>
        <time>2021-08-02T08:21:38.330Z</time>
      </trkpt>
      <trkpt lat="47.04775" lon="9.04228">
        <ele>563</ele>
        <time>2021-08-02T08:21:39.330Z</time>
      </trkpt>
      <trkpt lat="47.04774" lon="9.04225">
        <ele>563</ele>
        <time>2021-08-02T08:21:40.330Z</time>
      </trkpt>
      <trkpt lat="47.04774" lon="9.04223">
        <ele>562</ele>
        <time>2021-08-02T08:21:41.330Z</time>
      </trkpt>
      <trkpt lat="47.04774" lon="9.04222">
        <ele>562</ele>
        <time>2021-08-02T08:21:42.330Z</time>
      </trkpt>
      <trkpt lat="47.04774" lon="9.0422">
        <ele>562</ele>
        <time>2021-08-02T08:21:43.330Z</time>
      </trkpt>
      <trkpt lat="47.04773" lon="9.04219">
        <ele>561</ele>
        <time>2021-08-02T08:21:44.329Z</time>
      </trkpt>
      <trkpt lat="47.04774" lon="9.04218">
        <ele>561</ele>
        <time>2021-08-02T08:21:45.330Z</time>
      </trkpt>
      <trkpt lat="47.04775" lon="9.04216">
        <ele>561</ele>
        <time>2021-08-02T08:21:46.330Z</time>
      </trkpt>
      <trkpt lat="47.04775" lon="9.04215">
        <ele>561</ele>
        <time>2021-08-02T08:21:47.330Z</time>
      </trkpt>
      <trkpt lat="47.04774" lon="9.04213">
        <ele>561</ele>
        <time>2021-08-02T08:21:48.329Z</time>
      </trkpt>
      <trkpt lat="47.04774" lon="9.04211">
        <ele>561</ele>
        <time>2021-08-02T08:21:49.330Z</time>
      </trkpt>
      <trkpt lat="47.04774" lon="9.0421">
        <ele>561</ele>
        <time>2021-08-02T08:21:50.330Z</time>
      </trkpt>
      <trkpt lat="47.04773" lon="9.04209">
        <ele>561</ele>
        <time>2021-08-02T08:21:51.330Z</time>
      </trkpt>
      <trkpt lat="47.04773" lon="9.04207">
        <ele>561</ele>
        <time>2021-08-02T08:21:52.330Z</time>
      </trkpt>
      <trkpt lat="47.04773" lon="9.04206">
        <ele>561</ele>
        <time>2021-08-02T08:21:53.330Z</time>
      </trkpt>
      <trkpt lat="47.04773" lon="9.04204">
        <ele>561</ele>
        <time>2021-08-02T08:21:54.329Z</time>
      </trkpt>
      <trkpt lat="47.04773" lon="9.04203">
        <ele>561</ele>
        <time>2021-08-02T08:21:55.329Z</time>
      </trkpt>
      <trkpt lat="47.04772" lon="9.04201">
        <ele>561</ele>
        <time>2021-08-02T08:21:56.329Z</time>
      </trkpt>
      <trkpt lat="47.04772" lon="9.042">
        <ele>561</ele>
        <time>2021-08-02T08:21:57.329Z</time>
      </trkpt>
      <trkpt lat="47.04772" lon="9.04199">
        <ele>561</ele>
        <time>2021-08-02T08:21:58.330Z</time>
      </trkpt>
      <trkpt lat="47.04771" lon="9.04197">
        <ele>561</ele>
        <time>2021-08-02T08:21:59.329Z</time>
      </trkpt>
      <trkpt lat="47.04771" lon="9.04196">
        <ele>561</ele>
        <time>2021-08-02T08:22:00.329Z</time>
      </trkpt>
      <trkpt lat="47.04771" lon="9.04194">
        <ele>561</ele>
        <time>2021-08-02T08:22:01.330Z</time>
      </trkpt>
      <trkpt lat="47.04771" lon="9.04192">
        <ele>561</ele>
        <time>2021-08-02T08:22:02.329Z</time>
      </trkpt>
      <trkpt lat="47.0477" lon="9.04191">
        <ele>561</ele>
        <time>2021-08-02T08:22:03.329Z</time>
      </trkpt>
      <trkpt lat="47.0477" lon="9.04189">
        <ele>561</ele>
        <time>2021-08-02T08:22:04.330Z</time>
      </trkpt>
      <trkpt lat="47.04771" lon="9.04188">
        <ele>562</ele>
        <time>2021-08-02T08:22:05.329Z</time>
      </trkpt>
      <trkpt lat="47.04772" lon="9.04186">
        <ele>562</ele>
        <time>2021-08-02T08:22:06.330Z</time>
      </trkpt>
      <trkpt lat="47.04772" lon="9.04184">
        <ele>562</ele>
        <time>2021-08-02T08:22:07.329Z</time>
      </trkpt>
      <trkpt lat="47.04772" lon="9.04182">
        <ele>563</ele>
        <time>2021-08-02T08:22:08.330Z</time>
      </trkpt>
      <trkpt lat="47.04771" lon="9.04181">
        <ele>564</ele>
        <time>2021-08-02T08:22:09.329Z</time>
      </trkpt>
      <trkpt lat="47.04771" lon="9.04179">
        <ele>565</ele>
        <time>2021-08-02T08:22:10.330Z</time>
      </trkpt>
      <trkpt lat="47.04771" lon="9.04178">
        <ele>566</ele>
        <time>2021-08-02T08:22:11.330Z</time>
      </trkpt>
      <trkpt lat="47.04771" lon="9.04178">
        <ele>566</ele>
        <time>2021-08-02T08:22:12.330Z</time>
      </trkpt>
      <trkpt lat="47.04772" lon="9.04177">
        <ele>567</ele>
        <time>2021-08-02T08:22:13.330Z</time>
      </trkpt>
      <trkpt lat="47.04772" lon="9.04176">
        <ele>568</ele>
        <time>2021-08-02T08:22:14.330Z</time>
      </trkpt>
      <trkpt lat="47.04772" lon="9.04173">
        <ele>568</ele>
        <time>2021-08-02T08:22:15.330Z</time>
      </trkpt>
      <trkpt lat="47.04773" lon="9.04171">
        <ele>569</ele>
        <time>2021-08-02T08:22:16.329Z</time>
      </trkpt>
      <trkpt lat="47.04773" lon="9.04169">
        <ele>569</ele>
        <time>2021-08-02T08:22:17.330Z</time>
      </trkpt>
      <trkpt lat="47.04773" lon="9.04166">
        <ele>570</ele>
        <time>2021-08-02T08:22:18.330Z</time>
      </trkpt>
      <trkpt lat="47.04772" lon="9.04165">
        <ele>570</ele>
        <time>2021-08-02T08:22:19.329Z</time>
      </trkpt>
      <trkpt lat="47.04772" lon="9.04163">
        <ele>570</ele>
        <time>2021-08-02T08:22:20.330Z</time>
      </trkpt>
      <trkpt lat="47.04771" lon="9.04161">
        <ele>571</ele>
        <time>2021-08-02T08:22:21.330Z</time>
      </trkpt>
      <trkpt lat="47.04771" lon="9.0416">
        <ele>571</ele>
        <time>2021-08-02T08:22:22.330Z</time>
      </trkpt>
      <trkpt lat="47.0477" lon="9.04158">
        <ele>571</ele>
        <time>2021-08-02T08:22:23.330Z</time>
      </trkpt>
      <trkpt lat="47.0477" lon="9.04157">
        <ele>572</ele>
        <time>2021-08-02T08:22:24.330Z</time>
      </trkpt>
      <trkpt lat="47.0477" lon="9.04156">
        <ele>572</ele>
        <time>2021-08-02T08:22:25.330Z</time>
      </trkpt>
      <trkpt lat="47.04769" lon="9.04155">
        <ele>572</ele>
        <time>2021-08-02T08:22:26.330Z</time>
      </trkpt>
      <trkpt lat="47.04769" lon="9.04154">
        <ele>572</ele>
        <time>2021-08-02T08:22:27.329Z</time>
      </trkpt>
      <trkpt lat="47.04769" lon="9.04152">
        <ele>572</ele>
        <time>2021-08-02T08:22:28.330Z</time>
      </trkpt>
      <trkpt lat="47.04769" lon="9.04151">
        <ele>573</ele>
        <time>2021-08-02T08:22:29.330Z</time>
      </trkpt>
      <trkpt lat="47.04768" lon="9.04151">
        <ele>573</ele>
        <time>2021-08-02T08:22:30.330Z</time>
      </trkpt>
      <trkpt lat="47.04768" lon="9.0415">
        <ele>574</ele>
        <time>2021-08-02T08:22:31.330Z</time>
      </trkpt>
      <trkpt lat="47.04767" lon="9.0415">
        <ele>574</ele>
        <time>2021-08-02T08:22:32.330Z</time>
      </trkpt>
      <trkpt lat="47.04767" lon="9.04148">
        <ele>575</ele>
        <time>2021-08-02T08:22:33.330Z</time>
      </trkpt>
      <trkpt lat="47.04766" lon="9.04147">
        <ele>575</ele>
        <time>2021-08-02T08:22:34.330Z</time>
      </trkpt>
      <trkpt lat="47.04766" lon="9.04146">
        <ele>576</ele>
        <time>2021-08-02T08:22:35.329Z</time>
      </trkpt>
      <trkpt lat="47.04765" lon="9.04144">
        <ele>576</ele>
        <time>2021-08-02T08:22:36.330Z</time>
      </trkpt>
      <trkpt lat="47.04765" lon="9.04143">
        <ele>576</ele>
        <time>2021-08-02T08:22:37.330Z</time>
      </trkpt>
      <trkpt lat="47.04763" lon="9.0414">
        <ele>577</ele>
        <time>2021-08-02T08:22:38.330Z</time>
      </trkpt>
      <trkpt lat="47.04763" lon="9.04138">
        <ele>577</ele>
        <time>2021-08-02T08:22:39.330Z</time>
      </trkpt>
      <trkpt lat="47.04763" lon="9.04136">
        <ele>576</ele>
        <time>2021-08-02T08:22:40.329Z</time>
      </trkpt>
      <trkpt lat="47.04763" lon="9.04135">
        <ele>576</ele>
        <time>2021-08-02T08:22:41.330Z</time>
      </trkpt>
      <trkpt lat="47.04763" lon="9.04134">
        <ele>576</ele>
        <time>2021-08-02T08:22:42.329Z</time>
      </trkpt>
      <trkpt lat="47.04763" lon="9.04132">
        <ele>576</ele>
        <time>2021-08-02T08:22:43.329Z</time>
      </trkpt>
      <trkpt lat="47.04764" lon="9.04131">
        <ele>576</ele>
        <time>2021-08-02T08:22:44.330Z</time>
      </trkpt>
      <trkpt lat="47.04764" lon="9.04129">
        <ele>576</ele>
        <time>2021-08-02T08:22:45.330Z</time>
      </trkpt>
      <trkpt lat="47.04765" lon="9.04128">
        <ele>575</ele>
        <time>2021-08-02T08:22:46.329Z</time>
      </trkpt>
      <trkpt lat="47.04765" lon="9.04127">
        <ele>575</ele>
        <time>2021-08-02T08:22:47.329Z</time>
      </trkpt>
      <trkpt lat="47.04766" lon="9.04126">
        <ele>575</ele>
        <time>2021-08-02T08:22:48.330Z</time>
      </trkpt>
      <trkpt lat="47.04766" lon="9.04125">
        <ele>575</ele>
        <time>2021-08-02T08:22:49.330Z</time>
      </trkpt>
      <trkpt lat="47.04767" lon="9.04123">
        <ele>575</ele>
        <time>2021-08-02T08:22:50.329Z</time>
      </trkpt>
      <trkpt lat="47.04768" lon="9.04122">
        <ele>575</ele>
        <time>2021-08-02T08:22:51.330Z</time>
      </trkpt>
      <trkpt lat="47.04768" lon="9.04121">
        <ele>575</ele>
        <time>2021-08-02T08:22:52.330Z</time>
      </trkpt>
      <trkpt lat="47.04768" lon="9.0412">
        <ele>574</ele>
        <time>2021-08-02T08:22:53.330Z</time>
      </trkpt>
      <trkpt lat="47.04769" lon="9.04118">
        <ele>574</ele>
        <time>2021-08-02T08:22:54.330Z</time>
      </trkpt>
      <trkpt lat="47.04769" lon="9.04117">
        <ele>573</ele>
        <time>2021-08-02T08:22:55.330Z</time>
      </trkpt>
      <trkpt lat="47.0477" lon="9.04116">
        <ele>573</ele>
        <time>2021-08-02T08:22:56.330Z</time>
      </trkpt>
      <trkpt lat="47.0477" lon="9.04115">
        <ele>573</ele>
        <time>2021-08-02T08:22:57.330Z</time>
      </trkpt>
      <trkpt lat="47.04771" lon="9.04113">
        <ele>572</ele>
        <time>2021-08-02T08:22:58.330Z</time>
      </trkpt>
      <trkpt lat="47.04771" lon="9.04112">
        <ele>572</ele>
        <time>2021-08-02T08:22:59.330Z</time>
      </trkpt>
      <trkpt lat="47.04771" lon="9.04111">
        <ele>572</ele>
        <time>2021-08-02T08:23:00.330Z</time>
      </trkpt>
      <trkpt lat="47.04772" lon="9.0411">
        <ele>572</ele>
        <time>2021-08-02T08:23:01.330Z</time>
      </trkpt>
      <trkpt lat="47.04772" lon="9.04109">
        <ele>571</ele>
        <time>2021-08-02T08:23:02.329Z</time>
      </trkpt>
      <trkpt lat="47.04772" lon="9.04108">
        <ele>571</ele>
        <time>2021-08-02T08:23:03.330Z</time>
      </trkpt>
      <trkpt lat="47.04772" lon="9.04106">
        <ele>572</ele>
        <time>2021-08-02T08:23:04.330Z</time>
      </trkpt>
      <trkpt lat="47.04772" lon="9.04105">
        <ele>572</ele>
        <time>2021-08-02T08:23:05.330Z</time>
      </trkpt>
      <trkpt lat="47.04772" lon="9.04103">
        <ele>572</ele>
        <time>2021-08-02T08:23:06.330Z</time>
      </trkpt>
      <trkpt lat="47.04772" lon="9.04101">
        <ele>573</ele>
        <time>2021-08-02T08:23:07.329Z</time>
      </trkpt>
      <trkpt lat="47.04772" lon="9.041">
        <ele>573</ele>
        <time>2021-08-02T08:23:08.329Z</time>
      </trkpt>
      <trkpt lat="47.04772" lon="9.04098">
        <ele>573</ele>
        <time>2021-08-02T08:23:09.330Z</time>
      </trkpt>
      <trkpt lat="47.04773" lon="9.04096">
        <ele>573</ele>
        <time>2021-08-02T08:23:10.329Z</time>
      </trkpt>
      <trkpt lat="47.04773" lon="9.04094">
        <ele>573</ele>
        <time>2021-08-02T08:23:11.329Z</time>
      </trkpt>
      <trkpt lat="47.04774" lon="9.04091">
        <ele>574</ele>
        <time>2021-08-02T08:23:12.329Z</time>
      </trkpt>
      <trkpt lat="47.04775" lon="9.0409">
        <ele>574</ele>
        <time>2021-08-02T08:23:13.330Z</time>
      </trkpt>
      <trkpt lat="47.04774" lon="9.04089">
        <ele>574</ele>
        <time>2021-08-02T08:23:14.330Z</time>
      </trkpt>
      <trkpt lat="47.04772" lon="9.04086">
        <ele>574</ele>
        <time>2021-08-02T08:23:15.329Z</time>
      </trkpt>
      <trkpt lat="47.0477" lon="9.04084">
        <ele>574</ele>
        <time>2021-08-02T08:23:16.329Z</time>
      </trkpt>
      <trkpt lat="47.0477" lon="9.04083">
        <ele>573</ele>
        <time>2021-08-02T08:23:17.329Z</time>
      </trkpt>
      <trkpt lat="47.0477" lon="9.04082">
        <ele>573</ele>
        <time>2021-08-02T08:23:18.329Z</time>
      </trkpt>
      <trkpt lat="47.0477" lon="9.04081">
        <ele>573</ele>
        <time>2021-08-02T08:23:19.329Z</time>
      </trkpt>
      <trkpt lat="47.0477" lon="9.0408">
        <ele>572</ele>
        <time>2021-08-02T08:23:20.329Z</time>
      </trkpt>
      <trkpt lat="47.04771" lon="9.04078">
        <ele>572</ele>
        <time>2021-08-02T08:23:21.330Z</time>
      </trkpt>
      <trkpt lat="47.0477" lon="9.04077">
        <ele>572</ele>
        <time>2021-08-02T08:23:22.329Z</time>
      </trkpt>
      <trkpt lat="47.0477" lon="9.04076">
        <ele>572</ele>
        <time>2021-08-02T08:23:23.329Z</time>
      </trkpt>
      <trkpt lat="47.0477" lon="9.04074">
        <ele>572</ele>
        <time>2021-08-02T08:23:24.329Z</time>
      </trkpt>
      <trkpt lat="47.0477" lon="9.04073">
        <ele>572</ele>
        <time>2021-08-02T08:23:25.330Z</time>
      </trkpt>
      <trkpt lat="47.0477" lon="9.04072">
        <ele>572</ele>
        <time>2021-08-02T08:23:26.329Z</time>
      </trkpt>
      <trkpt lat="47.04769" lon="9.0407">
        <ele>572</ele>
        <time>2021-08-02T08:23:27.329Z</time>
      </trkpt>
      <trkpt lat="47.04768" lon="9.0407">
        <ele>572</ele>
        <time>2021-08-02T08:23:28.330Z</time>
      </trkpt>
      <trkpt lat="47.04766" lon="9.04071">
        <ele>572</ele>
        <time>2021-08-02T08:23:29.329Z</time>
      </trkpt>
      <trkpt lat="47.04766" lon="9.04072">
        <ele>572</ele>
        <time>2021-08-02T08:23:30.329Z</time>
      </trkpt>
      <trkpt lat="47.04765" lon="9.04075">
        <ele>570</ele>
        <time>2021-08-02T08:23:31.330Z</time>
      </trkpt>
      <trkpt lat="47.04764" lon="9.04075">
        <ele>570</ele>
        <time>2021-08-02T08:23:32.330Z</time>
      </trkpt>
      <trkpt lat="47.04764" lon="9.04076">
        <ele>571</ele>
        <time>2021-08-02T08:23:33.330Z</time>
      </trkpt>
      <trkpt lat="47.04765" lon="9.04079">
        <ele>572</ele>
        <time>2021-08-02T08:23:34.330Z</time>
      </trkpt>
      <trkpt lat="47.04765" lon="9.04081">
        <ele>572</ele>
        <time>2021-08-02T08:23:35.329Z</time>
      </trkpt>
      <trkpt lat="47.04764" lon="9.04082">
        <ele>573</ele>
        <time>2021-08-02T08:23:36.330Z</time>
      </trkpt>
      <trkpt lat="47.04763" lon="9.04083">
        <ele>573</ele>
        <time>2021-08-02T08:23:37.330Z</time>
      </trkpt>
      <trkpt lat="47.04763" lon="9.04084">
        <ele>573</ele>
        <time>2021-08-02T08:23:38.329Z</time>
      </trkpt>
      <trkpt lat="47.04762" lon="9.04083">
        <ele>573</ele>
        <time>2021-08-02T08:23:39.330Z</time>
      </trkpt>
      <trkpt lat="47.04761" lon="9.04081">
        <ele>573</ele>
        <time>2021-08-02T08:23:40.330Z</time>
      </trkpt>
      <trkpt lat="47.04761" lon="9.04079">
        <ele>573</ele>
        <time>2021-08-02T08:23:41.330Z</time>
      </trkpt>
      <trkpt lat="47.04762" lon="9.04079">
        <ele>573</ele>
        <time>2021-08-02T08:23:42.330Z</time>
      </trkpt>
      <trkpt lat="47.04762" lon="9.04078">
        <ele>572</ele>
        <time>2021-08-02T08:23:43.330Z</time>
      </trkpt>
      <trkpt lat="47.04761" lon="9.04078">
        <ele>572</ele>
        <time>2021-08-02T08:23:44.329Z</time>
      </trkpt>
      <trkpt lat="47.04761" lon="9.04077">
        <ele>572</ele>
        <time>2021-08-02T08:23:45.330Z</time>
      </trkpt>
      <trkpt lat="47.0476" lon="9.04077">
        <ele>572</ele>
        <time>2021-08-02T08:23:46.330Z</time>
      </trkpt>
      <trkpt lat="47.0476" lon="9.04077">
        <ele>572</ele>
        <time>2021-08-02T08:23:47.330Z</time>
      </trkpt>
      <trkpt lat="47.0476" lon="9.04078">
        <ele>571</ele>
        <time>2021-08-02T08:23:48.330Z</time>
      </trkpt>
      <trkpt lat="47.0476" lon="9.04078">
        <ele>571</ele>
        <time>2021-08-02T08:23:49.330Z</time>
      </trkpt>
      <trkpt lat="47.04758" lon="9.04068">
        <ele>553</ele>
        <time>2021-08-02T08:23:50.330Z</time>
      </trkpt>
      <trkpt lat="47.04759" lon="9.04067">
        <ele>553</ele>
        <time>2021-08-02T08:23:51.329Z</time>
      </trkpt>
      <trkpt lat="47.04759" lon="9.04066">
        <ele>554</ele>
        <time>2021-08-02T08:23:52.329Z</time>
      </trkpt>
      <trkpt lat="47.04761" lon="9.04059">
        <ele>564</ele>
        <time>2021-08-02T08:23:53.330Z</time>
      </trkpt>
      <trkpt lat="47.04761" lon="9.04058">
        <ele>565</ele>
        <time>2021-08-02T08:23:54.329Z</time>
      </trkpt>
      <trkpt lat="47.04761" lon="9.04058">
        <ele>565</ele>
        <time>2021-08-02T08:23:55.330Z</time>
      </trkpt>
      <trkpt lat="47.04761" lon="9.04059">
        <ele>565</ele>
        <time>2021-08-02T08:23:56.329Z</time>
      </trkpt>
      <trkpt lat="47.04761" lon="9.04059">
        <ele>565</ele>
        <time>2021-08-02T08:23:57.330Z</time>
      </trkpt>
      <trkpt lat="47.04761" lon="9.04059">
        <ele>565</ele>
        <time>2021-08-02T08:23:58.329Z</time>
      </trkpt>
      <trkpt lat="47.04761" lon="9.04058">
        <ele>566</ele>
        <time>2021-08-02T08:23:59.330Z</time>
      </trkpt>
      <trkpt lat="47.0476" lon="9.04057">
        <ele>566</ele>
        <time>2021-08-02T08:24:00.330Z</time>
      </trkpt>
      <trkpt lat="47.0476" lon="9.04057">
        <ele>566</ele>
        <time>2021-08-02T08:24:01.329Z</time>
      </trkpt>
      <trkpt lat="47.0476" lon="9.04056">
        <ele>566</ele>
        <time>2021-08-02T08:24:02.330Z</time>
      </trkpt>
      <trkpt lat="47.0476" lon="9.04055">
        <ele>566</ele>
        <time>2021-08-02T08:24:03.330Z</time>
      </trkpt>
      <trkpt lat="47.04761" lon="9.04054">
        <ele>566</ele>
        <time>2021-08-02T08:24:04.329Z</time>
      </trkpt>
      <trkpt lat="47.04761" lon="9.04053">
        <ele>566</ele>
        <time>2021-08-02T08:24:05.329Z</time>
      </trkpt>
      <trkpt lat="47.04762" lon="9.04052">
        <ele>565</ele>
        <time>2021-08-02T08:24:06.330Z</time>
      </trkpt>
      <trkpt lat="47.04761" lon="9.04051">
        <ele>565</ele>
        <time>2021-08-02T08:24:07.330Z</time>
      </trkpt>
      <trkpt lat="47.0476" lon="9.0405">
        <ele>565</ele>
        <time>2021-08-02T08:24:08.329Z</time>
      </trkpt>
      <trkpt lat="47.0476" lon="9.0405">
        <ele>565</ele>
        <time>2021-08-02T08:24:09.330Z</time>
      </trkpt>
      <trkpt lat="47.04759" lon="9.04049">
        <ele>565</ele>
        <time>2021-08-02T08:24:10.330Z</time>
      </trkpt>
      <trkpt lat="47.04759" lon="9.04049">
        <ele>565</ele>
        <time>2021-08-02T08:24:11.330Z</time>
      </trkpt>
      <trkpt lat="47.04758" lon="9.04049">
        <ele>566</ele>
        <time>2021-08-02T08:24:12.330Z</time>
      </trkpt>
      <trkpt lat="47.04758" lon="9.04049">
        <ele>566</ele>
        <time>2021-08-02T08:24:13.329Z</time>
      </trkpt>
      <trkpt lat="47.04757" lon="9.04049">
        <ele>566</ele>
        <time>2021-08-02T08:24:14.330Z</time>
      </trkpt>
      <trkpt lat="47.04756" lon="9.0405">
        <ele>567</ele>
        <time>2021-08-02T08:24:15.329Z</time>
      </trkpt>
      <trkpt lat="47.04756" lon="9.0405">
        <ele>567</ele>
        <time>2021-08-02T08:24:16.330Z</time>
      </trkpt>
      <trkpt lat="47.04755" lon="9.0405">
        <ele>567</ele>
        <time>2021-08-02T08:24:17.330Z</time>
      </trkpt>
      <trkpt lat="47.04755" lon="9.0405">
        <ele>567</ele>
        <time>2021-08-02T08:24:18.329Z</time>
      </trkpt>
      <trkpt lat="47.04755" lon="9.0405">
        <ele>567</ele>
        <time>2021-08-02T08:24:19.329Z</time>
      </trkpt>
      <trkpt lat="47.04754" lon="9.04051">
        <ele>567</ele>
        <time>2021-08-02T08:24:20.330Z</time>
      </trkpt>
      <trkpt lat="47.04754" lon="9.04051">
        <ele>567</ele>
        <time>2021-08-02T08:24:21.330Z</time>
      </trkpt>
      <trkpt lat="47.04754" lon="9.04051">
        <ele>566</ele>
        <time>2021-08-02T08:24:22.329Z</time>
      </trkpt>
      <trkpt lat="47.04763" lon="9.04052">
        <ele>561</ele>
        <time>2021-08-02T08:24:23.332Z</time>
      </trkpt>
      <trkpt lat="47.04763" lon="9.04053">
        <ele>561</ele>
        <time>2021-08-02T08:24:24.332Z</time>
      </trkpt>
      <trkpt lat="47.04764" lon="9.04053">
        <ele>561</ele>
        <time>2021-08-02T08:24:25.331Z</time>
      </trkpt>
      <trkpt lat="47.04763" lon="9.04052">
        <ele>561</ele>
        <time>2021-08-02T08:24:26.332Z</time>
      </trkpt>
      <trkpt lat="47.04766" lon="9.04051">
        <ele>562</ele>
        <time>2021-08-02T08:24:27.333Z</time>
      </trkpt>
      <trkpt lat="47.04766" lon="9.04051">
        <ele>562</ele>
        <time>2021-08-02T08:24:28.333Z</time>
      </trkpt>
      <trkpt lat="47.04765" lon="9.04051">
        <ele>563</ele>
        <time>2021-08-02T08:24:29.332Z</time>
      </trkpt>
      <trkpt lat="47.04765" lon="9.0405">
        <ele>563</ele>
        <time>2021-08-02T08:24:30.333Z</time>
      </trkpt>
      <trkpt lat="47.04765" lon="9.0405">
        <ele>564</ele>
        <time>2021-08-02T08:24:31.332Z</time>
      </trkpt>
      <trkpt lat="47.04764" lon="9.04049">
        <ele>565</ele>
        <time>2021-08-02T08:24:32.333Z</time>
      </trkpt>
      <trkpt lat="47.04764" lon="9.04049">
        <ele>565</ele>
        <time>2021-08-02T08:24:33.333Z</time>
      </trkpt>
      <trkpt lat="47.04763" lon="9.04048">
        <ele>565</ele>
        <time>2021-08-02T08:24:34.333Z</time>
      </trkpt>
      <trkpt lat="47.04762" lon="9.04047">
        <ele>566</ele>
        <time>2021-08-02T08:24:35.333Z</time>
      </trkpt>
      <trkpt lat="47.04761" lon="9.04046">
        <ele>566</ele>
        <time>2021-08-02T08:24:36.333Z</time>
      </trkpt>
      <trkpt lat="47.0476" lon="9.04046">
        <ele>566</ele>
        <time>2021-08-02T08:24:37.333Z</time>
      </trkpt>
      <trkpt lat="47.0476" lon="9.04045">
        <ele>567</ele>
        <time>2021-08-02T08:24:38.333Z</time>
      </trkpt>
      <trkpt lat="47.0476" lon="9.04045">
        <ele>567</ele>
        <time>2021-08-02T08:24:39.333Z</time>
      </trkpt>
      <trkpt lat="47.0476" lon="9.04044">
        <ele>568</ele>
        <time>2021-08-02T08:24:40.333Z</time>
      </trkpt>
      <trkpt lat="47.0476" lon="9.04043">
        <ele>568</ele>
        <time>2021-08-02T08:24:41.332Z</time>
      </trkpt>
      <trkpt lat="47.0476" lon="9.04042">
        <ele>568</ele>
        <time>2021-08-02T08:24:42.333Z</time>
      </trkpt>
      <trkpt lat="47.0476" lon="9.04041">
        <ele>569</ele>
        <time>2021-08-02T08:24:43.333Z</time>
      </trkpt>
      <trkpt lat="47.0476" lon="9.0404">
        <ele>569</ele>
        <time>2021-08-02T08:24:44.333Z</time>
      </trkpt>
      <trkpt lat="47.04759" lon="9.04039">
        <ele>570</ele>
        <time>2021-08-02T08:24:45.332Z</time>
      </trkpt>
      <trkpt lat="47.04759" lon="9.04039">
        <ele>570</ele>
        <time>2021-08-02T08:24:46.333Z</time>
      </trkpt>
      <trkpt lat="47.04758" lon="9.04038">
        <ele>571</ele>
        <time>2021-08-02T08:24:47.333Z</time>
      </trkpt>
      <trkpt lat="47.04758" lon="9.04038">
        <ele>571</ele>
        <time>2021-08-02T08:24:48.333Z</time>
      </trkpt>
      <trkpt lat="47.04757" lon="9.04037">
        <ele>571</ele>
        <time>2021-08-02T08:24:49.333Z</time>
      </trkpt>
      <trkpt lat="47.04756" lon="9.04036">
        <ele>572</ele>
        <time>2021-08-02T08:24:50.332Z</time>
      </trkpt>
      <trkpt lat="47.04756" lon="9.04035">
        <ele>573</ele>
        <time>2021-08-02T08:24:51.333Z</time>
      </trkpt>
      <trkpt lat="47.04755" lon="9.04034">
        <ele>574</ele>
        <time>2021-08-02T08:24:52.333Z</time>
      </trkpt>
      <trkpt lat="47.04755" lon="9.04033">
        <ele>575</ele>
        <time>2021-08-02T08:24:53.332Z</time>
      </trkpt>
      <trkpt lat="47.04756" lon="9.04032">
        <ele>576</ele>
        <time>2021-08-02T08:24:54.332Z</time>
      </trkpt>
      <trkpt lat="47.04757" lon="9.04031">
        <ele>577</ele>
        <time>2021-08-02T08:24:55.332Z</time>
      </trkpt>
      <trkpt lat="47.04758" lon="9.04029">
        <ele>578</ele>
        <time>2021-08-02T08:24:56.332Z</time>
      </trkpt>
      <trkpt lat="47.04757" lon="9.04027">
        <ele>579</ele>
        <time>2021-08-02T08:24:57.333Z</time>
      </trkpt>
      <trkpt lat="47.04757" lon="9.04025">
        <ele>579</ele>
        <time>2021-08-02T08:24:58.332Z</time>
      </trkpt>
      <trkpt lat="47.04755" lon="9.04024">
        <ele>580</ele>
        <time>2021-08-02T08:24:59.333Z</time>
      </trkpt>
      <trkpt lat="47.04754" lon="9.04022">
        <ele>581</ele>
        <time>2021-08-02T08:25:00.333Z</time>
      </trkpt>
      <trkpt lat="47.04754" lon="9.04021">
        <ele>582</ele>
        <time>2021-08-02T08:25:01.332Z</time>
      </trkpt>
      <trkpt lat="47.04754" lon="9.04021">
        <ele>583</ele>
        <time>2021-08-02T08:25:02.333Z</time>
      </trkpt>
      <trkpt lat="47.04753" lon="9.0402">
        <ele>584</ele>
        <time>2021-08-02T08:25:03.332Z</time>
      </trkpt>
      <trkpt lat="47.04753" lon="9.04019">
        <ele>585</ele>
        <time>2021-08-02T08:25:04.332Z</time>
      </trkpt>
      <trkpt lat="47.04752" lon="9.04019">
        <ele>585</ele>
        <time>2021-08-02T08:25:05.333Z</time>
      </trkpt>
      <trkpt lat="47.04752" lon="9.04018">
        <ele>586</ele>
        <time>2021-08-02T08:25:06.333Z</time>
      </trkpt>
      <trkpt lat="47.04751" lon="9.04017">
        <ele>587</ele>
        <time>2021-08-02T08:25:07.333Z</time>
      </trkpt>
      <trkpt lat="47.0475" lon="9.04015">
        <ele>588</ele>
        <time>2021-08-02T08:25:08.333Z</time>
      </trkpt>
      <trkpt lat="47.0475" lon="9.04014">
        <ele>589</ele>
        <time>2021-08-02T08:25:09.332Z</time>
      </trkpt>
      <trkpt lat="47.04749" lon="9.04013">
        <ele>589</ele>
        <time>2021-08-02T08:25:10.333Z</time>
      </trkpt>
      <trkpt lat="47.04748" lon="9.04011">
        <ele>590</ele>
        <time>2021-08-02T08:25:11.332Z</time>
      </trkpt>
      <trkpt lat="47.04747" lon="9.0401">
        <ele>591</ele>
        <time>2021-08-02T08:25:12.333Z</time>
      </trkpt>
      <trkpt lat="47.04746" lon="9.04009">
        <ele>591</ele>
        <time>2021-08-02T08:25:13.333Z</time>
      </trkpt>
      <trkpt lat="47.04746" lon="9.04008">
        <ele>591</ele>
        <time>2021-08-02T08:25:14.332Z</time>
      </trkpt>
      <trkpt lat="47.04745" lon="9.04007">
        <ele>592</ele>
        <time>2021-08-02T08:25:15.333Z</time>
      </trkpt>
      <trkpt lat="47.04745" lon="9.04006">
        <ele>592</ele>
        <time>2021-08-02T08:25:16.333Z</time>
      </trkpt>
      <trkpt lat="47.04745" lon="9.04005">
        <ele>592</ele>
        <time>2021-08-02T08:25:17.333Z</time>
      </trkpt>
      <trkpt lat="47.04744" lon="9.04004">
        <ele>592</ele>
        <time>2021-08-02T08:25:18.333Z</time>
      </trkpt>
      <trkpt lat="47.04744" lon="9.04003">
        <ele>592</ele>
        <time>2021-08-02T08:25:19.332Z</time>
      </trkpt>
      <trkpt lat="47.04744" lon="9.04001">
        <ele>592</ele>
        <time>2021-08-02T08:25:20.333Z</time>
      </trkpt>
      <trkpt lat="47.04744" lon="9.04">
        <ele>592</ele>
        <time>2021-08-02T08:25:21.333Z</time>
      </trkpt>
      <trkpt lat="47.04743" lon="9.03998">
        <ele>592</ele>
        <time>2021-08-02T08:25:22.333Z</time>
      </trkpt>
      <trkpt lat="47.04742" lon="9.03998">
        <ele>592</ele>
        <time>2021-08-02T08:25:23.332Z</time>
      </trkpt>
      <trkpt lat="47.04741" lon="9.03997">
        <ele>592</ele>
        <time>2021-08-02T08:25:24.333Z</time>
      </trkpt>
      <trkpt lat="47.0474" lon="9.03996">
        <ele>591</ele>
        <time>2021-08-02T08:25:25.332Z</time>
      </trkpt>
      <trkpt lat="47.0474" lon="9.03995">
        <ele>591</ele>
        <time>2021-08-02T08:25:26.332Z</time>
      </trkpt>
      <trkpt lat="47.04741" lon="9.03993">
        <ele>590</ele>
        <time>2021-08-02T08:25:27.333Z</time>
      </trkpt>
      <trkpt lat="47.0474" lon="9.0399">
        <ele>590</ele>
        <time>2021-08-02T08:25:28.332Z</time>
      </trkpt>
      <trkpt lat="47.0474" lon="9.03987">
        <ele>590</ele>
        <time>2021-08-02T08:25:29.332Z</time>
      </trkpt>
      <trkpt lat="47.0474" lon="9.03985">
        <ele>590</ele>
        <time>2021-08-02T08:25:30.332Z</time>
      </trkpt>
      <trkpt lat="47.0474" lon="9.03984">
        <ele>590</ele>
        <time>2021-08-02T08:25:31.333Z</time>
      </trkpt>
      <trkpt lat="47.04739" lon="9.03982">
        <ele>590</ele>
        <time>2021-08-02T08:25:32.332Z</time>
      </trkpt>
      <trkpt lat="47.04738" lon="9.03981">
        <ele>590</ele>
        <time>2021-08-02T08:25:33.332Z</time>
      </trkpt>
      <trkpt lat="47.04738" lon="9.03979">
        <ele>591</ele>
        <time>2021-08-02T08:25:34.333Z</time>
      </trkpt>
      <trkpt lat="47.04737" lon="9.03978">
        <ele>591</ele>
        <time>2021-08-02T08:25:35.333Z</time>
      </trkpt>
      <trkpt lat="47.04737" lon="9.03976">
        <ele>591</ele>
        <time>2021-08-02T08:25:36.333Z</time>
      </trkpt>
      <trkpt lat="47.04736" lon="9.03975">
        <ele>592</ele>
        <time>2021-08-02T08:25:37.332Z</time>
      </trkpt>
      <trkpt lat="47.04736" lon="9.03972">
        <ele>592</ele>
        <time>2021-08-02T08:25:38.332Z</time>
      </trkpt>
      <trkpt lat="47.04735" lon="9.0397">
        <ele>592</ele>
        <time>2021-08-02T08:25:39.333Z</time>
      </trkpt>
      <trkpt lat="47.04734" lon="9.03968">
        <ele>593</ele>
        <time>2021-08-02T08:25:40.333Z</time>
      </trkpt>
      <trkpt lat="47.04733" lon="9.03966">
        <ele>593</ele>
        <time>2021-08-02T08:25:41.333Z</time>
      </trkpt>
      <trkpt lat="47.04733" lon="9.03962">
        <ele>594</ele>
        <time>2021-08-02T08:25:42.332Z</time>
      </trkpt>
      <trkpt lat="47.04733" lon="9.03959">
        <ele>594</ele>
        <time>2021-08-02T08:25:43.332Z</time>
      </trkpt>
      <trkpt lat="47.04733" lon="9.03957">
        <ele>595</ele>
        <time>2021-08-02T08:25:44.333Z</time>
      </trkpt>
      <trkpt lat="47.04732" lon="9.03955">
        <ele>595</ele>
        <time>2021-08-02T08:25:45.333Z</time>
      </trkpt>
      <trkpt lat="47.0473" lon="9.03953">
        <ele>596</ele>
        <time>2021-08-02T08:25:46.333Z</time>
      </trkpt>
      <trkpt lat="47.04729" lon="9.03952">
        <ele>596</ele>
        <time>2021-08-02T08:25:47.333Z</time>
      </trkpt>
      <trkpt lat="47.04728" lon="9.03951">
        <ele>596</ele>
        <time>2021-08-02T08:25:48.332Z</time>
      </trkpt>
      <trkpt lat="47.04728" lon="9.0395">
        <ele>596</ele>
        <time>2021-08-02T08:25:49.332Z</time>
      </trkpt>
      <trkpt lat="47.04728" lon="9.03948">
        <ele>597</ele>
        <time>2021-08-02T08:25:50.332Z</time>
      </trkpt>
      <trkpt lat="47.04728" lon="9.03947">
        <ele>597</ele>
        <time>2021-08-02T08:25:51.333Z</time>
      </trkpt>
      <trkpt lat="47.04728" lon="9.03946">
        <ele>598</ele>
        <time>2021-08-02T08:25:52.333Z</time>
      </trkpt>
      <trkpt lat="47.04728" lon="9.03945">
        <ele>598</ele>
        <time>2021-08-02T08:25:53.333Z</time>
      </trkpt>
      <trkpt lat="47.04729" lon="9.03944">
        <ele>599</ele>
        <time>2021-08-02T08:25:54.333Z</time>
      </trkpt>
      <trkpt lat="47.04729" lon="9.03943">
        <ele>600</ele>
        <time>2021-08-02T08:25:55.333Z</time>
      </trkpt>
      <trkpt lat="47.04728" lon="9.03941">
        <ele>600</ele>
        <time>2021-08-02T08:25:56.332Z</time>
      </trkpt>
      <trkpt lat="47.04727" lon="9.0394">
        <ele>601</ele>
        <time>2021-08-02T08:25:57.333Z</time>
      </trkpt>
      <trkpt lat="47.04726" lon="9.03939">
        <ele>601</ele>
        <time>2021-08-02T08:25:58.332Z</time>
      </trkpt>
      <trkpt lat="47.04725" lon="9.03938">
        <ele>601</ele>
        <time>2021-08-02T08:25:59.333Z</time>
      </trkpt>
      <trkpt lat="47.04725" lon="9.03937">
        <ele>602</ele>
        <time>2021-08-02T08:26:00.333Z</time>
      </trkpt>
      <trkpt lat="47.04724" lon="9.03936">
        <ele>602</ele>
        <time>2021-08-02T08:26:01.333Z</time>
      </trkpt>
      <trkpt lat="47.04724" lon="9.03935">
        <ele>602</ele>
        <time>2021-08-02T08:26:02.333Z</time>
      </trkpt>
      <trkpt lat="47.04724" lon="9.03935">
        <ele>602</ele>
        <time>2021-08-02T08:26:03.333Z</time>
      </trkpt>
      <trkpt lat="47.04723" lon="9.03934">
        <ele>602</ele>
        <time>2021-08-02T08:26:04.332Z</time>
      </trkpt>
      <trkpt lat="47.04723" lon="9.03933">
        <ele>602</ele>
        <time>2021-08-02T08:26:05.333Z</time>
      </trkpt>
      <trkpt lat="47.04723" lon="9.03931">
        <ele>602</ele>
        <time>2021-08-02T08:26:06.333Z</time>
      </trkpt>
      <trkpt lat="47.04723" lon="9.0393">
        <ele>602</ele>
        <time>2021-08-02T08:26:07.333Z</time>
      </trkpt>
      <trkpt lat="47.04722" lon="9.03929">
        <ele>602</ele>
        <time>2021-08-02T08:26:08.333Z</time>
      </trkpt>
      <trkpt lat="47.04722" lon="9.03928">
        <ele>602</ele>
        <time>2021-08-02T08:26:09.333Z</time>
      </trkpt>
      <trkpt lat="47.04721" lon="9.03927">
        <ele>603</ele>
        <time>2021-08-02T08:26:10.333Z</time>
      </trkpt>
      <trkpt lat="47.04721" lon="9.03926">
        <ele>603</ele>
        <time>2021-08-02T08:26:11.332Z</time>
      </trkpt>
      <trkpt lat="47.04721" lon="9.03925">
        <ele>603</ele>
        <time>2021-08-02T08:26:12.333Z</time>
      </trkpt>
      <trkpt lat="47.04721" lon="9.03924">
        <ele>603</ele>
        <time>2021-08-02T08:26:13.333Z</time>
      </trkpt>
      <trkpt lat="47.04721" lon="9.03922">
        <ele>604</ele>
        <time>2021-08-02T08:26:14.333Z</time>
      </trkpt>
      <trkpt lat="47.04721" lon="9.03921">
        <ele>604</ele>
        <time>2021-08-02T08:26:15.333Z</time>
      </trkpt>
      <trkpt lat="47.04722" lon="9.0392">
        <ele>604</ele>
        <time>2021-08-02T08:26:16.332Z</time>
      </trkpt>
      <trkpt lat="47.04721" lon="9.03919">
        <ele>604</ele>
        <time>2021-08-02T08:26:17.332Z</time>
      </trkpt>
      <trkpt lat="47.04721" lon="9.03916">
        <ele>604</ele>
        <time>2021-08-02T08:26:18.333Z</time>
      </trkpt>
      <trkpt lat="47.04721" lon="9.03914">
        <ele>604</ele>
        <time>2021-08-02T08:26:19.333Z</time>
      </trkpt>
      <trkpt lat="47.04721" lon="9.03913">
        <ele>604</ele>
        <time>2021-08-02T08:26:20.333Z</time>
      </trkpt>
      <trkpt lat="47.04721" lon="9.03912">
        <ele>604</ele>
        <time>2021-08-02T08:26:21.333Z</time>
      </trkpt>
      <trkpt lat="47.04721" lon="9.03911">
        <ele>605</ele>
        <time>2021-08-02T08:26:22.332Z</time>
      </trkpt>
      <trkpt lat="47.04721" lon="9.03909">
        <ele>605</ele>
        <time>2021-08-02T08:26:23.332Z</time>
      </trkpt>
      <trkpt lat="47.0472" lon="9.03908">
        <ele>605</ele>
        <time>2021-08-02T08:26:24.333Z</time>
      </trkpt>
      <trkpt lat="47.04719" lon="9.03907">
        <ele>606</ele>
        <time>2021-08-02T08:26:25.332Z</time>
      </trkpt>
      <trkpt lat="47.04719" lon="9.03906">
        <ele>606</ele>
        <time>2021-08-02T08:26:26.333Z</time>
      </trkpt>
      <trkpt lat="47.04719" lon="9.03905">
        <ele>607</ele>
        <time>2021-08-02T08:26:27.332Z</time>
      </trkpt>
      <trkpt lat="47.0472" lon="9.03904">
        <ele>608</ele>
        <time>2021-08-02T08:26:28.333Z</time>
      </trkpt>
      <trkpt lat="47.04721" lon="9.03903">
        <ele>609</ele>
        <time>2021-08-02T08:26:29.333Z</time>
      </trkpt>
      <trkpt lat="47.04721" lon="9.03902">
        <ele>609</ele>
        <time>2021-08-02T08:26:30.333Z</time>
      </trkpt>
      <trkpt lat="47.04721" lon="9.03901">
        <ele>610</ele>
        <time>2021-08-02T08:26:31.333Z</time>
      </trkpt>
      <trkpt lat="47.04719" lon="9.039">
        <ele>610</ele>
        <time>2021-08-02T08:26:32.332Z</time>
      </trkpt>
      <trkpt lat="47.04718" lon="9.039">
        <ele>610</ele>
        <time>2021-08-02T08:26:33.332Z</time>
      </trkpt>
      <trkpt lat="47.04718" lon="9.03898">
        <ele>610</ele>
        <time>2021-08-02T08:26:34.333Z</time>
      </trkpt>
      <trkpt lat="47.04717" lon="9.03897">
        <ele>611</ele>
        <time>2021-08-02T08:26:35.333Z</time>
      </trkpt>
      <trkpt lat="47.04717" lon="9.03896">
        <ele>611</ele>
        <time>2021-08-02T08:26:36.333Z</time>
      </trkpt>
      <trkpt lat="47.04717" lon="9.03895">
        <ele>611</ele>
        <time>2021-08-02T08:26:37.333Z</time>
      </trkpt>
      <trkpt lat="47.04716" lon="9.03894">
        <ele>610</ele>
        <time>2021-08-02T08:26:38.334Z</time>
      </trkpt>
      <trkpt lat="47.04716" lon="9.03893">
        <ele>610</ele>
        <time>2021-08-02T08:26:39.334Z</time>
      </trkpt>
      <trkpt lat="47.04715" lon="9.03892">
        <ele>609</ele>
        <time>2021-08-02T08:26:40.334Z</time>
      </trkpt>
      <trkpt lat="47.04715" lon="9.03891">
        <ele>609</ele>
        <time>2021-08-02T08:26:41.334Z</time>
      </trkpt>
      <trkpt lat="47.04715" lon="9.0389">
        <ele>608</ele>
        <time>2021-08-02T08:26:42.334Z</time>
      </trkpt>
      <trkpt lat="47.04714" lon="9.03889">
        <ele>609</ele>
        <time>2021-08-02T08:26:43.334Z</time>
      </trkpt>
      <trkpt lat="47.04714" lon="9.03888">
        <ele>609</ele>
        <time>2021-08-02T08:26:44.334Z</time>
      </trkpt>
      <trkpt lat="47.04713" lon="9.03886">
        <ele>609</ele>
        <time>2021-08-02T08:26:45.334Z</time>
      </trkpt>
      <trkpt lat="47.04713" lon="9.03884">
        <ele>609</ele>
        <time>2021-08-02T08:26:46.334Z</time>
      </trkpt>
      <trkpt lat="47.04713" lon="9.03883">
        <ele>609</ele>
        <time>2021-08-02T08:26:47.334Z</time>
      </trkpt>
      <trkpt lat="47.04711" lon="9.03881">
        <ele>609</ele>
        <time>2021-08-02T08:26:48.333Z</time>
      </trkpt>
      <trkpt lat="47.0471" lon="9.03879">
        <ele>608</ele>
        <time>2021-08-02T08:26:49.334Z</time>
      </trkpt>
      <trkpt lat="47.04709" lon="9.03878">
        <ele>607</ele>
        <time>2021-08-02T08:26:50.334Z</time>
      </trkpt>
      <trkpt lat="47.04708" lon="9.03877">
        <ele>607</ele>
        <time>2021-08-02T08:26:51.334Z</time>
      </trkpt>
      <trkpt lat="47.04708" lon="9.03875">
        <ele>606</ele>
        <time>2021-08-02T08:26:52.334Z</time>
      </trkpt>
      <trkpt lat="47.04707" lon="9.03874">
        <ele>605</ele>
        <time>2021-08-02T08:26:53.334Z</time>
      </trkpt>
      <trkpt lat="47.04706" lon="9.03873">
        <ele>605</ele>
        <time>2021-08-02T08:26:54.334Z</time>
      </trkpt>
      <trkpt lat="47.04705" lon="9.03871">
        <ele>604</ele>
        <time>2021-08-02T08:26:55.334Z</time>
      </trkpt>
      <trkpt lat="47.04703" lon="9.03869">
        <ele>603</ele>
        <time>2021-08-02T08:26:56.334Z</time>
      </trkpt>
      <trkpt lat="47.04701" lon="9.03868">
        <ele>603</ele>
        <time>2021-08-02T08:26:57.334Z</time>
      </trkpt>
      <trkpt lat="47.047" lon="9.03868">
        <ele>602</ele>
        <time>2021-08-02T08:26:58.334Z</time>
      </trkpt>
      <trkpt lat="47.047" lon="9.03868">
        <ele>602</ele>
        <time>2021-08-02T08:26:59.334Z</time>
      </trkpt>
      <trkpt lat="47.04696" lon="9.0387">
        <ele>599</ele>
        <time>2021-08-02T08:27:00.334Z</time>
      </trkpt>
      <trkpt lat="47.04695" lon="9.03871">
        <ele>599</ele>
        <time>2021-08-02T08:27:01.333Z</time>
      </trkpt>
      <trkpt lat="47.04694" lon="9.03872">
        <ele>598</ele>
        <time>2021-08-02T08:27:02.333Z</time>
      </trkpt>
      <trkpt lat="47.04692" lon="9.03873">
        <ele>596</ele>
        <time>2021-08-02T08:27:03.333Z</time>
      </trkpt>
      <trkpt lat="47.04691" lon="9.03873">
        <ele>595</ele>
        <time>2021-08-02T08:27:04.333Z</time>
      </trkpt>
      <trkpt lat="47.04686" lon="9.03873">
        <ele>574</ele>
        <time>2021-08-02T08:27:05.334Z</time>
      </trkpt>
      <trkpt lat="47.04687" lon="9.03871">
        <ele>573</ele>
        <time>2021-08-02T08:27:06.334Z</time>
      </trkpt>
      <trkpt lat="47.04684" lon="9.03872">
        <ele>577</ele>
        <time>2021-08-02T08:27:07.333Z</time>
      </trkpt>
      <trkpt lat="47.04685" lon="9.03871">
        <ele>577</ele>
        <time>2021-08-02T08:27:08.334Z</time>
      </trkpt>
      <trkpt lat="47.04685" lon="9.0387">
        <ele>577</ele>
        <time>2021-08-02T08:27:09.333Z</time>
      </trkpt>
      <trkpt lat="47.04685" lon="9.03868">
        <ele>577</ele>
        <time>2021-08-02T08:27:10.333Z</time>
      </trkpt>
      <trkpt lat="47.04685" lon="9.03868">
        <ele>577</ele>
        <time>2021-08-02T08:27:11.334Z</time>
      </trkpt>
      <trkpt lat="47.04686" lon="9.03867">
        <ele>577</ele>
        <time>2021-08-02T08:27:12.334Z</time>
      </trkpt>
      <trkpt lat="47.04686" lon="9.03867">
        <ele>577</ele>
        <time>2021-08-02T08:27:13.333Z</time>
      </trkpt>
      <trkpt lat="47.04686" lon="9.03867">
        <ele>577</ele>
        <time>2021-08-02T08:27:14.334Z</time>
      </trkpt>
      <trkpt lat="47.04686" lon="9.03868">
        <ele>577</ele>
        <time>2021-08-02T08:27:15.333Z</time>
      </trkpt>
      <trkpt lat="47.04686" lon="9.03868">
        <ele>577</ele>
        <time>2021-08-02T08:27:16.334Z</time>
      </trkpt>
      <trkpt lat="47.04685" lon="9.03868">
        <ele>577</ele>
        <time>2021-08-02T08:27:17.333Z</time>
      </trkpt>
      <trkpt lat="47.04685" lon="9.03867">
        <ele>577</ele>
        <time>2021-08-02T08:27:18.333Z</time>
      </trkpt>
      <trkpt lat="47.04685" lon="9.03867">
        <ele>577</ele>
        <time>2021-08-02T08:27:19.334Z</time>
      </trkpt>
      <trkpt lat="47.04683" lon="9.03869">
        <ele>577</ele>
        <time>2021-08-02T08:27:20.334Z</time>
      </trkpt>
      <trkpt lat="47.04683" lon="9.0387">
        <ele>577</ele>
        <time>2021-08-02T08:27:21.335Z</time>
      </trkpt>
      <trkpt lat="47.04682" lon="9.0387">
        <ele>577</ele>
        <time>2021-08-02T08:27:22.335Z</time>
      </trkpt>
      <trkpt lat="47.04683" lon="9.03869">
        <ele>577</ele>
        <time>2021-08-02T08:27:23.335Z</time>
      </trkpt>
      <trkpt lat="47.04682" lon="9.03868">
        <ele>576</ele>
        <time>2021-08-02T08:27:24.335Z</time>
      </trkpt>
      <trkpt lat="47.04682" lon="9.03867">
        <ele>576</ele>
        <time>2021-08-02T08:27:25.335Z</time>
      </trkpt>
      <trkpt lat="47.04682" lon="9.03864">
        <ele>576</ele>
        <time>2021-08-02T08:27:26.335Z</time>
      </trkpt>
      <trkpt lat="47.04682" lon="9.03863">
        <ele>576</ele>
        <time>2021-08-02T08:27:27.336Z</time>
      </trkpt>
      <trkpt lat="47.04682" lon="9.03862">
        <ele>576</ele>
        <time>2021-08-02T08:27:28.336Z</time>
      </trkpt>
      <trkpt lat="47.04682" lon="9.03861">
        <ele>577</ele>
        <time>2021-08-02T08:27:29.336Z</time>
      </trkpt>
      <trkpt lat="47.04681" lon="9.03859">
        <ele>577</ele>
        <time>2021-08-02T08:27:30.336Z</time>
      </trkpt>
      <trkpt lat="47.04681" lon="9.03858">
        <ele>577</ele>
        <time>2021-08-02T08:27:31.335Z</time>
      </trkpt>
      <trkpt lat="47.04681" lon="9.03857">
        <ele>577</ele>
        <time>2021-08-02T08:27:32.336Z</time>
      </trkpt>
      <trkpt lat="47.04681" lon="9.03857">
        <ele>577</ele>
        <time>2021-08-02T08:27:33.336Z</time>
      </trkpt>
      <trkpt lat="47.04681" lon="9.03857">
        <ele>576</ele>
        <time>2021-08-02T08:27:34.336Z</time>
      </trkpt>
      <trkpt lat="47.04682" lon="9.03856">
        <ele>576</ele>
        <time>2021-08-02T08:27:35.335Z</time>
      </trkpt>
      <trkpt lat="47.04683" lon="9.03856">
        <ele>576</ele>
        <time>2021-08-02T08:27:36.335Z</time>
      </trkpt>
      <trkpt lat="47.04684" lon="9.03856">
        <ele>575</ele>
        <time>2021-08-02T08:27:37.336Z</time>
      </trkpt>
      <trkpt lat="47.04684" lon="9.03854">
        <ele>575</ele>
        <time>2021-08-02T08:27:38.336Z</time>
      </trkpt>
      <trkpt lat="47.04685" lon="9.03852">
        <ele>574</ele>
        <time>2021-08-02T08:27:39.336Z</time>
      </trkpt>
      <trkpt lat="47.04685" lon="9.0385">
        <ele>574</ele>
        <time>2021-08-02T08:27:40.336Z</time>
      </trkpt>
      <trkpt lat="47.04684" lon="9.03849">
        <ele>574</ele>
        <time>2021-08-02T08:27:41.335Z</time>
      </trkpt>
      <trkpt lat="47.04684" lon="9.03848">
        <ele>574</ele>
        <time>2021-08-02T08:27:42.336Z</time>
      </trkpt>
      <trkpt lat="47.04684" lon="9.03847">
        <ele>574</ele>
        <time>2021-08-02T08:27:43.335Z</time>
      </trkpt>
      <trkpt lat="47.04684" lon="9.03846">
        <ele>574</ele>
        <time>2021-08-02T08:27:44.336Z</time>
      </trkpt>
      <trkpt lat="47.04684" lon="9.03845">
        <ele>574</ele>
        <time>2021-08-02T08:27:45.336Z</time>
      </trkpt>
      <trkpt lat="47.04684" lon="9.03845">
        <ele>574</ele>
        <time>2021-08-02T08:27:46.335Z</time>
      </trkpt>
      <trkpt lat="47.04682" lon="9.03844">
        <ele>574</ele>
        <time>2021-08-02T08:27:47.335Z</time>
      </trkpt>
      <trkpt lat="47.04681" lon="9.03843">
        <ele>574</ele>
        <time>2021-08-02T08:27:48.336Z</time>
      </trkpt>
      <trkpt lat="47.0468" lon="9.03841">
        <ele>574</ele>
        <time>2021-08-02T08:27:49.336Z</time>
      </trkpt>
      <trkpt lat="47.0468" lon="9.03841">
        <ele>574</ele>
        <time>2021-08-02T08:27:50.336Z</time>
      </trkpt>
      <trkpt lat="47.04679" lon="9.0384">
        <ele>573</ele>
        <time>2021-08-02T08:27:51.335Z</time>
      </trkpt>
      <trkpt lat="47.04679" lon="9.03839">
        <ele>573</ele>
        <time>2021-08-02T08:27:52.336Z</time>
      </trkpt>
      <trkpt lat="47.04678" lon="9.03839">
        <ele>572</ele>
        <time>2021-08-02T08:27:53.335Z</time>
      </trkpt>
      <trkpt lat="47.04678" lon="9.03838">
        <ele>572</ele>
        <time>2021-08-02T08:27:54.335Z</time>
      </trkpt>
      <trkpt lat="47.04678" lon="9.03837">
        <ele>571</ele>
        <time>2021-08-02T08:27:55.336Z</time>
      </trkpt>
      <trkpt lat="47.04677" lon="9.03836">
        <ele>571</ele>
        <time>2021-08-02T08:27:56.335Z</time>
      </trkpt>
      <trkpt lat="47.04677" lon="9.03836">
        <ele>571</ele>
        <time>2021-08-02T08:27:57.336Z</time>
      </trkpt>
      <trkpt lat="47.04676" lon="9.03835">
        <ele>570</ele>
        <time>2021-08-02T08:27:58.336Z</time>
      </trkpt>
      <trkpt lat="47.04675" lon="9.03834">
        <ele>570</ele>
        <time>2021-08-02T08:27:59.336Z</time>
      </trkpt>
      <trkpt lat="47.04674" lon="9.03834">
        <ele>570</ele>
        <time>2021-08-02T08:28:00.336Z</time>
      </trkpt>
      <trkpt lat="47.04674" lon="9.03833">
        <ele>569</ele>
        <time>2021-08-02T08:28:01.335Z</time>
      </trkpt>
      <trkpt lat="47.04673" lon="9.03832">
        <ele>569</ele>
        <time>2021-08-02T08:28:02.336Z</time>
      </trkpt>
      <trkpt lat="47.04672" lon="9.03831">
        <ele>568</ele>
        <time>2021-08-02T08:28:03.336Z</time>
      </trkpt>
      <trkpt lat="47.04671" lon="9.0383">
        <ele>568</ele>
        <time>2021-08-02T08:28:04.335Z</time>
      </trkpt>
      <trkpt lat="47.0467" lon="9.03829">
        <ele>568</ele>
        <time>2021-08-02T08:28:05.336Z</time>
      </trkpt>
      <trkpt lat="47.04669" lon="9.03829">
        <ele>568</ele>
        <time>2021-08-02T08:28:06.336Z</time>
      </trkpt>
      <trkpt lat="47.04669" lon="9.03828">
        <ele>569</ele>
        <time>2021-08-02T08:28:07.335Z</time>
      </trkpt>
      <trkpt lat="47.04669" lon="9.03827">
        <ele>569</ele>
        <time>2021-08-02T08:28:08.336Z</time>
      </trkpt>
      <trkpt lat="47.0467" lon="9.03826">
        <ele>569</ele>
        <time>2021-08-02T08:28:09.336Z</time>
      </trkpt>
      <trkpt lat="47.0467" lon="9.03825">
        <ele>569</ele>
        <time>2021-08-02T08:28:10.336Z</time>
      </trkpt>
      <trkpt lat="47.0467" lon="9.03824">
        <ele>569</ele>
        <time>2021-08-02T08:28:11.336Z</time>
      </trkpt>
      <trkpt lat="47.04669" lon="9.03823">
        <ele>569</ele>
        <time>2021-08-02T08:28:12.335Z</time>
      </trkpt>
      <trkpt lat="47.04669" lon="9.03822">
        <ele>569</ele>
        <time>2021-08-02T08:28:13.335Z</time>
      </trkpt>
      <trkpt lat="47.04668" lon="9.03821">
        <ele>570</ele>
        <time>2021-08-02T08:28:14.336Z</time>
      </trkpt>
      <trkpt lat="47.04668" lon="9.0382">
        <ele>570</ele>
        <time>2021-08-02T08:28:15.336Z</time>
      </trkpt>
      <trkpt lat="47.04667" lon="9.03818">
        <ele>570</ele>
        <time>2021-08-02T08:28:16.336Z</time>
      </trkpt>
      <trkpt lat="47.04667" lon="9.03818">
        <ele>571</ele>
        <time>2021-08-02T08:28:17.336Z</time>
      </trkpt>
      <trkpt lat="47.04667" lon="9.03817">
        <ele>572</ele>
        <time>2021-08-02T08:28:18.336Z</time>
      </trkpt>
      <trkpt lat="47.04667" lon="9.03816">
        <ele>573</ele>
        <time>2021-08-02T08:28:19.336Z</time>
      </trkpt>
      <trkpt lat="47.04668" lon="9.03814">
        <ele>574</ele>
        <time>2021-08-02T08:28:20.335Z</time>
      </trkpt>
      <trkpt lat="47.04668" lon="9.03814">
        <ele>574</ele>
        <time>2021-08-02T08:28:21.336Z</time>
      </trkpt>
      <trkpt lat="47.04667" lon="9.03814">
        <ele>575</ele>
        <time>2021-08-02T08:28:22.336Z</time>
      </trkpt>
      <trkpt lat="47.04666" lon="9.03814">
        <ele>576</ele>
        <time>2021-08-02T08:28:23.335Z</time>
      </trkpt>
      <trkpt lat="47.04664" lon="9.03814">
        <ele>576</ele>
        <time>2021-08-02T08:28:24.336Z</time>
      </trkpt>
      <trkpt lat="47.04662" lon="9.03812">
        <ele>576</ele>
        <time>2021-08-02T08:28:25.336Z</time>
      </trkpt>
      <trkpt lat="47.04661" lon="9.03811">
        <ele>576</ele>
        <time>2021-08-02T08:28:26.336Z</time>
      </trkpt>
      <trkpt lat="47.0466" lon="9.03811">
        <ele>577</ele>
        <time>2021-08-02T08:28:27.335Z</time>
      </trkpt>
      <trkpt lat="47.04659" lon="9.0381">
        <ele>577</ele>
        <time>2021-08-02T08:28:28.336Z</time>
      </trkpt>
      <trkpt lat="47.04659" lon="9.03809">
        <ele>578</ele>
        <time>2021-08-02T08:28:29.335Z</time>
      </trkpt>
      <trkpt lat="47.04659" lon="9.03807">
        <ele>579</ele>
        <time>2021-08-02T08:28:30.336Z</time>
      </trkpt>
      <trkpt lat="47.04658" lon="9.03806">
        <ele>579</ele>
        <time>2021-08-02T08:28:31.335Z</time>
      </trkpt>
      <trkpt lat="47.04658" lon="9.03805">
        <ele>580</ele>
        <time>2021-08-02T08:28:32.335Z</time>
      </trkpt>
      <trkpt lat="47.04658" lon="9.03804">
        <ele>581</ele>
        <time>2021-08-02T08:28:33.336Z</time>
      </trkpt>
      <trkpt lat="47.04657" lon="9.03802">
        <ele>582</ele>
        <time>2021-08-02T08:28:34.336Z</time>
      </trkpt>
      <trkpt lat="47.04656" lon="9.03801">
        <ele>583</ele>
        <time>2021-08-02T08:28:35.336Z</time>
      </trkpt>
      <trkpt lat="47.04656" lon="9.03799">
        <ele>584</ele>
        <time>2021-08-02T08:28:36.335Z</time>
      </trkpt>
      <trkpt lat="47.04655" lon="9.03798">
        <ele>584</ele>
        <time>2021-08-02T08:28:37.335Z</time>
      </trkpt>
      <trkpt lat="47.04655" lon="9.03796">
        <ele>585</ele>
        <time>2021-08-02T08:28:38.336Z</time>
      </trkpt>
      <trkpt lat="47.04655" lon="9.03795">
        <ele>586</ele>
        <time>2021-08-02T08:28:39.336Z</time>
      </trkpt>
      <trkpt lat="47.04654" lon="9.03795">
        <ele>587</ele>
        <time>2021-08-02T08:28:40.336Z</time>
      </trkpt>
      <trkpt lat="47.04654" lon="9.03794">
        <ele>589</ele>
        <time>2021-08-02T08:28:41.336Z</time>
      </trkpt>
      <trkpt lat="47.04654" lon="9.03793">
        <ele>590</ele>
        <time>2021-08-02T08:28:42.336Z</time>
      </trkpt>
      <trkpt lat="47.04654" lon="9.03793">
        <ele>591</ele>
        <time>2021-08-02T08:28:43.336Z</time>
      </trkpt>
      <trkpt lat="47.04652" lon="9.03792">
        <ele>593</ele>
        <time>2021-08-02T08:28:44.336Z</time>
      </trkpt>
      <trkpt lat="47.04651" lon="9.03791">
        <ele>594</ele>
        <time>2021-08-02T08:28:45.335Z</time>
      </trkpt>
      <trkpt lat="47.04651" lon="9.0379">
        <ele>594</ele>
        <time>2021-08-02T08:28:46.335Z</time>
      </trkpt>
      <trkpt lat="47.0465" lon="9.03789">
        <ele>595</ele>
        <time>2021-08-02T08:28:47.335Z</time>
      </trkpt>
      <trkpt lat="47.0465" lon="9.03788">
        <ele>595</ele>
        <time>2021-08-02T08:28:48.335Z</time>
      </trkpt>
      <trkpt lat="47.0465" lon="9.03787">
        <ele>596</ele>
        <time>2021-08-02T08:28:49.336Z</time>
      </trkpt>
      <trkpt lat="47.04649" lon="9.03786">
        <ele>596</ele>
        <time>2021-08-02T08:28:50.335Z</time>
      </trkpt>
      <trkpt lat="47.04648" lon="9.03786">
        <ele>597</ele>
        <time>2021-08-02T08:28:51.335Z</time>
      </trkpt>
      <trkpt lat="47.04648" lon="9.03785">
        <ele>598</ele>
        <time>2021-08-02T08:28:52.335Z</time>
      </trkpt>
      <trkpt lat="47.04647" lon="9.03785">
        <ele>598</ele>
        <time>2021-08-02T08:28:53.335Z</time>
      </trkpt>
      <trkpt lat="47.04646" lon="9.03784">
        <ele>599</ele>
        <time>2021-08-02T08:28:54.336Z</time>
      </trkpt>
      <trkpt lat="47.04645" lon="9.03783">
        <ele>600</ele>
        <time>2021-08-02T08:28:55.335Z</time>
      </trkpt>
      <trkpt lat="47.04645" lon="9.03782">
        <ele>600</ele>
        <time>2021-08-02T08:28:56.335Z</time>
      </trkpt>
      <trkpt lat="47.04644" lon="9.03781">
        <ele>601</ele>
        <time>2021-08-02T08:28:57.336Z</time>
      </trkpt>
      <trkpt lat="47.04643" lon="9.0378">
        <ele>601</ele>
        <time>2021-08-02T08:28:58.335Z</time>
      </trkpt>
      <trkpt lat="47.04642" lon="9.03778">
        <ele>601</ele>
        <time>2021-08-02T08:28:59.335Z</time>
      </trkpt>
      <trkpt lat="47.04641" lon="9.03777">
        <ele>601</ele>
        <time>2021-08-02T08:29:00.335Z</time>
      </trkpt>
      <trkpt lat="47.04638" lon="9.03775">
        <ele>601</ele>
        <time>2021-08-02T08:29:01.335Z</time>
      </trkpt>
      <trkpt lat="47.04637" lon="9.03774">
        <ele>601</ele>
        <time>2021-08-02T08:29:02.335Z</time>
      </trkpt>
      <trkpt lat="47.04637" lon="9.03773">
        <ele>601</ele>
        <time>2021-08-02T08:29:03.335Z</time>
      </trkpt>
      <trkpt lat="47.04637" lon="9.03772">
        <ele>601</ele>
        <time>2021-08-02T08:29:04.335Z</time>
      </trkpt>
      <trkpt lat="47.04637" lon="9.03772">
        <ele>600</ele>
        <time>2021-08-02T08:29:05.336Z</time>
      </trkpt>
      <trkpt lat="47.04637" lon="9.03771">
        <ele>600</ele>
        <time>2021-08-02T08:29:06.335Z</time>
      </trkpt>
      <trkpt lat="47.04637" lon="9.0377">
        <ele>600</ele>
        <time>2021-08-02T08:29:07.335Z</time>
      </trkpt>
      <trkpt lat="47.04637" lon="9.03769">
        <ele>600</ele>
        <time>2021-08-02T08:29:08.335Z</time>
      </trkpt>
      <trkpt lat="47.04637" lon="9.03768">
        <ele>600</ele>
        <time>2021-08-02T08:29:09.335Z</time>
      </trkpt>
      <trkpt lat="47.04637" lon="9.03767">
        <ele>600</ele>
        <time>2021-08-02T08:29:10.335Z</time>
      </trkpt>
      <trkpt lat="47.04637" lon="9.03765">
        <ele>600</ele>
        <time>2021-08-02T08:29:11.336Z</time>
      </trkpt>
      <trkpt lat="47.04637" lon="9.03764">
        <ele>600</ele>
        <time>2021-08-02T08:29:12.335Z</time>
      </trkpt>
      <trkpt lat="47.04637" lon="9.03762">
        <ele>600</ele>
        <time>2021-08-02T08:29:13.335Z</time>
      </trkpt>
      <trkpt lat="47.04636" lon="9.03761">
        <ele>600</ele>
        <time>2021-08-02T08:29:14.335Z</time>
      </trkpt>
      <trkpt lat="47.04636" lon="9.0376">
        <ele>599</ele>
        <time>2021-08-02T08:29:15.335Z</time>
      </trkpt>
      <trkpt lat="47.04636" lon="9.03758">
        <ele>599</ele>
        <time>2021-08-02T08:29:16.336Z</time>
      </trkpt>
      <trkpt lat="47.04635" lon="9.03757">
        <ele>599</ele>
        <time>2021-08-02T08:29:17.335Z</time>
      </trkpt>
      <trkpt lat="47.04635" lon="9.03755">
        <ele>599</ele>
        <time>2021-08-02T08:29:18.335Z</time>
      </trkpt>
      <trkpt lat="47.04635" lon="9.03754">
        <ele>599</ele>
        <time>2021-08-02T08:29:19.335Z</time>
      </trkpt>
      <trkpt lat="47.04634" lon="9.03752">
        <ele>598</ele>
        <time>2021-08-02T08:29:20.336Z</time>
      </trkpt>
      <trkpt lat="47.04634" lon="9.0375">
        <ele>598</ele>
        <time>2021-08-02T08:29:21.336Z</time>
      </trkpt>
      <trkpt lat="47.04634" lon="9.03749">
        <ele>598</ele>
        <time>2021-08-02T08:29:22.336Z</time>
      </trkpt>
      <trkpt lat="47.04635" lon="9.03747">
        <ele>597</ele>
        <time>2021-08-02T08:29:23.336Z</time>
      </trkpt>
      <trkpt lat="47.04635" lon="9.03745">
        <ele>597</ele>
        <time>2021-08-02T08:29:24.336Z</time>
      </trkpt>
      <trkpt lat="47.04635" lon="9.03744">
        <ele>596</ele>
        <time>2021-08-02T08:29:25.336Z</time>
      </trkpt>
      <trkpt lat="47.04635" lon="9.03743">
        <ele>596</ele>
        <time>2021-08-02T08:29:26.335Z</time>
      </trkpt>
      <trkpt lat="47.04635" lon="9.03742">
        <ele>595</ele>
        <time>2021-08-02T08:29:27.336Z</time>
      </trkpt>
      <trkpt lat="47.04635" lon="9.0374">
        <ele>595</ele>
        <time>2021-08-02T08:29:28.335Z</time>
      </trkpt>
      <trkpt lat="47.04635" lon="9.03739">
        <ele>595</ele>
        <time>2021-08-02T08:29:29.335Z</time>
      </trkpt>
      <trkpt lat="47.04635" lon="9.03737">
        <ele>595</ele>
        <time>2021-08-02T08:29:30.336Z</time>
      </trkpt>
      <trkpt lat="47.04635" lon="9.03735">
        <ele>594</ele>
        <time>2021-08-02T08:29:31.336Z</time>
      </trkpt>
      <trkpt lat="47.04636" lon="9.03733">
        <ele>594</ele>
        <time>2021-08-02T08:29:32.336Z</time>
      </trkpt>
      <trkpt lat="47.04636" lon="9.03732">
        <ele>594</ele>
        <time>2021-08-02T08:29:33.336Z</time>
      </trkpt>
      <trkpt lat="47.04636" lon="9.03731">
        <ele>594</ele>
        <time>2021-08-02T08:29:34.336Z</time>
      </trkpt>
      <trkpt lat="47.04637" lon="9.03729">
        <ele>594</ele>
        <time>2021-08-02T08:29:35.336Z</time>
      </trkpt>
      <trkpt lat="47.04637" lon="9.03728">
        <ele>593</ele>
        <time>2021-08-02T08:29:36.336Z</time>
      </trkpt>
      <trkpt lat="47.04637" lon="9.03727">
        <ele>593</ele>
        <time>2021-08-02T08:29:37.336Z</time>
      </trkpt>
      <trkpt lat="47.04636" lon="9.03726">
        <ele>592</ele>
        <time>2021-08-02T08:29:38.335Z</time>
      </trkpt>
      <trkpt lat="47.04637" lon="9.03725">
        <ele>592</ele>
        <time>2021-08-02T08:29:39.335Z</time>
      </trkpt>
      <trkpt lat="47.04638" lon="9.03723">
        <ele>592</ele>
        <time>2021-08-02T08:29:40.335Z</time>
      </trkpt>
      <trkpt lat="47.04638" lon="9.03721">
        <ele>592</ele>
        <time>2021-08-02T08:29:41.335Z</time>
      </trkpt>
      <trkpt lat="47.04639" lon="9.03719">
        <ele>591</ele>
        <time>2021-08-02T08:29:42.335Z</time>
      </trkpt>
      <trkpt lat="47.04639" lon="9.03718">
        <ele>591</ele>
        <time>2021-08-02T08:29:43.336Z</time>
      </trkpt>
      <trkpt lat="47.0464" lon="9.03717">
        <ele>591</ele>
        <time>2021-08-02T08:29:44.335Z</time>
      </trkpt>
      <trkpt lat="47.0464" lon="9.03715">
        <ele>591</ele>
        <time>2021-08-02T08:29:45.336Z</time>
      </trkpt>
      <trkpt lat="47.0464" lon="9.03714">
        <ele>591</ele>
        <time>2021-08-02T08:29:46.335Z</time>
      </trkpt>
      <trkpt lat="47.0464" lon="9.03713">
        <ele>591</ele>
        <time>2021-08-02T08:29:47.335Z</time>
      </trkpt>
      <trkpt lat="47.04641" lon="9.03711">
        <ele>592</ele>
        <time>2021-08-02T08:29:48.336Z</time>
      </trkpt>
      <trkpt lat="47.04641" lon="9.0371">
        <ele>592</ele>
        <time>2021-08-02T08:29:49.335Z</time>
      </trkpt>
      <trkpt lat="47.04641" lon="9.03709">
        <ele>592</ele>
        <time>2021-08-02T08:29:50.336Z</time>
      </trkpt>
      <trkpt lat="47.04641" lon="9.03707">
        <ele>591</ele>
        <time>2021-08-02T08:29:51.336Z</time>
      </trkpt>
      <trkpt lat="47.04641" lon="9.03706">
        <ele>592</ele>
        <time>2021-08-02T08:29:52.336Z</time>
      </trkpt>
      <trkpt lat="47.04641" lon="9.03704">
        <ele>592</ele>
        <time>2021-08-02T08:29:53.335Z</time>
      </trkpt>
      <trkpt lat="47.04641" lon="9.03702">
        <ele>592</ele>
        <time>2021-08-02T08:29:54.336Z</time>
      </trkpt>
      <trkpt lat="47.0464" lon="9.037">
        <ele>592</ele>
        <time>2021-08-02T08:29:55.336Z</time>
      </trkpt>
      <trkpt lat="47.04639" lon="9.03698">
        <ele>592</ele>
        <time>2021-08-02T08:29:56.335Z</time>
      </trkpt>
      <trkpt lat="47.04639" lon="9.03697">
        <ele>592</ele>
        <time>2021-08-02T08:29:57.336Z</time>
      </trkpt>
      <trkpt lat="47.04639" lon="9.03696">
        <ele>592</ele>
        <time>2021-08-02T08:29:58.336Z</time>
      </trkpt>
      <trkpt lat="47.04638" lon="9.03694">
        <ele>592</ele>
        <time>2021-08-02T08:29:59.336Z</time>
      </trkpt>
      <trkpt lat="47.04637" lon="9.03693">
        <ele>592</ele>
        <time>2021-08-02T08:30:00.336Z</time>
      </trkpt>
      <trkpt lat="47.04637" lon="9.03691">
        <ele>592</ele>
        <time>2021-08-02T08:30:01.335Z</time>
      </trkpt>
      <trkpt lat="47.04637" lon="9.03688">
        <ele>592</ele>
        <time>2021-08-02T08:30:02.336Z</time>
      </trkpt>
      <trkpt lat="47.04636" lon="9.03687">
        <ele>592</ele>
        <time>2021-08-02T08:30:03.336Z</time>
      </trkpt>
      <trkpt lat="47.04636" lon="9.03686">
        <ele>592</ele>
        <time>2021-08-02T08:30:04.335Z</time>
      </trkpt>
      <trkpt lat="47.04635" lon="9.03684">
        <ele>592</ele>
        <time>2021-08-02T08:30:05.336Z</time>
      </trkpt>
      <trkpt lat="47.04634" lon="9.03684">
        <ele>593</ele>
        <time>2021-08-02T08:30:06.336Z</time>
      </trkpt>
      <trkpt lat="47.04634" lon="9.03683">
        <ele>593</ele>
        <time>2021-08-02T08:30:07.336Z</time>
      </trkpt>
      <trkpt lat="47.04634" lon="9.03683">
        <ele>593</ele>
        <time>2021-08-02T08:30:08.335Z</time>
      </trkpt>
      <trkpt lat="47.04633" lon="9.03683">
        <ele>593</ele>
        <time>2021-08-02T08:30:09.336Z</time>
      </trkpt>
      <trkpt lat="47.04633" lon="9.03683">
        <ele>593</ele>
        <time>2021-08-02T08:30:10.336Z</time>
      </trkpt>
      <trkpt lat="47.04634" lon="9.03683">
        <ele>594</ele>
        <time>2021-08-02T08:30:11.336Z</time>
      </trkpt>
      <trkpt lat="47.04634" lon="9.03681">
        <ele>594</ele>
        <time>2021-08-02T08:30:12.335Z</time>
      </trkpt>
      <trkpt lat="47.04634" lon="9.03679">
        <ele>594</ele>
        <time>2021-08-02T08:30:13.335Z</time>
      </trkpt>
      <trkpt lat="47.04635" lon="9.03677">
        <ele>594</ele>
        <time>2021-08-02T08:30:14.336Z</time>
      </trkpt>
      <trkpt lat="47.04635" lon="9.03676">
        <ele>595</ele>
        <time>2021-08-02T08:30:15.335Z</time>
      </trkpt>
      <trkpt lat="47.04635" lon="9.03674">
        <ele>595</ele>
        <time>2021-08-02T08:30:16.335Z</time>
      </trkpt>
      <trkpt lat="47.04633" lon="9.03671">
        <ele>595</ele>
        <time>2021-08-02T08:30:17.336Z</time>
      </trkpt>
      <trkpt lat="47.04632" lon="9.0367">
        <ele>596</ele>
        <time>2021-08-02T08:30:18.336Z</time>
      </trkpt>
      <trkpt lat="47.04632" lon="9.03669">
        <ele>596</ele>
        <time>2021-08-02T08:30:19.336Z</time>
      </trkpt>
      <trkpt lat="47.04631" lon="9.03668">
        <ele>597</ele>
        <time>2021-08-02T08:30:20.336Z</time>
      </trkpt>
      <trkpt lat="47.0463" lon="9.03667">
        <ele>598</ele>
        <time>2021-08-02T08:30:21.335Z</time>
      </trkpt>
      <trkpt lat="47.04629" lon="9.03666">
        <ele>599</ele>
        <time>2021-08-02T08:30:22.336Z</time>
      </trkpt>
      <trkpt lat="47.04628" lon="9.03665">
        <ele>600</ele>
        <time>2021-08-02T08:30:23.336Z</time>
      </trkpt>
      <trkpt lat="47.04628" lon="9.03665">
        <ele>601</ele>
        <time>2021-08-02T08:30:24.336Z</time>
      </trkpt>
      <trkpt lat="47.04628" lon="9.03664">
        <ele>602</ele>
        <time>2021-08-02T08:30:25.336Z</time>
      </trkpt>
      <trkpt lat="47.04628" lon="9.03662">
        <ele>603</ele>
        <time>2021-08-02T08:30:26.336Z</time>
      </trkpt>
      <trkpt lat="47.04628" lon="9.03661">
        <ele>603</ele>
        <time>2021-08-02T08:30:27.336Z</time>
      </trkpt>
      <trkpt lat="47.04627" lon="9.0366">
        <ele>604</ele>
        <time>2021-08-02T08:30:28.336Z</time>
      </trkpt>
      <trkpt lat="47.04627" lon="9.03659">
        <ele>605</ele>
        <time>2021-08-02T08:30:29.336Z</time>
      </trkpt>
      <trkpt lat="47.04626" lon="9.03657">
        <ele>606</ele>
        <time>2021-08-02T08:30:30.336Z</time>
      </trkpt>
      <trkpt lat="47.04626" lon="9.03656">
        <ele>606</ele>
        <time>2021-08-02T08:30:31.336Z</time>
      </trkpt>
      <trkpt lat="47.04625" lon="9.03654">
        <ele>607</ele>
        <time>2021-08-02T08:30:32.336Z</time>
      </trkpt>
      <trkpt lat="47.04624" lon="9.03653">
        <ele>607</ele>
        <time>2021-08-02T08:30:33.336Z</time>
      </trkpt>
      <trkpt lat="47.04624" lon="9.03653">
        <ele>608</ele>
        <time>2021-08-02T08:30:34.336Z</time>
      </trkpt>
      <trkpt lat="47.04623" lon="9.03652">
        <ele>608</ele>
        <time>2021-08-02T08:30:35.335Z</time>
      </trkpt>
      <trkpt lat="47.04623" lon="9.03651">
        <ele>609</ele>
        <time>2021-08-02T08:30:36.336Z</time>
      </trkpt>
      <trkpt lat="47.04623" lon="9.0365">
        <ele>609</ele>
        <time>2021-08-02T08:30:37.336Z</time>
      </trkpt>
      <trkpt lat="47.04622" lon="9.03648">
        <ele>609</ele>
        <time>2021-08-02T08:30:38.336Z</time>
      </trkpt>
      <trkpt lat="47.04622" lon="9.03647">
        <ele>609</ele>
        <time>2021-08-02T08:30:39.335Z</time>
      </trkpt>
      <trkpt lat="47.04621" lon="9.03645">
        <ele>610</ele>
        <time>2021-08-02T08:30:40.335Z</time>
      </trkpt>
      <trkpt lat="47.0462" lon="9.03644">
        <ele>610</ele>
        <time>2021-08-02T08:30:41.336Z</time>
      </trkpt>
      <trkpt lat="47.04619" lon="9.03643">
        <ele>610</ele>
        <time>2021-08-02T08:30:42.335Z</time>
      </trkpt>
      <trkpt lat="47.04618" lon="9.03642">
        <ele>611</ele>
        <time>2021-08-02T08:30:43.336Z</time>
      </trkpt>
      <trkpt lat="47.04619" lon="9.03641">
        <ele>611</ele>
        <time>2021-08-02T08:30:44.336Z</time>
      </trkpt>
      <trkpt lat="47.04618" lon="9.03641">
        <ele>611</ele>
        <time>2021-08-02T08:30:45.336Z</time>
      </trkpt>
      <trkpt lat="47.04618" lon="9.03639">
        <ele>611</ele>
        <time>2021-08-02T08:30:46.336Z</time>
      </trkpt>
      <trkpt lat="47.04617" lon="9.03637">
        <ele>611</ele>
        <time>2021-08-02T08:30:47.336Z</time>
      </trkpt>
      <trkpt lat="47.04617" lon="9.03635">
        <ele>612</ele>
        <time>2021-08-02T08:30:48.335Z</time>
      </trkpt>
      <trkpt lat="47.04616" lon="9.03634">
        <ele>612</ele>
        <time>2021-08-02T08:30:49.336Z</time>
      </trkpt>
      <trkpt lat="47.04616" lon="9.03633">
        <ele>613</ele>
        <time>2021-08-02T08:30:50.335Z</time>
      </trkpt>
      <trkpt lat="47.04615" lon="9.03632">
        <ele>613</ele>
        <time>2021-08-02T08:30:51.335Z</time>
      </trkpt>
      <trkpt lat="47.04616" lon="9.03632">
        <ele>614</ele>
        <time>2021-08-02T08:30:52.335Z</time>
      </trkpt>
      <trkpt lat="47.04615" lon="9.03632">
        <ele>615</ele>
        <time>2021-08-02T08:30:53.336Z</time>
      </trkpt>
      <trkpt lat="47.04615" lon="9.0363">
        <ele>616</ele>
        <time>2021-08-02T08:30:54.336Z</time>
      </trkpt>
      <trkpt lat="47.04616" lon="9.0363">
        <ele>616</ele>
        <time>2021-08-02T08:30:55.336Z</time>
      </trkpt>
      <trkpt lat="47.04617" lon="9.03628">
        <ele>617</ele>
        <time>2021-08-02T08:30:56.336Z</time>
      </trkpt>
      <trkpt lat="47.04617" lon="9.03628">
        <ele>618</ele>
        <time>2021-08-02T08:30:57.336Z</time>
      </trkpt>
      <trkpt lat="47.04616" lon="9.03627">
        <ele>619</ele>
        <time>2021-08-02T08:30:58.335Z</time>
      </trkpt>
      <trkpt lat="47.04615" lon="9.03627">
        <ele>620</ele>
        <time>2021-08-02T08:30:59.335Z</time>
      </trkpt>
      <trkpt lat="47.04615" lon="9.03627">
        <ele>621</ele>
        <time>2021-08-02T08:31:00.335Z</time>
      </trkpt>
      <trkpt lat="47.04614" lon="9.03626">
        <ele>622</ele>
        <time>2021-08-02T08:31:01.335Z</time>
      </trkpt>
      <trkpt lat="47.04613" lon="9.03624">
        <ele>623</ele>
        <time>2021-08-02T08:31:02.335Z</time>
      </trkpt>
      <trkpt lat="47.04613" lon="9.03623">
        <ele>624</ele>
        <time>2021-08-02T08:31:03.336Z</time>
      </trkpt>
      <trkpt lat="47.04613" lon="9.03621">
        <ele>625</ele>
        <time>2021-08-02T08:31:04.336Z</time>
      </trkpt>
      <trkpt lat="47.04612" lon="9.0362">
        <ele>627</ele>
        <time>2021-08-02T08:31:05.335Z</time>
      </trkpt>
      <trkpt lat="47.04612" lon="9.03618">
        <ele>628</ele>
        <time>2021-08-02T08:31:06.336Z</time>
      </trkpt>
      <trkpt lat="47.04612" lon="9.03617">
        <ele>629</ele>
        <time>2021-08-02T08:31:07.336Z</time>
      </trkpt>
      <trkpt lat="47.04612" lon="9.03616">
        <ele>630</ele>
        <time>2021-08-02T08:31:08.336Z</time>
      </trkpt>
      <trkpt lat="47.04613" lon="9.03615">
        <ele>631</ele>
        <time>2021-08-02T08:31:09.336Z</time>
      </trkpt>
      <trkpt lat="47.04613" lon="9.03614">
        <ele>632</ele>
        <time>2021-08-02T08:31:10.335Z</time>
      </trkpt>
      <trkpt lat="47.04614" lon="9.03613">
        <ele>634</ele>
        <time>2021-08-02T08:31:11.335Z</time>
      </trkpt>
      <trkpt lat="47.04614" lon="9.03612">
        <ele>635</ele>
        <time>2021-08-02T08:31:12.335Z</time>
      </trkpt>
      <trkpt lat="47.04615" lon="9.03611">
        <ele>637</ele>
        <time>2021-08-02T08:31:13.336Z</time>
      </trkpt>
      <trkpt lat="47.04615" lon="9.0361">
        <ele>638</ele>
        <time>2021-08-02T08:31:14.336Z</time>
      </trkpt>
      <trkpt lat="47.04615" lon="9.03608">
        <ele>640</ele>
        <time>2021-08-02T08:31:15.336Z</time>
      </trkpt>
      <trkpt lat="47.04615" lon="9.03606">
        <ele>641</ele>
        <time>2021-08-02T08:31:16.335Z</time>
      </trkpt>
      <trkpt lat="47.04615" lon="9.03606">
        <ele>643</ele>
        <time>2021-08-02T08:31:17.336Z</time>
      </trkpt>
      <trkpt lat="47.04615" lon="9.03605">
        <ele>644</ele>
        <time>2021-08-02T08:31:18.336Z</time>
      </trkpt>
      <trkpt lat="47.04615" lon="9.03604">
        <ele>646</ele>
        <time>2021-08-02T08:31:19.336Z</time>
      </trkpt>
      <trkpt lat="47.04615" lon="9.03602">
        <ele>647</ele>
        <time>2021-08-02T08:31:20.336Z</time>
      </trkpt>
      <trkpt lat="47.04616" lon="9.03601">
        <ele>648</ele>
        <time>2021-08-02T08:31:21.336Z</time>
      </trkpt>
      <trkpt lat="47.04616" lon="9.03599">
        <ele>649</ele>
        <time>2021-08-02T08:31:22.335Z</time>
      </trkpt>
      <trkpt lat="47.04616" lon="9.03597">
        <ele>650</ele>
        <time>2021-08-02T08:31:23.336Z</time>
      </trkpt>
      <trkpt lat="47.04616" lon="9.03596">
        <ele>651</ele>
        <time>2021-08-02T08:31:24.336Z</time>
      </trkpt>
      <trkpt lat="47.04616" lon="9.03595">
        <ele>652</ele>
        <time>2021-08-02T08:31:25.335Z</time>
      </trkpt>
      <trkpt lat="47.04616" lon="9.03593">
        <ele>653</ele>
        <time>2021-08-02T08:31:26.336Z</time>
      </trkpt>
      <trkpt lat="47.04616" lon="9.03592">
        <ele>653</ele>
        <time>2021-08-02T08:31:27.336Z</time>
      </trkpt>
      <trkpt lat="47.04615" lon="9.03591">
        <ele>654</ele>
        <time>2021-08-02T08:31:28.336Z</time>
      </trkpt>
      <trkpt lat="47.04615" lon="9.03589">
        <ele>654</ele>
        <time>2021-08-02T08:31:29.336Z</time>
      </trkpt>
      <trkpt lat="47.04616" lon="9.03588">
        <ele>655</ele>
        <time>2021-08-02T08:31:30.336Z</time>
      </trkpt>
      <trkpt lat="47.04616" lon="9.03587">
        <ele>655</ele>
        <time>2021-08-02T08:31:31.335Z</time>
      </trkpt>
      <trkpt lat="47.04616" lon="9.03585">
        <ele>656</ele>
        <time>2021-08-02T08:31:32.335Z</time>
      </trkpt>
      <trkpt lat="47.04615" lon="9.03584">
        <ele>656</ele>
        <time>2021-08-02T08:31:33.336Z</time>
      </trkpt>
      <trkpt lat="47.04615" lon="9.03583">
        <ele>657</ele>
        <time>2021-08-02T08:31:34.336Z</time>
      </trkpt>
      <trkpt lat="47.04615" lon="9.03581">
        <ele>657</ele>
        <time>2021-08-02T08:31:35.335Z</time>
      </trkpt>
      <trkpt lat="47.04615" lon="9.0358">
        <ele>658</ele>
        <time>2021-08-02T08:31:36.335Z</time>
      </trkpt>
      <trkpt lat="47.04614" lon="9.03579">
        <ele>658</ele>
        <time>2021-08-02T08:31:37.336Z</time>
      </trkpt>
      <trkpt lat="47.04613" lon="9.03578">
        <ele>659</ele>
        <time>2021-08-02T08:31:38.335Z</time>
      </trkpt>
      <trkpt lat="47.04613" lon="9.03577">
        <ele>659</ele>
        <time>2021-08-02T08:31:39.336Z</time>
      </trkpt>
      <trkpt lat="47.04614" lon="9.03576">
        <ele>660</ele>
        <time>2021-08-02T08:31:40.336Z</time>
      </trkpt>
      <trkpt lat="47.04613" lon="9.03575">
        <ele>660</ele>
        <time>2021-08-02T08:31:41.335Z</time>
      </trkpt>
      <trkpt lat="47.04613" lon="9.03574">
        <ele>661</ele>
        <time>2021-08-02T08:31:42.335Z</time>
      </trkpt>
      <trkpt lat="47.04613" lon="9.03573">
        <ele>661</ele>
        <time>2021-08-02T08:31:43.335Z</time>
      </trkpt>
      <trkpt lat="47.04612" lon="9.03572">
        <ele>661</ele>
        <time>2021-08-02T08:31:44.336Z</time>
      </trkpt>
      <trkpt lat="47.04611" lon="9.03571">
        <ele>662</ele>
        <time>2021-08-02T08:31:45.336Z</time>
      </trkpt>
      <trkpt lat="47.0461" lon="9.0357">
        <ele>662</ele>
        <time>2021-08-02T08:31:46.335Z</time>
      </trkpt>
      <trkpt lat="47.0461" lon="9.03568">
        <ele>662</ele>
        <time>2021-08-02T08:31:47.335Z</time>
      </trkpt>
      <trkpt lat="47.0461" lon="9.03566">
        <ele>662</ele>
        <time>2021-08-02T08:31:48.335Z</time>
      </trkpt>
      <trkpt lat="47.0461" lon="9.03565">
        <ele>662</ele>
        <time>2021-08-02T08:31:49.335Z</time>
      </trkpt>
      <trkpt lat="47.0461" lon="9.03564">
        <ele>662</ele>
        <time>2021-08-02T08:31:50.336Z</time>
      </trkpt>
      <trkpt lat="47.0461" lon="9.03562">
        <ele>663</ele>
        <time>2021-08-02T08:31:51.335Z</time>
      </trkpt>
      <trkpt lat="47.04611" lon="9.03561">
        <ele>663</ele>
        <time>2021-08-02T08:31:52.336Z</time>
      </trkpt>
      <trkpt lat="47.0461" lon="9.03559">
        <ele>663</ele>
        <time>2021-08-02T08:31:53.336Z</time>
      </trkpt>
      <trkpt lat="47.04611" lon="9.03557">
        <ele>663</ele>
        <time>2021-08-02T08:31:54.335Z</time>
      </trkpt>
      <trkpt lat="47.04611" lon="9.03556">
        <ele>663</ele>
        <time>2021-08-02T08:31:55.335Z</time>
      </trkpt>
      <trkpt lat="47.04612" lon="9.03555">
        <ele>664</ele>
        <time>2021-08-02T08:31:56.336Z</time>
      </trkpt>
      <trkpt lat="47.04613" lon="9.03554">
        <ele>664</ele>
        <time>2021-08-02T08:31:57.336Z</time>
      </trkpt>
      <trkpt lat="47.04614" lon="9.03553">
        <ele>664</ele>
        <time>2021-08-02T08:31:58.336Z</time>
      </trkpt>
      <trkpt lat="47.04614" lon="9.03552">
        <ele>664</ele>
        <time>2021-08-02T08:31:59.336Z</time>
      </trkpt>
      <trkpt lat="47.04614" lon="9.03551">
        <ele>664</ele>
        <time>2021-08-02T08:32:00.335Z</time>
      </trkpt>
      <trkpt lat="47.04614" lon="9.0355">
        <ele>664</ele>
        <time>2021-08-02T08:32:01.336Z</time>
      </trkpt>
      <trkpt lat="47.04614" lon="9.03549">
        <ele>664</ele>
        <time>2021-08-02T08:32:02.336Z</time>
      </trkpt>
      <trkpt lat="47.04614" lon="9.03548">
        <ele>664</ele>
        <time>2021-08-02T08:32:03.336Z</time>
      </trkpt>
      <trkpt lat="47.04615" lon="9.03546">
        <ele>663</ele>
        <time>2021-08-02T08:32:04.336Z</time>
      </trkpt>
      <trkpt lat="47.04616" lon="9.03545">
        <ele>663</ele>
        <time>2021-08-02T08:32:05.336Z</time>
      </trkpt>
      <trkpt lat="47.04616" lon="9.03544">
        <ele>663</ele>
        <time>2021-08-02T08:32:06.336Z</time>
      </trkpt>
      <trkpt lat="47.04615" lon="9.03543">
        <ele>663</ele>
        <time>2021-08-02T08:32:07.336Z</time>
      </trkpt>
      <trkpt lat="47.04614" lon="9.03543">
        <ele>663</ele>
        <time>2021-08-02T08:32:08.336Z</time>
      </trkpt>
      <trkpt lat="47.04614" lon="9.03543">
        <ele>663</ele>
        <time>2021-08-02T08:32:09.336Z</time>
      </trkpt>
      <trkpt lat="47.04614" lon="9.03543">
        <ele>663</ele>
        <time>2021-08-02T08:32:10.336Z</time>
      </trkpt>
      <trkpt lat="47.04614" lon="9.03542">
        <ele>664</ele>
        <time>2021-08-02T08:32:11.335Z</time>
      </trkpt>
      <trkpt lat="47.04614" lon="9.03541">
        <ele>664</ele>
        <time>2021-08-02T08:32:12.336Z</time>
      </trkpt>
      <trkpt lat="47.04614" lon="9.0354">
        <ele>664</ele>
        <time>2021-08-02T08:32:13.336Z</time>
      </trkpt>
      <trkpt lat="47.04614" lon="9.03539">
        <ele>664</ele>
        <time>2021-08-02T08:32:14.336Z</time>
      </trkpt>
      <trkpt lat="47.04614" lon="9.03539">
        <ele>664</ele>
        <time>2021-08-02T08:32:15.335Z</time>
      </trkpt>
      <trkpt lat="47.04614" lon="9.03538">
        <ele>664</ele>
        <time>2021-08-02T08:32:16.336Z</time>
      </trkpt>
      <trkpt lat="47.04614" lon="9.03537">
        <ele>663</ele>
        <time>2021-08-02T08:32:17.336Z</time>
      </trkpt>
      <trkpt lat="47.04614" lon="9.03535">
        <ele>663</ele>
        <time>2021-08-02T08:32:18.336Z</time>
      </trkpt>
      <trkpt lat="47.04614" lon="9.03534">
        <ele>663</ele>
        <time>2021-08-02T08:32:19.335Z</time>
      </trkpt>
      <trkpt lat="47.04613" lon="9.03534">
        <ele>663</ele>
        <time>2021-08-02T08:32:20.336Z</time>
      </trkpt>
      <trkpt lat="47.04613" lon="9.03533">
        <ele>664</ele>
        <time>2021-08-02T08:32:21.336Z</time>
      </trkpt>
      <trkpt lat="47.04613" lon="9.03533">
        <ele>664</ele>
        <time>2021-08-02T08:32:22.335Z</time>
      </trkpt>
      <trkpt lat="47.04613" lon="9.03533">
        <ele>664</ele>
        <time>2021-08-02T08:32:23.336Z</time>
      </trkpt>
      <trkpt lat="47.04612" lon="9.03529">
        <ele>665</ele>
        <time>2021-08-02T08:32:24.336Z</time>
      </trkpt>
      <trkpt lat="47.04613" lon="9.03528">
        <ele>665</ele>
        <time>2021-08-02T08:32:25.336Z</time>
      </trkpt>
      <trkpt lat="47.04609" lon="9.03521">
        <ele>665</ele>
        <time>2021-08-02T08:32:26.337Z</time>
      </trkpt>
      <trkpt lat="47.04608" lon="9.0352">
        <ele>665</ele>
        <time>2021-08-02T08:32:27.337Z</time>
      </trkpt>
      <trkpt lat="47.04608" lon="9.03518">
        <ele>664</ele>
        <time>2021-08-02T08:32:28.337Z</time>
      </trkpt>
      <trkpt lat="47.0461" lon="9.03525">
        <ele>668</ele>
        <time>2021-08-02T08:32:29.337Z</time>
      </trkpt>
      <trkpt lat="47.04611" lon="9.03525">
        <ele>668</ele>
        <time>2021-08-02T08:32:30.337Z</time>
      </trkpt>
      <trkpt lat="47.04611" lon="9.03525">
        <ele>668</ele>
        <time>2021-08-02T08:32:31.336Z</time>
      </trkpt>
      <trkpt lat="47.04612" lon="9.03525">
        <ele>668</ele>
        <time>2021-08-02T08:32:32.337Z</time>
      </trkpt>
      <trkpt lat="47.04613" lon="9.03524">
        <ele>668</ele>
        <time>2021-08-02T08:32:33.336Z</time>
      </trkpt>
      <trkpt lat="47.04614" lon="9.03524">
        <ele>668</ele>
        <time>2021-08-02T08:32:34.336Z</time>
      </trkpt>
      <trkpt lat="47.04615" lon="9.03524">
        <ele>668</ele>
        <time>2021-08-02T08:32:35.337Z</time>
      </trkpt>
      <trkpt lat="47.04616" lon="9.03524">
        <ele>668</ele>
        <time>2021-08-02T08:32:36.336Z</time>
      </trkpt>
      <trkpt lat="47.04617" lon="9.03523">
        <ele>668</ele>
        <time>2021-08-02T08:32:37.337Z</time>
      </trkpt>
      <trkpt lat="47.04617" lon="9.03523">
        <ele>668</ele>
        <time>2021-08-02T08:32:38.337Z</time>
      </trkpt>
      <trkpt lat="47.04618" lon="9.03523">
        <ele>668</ele>
        <time>2021-08-02T08:32:39.336Z</time>
      </trkpt>
      <trkpt lat="47.04618" lon="9.03524">
        <ele>668</ele>
        <time>2021-08-02T08:32:40.337Z</time>
      </trkpt>
      <trkpt lat="47.0462" lon="9.03524">
        <ele>668</ele>
        <time>2021-08-02T08:32:41.337Z</time>
      </trkpt>
      <trkpt lat="47.04621" lon="9.03524">
        <ele>668</ele>
        <time>2021-08-02T08:32:42.336Z</time>
      </trkpt>
      <trkpt lat="47.04621" lon="9.03523">
        <ele>668</ele>
        <time>2021-08-02T08:32:43.336Z</time>
      </trkpt>
      <trkpt lat="47.04622" lon="9.03523">
        <ele>668</ele>
        <time>2021-08-02T08:32:44.336Z</time>
      </trkpt>
      <trkpt lat="47.04622" lon="9.03523">
        <ele>669</ele>
        <time>2021-08-02T08:32:45.337Z</time>
      </trkpt>
      <trkpt lat="47.04623" lon="9.03522">
        <ele>669</ele>
        <time>2021-08-02T08:32:46.337Z</time>
      </trkpt>
      <trkpt lat="47.04624" lon="9.03522">
        <ele>669</ele>
        <time>2021-08-02T08:32:47.337Z</time>
      </trkpt>
      <trkpt lat="47.04625" lon="9.03521">
        <ele>669</ele>
        <time>2021-08-02T08:32:48.336Z</time>
      </trkpt>
      <trkpt lat="47.04625" lon="9.03521">
        <ele>669</ele>
        <time>2021-08-02T08:32:49.337Z</time>
      </trkpt>
      <trkpt lat="47.04626" lon="9.03521">
        <ele>669</ele>
        <time>2021-08-02T08:32:50.337Z</time>
      </trkpt>
      <trkpt lat="47.04626" lon="9.03521">
        <ele>669</ele>
        <time>2021-08-02T08:32:51.337Z</time>
      </trkpt>
      <trkpt lat="47.04626" lon="9.03521">
        <ele>669</ele>
        <time>2021-08-02T08:32:52.337Z</time>
      </trkpt>
      <trkpt lat="47.04626" lon="9.0352">
        <ele>669</ele>
        <time>2021-08-02T08:32:53.336Z</time>
      </trkpt>
      <trkpt lat="47.04627" lon="9.03519">
        <ele>670</ele>
        <time>2021-08-02T08:32:54.337Z</time>
      </trkpt>
      <trkpt lat="47.04628" lon="9.03518">
        <ele>670</ele>
        <time>2021-08-02T08:32:55.337Z</time>
      </trkpt>
      <trkpt lat="47.04629" lon="9.03517">
        <ele>670</ele>
        <time>2021-08-02T08:32:56.336Z</time>
      </trkpt>
      <trkpt lat="47.04629" lon="9.03516">
        <ele>670</ele>
        <time>2021-08-02T08:32:57.337Z</time>
      </trkpt>
      <trkpt lat="47.0463" lon="9.03515">
        <ele>670</ele>
        <time>2021-08-02T08:32:58.336Z</time>
      </trkpt>
      <trkpt lat="47.0463" lon="9.03515">
        <ele>670</ele>
        <time>2021-08-02T08:32:59.336Z</time>
      </trkpt>
      <trkpt lat="47.04631" lon="9.03514">
        <ele>670</ele>
        <time>2021-08-02T08:33:00.337Z</time>
      </trkpt>
      <trkpt lat="47.04631" lon="9.03513">
        <ele>670</ele>
        <time>2021-08-02T08:33:01.337Z</time>
      </trkpt>
      <trkpt lat="47.04631" lon="9.03512">
        <ele>671</ele>
        <time>2021-08-02T08:33:02.337Z</time>
      </trkpt>
      <trkpt lat="47.04631" lon="9.03511">
        <ele>671</ele>
        <time>2021-08-02T08:33:03.337Z</time>
      </trkpt>
      <trkpt lat="47.04632" lon="9.0351">
        <ele>671</ele>
        <time>2021-08-02T08:33:04.336Z</time>
      </trkpt>
      <trkpt lat="47.04632" lon="9.03509">
        <ele>671</ele>
        <time>2021-08-02T08:33:05.337Z</time>
      </trkpt>
      <trkpt lat="47.04632" lon="9.03508">
        <ele>671</ele>
        <time>2021-08-02T08:33:06.337Z</time>
      </trkpt>
      <trkpt lat="47.04633" lon="9.03506">
        <ele>671</ele>
        <time>2021-08-02T08:33:07.337Z</time>
      </trkpt>
      <trkpt lat="47.04633" lon="9.03505">
        <ele>671</ele>
        <time>2021-08-02T08:33:08.337Z</time>
      </trkpt>
      <trkpt lat="47.04634" lon="9.03503">
        <ele>671</ele>
        <time>2021-08-02T08:33:09.336Z</time>
      </trkpt>
      <trkpt lat="47.04634" lon="9.03503">
        <ele>671</ele>
        <time>2021-08-02T08:33:10.336Z</time>
      </trkpt>
      <trkpt lat="47.04636" lon="9.03502">
        <ele>671</ele>
        <time>2021-08-02T08:33:11.337Z</time>
      </trkpt>
      <trkpt lat="47.04637" lon="9.03501">
        <ele>671</ele>
        <time>2021-08-02T08:33:12.337Z</time>
      </trkpt>
      <trkpt lat="47.04637" lon="9.035">
        <ele>671</ele>
        <time>2021-08-02T08:33:13.337Z</time>
      </trkpt>
      <trkpt lat="47.04638" lon="9.03498">
        <ele>671</ele>
        <time>2021-08-02T08:33:14.337Z</time>
      </trkpt>
      <trkpt lat="47.04638" lon="9.03497">
        <ele>672</ele>
        <time>2021-08-02T08:33:15.336Z</time>
      </trkpt>
      <trkpt lat="47.04638" lon="9.03496">
        <ele>672</ele>
        <time>2021-08-02T08:33:16.337Z</time>
      </trkpt>
      <trkpt lat="47.04638" lon="9.03495">
        <ele>673</ele>
        <time>2021-08-02T08:33:17.337Z</time>
      </trkpt>
      <trkpt lat="47.04638" lon="9.03494">
        <ele>673</ele>
        <time>2021-08-02T08:33:18.336Z</time>
      </trkpt>
      <trkpt lat="47.04639" lon="9.03493">
        <ele>674</ele>
        <time>2021-08-02T08:33:19.337Z</time>
      </trkpt>
      <trkpt lat="47.04639" lon="9.03492">
        <ele>674</ele>
        <time>2021-08-02T08:33:20.337Z</time>
      </trkpt>
      <trkpt lat="47.0464" lon="9.03491">
        <ele>674</ele>
        <time>2021-08-02T08:33:21.337Z</time>
      </trkpt>
      <trkpt lat="47.0464" lon="9.0349">
        <ele>675</ele>
        <time>2021-08-02T08:33:22.337Z</time>
      </trkpt>
      <trkpt lat="47.0464" lon="9.03489">
        <ele>675</ele>
        <time>2021-08-02T08:33:23.337Z</time>
      </trkpt>
      <trkpt lat="47.0464" lon="9.03488">
        <ele>675</ele>
        <time>2021-08-02T08:33:24.337Z</time>
      </trkpt>
      <trkpt lat="47.0464" lon="9.03487">
        <ele>675</ele>
        <time>2021-08-02T08:33:25.337Z</time>
      </trkpt>
      <trkpt lat="47.0464" lon="9.03485">
        <ele>676</ele>
        <time>2021-08-02T08:33:26.336Z</time>
      </trkpt>
      <trkpt lat="47.0464" lon="9.03484">
        <ele>676</ele>
        <time>2021-08-02T08:33:27.336Z</time>
      </trkpt>
      <trkpt lat="47.04639" lon="9.03483">
        <ele>676</ele>
        <time>2021-08-02T08:33:28.336Z</time>
      </trkpt>
      <trkpt lat="47.04639" lon="9.03482">
        <ele>677</ele>
        <time>2021-08-02T08:33:29.336Z</time>
      </trkpt>
      <trkpt lat="47.04639" lon="9.0348">
        <ele>677</ele>
        <time>2021-08-02T08:33:30.337Z</time>
      </trkpt>
      <trkpt lat="47.0464" lon="9.03479">
        <ele>677</ele>
        <time>2021-08-02T08:33:31.337Z</time>
      </trkpt>
      <trkpt lat="47.0464" lon="9.03477">
        <ele>677</ele>
        <time>2021-08-02T08:33:32.337Z</time>
      </trkpt>
      <trkpt lat="47.04641" lon="9.03476">
        <ele>677</ele>
        <time>2021-08-02T08:33:33.337Z</time>
      </trkpt>
      <trkpt lat="47.04641" lon="9.03475">
        <ele>677</ele>
        <time>2021-08-02T08:33:34.337Z</time>
      </trkpt>
      <trkpt lat="47.04641" lon="9.03474">
        <ele>678</ele>
        <time>2021-08-02T08:33:35.337Z</time>
      </trkpt>
      <trkpt lat="47.04641" lon="9.03473">
        <ele>678</ele>
        <time>2021-08-02T08:33:36.336Z</time>
      </trkpt>
      <trkpt lat="47.04642" lon="9.03471">
        <ele>679</ele>
        <time>2021-08-02T08:33:37.337Z</time>
      </trkpt>
      <trkpt lat="47.04642" lon="9.0347">
        <ele>679</ele>
        <time>2021-08-02T08:33:38.337Z</time>
      </trkpt>
      <trkpt lat="47.04642" lon="9.03469">
        <ele>680</ele>
        <time>2021-08-02T08:33:39.336Z</time>
      </trkpt>
      <trkpt lat="47.04642" lon="9.03467">
        <ele>680</ele>
        <time>2021-08-02T08:33:40.337Z</time>
      </trkpt>
      <trkpt lat="47.04642" lon="9.03466">
        <ele>680</ele>
        <time>2021-08-02T08:33:41.337Z</time>
      </trkpt>
      <trkpt lat="47.04642" lon="9.03465">
        <ele>680</ele>
        <time>2021-08-02T08:33:42.337Z</time>
      </trkpt>
      <trkpt lat="47.04642" lon="9.03464">
        <ele>680</ele>
        <time>2021-08-02T08:33:43.337Z</time>
      </trkpt>
      <trkpt lat="47.04642" lon="9.03463">
        <ele>680</ele>
        <time>2021-08-02T08:33:44.337Z</time>
      </trkpt>
      <trkpt lat="47.04643" lon="9.03462">
        <ele>680</ele>
        <time>2021-08-02T08:33:45.337Z</time>
      </trkpt>
      <trkpt lat="47.04643" lon="9.0346">
        <ele>680</ele>
        <time>2021-08-02T08:33:46.337Z</time>
      </trkpt>
      <trkpt lat="47.04644" lon="9.03459">
        <ele>680</ele>
        <time>2021-08-02T08:33:47.336Z</time>
      </trkpt>
      <trkpt lat="47.04644" lon="9.03458">
        <ele>680</ele>
        <time>2021-08-02T08:33:48.336Z</time>
      </trkpt>
      <trkpt lat="47.04644" lon="9.03457">
        <ele>679</ele>
        <time>2021-08-02T08:33:49.337Z</time>
      </trkpt>
      <trkpt lat="47.04644" lon="9.03456">
        <ele>679</ele>
        <time>2021-08-02T08:33:50.337Z</time>
      </trkpt>
      <trkpt lat="47.04644" lon="9.03455">
        <ele>679</ele>
        <time>2021-08-02T08:33:51.337Z</time>
      </trkpt>
      <trkpt lat="47.04644" lon="9.03453">
        <ele>678</ele>
        <time>2021-08-02T08:33:52.336Z</time>
      </trkpt>
      <trkpt lat="47.04644" lon="9.03452">
        <ele>678</ele>
        <time>2021-08-02T08:33:53.336Z</time>
      </trkpt>
      <trkpt lat="47.04644" lon="9.03451">
        <ele>678</ele>
        <time>2021-08-02T08:33:54.336Z</time>
      </trkpt>
      <trkpt lat="47.04644" lon="9.0345">
        <ele>678</ele>
        <time>2021-08-02T08:33:55.337Z</time>
      </trkpt>
      <trkpt lat="47.04645" lon="9.03448">
        <ele>678</ele>
        <time>2021-08-02T08:33:56.337Z</time>
      </trkpt>
      <trkpt lat="47.04645" lon="9.03447">
        <ele>678</ele>
        <time>2021-08-02T08:33:57.337Z</time>
      </trkpt>
      <trkpt lat="47.04645" lon="9.03447">
        <ele>678</ele>
        <time>2021-08-02T08:33:58.337Z</time>
      </trkpt>
      <trkpt lat="47.04645" lon="9.03446">
        <ele>678</ele>
        <time>2021-08-02T08:33:59.337Z</time>
      </trkpt>
      <trkpt lat="47.04645" lon="9.03445">
        <ele>678</ele>
        <time>2021-08-02T08:34:00.337Z</time>
      </trkpt>
      <trkpt lat="47.04645" lon="9.03444">
        <ele>678</ele>
        <time>2021-08-02T08:34:01.337Z</time>
      </trkpt>
      <trkpt lat="47.04645" lon="9.03443">
        <ele>677</ele>
        <time>2021-08-02T08:34:02.337Z</time>
      </trkpt>
      <trkpt lat="47.04645" lon="9.03441">
        <ele>677</ele>
        <time>2021-08-02T08:34:03.337Z</time>
      </trkpt>
      <trkpt lat="47.04644" lon="9.0344">
        <ele>676</ele>
        <time>2021-08-02T08:34:04.336Z</time>
      </trkpt>
      <trkpt lat="47.04644" lon="9.0344">
        <ele>675</ele>
        <time>2021-08-02T08:34:05.336Z</time>
      </trkpt>
      <trkpt lat="47.04643" lon="9.0344">
        <ele>674</ele>
        <time>2021-08-02T08:34:06.337Z</time>
      </trkpt>
      <trkpt lat="47.04643" lon="9.03439">
        <ele>673</ele>
        <time>2021-08-02T08:34:07.337Z</time>
      </trkpt>
      <trkpt lat="47.04643" lon="9.03438">
        <ele>671</ele>
        <time>2021-08-02T08:34:08.337Z</time>
      </trkpt>
      <trkpt lat="47.04643" lon="9.03438">
        <ele>670</ele>
        <time>2021-08-02T08:34:09.337Z</time>
      </trkpt>
      <trkpt lat="47.04643" lon="9.03438">
        <ele>668</ele>
        <time>2021-08-02T08:34:10.336Z</time>
      </trkpt>
      <trkpt lat="47.04642" lon="9.03438">
        <ele>665</ele>
        <time>2021-08-02T08:34:11.338Z</time>
      </trkpt>
      <trkpt lat="47.04642" lon="9.03438">
        <ele>663</ele>
        <time>2021-08-02T08:34:12.337Z</time>
      </trkpt>
      <trkpt lat="47.04642" lon="9.03437">
        <ele>661</ele>
        <time>2021-08-02T08:34:13.337Z</time>
      </trkpt>
      <trkpt lat="47.04642" lon="9.03435">
        <ele>659</ele>
        <time>2021-08-02T08:34:14.337Z</time>
      </trkpt>
      <trkpt lat="47.04641" lon="9.03433">
        <ele>657</ele>
        <time>2021-08-02T08:34:15.338Z</time>
      </trkpt>
      <trkpt lat="47.04641" lon="9.03431">
        <ele>655</ele>
        <time>2021-08-02T08:34:16.338Z</time>
      </trkpt>
      <trkpt lat="47.04642" lon="9.0343">
        <ele>654</ele>
        <time>2021-08-02T08:34:17.337Z</time>
      </trkpt>
      <trkpt lat="47.04642" lon="9.03429">
        <ele>652</ele>
        <time>2021-08-02T08:34:18.338Z</time>
      </trkpt>
      <trkpt lat="47.04642" lon="9.03429">
        <ele>651</ele>
        <time>2021-08-02T08:34:19.337Z</time>
      </trkpt>
      <trkpt lat="47.04642" lon="9.03429">
        <ele>650</ele>
        <time>2021-08-02T08:34:20.338Z</time>
      </trkpt>
      <trkpt lat="47.04642" lon="9.03428">
        <ele>647</ele>
        <time>2021-08-02T08:34:21.337Z</time>
      </trkpt>
      <trkpt lat="47.04643" lon="9.03428">
        <ele>647</ele>
        <time>2021-08-02T08:34:22.338Z</time>
      </trkpt>
      <trkpt lat="47.04643" lon="9.03427">
        <ele>646</ele>
        <time>2021-08-02T08:34:23.337Z</time>
      </trkpt>
      <trkpt lat="47.04644" lon="9.03426">
        <ele>645</ele>
        <time>2021-08-02T08:34:24.337Z</time>
      </trkpt>
      <trkpt lat="47.04644" lon="9.03426">
        <ele>644</ele>
        <time>2021-08-02T08:34:25.338Z</time>
      </trkpt>
      <trkpt lat="47.04644" lon="9.03425">
        <ele>643</ele>
        <time>2021-08-02T08:34:26.337Z</time>
      </trkpt>
      <trkpt lat="47.04643" lon="9.03424">
        <ele>643</ele>
        <time>2021-08-02T08:34:27.338Z</time>
      </trkpt>
      <trkpt lat="47.04643" lon="9.03424">
        <ele>642</ele>
        <time>2021-08-02T08:34:28.338Z</time>
      </trkpt>
      <trkpt lat="47.04644" lon="9.03423">
        <ele>641</ele>
        <time>2021-08-02T08:34:29.338Z</time>
      </trkpt>
      <trkpt lat="47.04643" lon="9.03422">
        <ele>640</ele>
        <time>2021-08-02T08:34:30.337Z</time>
      </trkpt>
      <trkpt lat="47.04644" lon="9.03422">
        <ele>639</ele>
        <time>2021-08-02T08:34:31.337Z</time>
      </trkpt>
      <trkpt lat="47.04644" lon="9.03421">
        <ele>639</ele>
        <time>2021-08-02T08:34:32.337Z</time>
      </trkpt>
      <trkpt lat="47.04644" lon="9.03421">
        <ele>638</ele>
        <time>2021-08-02T08:34:33.338Z</time>
      </trkpt>
      <trkpt lat="47.04644" lon="9.0342">
        <ele>638</ele>
        <time>2021-08-02T08:34:34.338Z</time>
      </trkpt>
      <trkpt lat="47.04644" lon="9.03419">
        <ele>638</ele>
        <time>2021-08-02T08:34:35.338Z</time>
      </trkpt>
      <trkpt lat="47.04644" lon="9.03418">
        <ele>638</ele>
        <time>2021-08-02T08:34:36.338Z</time>
      </trkpt>
      <trkpt lat="47.04645" lon="9.03418">
        <ele>639</ele>
        <time>2021-08-02T08:34:37.338Z</time>
      </trkpt>
      <trkpt lat="47.04645" lon="9.03417">
        <ele>639</ele>
        <time>2021-08-02T08:34:38.338Z</time>
      </trkpt>
      <trkpt lat="47.04646" lon="9.03416">
        <ele>639</ele>
        <time>2021-08-02T08:34:39.338Z</time>
      </trkpt>
      <trkpt lat="47.04646" lon="9.03414">
        <ele>639</ele>
        <time>2021-08-02T08:34:40.337Z</time>
      </trkpt>
      <trkpt lat="47.04647" lon="9.03414">
        <ele>640</ele>
        <time>2021-08-02T08:34:41.337Z</time>
      </trkpt>
      <trkpt lat="47.04647" lon="9.03413">
        <ele>640</ele>
        <time>2021-08-02T08:34:42.338Z</time>
      </trkpt>
      <trkpt lat="47.04648" lon="9.03411">
        <ele>639</ele>
        <time>2021-08-02T08:34:43.337Z</time>
      </trkpt>
      <trkpt lat="47.04648" lon="9.03409">
        <ele>639</ele>
        <time>2021-08-02T08:34:44.337Z</time>
      </trkpt>
      <trkpt lat="47.04649" lon="9.03407">
        <ele>639</ele>
        <time>2021-08-02T08:34:45.337Z</time>
      </trkpt>
      <trkpt lat="47.04649" lon="9.03406">
        <ele>639</ele>
        <time>2021-08-02T08:34:46.338Z</time>
      </trkpt>
      <trkpt lat="47.04649" lon="9.03405">
        <ele>638</ele>
        <time>2021-08-02T08:34:47.337Z</time>
      </trkpt>
      <trkpt lat="47.04648" lon="9.03403">
        <ele>638</ele>
        <time>2021-08-02T08:34:48.337Z</time>
      </trkpt>
      <trkpt lat="47.04648" lon="9.03401">
        <ele>638</ele>
        <time>2021-08-02T08:34:49.337Z</time>
      </trkpt>
      <trkpt lat="47.04648" lon="9.03399">
        <ele>637</ele>
        <time>2021-08-02T08:34:50.337Z</time>
      </trkpt>
      <trkpt lat="47.04649" lon="9.03398">
        <ele>637</ele>
        <time>2021-08-02T08:34:51.337Z</time>
      </trkpt>
      <trkpt lat="47.0465" lon="9.03396">
        <ele>637</ele>
        <time>2021-08-02T08:34:52.338Z</time>
      </trkpt>
      <trkpt lat="47.0465" lon="9.03395">
        <ele>637</ele>
        <time>2021-08-02T08:34:53.337Z</time>
      </trkpt>
      <trkpt lat="47.04651" lon="9.03393">
        <ele>637</ele>
        <time>2021-08-02T08:34:54.337Z</time>
      </trkpt>
      <trkpt lat="47.04651" lon="9.03392">
        <ele>637</ele>
        <time>2021-08-02T08:34:55.338Z</time>
      </trkpt>
      <trkpt lat="47.04652" lon="9.03392">
        <ele>636</ele>
        <time>2021-08-02T08:34:56.338Z</time>
      </trkpt>
      <trkpt lat="47.04653" lon="9.0339">
        <ele>635</ele>
        <time>2021-08-02T08:34:57.338Z</time>
      </trkpt>
      <trkpt lat="47.04653" lon="9.03388">
        <ele>635</ele>
        <time>2021-08-02T08:34:58.338Z</time>
      </trkpt>
      <trkpt lat="47.04654" lon="9.03386">
        <ele>635</ele>
        <time>2021-08-02T08:34:59.338Z</time>
      </trkpt>
      <trkpt lat="47.04654" lon="9.03385">
        <ele>635</ele>
        <time>2021-08-02T08:35:00.338Z</time>
      </trkpt>
      <trkpt lat="47.04654" lon="9.03385">
        <ele>635</ele>
        <time>2021-08-02T08:35:01.337Z</time>
      </trkpt>
      <trkpt lat="47.04654" lon="9.03384">
        <ele>635</ele>
        <time>2021-08-02T08:35:02.338Z</time>
      </trkpt>
      <trkpt lat="47.04654" lon="9.03383">
        <ele>635</ele>
        <time>2021-08-02T08:35:03.338Z</time>
      </trkpt>
      <trkpt lat="47.04655" lon="9.03382">
        <ele>635</ele>
        <time>2021-08-02T08:35:04.338Z</time>
      </trkpt>
      <trkpt lat="47.04655" lon="9.03381">
        <ele>636</ele>
        <time>2021-08-02T08:35:05.338Z</time>
      </trkpt>
      <trkpt lat="47.04656" lon="9.0338">
        <ele>636</ele>
        <time>2021-08-02T08:35:06.338Z</time>
      </trkpt>
      <trkpt lat="47.04657" lon="9.0338">
        <ele>636</ele>
        <time>2021-08-02T08:35:07.338Z</time>
      </trkpt>
      <trkpt lat="47.04657" lon="9.03379">
        <ele>636</ele>
        <time>2021-08-02T08:35:08.337Z</time>
      </trkpt>
      <trkpt lat="47.04656" lon="9.03379">
        <ele>637</ele>
        <time>2021-08-02T08:35:09.337Z</time>
      </trkpt>
      <trkpt lat="47.04656" lon="9.03377">
        <ele>637</ele>
        <time>2021-08-02T08:35:10.338Z</time>
      </trkpt>
      <trkpt lat="47.04656" lon="9.03375">
        <ele>636</ele>
        <time>2021-08-02T08:35:11.338Z</time>
      </trkpt>
      <trkpt lat="47.04657" lon="9.03373">
        <ele>636</ele>
        <time>2021-08-02T08:35:12.338Z</time>
      </trkpt>
      <trkpt lat="47.04657" lon="9.03371">
        <ele>636</ele>
        <time>2021-08-02T08:35:13.338Z</time>
      </trkpt>
      <trkpt lat="47.04657" lon="9.0337">
        <ele>635</ele>
        <time>2021-08-02T08:35:14.337Z</time>
      </trkpt>
      <trkpt lat="47.04658" lon="9.03369">
        <ele>635</ele>
        <time>2021-08-02T08:35:15.338Z</time>
      </trkpt>
      <trkpt lat="47.04658" lon="9.03368">
        <ele>635</ele>
        <time>2021-08-02T08:35:16.338Z</time>
      </trkpt>
      <trkpt lat="47.04658" lon="9.03367">
        <ele>636</ele>
        <time>2021-08-02T08:35:17.338Z</time>
      </trkpt>
      <trkpt lat="47.04659" lon="9.03366">
        <ele>636</ele>
        <time>2021-08-02T08:35:18.338Z</time>
      </trkpt>
      <trkpt lat="47.04659" lon="9.03364">
        <ele>636</ele>
        <time>2021-08-02T08:35:19.338Z</time>
      </trkpt>
      <trkpt lat="47.04659" lon="9.03362">
        <ele>636</ele>
        <time>2021-08-02T08:35:20.338Z</time>
      </trkpt>
      <trkpt lat="47.04659" lon="9.0336">
        <ele>636</ele>
        <time>2021-08-02T08:35:21.338Z</time>
      </trkpt>
      <trkpt lat="47.04659" lon="9.03359">
        <ele>635</ele>
        <time>2021-08-02T08:35:22.338Z</time>
      </trkpt>
      <trkpt lat="47.0466" lon="9.03357">
        <ele>635</ele>
        <time>2021-08-02T08:35:23.338Z</time>
      </trkpt>
      <trkpt lat="47.0466" lon="9.03355">
        <ele>634</ele>
        <time>2021-08-02T08:35:24.338Z</time>
      </trkpt>
      <trkpt lat="47.0466" lon="9.03353">
        <ele>634</ele>
        <time>2021-08-02T08:35:25.338Z</time>
      </trkpt>
      <trkpt lat="47.0466" lon="9.03351">
        <ele>634</ele>
        <time>2021-08-02T08:35:26.338Z</time>
      </trkpt>
      <trkpt lat="47.04661" lon="9.03348">
        <ele>634</ele>
        <time>2021-08-02T08:35:27.338Z</time>
      </trkpt>
      <trkpt lat="47.04661" lon="9.03347">
        <ele>634</ele>
        <time>2021-08-02T08:35:28.338Z</time>
      </trkpt>
      <trkpt lat="47.04662" lon="9.03345">
        <ele>633</ele>
        <time>2021-08-02T08:35:29.338Z</time>
      </trkpt>
      <trkpt lat="47.04662" lon="9.03343">
        <ele>633</ele>
        <time>2021-08-02T08:35:30.338Z</time>
      </trkpt>
      <trkpt lat="47.04662" lon="9.0334">
        <ele>633</ele>
        <time>2021-08-02T08:35:31.338Z</time>
      </trkpt>
      <trkpt lat="47.04663" lon="9.03338">
        <ele>633</ele>
        <time>2021-08-02T08:35:32.338Z</time>
      </trkpt>
      <trkpt lat="47.04663" lon="9.03336">
        <ele>633</ele>
        <time>2021-08-02T08:35:33.337Z</time>
      </trkpt>
      <trkpt lat="47.04663" lon="9.03333">
        <ele>633</ele>
        <time>2021-08-02T08:35:34.338Z</time>
      </trkpt>
      <trkpt lat="47.04663" lon="9.03329">
        <ele>633</ele>
        <time>2021-08-02T08:35:35.338Z</time>
      </trkpt>
      <trkpt lat="47.04663" lon="9.03326">
        <ele>632</ele>
        <time>2021-08-02T08:35:36.338Z</time>
      </trkpt>
      <trkpt lat="47.04663" lon="9.03324">
        <ele>632</ele>
        <time>2021-08-02T08:35:37.338Z</time>
      </trkpt>
      <trkpt lat="47.04663" lon="9.03323">
        <ele>632</ele>
        <time>2021-08-02T08:35:38.338Z</time>
      </trkpt>
      <trkpt lat="47.04663" lon="9.03321">
        <ele>631</ele>
        <time>2021-08-02T08:35:39.337Z</time>
      </trkpt>
      <trkpt lat="47.04663" lon="9.0332">
        <ele>631</ele>
        <time>2021-08-02T08:35:40.338Z</time>
      </trkpt>
      <trkpt lat="47.04664" lon="9.03319">
        <ele>631</ele>
        <time>2021-08-02T08:35:41.338Z</time>
      </trkpt>
      <trkpt lat="47.04664" lon="9.03318">
        <ele>630</ele>
        <time>2021-08-02T08:35:42.338Z</time>
      </trkpt>
      <trkpt lat="47.04665" lon="9.03317">
        <ele>630</ele>
        <time>2021-08-02T08:35:43.338Z</time>
      </trkpt>
      <trkpt lat="47.04665" lon="9.03316">
        <ele>630</ele>
        <time>2021-08-02T08:35:44.337Z</time>
      </trkpt>
      <trkpt lat="47.04666" lon="9.03314">
        <ele>631</ele>
        <time>2021-08-02T08:35:45.338Z</time>
      </trkpt>
      <trkpt lat="47.04666" lon="9.03313">
        <ele>631</ele>
        <time>2021-08-02T08:35:46.337Z</time>
      </trkpt>
      <trkpt lat="47.04666" lon="9.03313">
        <ele>632</ele>
        <time>2021-08-02T08:35:47.337Z</time>
      </trkpt>
      <trkpt lat="47.04665" lon="9.03312">
        <ele>632</ele>
        <time>2021-08-02T08:35:48.338Z</time>
      </trkpt>
      <trkpt lat="47.04664" lon="9.03311">
        <ele>632</ele>
        <time>2021-08-02T08:35:49.337Z</time>
      </trkpt>
      <trkpt lat="47.04663" lon="9.03314">
        <ele>639</ele>
        <time>2021-08-02T08:35:50.338Z</time>
      </trkpt>
      <trkpt lat="47.04663" lon="9.03314">
        <ele>642</ele>
        <time>2021-08-02T08:35:51.337Z</time>
      </trkpt>
      <trkpt lat="47.0466" lon="9.03319">
        <ele>636</ele>
        <time>2021-08-02T08:35:52.338Z</time>
      </trkpt>
      <trkpt lat="47.0466" lon="9.03319">
        <ele>635</ele>
        <time>2021-08-02T08:35:53.338Z</time>
      </trkpt>
      <trkpt lat="47.0466" lon="9.0332">
        <ele>633</ele>
        <time>2021-08-02T08:35:54.338Z</time>
      </trkpt>
      <trkpt lat="47.0466" lon="9.0332">
        <ele>632</ele>
        <time>2021-08-02T08:35:55.338Z</time>
      </trkpt>
      <trkpt lat="47.0466" lon="9.03332">
        <ele>634</ele>
        <time>2021-08-02T08:35:56.339Z</time>
      </trkpt>
      <trkpt lat="47.04659" lon="9.03333">
        <ele>634</ele>
        <time>2021-08-02T08:35:57.339Z</time>
      </trkpt>
      <trkpt lat="47.04659" lon="9.03334">
        <ele>634</ele>
        <time>2021-08-02T08:35:58.338Z</time>
      </trkpt>
      <trkpt lat="47.04659" lon="9.03334">
        <ele>635</ele>
        <time>2021-08-02T08:35:59.339Z</time>
      </trkpt>
      <trkpt lat="47.04659" lon="9.03334">
        <ele>635</ele>
        <time>2021-08-02T08:36:00.339Z</time>
      </trkpt>
      <trkpt lat="47.04658" lon="9.03334">
        <ele>635</ele>
        <time>2021-08-02T08:36:01.339Z</time>
      </trkpt>
      <trkpt lat="47.04658" lon="9.03334">
        <ele>635</ele>
        <time>2021-08-02T08:36:02.339Z</time>
      </trkpt>
      <trkpt lat="47.04658" lon="9.03334">
        <ele>635</ele>
        <time>2021-08-02T08:36:03.339Z</time>
      </trkpt>
      <trkpt lat="47.04658" lon="9.03335">
        <ele>636</ele>
        <time>2021-08-02T08:36:04.339Z</time>
      </trkpt>
      <trkpt lat="47.04658" lon="9.03335">
        <ele>637</ele>
        <time>2021-08-02T08:36:05.339Z</time>
      </trkpt>
      <trkpt lat="47.04658" lon="9.03334">
        <ele>639</ele>
        <time>2021-08-02T08:36:06.339Z</time>
      </trkpt>
      <trkpt lat="47.04659" lon="9.03332">
        <ele>640</ele>
        <time>2021-08-02T08:36:07.339Z</time>
      </trkpt>
      <trkpt lat="47.04659" lon="9.0333">
        <ele>640</ele>
        <time>2021-08-02T08:36:08.339Z</time>
      </trkpt>
      <trkpt lat="47.04658" lon="9.03328">
        <ele>641</ele>
        <time>2021-08-02T08:36:09.340Z</time>
      </trkpt>
      <trkpt lat="47.04658" lon="9.03326">
        <ele>641</ele>
        <time>2021-08-02T08:36:10.340Z</time>
      </trkpt>
      <trkpt lat="47.04658" lon="9.03325">
        <ele>642</ele>
        <time>2021-08-02T08:36:11.339Z</time>
      </trkpt>
      <trkpt lat="47.04657" lon="9.03324">
        <ele>642</ele>
        <time>2021-08-02T08:36:12.340Z</time>
      </trkpt>
      <trkpt lat="47.04655" lon="9.03319">
        <ele>639</ele>
        <time>2021-08-02T08:36:13.340Z</time>
      </trkpt>
      <trkpt lat="47.04655" lon="9.03319">
        <ele>638</ele>
        <time>2021-08-02T08:36:14.339Z</time>
      </trkpt>
      <trkpt lat="47.04656" lon="9.03317">
        <ele>637</ele>
        <time>2021-08-02T08:36:15.341Z</time>
      </trkpt>
      <trkpt lat="47.04656" lon="9.03316">
        <ele>636</ele>
        <time>2021-08-02T08:36:16.341Z</time>
      </trkpt>
      <trkpt lat="47.04656" lon="9.03315">
        <ele>636</ele>
        <time>2021-08-02T08:36:17.340Z</time>
      </trkpt>
      <trkpt lat="47.04656" lon="9.03313">
        <ele>635</ele>
        <time>2021-08-02T08:36:18.341Z</time>
      </trkpt>
      <trkpt lat="47.04656" lon="9.03312">
        <ele>635</ele>
        <time>2021-08-02T08:36:19.340Z</time>
      </trkpt>
      <trkpt lat="47.04656" lon="9.03311">
        <ele>634</ele>
        <time>2021-08-02T08:36:20.341Z</time>
      </trkpt>
      <trkpt lat="47.04657" lon="9.03309">
        <ele>634</ele>
        <time>2021-08-02T08:36:21.340Z</time>
      </trkpt>
      <trkpt lat="47.04658" lon="9.03308">
        <ele>634</ele>
        <time>2021-08-02T08:36:22.341Z</time>
      </trkpt>
      <trkpt lat="47.04659" lon="9.03307">
        <ele>634</ele>
        <time>2021-08-02T08:36:23.341Z</time>
      </trkpt>
      <trkpt lat="47.04659" lon="9.03306">
        <ele>634</ele>
        <time>2021-08-02T08:36:24.340Z</time>
      </trkpt>
      <trkpt lat="47.0466" lon="9.03305">
        <ele>634</ele>
        <time>2021-08-02T08:36:25.341Z</time>
      </trkpt>
      <trkpt lat="47.0466" lon="9.03304">
        <ele>634</ele>
        <time>2021-08-02T08:36:26.341Z</time>
      </trkpt>
      <trkpt lat="47.04661" lon="9.03303">
        <ele>634</ele>
        <time>2021-08-02T08:36:27.341Z</time>
      </trkpt>
      <trkpt lat="47.04661" lon="9.03302">
        <ele>634</ele>
        <time>2021-08-02T08:36:28.341Z</time>
      </trkpt>
      <trkpt lat="47.04661" lon="9.03302">
        <ele>634</ele>
        <time>2021-08-02T08:36:29.341Z</time>
      </trkpt>
      <trkpt lat="47.04662" lon="9.03301">
        <ele>634</ele>
        <time>2021-08-02T08:36:30.341Z</time>
      </trkpt>
      <trkpt lat="47.04663" lon="9.033">
        <ele>635</ele>
        <time>2021-08-02T08:36:31.340Z</time>
      </trkpt>
      <trkpt lat="47.04663" lon="9.03299">
        <ele>635</ele>
        <time>2021-08-02T08:36:32.341Z</time>
      </trkpt>
      <trkpt lat="47.04664" lon="9.03298">
        <ele>635</ele>
        <time>2021-08-02T08:36:33.341Z</time>
      </trkpt>
      <trkpt lat="47.04664" lon="9.03297">
        <ele>635</ele>
        <time>2021-08-02T08:36:34.341Z</time>
      </trkpt>
      <trkpt lat="47.04665" lon="9.03296">
        <ele>635</ele>
        <time>2021-08-02T08:36:35.340Z</time>
      </trkpt>
      <trkpt lat="47.04666" lon="9.03295">
        <ele>635</ele>
        <time>2021-08-02T08:36:36.340Z</time>
      </trkpt>
      <trkpt lat="47.04667" lon="9.03294">
        <ele>634</ele>
        <time>2021-08-02T08:36:37.341Z</time>
      </trkpt>
      <trkpt lat="47.04668" lon="9.03292">
        <ele>634</ele>
        <time>2021-08-02T08:36:38.341Z</time>
      </trkpt>
      <trkpt lat="47.04669" lon="9.03291">
        <ele>634</ele>
        <time>2021-08-02T08:36:39.341Z</time>
      </trkpt>
      <trkpt lat="47.04669" lon="9.03289">
        <ele>634</ele>
        <time>2021-08-02T08:36:40.341Z</time>
      </trkpt>
      <trkpt lat="47.0467" lon="9.03287">
        <ele>633</ele>
        <time>2021-08-02T08:36:41.340Z</time>
      </trkpt>
      <trkpt lat="47.04671" lon="9.03285">
        <ele>633</ele>
        <time>2021-08-02T08:36:42.341Z</time>
      </trkpt>
      <trkpt lat="47.0467" lon="9.03282">
        <ele>633</ele>
        <time>2021-08-02T08:36:43.341Z</time>
      </trkpt>
      <trkpt lat="47.04671" lon="9.03281">
        <ele>633</ele>
        <time>2021-08-02T08:36:44.340Z</time>
      </trkpt>
      <trkpt lat="47.04671" lon="9.03279">
        <ele>633</ele>
        <time>2021-08-02T08:36:45.340Z</time>
      </trkpt>
      <trkpt lat="47.04672" lon="9.03279">
        <ele>634</ele>
        <time>2021-08-02T08:36:46.340Z</time>
      </trkpt>
      <trkpt lat="47.04673" lon="9.03278">
        <ele>634</ele>
        <time>2021-08-02T08:36:47.340Z</time>
      </trkpt>
      <trkpt lat="47.04673" lon="9.03277">
        <ele>635</ele>
        <time>2021-08-02T08:36:48.341Z</time>
      </trkpt>
      <trkpt lat="47.04675" lon="9.03276">
        <ele>636</ele>
        <time>2021-08-02T08:36:49.341Z</time>
      </trkpt>
      <trkpt lat="47.04675" lon="9.03275">
        <ele>637</ele>
        <time>2021-08-02T08:36:50.341Z</time>
      </trkpt>
      <trkpt lat="47.04676" lon="9.03273">
        <ele>637</ele>
        <time>2021-08-02T08:36:51.341Z</time>
      </trkpt>
      <trkpt lat="47.04677" lon="9.03272">
        <ele>638</ele>
        <time>2021-08-02T08:36:52.340Z</time>
      </trkpt>
      <trkpt lat="47.04677" lon="9.0327">
        <ele>639</ele>
        <time>2021-08-02T08:36:53.341Z</time>
      </trkpt>
      <trkpt lat="47.04678" lon="9.03269">
        <ele>639</ele>
        <time>2021-08-02T08:36:54.341Z</time>
      </trkpt>
      <trkpt lat="47.04678" lon="9.03268">
        <ele>640</ele>
        <time>2021-08-02T08:36:55.341Z</time>
      </trkpt>
      <trkpt lat="47.04679" lon="9.03268">
        <ele>641</ele>
        <time>2021-08-02T08:36:56.340Z</time>
      </trkpt>
      <trkpt lat="47.04679" lon="9.03267">
        <ele>642</ele>
        <time>2021-08-02T08:36:57.341Z</time>
      </trkpt>
      <trkpt lat="47.0468" lon="9.03267">
        <ele>642</ele>
        <time>2021-08-02T08:36:58.340Z</time>
      </trkpt>
      <trkpt lat="47.0468" lon="9.03266">
        <ele>643</ele>
        <time>2021-08-02T08:36:59.340Z</time>
      </trkpt>
      <trkpt lat="47.04681" lon="9.03265">
        <ele>644</ele>
        <time>2021-08-02T08:37:00.340Z</time>
      </trkpt>
      <trkpt lat="47.04682" lon="9.03265">
        <ele>644</ele>
        <time>2021-08-02T08:37:01.340Z</time>
      </trkpt>
      <trkpt lat="47.04683" lon="9.03264">
        <ele>644</ele>
        <time>2021-08-02T08:37:02.341Z</time>
      </trkpt>
      <trkpt lat="47.04684" lon="9.03264">
        <ele>644</ele>
        <time>2021-08-02T08:37:03.341Z</time>
      </trkpt>
      <trkpt lat="47.04684" lon="9.03263">
        <ele>644</ele>
        <time>2021-08-02T08:37:04.341Z</time>
      </trkpt>
      <trkpt lat="47.04685" lon="9.03262">
        <ele>644</ele>
        <time>2021-08-02T08:37:05.340Z</time>
      </trkpt>
      <trkpt lat="47.04685" lon="9.03261">
        <ele>645</ele>
        <time>2021-08-02T08:37:06.341Z</time>
      </trkpt>
      <trkpt lat="47.04686" lon="9.0326">
        <ele>645</ele>
        <time>2021-08-02T08:37:07.341Z</time>
      </trkpt>
      <trkpt lat="47.04687" lon="9.03259">
        <ele>645</ele>
        <time>2021-08-02T08:37:08.340Z</time>
      </trkpt>
      <trkpt lat="47.04688" lon="9.03259">
        <ele>646</ele>
        <time>2021-08-02T08:37:09.341Z</time>
      </trkpt>
      <trkpt lat="47.04688" lon="9.03258">
        <ele>646</ele>
        <time>2021-08-02T08:37:10.341Z</time>
      </trkpt>
      <trkpt lat="47.04689" lon="9.03257">
        <ele>646</ele>
        <time>2021-08-02T08:37:11.341Z</time>
      </trkpt>
      <trkpt lat="47.04689" lon="9.03256">
        <ele>646</ele>
        <time>2021-08-02T08:37:12.340Z</time>
      </trkpt>
      <trkpt lat="47.0469" lon="9.03255">
        <ele>646</ele>
        <time>2021-08-02T08:37:13.340Z</time>
      </trkpt>
      <trkpt lat="47.0469" lon="9.03253">
        <ele>647</ele>
        <time>2021-08-02T08:37:14.340Z</time>
      </trkpt>
      <trkpt lat="47.04689" lon="9.03252">
        <ele>647</ele>
        <time>2021-08-02T08:37:15.340Z</time>
      </trkpt>
      <trkpt lat="47.04689" lon="9.03251">
        <ele>647</ele>
        <time>2021-08-02T08:37:16.341Z</time>
      </trkpt>
      <trkpt lat="47.0469" lon="9.03251">
        <ele>647</ele>
        <time>2021-08-02T08:37:17.341Z</time>
      </trkpt>
      <trkpt lat="47.04691" lon="9.0325">
        <ele>647</ele>
        <time>2021-08-02T08:37:18.341Z</time>
      </trkpt>
      <trkpt lat="47.04691" lon="9.0325">
        <ele>648</ele>
        <time>2021-08-02T08:37:19.341Z</time>
      </trkpt>
      <trkpt lat="47.04691" lon="9.0325">
        <ele>648</ele>
        <time>2021-08-02T08:37:20.341Z</time>
      </trkpt>
      <trkpt lat="47.04692" lon="9.03249">
        <ele>648</ele>
        <time>2021-08-02T08:37:21.341Z</time>
      </trkpt>
      <trkpt lat="47.04693" lon="9.03248">
        <ele>648</ele>
        <time>2021-08-02T08:37:22.341Z</time>
      </trkpt>
      <trkpt lat="47.04694" lon="9.03247">
        <ele>647</ele>
        <time>2021-08-02T08:37:23.341Z</time>
      </trkpt>
      <trkpt lat="47.04695" lon="9.03247">
        <ele>647</ele>
        <time>2021-08-02T08:37:24.341Z</time>
      </trkpt>
      <trkpt lat="47.04695" lon="9.03246">
        <ele>647</ele>
        <time>2021-08-02T08:37:25.341Z</time>
      </trkpt>
      <trkpt lat="47.04696" lon="9.03245">
        <ele>647</ele>
        <time>2021-08-02T08:37:26.340Z</time>
      </trkpt>
      <trkpt lat="47.04696" lon="9.03245">
        <ele>647</ele>
        <time>2021-08-02T08:37:27.340Z</time>
      </trkpt>
      <trkpt lat="47.04697" lon="9.03244">
        <ele>647</ele>
        <time>2021-08-02T08:37:28.340Z</time>
      </trkpt>
      <trkpt lat="47.04698" lon="9.03242">
        <ele>646</ele>
        <time>2021-08-02T08:37:29.341Z</time>
      </trkpt>
      <trkpt lat="47.04699" lon="9.03241">
        <ele>646</ele>
        <time>2021-08-02T08:37:30.340Z</time>
      </trkpt>
      <trkpt lat="47.04699" lon="9.0324">
        <ele>646</ele>
        <time>2021-08-02T08:37:31.341Z</time>
      </trkpt>
      <trkpt lat="47.047" lon="9.0324">
        <ele>646</ele>
        <time>2021-08-02T08:37:32.340Z</time>
      </trkpt>
      <trkpt lat="47.04702" lon="9.03239">
        <ele>645</ele>
        <time>2021-08-02T08:37:33.341Z</time>
      </trkpt>
      <trkpt lat="47.04703" lon="9.03239">
        <ele>645</ele>
        <time>2021-08-02T08:37:34.341Z</time>
      </trkpt>
      <trkpt lat="47.04703" lon="9.03238">
        <ele>644</ele>
        <time>2021-08-02T08:37:35.341Z</time>
      </trkpt>
      <trkpt lat="47.04704" lon="9.03237">
        <ele>644</ele>
        <time>2021-08-02T08:37:36.341Z</time>
      </trkpt>
      <trkpt lat="47.04706" lon="9.03236">
        <ele>643</ele>
        <time>2021-08-02T08:37:37.340Z</time>
      </trkpt>
      <trkpt lat="47.04706" lon="9.03235">
        <ele>643</ele>
        <time>2021-08-02T08:37:38.340Z</time>
      </trkpt>
      <trkpt lat="47.04707" lon="9.03234">
        <ele>642</ele>
        <time>2021-08-02T08:37:39.341Z</time>
      </trkpt>
      <trkpt lat="47.04707" lon="9.03234">
        <ele>642</ele>
        <time>2021-08-02T08:37:40.341Z</time>
      </trkpt>
      <trkpt lat="47.04707" lon="9.03234">
        <ele>642</ele>
        <time>2021-08-02T08:37:41.341Z</time>
      </trkpt>
      <trkpt lat="47.04708" lon="9.03234">
        <ele>641</ele>
        <time>2021-08-02T08:37:42.341Z</time>
      </trkpt>
      <trkpt lat="47.04708" lon="9.03234">
        <ele>641</ele>
        <time>2021-08-02T08:37:43.341Z</time>
      </trkpt>
      <trkpt lat="47.04709" lon="9.03234">
        <ele>641</ele>
        <time>2021-08-02T08:37:44.340Z</time>
      </trkpt>
      <trkpt lat="47.04709" lon="9.03234">
        <ele>640</ele>
        <time>2021-08-02T08:37:45.341Z</time>
      </trkpt>
      <trkpt lat="47.0471" lon="9.03233">
        <ele>640</ele>
        <time>2021-08-02T08:37:46.341Z</time>
      </trkpt>
      <trkpt lat="47.04711" lon="9.03232">
        <ele>640</ele>
        <time>2021-08-02T08:37:47.341Z</time>
      </trkpt>
      <trkpt lat="47.04712" lon="9.03231">
        <ele>639</ele>
        <time>2021-08-02T08:37:48.340Z</time>
      </trkpt>
      <trkpt lat="47.04713" lon="9.0323">
        <ele>639</ele>
        <time>2021-08-02T08:37:49.340Z</time>
      </trkpt>
      <trkpt lat="47.04714" lon="9.03229">
        <ele>639</ele>
        <time>2021-08-02T08:37:50.341Z</time>
      </trkpt>
      <trkpt lat="47.04715" lon="9.03227">
        <ele>639</ele>
        <time>2021-08-02T08:37:51.341Z</time>
      </trkpt>
      <trkpt lat="47.04716" lon="9.03226">
        <ele>639</ele>
        <time>2021-08-02T08:37:52.341Z</time>
      </trkpt>
      <trkpt lat="47.04716" lon="9.03225">
        <ele>639</ele>
        <time>2021-08-02T08:37:53.340Z</time>
      </trkpt>
      <trkpt lat="47.04717" lon="9.03224">
        <ele>639</ele>
        <time>2021-08-02T08:37:54.340Z</time>
      </trkpt>
      <trkpt lat="47.04717" lon="9.03224">
        <ele>640</ele>
        <time>2021-08-02T08:37:55.341Z</time>
      </trkpt>
      <trkpt lat="47.04718" lon="9.03224">
        <ele>640</ele>
        <time>2021-08-02T08:37:56.340Z</time>
      </trkpt>
      <trkpt lat="47.04719" lon="9.03222">
        <ele>640</ele>
        <time>2021-08-02T08:37:57.340Z</time>
      </trkpt>
      <trkpt lat="47.0472" lon="9.03221">
        <ele>640</ele>
        <time>2021-08-02T08:37:58.340Z</time>
      </trkpt>
      <trkpt lat="47.04721" lon="9.03222">
        <ele>641</ele>
        <time>2021-08-02T08:37:59.341Z</time>
      </trkpt>
      <trkpt lat="47.04722" lon="9.03221">
        <ele>641</ele>
        <time>2021-08-02T08:38:00.341Z</time>
      </trkpt>
      <trkpt lat="47.04723" lon="9.0322">
        <ele>641</ele>
        <time>2021-08-02T08:38:01.340Z</time>
      </trkpt>
      <trkpt lat="47.04724" lon="9.03218">
        <ele>640</ele>
        <time>2021-08-02T08:38:02.341Z</time>
      </trkpt>
      <trkpt lat="47.04725" lon="9.03217">
        <ele>640</ele>
        <time>2021-08-02T08:38:03.341Z</time>
      </trkpt>
      <trkpt lat="47.04726" lon="9.03217">
        <ele>640</ele>
        <time>2021-08-02T08:38:04.341Z</time>
      </trkpt>
      <trkpt lat="47.04726" lon="9.03217">
        <ele>640</ele>
        <time>2021-08-02T08:38:05.341Z</time>
      </trkpt>
      <trkpt lat="47.04728" lon="9.03216">
        <ele>640</ele>
        <time>2021-08-02T08:38:06.341Z</time>
      </trkpt>
      <trkpt lat="47.04729" lon="9.03214">
        <ele>640</ele>
        <time>2021-08-02T08:38:07.340Z</time>
      </trkpt>
      <trkpt lat="47.04729" lon="9.03213">
        <ele>640</ele>
        <time>2021-08-02T08:38:08.341Z</time>
      </trkpt>
      <trkpt lat="47.0473" lon="9.03213">
        <ele>640</ele>
        <time>2021-08-02T08:38:09.341Z</time>
      </trkpt>
      <trkpt lat="47.04731" lon="9.03212">
        <ele>640</ele>
        <time>2021-08-02T08:38:10.340Z</time>
      </trkpt>
      <trkpt lat="47.04732" lon="9.03212">
        <ele>641</ele>
        <time>2021-08-02T08:38:11.341Z</time>
      </trkpt>
      <trkpt lat="47.04732" lon="9.03211">
        <ele>641</ele>
        <time>2021-08-02T08:38:12.340Z</time>
      </trkpt>
      <trkpt lat="47.04733" lon="9.0321">
        <ele>641</ele>
        <time>2021-08-02T08:38:13.341Z</time>
      </trkpt>
      <trkpt lat="47.04734" lon="9.03209">
        <ele>642</ele>
        <time>2021-08-02T08:38:14.341Z</time>
      </trkpt>
      <trkpt lat="47.04735" lon="9.03209">
        <ele>642</ele>
        <time>2021-08-02T08:38:15.341Z</time>
      </trkpt>
      <trkpt lat="47.04735" lon="9.03208">
        <ele>642</ele>
        <time>2021-08-02T08:38:16.341Z</time>
      </trkpt>
      <trkpt lat="47.04736" lon="9.03207">
        <ele>642</ele>
        <time>2021-08-02T08:38:17.341Z</time>
      </trkpt>
      <trkpt lat="47.04737" lon="9.03207">
        <ele>642</ele>
        <time>2021-08-02T08:38:18.341Z</time>
      </trkpt>
      <trkpt lat="47.04737" lon="9.03206">
        <ele>643</ele>
        <time>2021-08-02T08:38:19.340Z</time>
      </trkpt>
      <trkpt lat="47.04738" lon="9.03205">
        <ele>643</ele>
        <time>2021-08-02T08:38:20.340Z</time>
      </trkpt>
      <trkpt lat="47.04739" lon="9.03204">
        <ele>644</ele>
        <time>2021-08-02T08:38:21.341Z</time>
      </trkpt>
      <trkpt lat="47.0474" lon="9.03203">
        <ele>644</ele>
        <time>2021-08-02T08:38:22.340Z</time>
      </trkpt>
      <trkpt lat="47.0474" lon="9.03202">
        <ele>644</ele>
        <time>2021-08-02T08:38:23.341Z</time>
      </trkpt>
      <trkpt lat="47.04741" lon="9.03201">
        <ele>644</ele>
        <time>2021-08-02T08:38:24.341Z</time>
      </trkpt>
      <trkpt lat="47.04742" lon="9.03201">
        <ele>644</ele>
        <time>2021-08-02T08:38:25.340Z</time>
      </trkpt>
      <trkpt lat="47.04743" lon="9.032">
        <ele>644</ele>
        <time>2021-08-02T08:38:26.340Z</time>
      </trkpt>
      <trkpt lat="47.04744" lon="9.032">
        <ele>644</ele>
        <time>2021-08-02T08:38:27.341Z</time>
      </trkpt>
      <trkpt lat="47.04744" lon="9.03201">
        <ele>644</ele>
        <time>2021-08-02T08:38:28.341Z</time>
      </trkpt>
      <trkpt lat="47.04745" lon="9.03202">
        <ele>644</ele>
        <time>2021-08-02T08:38:29.341Z</time>
      </trkpt>
      <trkpt lat="47.04746" lon="9.03201">
        <ele>644</ele>
        <time>2021-08-02T08:38:30.341Z</time>
      </trkpt>
      <trkpt lat="47.04747" lon="9.03199">
        <ele>644</ele>
        <time>2021-08-02T08:38:31.341Z</time>
      </trkpt>
      <trkpt lat="47.04748" lon="9.03199">
        <ele>644</ele>
        <time>2021-08-02T08:38:32.341Z</time>
      </trkpt>
      <trkpt lat="47.04749" lon="9.03199">
        <ele>644</ele>
        <time>2021-08-02T08:38:33.341Z</time>
      </trkpt>
      <trkpt lat="47.04749" lon="9.03199">
        <ele>644</ele>
        <time>2021-08-02T08:38:34.341Z</time>
      </trkpt>
      <trkpt lat="47.0475" lon="9.03198">
        <ele>644</ele>
        <time>2021-08-02T08:38:35.341Z</time>
      </trkpt>
      <trkpt lat="47.04751" lon="9.03198">
        <ele>644</ele>
        <time>2021-08-02T08:38:36.341Z</time>
      </trkpt>
      <trkpt lat="47.04752" lon="9.03197">
        <ele>644</ele>
        <time>2021-08-02T08:38:37.340Z</time>
      </trkpt>
      <trkpt lat="47.04753" lon="9.03196">
        <ele>643</ele>
        <time>2021-08-02T08:38:38.341Z</time>
      </trkpt>
      <trkpt lat="47.04753" lon="9.03195">
        <ele>643</ele>
        <time>2021-08-02T08:38:39.341Z</time>
      </trkpt>
      <trkpt lat="47.04754" lon="9.03194">
        <ele>643</ele>
        <time>2021-08-02T08:38:40.341Z</time>
      </trkpt>
      <trkpt lat="47.04754" lon="9.03195">
        <ele>642</ele>
        <time>2021-08-02T08:38:41.341Z</time>
      </trkpt>
      <trkpt lat="47.04755" lon="9.03195">
        <ele>642</ele>
        <time>2021-08-02T08:38:42.340Z</time>
      </trkpt>
      <trkpt lat="47.04756" lon="9.03195">
        <ele>642</ele>
        <time>2021-08-02T08:38:43.340Z</time>
      </trkpt>
      <trkpt lat="47.04757" lon="9.03196">
        <ele>643</ele>
        <time>2021-08-02T08:38:44.341Z</time>
      </trkpt>
      <trkpt lat="47.04759" lon="9.03196">
        <ele>643</ele>
        <time>2021-08-02T08:38:45.341Z</time>
      </trkpt>
      <trkpt lat="47.04759" lon="9.03195">
        <ele>644</ele>
        <time>2021-08-02T08:38:46.341Z</time>
      </trkpt>
      <trkpt lat="47.0476" lon="9.03194">
        <ele>644</ele>
        <time>2021-08-02T08:38:47.341Z</time>
      </trkpt>
      <trkpt lat="47.04761" lon="9.03193">
        <ele>644</ele>
        <time>2021-08-02T08:38:48.341Z</time>
      </trkpt>
      <trkpt lat="47.04762" lon="9.03193">
        <ele>645</ele>
        <time>2021-08-02T08:38:49.341Z</time>
      </trkpt>
      <trkpt lat="47.04763" lon="9.03192">
        <ele>646</ele>
        <time>2021-08-02T08:38:50.340Z</time>
      </trkpt>
      <trkpt lat="47.04764" lon="9.03192">
        <ele>646</ele>
        <time>2021-08-02T08:38:51.341Z</time>
      </trkpt>
      <trkpt lat="47.04766" lon="9.03192">
        <ele>646</ele>
        <time>2021-08-02T08:38:52.340Z</time>
      </trkpt>
      <trkpt lat="47.04767" lon="9.03192">
        <ele>646</ele>
        <time>2021-08-02T08:38:53.341Z</time>
      </trkpt>
      <trkpt lat="47.04768" lon="9.03192">
        <ele>647</ele>
        <time>2021-08-02T08:38:54.341Z</time>
      </trkpt>
      <trkpt lat="47.04769" lon="9.03191">
        <ele>647</ele>
        <time>2021-08-02T08:38:55.341Z</time>
      </trkpt>
      <trkpt lat="47.0477" lon="9.03191">
        <ele>648</ele>
        <time>2021-08-02T08:38:56.341Z</time>
      </trkpt>
      <trkpt lat="47.04771" lon="9.03191">
        <ele>649</ele>
        <time>2021-08-02T08:38:57.340Z</time>
      </trkpt>
      <trkpt lat="47.04772" lon="9.0319">
        <ele>649</ele>
        <time>2021-08-02T08:38:58.341Z</time>
      </trkpt>
      <trkpt lat="47.04773" lon="9.0319">
        <ele>650</ele>
        <time>2021-08-02T08:38:59.341Z</time>
      </trkpt>
      <trkpt lat="47.04773" lon="9.0319">
        <ele>650</ele>
        <time>2021-08-02T08:39:00.340Z</time>
      </trkpt>
      <trkpt lat="47.04775" lon="9.03189">
        <ele>650</ele>
        <time>2021-08-02T08:39:01.341Z</time>
      </trkpt>
      <trkpt lat="47.04776" lon="9.03189">
        <ele>650</ele>
        <time>2021-08-02T08:39:02.341Z</time>
      </trkpt>
      <trkpt lat="47.04776" lon="9.03188">
        <ele>651</ele>
        <time>2021-08-02T08:39:03.341Z</time>
      </trkpt>
      <trkpt lat="47.04777" lon="9.03187">
        <ele>651</ele>
        <time>2021-08-02T08:39:04.341Z</time>
      </trkpt>
      <trkpt lat="47.04778" lon="9.03186">
        <ele>651</ele>
        <time>2021-08-02T08:39:05.340Z</time>
      </trkpt>
      <trkpt lat="47.04778" lon="9.03185">
        <ele>651</ele>
        <time>2021-08-02T08:39:06.341Z</time>
      </trkpt>
      <trkpt lat="47.04779" lon="9.03184">
        <ele>651</ele>
        <time>2021-08-02T08:39:07.341Z</time>
      </trkpt>
      <trkpt lat="47.0478" lon="9.03184">
        <ele>652</ele>
        <time>2021-08-02T08:39:08.340Z</time>
      </trkpt>
      <trkpt lat="47.04781" lon="9.03183">
        <ele>652</ele>
        <time>2021-08-02T08:39:09.341Z</time>
      </trkpt>
      <trkpt lat="47.04782" lon="9.03183">
        <ele>652</ele>
        <time>2021-08-02T08:39:10.341Z</time>
      </trkpt>
      <trkpt lat="47.04782" lon="9.03183">
        <ele>652</ele>
        <time>2021-08-02T08:39:11.340Z</time>
      </trkpt>
      <trkpt lat="47.04783" lon="9.03182">
        <ele>652</ele>
        <time>2021-08-02T08:39:12.340Z</time>
      </trkpt>
      <trkpt lat="47.04784" lon="9.03182">
        <ele>652</ele>
        <time>2021-08-02T08:39:13.340Z</time>
      </trkpt>
      <trkpt lat="47.04784" lon="9.03181">
        <ele>653</ele>
        <time>2021-08-02T08:39:14.340Z</time>
      </trkpt>
      <trkpt lat="47.04786" lon="9.0318">
        <ele>653</ele>
        <time>2021-08-02T08:39:15.341Z</time>
      </trkpt>
      <trkpt lat="47.04787" lon="9.03179">
        <ele>653</ele>
        <time>2021-08-02T08:39:16.340Z</time>
      </trkpt>
      <trkpt lat="47.04788" lon="9.03179">
        <ele>653</ele>
        <time>2021-08-02T08:39:17.340Z</time>
      </trkpt>
      <trkpt lat="47.04789" lon="9.03178">
        <ele>653</ele>
        <time>2021-08-02T08:39:18.341Z</time>
      </trkpt>
      <trkpt lat="47.0479" lon="9.03178">
        <ele>653</ele>
        <time>2021-08-02T08:39:19.340Z</time>
      </trkpt>
      <trkpt lat="47.0479" lon="9.03178">
        <ele>654</ele>
        <time>2021-08-02T08:39:20.340Z</time>
      </trkpt>
      <trkpt lat="47.04791" lon="9.03178">
        <ele>654</ele>
        <time>2021-08-02T08:39:21.340Z</time>
      </trkpt>
      <trkpt lat="47.04791" lon="9.03178">
        <ele>654</ele>
        <time>2021-08-02T08:39:22.340Z</time>
      </trkpt>
      <trkpt lat="47.04792" lon="9.03178">
        <ele>655</ele>
        <time>2021-08-02T08:39:23.340Z</time>
      </trkpt>
      <trkpt lat="47.04793" lon="9.03178">
        <ele>655</ele>
        <time>2021-08-02T08:39:24.340Z</time>
      </trkpt>
      <trkpt lat="47.04794" lon="9.03177">
        <ele>655</ele>
        <time>2021-08-02T08:39:25.340Z</time>
      </trkpt>
      <trkpt lat="47.04794" lon="9.03176">
        <ele>655</ele>
        <time>2021-08-02T08:39:26.340Z</time>
      </trkpt>
      <trkpt lat="47.04795" lon="9.03176">
        <ele>656</ele>
        <time>2021-08-02T08:39:27.340Z</time>
      </trkpt>
      <trkpt lat="47.04796" lon="9.03175">
        <ele>656</ele>
        <time>2021-08-02T08:39:28.341Z</time>
      </trkpt>
      <trkpt lat="47.04796" lon="9.03174">
        <ele>656</ele>
        <time>2021-08-02T08:39:29.340Z</time>
      </trkpt>
      <trkpt lat="47.04797" lon="9.03174">
        <ele>656</ele>
        <time>2021-08-02T08:39:30.340Z</time>
      </trkpt>
      <trkpt lat="47.04798" lon="9.03173">
        <ele>656</ele>
        <time>2021-08-02T08:39:31.340Z</time>
      </trkpt>
      <trkpt lat="47.04798" lon="9.03172">
        <ele>656</ele>
        <time>2021-08-02T08:39:32.340Z</time>
      </trkpt>
      <trkpt lat="47.04799" lon="9.03172">
        <ele>656</ele>
        <time>2021-08-02T08:39:33.341Z</time>
      </trkpt>
      <trkpt lat="47.048" lon="9.03171">
        <ele>656</ele>
        <time>2021-08-02T08:39:34.341Z</time>
      </trkpt>
      <trkpt lat="47.04801" lon="9.0317">
        <ele>656</ele>
        <time>2021-08-02T08:39:35.341Z</time>
      </trkpt>
      <trkpt lat="47.04802" lon="9.03169">
        <ele>656</ele>
        <time>2021-08-02T08:39:36.341Z</time>
      </trkpt>
      <trkpt lat="47.04803" lon="9.03168">
        <ele>656</ele>
        <time>2021-08-02T08:39:37.341Z</time>
      </trkpt>
      <trkpt lat="47.04805" lon="9.03167">
        <ele>656</ele>
        <time>2021-08-02T08:39:38.340Z</time>
      </trkpt>
      <trkpt lat="47.04807" lon="9.03166">
        <ele>656</ele>
        <time>2021-08-02T08:39:39.341Z</time>
      </trkpt>
      <trkpt lat="47.0481" lon="9.03164">
        <ele>656</ele>
        <time>2021-08-02T08:39:40.341Z</time>
      </trkpt>
      <trkpt lat="47.04813" lon="9.03163">
        <ele>656</ele>
        <time>2021-08-02T08:39:41.341Z</time>
      </trkpt>
      <trkpt lat="47.04815" lon="9.03163">
        <ele>656</ele>
        <time>2021-08-02T08:39:42.340Z</time>
      </trkpt>
      <trkpt lat="47.04816" lon="9.03162">
        <ele>656</ele>
        <time>2021-08-02T08:39:43.341Z</time>
      </trkpt>
      <trkpt lat="47.04817" lon="9.03161">
        <ele>656</ele>
        <time>2021-08-02T08:39:44.340Z</time>
      </trkpt>
      <trkpt lat="47.04818" lon="9.03161">
        <ele>656</ele>
        <time>2021-08-02T08:39:45.340Z</time>
      </trkpt>
      <trkpt lat="47.04818" lon="9.0316">
        <ele>656</ele>
        <time>2021-08-02T08:39:46.341Z</time>
      </trkpt>
      <trkpt lat="47.04818" lon="9.0316">
        <ele>657</ele>
        <time>2021-08-02T08:39:47.341Z</time>
      </trkpt>
      <trkpt lat="47.04819" lon="9.0316">
        <ele>657</ele>
        <time>2021-08-02T08:39:48.341Z</time>
      </trkpt>
      <trkpt lat="47.04819" lon="9.03159">
        <ele>658</ele>
        <time>2021-08-02T08:39:49.341Z</time>
      </trkpt>
      <trkpt lat="47.0482" lon="9.03158">
        <ele>658</ele>
        <time>2021-08-02T08:39:50.341Z</time>
      </trkpt>
      <trkpt lat="47.04821" lon="9.03157">
        <ele>658</ele>
        <time>2021-08-02T08:39:51.341Z</time>
      </trkpt>
      <trkpt lat="47.04822" lon="9.03156">
        <ele>658</ele>
        <time>2021-08-02T08:39:52.340Z</time>
      </trkpt>
      <trkpt lat="47.04822" lon="9.03156">
        <ele>659</ele>
        <time>2021-08-02T08:39:53.341Z</time>
      </trkpt>
      <trkpt lat="47.04823" lon="9.03156">
        <ele>659</ele>
        <time>2021-08-02T08:39:54.340Z</time>
      </trkpt>
      <trkpt lat="47.04824" lon="9.03156">
        <ele>659</ele>
        <time>2021-08-02T08:39:55.341Z</time>
      </trkpt>
      <trkpt lat="47.04825" lon="9.03156">
        <ele>660</ele>
        <time>2021-08-02T08:39:56.341Z</time>
      </trkpt>
      <trkpt lat="47.04826" lon="9.03156">
        <ele>661</ele>
        <time>2021-08-02T08:39:57.341Z</time>
      </trkpt>
      <trkpt lat="47.04827" lon="9.03155">
        <ele>662</ele>
        <time>2021-08-02T08:39:58.341Z</time>
      </trkpt>
      <trkpt lat="47.04828" lon="9.03155">
        <ele>663</ele>
        <time>2021-08-02T08:39:59.341Z</time>
      </trkpt>
      <trkpt lat="47.04829" lon="9.03155">
        <ele>664</ele>
        <time>2021-08-02T08:40:00.340Z</time>
      </trkpt>
      <trkpt lat="47.0483" lon="9.03155">
        <ele>664</ele>
        <time>2021-08-02T08:40:01.341Z</time>
      </trkpt>
      <trkpt lat="47.04831" lon="9.03154">
        <ele>665</ele>
        <time>2021-08-02T08:40:02.341Z</time>
      </trkpt>
      <trkpt lat="47.04832" lon="9.03153">
        <ele>666</ele>
        <time>2021-08-02T08:40:03.341Z</time>
      </trkpt>
      <trkpt lat="47.04833" lon="9.03153">
        <ele>666</ele>
        <time>2021-08-02T08:40:04.341Z</time>
      </trkpt>
      <trkpt lat="47.04833" lon="9.03152">
        <ele>667</ele>
        <time>2021-08-02T08:40:05.341Z</time>
      </trkpt>
      <trkpt lat="47.04834" lon="9.03151">
        <ele>667</ele>
        <time>2021-08-02T08:40:06.341Z</time>
      </trkpt>
      <trkpt lat="47.04835" lon="9.0315">
        <ele>667</ele>
        <time>2021-08-02T08:40:07.340Z</time>
      </trkpt>
      <trkpt lat="47.04835" lon="9.03149">
        <ele>668</ele>
        <time>2021-08-02T08:40:08.341Z</time>
      </trkpt>
      <trkpt lat="47.04836" lon="9.03148">
        <ele>668</ele>
        <time>2021-08-02T08:40:09.341Z</time>
      </trkpt>
      <trkpt lat="47.04837" lon="9.03147">
        <ele>668</ele>
        <time>2021-08-02T08:40:10.340Z</time>
      </trkpt>
      <trkpt lat="47.04837" lon="9.03147">
        <ele>669</ele>
        <time>2021-08-02T08:40:11.341Z</time>
      </trkpt>
      <trkpt lat="47.04838" lon="9.03146">
        <ele>669</ele>
        <time>2021-08-02T08:40:12.341Z</time>
      </trkpt>
      <trkpt lat="47.04839" lon="9.03145">
        <ele>670</ele>
        <time>2021-08-02T08:40:13.341Z</time>
      </trkpt>
      <trkpt lat="47.0484" lon="9.03145">
        <ele>670</ele>
        <time>2021-08-02T08:40:14.340Z</time>
      </trkpt>
      <trkpt lat="47.04841" lon="9.03144">
        <ele>670</ele>
        <time>2021-08-02T08:40:15.341Z</time>
      </trkpt>
      <trkpt lat="47.04842" lon="9.03143">
        <ele>670</ele>
        <time>2021-08-02T08:40:16.340Z</time>
      </trkpt>
      <trkpt lat="47.04843" lon="9.03143">
        <ele>670</ele>
        <time>2021-08-02T08:40:17.340Z</time>
      </trkpt>
      <trkpt lat="47.04844" lon="9.03142">
        <ele>670</ele>
        <time>2021-08-02T08:40:18.340Z</time>
      </trkpt>
      <trkpt lat="47.04845" lon="9.03141">
        <ele>670</ele>
        <time>2021-08-02T08:40:19.341Z</time>
      </trkpt>
      <trkpt lat="47.04846" lon="9.0314">
        <ele>671</ele>
        <time>2021-08-02T08:40:20.341Z</time>
      </trkpt>
      <trkpt lat="47.04847" lon="9.03139">
        <ele>671</ele>
        <time>2021-08-02T08:40:21.340Z</time>
      </trkpt>
      <trkpt lat="47.04847" lon="9.03138">
        <ele>671</ele>
        <time>2021-08-02T08:40:22.340Z</time>
      </trkpt>
      <trkpt lat="47.04848" lon="9.03138">
        <ele>671</ele>
        <time>2021-08-02T08:40:23.341Z</time>
      </trkpt>
      <trkpt lat="47.04848" lon="9.03137">
        <ele>671</ele>
        <time>2021-08-02T08:40:24.341Z</time>
      </trkpt>
      <trkpt lat="47.04849" lon="9.03136">
        <ele>671</ele>
        <time>2021-08-02T08:40:25.340Z</time>
      </trkpt>
      <trkpt lat="47.04849" lon="9.03134">
        <ele>671</ele>
        <time>2021-08-02T08:40:26.340Z</time>
      </trkpt>
      <trkpt lat="47.04849" lon="9.03132">
        <ele>670</ele>
        <time>2021-08-02T08:40:27.341Z</time>
      </trkpt>
      <trkpt lat="47.04849" lon="9.0313">
        <ele>670</ele>
        <time>2021-08-02T08:40:28.341Z</time>
      </trkpt>
      <trkpt lat="47.0485" lon="9.03129">
        <ele>669</ele>
        <time>2021-08-02T08:40:29.341Z</time>
      </trkpt>
      <trkpt lat="47.04852" lon="9.03128">
        <ele>669</ele>
        <time>2021-08-02T08:40:30.341Z</time>
      </trkpt>
      <trkpt lat="47.04853" lon="9.03127">
        <ele>668</ele>
        <time>2021-08-02T08:40:31.341Z</time>
      </trkpt>
      <trkpt lat="47.04855" lon="9.03126">
        <ele>668</ele>
        <time>2021-08-02T08:40:32.340Z</time>
      </trkpt>
      <trkpt lat="47.04856" lon="9.03125">
        <ele>667</ele>
        <time>2021-08-02T08:40:33.341Z</time>
      </trkpt>
      <trkpt lat="47.04857" lon="9.03124">
        <ele>667</ele>
        <time>2021-08-02T08:40:34.340Z</time>
      </trkpt>
      <trkpt lat="47.04859" lon="9.03123">
        <ele>666</ele>
        <time>2021-08-02T08:40:35.341Z</time>
      </trkpt>
      <trkpt lat="47.0486" lon="9.03121">
        <ele>666</ele>
        <time>2021-08-02T08:40:36.340Z</time>
      </trkpt>
      <trkpt lat="47.0486" lon="9.0312">
        <ele>666</ele>
        <time>2021-08-02T08:40:37.341Z</time>
      </trkpt>
      <trkpt lat="47.04861" lon="9.0312">
        <ele>665</ele>
        <time>2021-08-02T08:40:38.341Z</time>
      </trkpt>
      <trkpt lat="47.04862" lon="9.0312">
        <ele>665</ele>
        <time>2021-08-02T08:40:39.340Z</time>
      </trkpt>
      <trkpt lat="47.04863" lon="9.03119">
        <ele>664</ele>
        <time>2021-08-02T08:40:40.340Z</time>
      </trkpt>
      <trkpt lat="47.04864" lon="9.03119">
        <ele>664</ele>
        <time>2021-08-02T08:40:41.341Z</time>
      </trkpt>
      <trkpt lat="47.04864" lon="9.03118">
        <ele>663</ele>
        <time>2021-08-02T08:40:42.340Z</time>
      </trkpt>
      <trkpt lat="47.04865" lon="9.03117">
        <ele>663</ele>
        <time>2021-08-02T08:40:43.340Z</time>
      </trkpt>
      <trkpt lat="47.04866" lon="9.03116">
        <ele>663</ele>
        <time>2021-08-02T08:40:44.341Z</time>
      </trkpt>
      <trkpt lat="47.04867" lon="9.03116">
        <ele>663</ele>
        <time>2021-08-02T08:40:45.340Z</time>
      </trkpt>
      <trkpt lat="47.04867" lon="9.03116">
        <ele>662</ele>
        <time>2021-08-02T08:40:46.340Z</time>
      </trkpt>
      <trkpt lat="47.04867" lon="9.03115">
        <ele>662</ele>
        <time>2021-08-02T08:40:47.341Z</time>
      </trkpt>
      <trkpt lat="47.04868" lon="9.03115">
        <ele>662</ele>
        <time>2021-08-02T08:40:48.341Z</time>
      </trkpt>
      <trkpt lat="47.04868" lon="9.03115">
        <ele>662</ele>
        <time>2021-08-02T08:40:49.340Z</time>
      </trkpt>
      <trkpt lat="47.04869" lon="9.03114">
        <ele>661</ele>
        <time>2021-08-02T08:40:50.340Z</time>
      </trkpt>
      <trkpt lat="47.0487" lon="9.03113">
        <ele>661</ele>
        <time>2021-08-02T08:40:51.341Z</time>
      </trkpt>
      <trkpt lat="47.04871" lon="9.03112">
        <ele>661</ele>
        <time>2021-08-02T08:40:52.341Z</time>
      </trkpt>
      <trkpt lat="47.04871" lon="9.03111">
        <ele>661</ele>
        <time>2021-08-02T08:40:53.341Z</time>
      </trkpt>
      <trkpt lat="47.04872" lon="9.0311">
        <ele>661</ele>
        <time>2021-08-02T08:40:54.340Z</time>
      </trkpt>
      <trkpt lat="47.04873" lon="9.0311">
        <ele>661</ele>
        <time>2021-08-02T08:40:55.341Z</time>
      </trkpt>
      <trkpt lat="47.04873" lon="9.0311">
        <ele>661</ele>
        <time>2021-08-02T08:40:56.341Z</time>
      </trkpt>
      <trkpt lat="47.04875" lon="9.03109">
        <ele>661</ele>
        <time>2021-08-02T08:40:57.341Z</time>
      </trkpt>
      <trkpt lat="47.04876" lon="9.03108">
        <ele>661</ele>
        <time>2021-08-02T08:40:58.341Z</time>
      </trkpt>
      <trkpt lat="47.04878" lon="9.03108">
        <ele>662</ele>
        <time>2021-08-02T08:40:59.341Z</time>
      </trkpt>
      <trkpt lat="47.04879" lon="9.03107">
        <ele>662</ele>
        <time>2021-08-02T08:41:00.341Z</time>
      </trkpt>
      <trkpt lat="47.0488" lon="9.03106">
        <ele>662</ele>
        <time>2021-08-02T08:41:01.341Z</time>
      </trkpt>
      <trkpt lat="47.04881" lon="9.03105">
        <ele>662</ele>
        <time>2021-08-02T08:41:02.341Z</time>
      </trkpt>
      <trkpt lat="47.04882" lon="9.03103">
        <ele>662</ele>
        <time>2021-08-02T08:41:03.340Z</time>
      </trkpt>
      <trkpt lat="47.04882" lon="9.03102">
        <ele>662</ele>
        <time>2021-08-02T08:41:04.341Z</time>
      </trkpt>
      <trkpt lat="47.04883" lon="9.03101">
        <ele>662</ele>
        <time>2021-08-02T08:41:05.341Z</time>
      </trkpt>
      <trkpt lat="47.04884" lon="9.031">
        <ele>662</ele>
        <time>2021-08-02T08:41:06.340Z</time>
      </trkpt>
      <trkpt lat="47.04885" lon="9.03099">
        <ele>662</ele>
        <time>2021-08-02T08:41:07.341Z</time>
      </trkpt>
      <trkpt lat="47.04886" lon="9.03098">
        <ele>662</ele>
        <time>2021-08-02T08:41:08.340Z</time>
      </trkpt>
      <trkpt lat="47.04888" lon="9.03096">
        <ele>663</ele>
        <time>2021-08-02T08:41:09.340Z</time>
      </trkpt>
      <trkpt lat="47.04889" lon="9.03094">
        <ele>663</ele>
        <time>2021-08-02T08:41:10.341Z</time>
      </trkpt>
      <trkpt lat="47.0489" lon="9.03094">
        <ele>663</ele>
        <time>2021-08-02T08:41:11.341Z</time>
      </trkpt>
      <trkpt lat="47.04891" lon="9.03093">
        <ele>664</ele>
        <time>2021-08-02T08:41:12.341Z</time>
      </trkpt>
      <trkpt lat="47.04892" lon="9.03092">
        <ele>664</ele>
        <time>2021-08-02T08:41:13.340Z</time>
      </trkpt>
      <trkpt lat="47.04893" lon="9.0309">
        <ele>665</ele>
        <time>2021-08-02T08:41:14.340Z</time>
      </trkpt>
      <trkpt lat="47.04893" lon="9.03089">
        <ele>665</ele>
        <time>2021-08-02T08:41:15.340Z</time>
      </trkpt>
      <trkpt lat="47.04894" lon="9.03087">
        <ele>665</ele>
        <time>2021-08-02T08:41:16.341Z</time>
      </trkpt>
      <trkpt lat="47.04894" lon="9.03086">
        <ele>666</ele>
        <time>2021-08-02T08:41:17.340Z</time>
      </trkpt>
      <trkpt lat="47.04895" lon="9.03084">
        <ele>666</ele>
        <time>2021-08-02T08:41:18.341Z</time>
      </trkpt>
      <trkpt lat="47.04895" lon="9.03082">
        <ele>667</ele>
        <time>2021-08-02T08:41:19.341Z</time>
      </trkpt>
      <trkpt lat="47.04895" lon="9.03081">
        <ele>667</ele>
        <time>2021-08-02T08:41:20.341Z</time>
      </trkpt>
      <trkpt lat="47.04896" lon="9.0308">
        <ele>667</ele>
        <time>2021-08-02T08:41:21.340Z</time>
      </trkpt>
      <trkpt lat="47.04897" lon="9.03078">
        <ele>668</ele>
        <time>2021-08-02T08:41:22.340Z</time>
      </trkpt>
      <trkpt lat="47.04897" lon="9.03077">
        <ele>668</ele>
        <time>2021-08-02T08:41:23.341Z</time>
      </trkpt>
      <trkpt lat="47.04897" lon="9.03075">
        <ele>668</ele>
        <time>2021-08-02T08:41:24.341Z</time>
      </trkpt>
      <trkpt lat="47.04898" lon="9.03074">
        <ele>669</ele>
        <time>2021-08-02T08:41:25.341Z</time>
      </trkpt>
      <trkpt lat="47.04899" lon="9.03073">
        <ele>669</ele>
        <time>2021-08-02T08:41:26.341Z</time>
      </trkpt>
      <trkpt lat="47.04899" lon="9.03072">
        <ele>669</ele>
        <time>2021-08-02T08:41:27.341Z</time>
      </trkpt>
      <trkpt lat="47.04899" lon="9.03072">
        <ele>670</ele>
        <time>2021-08-02T08:41:28.341Z</time>
      </trkpt>
      <trkpt lat="47.049" lon="9.03072">
        <ele>670</ele>
        <time>2021-08-02T08:41:29.341Z</time>
      </trkpt>
      <trkpt lat="47.049" lon="9.03072">
        <ele>670</ele>
        <time>2021-08-02T08:41:30.340Z</time>
      </trkpt>
      <trkpt lat="47.04899" lon="9.03074">
        <ele>671</ele>
        <time>2021-08-02T08:41:31.341Z</time>
      </trkpt>
      <trkpt lat="47.04899" lon="9.03073">
        <ele>671</ele>
        <time>2021-08-02T08:41:32.341Z</time>
      </trkpt>
      <trkpt lat="47.04899" lon="9.03072">
        <ele>671</ele>
        <time>2021-08-02T08:41:33.342Z</time>
      </trkpt>
      <trkpt lat="47.04899" lon="9.03071">
        <ele>671</ele>
        <time>2021-08-02T08:41:34.341Z</time>
      </trkpt>
      <trkpt lat="47.049" lon="9.03069">
        <ele>671</ele>
        <time>2021-08-02T08:41:35.342Z</time>
      </trkpt>
      <trkpt lat="47.04901" lon="9.03068">
        <ele>671</ele>
        <time>2021-08-02T08:41:36.342Z</time>
      </trkpt>
      <trkpt lat="47.04901" lon="9.03067">
        <ele>671</ele>
        <time>2021-08-02T08:41:37.342Z</time>
      </trkpt>
      <trkpt lat="47.04901" lon="9.03066">
        <ele>671</ele>
        <time>2021-08-02T08:41:38.342Z</time>
      </trkpt>
      <trkpt lat="47.04901" lon="9.03065">
        <ele>671</ele>
        <time>2021-08-02T08:41:39.342Z</time>
      </trkpt>
      <trkpt lat="47.04901" lon="9.03064">
        <ele>671</ele>
        <time>2021-08-02T08:41:40.342Z</time>
      </trkpt>
      <trkpt lat="47.04901" lon="9.03063">
        <ele>671</ele>
        <time>2021-08-02T08:41:41.342Z</time>
      </trkpt>
      <trkpt lat="47.04901" lon="9.03063">
        <ele>671</ele>
        <time>2021-08-02T08:41:42.342Z</time>
      </trkpt>
      <trkpt lat="47.04902" lon="9.03062">
        <ele>671</ele>
        <time>2021-08-02T08:41:43.342Z</time>
      </trkpt>
      <trkpt lat="47.04902" lon="9.03061">
        <ele>671</ele>
        <time>2021-08-02T08:41:44.342Z</time>
      </trkpt>
      <trkpt lat="47.04902" lon="9.0306">
        <ele>671</ele>
        <time>2021-08-02T08:41:45.342Z</time>
      </trkpt>
      <trkpt lat="47.04902" lon="9.0306">
        <ele>671</ele>
        <time>2021-08-02T08:41:46.341Z</time>
      </trkpt>
      <trkpt lat="47.04902" lon="9.03059">
        <ele>671</ele>
        <time>2021-08-02T08:41:47.342Z</time>
      </trkpt>
      <trkpt lat="47.04903" lon="9.03057">
        <ele>671</ele>
        <time>2021-08-02T08:41:48.342Z</time>
      </trkpt>
      <trkpt lat="47.04904" lon="9.03056">
        <ele>671</ele>
        <time>2021-08-02T08:41:49.342Z</time>
      </trkpt>
      <trkpt lat="47.04905" lon="9.03055">
        <ele>671</ele>
        <time>2021-08-02T08:41:50.342Z</time>
      </trkpt>
      <trkpt lat="47.04905" lon="9.03054">
        <ele>671</ele>
        <time>2021-08-02T08:41:51.342Z</time>
      </trkpt>
      <trkpt lat="47.04906" lon="9.03054">
        <ele>671</ele>
        <time>2021-08-02T08:41:52.341Z</time>
      </trkpt>
      <trkpt lat="47.04909" lon="9.03051">
        <ele>671</ele>
        <time>2021-08-02T08:41:53.342Z</time>
      </trkpt>
      <trkpt lat="47.0491" lon="9.0305">
        <ele>671</ele>
        <time>2021-08-02T08:41:54.341Z</time>
      </trkpt>
      <trkpt lat="47.04913" lon="9.03051">
        <ele>671</ele>
        <time>2021-08-02T08:41:55.342Z</time>
      </trkpt>
      <trkpt lat="47.04913" lon="9.03052">
        <ele>671</ele>
        <time>2021-08-02T08:41:56.342Z</time>
      </trkpt>
      <trkpt lat="47.04913" lon="9.03053">
        <ele>671</ele>
        <time>2021-08-02T08:41:57.341Z</time>
      </trkpt>
      <trkpt lat="47.04914" lon="9.03054">
        <ele>671</ele>
        <time>2021-08-02T08:41:58.342Z</time>
      </trkpt>
      <trkpt lat="47.04915" lon="9.03055">
        <ele>670</ele>
        <time>2021-08-02T08:41:59.342Z</time>
      </trkpt>
      <trkpt lat="47.04916" lon="9.03055">
        <ele>670</ele>
        <time>2021-08-02T08:42:00.341Z</time>
      </trkpt>
      <trkpt lat="47.04917" lon="9.03055">
        <ele>670</ele>
        <time>2021-08-02T08:42:01.342Z</time>
      </trkpt>
      <trkpt lat="47.04918" lon="9.03056">
        <ele>669</ele>
        <time>2021-08-02T08:42:02.342Z</time>
      </trkpt>
      <trkpt lat="47.04919" lon="9.03057">
        <ele>669</ele>
        <time>2021-08-02T08:42:03.341Z</time>
      </trkpt>
      <trkpt lat="47.0492" lon="9.03057">
        <ele>669</ele>
        <time>2021-08-02T08:42:04.342Z</time>
      </trkpt>
      <trkpt lat="47.04921" lon="9.03057">
        <ele>669</ele>
        <time>2021-08-02T08:42:05.341Z</time>
      </trkpt>
      <trkpt lat="47.04922" lon="9.03056">
        <ele>669</ele>
        <time>2021-08-02T08:42:06.342Z</time>
      </trkpt>
      <trkpt lat="47.04923" lon="9.03056">
        <ele>670</ele>
        <time>2021-08-02T08:42:07.341Z</time>
      </trkpt>
      <trkpt lat="47.04924" lon="9.03056">
        <ele>670</ele>
        <time>2021-08-02T08:42:08.341Z</time>
      </trkpt>
      <trkpt lat="47.04925" lon="9.03056">
        <ele>670</ele>
        <time>2021-08-02T08:42:09.342Z</time>
      </trkpt>
      <trkpt lat="47.04926" lon="9.03055">
        <ele>671</ele>
        <time>2021-08-02T08:42:10.341Z</time>
      </trkpt>
      <trkpt lat="47.04927" lon="9.03056">
        <ele>671</ele>
        <time>2021-08-02T08:42:11.342Z</time>
      </trkpt>
      <trkpt lat="47.04927" lon="9.03055">
        <ele>672</ele>
        <time>2021-08-02T08:42:12.342Z</time>
      </trkpt>
      <trkpt lat="47.04928" lon="9.03054">
        <ele>672</ele>
        <time>2021-08-02T08:42:13.341Z</time>
      </trkpt>
      <trkpt lat="47.0493" lon="9.03054">
        <ele>673</ele>
        <time>2021-08-02T08:42:14.342Z</time>
      </trkpt>
      <trkpt lat="47.04931" lon="9.03055">
        <ele>673</ele>
        <time>2021-08-02T08:42:15.342Z</time>
      </trkpt>
      <trkpt lat="47.04932" lon="9.03054">
        <ele>673</ele>
        <time>2021-08-02T08:42:16.342Z</time>
      </trkpt>
      <trkpt lat="47.04934" lon="9.03053">
        <ele>673</ele>
        <time>2021-08-02T08:42:17.341Z</time>
      </trkpt>
      <trkpt lat="47.04935" lon="9.03052">
        <ele>674</ele>
        <time>2021-08-02T08:42:18.342Z</time>
      </trkpt>
      <trkpt lat="47.04936" lon="9.03052">
        <ele>674</ele>
        <time>2021-08-02T08:42:19.342Z</time>
      </trkpt>
      <trkpt lat="47.04938" lon="9.03051">
        <ele>674</ele>
        <time>2021-08-02T08:42:20.342Z</time>
      </trkpt>
      <trkpt lat="47.04939" lon="9.0305">
        <ele>674</ele>
        <time>2021-08-02T08:42:21.341Z</time>
      </trkpt>
      <trkpt lat="47.0494" lon="9.03049">
        <ele>674</ele>
        <time>2021-08-02T08:42:22.341Z</time>
      </trkpt>
      <trkpt lat="47.04941" lon="9.03049">
        <ele>674</ele>
        <time>2021-08-02T08:42:23.342Z</time>
      </trkpt>
      <trkpt lat="47.04941" lon="9.03048">
        <ele>674</ele>
        <time>2021-08-02T08:42:24.342Z</time>
      </trkpt>
      <trkpt lat="47.04942" lon="9.03047">
        <ele>675</ele>
        <time>2021-08-02T08:42:25.342Z</time>
      </trkpt>
      <trkpt lat="47.04943" lon="9.03047">
        <ele>675</ele>
        <time>2021-08-02T08:42:26.342Z</time>
      </trkpt>
      <trkpt lat="47.04944" lon="9.03047">
        <ele>676</ele>
        <time>2021-08-02T08:42:27.341Z</time>
      </trkpt>
      <trkpt lat="47.04945" lon="9.03047">
        <ele>677</ele>
        <time>2021-08-02T08:42:28.342Z</time>
      </trkpt>
      <trkpt lat="47.04947" lon="9.03048">
        <ele>677</ele>
        <time>2021-08-02T08:42:29.341Z</time>
      </trkpt>
      <trkpt lat="47.04949" lon="9.03047">
        <ele>678</ele>
        <time>2021-08-02T08:42:30.341Z</time>
      </trkpt>
      <trkpt lat="47.0495" lon="9.03048">
        <ele>679</ele>
        <time>2021-08-02T08:42:31.342Z</time>
      </trkpt>
      <trkpt lat="47.04951" lon="9.03048">
        <ele>680</ele>
        <time>2021-08-02T08:42:32.342Z</time>
      </trkpt>
      <trkpt lat="47.04953" lon="9.03048">
        <ele>681</ele>
        <time>2021-08-02T08:42:33.341Z</time>
      </trkpt>
      <trkpt lat="47.04954" lon="9.03047">
        <ele>683</ele>
        <time>2021-08-02T08:42:34.341Z</time>
      </trkpt>
      <trkpt lat="47.04954" lon="9.03047">
        <ele>683</ele>
        <time>2021-08-02T08:42:35.342Z</time>
      </trkpt>
      <trkpt lat="47.04955" lon="9.03046">
        <ele>684</ele>
        <time>2021-08-02T08:42:36.342Z</time>
      </trkpt>
      <trkpt lat="47.04956" lon="9.03046">
        <ele>685</ele>
        <time>2021-08-02T08:42:37.341Z</time>
      </trkpt>
      <trkpt lat="47.04955" lon="9.03046">
        <ele>686</ele>
        <time>2021-08-02T08:42:38.341Z</time>
      </trkpt>
      <trkpt lat="47.04954" lon="9.03046">
        <ele>686</ele>
        <time>2021-08-02T08:42:39.342Z</time>
      </trkpt>
      <trkpt lat="47.04953" lon="9.03047">
        <ele>687</ele>
        <time>2021-08-02T08:42:40.342Z</time>
      </trkpt>
      <trkpt lat="47.04952" lon="9.03047">
        <ele>687</ele>
        <time>2021-08-02T08:42:41.341Z</time>
      </trkpt>
      <trkpt lat="47.04951" lon="9.03047">
        <ele>687</ele>
        <time>2021-08-02T08:42:42.341Z</time>
      </trkpt>
      <trkpt lat="47.04951" lon="9.03046">
        <ele>687</ele>
        <time>2021-08-02T08:42:43.341Z</time>
      </trkpt>
      <trkpt lat="47.04951" lon="9.03046">
        <ele>686</ele>
        <time>2021-08-02T08:42:44.342Z</time>
      </trkpt>
      <trkpt lat="47.0495" lon="9.03045">
        <ele>686</ele>
        <time>2021-08-02T08:42:45.342Z</time>
      </trkpt>
      <trkpt lat="47.0495" lon="9.03045">
        <ele>685</ele>
        <time>2021-08-02T08:42:46.342Z</time>
      </trkpt>
      <trkpt lat="47.04949" lon="9.03045">
        <ele>684</ele>
        <time>2021-08-02T08:42:47.342Z</time>
      </trkpt>
      <trkpt lat="47.04949" lon="9.03044">
        <ele>684</ele>
        <time>2021-08-02T08:42:48.341Z</time>
      </trkpt>
      <trkpt lat="47.04948" lon="9.03044">
        <ele>684</ele>
        <time>2021-08-02T08:42:49.342Z</time>
      </trkpt>
      <trkpt lat="47.04947" lon="9.03044">
        <ele>683</ele>
        <time>2021-08-02T08:42:50.341Z</time>
      </trkpt>
      <trkpt lat="47.04945" lon="9.03043">
        <ele>683</ele>
        <time>2021-08-02T08:42:51.342Z</time>
      </trkpt>
      <trkpt lat="47.04944" lon="9.03044">
        <ele>683</ele>
        <time>2021-08-02T08:42:52.341Z</time>
      </trkpt>
      <trkpt lat="47.04943" lon="9.03044">
        <ele>682</ele>
        <time>2021-08-02T08:42:53.341Z</time>
      </trkpt>
      <trkpt lat="47.04942" lon="9.03044">
        <ele>682</ele>
        <time>2021-08-02T08:42:54.342Z</time>
      </trkpt>
      <trkpt lat="47.0494" lon="9.03044">
        <ele>681</ele>
        <time>2021-08-02T08:42:55.341Z</time>
      </trkpt>
      <trkpt lat="47.04938" lon="9.03044">
        <ele>680</ele>
        <time>2021-08-02T08:42:56.341Z</time>
      </trkpt>
      <trkpt lat="47.04936" lon="9.03044">
        <ele>679</ele>
        <time>2021-08-02T08:42:57.341Z</time>
      </trkpt>
      <trkpt lat="47.04935" lon="9.03044">
        <ele>678</ele>
        <time>2021-08-02T08:42:58.341Z</time>
      </trkpt>
      <trkpt lat="47.04934" lon="9.03044">
        <ele>677</ele>
        <time>2021-08-02T08:42:59.341Z</time>
      </trkpt>
      <trkpt lat="47.04933" lon="9.03044">
        <ele>677</ele>
        <time>2021-08-02T08:43:00.341Z</time>
      </trkpt>
      <trkpt lat="47.04932" lon="9.03045">
        <ele>676</ele>
        <time>2021-08-02T08:43:01.342Z</time>
      </trkpt>
      <trkpt lat="47.04931" lon="9.03045">
        <ele>675</ele>
        <time>2021-08-02T08:43:02.341Z</time>
      </trkpt>
      <trkpt lat="47.0493" lon="9.03046">
        <ele>675</ele>
        <time>2021-08-02T08:43:03.342Z</time>
      </trkpt>
      <trkpt lat="47.04929" lon="9.03047">
        <ele>674</ele>
        <time>2021-08-02T08:43:04.342Z</time>
      </trkpt>
      <trkpt lat="47.04928" lon="9.03048">
        <ele>674</ele>
        <time>2021-08-02T08:43:05.341Z</time>
      </trkpt>
      <trkpt lat="47.04927" lon="9.03048">
        <ele>674</ele>
        <time>2021-08-02T08:43:06.341Z</time>
      </trkpt>
      <trkpt lat="47.04926" lon="9.03049">
        <ele>673</ele>
        <time>2021-08-02T08:43:07.341Z</time>
      </trkpt>
      <trkpt lat="47.04925" lon="9.03049">
        <ele>673</ele>
        <time>2021-08-02T08:43:08.341Z</time>
      </trkpt>
      <trkpt lat="47.04924" lon="9.03049">
        <ele>673</ele>
        <time>2021-08-02T08:43:09.342Z</time>
      </trkpt>
      <trkpt lat="47.04923" lon="9.03049">
        <ele>672</ele>
        <time>2021-08-02T08:43:10.341Z</time>
      </trkpt>
      <trkpt lat="47.04922" lon="9.03048">
        <ele>672</ele>
        <time>2021-08-02T08:43:11.342Z</time>
      </trkpt>
      <trkpt lat="47.0492" lon="9.03048">
        <ele>672</ele>
        <time>2021-08-02T08:43:12.342Z</time>
      </trkpt>
      <trkpt lat="47.04919" lon="9.03049">
        <ele>671</ele>
        <time>2021-08-02T08:43:13.342Z</time>
      </trkpt>
      <trkpt lat="47.04917" lon="9.03049">
        <ele>671</ele>
        <time>2021-08-02T08:43:14.342Z</time>
      </trkpt>
      <trkpt lat="47.04916" lon="9.03049">
        <ele>671</ele>
        <time>2021-08-02T08:43:15.341Z</time>
      </trkpt>
      <trkpt lat="47.04915" lon="9.03048">
        <ele>671</ele>
        <time>2021-08-02T08:43:16.342Z</time>
      </trkpt>
      <trkpt lat="47.04914" lon="9.03047">
        <ele>670</ele>
        <time>2021-08-02T08:43:17.342Z</time>
      </trkpt>
      <trkpt lat="47.04914" lon="9.03046">
        <ele>670</ele>
        <time>2021-08-02T08:43:18.342Z</time>
      </trkpt>
      <trkpt lat="47.04913" lon="9.03045">
        <ele>669</ele>
        <time>2021-08-02T08:43:19.342Z</time>
      </trkpt>
      <trkpt lat="47.04913" lon="9.03044">
        <ele>669</ele>
        <time>2021-08-02T08:43:20.342Z</time>
      </trkpt>
      <trkpt lat="47.04913" lon="9.03043">
        <ele>669</ele>
        <time>2021-08-02T08:43:21.341Z</time>
      </trkpt>
      <trkpt lat="47.04912" lon="9.03043">
        <ele>669</ele>
        <time>2021-08-02T08:43:22.342Z</time>
      </trkpt>
      <trkpt lat="47.04913" lon="9.03042">
        <ele>669</ele>
        <time>2021-08-02T08:43:23.342Z</time>
      </trkpt>
      <trkpt lat="47.04915" lon="9.03043">
        <ele>674</ele>
        <time>2021-08-02T08:43:24.342Z</time>
      </trkpt>
      <trkpt lat="47.04915" lon="9.03043">
        <ele>674</ele>
        <time>2021-08-02T08:43:25.341Z</time>
      </trkpt>
      <trkpt lat="47.04915" lon="9.03044">
        <ele>675</ele>
        <time>2021-08-02T08:43:26.342Z</time>
      </trkpt>
      <trkpt lat="47.04915" lon="9.03043">
        <ele>675</ele>
        <time>2021-08-02T08:43:27.342Z</time>
      </trkpt>
      <trkpt lat="47.04917" lon="9.03042">
        <ele>678</ele>
        <time>2021-08-02T08:43:28.342Z</time>
      </trkpt>
      <trkpt lat="47.04918" lon="9.03043">
        <ele>678</ele>
        <time>2021-08-02T08:43:29.342Z</time>
      </trkpt>
      <trkpt lat="47.04918" lon="9.03043">
        <ele>678</ele>
        <time>2021-08-02T08:43:30.341Z</time>
      </trkpt>
      <trkpt lat="47.04918" lon="9.03047">
        <ele>677</ele>
        <time>2021-08-02T08:43:31.341Z</time>
      </trkpt>
      <trkpt lat="47.04916" lon="9.03048">
        <ele>678</ele>
        <time>2021-08-02T08:43:32.341Z</time>
      </trkpt>
      <trkpt lat="47.04915" lon="9.03051">
        <ele>678</ele>
        <time>2021-08-02T08:43:33.341Z</time>
      </trkpt>
      <trkpt lat="47.04915" lon="9.03056">
        <ele>678</ele>
        <time>2021-08-02T08:43:34.341Z</time>
      </trkpt>
      <trkpt lat="47.04915" lon="9.03056">
        <ele>678</ele>
        <time>2021-08-02T08:43:35.341Z</time>
      </trkpt>
      <trkpt lat="47.04916" lon="9.03056">
        <ele>678</ele>
        <time>2021-08-02T08:43:36.342Z</time>
      </trkpt>
      <trkpt lat="47.04915" lon="9.03057">
        <ele>678</ele>
        <time>2021-08-02T08:43:37.341Z</time>
      </trkpt>
      <trkpt lat="47.04915" lon="9.03058">
        <ele>678</ele>
        <time>2021-08-02T08:43:38.341Z</time>
      </trkpt>
      <trkpt lat="47.04914" lon="9.03059">
        <ele>678</ele>
        <time>2021-08-02T08:43:39.341Z</time>
      </trkpt>
      <trkpt lat="47.04914" lon="9.0306">
        <ele>678</ele>
        <time>2021-08-02T08:43:40.341Z</time>
      </trkpt>
      <trkpt lat="47.04914" lon="9.0306">
        <ele>677</ele>
        <time>2021-08-02T08:43:41.341Z</time>
      </trkpt>
      <trkpt lat="47.04914" lon="9.03061">
        <ele>677</ele>
        <time>2021-08-02T08:43:42.341Z</time>
      </trkpt>
      <trkpt lat="47.04914" lon="9.03061">
        <ele>677</ele>
        <time>2021-08-02T08:43:43.341Z</time>
      </trkpt>
      <trkpt lat="47.04914" lon="9.03062">
        <ele>678</ele>
        <time>2021-08-02T08:43:44.341Z</time>
      </trkpt>
      <trkpt lat="47.04915" lon="9.03062">
        <ele>678</ele>
        <time>2021-08-02T08:43:45.341Z</time>
      </trkpt>
      <trkpt lat="47.04915" lon="9.03062">
        <ele>677</ele>
        <time>2021-08-02T08:43:46.341Z</time>
      </trkpt>
      <trkpt lat="47.04915" lon="9.03062">
        <ele>677</ele>
        <time>2021-08-02T08:43:47.341Z</time>
      </trkpt>
      <trkpt lat="47.04915" lon="9.03062">
        <ele>676</ele>
        <time>2021-08-02T08:43:48.342Z</time>
      </trkpt>
      <trkpt lat="47.04917" lon="9.03055">
        <ele>673</ele>
        <time>2021-08-02T08:43:49.344Z</time>
      </trkpt>
      <trkpt lat="47.04918" lon="9.03052">
        <ele>672</ele>
        <time>2021-08-02T08:43:50.344Z</time>
      </trkpt>
      <trkpt lat="47.04918" lon="9.0305">
        <ele>671</ele>
        <time>2021-08-02T08:43:51.343Z</time>
      </trkpt>
      <trkpt lat="47.04919" lon="9.03049">
        <ele>671</ele>
        <time>2021-08-02T08:43:52.344Z</time>
      </trkpt>
      <trkpt lat="47.04919" lon="9.03051">
        <ele>673</ele>
        <time>2021-08-02T08:43:53.345Z</time>
      </trkpt>
      <trkpt lat="47.04919" lon="9.0305">
        <ele>673</ele>
        <time>2021-08-02T08:43:54.344Z</time>
      </trkpt>
      <trkpt lat="47.04919" lon="9.03049">
        <ele>673</ele>
        <time>2021-08-02T08:43:55.344Z</time>
      </trkpt>
      <trkpt lat="47.04919" lon="9.03049">
        <ele>673</ele>
        <time>2021-08-02T08:43:56.344Z</time>
      </trkpt>
      <trkpt lat="47.04919" lon="9.03048">
        <ele>674</ele>
        <time>2021-08-02T08:43:57.344Z</time>
      </trkpt>
      <trkpt lat="47.04919" lon="9.03048">
        <ele>674</ele>
        <time>2021-08-02T08:43:58.344Z</time>
      </trkpt>
      <trkpt lat="47.04919" lon="9.03048">
        <ele>675</ele>
        <time>2021-08-02T08:43:59.344Z</time>
      </trkpt>
      <trkpt lat="47.0492" lon="9.03051">
        <ele>677</ele>
        <time>2021-08-02T08:44:00.345Z</time>
      </trkpt>
      <trkpt lat="47.04921" lon="9.03051">
        <ele>678</ele>
        <time>2021-08-02T08:44:01.345Z</time>
      </trkpt>
      <trkpt lat="47.04922" lon="9.0305">
        <ele>679</ele>
        <time>2021-08-02T08:44:02.345Z</time>
      </trkpt>
      <trkpt lat="47.04922" lon="9.03049">
        <ele>679</ele>
        <time>2021-08-02T08:44:03.345Z</time>
      </trkpt>
      <trkpt lat="47.04923" lon="9.03048">
        <ele>680</ele>
        <time>2021-08-02T08:44:04.345Z</time>
      </trkpt>
      <trkpt lat="47.04923" lon="9.03047">
        <ele>681</ele>
        <time>2021-08-02T08:44:05.345Z</time>
      </trkpt>
      <trkpt lat="47.04923" lon="9.03047">
        <ele>682</ele>
        <time>2021-08-02T08:44:06.345Z</time>
      </trkpt>
      <trkpt lat="47.04924" lon="9.03047">
        <ele>683</ele>
        <time>2021-08-02T08:44:07.346Z</time>
      </trkpt>
      <trkpt lat="47.04927" lon="9.03044">
        <ele>687</ele>
        <time>2021-08-02T08:44:08.347Z</time>
      </trkpt>
      <trkpt lat="47.04927" lon="9.03044">
        <ele>687</ele>
        <time>2021-08-02T08:44:09.348Z</time>
      </trkpt>
      <trkpt lat="47.04928" lon="9.03044">
        <ele>688</ele>
        <time>2021-08-02T08:44:10.347Z</time>
      </trkpt>
      <trkpt lat="47.04928" lon="9.03044">
        <ele>688</ele>
        <time>2021-08-02T08:44:11.347Z</time>
      </trkpt>
      <trkpt lat="47.04929" lon="9.03045">
        <ele>688</ele>
        <time>2021-08-02T08:44:12.347Z</time>
      </trkpt>
      <trkpt lat="47.04929" lon="9.03045">
        <ele>688</ele>
        <time>2021-08-02T08:44:13.347Z</time>
      </trkpt>
      <trkpt lat="47.0493" lon="9.03045">
        <ele>689</ele>
        <time>2021-08-02T08:44:14.347Z</time>
      </trkpt>
      <trkpt lat="47.0493" lon="9.03045">
        <ele>689</ele>
        <time>2021-08-02T08:44:15.347Z</time>
      </trkpt>
      <trkpt lat="47.0493" lon="9.03045">
        <ele>689</ele>
        <time>2021-08-02T08:44:16.347Z</time>
      </trkpt>
      <trkpt lat="47.0493" lon="9.03045">
        <ele>688</ele>
        <time>2021-08-02T08:44:17.347Z</time>
      </trkpt>
      <trkpt lat="47.0493" lon="9.03045">
        <ele>688</ele>
        <time>2021-08-02T08:44:18.347Z</time>
      </trkpt>
      <trkpt lat="47.04931" lon="9.03045">
        <ele>688</ele>
        <time>2021-08-02T08:44:19.347Z</time>
      </trkpt>
      <trkpt lat="47.04931" lon="9.03045">
        <ele>688</ele>
        <time>2021-08-02T08:44:20.347Z</time>
      </trkpt>
      <trkpt lat="47.04931" lon="9.03045">
        <ele>688</ele>
        <time>2021-08-02T08:44:21.348Z</time>
      </trkpt>
      <trkpt lat="47.04931" lon="9.03044">
        <ele>687</ele>
        <time>2021-08-02T08:44:22.348Z</time>
      </trkpt>
      <trkpt lat="47.04928" lon="9.03045">
        <ele>687</ele>
        <time>2021-08-02T08:44:23.349Z</time>
      </trkpt>
      <trkpt lat="47.04928" lon="9.03045">
        <ele>686</ele>
        <time>2021-08-02T08:44:24.349Z</time>
      </trkpt>
      <trkpt lat="47.04929" lon="9.03047">
        <ele>686</ele>
        <time>2021-08-02T08:44:25.349Z</time>
      </trkpt>
      <trkpt lat="47.0493" lon="9.03049">
        <ele>686</ele>
        <time>2021-08-02T08:44:26.349Z</time>
      </trkpt>
      <trkpt lat="47.04929" lon="9.0305">
        <ele>685</ele>
        <time>2021-08-02T08:44:27.349Z</time>
      </trkpt>
      <trkpt lat="47.0493" lon="9.03052">
        <ele>685</ele>
        <time>2021-08-02T08:44:28.349Z</time>
      </trkpt>
      <trkpt lat="47.04929" lon="9.03053">
        <ele>685</ele>
        <time>2021-08-02T08:44:29.349Z</time>
      </trkpt>
      <trkpt lat="47.04929" lon="9.03054">
        <ele>685</ele>
        <time>2021-08-02T08:44:30.349Z</time>
      </trkpt>
      <trkpt lat="47.04929" lon="9.03055">
        <ele>685</ele>
        <time>2021-08-02T08:44:31.349Z</time>
      </trkpt>
      <trkpt lat="47.04928" lon="9.03055">
        <ele>684</ele>
        <time>2021-08-02T08:44:32.349Z</time>
      </trkpt>
      <trkpt lat="47.04928" lon="9.03055">
        <ele>684</ele>
        <time>2021-08-02T08:44:33.349Z</time>
      </trkpt>
      <trkpt lat="47.04927" lon="9.03055">
        <ele>684</ele>
        <time>2021-08-02T08:44:34.349Z</time>
      </trkpt>
      <trkpt lat="47.04927" lon="9.03055">
        <ele>684</ele>
        <time>2021-08-02T08:44:35.349Z</time>
      </trkpt>
      <trkpt lat="47.04926" lon="9.03055">
        <ele>684</ele>
        <time>2021-08-02T08:44:36.349Z</time>
      </trkpt>
      <trkpt lat="47.04926" lon="9.03056">
        <ele>684</ele>
        <time>2021-08-02T08:44:37.349Z</time>
      </trkpt>
      <trkpt lat="47.04924" lon="9.03057">
        <ele>682</ele>
        <time>2021-08-02T08:44:38.350Z</time>
      </trkpt>
      <trkpt lat="47.04923" lon="9.03057">
        <ele>681</ele>
        <time>2021-08-02T08:44:39.349Z</time>
      </trkpt>
      <trkpt lat="47.04921" lon="9.03056">
        <ele>678</ele>
        <time>2021-08-02T08:44:40.349Z</time>
      </trkpt>
      <trkpt lat="47.0492" lon="9.03055">
        <ele>678</ele>
        <time>2021-08-02T08:44:41.350Z</time>
      </trkpt>
      <trkpt lat="47.0492" lon="9.03054">
        <ele>677</ele>
        <time>2021-08-02T08:44:42.349Z</time>
      </trkpt>
      <trkpt lat="47.04919" lon="9.03058">
        <ele>675</ele>
        <time>2021-08-02T08:44:43.351Z</time>
      </trkpt>
      <trkpt lat="47.04919" lon="9.03058">
        <ele>675</ele>
        <time>2021-08-02T08:44:44.351Z</time>
      </trkpt>
      <trkpt lat="47.04918" lon="9.03058">
        <ele>674</ele>
        <time>2021-08-02T08:44:45.351Z</time>
      </trkpt>
      <trkpt lat="47.04916" lon="9.03055">
        <ele>671</ele>
        <time>2021-08-02T08:44:46.352Z</time>
      </trkpt>
      <trkpt lat="47.04916" lon="9.03055">
        <ele>671</ele>
        <time>2021-08-02T08:44:47.352Z</time>
      </trkpt>
      <trkpt lat="47.04916" lon="9.03055">
        <ele>670</ele>
        <time>2021-08-02T08:44:48.352Z</time>
      </trkpt>
      <trkpt lat="47.04918" lon="9.03046">
        <ele>674</ele>
        <time>2021-08-02T08:44:49.353Z</time>
      </trkpt>
      <trkpt lat="47.04918" lon="9.03045">
        <ele>675</ele>
        <time>2021-08-02T08:44:50.353Z</time>
      </trkpt>
      <trkpt lat="47.04917" lon="9.03045">
        <ele>676</ele>
        <time>2021-08-02T08:44:51.352Z</time>
      </trkpt>
      <trkpt lat="47.04917" lon="9.03044">
        <ele>676</ele>
        <time>2021-08-02T08:44:52.353Z</time>
      </trkpt>
      <trkpt lat="47.04917" lon="9.03044">
        <ele>677</ele>
        <time>2021-08-02T08:44:53.352Z</time>
      </trkpt>
      <trkpt lat="47.04916" lon="9.03044">
        <ele>678</ele>
        <time>2021-08-02T08:44:54.353Z</time>
      </trkpt>
      <trkpt lat="47.04916" lon="9.03044">
        <ele>678</ele>
        <time>2021-08-02T08:44:55.353Z</time>
      </trkpt>
      <trkpt lat="47.04915" lon="9.03043">
        <ele>679</ele>
        <time>2021-08-02T08:44:56.353Z</time>
      </trkpt>
      <trkpt lat="47.04914" lon="9.03041">
        <ele>679</ele>
        <time>2021-08-02T08:44:57.354Z</time>
      </trkpt>
      <trkpt lat="47.04913" lon="9.03041">
        <ele>679</ele>
        <time>2021-08-02T08:44:58.353Z</time>
      </trkpt>
      <trkpt lat="47.04912" lon="9.03042">
        <ele>678</ele>
        <time>2021-08-02T08:44:59.353Z</time>
      </trkpt>
      <trkpt lat="47.04913" lon="9.03042">
        <ele>678</ele>
        <time>2021-08-02T08:45:00.354Z</time>
      </trkpt>
      <trkpt lat="47.04914" lon="9.03042">
        <ele>677</ele>
        <time>2021-08-02T08:45:01.353Z</time>
      </trkpt>
      <trkpt lat="47.04914" lon="9.03042">
        <ele>677</ele>
        <time>2021-08-02T08:45:02.353Z</time>
      </trkpt>
      <trkpt lat="47.04915" lon="9.03043">
        <ele>677</ele>
        <time>2021-08-02T08:45:03.354Z</time>
      </trkpt>
      <trkpt lat="47.04915" lon="9.03045">
        <ele>677</ele>
        <time>2021-08-02T08:45:04.354Z</time>
      </trkpt>
      <trkpt lat="47.04916" lon="9.03045">
        <ele>677</ele>
        <time>2021-08-02T08:45:05.353Z</time>
      </trkpt>
      <trkpt lat="47.04916" lon="9.03046">
        <ele>677</ele>
        <time>2021-08-02T08:45:06.354Z</time>
      </trkpt>
      <trkpt lat="47.04922" lon="9.03043">
        <ele>672</ele>
        <time>2021-08-02T08:45:07.354Z</time>
      </trkpt>
      <trkpt lat="47.04924" lon="9.03042">
        <ele>671</ele>
        <time>2021-08-02T08:45:08.353Z</time>
      </trkpt>
      <trkpt lat="47.04924" lon="9.03042">
        <ele>670</ele>
        <time>2021-08-02T08:45:09.353Z</time>
      </trkpt>
      <trkpt lat="47.04924" lon="9.03042">
        <ele>669</ele>
        <time>2021-08-02T08:45:10.353Z</time>
      </trkpt>
      <trkpt lat="47.04925" lon="9.03043">
        <ele>667</ele>
        <time>2021-08-02T08:45:11.355Z</time>
      </trkpt>
      <trkpt lat="47.04925" lon="9.03043">
        <ele>667</ele>
        <time>2021-08-02T08:45:12.355Z</time>
      </trkpt>
      <trkpt lat="47.04925" lon="9.03042">
        <ele>667</ele>
        <time>2021-08-02T08:45:13.354Z</time>
      </trkpt>
      <trkpt lat="47.04925" lon="9.03043">
        <ele>666</ele>
        <time>2021-08-02T08:45:14.354Z</time>
      </trkpt>
      <trkpt lat="47.0492" lon="9.03051">
        <ele>667</ele>
        <time>2021-08-02T08:45:15.355Z</time>
      </trkpt>
      <trkpt lat="47.04919" lon="9.03051">
        <ele>667</ele>
        <time>2021-08-02T08:45:16.355Z</time>
      </trkpt>
      <trkpt lat="47.04918" lon="9.0305">
        <ele>667</ele>
        <time>2021-08-02T08:45:17.354Z</time>
      </trkpt>
      <trkpt lat="47.04917" lon="9.0305">
        <ele>667</ele>
        <time>2021-08-02T08:45:18.355Z</time>
      </trkpt>
      <trkpt lat="47.04916" lon="9.0305">
        <ele>668</ele>
        <time>2021-08-02T08:45:19.355Z</time>
      </trkpt>
      <trkpt lat="47.04915" lon="9.03049">
        <ele>668</ele>
        <time>2021-08-02T08:45:20.354Z</time>
      </trkpt>
      <trkpt lat="47.04916" lon="9.03049">
        <ele>668</ele>
        <time>2021-08-02T08:45:21.354Z</time>
      </trkpt>
      <trkpt lat="47.04916" lon="9.03049">
        <ele>668</ele>
        <time>2021-08-02T08:45:22.354Z</time>
      </trkpt>
      <trkpt lat="47.04913" lon="9.03045">
        <ele>674</ele>
        <time>2021-08-02T08:45:23.355Z</time>
      </trkpt>
      <trkpt lat="47.04913" lon="9.03046">
        <ele>674</ele>
        <time>2021-08-02T08:45:24.355Z</time>
      </trkpt>
      <trkpt lat="47.04914" lon="9.03046">
        <ele>674</ele>
        <time>2021-08-02T08:45:25.354Z</time>
      </trkpt>
      <trkpt lat="47.04916" lon="9.03046">
        <ele>675</ele>
        <time>2021-08-02T08:45:26.356Z</time>
      </trkpt>
      <trkpt lat="47.04916" lon="9.03046">
        <ele>675</ele>
        <time>2021-08-02T08:45:27.355Z</time>
      </trkpt>
      <trkpt lat="47.04917" lon="9.03047">
        <ele>673</ele>
        <time>2021-08-02T08:45:28.357Z</time>
      </trkpt>
      <trkpt lat="47.04917" lon="9.03047">
        <ele>673</ele>
        <time>2021-08-02T08:45:29.356Z</time>
      </trkpt>
      <trkpt lat="47.04917" lon="9.03048">
        <ele>672</ele>
        <time>2021-08-02T08:45:30.356Z</time>
      </trkpt>
      <trkpt lat="47.04917" lon="9.03052">
        <ele>675</ele>
        <time>2021-08-02T08:45:31.357Z</time>
      </trkpt>
      <trkpt lat="47.04917" lon="9.03052">
        <ele>668</ele>
        <time>2021-08-02T08:45:32.357Z</time>
      </trkpt>
      <trkpt lat="47.04916" lon="9.03052">
        <ele>668</ele>
        <time>2021-08-02T08:45:33.356Z</time>
      </trkpt>
      <trkpt lat="47.04916" lon="9.03053">
        <ele>667</ele>
        <time>2021-08-02T08:45:34.356Z</time>
      </trkpt>
      <trkpt lat="47.04915" lon="9.03054">
        <ele>667</ele>
        <time>2021-08-02T08:45:35.356Z</time>
      </trkpt>
      <trkpt lat="47.04914" lon="9.03054">
        <ele>667</ele>
        <time>2021-08-02T08:45:36.357Z</time>
      </trkpt>
      <trkpt lat="47.04914" lon="9.03055">
        <ele>666</ele>
        <time>2021-08-02T08:45:37.357Z</time>
      </trkpt>
      <trkpt lat="47.04913" lon="9.03056">
        <ele>666</ele>
        <time>2021-08-02T08:45:38.356Z</time>
      </trkpt>
      <trkpt lat="47.04912" lon="9.03056">
        <ele>666</ele>
        <time>2021-08-02T08:45:39.357Z</time>
      </trkpt>
      <trkpt lat="47.04912" lon="9.03057">
        <ele>666</ele>
        <time>2021-08-02T08:45:40.357Z</time>
      </trkpt>
      <trkpt lat="47.04911" lon="9.03057">
        <ele>667</ele>
        <time>2021-08-02T08:45:41.357Z</time>
      </trkpt>
      <trkpt lat="47.0491" lon="9.03057">
        <ele>667</ele>
        <time>2021-08-02T08:45:42.357Z</time>
      </trkpt>
      <trkpt lat="47.04909" lon="9.03057">
        <ele>667</ele>
        <time>2021-08-02T08:45:43.356Z</time>
      </trkpt>
      <trkpt lat="47.04904" lon="9.03066">
        <ele>674</ele>
        <time>2021-08-02T08:45:44.359Z</time>
      </trkpt>
      <trkpt lat="47.04904" lon="9.03064">
        <ele>673</ele>
        <time>2021-08-02T08:45:45.358Z</time>
      </trkpt>
      <trkpt lat="47.04904" lon="9.03062">
        <ele>673</ele>
        <time>2021-08-02T08:45:46.358Z</time>
      </trkpt>
      <trkpt lat="47.04905" lon="9.03061">
        <ele>673</ele>
        <time>2021-08-02T08:45:47.359Z</time>
      </trkpt>
      <trkpt lat="47.04905" lon="9.03059">
        <ele>673</ele>
        <time>2021-08-02T08:45:48.359Z</time>
      </trkpt>
      <trkpt lat="47.04905" lon="9.03058">
        <ele>673</ele>
        <time>2021-08-02T08:45:49.359Z</time>
      </trkpt>
      <trkpt lat="47.04905" lon="9.03057">
        <ele>673</ele>
        <time>2021-08-02T08:45:50.359Z</time>
      </trkpt>
      <trkpt lat="47.04906" lon="9.03055">
        <ele>673</ele>
        <time>2021-08-02T08:45:51.359Z</time>
      </trkpt>
      <trkpt lat="47.04906" lon="9.03055">
        <ele>673</ele>
        <time>2021-08-02T08:45:52.359Z</time>
      </trkpt>
      <trkpt lat="47.04907" lon="9.03054">
        <ele>673</ele>
        <time>2021-08-02T08:45:53.359Z</time>
      </trkpt>
      <trkpt lat="47.04907" lon="9.03054">
        <ele>672</ele>
        <time>2021-08-02T08:45:54.359Z</time>
      </trkpt>
      <trkpt lat="47.04907" lon="9.03054">
        <ele>672</ele>
        <time>2021-08-02T08:45:55.359Z</time>
      </trkpt>
      <trkpt lat="47.04907" lon="9.03053">
        <ele>672</ele>
        <time>2021-08-02T08:45:56.358Z</time>
      </trkpt>
      <trkpt lat="47.04907" lon="9.03052">
        <ele>672</ele>
        <time>2021-08-02T08:45:57.359Z</time>
      </trkpt>
      <trkpt lat="47.04907" lon="9.03052">
        <ele>672</ele>
        <time>2021-08-02T08:45:58.359Z</time>
      </trkpt>
      <trkpt lat="47.04907" lon="9.03047">
        <ele>670</ele>
        <time>2021-08-02T08:45:59.360Z</time>
      </trkpt>
      <trkpt lat="47.04901" lon="9.03041">
        <ele>663</ele>
        <time>2021-08-02T08:46:00.359Z</time>
      </trkpt>
      <trkpt lat="47.04902" lon="9.03039">
        <ele>663</ele>
        <time>2021-08-02T08:46:01.360Z</time>
      </trkpt>
      <trkpt lat="47.04902" lon="9.0304">
        <ele>663</ele>
        <time>2021-08-02T08:46:02.359Z</time>
      </trkpt>
      <trkpt lat="47.04902" lon="9.0304">
        <ele>663</ele>
        <time>2021-08-02T08:46:03.360Z</time>
      </trkpt>
      <trkpt lat="47.04904" lon="9.03039">
        <ele>665</ele>
        <time>2021-08-02T08:46:04.359Z</time>
      </trkpt>
      <trkpt lat="47.04905" lon="9.03039">
        <ele>665</ele>
        <time>2021-08-02T08:46:05.360Z</time>
      </trkpt>
      <trkpt lat="47.04905" lon="9.03039">
        <ele>665</ele>
        <time>2021-08-02T08:46:06.359Z</time>
      </trkpt>
      <trkpt lat="47.04914" lon="9.03042">
        <ele>666</ele>
        <time>2021-08-02T08:46:07.360Z</time>
      </trkpt>
      <trkpt lat="47.04914" lon="9.03042">
        <ele>666</ele>
        <time>2021-08-02T08:46:08.360Z</time>
      </trkpt>
      <trkpt lat="47.04914" lon="9.03036">
        <ele>662</ele>
        <time>2021-08-02T08:46:09.361Z</time>
      </trkpt>
      <trkpt lat="47.04914" lon="9.03035">
        <ele>661</ele>
        <time>2021-08-02T08:46:10.361Z</time>
      </trkpt>
      <trkpt lat="47.04914" lon="9.03034">
        <ele>659</ele>
        <time>2021-08-02T08:46:11.360Z</time>
      </trkpt>
      <trkpt lat="47.04918" lon="9.03038">
        <ele>658</ele>
        <time>2021-08-02T08:46:12.360Z</time>
      </trkpt>
      <trkpt lat="47.04919" lon="9.03038">
        <ele>659</ele>
        <time>2021-08-02T08:46:13.361Z</time>
      </trkpt>
      <trkpt lat="47.04918" lon="9.03031">
        <ele>659</ele>
        <time>2021-08-02T08:46:15.361Z</time>
      </trkpt>
      <trkpt lat="47.04918" lon="9.0303">
        <ele>659</ele>
        <time>2021-08-02T08:46:16.360Z</time>
      </trkpt>
      <trkpt lat="47.04916" lon="9.0303">
        <ele>659</ele>
        <time>2021-08-02T08:46:17.363Z</time>
      </trkpt>
      <trkpt lat="47.04917" lon="9.0303">
        <ele>659</ele>
        <time>2021-08-02T08:46:18.363Z</time>
      </trkpt>
      <trkpt lat="47.04916" lon="9.03031">
        <ele>656</ele>
        <time>2021-08-02T08:46:19.363Z</time>
      </trkpt>
      <trkpt lat="47.04915" lon="9.03031">
        <ele>656</ele>
        <time>2021-08-02T08:46:20.363Z</time>
      </trkpt>
      <trkpt lat="47.04915" lon="9.03032">
        <ele>655</ele>
        <time>2021-08-02T08:46:21.362Z</time>
      </trkpt>
      <trkpt lat="47.04914" lon="9.03032">
        <ele>655</ele>
        <time>2021-08-02T08:46:22.363Z</time>
      </trkpt>
      <trkpt lat="47.04913" lon="9.03033">
        <ele>655</ele>
        <time>2021-08-02T08:46:23.363Z</time>
      </trkpt>
      <trkpt lat="47.04913" lon="9.03034">
        <ele>655</ele>
        <time>2021-08-02T08:46:24.363Z</time>
      </trkpt>
      <trkpt lat="47.04913" lon="9.03035">
        <ele>655</ele>
        <time>2021-08-02T08:46:25.363Z</time>
      </trkpt>
      <trkpt lat="47.04914" lon="9.03036">
        <ele>656</ele>
        <time>2021-08-02T08:46:26.363Z</time>
      </trkpt>
      <trkpt lat="47.04913" lon="9.03037">
        <ele>657</ele>
        <time>2021-08-02T08:46:27.363Z</time>
      </trkpt>
      <trkpt lat="47.04912" lon="9.03038">
        <ele>657</ele>
        <time>2021-08-02T08:46:28.363Z</time>
      </trkpt>
      <trkpt lat="47.04911" lon="9.03037">
        <ele>658</ele>
        <time>2021-08-02T08:46:29.364Z</time>
      </trkpt>
      <trkpt lat="47.04911" lon="9.03034">
        <ele>660</ele>
        <time>2021-08-02T08:46:30.365Z</time>
      </trkpt>
      <trkpt lat="47.04911" lon="9.03034">
        <ele>660</ele>
        <time>2021-08-02T08:46:31.365Z</time>
      </trkpt>
      <trkpt lat="47.04913" lon="9.03035">
        <ele>659</ele>
        <time>2021-08-02T08:46:32.365Z</time>
      </trkpt>
      <trkpt lat="47.04913" lon="9.03037">
        <ele>658</ele>
        <time>2021-08-02T08:46:33.364Z</time>
      </trkpt>
      <trkpt lat="47.04913" lon="9.03039">
        <ele>658</ele>
        <time>2021-08-02T08:46:34.364Z</time>
      </trkpt>
      <trkpt lat="47.04913" lon="9.03041">
        <ele>658</ele>
        <time>2021-08-02T08:46:35.366Z</time>
      </trkpt>
      <trkpt lat="47.04913" lon="9.03041">
        <ele>658</ele>
        <time>2021-08-02T08:46:36.366Z</time>
      </trkpt>
      <trkpt lat="47.04913" lon="9.03042">
        <ele>659</ele>
        <time>2021-08-02T08:46:37.366Z</time>
      </trkpt>
      <trkpt lat="47.04913" lon="9.03042">
        <ele>659</ele>
        <time>2021-08-02T08:46:38.367Z</time>
      </trkpt>
      <trkpt lat="47.04914" lon="9.03042">
        <ele>659</ele>
        <time>2021-08-02T08:46:39.366Z</time>
      </trkpt>
      <trkpt lat="47.04915" lon="9.03042">
        <ele>659</ele>
        <time>2021-08-02T08:46:40.366Z</time>
      </trkpt>
      <trkpt lat="47.04916" lon="9.03042">
        <ele>659</ele>
        <time>2021-08-02T08:46:41.366Z</time>
      </trkpt>
      <trkpt lat="47.04917" lon="9.03042">
        <ele>661</ele>
        <time>2021-08-02T08:46:42.367Z</time>
      </trkpt>
      <trkpt lat="47.04917" lon="9.03042">
        <ele>662</ele>
        <time>2021-08-02T08:46:43.368Z</time>
      </trkpt>
      <trkpt lat="47.04917" lon="9.03041">
        <ele>663</ele>
        <time>2021-08-02T08:46:44.367Z</time>
      </trkpt>
      <trkpt lat="47.04918" lon="9.03041">
        <ele>666</ele>
        <time>2021-08-02T08:46:45.369Z</time>
      </trkpt>
      <trkpt lat="47.04919" lon="9.03042">
        <ele>667</ele>
        <time>2021-08-02T08:46:46.369Z</time>
      </trkpt>
      <trkpt lat="47.0492" lon="9.03043">
        <ele>668</ele>
        <time>2021-08-02T08:46:47.368Z</time>
      </trkpt>
      <trkpt lat="47.0492" lon="9.03044">
        <ele>669</ele>
        <time>2021-08-02T08:46:48.369Z</time>
      </trkpt>
      <trkpt lat="47.0492" lon="9.03045">
        <ele>670</ele>
        <time>2021-08-02T08:46:49.369Z</time>
      </trkpt>
      <trkpt lat="47.0492" lon="9.03046">
        <ele>672</ele>
        <time>2021-08-02T08:46:50.368Z</time>
      </trkpt>
      <trkpt lat="47.04919" lon="9.03046">
        <ele>673</ele>
        <time>2021-08-02T08:46:51.368Z</time>
      </trkpt>
      <trkpt lat="47.04919" lon="9.03046">
        <ele>674</ele>
        <time>2021-08-02T08:46:52.369Z</time>
      </trkpt>
      <trkpt lat="47.04919" lon="9.03047">
        <ele>683</ele>
        <time>2021-08-02T08:46:53.369Z</time>
      </trkpt>
      <trkpt lat="47.0492" lon="9.0305">
        <ele>692</ele>
        <time>2021-08-02T08:46:54.371Z</time>
      </trkpt>
      <trkpt lat="47.04919" lon="9.03055">
        <ele>686</ele>
        <time>2021-08-02T08:46:55.371Z</time>
      </trkpt>
      <trkpt lat="47.04919" lon="9.03055">
        <ele>685</ele>
        <time>2021-08-02T08:46:56.371Z</time>
      </trkpt>
      <trkpt lat="47.04919" lon="9.03055">
        <ele>685</ele>
        <time>2021-08-02T08:46:57.371Z</time>
      </trkpt>
      <trkpt lat="47.04919" lon="9.03055">
        <ele>685</ele>
        <time>2021-08-02T08:46:58.370Z</time>
      </trkpt>
      <trkpt lat="47.04919" lon="9.03055">
        <ele>691</ele>
        <time>2021-08-02T08:46:59.373Z</time>
      </trkpt>
      <trkpt lat="47.04919" lon="9.03056">
        <ele>691</ele>
        <time>2021-08-02T08:47:00.373Z</time>
      </trkpt>
      <trkpt lat="47.04919" lon="9.03057">
        <ele>692</ele>
        <time>2021-08-02T08:47:01.372Z</time>
      </trkpt>
      <trkpt lat="47.04918" lon="9.03057">
        <ele>692</ele>
        <time>2021-08-02T08:47:02.372Z</time>
      </trkpt>
      <trkpt lat="47.04918" lon="9.03059">
        <ele>693</ele>
        <time>2021-08-02T08:47:03.373Z</time>
      </trkpt>
      <trkpt lat="47.04918" lon="9.0306">
        <ele>693</ele>
        <time>2021-08-02T08:47:04.373Z</time>
      </trkpt>
      <trkpt lat="47.04917" lon="9.0306">
        <ele>693</ele>
        <time>2021-08-02T08:47:05.372Z</time>
      </trkpt>
      <trkpt lat="47.04917" lon="9.03061">
        <ele>693</ele>
        <time>2021-08-02T08:47:06.373Z</time>
      </trkpt>
      <trkpt lat="47.04916" lon="9.03061">
        <ele>693</ele>
        <time>2021-08-02T08:47:07.373Z</time>
      </trkpt>
      <trkpt lat="47.04915" lon="9.0306">
        <ele>693</ele>
        <time>2021-08-02T08:47:08.373Z</time>
      </trkpt>
      <trkpt lat="47.04915" lon="9.03059">
        <ele>692</ele>
        <time>2021-08-02T08:47:09.373Z</time>
      </trkpt>
      <trkpt lat="47.04914" lon="9.03057">
        <ele>691</ele>
        <time>2021-08-02T08:47:10.372Z</time>
      </trkpt>
      <trkpt lat="47.04914" lon="9.03055">
        <ele>690</ele>
        <time>2021-08-02T08:47:11.373Z</time>
      </trkpt>
      <trkpt lat="47.04914" lon="9.03053">
        <ele>688</ele>
        <time>2021-08-02T08:47:12.373Z</time>
      </trkpt>
      <trkpt lat="47.04913" lon="9.0305">
        <ele>683</ele>
        <time>2021-08-02T08:47:13.374Z</time>
      </trkpt>
      <trkpt lat="47.04913" lon="9.03049">
        <ele>677</ele>
        <time>2021-08-02T08:47:14.374Z</time>
      </trkpt>
      <trkpt lat="47.04913" lon="9.03048">
        <ele>677</ele>
        <time>2021-08-02T08:47:15.375Z</time>
      </trkpt>
      <trkpt lat="47.04913" lon="9.03047">
        <ele>676</ele>
        <time>2021-08-02T08:47:16.374Z</time>
      </trkpt>
      <trkpt lat="47.04914" lon="9.03045">
        <ele>676</ele>
        <time>2021-08-02T08:47:17.374Z</time>
      </trkpt>
      <trkpt lat="47.04912" lon="9.03045">
        <ele>676</ele>
        <time>2021-08-02T08:47:18.374Z</time>
      </trkpt>
      <trkpt lat="47.04911" lon="9.03045">
        <ele>675</ele>
        <time>2021-08-02T08:47:19.374Z</time>
      </trkpt>
      <trkpt lat="47.0491" lon="9.03048">
        <ele>670</ele>
        <time>2021-08-02T08:47:20.375Z</time>
      </trkpt>
      <trkpt lat="47.04911" lon="9.03048">
        <ele>670</ele>
        <time>2021-08-02T08:47:21.375Z</time>
      </trkpt>
      <trkpt lat="47.04911" lon="9.03049">
        <ele>662</ele>
        <time>2021-08-02T08:47:22.374Z</time>
      </trkpt>
      <trkpt lat="47.04911" lon="9.03049">
        <ele>662</ele>
        <time>2021-08-02T08:47:23.375Z</time>
      </trkpt>
      <trkpt lat="47.04911" lon="9.03049">
        <ele>662</ele>
        <time>2021-08-02T08:47:24.374Z</time>
      </trkpt>
      <trkpt lat="47.04911" lon="9.03049">
        <ele>661</ele>
        <time>2021-08-02T08:47:25.374Z</time>
      </trkpt>
      <trkpt lat="47.04911" lon="9.03048">
        <ele>660</ele>
        <time>2021-08-02T08:47:26.375Z</time>
      </trkpt>
      <trkpt lat="47.04911" lon="9.03048">
        <ele>660</ele>
        <time>2021-08-02T08:47:27.375Z</time>
      </trkpt>
      <trkpt lat="47.04912" lon="9.03047">
        <ele>660</ele>
        <time>2021-08-02T08:47:28.375Z</time>
      </trkpt>
      <trkpt lat="47.04912" lon="9.03046">
        <ele>660</ele>
        <time>2021-08-02T08:47:29.375Z</time>
      </trkpt>
      <trkpt lat="47.04911" lon="9.03042">
        <ele>658</ele>
        <time>2021-08-02T08:47:30.375Z</time>
      </trkpt>
      <trkpt lat="47.04911" lon="9.03041">
        <ele>658</ele>
        <time>2021-08-02T08:47:31.374Z</time>
      </trkpt>
      <trkpt lat="47.04911" lon="9.03041">
        <ele>658</ele>
        <time>2021-08-02T08:47:32.374Z</time>
      </trkpt>
      <trkpt lat="47.04911" lon="9.0304">
        <ele>657</ele>
        <time>2021-08-02T08:47:33.375Z</time>
      </trkpt>
      <trkpt lat="47.04911" lon="9.0304">
        <ele>657</ele>
        <time>2021-08-02T08:47:34.375Z</time>
      </trkpt>
      <trkpt lat="47.04911" lon="9.0304">
        <ele>657</ele>
        <time>2021-08-02T08:47:35.374Z</time>
      </trkpt>
      <trkpt lat="47.04912" lon="9.03042">
        <ele>658</ele>
        <time>2021-08-02T08:47:36.374Z</time>
      </trkpt>
      <trkpt lat="47.04913" lon="9.03044">
        <ele>659</ele>
        <time>2021-08-02T08:47:37.374Z</time>
      </trkpt>
      <trkpt lat="47.04914" lon="9.03043">
        <ele>659</ele>
        <time>2021-08-02T08:47:38.374Z</time>
      </trkpt>
      <trkpt lat="47.04914" lon="9.03042">
        <ele>659</ele>
        <time>2021-08-02T08:47:39.374Z</time>
      </trkpt>
      <trkpt lat="47.04913" lon="9.03041">
        <ele>660</ele>
        <time>2021-08-02T08:47:40.375Z</time>
      </trkpt>
      <trkpt lat="47.04913" lon="9.0304">
        <ele>660</ele>
        <time>2021-08-02T08:47:41.375Z</time>
      </trkpt>
      <trkpt lat="47.04913" lon="9.03034">
        <ele>654</ele>
        <time>2021-08-02T08:47:42.376Z</time>
      </trkpt>
      <trkpt lat="47.04913" lon="9.03034">
        <ele>654</ele>
        <time>2021-08-02T08:47:43.375Z</time>
      </trkpt>
      <trkpt lat="47.04913" lon="9.03035">
        <ele>653</ele>
        <time>2021-08-02T08:47:44.375Z</time>
      </trkpt>
      <trkpt lat="47.04914" lon="9.03035">
        <ele>653</ele>
        <time>2021-08-02T08:47:45.376Z</time>
      </trkpt>
      <trkpt lat="47.04915" lon="9.03035">
        <ele>653</ele>
        <time>2021-08-02T08:47:46.375Z</time>
      </trkpt>
      <trkpt lat="47.04915" lon="9.03035">
        <ele>653</ele>
        <time>2021-08-02T08:47:47.375Z</time>
      </trkpt>
      <trkpt lat="47.04916" lon="9.03034">
        <ele>653</ele>
        <time>2021-08-02T08:47:48.376Z</time>
      </trkpt>
      <trkpt lat="47.04915" lon="9.03035">
        <ele>653</ele>
        <time>2021-08-02T08:47:49.375Z</time>
      </trkpt>
      <trkpt lat="47.04915" lon="9.03036">
        <ele>653</ele>
        <time>2021-08-02T08:47:50.376Z</time>
      </trkpt>
      <trkpt lat="47.04914" lon="9.03036">
        <ele>653</ele>
        <time>2021-08-02T08:47:51.375Z</time>
      </trkpt>
      <trkpt lat="47.04913" lon="9.03037">
        <ele>653</ele>
        <time>2021-08-02T08:47:52.376Z</time>
      </trkpt>
      <trkpt lat="47.04913" lon="9.03036">
        <ele>652</ele>
        <time>2021-08-02T08:47:53.375Z</time>
      </trkpt>
      <trkpt lat="47.04913" lon="9.03036">
        <ele>652</ele>
        <time>2021-08-02T08:47:54.376Z</time>
      </trkpt>
      <trkpt lat="47.04912" lon="9.03036">
        <ele>651</ele>
        <time>2021-08-02T08:47:55.375Z</time>
      </trkpt>
      <trkpt lat="47.04914" lon="9.03034">
        <ele>647</ele>
        <time>2021-08-02T08:47:56.376Z</time>
      </trkpt>
      <trkpt lat="47.04915" lon="9.03033">
        <ele>640</ele>
        <time>2021-08-02T08:47:57.375Z</time>
      </trkpt>
      <trkpt lat="47.04916" lon="9.03035">
        <ele>636</ele>
        <time>2021-08-02T08:47:58.376Z</time>
      </trkpt>
      <trkpt lat="47.04916" lon="9.03035">
        <ele>636</ele>
        <time>2021-08-02T08:47:59.376Z</time>
      </trkpt>
      <trkpt lat="47.04916" lon="9.03035">
        <ele>636</ele>
        <time>2021-08-02T08:48:00.375Z</time>
      </trkpt>
      <trkpt lat="47.04916" lon="9.03037">
        <ele>636</ele>
        <time>2021-08-02T08:48:01.377Z</time>
      </trkpt>
      <trkpt lat="47.04916" lon="9.03038">
        <ele>636</ele>
        <time>2021-08-02T08:48:02.377Z</time>
      </trkpt>
      <trkpt lat="47.04916" lon="9.03038">
        <ele>637</ele>
        <time>2021-08-02T08:48:03.376Z</time>
      </trkpt>
      <trkpt lat="47.04916" lon="9.03037">
        <ele>637</ele>
        <time>2021-08-02T08:48:04.376Z</time>
      </trkpt>
      <trkpt lat="47.04916" lon="9.03037">
        <ele>638</ele>
        <time>2021-08-02T08:48:05.377Z</time>
      </trkpt>
      <trkpt lat="47.04914" lon="9.03034">
        <ele>649</ele>
        <time>2021-08-02T08:48:06.376Z</time>
      </trkpt>
      <trkpt lat="47.04913" lon="9.03033">
        <ele>650</ele>
        <time>2021-08-02T08:48:07.377Z</time>
      </trkpt>
      <trkpt lat="47.04912" lon="9.03033">
        <ele>652</ele>
        <time>2021-08-02T08:48:08.377Z</time>
      </trkpt>
      <trkpt lat="47.04913" lon="9.03036">
        <ele>659</ele>
        <time>2021-08-02T08:48:09.377Z</time>
      </trkpt>
      <trkpt lat="47.04913" lon="9.03037">
        <ele>660</ele>
        <time>2021-08-02T08:48:10.377Z</time>
      </trkpt>
      <trkpt lat="47.04913" lon="9.03037">
        <ele>661</ele>
        <time>2021-08-02T08:48:11.376Z</time>
      </trkpt>
      <trkpt lat="47.04918" lon="9.03043">
        <ele>671</ele>
        <time>2021-08-02T08:48:12.376Z</time>
      </trkpt>
      <trkpt lat="47.04915" lon="9.03041">
        <ele>670</ele>
        <time>2021-08-02T08:48:13.378Z</time>
      </trkpt>
      <trkpt lat="47.04915" lon="9.03041">
        <ele>670</ele>
        <time>2021-08-02T08:48:14.377Z</time>
      </trkpt>
      <trkpt lat="47.04915" lon="9.0304">
        <ele>670</ele>
        <time>2021-08-02T08:48:15.378Z</time>
      </trkpt>
      <trkpt lat="47.04915" lon="9.0304">
        <ele>670</ele>
        <time>2021-08-02T08:48:16.378Z</time>
      </trkpt>
      <trkpt lat="47.04915" lon="9.03039">
        <ele>670</ele>
        <time>2021-08-02T08:48:17.377Z</time>
      </trkpt>
      <trkpt lat="47.04915" lon="9.0304">
        <ele>665</ele>
        <time>2021-08-02T08:48:18.377Z</time>
      </trkpt>
      <trkpt lat="47.04914" lon="9.03039">
        <ele>664</ele>
        <time>2021-08-02T08:48:19.377Z</time>
      </trkpt>
      <trkpt lat="47.04913" lon="9.03039">
        <ele>663</ele>
        <time>2021-08-02T08:48:20.377Z</time>
      </trkpt>
      <trkpt lat="47.04912" lon="9.03039">
        <ele>662</ele>
        <time>2021-08-02T08:48:21.378Z</time>
      </trkpt>
      <trkpt lat="47.04912" lon="9.03037">
        <ele>661</ele>
        <time>2021-08-02T08:48:22.377Z</time>
      </trkpt>
      <trkpt lat="47.04912" lon="9.03036">
        <ele>661</ele>
        <time>2021-08-02T08:48:23.378Z</time>
      </trkpt>
      <trkpt lat="47.04911" lon="9.03035">
        <ele>660</ele>
        <time>2021-08-02T08:48:24.377Z</time>
      </trkpt>
      <trkpt lat="47.04909" lon="9.03037">
        <ele>660</ele>
        <time>2021-08-02T08:48:25.377Z</time>
      </trkpt>
      <trkpt lat="47.04909" lon="9.0304">
        <ele>660</ele>
        <time>2021-08-02T08:48:26.377Z</time>
      </trkpt>
      <trkpt lat="47.04908" lon="9.03042">
        <ele>660</ele>
        <time>2021-08-02T08:48:27.377Z</time>
      </trkpt>
      <trkpt lat="47.04908" lon="9.03042">
        <ele>659</ele>
        <time>2021-08-02T08:48:28.377Z</time>
      </trkpt>
      <trkpt lat="47.04908" lon="9.03042">
        <ele>658</ele>
        <time>2021-08-02T08:48:29.377Z</time>
      </trkpt>
      <trkpt lat="47.04908" lon="9.03042">
        <ele>658</ele>
        <time>2021-08-02T08:48:30.378Z</time>
      </trkpt>
      <trkpt lat="47.04908" lon="9.03042">
        <ele>658</ele>
        <time>2021-08-02T08:48:31.377Z</time>
      </trkpt>
      <trkpt lat="47.04907" lon="9.03039">
        <ele>657</ele>
        <time>2021-08-02T08:48:32.378Z</time>
      </trkpt>
      <trkpt lat="47.04907" lon="9.03038">
        <ele>657</ele>
        <time>2021-08-02T08:48:33.377Z</time>
      </trkpt>
      <trkpt lat="47.04907" lon="9.03037">
        <ele>657</ele>
        <time>2021-08-02T08:48:34.378Z</time>
      </trkpt>
      <trkpt lat="47.04907" lon="9.03037">
        <ele>657</ele>
        <time>2021-08-02T08:48:35.377Z</time>
      </trkpt>
      <trkpt lat="47.04903" lon="9.03037">
        <ele>658</ele>
        <time>2021-08-02T08:48:36.379Z</time>
      </trkpt>
      <trkpt lat="47.04902" lon="9.03037">
        <ele>658</ele>
        <time>2021-08-02T08:48:37.378Z</time>
      </trkpt>
      <trkpt lat="47.04901" lon="9.03037">
        <ele>658</ele>
        <time>2021-08-02T08:48:38.378Z</time>
      </trkpt>
      <trkpt lat="47.04901" lon="9.03036">
        <ele>657</ele>
        <time>2021-08-02T08:48:39.379Z</time>
      </trkpt>
      <trkpt lat="47.049" lon="9.03035">
        <ele>658</ele>
        <time>2021-08-02T08:48:40.378Z</time>
      </trkpt>
      <trkpt lat="47.04899" lon="9.03034">
        <ele>658</ele>
        <time>2021-08-02T08:48:41.378Z</time>
      </trkpt>
      <trkpt lat="47.04898" lon="9.03034">
        <ele>658</ele>
        <time>2021-08-02T08:48:42.379Z</time>
      </trkpt>
      <trkpt lat="47.04898" lon="9.03033">
        <ele>658</ele>
        <time>2021-08-02T08:48:43.379Z</time>
      </trkpt>
      <trkpt lat="47.04897" lon="9.03033">
        <ele>659</ele>
        <time>2021-08-02T08:48:44.379Z</time>
      </trkpt>
      <trkpt lat="47.04895" lon="9.03033">
        <ele>659</ele>
        <time>2021-08-02T08:48:45.379Z</time>
      </trkpt>
      <trkpt lat="47.04894" lon="9.03033">
        <ele>659</ele>
        <time>2021-08-02T08:48:46.379Z</time>
      </trkpt>
      <trkpt lat="47.04893" lon="9.03034">
        <ele>660</ele>
        <time>2021-08-02T08:48:47.379Z</time>
      </trkpt>
      <trkpt lat="47.04892" lon="9.03034">
        <ele>660</ele>
        <time>2021-08-02T08:48:48.379Z</time>
      </trkpt>
      <trkpt lat="47.04891" lon="9.03034">
        <ele>661</ele>
        <time>2021-08-02T08:48:49.378Z</time>
      </trkpt>
      <trkpt lat="47.0489" lon="9.03033">
        <ele>661</ele>
        <time>2021-08-02T08:48:50.379Z</time>
      </trkpt>
      <trkpt lat="47.04889" lon="9.03032">
        <ele>661</ele>
        <time>2021-08-02T08:48:51.379Z</time>
      </trkpt>
      <trkpt lat="47.04888" lon="9.03031">
        <ele>661</ele>
        <time>2021-08-02T08:48:52.379Z</time>
      </trkpt>
      <trkpt lat="47.04887" lon="9.0303">
        <ele>662</ele>
        <time>2021-08-02T08:48:53.379Z</time>
      </trkpt>
      <trkpt lat="47.04885" lon="9.03028">
        <ele>662</ele>
        <time>2021-08-02T08:48:54.379Z</time>
      </trkpt>
      <trkpt lat="47.04884" lon="9.03026">
        <ele>662</ele>
        <time>2021-08-02T08:48:55.379Z</time>
      </trkpt>
      <trkpt lat="47.04882" lon="9.03025">
        <ele>662</ele>
        <time>2021-08-02T08:48:56.378Z</time>
      </trkpt>
      <trkpt lat="47.04881" lon="9.03023">
        <ele>663</ele>
        <time>2021-08-02T08:48:57.379Z</time>
      </trkpt>
      <trkpt lat="47.04881" lon="9.0302">
        <ele>663</ele>
        <time>2021-08-02T08:48:58.378Z</time>
      </trkpt>
      <trkpt lat="47.0488" lon="9.03019">
        <ele>663</ele>
        <time>2021-08-02T08:48:59.378Z</time>
      </trkpt>
      <trkpt lat="47.04879" lon="9.03017">
        <ele>663</ele>
        <time>2021-08-02T08:49:00.378Z</time>
      </trkpt>
      <trkpt lat="47.04877" lon="9.03017">
        <ele>664</ele>
        <time>2021-08-02T08:49:01.378Z</time>
      </trkpt>
      <trkpt lat="47.04876" lon="9.03016">
        <ele>664</ele>
        <time>2021-08-02T08:49:02.378Z</time>
      </trkpt>
      <trkpt lat="47.04876" lon="9.03016">
        <ele>664</ele>
        <time>2021-08-02T08:49:03.379Z</time>
      </trkpt>
      <trkpt lat="47.04876" lon="9.03015">
        <ele>665</ele>
        <time>2021-08-02T08:49:04.378Z</time>
      </trkpt>
      <trkpt lat="47.04875" lon="9.03016">
        <ele>665</ele>
        <time>2021-08-02T08:49:05.379Z</time>
      </trkpt>
      <trkpt lat="47.04874" lon="9.03017">
        <ele>666</ele>
        <time>2021-08-02T08:49:06.379Z</time>
      </trkpt>
      <trkpt lat="47.04874" lon="9.03018">
        <ele>666</ele>
        <time>2021-08-02T08:49:07.378Z</time>
      </trkpt>
      <trkpt lat="47.04873" lon="9.03016">
        <ele>668</ele>
        <time>2021-08-02T08:49:08.379Z</time>
      </trkpt>
      <trkpt lat="47.04872" lon="9.03015">
        <ele>669</ele>
        <time>2021-08-02T08:49:09.379Z</time>
      </trkpt>
      <trkpt lat="47.04872" lon="9.03015">
        <ele>670</ele>
        <time>2021-08-02T08:49:10.378Z</time>
      </trkpt>
      <trkpt lat="47.04872" lon="9.03014">
        <ele>670</ele>
        <time>2021-08-02T08:49:11.379Z</time>
      </trkpt>
      <trkpt lat="47.04871" lon="9.03013">
        <ele>671</ele>
        <time>2021-08-02T08:49:12.378Z</time>
      </trkpt>
      <trkpt lat="47.04871" lon="9.03013">
        <ele>672</ele>
        <time>2021-08-02T08:49:13.378Z</time>
      </trkpt>
      <trkpt lat="47.04871" lon="9.03013">
        <ele>673</ele>
        <time>2021-08-02T08:49:14.378Z</time>
      </trkpt>
      <trkpt lat="47.0487" lon="9.03012">
        <ele>673</ele>
        <time>2021-08-02T08:49:15.379Z</time>
      </trkpt>
      <trkpt lat="47.0487" lon="9.03011">
        <ele>674</ele>
        <time>2021-08-02T08:49:16.379Z</time>
      </trkpt>
      <trkpt lat="47.0487" lon="9.0301">
        <ele>675</ele>
        <time>2021-08-02T08:49:17.378Z</time>
      </trkpt>
      <trkpt lat="47.0487" lon="9.0301">
        <ele>676</ele>
        <time>2021-08-02T08:49:18.379Z</time>
      </trkpt>
      <trkpt lat="47.0487" lon="9.03009">
        <ele>676</ele>
        <time>2021-08-02T08:49:19.379Z</time>
      </trkpt>
      <trkpt lat="47.0487" lon="9.03008">
        <ele>677</ele>
        <time>2021-08-02T08:49:20.379Z</time>
      </trkpt>
      <trkpt lat="47.0487" lon="9.03007">
        <ele>677</ele>
        <time>2021-08-02T08:49:21.379Z</time>
      </trkpt>
      <trkpt lat="47.0487" lon="9.03007">
        <ele>678</ele>
        <time>2021-08-02T08:49:22.378Z</time>
      </trkpt>
      <trkpt lat="47.04869" lon="9.03005">
        <ele>678</ele>
        <time>2021-08-02T08:49:23.379Z</time>
      </trkpt>
      <trkpt lat="47.04868" lon="9.03004">
        <ele>679</ele>
        <time>2021-08-02T08:49:24.379Z</time>
      </trkpt>
      <trkpt lat="47.04867" lon="9.03004">
        <ele>680</ele>
        <time>2021-08-02T08:49:25.379Z</time>
      </trkpt>
      <trkpt lat="47.04867" lon="9.03004">
        <ele>680</ele>
        <time>2021-08-02T08:49:26.378Z</time>
      </trkpt>
      <trkpt lat="47.04866" lon="9.03004">
        <ele>681</ele>
        <time>2021-08-02T08:49:27.379Z</time>
      </trkpt>
      <trkpt lat="47.04865" lon="9.03004">
        <ele>681</ele>
        <time>2021-08-02T08:49:28.379Z</time>
      </trkpt>
      <trkpt lat="47.04865" lon="9.03003">
        <ele>682</ele>
        <time>2021-08-02T08:49:29.379Z</time>
      </trkpt>
      <trkpt lat="47.04864" lon="9.03003">
        <ele>682</ele>
        <time>2021-08-02T08:49:30.379Z</time>
      </trkpt>
      <trkpt lat="47.04864" lon="9.03001">
        <ele>683</ele>
        <time>2021-08-02T08:49:31.379Z</time>
      </trkpt>
      <trkpt lat="47.04863" lon="9.03">
        <ele>683</ele>
        <time>2021-08-02T08:49:32.378Z</time>
      </trkpt>
      <trkpt lat="47.04863" lon="9.02999">
        <ele>683</ele>
        <time>2021-08-02T08:49:33.378Z</time>
      </trkpt>
      <trkpt lat="47.04863" lon="9.02998">
        <ele>683</ele>
        <time>2021-08-02T08:49:34.379Z</time>
      </trkpt>
      <trkpt lat="47.04863" lon="9.02997">
        <ele>684</ele>
        <time>2021-08-02T08:49:35.379Z</time>
      </trkpt>
      <trkpt lat="47.04864" lon="9.02996">
        <ele>684</ele>
        <time>2021-08-02T08:49:36.379Z</time>
      </trkpt>
      <trkpt lat="47.04864" lon="9.02995">
        <ele>684</ele>
        <time>2021-08-02T08:49:37.378Z</time>
      </trkpt>
      <trkpt lat="47.04864" lon="9.02993">
        <ele>684</ele>
        <time>2021-08-02T08:49:38.378Z</time>
      </trkpt>
      <trkpt lat="47.04863" lon="9.02993">
        <ele>684</ele>
        <time>2021-08-02T08:49:39.379Z</time>
      </trkpt>
      <trkpt lat="47.04863" lon="9.02992">
        <ele>684</ele>
        <time>2021-08-02T08:49:40.378Z</time>
      </trkpt>
      <trkpt lat="47.04862" lon="9.0299">
        <ele>684</ele>
        <time>2021-08-02T08:49:41.378Z</time>
      </trkpt>
      <trkpt lat="47.04862" lon="9.02988">
        <ele>684</ele>
        <time>2021-08-02T08:49:42.379Z</time>
      </trkpt>
      <trkpt lat="47.04861" lon="9.02987">
        <ele>684</ele>
        <time>2021-08-02T08:49:43.378Z</time>
      </trkpt>
      <trkpt lat="47.04861" lon="9.02986">
        <ele>684</ele>
        <time>2021-08-02T08:49:44.378Z</time>
      </trkpt>
      <trkpt lat="47.0486" lon="9.02984">
        <ele>683</ele>
        <time>2021-08-02T08:49:45.378Z</time>
      </trkpt>
      <trkpt lat="47.0486" lon="9.02983">
        <ele>683</ele>
        <time>2021-08-02T08:49:46.378Z</time>
      </trkpt>
      <trkpt lat="47.04859" lon="9.02981">
        <ele>683</ele>
        <time>2021-08-02T08:49:47.378Z</time>
      </trkpt>
      <trkpt lat="47.04859" lon="9.0298">
        <ele>683</ele>
        <time>2021-08-02T08:49:48.378Z</time>
      </trkpt>
      <trkpt lat="47.04858" lon="9.02977">
        <ele>683</ele>
        <time>2021-08-02T08:49:49.378Z</time>
      </trkpt>
      <trkpt lat="47.04858" lon="9.02976">
        <ele>683</ele>
        <time>2021-08-02T08:49:50.378Z</time>
      </trkpt>
      <trkpt lat="47.04858" lon="9.02975">
        <ele>683</ele>
        <time>2021-08-02T08:49:51.378Z</time>
      </trkpt>
      <trkpt lat="47.04857" lon="9.02974">
        <ele>683</ele>
        <time>2021-08-02T08:49:52.378Z</time>
      </trkpt>
      <trkpt lat="47.04857" lon="9.02974">
        <ele>683</ele>
        <time>2021-08-02T08:49:53.378Z</time>
      </trkpt>
      <trkpt lat="47.04857" lon="9.02971">
        <ele>684</ele>
        <time>2021-08-02T08:49:54.379Z</time>
      </trkpt>
      <trkpt lat="47.04857" lon="9.02969">
        <ele>685</ele>
        <time>2021-08-02T08:49:55.380Z</time>
      </trkpt>
      <trkpt lat="47.04856" lon="9.02968">
        <ele>685</ele>
        <time>2021-08-02T08:49:56.379Z</time>
      </trkpt>
      <trkpt lat="47.04856" lon="9.02966">
        <ele>685</ele>
        <time>2021-08-02T08:49:57.380Z</time>
      </trkpt>
      <trkpt lat="47.04856" lon="9.02964">
        <ele>686</ele>
        <time>2021-08-02T08:49:58.380Z</time>
      </trkpt>
      <trkpt lat="47.04856" lon="9.02962">
        <ele>686</ele>
        <time>2021-08-02T08:49:59.380Z</time>
      </trkpt>
      <trkpt lat="47.04855" lon="9.02961">
        <ele>687</ele>
        <time>2021-08-02T08:50:00.379Z</time>
      </trkpt>
      <trkpt lat="47.04854" lon="9.0296">
        <ele>687</ele>
        <time>2021-08-02T08:50:01.380Z</time>
      </trkpt>
      <trkpt lat="47.04853" lon="9.02959">
        <ele>687</ele>
        <time>2021-08-02T08:50:02.380Z</time>
      </trkpt>
      <trkpt lat="47.04853" lon="9.02957">
        <ele>687</ele>
        <time>2021-08-02T08:50:03.379Z</time>
      </trkpt>
      <trkpt lat="47.04853" lon="9.02955">
        <ele>688</ele>
        <time>2021-08-02T08:50:04.380Z</time>
      </trkpt>
      <trkpt lat="47.04853" lon="9.02954">
        <ele>688</ele>
        <time>2021-08-02T08:50:05.380Z</time>
      </trkpt>
      <trkpt lat="47.04852" lon="9.02952">
        <ele>688</ele>
        <time>2021-08-02T08:50:06.380Z</time>
      </trkpt>
      <trkpt lat="47.04851" lon="9.02951">
        <ele>688</ele>
        <time>2021-08-02T08:50:07.380Z</time>
      </trkpt>
      <trkpt lat="47.04851" lon="9.0295">
        <ele>688</ele>
        <time>2021-08-02T08:50:08.380Z</time>
      </trkpt>
      <trkpt lat="47.04851" lon="9.02949">
        <ele>687</ele>
        <time>2021-08-02T08:50:09.380Z</time>
      </trkpt>
      <trkpt lat="47.04851" lon="9.02947">
        <ele>687</ele>
        <time>2021-08-02T08:50:10.380Z</time>
      </trkpt>
      <trkpt lat="47.04851" lon="9.02945">
        <ele>687</ele>
        <time>2021-08-02T08:50:11.380Z</time>
      </trkpt>
      <trkpt lat="47.04851" lon="9.02943">
        <ele>687</ele>
        <time>2021-08-02T08:50:12.379Z</time>
      </trkpt>
      <trkpt lat="47.0485" lon="9.02941">
        <ele>687</ele>
        <time>2021-08-02T08:50:13.380Z</time>
      </trkpt>
      <trkpt lat="47.0485" lon="9.0294">
        <ele>687</ele>
        <time>2021-08-02T08:50:14.379Z</time>
      </trkpt>
      <trkpt lat="47.0485" lon="9.02939">
        <ele>687</ele>
        <time>2021-08-02T08:50:15.379Z</time>
      </trkpt>
      <trkpt lat="47.04849" lon="9.02938">
        <ele>687</ele>
        <time>2021-08-02T08:50:16.380Z</time>
      </trkpt>
      <trkpt lat="47.04849" lon="9.02937">
        <ele>687</ele>
        <time>2021-08-02T08:50:17.379Z</time>
      </trkpt>
      <trkpt lat="47.04848" lon="9.02936">
        <ele>687</ele>
        <time>2021-08-02T08:50:18.380Z</time>
      </trkpt>
      <trkpt lat="47.04847" lon="9.02934">
        <ele>687</ele>
        <time>2021-08-02T08:50:19.380Z</time>
      </trkpt>
      <trkpt lat="47.04845" lon="9.02932">
        <ele>687</ele>
        <time>2021-08-02T08:50:20.380Z</time>
      </trkpt>
      <trkpt lat="47.04844" lon="9.0293">
        <ele>687</ele>
        <time>2021-08-02T08:50:21.380Z</time>
      </trkpt>
      <trkpt lat="47.04843" lon="9.02928">
        <ele>687</ele>
        <time>2021-08-02T08:50:22.379Z</time>
      </trkpt>
      <trkpt lat="47.04842" lon="9.02926">
        <ele>688</ele>
        <time>2021-08-02T08:50:23.379Z</time>
      </trkpt>
      <trkpt lat="47.04842" lon="9.02925">
        <ele>688</ele>
        <time>2021-08-02T08:50:24.380Z</time>
      </trkpt>
      <trkpt lat="47.04841" lon="9.02923">
        <ele>688</ele>
        <time>2021-08-02T08:50:25.380Z</time>
      </trkpt>
      <trkpt lat="47.04841" lon="9.02922">
        <ele>688</ele>
        <time>2021-08-02T08:50:26.380Z</time>
      </trkpt>
      <trkpt lat="47.0484" lon="9.0292">
        <ele>688</ele>
        <time>2021-08-02T08:50:27.380Z</time>
      </trkpt>
      <trkpt lat="47.0484" lon="9.02919">
        <ele>688</ele>
        <time>2021-08-02T08:50:28.380Z</time>
      </trkpt>
      <trkpt lat="47.0484" lon="9.02917">
        <ele>688</ele>
        <time>2021-08-02T08:50:29.379Z</time>
      </trkpt>
      <trkpt lat="47.0484" lon="9.02916">
        <ele>688</ele>
        <time>2021-08-02T08:50:30.379Z</time>
      </trkpt>
      <trkpt lat="47.04839" lon="9.02915">
        <ele>688</ele>
        <time>2021-08-02T08:50:31.379Z</time>
      </trkpt>
      <trkpt lat="47.04839" lon="9.02914">
        <ele>688</ele>
        <time>2021-08-02T08:50:32.380Z</time>
      </trkpt>
      <trkpt lat="47.04838" lon="9.02912">
        <ele>688</ele>
        <time>2021-08-02T08:50:33.380Z</time>
      </trkpt>
      <trkpt lat="47.04838" lon="9.0291">
        <ele>688</ele>
        <time>2021-08-02T08:50:34.379Z</time>
      </trkpt>
      <trkpt lat="47.04838" lon="9.02908">
        <ele>688</ele>
        <time>2021-08-02T08:50:35.379Z</time>
      </trkpt>
      <trkpt lat="47.04838" lon="9.02906">
        <ele>688</ele>
        <time>2021-08-02T08:50:36.379Z</time>
      </trkpt>
      <trkpt lat="47.04837" lon="9.02904">
        <ele>688</ele>
        <time>2021-08-02T08:50:37.380Z</time>
      </trkpt>
      <trkpt lat="47.04837" lon="9.02902">
        <ele>688</ele>
        <time>2021-08-02T08:50:38.380Z</time>
      </trkpt>
      <trkpt lat="47.04836" lon="9.029">
        <ele>688</ele>
        <time>2021-08-02T08:50:39.380Z</time>
      </trkpt>
      <trkpt lat="47.04835" lon="9.02899">
        <ele>688</ele>
        <time>2021-08-02T08:50:40.380Z</time>
      </trkpt>
      <trkpt lat="47.04835" lon="9.02898">
        <ele>688</ele>
        <time>2021-08-02T08:50:41.380Z</time>
      </trkpt>
      <trkpt lat="47.04834" lon="9.02896">
        <ele>689</ele>
        <time>2021-08-02T08:50:42.380Z</time>
      </trkpt>
      <trkpt lat="47.04833" lon="9.02895">
        <ele>689</ele>
        <time>2021-08-02T08:50:43.380Z</time>
      </trkpt>
      <trkpt lat="47.04832" lon="9.02894">
        <ele>689</ele>
        <time>2021-08-02T08:50:44.379Z</time>
      </trkpt>
      <trkpt lat="47.04832" lon="9.02894">
        <ele>690</ele>
        <time>2021-08-02T08:50:45.380Z</time>
      </trkpt>
      <trkpt lat="47.04831" lon="9.02893">
        <ele>690</ele>
        <time>2021-08-02T08:50:46.379Z</time>
      </trkpt>
      <trkpt lat="47.0483" lon="9.02894">
        <ele>691</ele>
        <time>2021-08-02T08:50:47.380Z</time>
      </trkpt>
      <trkpt lat="47.0483" lon="9.02894">
        <ele>692</ele>
        <time>2021-08-02T08:50:48.379Z</time>
      </trkpt>
      <trkpt lat="47.04829" lon="9.02894">
        <ele>692</ele>
        <time>2021-08-02T08:50:49.380Z</time>
      </trkpt>
      <trkpt lat="47.04828" lon="9.02893">
        <ele>693</ele>
        <time>2021-08-02T08:50:50.379Z</time>
      </trkpt>
      <trkpt lat="47.04827" lon="9.02892">
        <ele>694</ele>
        <time>2021-08-02T08:50:51.380Z</time>
      </trkpt>
      <trkpt lat="47.04827" lon="9.0289">
        <ele>694</ele>
        <time>2021-08-02T08:50:52.379Z</time>
      </trkpt>
      <trkpt lat="47.04827" lon="9.02888">
        <ele>695</ele>
        <time>2021-08-02T08:50:53.380Z</time>
      </trkpt>
      <trkpt lat="47.04827" lon="9.02887">
        <ele>695</ele>
        <time>2021-08-02T08:50:54.379Z</time>
      </trkpt>
      <trkpt lat="47.04827" lon="9.02886">
        <ele>695</ele>
        <time>2021-08-02T08:50:55.380Z</time>
      </trkpt>
      <trkpt lat="47.04827" lon="9.02886">
        <ele>696</ele>
        <time>2021-08-02T08:50:56.380Z</time>
      </trkpt>
      <trkpt lat="47.04827" lon="9.02885">
        <ele>696</ele>
        <time>2021-08-02T08:50:57.380Z</time>
      </trkpt>
      <trkpt lat="47.04827" lon="9.02883">
        <ele>696</ele>
        <time>2021-08-02T08:50:58.380Z</time>
      </trkpt>
      <trkpt lat="47.04827" lon="9.02882">
        <ele>696</ele>
        <time>2021-08-02T08:50:59.380Z</time>
      </trkpt>
      <trkpt lat="47.04827" lon="9.02881">
        <ele>697</ele>
        <time>2021-08-02T08:51:00.379Z</time>
      </trkpt>
      <trkpt lat="47.04827" lon="9.0288">
        <ele>697</ele>
        <time>2021-08-02T08:51:01.380Z</time>
      </trkpt>
      <trkpt lat="47.04827" lon="9.02879">
        <ele>698</ele>
        <time>2021-08-02T08:51:02.380Z</time>
      </trkpt>
      <trkpt lat="47.04828" lon="9.02877">
        <ele>698</ele>
        <time>2021-08-02T08:51:03.380Z</time>
      </trkpt>
      <trkpt lat="47.04828" lon="9.02876">
        <ele>698</ele>
        <time>2021-08-02T08:51:04.380Z</time>
      </trkpt>
      <trkpt lat="47.04829" lon="9.02875">
        <ele>699</ele>
        <time>2021-08-02T08:51:05.380Z</time>
      </trkpt>
      <trkpt lat="47.0483" lon="9.02873">
        <ele>699</ele>
        <time>2021-08-02T08:51:06.380Z</time>
      </trkpt>
      <trkpt lat="47.0483" lon="9.02872">
        <ele>699</ele>
        <time>2021-08-02T08:51:07.380Z</time>
      </trkpt>
      <trkpt lat="47.04831" lon="9.0287">
        <ele>698</ele>
        <time>2021-08-02T08:51:08.379Z</time>
      </trkpt>
      <trkpt lat="47.04831" lon="9.02867">
        <ele>698</ele>
        <time>2021-08-02T08:51:09.379Z</time>
      </trkpt>
      <trkpt lat="47.04831" lon="9.02865">
        <ele>697</ele>
        <time>2021-08-02T08:51:10.380Z</time>
      </trkpt>
      <trkpt lat="47.0483" lon="9.02862">
        <ele>697</ele>
        <time>2021-08-02T08:51:11.380Z</time>
      </trkpt>
      <trkpt lat="47.04829" lon="9.02861">
        <ele>697</ele>
        <time>2021-08-02T08:51:12.379Z</time>
      </trkpt>
      <trkpt lat="47.04829" lon="9.0286">
        <ele>696</ele>
        <time>2021-08-02T08:51:13.380Z</time>
      </trkpt>
      <trkpt lat="47.04828" lon="9.0286">
        <ele>695</ele>
        <time>2021-08-02T08:51:14.379Z</time>
      </trkpt>
      <trkpt lat="47.04827" lon="9.02859">
        <ele>695</ele>
        <time>2021-08-02T08:51:15.380Z</time>
      </trkpt>
      <trkpt lat="47.04827" lon="9.02858">
        <ele>694</ele>
        <time>2021-08-02T08:51:16.380Z</time>
      </trkpt>
      <trkpt lat="47.04827" lon="9.02857">
        <ele>694</ele>
        <time>2021-08-02T08:51:17.380Z</time>
      </trkpt>
      <trkpt lat="47.04826" lon="9.02856">
        <ele>693</ele>
        <time>2021-08-02T08:51:18.379Z</time>
      </trkpt>
      <trkpt lat="47.04826" lon="9.02855">
        <ele>693</ele>
        <time>2021-08-02T08:51:19.380Z</time>
      </trkpt>
      <trkpt lat="47.04826" lon="9.02853">
        <ele>692</ele>
        <time>2021-08-02T08:51:20.379Z</time>
      </trkpt>
      <trkpt lat="47.04826" lon="9.02852">
        <ele>692</ele>
        <time>2021-08-02T08:51:21.380Z</time>
      </trkpt>
      <trkpt lat="47.04826" lon="9.02851">
        <ele>691</ele>
        <time>2021-08-02T08:51:22.380Z</time>
      </trkpt>
      <trkpt lat="47.04826" lon="9.02849">
        <ele>691</ele>
        <time>2021-08-02T08:51:23.379Z</time>
      </trkpt>
      <trkpt lat="47.04825" lon="9.02848">
        <ele>690</ele>
        <time>2021-08-02T08:51:24.380Z</time>
      </trkpt>
      <trkpt lat="47.04825" lon="9.02846">
        <ele>689</ele>
        <time>2021-08-02T08:51:25.380Z</time>
      </trkpt>
      <trkpt lat="47.04824" lon="9.02845">
        <ele>689</ele>
        <time>2021-08-02T08:51:26.380Z</time>
      </trkpt>
      <trkpt lat="47.04824" lon="9.02844">
        <ele>688</ele>
        <time>2021-08-02T08:51:27.379Z</time>
      </trkpt>
      <trkpt lat="47.04824" lon="9.02843">
        <ele>688</ele>
        <time>2021-08-02T08:51:28.380Z</time>
      </trkpt>
      <trkpt lat="47.04824" lon="9.02842">
        <ele>688</ele>
        <time>2021-08-02T08:51:29.379Z</time>
      </trkpt>
      <trkpt lat="47.04823" lon="9.0284">
        <ele>687</ele>
        <time>2021-08-02T08:51:30.380Z</time>
      </trkpt>
      <trkpt lat="47.04822" lon="9.02838">
        <ele>687</ele>
        <time>2021-08-02T08:51:31.379Z</time>
      </trkpt>
      <trkpt lat="47.04822" lon="9.02837">
        <ele>687</ele>
        <time>2021-08-02T08:51:32.380Z</time>
      </trkpt>
      <trkpt lat="47.04822" lon="9.02835">
        <ele>686</ele>
        <time>2021-08-02T08:51:33.380Z</time>
      </trkpt>
      <trkpt lat="47.04821" lon="9.02834">
        <ele>686</ele>
        <time>2021-08-02T08:51:34.379Z</time>
      </trkpt>
      <trkpt lat="47.04821" lon="9.02834">
        <ele>686</ele>
        <time>2021-08-02T08:51:35.380Z</time>
      </trkpt>
      <trkpt lat="47.0482" lon="9.02833">
        <ele>686</ele>
        <time>2021-08-02T08:51:36.380Z</time>
      </trkpt>
      <trkpt lat="47.0482" lon="9.02833">
        <ele>686</ele>
        <time>2021-08-02T08:51:37.380Z</time>
      </trkpt>
      <trkpt lat="47.0482" lon="9.02833">
        <ele>686</ele>
        <time>2021-08-02T08:51:38.380Z</time>
      </trkpt>
      <trkpt lat="47.0482" lon="9.02832">
        <ele>686</ele>
        <time>2021-08-02T08:51:39.380Z</time>
      </trkpt>
      <trkpt lat="47.04819" lon="9.02831">
        <ele>686</ele>
        <time>2021-08-02T08:51:40.379Z</time>
      </trkpt>
      <trkpt lat="47.04819" lon="9.02829">
        <ele>686</ele>
        <time>2021-08-02T08:51:41.380Z</time>
      </trkpt>
      <trkpt lat="47.04819" lon="9.02828">
        <ele>686</ele>
        <time>2021-08-02T08:51:42.379Z</time>
      </trkpt>
      <trkpt lat="47.0482" lon="9.02827">
        <ele>686</ele>
        <time>2021-08-02T08:51:43.379Z</time>
      </trkpt>
      <trkpt lat="47.04819" lon="9.02827">
        <ele>686</ele>
        <time>2021-08-02T08:51:44.380Z</time>
      </trkpt>
      <trkpt lat="47.04819" lon="9.02826">
        <ele>686</ele>
        <time>2021-08-02T08:51:45.380Z</time>
      </trkpt>
      <trkpt lat="47.04819" lon="9.02825">
        <ele>686</ele>
        <time>2021-08-02T08:51:46.380Z</time>
      </trkpt>
      <trkpt lat="47.04818" lon="9.02824">
        <ele>686</ele>
        <time>2021-08-02T08:51:47.380Z</time>
      </trkpt>
      <trkpt lat="47.04818" lon="9.02822">
        <ele>686</ele>
        <time>2021-08-02T08:51:48.380Z</time>
      </trkpt>
      <trkpt lat="47.04817" lon="9.02821">
        <ele>686</ele>
        <time>2021-08-02T08:51:49.380Z</time>
      </trkpt>
      <trkpt lat="47.04815" lon="9.0282">
        <ele>687</ele>
        <time>2021-08-02T08:51:50.380Z</time>
      </trkpt>
      <trkpt lat="47.04814" lon="9.0282">
        <ele>687</ele>
        <time>2021-08-02T08:51:51.380Z</time>
      </trkpt>
      <trkpt lat="47.04813" lon="9.02821">
        <ele>687</ele>
        <time>2021-08-02T08:51:52.379Z</time>
      </trkpt>
      <trkpt lat="47.04813" lon="9.02821">
        <ele>688</ele>
        <time>2021-08-02T08:51:53.379Z</time>
      </trkpt>
      <trkpt lat="47.04811" lon="9.0282">
        <ele>688</ele>
        <time>2021-08-02T08:51:54.380Z</time>
      </trkpt>
      <trkpt lat="47.0481" lon="9.02819">
        <ele>689</ele>
        <time>2021-08-02T08:51:55.380Z</time>
      </trkpt>
      <trkpt lat="47.04809" lon="9.02818">
        <ele>689</ele>
        <time>2021-08-02T08:51:56.380Z</time>
      </trkpt>
      <trkpt lat="47.04809" lon="9.02818">
        <ele>690</ele>
        <time>2021-08-02T08:51:57.380Z</time>
      </trkpt>
      <trkpt lat="47.04808" lon="9.02817">
        <ele>691</ele>
        <time>2021-08-02T08:51:58.380Z</time>
      </trkpt>
      <trkpt lat="47.04808" lon="9.02817">
        <ele>692</ele>
        <time>2021-08-02T08:51:59.380Z</time>
      </trkpt>
      <trkpt lat="47.04807" lon="9.02816">
        <ele>692</ele>
        <time>2021-08-02T08:52:00.380Z</time>
      </trkpt>
      <trkpt lat="47.04807" lon="9.02816">
        <ele>693</ele>
        <time>2021-08-02T08:52:01.380Z</time>
      </trkpt>
      <trkpt lat="47.04807" lon="9.02815">
        <ele>693</ele>
        <time>2021-08-02T08:52:02.379Z</time>
      </trkpt>
      <trkpt lat="47.04806" lon="9.02814">
        <ele>694</ele>
        <time>2021-08-02T08:52:03.380Z</time>
      </trkpt>
      <trkpt lat="47.04805" lon="9.02813">
        <ele>694</ele>
        <time>2021-08-02T08:52:04.380Z</time>
      </trkpt>
      <trkpt lat="47.04805" lon="9.02812">
        <ele>695</ele>
        <time>2021-08-02T08:52:05.380Z</time>
      </trkpt>
      <trkpt lat="47.04804" lon="9.02811">
        <ele>696</ele>
        <time>2021-08-02T08:52:06.380Z</time>
      </trkpt>
      <trkpt lat="47.04803" lon="9.0281">
        <ele>696</ele>
        <time>2021-08-02T08:52:07.379Z</time>
      </trkpt>
      <trkpt lat="47.04801" lon="9.02809">
        <ele>696</ele>
        <time>2021-08-02T08:52:08.379Z</time>
      </trkpt>
      <trkpt lat="47.048" lon="9.02809">
        <ele>697</ele>
        <time>2021-08-02T08:52:09.380Z</time>
      </trkpt>
      <trkpt lat="47.04799" lon="9.02809">
        <ele>697</ele>
        <time>2021-08-02T08:52:10.380Z</time>
      </trkpt>
      <trkpt lat="47.04798" lon="9.02807">
        <ele>699</ele>
        <time>2021-08-02T08:52:11.380Z</time>
      </trkpt>
      <trkpt lat="47.04798" lon="9.02807">
        <ele>700</ele>
        <time>2021-08-02T08:52:12.380Z</time>
      </trkpt>
      <trkpt lat="47.04797" lon="9.02808">
        <ele>700</ele>
        <time>2021-08-02T08:52:13.379Z</time>
      </trkpt>
      <trkpt lat="47.04796" lon="9.02808">
        <ele>701</ele>
        <time>2021-08-02T08:52:14.380Z</time>
      </trkpt>
      <trkpt lat="47.04796" lon="9.02809">
        <ele>702</ele>
        <time>2021-08-02T08:52:15.380Z</time>
      </trkpt>
      <trkpt lat="47.04796" lon="9.02809">
        <ele>703</ele>
        <time>2021-08-02T08:52:16.380Z</time>
      </trkpt>
      <trkpt lat="47.04795" lon="9.0281">
        <ele>703</ele>
        <time>2021-08-02T08:52:17.380Z</time>
      </trkpt>
      <trkpt lat="47.04795" lon="9.0281">
        <ele>703</ele>
        <time>2021-08-02T08:52:18.380Z</time>
      </trkpt>
      <trkpt lat="47.04794" lon="9.02809">
        <ele>703</ele>
        <time>2021-08-02T08:52:19.379Z</time>
      </trkpt>
      <trkpt lat="47.04793" lon="9.02808">
        <ele>702</ele>
        <time>2021-08-02T08:52:20.379Z</time>
      </trkpt>
      <trkpt lat="47.04793" lon="9.02808">
        <ele>702</ele>
        <time>2021-08-02T08:52:21.379Z</time>
      </trkpt>
      <trkpt lat="47.04793" lon="9.02807">
        <ele>702</ele>
        <time>2021-08-02T08:52:22.380Z</time>
      </trkpt>
      <trkpt lat="47.04793" lon="9.02806">
        <ele>701</ele>
        <time>2021-08-02T08:52:23.380Z</time>
      </trkpt>
      <trkpt lat="47.04792" lon="9.02805">
        <ele>701</ele>
        <time>2021-08-02T08:52:24.379Z</time>
      </trkpt>
      <trkpt lat="47.04791" lon="9.02804">
        <ele>701</ele>
        <time>2021-08-02T08:52:25.379Z</time>
      </trkpt>
      <trkpt lat="47.04791" lon="9.02804">
        <ele>701</ele>
        <time>2021-08-02T08:52:26.379Z</time>
      </trkpt>
      <trkpt lat="47.04791" lon="9.02804">
        <ele>701</ele>
        <time>2021-08-02T08:52:27.380Z</time>
      </trkpt>
      <trkpt lat="47.04791" lon="9.02803">
        <ele>701</ele>
        <time>2021-08-02T08:52:28.379Z</time>
      </trkpt>
      <trkpt lat="47.0479" lon="9.02802">
        <ele>701</ele>
        <time>2021-08-02T08:52:29.380Z</time>
      </trkpt>
      <trkpt lat="47.04789" lon="9.028">
        <ele>701</ele>
        <time>2021-08-02T08:52:30.380Z</time>
      </trkpt>
      <trkpt lat="47.04788" lon="9.02799">
        <ele>701</ele>
        <time>2021-08-02T08:52:31.380Z</time>
      </trkpt>
      <trkpt lat="47.04788" lon="9.02798">
        <ele>701</ele>
        <time>2021-08-02T08:52:32.380Z</time>
      </trkpt>
      <trkpt lat="47.04788" lon="9.02797">
        <ele>702</ele>
        <time>2021-08-02T08:52:33.380Z</time>
      </trkpt>
      <trkpt lat="47.04788" lon="9.02796">
        <ele>702</ele>
        <time>2021-08-02T08:52:34.380Z</time>
      </trkpt>
      <trkpt lat="47.04788" lon="9.02795">
        <ele>702</ele>
        <time>2021-08-02T08:52:35.380Z</time>
      </trkpt>
      <trkpt lat="47.04787" lon="9.02795">
        <ele>702</ele>
        <time>2021-08-02T08:52:36.380Z</time>
      </trkpt>
      <trkpt lat="47.04787" lon="9.02794">
        <ele>702</ele>
        <time>2021-08-02T08:52:37.380Z</time>
      </trkpt>
      <trkpt lat="47.04787" lon="9.02794">
        <ele>703</ele>
        <time>2021-08-02T08:52:38.380Z</time>
      </trkpt>
      <trkpt lat="47.04785" lon="9.02793">
        <ele>703</ele>
        <time>2021-08-02T08:52:39.380Z</time>
      </trkpt>
      <trkpt lat="47.04783" lon="9.02792">
        <ele>704</ele>
        <time>2021-08-02T08:52:40.380Z</time>
      </trkpt>
      <trkpt lat="47.04783" lon="9.02791">
        <ele>704</ele>
        <time>2021-08-02T08:52:41.379Z</time>
      </trkpt>
      <trkpt lat="47.04783" lon="9.02791">
        <ele>704</ele>
        <time>2021-08-02T08:52:42.379Z</time>
      </trkpt>
      <trkpt lat="47.04783" lon="9.02789">
        <ele>704</ele>
        <time>2021-08-02T08:52:43.380Z</time>
      </trkpt>
      <trkpt lat="47.04782" lon="9.02789">
        <ele>703</ele>
        <time>2021-08-02T08:52:44.380Z</time>
      </trkpt>
      <trkpt lat="47.04782" lon="9.02788">
        <ele>703</ele>
        <time>2021-08-02T08:52:45.379Z</time>
      </trkpt>
      <trkpt lat="47.04782" lon="9.02787">
        <ele>703</ele>
        <time>2021-08-02T08:52:46.380Z</time>
      </trkpt>
      <trkpt lat="47.04781" lon="9.02786">
        <ele>702</ele>
        <time>2021-08-02T08:52:47.380Z</time>
      </trkpt>
      <trkpt lat="47.04781" lon="9.02785">
        <ele>702</ele>
        <time>2021-08-02T08:52:48.380Z</time>
      </trkpt>
      <trkpt lat="47.0478" lon="9.02784">
        <ele>701</ele>
        <time>2021-08-02T08:52:49.380Z</time>
      </trkpt>
      <trkpt lat="47.0478" lon="9.02783">
        <ele>700</ele>
        <time>2021-08-02T08:52:50.380Z</time>
      </trkpt>
      <trkpt lat="47.0478" lon="9.02781">
        <ele>700</ele>
        <time>2021-08-02T08:52:51.380Z</time>
      </trkpt>
      <trkpt lat="47.0478" lon="9.0278">
        <ele>699</ele>
        <time>2021-08-02T08:52:52.380Z</time>
      </trkpt>
      <trkpt lat="47.04779" lon="9.02779">
        <ele>699</ele>
        <time>2021-08-02T08:52:53.380Z</time>
      </trkpt>
      <trkpt lat="47.04779" lon="9.02778">
        <ele>699</ele>
        <time>2021-08-02T08:52:54.380Z</time>
      </trkpt>
      <trkpt lat="47.04779" lon="9.02777">
        <ele>699</ele>
        <time>2021-08-02T08:52:55.380Z</time>
      </trkpt>
      <trkpt lat="47.04779" lon="9.02776">
        <ele>699</ele>
        <time>2021-08-02T08:52:56.380Z</time>
      </trkpt>
      <trkpt lat="47.04779" lon="9.02775">
        <ele>699</ele>
        <time>2021-08-02T08:52:57.380Z</time>
      </trkpt>
      <trkpt lat="47.04779" lon="9.02773">
        <ele>699</ele>
        <time>2021-08-02T08:52:58.379Z</time>
      </trkpt>
      <trkpt lat="47.04778" lon="9.02772">
        <ele>699</ele>
        <time>2021-08-02T08:52:59.379Z</time>
      </trkpt>
      <trkpt lat="47.04778" lon="9.02771">
        <ele>700</ele>
        <time>2021-08-02T08:53:00.380Z</time>
      </trkpt>
      <trkpt lat="47.04776" lon="9.02769">
        <ele>700</ele>
        <time>2021-08-02T08:53:01.380Z</time>
      </trkpt>
      <trkpt lat="47.04775" lon="9.02768">
        <ele>700</ele>
        <time>2021-08-02T08:53:02.380Z</time>
      </trkpt>
      <trkpt lat="47.04774" lon="9.02768">
        <ele>700</ele>
        <time>2021-08-02T08:53:03.380Z</time>
      </trkpt>
      <trkpt lat="47.04774" lon="9.02767">
        <ele>701</ele>
        <time>2021-08-02T08:53:04.380Z</time>
      </trkpt>
      <trkpt lat="47.04774" lon="9.02766">
        <ele>701</ele>
        <time>2021-08-02T08:53:05.380Z</time>
      </trkpt>
      <trkpt lat="47.04773" lon="9.02765">
        <ele>701</ele>
        <time>2021-08-02T08:53:06.380Z</time>
      </trkpt>
      <trkpt lat="47.04772" lon="9.02764">
        <ele>701</ele>
        <time>2021-08-02T08:53:07.380Z</time>
      </trkpt>
      <trkpt lat="47.04772" lon="9.02764">
        <ele>701</ele>
        <time>2021-08-02T08:53:08.379Z</time>
      </trkpt>
      <trkpt lat="47.04771" lon="9.02763">
        <ele>700</ele>
        <time>2021-08-02T08:53:09.380Z</time>
      </trkpt>
      <trkpt lat="47.0477" lon="9.02762">
        <ele>700</ele>
        <time>2021-08-02T08:53:10.380Z</time>
      </trkpt>
      <trkpt lat="47.0477" lon="9.02761">
        <ele>700</ele>
        <time>2021-08-02T08:53:11.379Z</time>
      </trkpt>
      <trkpt lat="47.04769" lon="9.0276">
        <ele>700</ele>
        <time>2021-08-02T08:53:12.380Z</time>
      </trkpt>
      <trkpt lat="47.04769" lon="9.0276">
        <ele>699</ele>
        <time>2021-08-02T08:53:13.380Z</time>
      </trkpt>
      <trkpt lat="47.04769" lon="9.02759">
        <ele>699</ele>
        <time>2021-08-02T08:53:14.380Z</time>
      </trkpt>
      <trkpt lat="47.04769" lon="9.02759">
        <ele>698</ele>
        <time>2021-08-02T08:53:15.380Z</time>
      </trkpt>
      <trkpt lat="47.0477" lon="9.02759">
        <ele>697</ele>
        <time>2021-08-02T08:53:16.380Z</time>
      </trkpt>
      <trkpt lat="47.0477" lon="9.02758">
        <ele>697</ele>
        <time>2021-08-02T08:53:17.380Z</time>
      </trkpt>
      <trkpt lat="47.0477" lon="9.02757">
        <ele>696</ele>
        <time>2021-08-02T08:53:18.380Z</time>
      </trkpt>
      <trkpt lat="47.0477" lon="9.02756">
        <ele>696</ele>
        <time>2021-08-02T08:53:19.380Z</time>
      </trkpt>
      <trkpt lat="47.04769" lon="9.02755">
        <ele>696</ele>
        <time>2021-08-02T08:53:20.380Z</time>
      </trkpt>
      <trkpt lat="47.0477" lon="9.02754">
        <ele>695</ele>
        <time>2021-08-02T08:53:21.380Z</time>
      </trkpt>
      <trkpt lat="47.0477" lon="9.02753">
        <ele>695</ele>
        <time>2021-08-02T08:53:22.380Z</time>
      </trkpt>
      <trkpt lat="47.0477" lon="9.02752">
        <ele>694</ele>
        <time>2021-08-02T08:53:23.380Z</time>
      </trkpt>
      <trkpt lat="47.04769" lon="9.02752">
        <ele>694</ele>
        <time>2021-08-02T08:53:24.380Z</time>
      </trkpt>
      <trkpt lat="47.04768" lon="9.02751">
        <ele>693</ele>
        <time>2021-08-02T08:53:25.380Z</time>
      </trkpt>
      <trkpt lat="47.04767" lon="9.02752">
        <ele>693</ele>
        <time>2021-08-02T08:53:26.379Z</time>
      </trkpt>
      <trkpt lat="47.04767" lon="9.0275">
        <ele>693</ele>
        <time>2021-08-02T08:53:27.380Z</time>
      </trkpt>
      <trkpt lat="47.04767" lon="9.02749">
        <ele>692</ele>
        <time>2021-08-02T08:53:28.380Z</time>
      </trkpt>
      <trkpt lat="47.04767" lon="9.02747">
        <ele>692</ele>
        <time>2021-08-02T08:53:29.379Z</time>
      </trkpt>
      <trkpt lat="47.04767" lon="9.02746">
        <ele>691</ele>
        <time>2021-08-02T08:53:30.379Z</time>
      </trkpt>
      <trkpt lat="47.04767" lon="9.02745">
        <ele>691</ele>
        <time>2021-08-02T08:53:31.380Z</time>
      </trkpt>
      <trkpt lat="47.04768" lon="9.02744">
        <ele>690</ele>
        <time>2021-08-02T08:53:32.379Z</time>
      </trkpt>
      <trkpt lat="47.04768" lon="9.02743">
        <ele>690</ele>
        <time>2021-08-02T08:53:33.380Z</time>
      </trkpt>
      <trkpt lat="47.04768" lon="9.02741">
        <ele>690</ele>
        <time>2021-08-02T08:53:34.379Z</time>
      </trkpt>
      <trkpt lat="47.04767" lon="9.02741">
        <ele>690</ele>
        <time>2021-08-02T08:53:35.379Z</time>
      </trkpt>
      <trkpt lat="47.04766" lon="9.02739">
        <ele>690</ele>
        <time>2021-08-02T08:53:36.380Z</time>
      </trkpt>
      <trkpt lat="47.04765" lon="9.02738">
        <ele>689</ele>
        <time>2021-08-02T08:53:37.380Z</time>
      </trkpt>
      <trkpt lat="47.04765" lon="9.02736">
        <ele>689</ele>
        <time>2021-08-02T08:53:38.380Z</time>
      </trkpt>
      <trkpt lat="47.04764" lon="9.02735">
        <ele>689</ele>
        <time>2021-08-02T08:53:39.380Z</time>
      </trkpt>
      <trkpt lat="47.04764" lon="9.02733">
        <ele>689</ele>
        <time>2021-08-02T08:53:40.379Z</time>
      </trkpt>
      <trkpt lat="47.04764" lon="9.02733">
        <ele>689</ele>
        <time>2021-08-02T08:53:41.379Z</time>
      </trkpt>
      <trkpt lat="47.04765" lon="9.02732">
        <ele>689</ele>
        <time>2021-08-02T08:53:42.380Z</time>
      </trkpt>
      <trkpt lat="47.04764" lon="9.02731">
        <ele>689</ele>
        <time>2021-08-02T08:53:43.380Z</time>
      </trkpt>
      <trkpt lat="47.04764" lon="9.0273">
        <ele>689</ele>
        <time>2021-08-02T08:53:44.380Z</time>
      </trkpt>
      <trkpt lat="47.04764" lon="9.0273">
        <ele>689</ele>
        <time>2021-08-02T08:53:45.379Z</time>
      </trkpt>
      <trkpt lat="47.04763" lon="9.02729">
        <ele>689</ele>
        <time>2021-08-02T08:53:46.380Z</time>
      </trkpt>
      <trkpt lat="47.04763" lon="9.02728">
        <ele>689</ele>
        <time>2021-08-02T08:53:47.380Z</time>
      </trkpt>
      <trkpt lat="47.04762" lon="9.02726">
        <ele>690</ele>
        <time>2021-08-02T08:53:48.380Z</time>
      </trkpt>
      <trkpt lat="47.04762" lon="9.02725">
        <ele>690</ele>
        <time>2021-08-02T08:53:49.380Z</time>
      </trkpt>
      <trkpt lat="47.04762" lon="9.02723">
        <ele>690</ele>
        <time>2021-08-02T08:53:50.380Z</time>
      </trkpt>
      <trkpt lat="47.04761" lon="9.02722">
        <ele>690</ele>
        <time>2021-08-02T08:53:51.380Z</time>
      </trkpt>
      <trkpt lat="47.0476" lon="9.02721">
        <ele>690</ele>
        <time>2021-08-02T08:53:52.380Z</time>
      </trkpt>
      <trkpt lat="47.0476" lon="9.02719">
        <ele>690</ele>
        <time>2021-08-02T08:53:53.380Z</time>
      </trkpt>
      <trkpt lat="47.04759" lon="9.02718">
        <ele>690</ele>
        <time>2021-08-02T08:53:54.380Z</time>
      </trkpt>
      <trkpt lat="47.04758" lon="9.02716">
        <ele>690</ele>
        <time>2021-08-02T08:53:55.380Z</time>
      </trkpt>
      <trkpt lat="47.04757" lon="9.02714">
        <ele>690</ele>
        <time>2021-08-02T08:53:56.380Z</time>
      </trkpt>
      <trkpt lat="47.04756" lon="9.02712">
        <ele>690</ele>
        <time>2021-08-02T08:53:57.380Z</time>
      </trkpt>
      <trkpt lat="47.04755" lon="9.02709">
        <ele>691</ele>
        <time>2021-08-02T08:53:58.379Z</time>
      </trkpt>
      <trkpt lat="47.04754" lon="9.02707">
        <ele>691</ele>
        <time>2021-08-02T08:53:59.379Z</time>
      </trkpt>
      <trkpt lat="47.04754" lon="9.02706">
        <ele>691</ele>
        <time>2021-08-02T08:54:00.380Z</time>
      </trkpt>
      <trkpt lat="47.04753" lon="9.02705">
        <ele>691</ele>
        <time>2021-08-02T08:54:01.380Z</time>
      </trkpt>
      <trkpt lat="47.04752" lon="9.02704">
        <ele>691</ele>
        <time>2021-08-02T08:54:02.380Z</time>
      </trkpt>
      <trkpt lat="47.04751" lon="9.02702">
        <ele>691</ele>
        <time>2021-08-02T08:54:03.380Z</time>
      </trkpt>
      <trkpt lat="47.0475" lon="9.02702">
        <ele>691</ele>
        <time>2021-08-02T08:54:04.380Z</time>
      </trkpt>
      <trkpt lat="47.04749" lon="9.02702">
        <ele>691</ele>
        <time>2021-08-02T08:54:05.380Z</time>
      </trkpt>
      <trkpt lat="47.04749" lon="9.02701">
        <ele>691</ele>
        <time>2021-08-02T08:54:06.380Z</time>
      </trkpt>
      <trkpt lat="47.04748" lon="9.02699">
        <ele>691</ele>
        <time>2021-08-02T08:54:07.380Z</time>
      </trkpt>
      <trkpt lat="47.04747" lon="9.02698">
        <ele>691</ele>
        <time>2021-08-02T08:54:08.380Z</time>
      </trkpt>
      <trkpt lat="47.04747" lon="9.02697">
        <ele>692</ele>
        <time>2021-08-02T08:54:09.380Z</time>
      </trkpt>
      <trkpt lat="47.04747" lon="9.02694">
        <ele>692</ele>
        <time>2021-08-02T08:54:10.380Z</time>
      </trkpt>
      <trkpt lat="47.04747" lon="9.02691">
        <ele>692</ele>
        <time>2021-08-02T08:54:11.380Z</time>
      </trkpt>
      <trkpt lat="47.04747" lon="9.02689">
        <ele>693</ele>
        <time>2021-08-02T08:54:12.379Z</time>
      </trkpt>
      <trkpt lat="47.04747" lon="9.02686">
        <ele>693</ele>
        <time>2021-08-02T08:54:13.379Z</time>
      </trkpt>
      <trkpt lat="47.04746" lon="9.02684">
        <ele>693</ele>
        <time>2021-08-02T08:54:14.380Z</time>
      </trkpt>
      <trkpt lat="47.04746" lon="9.02682">
        <ele>694</ele>
        <time>2021-08-02T08:54:15.380Z</time>
      </trkpt>
      <trkpt lat="47.04745" lon="9.0268">
        <ele>694</ele>
        <time>2021-08-02T08:54:16.379Z</time>
      </trkpt>
      <trkpt lat="47.04744" lon="9.02679">
        <ele>695</ele>
        <time>2021-08-02T08:54:17.380Z</time>
      </trkpt>
      <trkpt lat="47.04745" lon="9.02678">
        <ele>695</ele>
        <time>2021-08-02T08:54:18.380Z</time>
      </trkpt>
      <trkpt lat="47.04745" lon="9.02677">
        <ele>695</ele>
        <time>2021-08-02T08:54:19.380Z</time>
      </trkpt>
      <trkpt lat="47.04745" lon="9.02676">
        <ele>696</ele>
        <time>2021-08-02T08:54:20.380Z</time>
      </trkpt>
      <trkpt lat="47.04745" lon="9.02674">
        <ele>697</ele>
        <time>2021-08-02T08:54:21.379Z</time>
      </trkpt>
      <trkpt lat="47.04744" lon="9.02673">
        <ele>697</ele>
        <time>2021-08-02T08:54:22.379Z</time>
      </trkpt>
      <trkpt lat="47.04744" lon="9.02673">
        <ele>698</ele>
        <time>2021-08-02T08:54:23.380Z</time>
      </trkpt>
      <trkpt lat="47.04743" lon="9.02672">
        <ele>698</ele>
        <time>2021-08-02T08:54:24.379Z</time>
      </trkpt>
      <trkpt lat="47.04742" lon="9.02671">
        <ele>699</ele>
        <time>2021-08-02T08:54:25.380Z</time>
      </trkpt>
      <trkpt lat="47.0474" lon="9.0267">
        <ele>699</ele>
        <time>2021-08-02T08:54:26.380Z</time>
      </trkpt>
      <trkpt lat="47.0474" lon="9.0267">
        <ele>700</ele>
        <time>2021-08-02T08:54:27.380Z</time>
      </trkpt>
      <trkpt lat="47.04739" lon="9.0267">
        <ele>701</ele>
        <time>2021-08-02T08:54:28.380Z</time>
      </trkpt>
      <trkpt lat="47.04739" lon="9.02669">
        <ele>702</ele>
        <time>2021-08-02T08:54:29.379Z</time>
      </trkpt>
      <trkpt lat="47.04739" lon="9.02668">
        <ele>703</ele>
        <time>2021-08-02T08:54:30.379Z</time>
      </trkpt>
      <trkpt lat="47.04738" lon="9.02666">
        <ele>704</ele>
        <time>2021-08-02T08:54:31.380Z</time>
      </trkpt>
      <trkpt lat="47.04736" lon="9.02666">
        <ele>705</ele>
        <time>2021-08-02T08:54:32.380Z</time>
      </trkpt>
      <trkpt lat="47.04735" lon="9.02665">
        <ele>706</ele>
        <time>2021-08-02T08:54:33.380Z</time>
      </trkpt>
      <trkpt lat="47.04735" lon="9.02664">
        <ele>706</ele>
        <time>2021-08-02T08:54:34.379Z</time>
      </trkpt>
      <trkpt lat="47.04734" lon="9.02663">
        <ele>707</ele>
        <time>2021-08-02T08:54:35.380Z</time>
      </trkpt>
      <trkpt lat="47.04733" lon="9.02661">
        <ele>708</ele>
        <time>2021-08-02T08:54:36.380Z</time>
      </trkpt>
      <trkpt lat="47.04732" lon="9.02659">
        <ele>709</ele>
        <time>2021-08-02T08:54:37.379Z</time>
      </trkpt>
      <trkpt lat="47.04731" lon="9.02657">
        <ele>709</ele>
        <time>2021-08-02T08:54:38.380Z</time>
      </trkpt>
      <trkpt lat="47.0473" lon="9.02655">
        <ele>710</ele>
        <time>2021-08-02T08:54:39.380Z</time>
      </trkpt>
      <trkpt lat="47.04729" lon="9.02654">
        <ele>710</ele>
        <time>2021-08-02T08:54:40.380Z</time>
      </trkpt>
      <trkpt lat="47.04728" lon="9.02655">
        <ele>711</ele>
        <time>2021-08-02T08:54:41.380Z</time>
      </trkpt>
      <trkpt lat="47.04727" lon="9.02656">
        <ele>712</ele>
        <time>2021-08-02T08:54:42.380Z</time>
      </trkpt>
      <trkpt lat="47.04727" lon="9.02654">
        <ele>713</ele>
        <time>2021-08-02T08:54:43.379Z</time>
      </trkpt>
      <trkpt lat="47.04725" lon="9.02653">
        <ele>713</ele>
        <time>2021-08-02T08:54:44.380Z</time>
      </trkpt>
      <trkpt lat="47.04724" lon="9.02651">
        <ele>714</ele>
        <time>2021-08-02T08:54:45.380Z</time>
      </trkpt>
      <trkpt lat="47.04723" lon="9.0265">
        <ele>714</ele>
        <time>2021-08-02T08:54:46.380Z</time>
      </trkpt>
      <trkpt lat="47.04723" lon="9.02648">
        <ele>715</ele>
        <time>2021-08-02T08:54:47.380Z</time>
      </trkpt>
      <trkpt lat="47.04722" lon="9.02647">
        <ele>716</ele>
        <time>2021-08-02T08:54:48.380Z</time>
      </trkpt>
      <trkpt lat="47.04722" lon="9.02645">
        <ele>716</ele>
        <time>2021-08-02T08:54:49.379Z</time>
      </trkpt>
      <trkpt lat="47.04722" lon="9.02644">
        <ele>717</ele>
        <time>2021-08-02T08:54:50.379Z</time>
      </trkpt>
      <trkpt lat="47.04721" lon="9.02643">
        <ele>717</ele>
        <time>2021-08-02T08:54:51.380Z</time>
      </trkpt>
      <trkpt lat="47.0472" lon="9.02643">
        <ele>717</ele>
        <time>2021-08-02T08:54:52.379Z</time>
      </trkpt>
      <trkpt lat="47.04719" lon="9.02642">
        <ele>718</ele>
        <time>2021-08-02T08:54:53.379Z</time>
      </trkpt>
      <trkpt lat="47.04718" lon="9.02641">
        <ele>718</ele>
        <time>2021-08-02T08:54:54.380Z</time>
      </trkpt>
      <trkpt lat="47.04717" lon="9.0264">
        <ele>718</ele>
        <time>2021-08-02T08:54:55.379Z</time>
      </trkpt>
      <trkpt lat="47.04716" lon="9.02639">
        <ele>719</ele>
        <time>2021-08-02T08:54:56.379Z</time>
      </trkpt>
      <trkpt lat="47.04716" lon="9.02639">
        <ele>719</ele>
        <time>2021-08-02T08:54:57.380Z</time>
      </trkpt>
      <trkpt lat="47.04716" lon="9.02638">
        <ele>719</ele>
        <time>2021-08-02T08:54:58.379Z</time>
      </trkpt>
      <trkpt lat="47.04716" lon="9.02637">
        <ele>720</ele>
        <time>2021-08-02T08:54:59.380Z</time>
      </trkpt>
      <trkpt lat="47.04716" lon="9.02636">
        <ele>720</ele>
        <time>2021-08-02T08:55:00.380Z</time>
      </trkpt>
      <trkpt lat="47.04715" lon="9.02635">
        <ele>720</ele>
        <time>2021-08-02T08:55:01.380Z</time>
      </trkpt>
      <trkpt lat="47.04714" lon="9.02634">
        <ele>720</ele>
        <time>2021-08-02T08:55:02.379Z</time>
      </trkpt>
      <trkpt lat="47.04714" lon="9.02633">
        <ele>720</ele>
        <time>2021-08-02T08:55:03.380Z</time>
      </trkpt>
      <trkpt lat="47.04713" lon="9.02631">
        <ele>720</ele>
        <time>2021-08-02T08:55:04.379Z</time>
      </trkpt>
      <trkpt lat="47.04713" lon="9.0263">
        <ele>720</ele>
        <time>2021-08-02T08:55:05.380Z</time>
      </trkpt>
      <trkpt lat="47.04713" lon="9.02631">
        <ele>720</ele>
        <time>2021-08-02T08:55:06.379Z</time>
      </trkpt>
      <trkpt lat="47.04712" lon="9.02631">
        <ele>721</ele>
        <time>2021-08-02T08:55:07.380Z</time>
      </trkpt>
      <trkpt lat="47.04712" lon="9.02629">
        <ele>720</ele>
        <time>2021-08-02T08:55:08.379Z</time>
      </trkpt>
      <trkpt lat="47.04711" lon="9.02628">
        <ele>720</ele>
        <time>2021-08-02T08:55:09.380Z</time>
      </trkpt>
      <trkpt lat="47.04711" lon="9.02628">
        <ele>720</ele>
        <time>2021-08-02T08:55:10.380Z</time>
      </trkpt>
      <trkpt lat="47.0471" lon="9.02626">
        <ele>720</ele>
        <time>2021-08-02T08:55:11.379Z</time>
      </trkpt>
      <trkpt lat="47.0471" lon="9.02625">
        <ele>719</ele>
        <time>2021-08-02T08:55:12.380Z</time>
      </trkpt>
      <trkpt lat="47.0471" lon="9.02624">
        <ele>718</ele>
        <time>2021-08-02T08:55:13.380Z</time>
      </trkpt>
      <trkpt lat="47.04711" lon="9.02622">
        <ele>718</ele>
        <time>2021-08-02T08:55:14.380Z</time>
      </trkpt>
      <trkpt lat="47.04711" lon="9.02621">
        <ele>717</ele>
        <time>2021-08-02T08:55:15.380Z</time>
      </trkpt>
      <trkpt lat="47.04711" lon="9.02619">
        <ele>716</ele>
        <time>2021-08-02T08:55:16.380Z</time>
      </trkpt>
      <trkpt lat="47.04711" lon="9.02617">
        <ele>715</ele>
        <time>2021-08-02T08:55:17.379Z</time>
      </trkpt>
      <trkpt lat="47.0471" lon="9.02616">
        <ele>714</ele>
        <time>2021-08-02T08:55:18.379Z</time>
      </trkpt>
      <trkpt lat="47.0471" lon="9.02614">
        <ele>713</ele>
        <time>2021-08-02T08:55:19.380Z</time>
      </trkpt>
      <trkpt lat="47.0471" lon="9.02612">
        <ele>713</ele>
        <time>2021-08-02T08:55:20.380Z</time>
      </trkpt>
      <trkpt lat="47.04709" lon="9.02611">
        <ele>712</ele>
        <time>2021-08-02T08:55:21.380Z</time>
      </trkpt>
      <trkpt lat="47.04709" lon="9.0261">
        <ele>711</ele>
        <time>2021-08-02T08:55:22.380Z</time>
      </trkpt>
      <trkpt lat="47.04708" lon="9.02609">
        <ele>710</ele>
        <time>2021-08-02T08:55:23.380Z</time>
      </trkpt>
      <trkpt lat="47.04707" lon="9.02607">
        <ele>708</ele>
        <time>2021-08-02T08:55:24.380Z</time>
      </trkpt>
      <trkpt lat="47.04707" lon="9.02606">
        <ele>706</ele>
        <time>2021-08-02T08:55:25.379Z</time>
      </trkpt>
      <trkpt lat="47.04707" lon="9.02605">
        <ele>705</ele>
        <time>2021-08-02T08:55:26.380Z</time>
      </trkpt>
      <trkpt lat="47.04706" lon="9.02603">
        <ele>703</ele>
        <time>2021-08-02T08:55:27.380Z</time>
      </trkpt>
      <trkpt lat="47.04706" lon="9.02602">
        <ele>701</ele>
        <time>2021-08-02T08:55:28.380Z</time>
      </trkpt>
      <trkpt lat="47.04705" lon="9.026">
        <ele>700</ele>
        <time>2021-08-02T08:55:29.380Z</time>
      </trkpt>
      <trkpt lat="47.04704" lon="9.02599">
        <ele>699</ele>
        <time>2021-08-02T08:55:30.379Z</time>
      </trkpt>
      <trkpt lat="47.04703" lon="9.02599">
        <ele>698</ele>
        <time>2021-08-02T08:55:31.380Z</time>
      </trkpt>
      <trkpt lat="47.04702" lon="9.02598">
        <ele>697</ele>
        <time>2021-08-02T08:55:32.380Z</time>
      </trkpt>
      <trkpt lat="47.04702" lon="9.02596">
        <ele>696</ele>
        <time>2021-08-02T08:55:33.379Z</time>
      </trkpt>
      <trkpt lat="47.04701" lon="9.02595">
        <ele>696</ele>
        <time>2021-08-02T08:55:34.380Z</time>
      </trkpt>
      <trkpt lat="47.047" lon="9.02593">
        <ele>695</ele>
        <time>2021-08-02T08:55:35.379Z</time>
      </trkpt>
      <trkpt lat="47.04698" lon="9.02591">
        <ele>695</ele>
        <time>2021-08-02T08:55:36.380Z</time>
      </trkpt>
      <trkpt lat="47.04697" lon="9.0259">
        <ele>694</ele>
        <time>2021-08-02T08:55:37.379Z</time>
      </trkpt>
      <trkpt lat="47.04696" lon="9.02588">
        <ele>694</ele>
        <time>2021-08-02T08:55:38.379Z</time>
      </trkpt>
      <trkpt lat="47.04695" lon="9.02587">
        <ele>694</ele>
        <time>2021-08-02T08:55:39.380Z</time>
      </trkpt>
      <trkpt lat="47.04695" lon="9.02586">
        <ele>694</ele>
        <time>2021-08-02T08:55:40.380Z</time>
      </trkpt>
      <trkpt lat="47.04695" lon="9.02584">
        <ele>694</ele>
        <time>2021-08-02T08:55:41.380Z</time>
      </trkpt>
      <trkpt lat="47.04695" lon="9.02583">
        <ele>693</ele>
        <time>2021-08-02T08:55:42.380Z</time>
      </trkpt>
      <trkpt lat="47.04694" lon="9.02581">
        <ele>693</ele>
        <time>2021-08-02T08:55:43.379Z</time>
      </trkpt>
      <trkpt lat="47.04694" lon="9.0258">
        <ele>692</ele>
        <time>2021-08-02T08:55:44.379Z</time>
      </trkpt>
      <trkpt lat="47.04694" lon="9.02578">
        <ele>691</ele>
        <time>2021-08-02T08:55:45.379Z</time>
      </trkpt>
      <trkpt lat="47.04693" lon="9.02577">
        <ele>690</ele>
        <time>2021-08-02T08:55:46.380Z</time>
      </trkpt>
      <trkpt lat="47.04693" lon="9.02576">
        <ele>689</ele>
        <time>2021-08-02T08:55:47.379Z</time>
      </trkpt>
      <trkpt lat="47.04693" lon="9.02575">
        <ele>688</ele>
        <time>2021-08-02T08:55:48.380Z</time>
      </trkpt>
      <trkpt lat="47.04692" lon="9.02573">
        <ele>687</ele>
        <time>2021-08-02T08:55:49.380Z</time>
      </trkpt>
      <trkpt lat="47.04692" lon="9.02572">
        <ele>686</ele>
        <time>2021-08-02T08:55:50.379Z</time>
      </trkpt>
      <trkpt lat="47.04691" lon="9.0257">
        <ele>686</ele>
        <time>2021-08-02T08:55:51.380Z</time>
      </trkpt>
      <trkpt lat="47.0469" lon="9.02568">
        <ele>686</ele>
        <time>2021-08-02T08:55:52.380Z</time>
      </trkpt>
      <trkpt lat="47.04689" lon="9.02565">
        <ele>686</ele>
        <time>2021-08-02T08:55:53.379Z</time>
      </trkpt>
      <trkpt lat="47.04689" lon="9.02563">
        <ele>686</ele>
        <time>2021-08-02T08:55:54.380Z</time>
      </trkpt>
      <trkpt lat="47.04689" lon="9.02562">
        <ele>686</ele>
        <time>2021-08-02T08:55:55.380Z</time>
      </trkpt>
      <trkpt lat="47.04689" lon="9.0256">
        <ele>686</ele>
        <time>2021-08-02T08:55:56.380Z</time>
      </trkpt>
      <trkpt lat="47.04689" lon="9.02558">
        <ele>687</ele>
        <time>2021-08-02T08:55:57.380Z</time>
      </trkpt>
      <trkpt lat="47.04688" lon="9.02556">
        <ele>687</ele>
        <time>2021-08-02T08:55:58.379Z</time>
      </trkpt>
      <trkpt lat="47.04688" lon="9.02555">
        <ele>687</ele>
        <time>2021-08-02T08:55:59.380Z</time>
      </trkpt>
      <trkpt lat="47.04688" lon="9.02553">
        <ele>687</ele>
        <time>2021-08-02T08:56:00.380Z</time>
      </trkpt>
      <trkpt lat="47.04688" lon="9.02551">
        <ele>688</ele>
        <time>2021-08-02T08:56:01.380Z</time>
      </trkpt>
      <trkpt lat="47.04688" lon="9.0255">
        <ele>688</ele>
        <time>2021-08-02T08:56:02.380Z</time>
      </trkpt>
      <trkpt lat="47.04688" lon="9.02549">
        <ele>689</ele>
        <time>2021-08-02T08:56:03.380Z</time>
      </trkpt>
      <trkpt lat="47.04687" lon="9.02547">
        <ele>689</ele>
        <time>2021-08-02T08:56:04.379Z</time>
      </trkpt>
      <trkpt lat="47.04687" lon="9.02546">
        <ele>690</ele>
        <time>2021-08-02T08:56:05.380Z</time>
      </trkpt>
      <trkpt lat="47.04687" lon="9.02544">
        <ele>690</ele>
        <time>2021-08-02T08:56:06.380Z</time>
      </trkpt>
      <trkpt lat="47.04687" lon="9.02542">
        <ele>690</ele>
        <time>2021-08-02T08:56:07.380Z</time>
      </trkpt>
      <trkpt lat="47.04686" lon="9.0254">
        <ele>690</ele>
        <time>2021-08-02T08:56:08.380Z</time>
      </trkpt>
      <trkpt lat="47.04686" lon="9.02539">
        <ele>691</ele>
        <time>2021-08-02T08:56:09.380Z</time>
      </trkpt>
      <trkpt lat="47.04686" lon="9.02537">
        <ele>691</ele>
        <time>2021-08-02T08:56:10.380Z</time>
      </trkpt>
      <trkpt lat="47.04686" lon="9.02536">
        <ele>691</ele>
        <time>2021-08-02T08:56:11.380Z</time>
      </trkpt>
      <trkpt lat="47.04686" lon="9.02535">
        <ele>692</ele>
        <time>2021-08-02T08:56:12.380Z</time>
      </trkpt>
      <trkpt lat="47.04686" lon="9.02534">
        <ele>692</ele>
        <time>2021-08-02T08:56:13.379Z</time>
      </trkpt>
      <trkpt lat="47.04685" lon="9.02532">
        <ele>692</ele>
        <time>2021-08-02T08:56:14.379Z</time>
      </trkpt>
      <trkpt lat="47.04684" lon="9.02531">
        <ele>693</ele>
        <time>2021-08-02T08:56:15.379Z</time>
      </trkpt>
      <trkpt lat="47.04683" lon="9.02529">
        <ele>693</ele>
        <time>2021-08-02T08:56:16.379Z</time>
      </trkpt>
      <trkpt lat="47.04682" lon="9.02527">
        <ele>693</ele>
        <time>2021-08-02T08:56:17.379Z</time>
      </trkpt>
      <trkpt lat="47.04681" lon="9.02525">
        <ele>693</ele>
        <time>2021-08-02T08:56:18.380Z</time>
      </trkpt>
      <trkpt lat="47.0468" lon="9.02523">
        <ele>693</ele>
        <time>2021-08-02T08:56:19.380Z</time>
      </trkpt>
      <trkpt lat="47.04679" lon="9.02521">
        <ele>693</ele>
        <time>2021-08-02T08:56:20.380Z</time>
      </trkpt>
      <trkpt lat="47.04678" lon="9.02519">
        <ele>693</ele>
        <time>2021-08-02T08:56:21.380Z</time>
      </trkpt>
      <trkpt lat="47.04677" lon="9.02518">
        <ele>693</ele>
        <time>2021-08-02T08:56:22.380Z</time>
      </trkpt>
      <trkpt lat="47.04676" lon="9.02517">
        <ele>692</ele>
        <time>2021-08-02T08:56:23.380Z</time>
      </trkpt>
      <trkpt lat="47.04675" lon="9.02516">
        <ele>691</ele>
        <time>2021-08-02T08:56:24.379Z</time>
      </trkpt>
      <trkpt lat="47.04673" lon="9.02516">
        <ele>691</ele>
        <time>2021-08-02T08:56:25.379Z</time>
      </trkpt>
      <trkpt lat="47.04672" lon="9.02516">
        <ele>691</ele>
        <time>2021-08-02T08:56:26.380Z</time>
      </trkpt>
      <trkpt lat="47.04671" lon="9.02516">
        <ele>690</ele>
        <time>2021-08-02T08:56:27.379Z</time>
      </trkpt>
      <trkpt lat="47.0467" lon="9.02516">
        <ele>690</ele>
        <time>2021-08-02T08:56:28.379Z</time>
      </trkpt>
      <trkpt lat="47.04669" lon="9.02515">
        <ele>690</ele>
        <time>2021-08-02T08:56:29.379Z</time>
      </trkpt>
      <trkpt lat="47.04667" lon="9.02513">
        <ele>689</ele>
        <time>2021-08-02T08:56:30.379Z</time>
      </trkpt>
      <trkpt lat="47.04666" lon="9.02513">
        <ele>689</ele>
        <time>2021-08-02T08:56:31.379Z</time>
      </trkpt>
      <trkpt lat="47.04665" lon="9.02512">
        <ele>689</ele>
        <time>2021-08-02T08:56:32.379Z</time>
      </trkpt>
      <trkpt lat="47.04664" lon="9.02511">
        <ele>689</ele>
        <time>2021-08-02T08:56:33.380Z</time>
      </trkpt>
      <trkpt lat="47.04663" lon="9.02511">
        <ele>689</ele>
        <time>2021-08-02T08:56:34.380Z</time>
      </trkpt>
      <trkpt lat="47.04662" lon="9.0251">
        <ele>689</ele>
        <time>2021-08-02T08:56:35.380Z</time>
      </trkpt>
      <trkpt lat="47.0466" lon="9.0251">
        <ele>689</ele>
        <time>2021-08-02T08:56:36.379Z</time>
      </trkpt>
      <trkpt lat="47.04659" lon="9.0251">
        <ele>690</ele>
        <time>2021-08-02T08:56:37.380Z</time>
      </trkpt>
      <trkpt lat="47.04658" lon="9.0251">
        <ele>690</ele>
        <time>2021-08-02T08:56:38.379Z</time>
      </trkpt>
      <trkpt lat="47.04657" lon="9.02509">
        <ele>690</ele>
        <time>2021-08-02T08:56:39.380Z</time>
      </trkpt>
      <trkpt lat="47.04655" lon="9.02508">
        <ele>691</ele>
        <time>2021-08-02T08:56:40.380Z</time>
      </trkpt>
      <trkpt lat="47.04654" lon="9.02507">
        <ele>692</ele>
        <time>2021-08-02T08:56:41.379Z</time>
      </trkpt>
      <trkpt lat="47.04652" lon="9.02507">
        <ele>692</ele>
        <time>2021-08-02T08:56:42.379Z</time>
      </trkpt>
      <trkpt lat="47.04651" lon="9.02505">
        <ele>693</ele>
        <time>2021-08-02T08:56:43.379Z</time>
      </trkpt>
      <trkpt lat="47.0465" lon="9.02504">
        <ele>694</ele>
        <time>2021-08-02T08:56:44.379Z</time>
      </trkpt>
      <trkpt lat="47.04649" lon="9.02503">
        <ele>694</ele>
        <time>2021-08-02T08:56:45.379Z</time>
      </trkpt>
      <trkpt lat="47.04648" lon="9.02501">
        <ele>695</ele>
        <time>2021-08-02T08:56:46.379Z</time>
      </trkpt>
      <trkpt lat="47.04646" lon="9.02499">
        <ele>695</ele>
        <time>2021-08-02T08:56:47.380Z</time>
      </trkpt>
      <trkpt lat="47.04645" lon="9.02498">
        <ele>695</ele>
        <time>2021-08-02T08:56:48.379Z</time>
      </trkpt>
      <trkpt lat="47.04644" lon="9.02498">
        <ele>696</ele>
        <time>2021-08-02T08:56:49.379Z</time>
      </trkpt>
      <trkpt lat="47.04643" lon="9.02499">
        <ele>696</ele>
        <time>2021-08-02T08:56:50.379Z</time>
      </trkpt>
      <trkpt lat="47.04642" lon="9.025">
        <ele>696</ele>
        <time>2021-08-02T08:56:51.379Z</time>
      </trkpt>
      <trkpt lat="47.04642" lon="9.025">
        <ele>696</ele>
        <time>2021-08-02T08:56:52.379Z</time>
      </trkpt>
      <trkpt lat="47.04641" lon="9.025">
        <ele>696</ele>
        <time>2021-08-02T08:56:53.379Z</time>
      </trkpt>
      <trkpt lat="47.0464" lon="9.025">
        <ele>696</ele>
        <time>2021-08-02T08:56:54.379Z</time>
      </trkpt>
      <trkpt lat="47.04639" lon="9.025">
        <ele>696</ele>
        <time>2021-08-02T08:56:55.380Z</time>
      </trkpt>
      <trkpt lat="47.04638" lon="9.025">
        <ele>696</ele>
        <time>2021-08-02T08:56:56.379Z</time>
      </trkpt>
      <trkpt lat="47.04637" lon="9.02501">
        <ele>696</ele>
        <time>2021-08-02T08:56:57.379Z</time>
      </trkpt>
      <trkpt lat="47.04636" lon="9.02501">
        <ele>696</ele>
        <time>2021-08-02T08:56:58.379Z</time>
      </trkpt>
      <trkpt lat="47.04636" lon="9.025">
        <ele>697</ele>
        <time>2021-08-02T08:56:59.380Z</time>
      </trkpt>
      <trkpt lat="47.04635" lon="9.025">
        <ele>697</ele>
        <time>2021-08-02T08:57:00.380Z</time>
      </trkpt>
      <trkpt lat="47.04635" lon="9.025">
        <ele>697</ele>
        <time>2021-08-02T08:57:01.380Z</time>
      </trkpt>
      <trkpt lat="47.04634" lon="9.025">
        <ele>698</ele>
        <time>2021-08-02T08:57:02.379Z</time>
      </trkpt>
      <trkpt lat="47.04633" lon="9.025">
        <ele>698</ele>
        <time>2021-08-02T08:57:03.379Z</time>
      </trkpt>
      <trkpt lat="47.04632" lon="9.02499">
        <ele>699</ele>
        <time>2021-08-02T08:57:04.379Z</time>
      </trkpt>
      <trkpt lat="47.04631" lon="9.02499">
        <ele>700</ele>
        <time>2021-08-02T08:57:05.380Z</time>
      </trkpt>
      <trkpt lat="47.04631" lon="9.02498">
        <ele>700</ele>
        <time>2021-08-02T08:57:06.380Z</time>
      </trkpt>
      <trkpt lat="47.0463" lon="9.02497">
        <ele>701</ele>
        <time>2021-08-02T08:57:07.380Z</time>
      </trkpt>
      <trkpt lat="47.0463" lon="9.02496">
        <ele>701</ele>
        <time>2021-08-02T08:57:08.379Z</time>
      </trkpt>
      <trkpt lat="47.04629" lon="9.02495">
        <ele>701</ele>
        <time>2021-08-02T08:57:09.379Z</time>
      </trkpt>
      <trkpt lat="47.04629" lon="9.02494">
        <ele>702</ele>
        <time>2021-08-02T08:57:10.380Z</time>
      </trkpt>
      <trkpt lat="47.04628" lon="9.02494">
        <ele>702</ele>
        <time>2021-08-02T08:57:11.380Z</time>
      </trkpt>
      <trkpt lat="47.04627" lon="9.02493">
        <ele>702</ele>
        <time>2021-08-02T08:57:12.380Z</time>
      </trkpt>
      <trkpt lat="47.04626" lon="9.02492">
        <ele>702</ele>
        <time>2021-08-02T08:57:13.380Z</time>
      </trkpt>
      <trkpt lat="47.04626" lon="9.02491">
        <ele>702</ele>
        <time>2021-08-02T08:57:14.379Z</time>
      </trkpt>
      <trkpt lat="47.04625" lon="9.0249">
        <ele>702</ele>
        <time>2021-08-02T08:57:15.379Z</time>
      </trkpt>
      <trkpt lat="47.04625" lon="9.02489">
        <ele>702</ele>
        <time>2021-08-02T08:57:16.379Z</time>
      </trkpt>
      <trkpt lat="47.04624" lon="9.02488">
        <ele>702</ele>
        <time>2021-08-02T08:57:17.380Z</time>
      </trkpt>
      <trkpt lat="47.04624" lon="9.02487">
        <ele>702</ele>
        <time>2021-08-02T08:57:18.380Z</time>
      </trkpt>
      <trkpt lat="47.04623" lon="9.02487">
        <ele>702</ele>
        <time>2021-08-02T08:57:19.379Z</time>
      </trkpt>
      <trkpt lat="47.04622" lon="9.02486">
        <ele>702</ele>
        <time>2021-08-02T08:57:20.379Z</time>
      </trkpt>
      <trkpt lat="47.04622" lon="9.02486">
        <ele>702</ele>
        <time>2021-08-02T08:57:21.380Z</time>
      </trkpt>
      <trkpt lat="47.04621" lon="9.02485">
        <ele>702</ele>
        <time>2021-08-02T08:57:22.380Z</time>
      </trkpt>
      <trkpt lat="47.0462" lon="9.02484">
        <ele>702</ele>
        <time>2021-08-02T08:57:23.380Z</time>
      </trkpt>
      <trkpt lat="47.04618" lon="9.02484">
        <ele>703</ele>
        <time>2021-08-02T08:57:24.379Z</time>
      </trkpt>
      <trkpt lat="47.04617" lon="9.02483">
        <ele>703</ele>
        <time>2021-08-02T08:57:25.380Z</time>
      </trkpt>
      <trkpt lat="47.04616" lon="9.02482">
        <ele>704</ele>
        <time>2021-08-02T08:57:26.379Z</time>
      </trkpt>
      <trkpt lat="47.04615" lon="9.02482">
        <ele>704</ele>
        <time>2021-08-02T08:57:27.379Z</time>
      </trkpt>
      <trkpt lat="47.04614" lon="9.02482">
        <ele>705</ele>
        <time>2021-08-02T08:57:28.379Z</time>
      </trkpt>
      <trkpt lat="47.04613" lon="9.02482">
        <ele>706</ele>
        <time>2021-08-02T08:57:29.380Z</time>
      </trkpt>
      <trkpt lat="47.04613" lon="9.02481">
        <ele>706</ele>
        <time>2021-08-02T08:57:30.380Z</time>
      </trkpt>
      <trkpt lat="47.04612" lon="9.02481">
        <ele>707</ele>
        <time>2021-08-02T08:57:31.380Z</time>
      </trkpt>
      <trkpt lat="47.04611" lon="9.02481">
        <ele>708</ele>
        <time>2021-08-02T08:57:32.380Z</time>
      </trkpt>
      <trkpt lat="47.04611" lon="9.02481">
        <ele>709</ele>
        <time>2021-08-02T08:57:33.380Z</time>
      </trkpt>
      <trkpt lat="47.0461" lon="9.0248">
        <ele>709</ele>
        <time>2021-08-02T08:57:34.380Z</time>
      </trkpt>
      <trkpt lat="47.04608" lon="9.02478">
        <ele>710</ele>
        <time>2021-08-02T08:57:35.379Z</time>
      </trkpt>
      <trkpt lat="47.04608" lon="9.02477">
        <ele>711</ele>
        <time>2021-08-02T08:57:36.380Z</time>
      </trkpt>
      <trkpt lat="47.04607" lon="9.02476">
        <ele>712</ele>
        <time>2021-08-02T08:57:37.380Z</time>
      </trkpt>
      <trkpt lat="47.04607" lon="9.02476">
        <ele>713</ele>
        <time>2021-08-02T08:57:38.380Z</time>
      </trkpt>
      <trkpt lat="47.04607" lon="9.02476">
        <ele>714</ele>
        <time>2021-08-02T08:57:39.380Z</time>
      </trkpt>
      <trkpt lat="47.04606" lon="9.02476">
        <ele>715</ele>
        <time>2021-08-02T08:57:40.379Z</time>
      </trkpt>
      <trkpt lat="47.04605" lon="9.02475">
        <ele>715</ele>
        <time>2021-08-02T08:57:41.380Z</time>
      </trkpt>
      <trkpt lat="47.04604" lon="9.02475">
        <ele>716</ele>
        <time>2021-08-02T08:57:42.380Z</time>
      </trkpt>
      <trkpt lat="47.04603" lon="9.02474">
        <ele>717</ele>
        <time>2021-08-02T08:57:43.380Z</time>
      </trkpt>
      <trkpt lat="47.04602" lon="9.02473">
        <ele>717</ele>
        <time>2021-08-02T08:57:44.379Z</time>
      </trkpt>
      <trkpt lat="47.04602" lon="9.02472">
        <ele>718</ele>
        <time>2021-08-02T08:57:45.380Z</time>
      </trkpt>
      <trkpt lat="47.04601" lon="9.02472">
        <ele>718</ele>
        <time>2021-08-02T08:57:46.380Z</time>
      </trkpt>
      <trkpt lat="47.046" lon="9.02472">
        <ele>719</ele>
        <time>2021-08-02T08:57:47.380Z</time>
      </trkpt>
      <trkpt lat="47.046" lon="9.02471">
        <ele>719</ele>
        <time>2021-08-02T08:57:48.379Z</time>
      </trkpt>
      <trkpt lat="47.04599" lon="9.02471">
        <ele>719</ele>
        <time>2021-08-02T08:57:49.380Z</time>
      </trkpt>
      <trkpt lat="47.04599" lon="9.02469">
        <ele>718</ele>
        <time>2021-08-02T08:57:50.379Z</time>
      </trkpt>
      <trkpt lat="47.04598" lon="9.02468">
        <ele>718</ele>
        <time>2021-08-02T08:57:51.379Z</time>
      </trkpt>
      <trkpt lat="47.04597" lon="9.02467">
        <ele>718</ele>
        <time>2021-08-02T08:57:52.379Z</time>
      </trkpt>
      <trkpt lat="47.04595" lon="9.02466">
        <ele>718</ele>
        <time>2021-08-02T08:57:53.380Z</time>
      </trkpt>
      <trkpt lat="47.04594" lon="9.02463">
        <ele>719</ele>
        <time>2021-08-02T08:57:54.379Z</time>
      </trkpt>
      <trkpt lat="47.04592" lon="9.02462">
        <ele>718</ele>
        <time>2021-08-02T08:57:55.379Z</time>
      </trkpt>
      <trkpt lat="47.04592" lon="9.02462">
        <ele>718</ele>
        <time>2021-08-02T08:57:56.379Z</time>
      </trkpt>
      <trkpt lat="47.04591" lon="9.02462">
        <ele>718</ele>
        <time>2021-08-02T08:57:57.380Z</time>
      </trkpt>
      <trkpt lat="47.04591" lon="9.02461">
        <ele>717</ele>
        <time>2021-08-02T08:57:58.380Z</time>
      </trkpt>
      <trkpt lat="47.0459" lon="9.02461">
        <ele>716</ele>
        <time>2021-08-02T08:57:59.380Z</time>
      </trkpt>
      <trkpt lat="47.04589" lon="9.0246">
        <ele>715</ele>
        <time>2021-08-02T08:58:00.380Z</time>
      </trkpt>
      <trkpt lat="47.04588" lon="9.02459">
        <ele>714</ele>
        <time>2021-08-02T08:58:01.380Z</time>
      </trkpt>
      <trkpt lat="47.04588" lon="9.02458">
        <ele>714</ele>
        <time>2021-08-02T08:58:02.380Z</time>
      </trkpt>
      <trkpt lat="47.04587" lon="9.02458">
        <ele>713</ele>
        <time>2021-08-02T08:58:03.380Z</time>
      </trkpt>
      <trkpt lat="47.04586" lon="9.02457">
        <ele>712</ele>
        <time>2021-08-02T08:58:04.380Z</time>
      </trkpt>
      <trkpt lat="47.04586" lon="9.02456">
        <ele>711</ele>
        <time>2021-08-02T08:58:05.380Z</time>
      </trkpt>
      <trkpt lat="47.04585" lon="9.02455">
        <ele>711</ele>
        <time>2021-08-02T08:58:06.380Z</time>
      </trkpt>
      <trkpt lat="47.04584" lon="9.02455">
        <ele>711</ele>
        <time>2021-08-02T08:58:07.379Z</time>
      </trkpt>
      <trkpt lat="47.04584" lon="9.02454">
        <ele>711</ele>
        <time>2021-08-02T08:58:08.380Z</time>
      </trkpt>
      <trkpt lat="47.04584" lon="9.02454">
        <ele>711</ele>
        <time>2021-08-02T08:58:09.380Z</time>
      </trkpt>
      <trkpt lat="47.04584" lon="9.02453">
        <ele>710</ele>
        <time>2021-08-02T08:58:10.380Z</time>
      </trkpt>
      <trkpt lat="47.04585" lon="9.02453">
        <ele>710</ele>
        <time>2021-08-02T08:58:11.380Z</time>
      </trkpt>
      <trkpt lat="47.04586" lon="9.02453">
        <ele>709</ele>
        <time>2021-08-02T08:58:12.380Z</time>
      </trkpt>
      <trkpt lat="47.04588" lon="9.02451">
        <ele>707</ele>
        <time>2021-08-02T08:58:13.381Z</time>
      </trkpt>
      <trkpt lat="47.04591" lon="9.02448">
        <ele>705</ele>
        <time>2021-08-02T08:58:14.380Z</time>
      </trkpt>
      <trkpt lat="47.04592" lon="9.02449">
        <ele>706</ele>
        <time>2021-08-02T08:58:15.380Z</time>
      </trkpt>
      <trkpt lat="47.04592" lon="9.02449">
        <ele>706</ele>
        <time>2021-08-02T08:58:16.380Z</time>
      </trkpt>
      <trkpt lat="47.04589" lon="9.02452">
        <ele>709</ele>
        <time>2021-08-02T08:58:17.381Z</time>
      </trkpt>
      <trkpt lat="47.04587" lon="9.02451">
        <ele>710</ele>
        <time>2021-08-02T08:58:18.381Z</time>
      </trkpt>
      <trkpt lat="47.04586" lon="9.02449">
        <ele>710</ele>
        <time>2021-08-02T08:58:19.380Z</time>
      </trkpt>
      <trkpt lat="47.04585" lon="9.02448">
        <ele>711</ele>
        <time>2021-08-02T08:58:20.380Z</time>
      </trkpt>
      <trkpt lat="47.04585" lon="9.02447">
        <ele>711</ele>
        <time>2021-08-02T08:58:21.381Z</time>
      </trkpt>
      <trkpt lat="47.04584" lon="9.02445">
        <ele>712</ele>
        <time>2021-08-02T08:58:22.381Z</time>
      </trkpt>
      <trkpt lat="47.04584" lon="9.02444">
        <ele>713</ele>
        <time>2021-08-02T08:58:23.381Z</time>
      </trkpt>
      <trkpt lat="47.04584" lon="9.02443">
        <ele>713</ele>
        <time>2021-08-02T08:58:24.381Z</time>
      </trkpt>
      <trkpt lat="47.04583" lon="9.02442">
        <ele>714</ele>
        <time>2021-08-02T08:58:25.381Z</time>
      </trkpt>
      <trkpt lat="47.04583" lon="9.02442">
        <ele>714</ele>
        <time>2021-08-02T08:58:26.381Z</time>
      </trkpt>
      <trkpt lat="47.04582" lon="9.02441">
        <ele>715</ele>
        <time>2021-08-02T08:58:27.381Z</time>
      </trkpt>
      <trkpt lat="47.04581" lon="9.02441">
        <ele>715</ele>
        <time>2021-08-02T08:58:28.381Z</time>
      </trkpt>
      <trkpt lat="47.0458" lon="9.0244">
        <ele>715</ele>
        <time>2021-08-02T08:58:29.381Z</time>
      </trkpt>
      <trkpt lat="47.04579" lon="9.02439">
        <ele>715</ele>
        <time>2021-08-02T08:58:30.381Z</time>
      </trkpt>
      <trkpt lat="47.04578" lon="9.02438">
        <ele>715</ele>
        <time>2021-08-02T08:58:31.381Z</time>
      </trkpt>
      <trkpt lat="47.04577" lon="9.02437">
        <ele>715</ele>
        <time>2021-08-02T08:58:32.380Z</time>
      </trkpt>
      <trkpt lat="47.04576" lon="9.02436">
        <ele>715</ele>
        <time>2021-08-02T08:58:33.381Z</time>
      </trkpt>
      <trkpt lat="47.04575" lon="9.02435">
        <ele>715</ele>
        <time>2021-08-02T08:58:34.381Z</time>
      </trkpt>
      <trkpt lat="47.04574" lon="9.02435">
        <ele>716</ele>
        <time>2021-08-02T08:58:35.381Z</time>
      </trkpt>
      <trkpt lat="47.04574" lon="9.02434">
        <ele>715</ele>
        <time>2021-08-02T08:58:36.381Z</time>
      </trkpt>
      <trkpt lat="47.04573" lon="9.02435">
        <ele>715</ele>
        <time>2021-08-02T08:58:37.381Z</time>
      </trkpt>
      <trkpt lat="47.04572" lon="9.02434">
        <ele>715</ele>
        <time>2021-08-02T08:58:38.381Z</time>
      </trkpt>
      <trkpt lat="47.0457" lon="9.02432">
        <ele>715</ele>
        <time>2021-08-02T08:58:39.380Z</time>
      </trkpt>
      <trkpt lat="47.04569" lon="9.02432">
        <ele>715</ele>
        <time>2021-08-02T08:58:40.381Z</time>
      </trkpt>
      <trkpt lat="47.04569" lon="9.02431">
        <ele>715</ele>
        <time>2021-08-02T08:58:41.381Z</time>
      </trkpt>
      <trkpt lat="47.04568" lon="9.02429">
        <ele>715</ele>
        <time>2021-08-02T08:58:42.380Z</time>
      </trkpt>
      <trkpt lat="47.04567" lon="9.02429">
        <ele>715</ele>
        <time>2021-08-02T08:58:43.380Z</time>
      </trkpt>
      <trkpt lat="47.04567" lon="9.02428">
        <ele>716</ele>
        <time>2021-08-02T08:58:44.381Z</time>
      </trkpt>
      <trkpt lat="47.04567" lon="9.02427">
        <ele>716</ele>
        <time>2021-08-02T08:58:45.381Z</time>
      </trkpt>
      <trkpt lat="47.04567" lon="9.02426">
        <ele>716</ele>
        <time>2021-08-02T08:58:46.381Z</time>
      </trkpt>
      <trkpt lat="47.04565" lon="9.02424">
        <ele>715</ele>
        <time>2021-08-02T08:58:47.381Z</time>
      </trkpt>
      <trkpt lat="47.04565" lon="9.02423">
        <ele>714</ele>
        <time>2021-08-02T08:58:48.381Z</time>
      </trkpt>
      <trkpt lat="47.04563" lon="9.02421">
        <ele>714</ele>
        <time>2021-08-02T08:58:49.381Z</time>
      </trkpt>
      <trkpt lat="47.04562" lon="9.0242">
        <ele>714</ele>
        <time>2021-08-02T08:58:50.381Z</time>
      </trkpt>
      <trkpt lat="47.04561" lon="9.02419">
        <ele>713</ele>
        <time>2021-08-02T08:58:51.381Z</time>
      </trkpt>
      <trkpt lat="47.0456" lon="9.02419">
        <ele>713</ele>
        <time>2021-08-02T08:58:52.381Z</time>
      </trkpt>
      <trkpt lat="47.04559" lon="9.02418">
        <ele>713</ele>
        <time>2021-08-02T08:58:53.381Z</time>
      </trkpt>
      <trkpt lat="47.04558" lon="9.02418">
        <ele>713</ele>
        <time>2021-08-02T08:58:54.381Z</time>
      </trkpt>
      <trkpt lat="47.04558" lon="9.02417">
        <ele>713</ele>
        <time>2021-08-02T08:58:55.381Z</time>
      </trkpt>
      <trkpt lat="47.04557" lon="9.02416">
        <ele>713</ele>
        <time>2021-08-02T08:58:56.380Z</time>
      </trkpt>
      <trkpt lat="47.04556" lon="9.02416">
        <ele>713</ele>
        <time>2021-08-02T08:58:57.380Z</time>
      </trkpt>
      <trkpt lat="47.04555" lon="9.02416">
        <ele>713</ele>
        <time>2021-08-02T08:58:58.380Z</time>
      </trkpt>
      <trkpt lat="47.04554" lon="9.02415">
        <ele>713</ele>
        <time>2021-08-02T08:58:59.381Z</time>
      </trkpt>
      <trkpt lat="47.04553" lon="9.02414">
        <ele>713</ele>
        <time>2021-08-02T08:59:00.381Z</time>
      </trkpt>
      <trkpt lat="47.04553" lon="9.02414">
        <ele>714</ele>
        <time>2021-08-02T08:59:01.380Z</time>
      </trkpt>
      <trkpt lat="47.04552" lon="9.02413">
        <ele>714</ele>
        <time>2021-08-02T08:59:02.381Z</time>
      </trkpt>
      <trkpt lat="47.04551" lon="9.02412">
        <ele>714</ele>
        <time>2021-08-02T08:59:03.381Z</time>
      </trkpt>
      <trkpt lat="47.04551" lon="9.02412">
        <ele>714</ele>
        <time>2021-08-02T08:59:04.380Z</time>
      </trkpt>
      <trkpt lat="47.0455" lon="9.02411">
        <ele>714</ele>
        <time>2021-08-02T08:59:05.380Z</time>
      </trkpt>
      <trkpt lat="47.04548" lon="9.0241">
        <ele>713</ele>
        <time>2021-08-02T08:59:06.380Z</time>
      </trkpt>
      <trkpt lat="47.04547" lon="9.02409">
        <ele>713</ele>
        <time>2021-08-02T08:59:07.381Z</time>
      </trkpt>
      <trkpt lat="47.04547" lon="9.02408">
        <ele>712</ele>
        <time>2021-08-02T08:59:08.381Z</time>
      </trkpt>
      <trkpt lat="47.04546" lon="9.02408">
        <ele>711</ele>
        <time>2021-08-02T08:59:09.380Z</time>
      </trkpt>
      <trkpt lat="47.04546" lon="9.02407">
        <ele>710</ele>
        <time>2021-08-02T08:59:10.381Z</time>
      </trkpt>
      <trkpt lat="47.04545" lon="9.02405">
        <ele>709</ele>
        <time>2021-08-02T08:59:11.380Z</time>
      </trkpt>
      <trkpt lat="47.04544" lon="9.02405">
        <ele>708</ele>
        <time>2021-08-02T08:59:12.381Z</time>
      </trkpt>
      <trkpt lat="47.04543" lon="9.02404">
        <ele>707</ele>
        <time>2021-08-02T08:59:13.381Z</time>
      </trkpt>
      <trkpt lat="47.04542" lon="9.02403">
        <ele>706</ele>
        <time>2021-08-02T08:59:14.380Z</time>
      </trkpt>
      <trkpt lat="47.04541" lon="9.02403">
        <ele>706</ele>
        <time>2021-08-02T08:59:15.380Z</time>
      </trkpt>
      <trkpt lat="47.0454" lon="9.02401">
        <ele>705</ele>
        <time>2021-08-02T08:59:16.381Z</time>
      </trkpt>
      <trkpt lat="47.04539" lon="9.024">
        <ele>705</ele>
        <time>2021-08-02T08:59:17.381Z</time>
      </trkpt>
      <trkpt lat="47.04538" lon="9.024">
        <ele>705</ele>
        <time>2021-08-02T08:59:18.381Z</time>
      </trkpt>
      <trkpt lat="47.04537" lon="9.024">
        <ele>704</ele>
        <time>2021-08-02T08:59:19.380Z</time>
      </trkpt>
      <trkpt lat="47.04537" lon="9.02402">
        <ele>704</ele>
        <time>2021-08-02T08:59:20.380Z</time>
      </trkpt>
      <trkpt lat="47.04537" lon="9.02404">
        <ele>704</ele>
        <time>2021-08-02T08:59:21.381Z</time>
      </trkpt>
      <trkpt lat="47.04537" lon="9.02406">
        <ele>705</ele>
        <time>2021-08-02T08:59:22.381Z</time>
      </trkpt>
      <trkpt lat="47.04536" lon="9.02406">
        <ele>705</ele>
        <time>2021-08-02T08:59:23.381Z</time>
      </trkpt>
      <trkpt lat="47.04536" lon="9.02407">
        <ele>705</ele>
        <time>2021-08-02T08:59:24.380Z</time>
      </trkpt>
      <trkpt lat="47.04536" lon="9.02407">
        <ele>705</ele>
        <time>2021-08-02T08:59:25.381Z</time>
      </trkpt>
      <trkpt lat="47.04535" lon="9.02406">
        <ele>706</ele>
        <time>2021-08-02T08:59:26.380Z</time>
      </trkpt>
      <trkpt lat="47.04535" lon="9.02405">
        <ele>706</ele>
        <time>2021-08-02T08:59:27.381Z</time>
      </trkpt>
      <trkpt lat="47.04534" lon="9.02404">
        <ele>706</ele>
        <time>2021-08-02T08:59:28.381Z</time>
      </trkpt>
      <trkpt lat="47.04534" lon="9.02403">
        <ele>706</ele>
        <time>2021-08-02T08:59:29.380Z</time>
      </trkpt>
      <trkpt lat="47.04533" lon="9.02402">
        <ele>706</ele>
        <time>2021-08-02T08:59:30.381Z</time>
      </trkpt>
      <trkpt lat="47.04533" lon="9.02401">
        <ele>707</ele>
        <time>2021-08-02T08:59:31.381Z</time>
      </trkpt>
      <trkpt lat="47.04532" lon="9.024">
        <ele>707</ele>
        <time>2021-08-02T08:59:32.381Z</time>
      </trkpt>
      <trkpt lat="47.04531" lon="9.024">
        <ele>707</ele>
        <time>2021-08-02T08:59:33.381Z</time>
      </trkpt>
      <trkpt lat="47.0453" lon="9.024">
        <ele>707</ele>
        <time>2021-08-02T08:59:34.380Z</time>
      </trkpt>
      <trkpt lat="47.04529" lon="9.024">
        <ele>707</ele>
        <time>2021-08-02T08:59:35.380Z</time>
      </trkpt>
      <trkpt lat="47.04528" lon="9.02399">
        <ele>707</ele>
        <time>2021-08-02T08:59:36.381Z</time>
      </trkpt>
      <trkpt lat="47.04528" lon="9.02397">
        <ele>707</ele>
        <time>2021-08-02T08:59:37.380Z</time>
      </trkpt>
      <trkpt lat="47.04527" lon="9.02395">
        <ele>707</ele>
        <time>2021-08-02T08:59:38.380Z</time>
      </trkpt>
      <trkpt lat="47.04526" lon="9.02395">
        <ele>707</ele>
        <time>2021-08-02T08:59:39.380Z</time>
      </trkpt>
      <trkpt lat="47.04525" lon="9.02394">
        <ele>706</ele>
        <time>2021-08-02T08:59:40.381Z</time>
      </trkpt>
      <trkpt lat="47.04524" lon="9.02394">
        <ele>705</ele>
        <time>2021-08-02T08:59:41.381Z</time>
      </trkpt>
      <trkpt lat="47.04523" lon="9.02393">
        <ele>705</ele>
        <time>2021-08-02T08:59:42.381Z</time>
      </trkpt>
      <trkpt lat="47.04523" lon="9.02392">
        <ele>704</ele>
        <time>2021-08-02T08:59:43.381Z</time>
      </trkpt>
      <trkpt lat="47.04522" lon="9.0239">
        <ele>703</ele>
        <time>2021-08-02T08:59:44.380Z</time>
      </trkpt>
      <trkpt lat="47.04522" lon="9.02388">
        <ele>703</ele>
        <time>2021-08-02T08:59:45.381Z</time>
      </trkpt>
      <trkpt lat="47.04522" lon="9.02387">
        <ele>703</ele>
        <time>2021-08-02T08:59:46.381Z</time>
      </trkpt>
      <trkpt lat="47.04522" lon="9.02386">
        <ele>703</ele>
        <time>2021-08-02T08:59:47.381Z</time>
      </trkpt>
      <trkpt lat="47.04522" lon="9.02384">
        <ele>703</ele>
        <time>2021-08-02T08:59:48.380Z</time>
      </trkpt>
      <trkpt lat="47.0452" lon="9.02383">
        <ele>703</ele>
        <time>2021-08-02T08:59:49.381Z</time>
      </trkpt>
      <trkpt lat="47.04519" lon="9.02381">
        <ele>702</ele>
        <time>2021-08-02T08:59:50.381Z</time>
      </trkpt>
      <trkpt lat="47.04518" lon="9.02379">
        <ele>701</ele>
        <time>2021-08-02T08:59:51.381Z</time>
      </trkpt>
      <trkpt lat="47.04517" lon="9.02378">
        <ele>701</ele>
        <time>2021-08-02T08:59:52.381Z</time>
      </trkpt>
      <trkpt lat="47.04517" lon="9.02378">
        <ele>701</ele>
        <time>2021-08-02T08:59:53.380Z</time>
      </trkpt>
      <trkpt lat="47.04516" lon="9.02378">
        <ele>700</ele>
        <time>2021-08-02T08:59:54.381Z</time>
      </trkpt>
      <trkpt lat="47.04515" lon="9.02377">
        <ele>700</ele>
        <time>2021-08-02T08:59:55.381Z</time>
      </trkpt>
      <trkpt lat="47.04514" lon="9.02376">
        <ele>699</ele>
        <time>2021-08-02T08:59:56.381Z</time>
      </trkpt>
      <trkpt lat="47.04514" lon="9.02375">
        <ele>698</ele>
        <time>2021-08-02T08:59:57.381Z</time>
      </trkpt>
      <trkpt lat="47.04513" lon="9.02373">
        <ele>697</ele>
        <time>2021-08-02T08:59:58.381Z</time>
      </trkpt>
      <trkpt lat="47.04513" lon="9.02371">
        <ele>696</ele>
        <time>2021-08-02T08:59:59.380Z</time>
      </trkpt>
      <trkpt lat="47.04513" lon="9.0237">
        <ele>695</ele>
        <time>2021-08-02T09:00:00.381Z</time>
      </trkpt>
      <trkpt lat="47.04513" lon="9.02369">
        <ele>694</ele>
        <time>2021-08-02T09:00:01.381Z</time>
      </trkpt>
      <trkpt lat="47.04513" lon="9.02367">
        <ele>693</ele>
        <time>2021-08-02T09:00:02.381Z</time>
      </trkpt>
      <trkpt lat="47.04513" lon="9.02366">
        <ele>692</ele>
        <time>2021-08-02T09:00:03.381Z</time>
      </trkpt>
      <trkpt lat="47.04514" lon="9.02366">
        <ele>692</ele>
        <time>2021-08-02T09:00:04.381Z</time>
      </trkpt>
      <trkpt lat="47.04514" lon="9.02366">
        <ele>692</ele>
        <time>2021-08-02T09:00:05.380Z</time>
      </trkpt>
      <trkpt lat="47.04514" lon="9.02365">
        <ele>692</ele>
        <time>2021-08-02T09:00:06.381Z</time>
      </trkpt>
      <trkpt lat="47.04513" lon="9.02364">
        <ele>692</ele>
        <time>2021-08-02T09:00:07.381Z</time>
      </trkpt>
      <trkpt lat="47.04512" lon="9.02363">
        <ele>692</ele>
        <time>2021-08-02T09:00:08.381Z</time>
      </trkpt>
      <trkpt lat="47.04512" lon="9.02362">
        <ele>692</ele>
        <time>2021-08-02T09:00:09.381Z</time>
      </trkpt>
      <trkpt lat="47.04511" lon="9.02361">
        <ele>691</ele>
        <time>2021-08-02T09:00:10.381Z</time>
      </trkpt>
      <trkpt lat="47.0451" lon="9.0236">
        <ele>691</ele>
        <time>2021-08-02T09:00:11.380Z</time>
      </trkpt>
      <trkpt lat="47.0451" lon="9.02358">
        <ele>691</ele>
        <time>2021-08-02T09:00:12.381Z</time>
      </trkpt>
      <trkpt lat="47.04509" lon="9.02357">
        <ele>691</ele>
        <time>2021-08-02T09:00:13.381Z</time>
      </trkpt>
      <trkpt lat="47.04508" lon="9.02356">
        <ele>691</ele>
        <time>2021-08-02T09:00:14.381Z</time>
      </trkpt>
      <trkpt lat="47.04507" lon="9.02354">
        <ele>691</ele>
        <time>2021-08-02T09:00:15.380Z</time>
      </trkpt>
      <trkpt lat="47.04506" lon="9.02352">
        <ele>691</ele>
        <time>2021-08-02T09:00:16.380Z</time>
      </trkpt>
      <trkpt lat="47.04506" lon="9.0235">
        <ele>691</ele>
        <time>2021-08-02T09:00:17.381Z</time>
      </trkpt>
      <trkpt lat="47.04504" lon="9.02348">
        <ele>691</ele>
        <time>2021-08-02T09:00:18.381Z</time>
      </trkpt>
      <trkpt lat="47.04503" lon="9.02346">
        <ele>692</ele>
        <time>2021-08-02T09:00:19.381Z</time>
      </trkpt>
      <trkpt lat="47.04502" lon="9.02344">
        <ele>692</ele>
        <time>2021-08-02T09:00:20.380Z</time>
      </trkpt>
      <trkpt lat="47.04501" lon="9.02343">
        <ele>692</ele>
        <time>2021-08-02T09:00:21.380Z</time>
      </trkpt>
      <trkpt lat="47.04502" lon="9.02342">
        <ele>692</ele>
        <time>2021-08-02T09:00:22.380Z</time>
      </trkpt>
      <trkpt lat="47.04502" lon="9.02341">
        <ele>691</ele>
        <time>2021-08-02T09:00:23.381Z</time>
      </trkpt>
      <trkpt lat="47.04501" lon="9.02341">
        <ele>691</ele>
        <time>2021-08-02T09:00:24.381Z</time>
      </trkpt>
      <trkpt lat="47.045" lon="9.02341">
        <ele>691</ele>
        <time>2021-08-02T09:00:25.381Z</time>
      </trkpt>
      <trkpt lat="47.04499" lon="9.0234">
        <ele>691</ele>
        <time>2021-08-02T09:00:26.380Z</time>
      </trkpt>
      <trkpt lat="47.04498" lon="9.0234">
        <ele>690</ele>
        <time>2021-08-02T09:00:27.381Z</time>
      </trkpt>
      <trkpt lat="47.04497" lon="9.0234">
        <ele>690</ele>
        <time>2021-08-02T09:00:28.381Z</time>
      </trkpt>
      <trkpt lat="47.04496" lon="9.02339">
        <ele>689</ele>
        <time>2021-08-02T09:00:29.381Z</time>
      </trkpt>
      <trkpt lat="47.04495" lon="9.02339">
        <ele>689</ele>
        <time>2021-08-02T09:00:30.381Z</time>
      </trkpt>
      <trkpt lat="47.04494" lon="9.02339">
        <ele>689</ele>
        <time>2021-08-02T09:00:31.380Z</time>
      </trkpt>
      <trkpt lat="47.04493" lon="9.02338">
        <ele>688</ele>
        <time>2021-08-02T09:00:32.381Z</time>
      </trkpt>
      <trkpt lat="47.04492" lon="9.02338">
        <ele>688</ele>
        <time>2021-08-02T09:00:33.381Z</time>
      </trkpt>
      <trkpt lat="47.04491" lon="9.02337">
        <ele>687</ele>
        <time>2021-08-02T09:00:34.381Z</time>
      </trkpt>
      <trkpt lat="47.0449" lon="9.02336">
        <ele>687</ele>
        <time>2021-08-02T09:00:35.381Z</time>
      </trkpt>
      <trkpt lat="47.04489" lon="9.02336">
        <ele>687</ele>
        <time>2021-08-02T09:00:36.380Z</time>
      </trkpt>
      <trkpt lat="47.04488" lon="9.02335">
        <ele>687</ele>
        <time>2021-08-02T09:00:37.380Z</time>
      </trkpt>
      <trkpt lat="47.04486" lon="9.02335">
        <ele>687</ele>
        <time>2021-08-02T09:00:38.381Z</time>
      </trkpt>
      <trkpt lat="47.04485" lon="9.02335">
        <ele>687</ele>
        <time>2021-08-02T09:00:39.380Z</time>
      </trkpt>
      <trkpt lat="47.04484" lon="9.02334">
        <ele>687</ele>
        <time>2021-08-02T09:00:40.380Z</time>
      </trkpt>
      <trkpt lat="47.04483" lon="9.02333">
        <ele>688</ele>
        <time>2021-08-02T09:00:41.380Z</time>
      </trkpt>
      <trkpt lat="47.04483" lon="9.02332">
        <ele>688</ele>
        <time>2021-08-02T09:00:42.380Z</time>
      </trkpt>
      <trkpt lat="47.04482" lon="9.02332">
        <ele>688</ele>
        <time>2021-08-02T09:00:43.380Z</time>
      </trkpt>
      <trkpt lat="47.04481" lon="9.02331">
        <ele>689</ele>
        <time>2021-08-02T09:00:44.380Z</time>
      </trkpt>
      <trkpt lat="47.04481" lon="9.02332">
        <ele>689</ele>
        <time>2021-08-02T09:00:45.380Z</time>
      </trkpt>
      <trkpt lat="47.0448" lon="9.02332">
        <ele>690</ele>
        <time>2021-08-02T09:00:46.380Z</time>
      </trkpt>
      <trkpt lat="47.04479" lon="9.02332">
        <ele>690</ele>
        <time>2021-08-02T09:00:47.380Z</time>
      </trkpt>
      <trkpt lat="47.04478" lon="9.02333">
        <ele>691</ele>
        <time>2021-08-02T09:00:48.380Z</time>
      </trkpt>
      <trkpt lat="47.04477" lon="9.02333">
        <ele>692</ele>
        <time>2021-08-02T09:00:49.380Z</time>
      </trkpt>
      <trkpt lat="47.04477" lon="9.02332">
        <ele>692</ele>
        <time>2021-08-02T09:00:50.380Z</time>
      </trkpt>
      <trkpt lat="47.04476" lon="9.02332">
        <ele>692</ele>
        <time>2021-08-02T09:00:51.381Z</time>
      </trkpt>
      <trkpt lat="47.04476" lon="9.02331">
        <ele>692</ele>
        <time>2021-08-02T09:00:52.380Z</time>
      </trkpt>
      <trkpt lat="47.04476" lon="9.0233">
        <ele>692</ele>
        <time>2021-08-02T09:00:53.380Z</time>
      </trkpt>
      <trkpt lat="47.04475" lon="9.02329">
        <ele>692</ele>
        <time>2021-08-02T09:00:54.381Z</time>
      </trkpt>
      <trkpt lat="47.04474" lon="9.02328">
        <ele>693</ele>
        <time>2021-08-02T09:00:55.381Z</time>
      </trkpt>
      <trkpt lat="47.04472" lon="9.02328">
        <ele>693</ele>
        <time>2021-08-02T09:00:56.380Z</time>
      </trkpt>
      <trkpt lat="47.04471" lon="9.02328">
        <ele>693</ele>
        <time>2021-08-02T09:00:57.380Z</time>
      </trkpt>
      <trkpt lat="47.0447" lon="9.02327">
        <ele>693</ele>
        <time>2021-08-02T09:00:58.380Z</time>
      </trkpt>
      <trkpt lat="47.04468" lon="9.02326">
        <ele>693</ele>
        <time>2021-08-02T09:00:59.380Z</time>
      </trkpt>
      <trkpt lat="47.04467" lon="9.02326">
        <ele>693</ele>
        <time>2021-08-02T09:01:00.381Z</time>
      </trkpt>
      <trkpt lat="47.04466" lon="9.02326">
        <ele>693</ele>
        <time>2021-08-02T09:01:01.381Z</time>
      </trkpt>
      <trkpt lat="47.04465" lon="9.02326">
        <ele>693</ele>
        <time>2021-08-02T09:01:02.380Z</time>
      </trkpt>
      <trkpt lat="47.04464" lon="9.02327">
        <ele>693</ele>
        <time>2021-08-02T09:01:03.380Z</time>
      </trkpt>
      <trkpt lat="47.04463" lon="9.02327">
        <ele>693</ele>
        <time>2021-08-02T09:01:04.381Z</time>
      </trkpt>
      <trkpt lat="47.04461" lon="9.02329">
        <ele>694</ele>
        <time>2021-08-02T09:01:05.381Z</time>
      </trkpt>
      <trkpt lat="47.0446" lon="9.02329">
        <ele>694</ele>
        <time>2021-08-02T09:01:06.381Z</time>
      </trkpt>
      <trkpt lat="47.04459" lon="9.0233">
        <ele>695</ele>
        <time>2021-08-02T09:01:07.381Z</time>
      </trkpt>
      <trkpt lat="47.04458" lon="9.02331">
        <ele>696</ele>
        <time>2021-08-02T09:01:08.380Z</time>
      </trkpt>
      <trkpt lat="47.04457" lon="9.02331">
        <ele>696</ele>
        <time>2021-08-02T09:01:09.380Z</time>
      </trkpt>
      <trkpt lat="47.04455" lon="9.02332">
        <ele>697</ele>
        <time>2021-08-02T09:01:10.381Z</time>
      </trkpt>
      <trkpt lat="47.04454" lon="9.02332">
        <ele>698</ele>
        <time>2021-08-02T09:01:11.381Z</time>
      </trkpt>
      <trkpt lat="47.04453" lon="9.02334">
        <ele>698</ele>
        <time>2021-08-02T09:01:12.380Z</time>
      </trkpt>
      <trkpt lat="47.04452" lon="9.02333">
        <ele>699</ele>
        <time>2021-08-02T09:01:13.381Z</time>
      </trkpt>
      <trkpt lat="47.04451" lon="9.02334">
        <ele>700</ele>
        <time>2021-08-02T09:01:14.380Z</time>
      </trkpt>
      <trkpt lat="47.04449" lon="9.02336">
        <ele>700</ele>
        <time>2021-08-02T09:01:15.381Z</time>
      </trkpt>
      <trkpt lat="47.04448" lon="9.02334">
        <ele>701</ele>
        <time>2021-08-02T09:01:16.381Z</time>
      </trkpt>
      <trkpt lat="47.04446" lon="9.02334">
        <ele>702</ele>
        <time>2021-08-02T09:01:17.380Z</time>
      </trkpt>
      <trkpt lat="47.04446" lon="9.02332">
        <ele>702</ele>
        <time>2021-08-02T09:01:18.381Z</time>
      </trkpt>
      <trkpt lat="47.04445" lon="9.02331">
        <ele>703</ele>
        <time>2021-08-02T09:01:19.381Z</time>
      </trkpt>
      <trkpt lat="47.04445" lon="9.02331">
        <ele>703</ele>
        <time>2021-08-02T09:01:20.380Z</time>
      </trkpt>
      <trkpt lat="47.04445" lon="9.0233">
        <ele>703</ele>
        <time>2021-08-02T09:01:21.381Z</time>
      </trkpt>
      <trkpt lat="47.04445" lon="9.0233">
        <ele>704</ele>
        <time>2021-08-02T09:01:22.381Z</time>
      </trkpt>
      <trkpt lat="47.04444" lon="9.02329">
        <ele>704</ele>
        <time>2021-08-02T09:01:23.381Z</time>
      </trkpt>
      <trkpt lat="47.04444" lon="9.02329">
        <ele>705</ele>
        <time>2021-08-02T09:01:24.380Z</time>
      </trkpt>
      <trkpt lat="47.04444" lon="9.02328">
        <ele>705</ele>
        <time>2021-08-02T09:01:25.380Z</time>
      </trkpt>
      <trkpt lat="47.04444" lon="9.02327">
        <ele>706</ele>
        <time>2021-08-02T09:01:26.381Z</time>
      </trkpt>
      <trkpt lat="47.04444" lon="9.02327">
        <ele>706</ele>
        <time>2021-08-02T09:01:27.381Z</time>
      </trkpt>
      <trkpt lat="47.04444" lon="9.02323">
        <ele>708</ele>
        <time>2021-08-02T09:01:28.382Z</time>
      </trkpt>
      <trkpt lat="47.04444" lon="9.02323">
        <ele>708</ele>
        <time>2021-08-02T09:01:29.382Z</time>
      </trkpt>
      <trkpt lat="47.04444" lon="9.02322">
        <ele>708</ele>
        <time>2021-08-02T09:01:30.381Z</time>
      </trkpt>
      <trkpt lat="47.04443" lon="9.02322">
        <ele>709</ele>
        <time>2021-08-02T09:01:31.382Z</time>
      </trkpt>
      <trkpt lat="47.04441" lon="9.02321">
        <ele>715</ele>
        <time>2021-08-02T09:01:32.382Z</time>
      </trkpt>
      <trkpt lat="47.04441" lon="9.02322">
        <ele>715</ele>
        <time>2021-08-02T09:01:33.382Z</time>
      </trkpt>
      <trkpt lat="47.0444" lon="9.02323">
        <ele>715</ele>
        <time>2021-08-02T09:01:34.382Z</time>
      </trkpt>
      <trkpt lat="47.04439" lon="9.02323">
        <ele>715</ele>
        <time>2021-08-02T09:01:35.383Z</time>
      </trkpt>
      <trkpt lat="47.04439" lon="9.02324">
        <ele>715</ele>
        <time>2021-08-02T09:01:36.383Z</time>
      </trkpt>
      <trkpt lat="47.04439" lon="9.02325">
        <ele>715</ele>
        <time>2021-08-02T09:01:37.382Z</time>
      </trkpt>
      <trkpt lat="47.04439" lon="9.02326">
        <ele>715</ele>
        <time>2021-08-02T09:01:38.383Z</time>
      </trkpt>
      <trkpt lat="47.04439" lon="9.02326">
        <ele>716</ele>
        <time>2021-08-02T09:01:39.382Z</time>
      </trkpt>
      <trkpt lat="47.04438" lon="9.02326">
        <ele>716</ele>
        <time>2021-08-02T09:01:40.383Z</time>
      </trkpt>
      <trkpt lat="47.04437" lon="9.02326">
        <ele>716</ele>
        <time>2021-08-02T09:01:41.383Z</time>
      </trkpt>
      <trkpt lat="47.04436" lon="9.02327">
        <ele>716</ele>
        <time>2021-08-02T09:01:42.383Z</time>
      </trkpt>
      <trkpt lat="47.04435" lon="9.02327">
        <ele>716</ele>
        <time>2021-08-02T09:01:43.383Z</time>
      </trkpt>
      <trkpt lat="47.04435" lon="9.02327">
        <ele>717</ele>
        <time>2021-08-02T09:01:44.383Z</time>
      </trkpt>
      <trkpt lat="47.04435" lon="9.02327">
        <ele>717</ele>
        <time>2021-08-02T09:01:45.382Z</time>
      </trkpt>
      <trkpt lat="47.04435" lon="9.02326">
        <ele>717</ele>
        <time>2021-08-02T09:01:46.383Z</time>
      </trkpt>
      <trkpt lat="47.04434" lon="9.02326">
        <ele>717</ele>
        <time>2021-08-02T09:01:47.383Z</time>
      </trkpt>
      <trkpt lat="47.04434" lon="9.02326">
        <ele>717</ele>
        <time>2021-08-02T09:01:48.383Z</time>
      </trkpt>
      <trkpt lat="47.04434" lon="9.02325">
        <ele>717</ele>
        <time>2021-08-02T09:01:49.383Z</time>
      </trkpt>
      <trkpt lat="47.04433" lon="9.02325">
        <ele>717</ele>
        <time>2021-08-02T09:01:50.383Z</time>
      </trkpt>
      <trkpt lat="47.04433" lon="9.02324">
        <ele>716</ele>
        <time>2021-08-02T09:01:51.383Z</time>
      </trkpt>
      <trkpt lat="47.04432" lon="9.02324">
        <ele>716</ele>
        <time>2021-08-02T09:01:52.383Z</time>
      </trkpt>
      <trkpt lat="47.04432" lon="9.02323">
        <ele>716</ele>
        <time>2021-08-02T09:01:53.383Z</time>
      </trkpt>
      <trkpt lat="47.04432" lon="9.02322">
        <ele>716</ele>
        <time>2021-08-02T09:01:54.383Z</time>
      </trkpt>
      <trkpt lat="47.04431" lon="9.02322">
        <ele>717</ele>
        <time>2021-08-02T09:01:55.383Z</time>
      </trkpt>
      <trkpt lat="47.04431" lon="9.02321">
        <ele>718</ele>
        <time>2021-08-02T09:01:56.383Z</time>
      </trkpt>
      <trkpt lat="47.0443" lon="9.02321">
        <ele>718</ele>
        <time>2021-08-02T09:01:57.383Z</time>
      </trkpt>
      <trkpt lat="47.0443" lon="9.0232">
        <ele>719</ele>
        <time>2021-08-02T09:01:58.383Z</time>
      </trkpt>
      <trkpt lat="47.0443" lon="9.02321">
        <ele>719</ele>
        <time>2021-08-02T09:01:59.383Z</time>
      </trkpt>
      <trkpt lat="47.0443" lon="9.0232">
        <ele>720</ele>
        <time>2021-08-02T09:02:00.384Z</time>
      </trkpt>
      <trkpt lat="47.04428" lon="9.02317">
        <ele>722</ele>
        <time>2021-08-02T09:02:01.384Z</time>
      </trkpt>
      <trkpt lat="47.04427" lon="9.02318">
        <ele>723</ele>
        <time>2021-08-02T09:02:02.385Z</time>
      </trkpt>
      <trkpt lat="47.04425" lon="9.02319">
        <ele>723</ele>
        <time>2021-08-02T09:02:03.384Z</time>
      </trkpt>
      <trkpt lat="47.04421" lon="9.02319">
        <ele>725</ele>
        <time>2021-08-02T09:02:04.385Z</time>
      </trkpt>
      <trkpt lat="47.0442" lon="9.0232">
        <ele>731</ele>
        <time>2021-08-02T09:02:05.386Z</time>
      </trkpt>
      <trkpt lat="47.0442" lon="9.0232">
        <ele>732</ele>
        <time>2021-08-02T09:02:06.387Z</time>
      </trkpt>
      <trkpt lat="47.04418" lon="9.02322">
        <ele>731</ele>
        <time>2021-08-02T09:02:07.386Z</time>
      </trkpt>
      <trkpt lat="47.04418" lon="9.02321">
        <ele>730</ele>
        <time>2021-08-02T09:02:08.387Z</time>
      </trkpt>
      <trkpt lat="47.04418" lon="9.02321">
        <ele>730</ele>
        <time>2021-08-02T09:02:09.386Z</time>
      </trkpt>
      <trkpt lat="47.04418" lon="9.02321">
        <ele>729</ele>
        <time>2021-08-02T09:02:10.387Z</time>
      </trkpt>
      <trkpt lat="47.04418" lon="9.02322">
        <ele>729</ele>
        <time>2021-08-02T09:02:11.387Z</time>
      </trkpt>
      <trkpt lat="47.04419" lon="9.02322">
        <ele>729</ele>
        <time>2021-08-02T09:02:12.387Z</time>
      </trkpt>
      <trkpt lat="47.04418" lon="9.02321">
        <ele>729</ele>
        <time>2021-08-02T09:02:13.388Z</time>
      </trkpt>
      <trkpt lat="47.04418" lon="9.02321">
        <ele>729</ele>
        <time>2021-08-02T09:02:14.388Z</time>
      </trkpt>
      <trkpt lat="47.04418" lon="9.02321">
        <ele>729</ele>
        <time>2021-08-02T09:02:15.387Z</time>
      </trkpt>
      <trkpt lat="47.04418" lon="9.0232">
        <ele>729</ele>
        <time>2021-08-02T09:02:16.387Z</time>
      </trkpt>
      <trkpt lat="47.04419" lon="9.02318">
        <ele>730</ele>
        <time>2021-08-02T09:02:17.388Z</time>
      </trkpt>
      <trkpt lat="47.04419" lon="9.02316">
        <ele>730</ele>
        <time>2021-08-02T09:02:18.387Z</time>
      </trkpt>
      <trkpt lat="47.04419" lon="9.02315">
        <ele>730</ele>
        <time>2021-08-02T09:02:19.387Z</time>
      </trkpt>
      <trkpt lat="47.04417" lon="9.02314">
        <ele>730</ele>
        <time>2021-08-02T09:02:20.388Z</time>
      </trkpt>
      <trkpt lat="47.04416" lon="9.02313">
        <ele>730</ele>
        <time>2021-08-02T09:02:21.388Z</time>
      </trkpt>
      <trkpt lat="47.04416" lon="9.02312">
        <ele>731</ele>
        <time>2021-08-02T09:02:22.388Z</time>
      </trkpt>
      <trkpt lat="47.04416" lon="9.02311">
        <ele>731</ele>
        <time>2021-08-02T09:02:23.387Z</time>
      </trkpt>
      <trkpt lat="47.04416" lon="9.0231">
        <ele>731</ele>
        <time>2021-08-02T09:02:24.388Z</time>
      </trkpt>
      <trkpt lat="47.04417" lon="9.02309">
        <ele>732</ele>
        <time>2021-08-02T09:02:25.388Z</time>
      </trkpt>
      <trkpt lat="47.04417" lon="9.02308">
        <ele>732</ele>
        <time>2021-08-02T09:02:26.388Z</time>
      </trkpt>
      <trkpt lat="47.04416" lon="9.02307">
        <ele>732</ele>
        <time>2021-08-02T09:02:27.388Z</time>
      </trkpt>
      <trkpt lat="47.04416" lon="9.02306">
        <ele>732</ele>
        <time>2021-08-02T09:02:28.387Z</time>
      </trkpt>
      <trkpt lat="47.04415" lon="9.02306">
        <ele>732</ele>
        <time>2021-08-02T09:02:29.387Z</time>
      </trkpt>
      <trkpt lat="47.04414" lon="9.02306">
        <ele>732</ele>
        <time>2021-08-02T09:02:30.388Z</time>
      </trkpt>
      <trkpt lat="47.04413" lon="9.02306">
        <ele>731</ele>
        <time>2021-08-02T09:02:31.388Z</time>
      </trkpt>
      <trkpt lat="47.04413" lon="9.02306">
        <ele>731</ele>
        <time>2021-08-02T09:02:32.388Z</time>
      </trkpt>
      <trkpt lat="47.04412" lon="9.02306">
        <ele>731</ele>
        <time>2021-08-02T09:02:33.388Z</time>
      </trkpt>
      <trkpt lat="47.04411" lon="9.02306">
        <ele>730</ele>
        <time>2021-08-02T09:02:34.388Z</time>
      </trkpt>
      <trkpt lat="47.0441" lon="9.02306">
        <ele>730</ele>
        <time>2021-08-02T09:02:35.387Z</time>
      </trkpt>
      <trkpt lat="47.0441" lon="9.02306">
        <ele>729</ele>
        <time>2021-08-02T09:02:36.388Z</time>
      </trkpt>
      <trkpt lat="47.04409" lon="9.02305">
        <ele>729</ele>
        <time>2021-08-02T09:02:37.388Z</time>
      </trkpt>
      <trkpt lat="47.04409" lon="9.02305">
        <ele>729</ele>
        <time>2021-08-02T09:02:38.388Z</time>
      </trkpt>
      <trkpt lat="47.04409" lon="9.02305">
        <ele>729</ele>
        <time>2021-08-02T09:02:39.388Z</time>
      </trkpt>
      <trkpt lat="47.04408" lon="9.02304">
        <ele>729</ele>
        <time>2021-08-02T09:02:40.389Z</time>
      </trkpt>
      <trkpt lat="47.04408" lon="9.02303">
        <ele>729</ele>
        <time>2021-08-02T09:02:41.388Z</time>
      </trkpt>
      <trkpt lat="47.04407" lon="9.02302">
        <ele>729</ele>
        <time>2021-08-02T09:02:42.388Z</time>
      </trkpt>
      <trkpt lat="47.04406" lon="9.023">
        <ele>729</ele>
        <time>2021-08-02T09:02:43.389Z</time>
      </trkpt>
      <trkpt lat="47.04405" lon="9.02299">
        <ele>729</ele>
        <time>2021-08-02T09:02:44.389Z</time>
      </trkpt>
      <trkpt lat="47.04405" lon="9.02299">
        <ele>729</ele>
        <time>2021-08-02T09:02:45.389Z</time>
      </trkpt>
      <trkpt lat="47.04405" lon="9.02299">
        <ele>729</ele>
        <time>2021-08-02T09:02:46.388Z</time>
      </trkpt>
      <trkpt lat="47.04403" lon="9.02299">
        <ele>729</ele>
        <time>2021-08-02T09:02:47.389Z</time>
      </trkpt>
      <trkpt lat="47.04403" lon="9.02298">
        <ele>729</ele>
        <time>2021-08-02T09:02:48.388Z</time>
      </trkpt>
      <trkpt lat="47.04403" lon="9.02298">
        <ele>729</ele>
        <time>2021-08-02T09:02:49.389Z</time>
      </trkpt>
      <trkpt lat="47.04404" lon="9.02297">
        <ele>728</ele>
        <time>2021-08-02T09:02:50.388Z</time>
      </trkpt>
      <trkpt lat="47.04403" lon="9.02296">
        <ele>728</ele>
        <time>2021-08-02T09:02:51.389Z</time>
      </trkpt>
      <trkpt lat="47.04401" lon="9.02296">
        <ele>727</ele>
        <time>2021-08-02T09:02:52.389Z</time>
      </trkpt>
      <trkpt lat="47.04399" lon="9.02297">
        <ele>727</ele>
        <time>2021-08-02T09:02:53.388Z</time>
      </trkpt>
      <trkpt lat="47.04397" lon="9.02295">
        <ele>726</ele>
        <time>2021-08-02T09:02:54.389Z</time>
      </trkpt>
      <trkpt lat="47.04396" lon="9.02294">
        <ele>726</ele>
        <time>2021-08-02T09:02:55.389Z</time>
      </trkpt>
      <trkpt lat="47.04396" lon="9.02293">
        <ele>725</ele>
        <time>2021-08-02T09:02:56.389Z</time>
      </trkpt>
      <trkpt lat="47.04395" lon="9.02292">
        <ele>725</ele>
        <time>2021-08-02T09:02:57.389Z</time>
      </trkpt>
      <trkpt lat="47.04394" lon="9.0229">
        <ele>725</ele>
        <time>2021-08-02T09:02:58.389Z</time>
      </trkpt>
      <trkpt lat="47.04393" lon="9.0229">
        <ele>725</ele>
        <time>2021-08-02T09:02:59.388Z</time>
      </trkpt>
      <trkpt lat="47.04392" lon="9.02289">
        <ele>724</ele>
        <time>2021-08-02T09:03:00.389Z</time>
      </trkpt>
      <trkpt lat="47.04391" lon="9.02288">
        <ele>724</ele>
        <time>2021-08-02T09:03:01.389Z</time>
      </trkpt>
      <trkpt lat="47.0439" lon="9.02287">
        <ele>724</ele>
        <time>2021-08-02T09:03:02.388Z</time>
      </trkpt>
      <trkpt lat="47.0439" lon="9.02286">
        <ele>723</ele>
        <time>2021-08-02T09:03:03.388Z</time>
      </trkpt>
      <trkpt lat="47.04389" lon="9.02286">
        <ele>722</ele>
        <time>2021-08-02T09:03:04.389Z</time>
      </trkpt>
      <trkpt lat="47.04389" lon="9.02285">
        <ele>722</ele>
        <time>2021-08-02T09:03:05.389Z</time>
      </trkpt>
      <trkpt lat="47.04389" lon="9.02283">
        <ele>721</ele>
        <time>2021-08-02T09:03:06.389Z</time>
      </trkpt>
      <trkpt lat="47.04389" lon="9.02282">
        <ele>721</ele>
        <time>2021-08-02T09:03:07.389Z</time>
      </trkpt>
      <trkpt lat="47.04389" lon="9.02282">
        <ele>721</ele>
        <time>2021-08-02T09:03:08.388Z</time>
      </trkpt>
      <trkpt lat="47.04389" lon="9.02281">
        <ele>720</ele>
        <time>2021-08-02T09:03:09.389Z</time>
      </trkpt>
      <trkpt lat="47.04388" lon="9.02281">
        <ele>720</ele>
        <time>2021-08-02T09:03:10.389Z</time>
      </trkpt>
      <trkpt lat="47.04388" lon="9.02281">
        <ele>719</ele>
        <time>2021-08-02T09:03:11.388Z</time>
      </trkpt>
      <trkpt lat="47.04388" lon="9.0228">
        <ele>718</ele>
        <time>2021-08-02T09:03:12.389Z</time>
      </trkpt>
      <trkpt lat="47.04388" lon="9.0228">
        <ele>718</ele>
        <time>2021-08-02T09:03:13.388Z</time>
      </trkpt>
      <trkpt lat="47.04388" lon="9.0228">
        <ele>718</ele>
        <time>2021-08-02T09:03:14.389Z</time>
      </trkpt>
      <trkpt lat="47.04389" lon="9.02279">
        <ele>716</ele>
        <time>2021-08-02T09:03:15.389Z</time>
      </trkpt>
      <trkpt lat="47.0439" lon="9.02278">
        <ele>716</ele>
        <time>2021-08-02T09:03:16.389Z</time>
      </trkpt>
      <trkpt lat="47.04391" lon="9.02277">
        <ele>716</ele>
        <time>2021-08-02T09:03:17.389Z</time>
      </trkpt>
      <trkpt lat="47.04392" lon="9.02275">
        <ele>716</ele>
        <time>2021-08-02T09:03:18.388Z</time>
      </trkpt>
      <trkpt lat="47.04393" lon="9.02273">
        <ele>717</ele>
        <time>2021-08-02T09:03:19.389Z</time>
      </trkpt>
      <trkpt lat="47.04393" lon="9.02272">
        <ele>717</ele>
        <time>2021-08-02T09:03:20.389Z</time>
      </trkpt>
      <trkpt lat="47.04392" lon="9.02271">
        <ele>718</ele>
        <time>2021-08-02T09:03:21.388Z</time>
      </trkpt>
      <trkpt lat="47.04391" lon="9.02271">
        <ele>718</ele>
        <time>2021-08-02T09:03:22.389Z</time>
      </trkpt>
      <trkpt lat="47.0439" lon="9.0227">
        <ele>719</ele>
        <time>2021-08-02T09:03:23.389Z</time>
      </trkpt>
      <trkpt lat="47.0439" lon="9.0227">
        <ele>719</ele>
        <time>2021-08-02T09:03:24.389Z</time>
      </trkpt>
      <trkpt lat="47.04389" lon="9.02268">
        <ele>719</ele>
        <time>2021-08-02T09:03:25.388Z</time>
      </trkpt>
      <trkpt lat="47.04389" lon="9.02268">
        <ele>719</ele>
        <time>2021-08-02T09:03:26.388Z</time>
      </trkpt>
      <trkpt lat="47.04389" lon="9.02268">
        <ele>719</ele>
        <time>2021-08-02T09:03:27.389Z</time>
      </trkpt>
      <trkpt lat="47.04389" lon="9.02267">
        <ele>719</ele>
        <time>2021-08-02T09:03:28.388Z</time>
      </trkpt>
      <trkpt lat="47.04388" lon="9.02267">
        <ele>719</ele>
        <time>2021-08-02T09:03:29.389Z</time>
      </trkpt>
      <trkpt lat="47.04387" lon="9.02266">
        <ele>719</ele>
        <time>2021-08-02T09:03:30.388Z</time>
      </trkpt>
      <trkpt lat="47.04386" lon="9.02265">
        <ele>719</ele>
        <time>2021-08-02T09:03:31.388Z</time>
      </trkpt>
      <trkpt lat="47.04385" lon="9.02264">
        <ele>719</ele>
        <time>2021-08-02T09:03:32.389Z</time>
      </trkpt>
      <trkpt lat="47.04385" lon="9.02265">
        <ele>720</ele>
        <time>2021-08-02T09:03:33.389Z</time>
      </trkpt>
      <trkpt lat="47.04385" lon="9.02265">
        <ele>721</ele>
        <time>2021-08-02T09:03:34.388Z</time>
      </trkpt>
      <trkpt lat="47.04384" lon="9.02265">
        <ele>722</ele>
        <time>2021-08-02T09:03:35.388Z</time>
      </trkpt>
      <trkpt lat="47.04384" lon="9.02264">
        <ele>722</ele>
        <time>2021-08-02T09:03:36.388Z</time>
      </trkpt>
      <trkpt lat="47.04384" lon="9.02264">
        <ele>723</ele>
        <time>2021-08-02T09:03:37.388Z</time>
      </trkpt>
      <trkpt lat="47.04384" lon="9.02263">
        <ele>724</ele>
        <time>2021-08-02T09:03:38.389Z</time>
      </trkpt>
      <trkpt lat="47.04384" lon="9.02262">
        <ele>724</ele>
        <time>2021-08-02T09:03:39.388Z</time>
      </trkpt>
      <trkpt lat="47.04384" lon="9.02262">
        <ele>725</ele>
        <time>2021-08-02T09:03:40.389Z</time>
      </trkpt>
      <trkpt lat="47.04384" lon="9.02261">
        <ele>725</ele>
        <time>2021-08-02T09:03:41.388Z</time>
      </trkpt>
      <trkpt lat="47.04384" lon="9.0226">
        <ele>725</ele>
        <time>2021-08-02T09:03:42.389Z</time>
      </trkpt>
      <trkpt lat="47.04383" lon="9.02259">
        <ele>726</ele>
        <time>2021-08-02T09:03:43.388Z</time>
      </trkpt>
      <trkpt lat="47.04383" lon="9.02258">
        <ele>726</ele>
        <time>2021-08-02T09:03:44.389Z</time>
      </trkpt>
      <trkpt lat="47.04382" lon="9.02258">
        <ele>726</ele>
        <time>2021-08-02T09:03:45.389Z</time>
      </trkpt>
      <trkpt lat="47.04382" lon="9.02257">
        <ele>727</ele>
        <time>2021-08-02T09:03:46.389Z</time>
      </trkpt>
      <trkpt lat="47.04381" lon="9.02256">
        <ele>727</ele>
        <time>2021-08-02T09:03:47.389Z</time>
      </trkpt>
      <trkpt lat="47.0438" lon="9.02256">
        <ele>727</ele>
        <time>2021-08-02T09:03:48.389Z</time>
      </trkpt>
      <trkpt lat="47.0438" lon="9.02256">
        <ele>727</ele>
        <time>2021-08-02T09:03:49.389Z</time>
      </trkpt>
      <trkpt lat="47.0438" lon="9.02255">
        <ele>727</ele>
        <time>2021-08-02T09:03:50.388Z</time>
      </trkpt>
      <trkpt lat="47.0438" lon="9.02255">
        <ele>728</ele>
        <time>2021-08-02T09:03:51.389Z</time>
      </trkpt>
      <trkpt lat="47.0438" lon="9.02253">
        <ele>727</ele>
        <time>2021-08-02T09:03:52.389Z</time>
      </trkpt>
      <trkpt lat="47.0438" lon="9.02252">
        <ele>727</ele>
        <time>2021-08-02T09:03:53.388Z</time>
      </trkpt>
      <trkpt lat="47.04379" lon="9.02251">
        <ele>727</ele>
        <time>2021-08-02T09:03:54.388Z</time>
      </trkpt>
      <trkpt lat="47.04379" lon="9.02249">
        <ele>727</ele>
        <time>2021-08-02T09:03:55.389Z</time>
      </trkpt>
      <trkpt lat="47.04379" lon="9.02248">
        <ele>726</ele>
        <time>2021-08-02T09:03:56.389Z</time>
      </trkpt>
      <trkpt lat="47.04379" lon="9.02247">
        <ele>727</ele>
        <time>2021-08-02T09:03:57.389Z</time>
      </trkpt>
      <trkpt lat="47.04379" lon="9.02246">
        <ele>727</ele>
        <time>2021-08-02T09:03:58.388Z</time>
      </trkpt>
      <trkpt lat="47.04378" lon="9.02244">
        <ele>727</ele>
        <time>2021-08-02T09:03:59.389Z</time>
      </trkpt>
      <trkpt lat="47.04378" lon="9.02243">
        <ele>728</ele>
        <time>2021-08-02T09:04:00.389Z</time>
      </trkpt>
      <trkpt lat="47.04378" lon="9.02241">
        <ele>728</ele>
        <time>2021-08-02T09:04:01.389Z</time>
      </trkpt>
      <trkpt lat="47.04378" lon="9.0224">
        <ele>729</ele>
        <time>2021-08-02T09:04:02.388Z</time>
      </trkpt>
      <trkpt lat="47.04377" lon="9.02239">
        <ele>729</ele>
        <time>2021-08-02T09:04:03.389Z</time>
      </trkpt>
      <trkpt lat="47.04377" lon="9.02238">
        <ele>729</ele>
        <time>2021-08-02T09:04:04.389Z</time>
      </trkpt>
      <trkpt lat="47.04376" lon="9.02238">
        <ele>729</ele>
        <time>2021-08-02T09:04:05.388Z</time>
      </trkpt>
      <trkpt lat="47.04376" lon="9.02238">
        <ele>729</ele>
        <time>2021-08-02T09:04:06.389Z</time>
      </trkpt>
      <trkpt lat="47.04376" lon="9.02238">
        <ele>729</ele>
        <time>2021-08-02T09:04:07.389Z</time>
      </trkpt>
      <trkpt lat="47.04375" lon="9.02237">
        <ele>729</ele>
        <time>2021-08-02T09:04:08.389Z</time>
      </trkpt>
      <trkpt lat="47.04374" lon="9.02236">
        <ele>729</ele>
        <time>2021-08-02T09:04:09.388Z</time>
      </trkpt>
      <trkpt lat="47.04373" lon="9.02234">
        <ele>730</ele>
        <time>2021-08-02T09:04:10.389Z</time>
      </trkpt>
      <trkpt lat="47.04372" lon="9.02234">
        <ele>730</ele>
        <time>2021-08-02T09:04:11.389Z</time>
      </trkpt>
      <trkpt lat="47.04371" lon="9.02234">
        <ele>730</ele>
        <time>2021-08-02T09:04:12.388Z</time>
      </trkpt>
      <trkpt lat="47.0437" lon="9.02233">
        <ele>730</ele>
        <time>2021-08-02T09:04:13.389Z</time>
      </trkpt>
      <trkpt lat="47.04368" lon="9.02232">
        <ele>731</ele>
        <time>2021-08-02T09:04:14.389Z</time>
      </trkpt>
      <trkpt lat="47.04367" lon="9.02232">
        <ele>731</ele>
        <time>2021-08-02T09:04:15.389Z</time>
      </trkpt>
      <trkpt lat="47.04366" lon="9.02231">
        <ele>731</ele>
        <time>2021-08-02T09:04:16.389Z</time>
      </trkpt>
      <trkpt lat="47.04365" lon="9.0223">
        <ele>732</ele>
        <time>2021-08-02T09:04:17.389Z</time>
      </trkpt>
      <trkpt lat="47.04365" lon="9.02228">
        <ele>732</ele>
        <time>2021-08-02T09:04:18.388Z</time>
      </trkpt>
      <trkpt lat="47.04365" lon="9.02227">
        <ele>732</ele>
        <time>2021-08-02T09:04:19.389Z</time>
      </trkpt>
      <trkpt lat="47.04365" lon="9.02226">
        <ele>732</ele>
        <time>2021-08-02T09:04:20.388Z</time>
      </trkpt>
      <trkpt lat="47.04365" lon="9.02225">
        <ele>732</ele>
        <time>2021-08-02T09:04:21.389Z</time>
      </trkpt>
      <trkpt lat="47.04365" lon="9.02224">
        <ele>733</ele>
        <time>2021-08-02T09:04:22.388Z</time>
      </trkpt>
      <trkpt lat="47.04365" lon="9.02223">
        <ele>733</ele>
        <time>2021-08-02T09:04:23.389Z</time>
      </trkpt>
      <trkpt lat="47.04364" lon="9.02222">
        <ele>733</ele>
        <time>2021-08-02T09:04:24.389Z</time>
      </trkpt>
      <trkpt lat="47.04363" lon="9.02222">
        <ele>733</ele>
        <time>2021-08-02T09:04:25.389Z</time>
      </trkpt>
      <trkpt lat="47.04362" lon="9.02222">
        <ele>733</ele>
        <time>2021-08-02T09:04:26.389Z</time>
      </trkpt>
      <trkpt lat="47.04361" lon="9.02222">
        <ele>734</ele>
        <time>2021-08-02T09:04:27.389Z</time>
      </trkpt>
      <trkpt lat="47.04361" lon="9.02222">
        <ele>734</ele>
        <time>2021-08-02T09:04:28.388Z</time>
      </trkpt>
      <trkpt lat="47.04361" lon="9.0222">
        <ele>734</ele>
        <time>2021-08-02T09:04:29.389Z</time>
      </trkpt>
      <trkpt lat="47.0436" lon="9.02218">
        <ele>734</ele>
        <time>2021-08-02T09:04:30.388Z</time>
      </trkpt>
      <trkpt lat="47.0436" lon="9.02215">
        <ele>734</ele>
        <time>2021-08-02T09:04:31.389Z</time>
      </trkpt>
      <trkpt lat="47.0436" lon="9.02213">
        <ele>734</ele>
        <time>2021-08-02T09:04:32.389Z</time>
      </trkpt>
      <trkpt lat="47.04359" lon="9.02212">
        <ele>735</ele>
        <time>2021-08-02T09:04:33.388Z</time>
      </trkpt>
      <trkpt lat="47.04359" lon="9.02211">
        <ele>735</ele>
        <time>2021-08-02T09:04:34.389Z</time>
      </trkpt>
      <trkpt lat="47.04359" lon="9.0221">
        <ele>735</ele>
        <time>2021-08-02T09:04:35.389Z</time>
      </trkpt>
      <trkpt lat="47.04358" lon="9.02208">
        <ele>735</ele>
        <time>2021-08-02T09:04:36.388Z</time>
      </trkpt>
      <trkpt lat="47.04357" lon="9.02207">
        <ele>735</ele>
        <time>2021-08-02T09:04:37.389Z</time>
      </trkpt>
      <trkpt lat="47.04357" lon="9.02206">
        <ele>736</ele>
        <time>2021-08-02T09:04:38.389Z</time>
      </trkpt>
      <trkpt lat="47.04357" lon="9.02204">
        <ele>736</ele>
        <time>2021-08-02T09:04:39.388Z</time>
      </trkpt>
      <trkpt lat="47.04357" lon="9.02202">
        <ele>736</ele>
        <time>2021-08-02T09:04:40.389Z</time>
      </trkpt>
      <trkpt lat="47.04356" lon="9.02201">
        <ele>736</ele>
        <time>2021-08-02T09:04:41.389Z</time>
      </trkpt>
      <trkpt lat="47.04356" lon="9.022">
        <ele>736</ele>
        <time>2021-08-02T09:04:42.388Z</time>
      </trkpt>
      <trkpt lat="47.04356" lon="9.02199">
        <ele>736</ele>
        <time>2021-08-02T09:04:43.389Z</time>
      </trkpt>
      <trkpt lat="47.04356" lon="9.02199">
        <ele>736</ele>
        <time>2021-08-02T09:04:44.389Z</time>
      </trkpt>
      <trkpt lat="47.04355" lon="9.02198">
        <ele>736</ele>
        <time>2021-08-02T09:04:45.388Z</time>
      </trkpt>
      <trkpt lat="47.04355" lon="9.02197">
        <ele>735</ele>
        <time>2021-08-02T09:04:46.388Z</time>
      </trkpt>
      <trkpt lat="47.04355" lon="9.02197">
        <ele>735</ele>
        <time>2021-08-02T09:04:47.388Z</time>
      </trkpt>
      <trkpt lat="47.04354" lon="9.02196">
        <ele>735</ele>
        <time>2021-08-02T09:04:48.388Z</time>
      </trkpt>
      <trkpt lat="47.04353" lon="9.02195">
        <ele>735</ele>
        <time>2021-08-02T09:04:49.389Z</time>
      </trkpt>
      <trkpt lat="47.04353" lon="9.02194">
        <ele>734</ele>
        <time>2021-08-02T09:04:50.389Z</time>
      </trkpt>
      <trkpt lat="47.04352" lon="9.02193">
        <ele>734</ele>
        <time>2021-08-02T09:04:51.388Z</time>
      </trkpt>
      <trkpt lat="47.04352" lon="9.02192">
        <ele>734</ele>
        <time>2021-08-02T09:04:52.389Z</time>
      </trkpt>
      <trkpt lat="47.04351" lon="9.0219">
        <ele>734</ele>
        <time>2021-08-02T09:04:53.388Z</time>
      </trkpt>
      <trkpt lat="47.04351" lon="9.02188">
        <ele>733</ele>
        <time>2021-08-02T09:04:54.389Z</time>
      </trkpt>
      <trkpt lat="47.0435" lon="9.02187">
        <ele>733</ele>
        <time>2021-08-02T09:04:55.388Z</time>
      </trkpt>
      <trkpt lat="47.04351" lon="9.02186">
        <ele>732</ele>
        <time>2021-08-02T09:04:56.388Z</time>
      </trkpt>
      <trkpt lat="47.04351" lon="9.02185">
        <ele>732</ele>
        <time>2021-08-02T09:04:57.389Z</time>
      </trkpt>
      <trkpt lat="47.04352" lon="9.02183">
        <ele>732</ele>
        <time>2021-08-02T09:04:58.389Z</time>
      </trkpt>
      <trkpt lat="47.04351" lon="9.02182">
        <ele>731</ele>
        <time>2021-08-02T09:04:59.388Z</time>
      </trkpt>
      <trkpt lat="47.04351" lon="9.02179">
        <ele>731</ele>
        <time>2021-08-02T09:05:00.388Z</time>
      </trkpt>
      <trkpt lat="47.0435" lon="9.02177">
        <ele>731</ele>
        <time>2021-08-02T09:05:01.389Z</time>
      </trkpt>
      <trkpt lat="47.04351" lon="9.02175">
        <ele>731</ele>
        <time>2021-08-02T09:05:02.389Z</time>
      </trkpt>
      <trkpt lat="47.04351" lon="9.02173">
        <ele>731</ele>
        <time>2021-08-02T09:05:03.388Z</time>
      </trkpt>
      <trkpt lat="47.0435" lon="9.02172">
        <ele>732</ele>
        <time>2021-08-02T09:05:04.388Z</time>
      </trkpt>
      <trkpt lat="47.04349" lon="9.0217">
        <ele>732</ele>
        <time>2021-08-02T09:05:05.388Z</time>
      </trkpt>
      <trkpt lat="47.04349" lon="9.0217">
        <ele>732</ele>
        <time>2021-08-02T09:05:06.388Z</time>
      </trkpt>
      <trkpt lat="47.04349" lon="9.02169">
        <ele>732</ele>
        <time>2021-08-02T09:05:07.389Z</time>
      </trkpt>
      <trkpt lat="47.04348" lon="9.02168">
        <ele>732</ele>
        <time>2021-08-02T09:05:08.389Z</time>
      </trkpt>
      <trkpt lat="47.04348" lon="9.02168">
        <ele>732</ele>
        <time>2021-08-02T09:05:09.388Z</time>
      </trkpt>
      <trkpt lat="47.04348" lon="9.02167">
        <ele>732</ele>
        <time>2021-08-02T09:05:10.389Z</time>
      </trkpt>
      <trkpt lat="47.04348" lon="9.02166">
        <ele>732</ele>
        <time>2021-08-02T09:05:11.389Z</time>
      </trkpt>
      <trkpt lat="47.04348" lon="9.02165">
        <ele>732</ele>
        <time>2021-08-02T09:05:12.388Z</time>
      </trkpt>
      <trkpt lat="47.04347" lon="9.02164">
        <ele>732</ele>
        <time>2021-08-02T09:05:13.388Z</time>
      </trkpt>
      <trkpt lat="47.04347" lon="9.02163">
        <ele>732</ele>
        <time>2021-08-02T09:05:14.388Z</time>
      </trkpt>
      <trkpt lat="47.04346" lon="9.02161">
        <ele>733</ele>
        <time>2021-08-02T09:05:15.389Z</time>
      </trkpt>
      <trkpt lat="47.04345" lon="9.02159">
        <ele>733</ele>
        <time>2021-08-02T09:05:16.389Z</time>
      </trkpt>
      <trkpt lat="47.04344" lon="9.02158">
        <ele>734</ele>
        <time>2021-08-02T09:05:17.389Z</time>
      </trkpt>
      <trkpt lat="47.04343" lon="9.02157">
        <ele>734</ele>
        <time>2021-08-02T09:05:18.388Z</time>
      </trkpt>
      <trkpt lat="47.04342" lon="9.02157">
        <ele>735</ele>
        <time>2021-08-02T09:05:19.388Z</time>
      </trkpt>
      <trkpt lat="47.04341" lon="9.02156">
        <ele>736</ele>
        <time>2021-08-02T09:05:20.389Z</time>
      </trkpt>
      <trkpt lat="47.04341" lon="9.02155">
        <ele>736</ele>
        <time>2021-08-02T09:05:21.388Z</time>
      </trkpt>
      <trkpt lat="47.0434" lon="9.02155">
        <ele>737</ele>
        <time>2021-08-02T09:05:22.389Z</time>
      </trkpt>
      <trkpt lat="47.0434" lon="9.02155">
        <ele>737</ele>
        <time>2021-08-02T09:05:23.389Z</time>
      </trkpt>
      <trkpt lat="47.0434" lon="9.02155">
        <ele>739</ele>
        <time>2021-08-02T09:05:24.389Z</time>
      </trkpt>
      <trkpt lat="47.04339" lon="9.02157">
        <ele>739</ele>
        <time>2021-08-02T09:05:25.389Z</time>
      </trkpt>
      <trkpt lat="47.04339" lon="9.02157">
        <ele>739</ele>
        <time>2021-08-02T09:05:26.389Z</time>
      </trkpt>
      <trkpt lat="47.04339" lon="9.02157">
        <ele>739</ele>
        <time>2021-08-02T09:05:27.390Z</time>
      </trkpt>
      <trkpt lat="47.04339" lon="9.02157">
        <ele>736</ele>
        <time>2021-08-02T09:05:28.391Z</time>
      </trkpt>
      <trkpt lat="47.04338" lon="9.02157">
        <ele>735</ele>
        <time>2021-08-02T09:05:29.390Z</time>
      </trkpt>
      <trkpt lat="47.04337" lon="9.02158">
        <ele>735</ele>
        <time>2021-08-02T09:05:30.390Z</time>
      </trkpt>
      <trkpt lat="47.04336" lon="9.0216">
        <ele>735</ele>
        <time>2021-08-02T09:05:31.391Z</time>
      </trkpt>
      <trkpt lat="47.04335" lon="9.02161">
        <ele>735</ele>
        <time>2021-08-02T09:05:32.391Z</time>
      </trkpt>
      <trkpt lat="47.04334" lon="9.02162">
        <ele>735</ele>
        <time>2021-08-02T09:05:33.391Z</time>
      </trkpt>
      <trkpt lat="47.04334" lon="9.02161">
        <ele>735</ele>
        <time>2021-08-02T09:05:34.391Z</time>
      </trkpt>
      <trkpt lat="47.04334" lon="9.02161">
        <ele>734</ele>
        <time>2021-08-02T09:05:35.390Z</time>
      </trkpt>
      <trkpt lat="47.04341" lon="9.02153">
        <ele>745</ele>
        <time>2021-08-02T09:05:36.391Z</time>
      </trkpt>
      <trkpt lat="47.04341" lon="9.02153">
        <ele>745</ele>
        <time>2021-08-02T09:05:37.391Z</time>
      </trkpt>
      <trkpt lat="47.0434" lon="9.02152">
        <ele>746</ele>
        <time>2021-08-02T09:05:38.390Z</time>
      </trkpt>
      <trkpt lat="47.04337" lon="9.02159">
        <ele>750</ele>
        <time>2021-08-02T09:05:39.392Z</time>
      </trkpt>
      <trkpt lat="47.04337" lon="9.02159">
        <ele>750</ele>
        <time>2021-08-02T09:05:40.391Z</time>
      </trkpt>
      <trkpt lat="47.04337" lon="9.02159">
        <ele>751</ele>
        <time>2021-08-02T09:05:41.392Z</time>
      </trkpt>
      <trkpt lat="47.04337" lon="9.02159">
        <ele>751</ele>
        <time>2021-08-02T09:05:42.392Z</time>
      </trkpt>
      <trkpt lat="47.04337" lon="9.0216">
        <ele>751</ele>
        <time>2021-08-02T09:05:43.391Z</time>
      </trkpt>
      <trkpt lat="47.04337" lon="9.0216">
        <ele>751</ele>
        <time>2021-08-02T09:05:44.391Z</time>
      </trkpt>
      <trkpt lat="47.04337" lon="9.02159">
        <ele>751</ele>
        <time>2021-08-02T09:05:45.392Z</time>
      </trkpt>
      <trkpt lat="47.04337" lon="9.02159">
        <ele>751</ele>
        <time>2021-08-02T09:05:46.392Z</time>
      </trkpt>
      <trkpt lat="47.04336" lon="9.02158">
        <ele>752</ele>
        <time>2021-08-02T09:05:47.393Z</time>
      </trkpt>
      <trkpt lat="47.04335" lon="9.02158">
        <ele>752</ele>
        <time>2021-08-02T09:05:48.393Z</time>
      </trkpt>
      <trkpt lat="47.04334" lon="9.02157">
        <ele>751</ele>
        <time>2021-08-02T09:05:49.392Z</time>
      </trkpt>
      <trkpt lat="47.04334" lon="9.02157">
        <ele>751</ele>
        <time>2021-08-02T09:05:50.393Z</time>
      </trkpt>
      <trkpt lat="47.04333" lon="9.02156">
        <ele>750</ele>
        <time>2021-08-02T09:05:51.393Z</time>
      </trkpt>
      <trkpt lat="47.04332" lon="9.02155">
        <ele>749</ele>
        <time>2021-08-02T09:05:52.393Z</time>
      </trkpt>
      <trkpt lat="47.04332" lon="9.02153">
        <ele>748</ele>
        <time>2021-08-02T09:05:53.392Z</time>
      </trkpt>
      <trkpt lat="47.04332" lon="9.02152">
        <ele>747</ele>
        <time>2021-08-02T09:05:54.392Z</time>
      </trkpt>
      <trkpt lat="47.04332" lon="9.02151">
        <ele>746</ele>
        <time>2021-08-02T09:05:55.393Z</time>
      </trkpt>
      <trkpt lat="47.04331" lon="9.0215">
        <ele>745</ele>
        <time>2021-08-02T09:05:56.393Z</time>
      </trkpt>
      <trkpt lat="47.04331" lon="9.0215">
        <ele>745</ele>
        <time>2021-08-02T09:05:57.393Z</time>
      </trkpt>
      <trkpt lat="47.04331" lon="9.02148">
        <ele>744</ele>
        <time>2021-08-02T09:05:58.393Z</time>
      </trkpt>
      <trkpt lat="47.0433" lon="9.02147">
        <ele>743</ele>
        <time>2021-08-02T09:05:59.392Z</time>
      </trkpt>
      <trkpt lat="47.04329" lon="9.02146">
        <ele>742</ele>
        <time>2021-08-02T09:06:00.392Z</time>
      </trkpt>
      <trkpt lat="47.04329" lon="9.02145">
        <ele>742</ele>
        <time>2021-08-02T09:06:01.393Z</time>
      </trkpt>
      <trkpt lat="47.04328" lon="9.02144">
        <ele>741</ele>
        <time>2021-08-02T09:06:02.393Z</time>
      </trkpt>
      <trkpt lat="47.04328" lon="9.02144">
        <ele>740</ele>
        <time>2021-08-02T09:06:03.392Z</time>
      </trkpt>
      <trkpt lat="47.04327" lon="9.02143">
        <ele>740</ele>
        <time>2021-08-02T09:06:04.392Z</time>
      </trkpt>
      <trkpt lat="47.04326" lon="9.02142">
        <ele>739</ele>
        <time>2021-08-02T09:06:05.393Z</time>
      </trkpt>
      <trkpt lat="47.04324" lon="9.02141">
        <ele>738</ele>
        <time>2021-08-02T09:06:06.392Z</time>
      </trkpt>
      <trkpt lat="47.04323" lon="9.02141">
        <ele>737</ele>
        <time>2021-08-02T09:06:07.393Z</time>
      </trkpt>
      <trkpt lat="47.04322" lon="9.0214">
        <ele>737</ele>
        <time>2021-08-02T09:06:08.393Z</time>
      </trkpt>
      <trkpt lat="47.04321" lon="9.02139">
        <ele>736</ele>
        <time>2021-08-02T09:06:09.393Z</time>
      </trkpt>
      <trkpt lat="47.04321" lon="9.02139">
        <ele>736</ele>
        <time>2021-08-02T09:06:10.392Z</time>
      </trkpt>
      <trkpt lat="47.0432" lon="9.02138">
        <ele>735</ele>
        <time>2021-08-02T09:06:11.393Z</time>
      </trkpt>
      <trkpt lat="47.04319" lon="9.02137">
        <ele>735</ele>
        <time>2021-08-02T09:06:12.393Z</time>
      </trkpt>
      <trkpt lat="47.04319" lon="9.02136">
        <ele>735</ele>
        <time>2021-08-02T09:06:13.393Z</time>
      </trkpt>
      <trkpt lat="47.04319" lon="9.02134">
        <ele>734</ele>
        <time>2021-08-02T09:06:14.393Z</time>
      </trkpt>
      <trkpt lat="47.04318" lon="9.02133">
        <ele>734</ele>
        <time>2021-08-02T09:06:15.393Z</time>
      </trkpt>
      <trkpt lat="47.04317" lon="9.02132">
        <ele>733</ele>
        <time>2021-08-02T09:06:16.393Z</time>
      </trkpt>
      <trkpt lat="47.04317" lon="9.02131">
        <ele>732</ele>
        <time>2021-08-02T09:06:17.393Z</time>
      </trkpt>
      <trkpt lat="47.04316" lon="9.0213">
        <ele>732</ele>
        <time>2021-08-02T09:06:18.393Z</time>
      </trkpt>
      <trkpt lat="47.04316" lon="9.02129">
        <ele>731</ele>
        <time>2021-08-02T09:06:19.392Z</time>
      </trkpt>
      <trkpt lat="47.04315" lon="9.02128">
        <ele>730</ele>
        <time>2021-08-02T09:06:20.392Z</time>
      </trkpt>
      <trkpt lat="47.04315" lon="9.02126">
        <ele>729</ele>
        <time>2021-08-02T09:06:21.392Z</time>
      </trkpt>
      <trkpt lat="47.04315" lon="9.02126">
        <ele>729</ele>
        <time>2021-08-02T09:06:22.393Z</time>
      </trkpt>
      <trkpt lat="47.04315" lon="9.02124">
        <ele>728</ele>
        <time>2021-08-02T09:06:23.392Z</time>
      </trkpt>
      <trkpt lat="47.04314" lon="9.02123">
        <ele>728</ele>
        <time>2021-08-02T09:06:24.393Z</time>
      </trkpt>
      <trkpt lat="47.04313" lon="9.02122">
        <ele>727</ele>
        <time>2021-08-02T09:06:25.393Z</time>
      </trkpt>
      <trkpt lat="47.04312" lon="9.0212">
        <ele>727</ele>
        <time>2021-08-02T09:06:26.393Z</time>
      </trkpt>
      <trkpt lat="47.04312" lon="9.02119">
        <ele>727</ele>
        <time>2021-08-02T09:06:27.393Z</time>
      </trkpt>
      <trkpt lat="47.04311" lon="9.02118">
        <ele>726</ele>
        <time>2021-08-02T09:06:28.393Z</time>
      </trkpt>
      <trkpt lat="47.04311" lon="9.02116">
        <ele>726</ele>
        <time>2021-08-02T09:06:29.393Z</time>
      </trkpt>
      <trkpt lat="47.04311" lon="9.02115">
        <ele>725</ele>
        <time>2021-08-02T09:06:30.393Z</time>
      </trkpt>
      <trkpt lat="47.0431" lon="9.02114">
        <ele>724</ele>
        <time>2021-08-02T09:06:31.393Z</time>
      </trkpt>
      <trkpt lat="47.04309" lon="9.02113">
        <ele>724</ele>
        <time>2021-08-02T09:06:32.393Z</time>
      </trkpt>
      <trkpt lat="47.04309" lon="9.02114">
        <ele>723</ele>
        <time>2021-08-02T09:06:33.393Z</time>
      </trkpt>
      <trkpt lat="47.04308" lon="9.02113">
        <ele>723</ele>
        <time>2021-08-02T09:06:34.393Z</time>
      </trkpt>
      <trkpt lat="47.04308" lon="9.02113">
        <ele>723</ele>
        <time>2021-08-02T09:06:35.393Z</time>
      </trkpt>
      <trkpt lat="47.04308" lon="9.02112">
        <ele>723</ele>
        <time>2021-08-02T09:06:36.392Z</time>
      </trkpt>
      <trkpt lat="47.04308" lon="9.02111">
        <ele>723</ele>
        <time>2021-08-02T09:06:37.393Z</time>
      </trkpt>
      <trkpt lat="47.04307" lon="9.0211">
        <ele>724</ele>
        <time>2021-08-02T09:06:38.392Z</time>
      </trkpt>
      <trkpt lat="47.04307" lon="9.02109">
        <ele>724</ele>
        <time>2021-08-02T09:06:39.393Z</time>
      </trkpt>
      <trkpt lat="47.04306" lon="9.02109">
        <ele>724</ele>
        <time>2021-08-02T09:06:40.393Z</time>
      </trkpt>
      <trkpt lat="47.04305" lon="9.02109">
        <ele>725</ele>
        <time>2021-08-02T09:06:41.392Z</time>
      </trkpt>
      <trkpt lat="47.04304" lon="9.02108">
        <ele>725</ele>
        <time>2021-08-02T09:06:42.392Z</time>
      </trkpt>
      <trkpt lat="47.04304" lon="9.02108">
        <ele>725</ele>
        <time>2021-08-02T09:06:43.393Z</time>
      </trkpt>
      <trkpt lat="47.04303" lon="9.02107">
        <ele>726</ele>
        <time>2021-08-02T09:06:44.393Z</time>
      </trkpt>
      <trkpt lat="47.04302" lon="9.02106">
        <ele>726</ele>
        <time>2021-08-02T09:06:45.392Z</time>
      </trkpt>
      <trkpt lat="47.04301" lon="9.02104">
        <ele>727</ele>
        <time>2021-08-02T09:06:46.392Z</time>
      </trkpt>
      <trkpt lat="47.043" lon="9.02103">
        <ele>727</ele>
        <time>2021-08-02T09:06:47.393Z</time>
      </trkpt>
      <trkpt lat="47.04299" lon="9.02102">
        <ele>727</ele>
        <time>2021-08-02T09:06:48.392Z</time>
      </trkpt>
      <trkpt lat="47.04299" lon="9.021">
        <ele>728</ele>
        <time>2021-08-02T09:06:49.392Z</time>
      </trkpt>
      <trkpt lat="47.04298" lon="9.02099">
        <ele>728</ele>
        <time>2021-08-02T09:06:50.393Z</time>
      </trkpt>
      <trkpt lat="47.04297" lon="9.02098">
        <ele>728</ele>
        <time>2021-08-02T09:06:51.393Z</time>
      </trkpt>
      <trkpt lat="47.04297" lon="9.02098">
        <ele>729</ele>
        <time>2021-08-02T09:06:52.393Z</time>
      </trkpt>
      <trkpt lat="47.04296" lon="9.02097">
        <ele>729</ele>
        <time>2021-08-02T09:06:53.393Z</time>
      </trkpt>
      <trkpt lat="47.04295" lon="9.02096">
        <ele>729</ele>
        <time>2021-08-02T09:06:54.393Z</time>
      </trkpt>
      <trkpt lat="47.04294" lon="9.02096">
        <ele>730</ele>
        <time>2021-08-02T09:06:55.393Z</time>
      </trkpt>
      <trkpt lat="47.04294" lon="9.02094">
        <ele>730</ele>
        <time>2021-08-02T09:06:56.392Z</time>
      </trkpt>
      <trkpt lat="47.04293" lon="9.02092">
        <ele>730</ele>
        <time>2021-08-02T09:06:57.392Z</time>
      </trkpt>
      <trkpt lat="47.04292" lon="9.02091">
        <ele>730</ele>
        <time>2021-08-02T09:06:58.393Z</time>
      </trkpt>
      <trkpt lat="47.04292" lon="9.0209">
        <ele>730</ele>
        <time>2021-08-02T09:06:59.393Z</time>
      </trkpt>
      <trkpt lat="47.04293" lon="9.02089">
        <ele>730</ele>
        <time>2021-08-02T09:07:00.393Z</time>
      </trkpt>
      <trkpt lat="47.04292" lon="9.02087">
        <ele>730</ele>
        <time>2021-08-02T09:07:01.393Z</time>
      </trkpt>
      <trkpt lat="47.04292" lon="9.02086">
        <ele>729</ele>
        <time>2021-08-02T09:07:02.393Z</time>
      </trkpt>
      <trkpt lat="47.04291" lon="9.02085">
        <ele>728</ele>
        <time>2021-08-02T09:07:03.393Z</time>
      </trkpt>
      <trkpt lat="47.0429" lon="9.02085">
        <ele>728</ele>
        <time>2021-08-02T09:07:04.392Z</time>
      </trkpt>
      <trkpt lat="47.0429" lon="9.02084">
        <ele>728</ele>
        <time>2021-08-02T09:07:05.393Z</time>
      </trkpt>
      <trkpt lat="47.04289" lon="9.02084">
        <ele>727</ele>
        <time>2021-08-02T09:07:06.392Z</time>
      </trkpt>
      <trkpt lat="47.04289" lon="9.02083">
        <ele>727</ele>
        <time>2021-08-02T09:07:07.392Z</time>
      </trkpt>
      <trkpt lat="47.04289" lon="9.02082">
        <ele>727</ele>
        <time>2021-08-02T09:07:08.393Z</time>
      </trkpt>
      <trkpt lat="47.04288" lon="9.02081">
        <ele>728</ele>
        <time>2021-08-02T09:07:09.393Z</time>
      </trkpt>
      <trkpt lat="47.04288" lon="9.02079">
        <ele>728</ele>
        <time>2021-08-02T09:07:10.393Z</time>
      </trkpt>
      <trkpt lat="47.04289" lon="9.02077">
        <ele>728</ele>
        <time>2021-08-02T09:07:11.393Z</time>
      </trkpt>
      <trkpt lat="47.04289" lon="9.02075">
        <ele>729</ele>
        <time>2021-08-02T09:07:12.393Z</time>
      </trkpt>
      <trkpt lat="47.04289" lon="9.02074">
        <ele>730</ele>
        <time>2021-08-02T09:07:13.393Z</time>
      </trkpt>
      <trkpt lat="47.04289" lon="9.02074">
        <ele>730</ele>
        <time>2021-08-02T09:07:14.393Z</time>
      </trkpt>
      <trkpt lat="47.04289" lon="9.02072">
        <ele>731</ele>
        <time>2021-08-02T09:07:15.393Z</time>
      </trkpt>
      <trkpt lat="47.04289" lon="9.02071">
        <ele>732</ele>
        <time>2021-08-02T09:07:16.392Z</time>
      </trkpt>
      <trkpt lat="47.04288" lon="9.0207">
        <ele>732</ele>
        <time>2021-08-02T09:07:17.393Z</time>
      </trkpt>
      <trkpt lat="47.04288" lon="9.02068">
        <ele>733</ele>
        <time>2021-08-02T09:07:18.393Z</time>
      </trkpt>
      <trkpt lat="47.04287" lon="9.02067">
        <ele>734</ele>
        <time>2021-08-02T09:07:19.393Z</time>
      </trkpt>
      <trkpt lat="47.04286" lon="9.02067">
        <ele>735</ele>
        <time>2021-08-02T09:07:20.393Z</time>
      </trkpt>
      <trkpt lat="47.04285" lon="9.02066">
        <ele>736</ele>
        <time>2021-08-02T09:07:21.393Z</time>
      </trkpt>
      <trkpt lat="47.04284" lon="9.02066">
        <ele>737</ele>
        <time>2021-08-02T09:07:22.392Z</time>
      </trkpt>
      <trkpt lat="47.04284" lon="9.02065">
        <ele>737</ele>
        <time>2021-08-02T09:07:23.393Z</time>
      </trkpt>
      <trkpt lat="47.04283" lon="9.02064">
        <ele>738</ele>
        <time>2021-08-02T09:07:24.392Z</time>
      </trkpt>
      <trkpt lat="47.04282" lon="9.02061">
        <ele>738</ele>
        <time>2021-08-02T09:07:25.392Z</time>
      </trkpt>
      <trkpt lat="47.04283" lon="9.02059">
        <ele>738</ele>
        <time>2021-08-02T09:07:26.392Z</time>
      </trkpt>
      <trkpt lat="47.04283" lon="9.02057">
        <ele>738</ele>
        <time>2021-08-02T09:07:27.393Z</time>
      </trkpt>
      <trkpt lat="47.04284" lon="9.02055">
        <ele>739</ele>
        <time>2021-08-02T09:07:28.392Z</time>
      </trkpt>
      <trkpt lat="47.04283" lon="9.02054">
        <ele>739</ele>
        <time>2021-08-02T09:07:29.393Z</time>
      </trkpt>
      <trkpt lat="47.04283" lon="9.02052">
        <ele>739</ele>
        <time>2021-08-02T09:07:30.392Z</time>
      </trkpt>
      <trkpt lat="47.04284" lon="9.0205">
        <ele>739</ele>
        <time>2021-08-02T09:07:31.392Z</time>
      </trkpt>
      <trkpt lat="47.04284" lon="9.02049">
        <ele>739</ele>
        <time>2021-08-02T09:07:32.393Z</time>
      </trkpt>
      <trkpt lat="47.04284" lon="9.02047">
        <ele>739</ele>
        <time>2021-08-02T09:07:33.393Z</time>
      </trkpt>
      <trkpt lat="47.04285" lon="9.02046">
        <ele>739</ele>
        <time>2021-08-02T09:07:34.393Z</time>
      </trkpt>
      <trkpt lat="47.04284" lon="9.02045">
        <ele>740</ele>
        <time>2021-08-02T09:07:35.393Z</time>
      </trkpt>
      <trkpt lat="47.04284" lon="9.02043">
        <ele>740</ele>
        <time>2021-08-02T09:07:36.393Z</time>
      </trkpt>
      <trkpt lat="47.04284" lon="9.02043">
        <ele>740</ele>
        <time>2021-08-02T09:07:37.392Z</time>
      </trkpt>
      <trkpt lat="47.04283" lon="9.02043">
        <ele>740</ele>
        <time>2021-08-02T09:07:38.392Z</time>
      </trkpt>
      <trkpt lat="47.04283" lon="9.02043">
        <ele>740</ele>
        <time>2021-08-02T09:07:39.393Z</time>
      </trkpt>
      <trkpt lat="47.04283" lon="9.02043">
        <ele>741</ele>
        <time>2021-08-02T09:07:40.392Z</time>
      </trkpt>
      <trkpt lat="47.04282" lon="9.02042">
        <ele>741</ele>
        <time>2021-08-02T09:07:41.393Z</time>
      </trkpt>
      <trkpt lat="47.04281" lon="9.02041">
        <ele>740</ele>
        <time>2021-08-02T09:07:42.392Z</time>
      </trkpt>
      <trkpt lat="47.04281" lon="9.02039">
        <ele>740</ele>
        <time>2021-08-02T09:07:43.392Z</time>
      </trkpt>
      <trkpt lat="47.0428" lon="9.02038">
        <ele>740</ele>
        <time>2021-08-02T09:07:44.393Z</time>
      </trkpt>
      <trkpt lat="47.0428" lon="9.02036">
        <ele>740</ele>
        <time>2021-08-02T09:07:45.393Z</time>
      </trkpt>
      <trkpt lat="47.0428" lon="9.02035">
        <ele>740</ele>
        <time>2021-08-02T09:07:46.393Z</time>
      </trkpt>
      <trkpt lat="47.04279" lon="9.02034">
        <ele>740</ele>
        <time>2021-08-02T09:07:47.393Z</time>
      </trkpt>
      <trkpt lat="47.04278" lon="9.02033">
        <ele>741</ele>
        <time>2021-08-02T09:07:48.393Z</time>
      </trkpt>
      <trkpt lat="47.04277" lon="9.02033">
        <ele>741</ele>
        <time>2021-08-02T09:07:49.392Z</time>
      </trkpt>
      <trkpt lat="47.04276" lon="9.02033">
        <ele>741</ele>
        <time>2021-08-02T09:07:50.392Z</time>
      </trkpt>
      <trkpt lat="47.04275" lon="9.02032">
        <ele>741</ele>
        <time>2021-08-02T09:07:51.392Z</time>
      </trkpt>
      <trkpt lat="47.04274" lon="9.02032">
        <ele>742</ele>
        <time>2021-08-02T09:07:52.393Z</time>
      </trkpt>
      <trkpt lat="47.04274" lon="9.02031">
        <ele>742</ele>
        <time>2021-08-02T09:07:53.393Z</time>
      </trkpt>
      <trkpt lat="47.04274" lon="9.0203">
        <ele>742</ele>
        <time>2021-08-02T09:07:54.393Z</time>
      </trkpt>
      <trkpt lat="47.04274" lon="9.02029">
        <ele>743</ele>
        <time>2021-08-02T09:07:55.392Z</time>
      </trkpt>
      <trkpt lat="47.04274" lon="9.02027">
        <ele>743</ele>
        <time>2021-08-02T09:07:56.393Z</time>
      </trkpt>
      <trkpt lat="47.04274" lon="9.02024">
        <ele>743</ele>
        <time>2021-08-02T09:07:57.393Z</time>
      </trkpt>
      <trkpt lat="47.04273" lon="9.02022">
        <ele>743</ele>
        <time>2021-08-02T09:07:58.393Z</time>
      </trkpt>
      <trkpt lat="47.04272" lon="9.02019">
        <ele>743</ele>
        <time>2021-08-02T09:07:59.393Z</time>
      </trkpt>
      <trkpt lat="47.04271" lon="9.02016">
        <ele>743</ele>
        <time>2021-08-02T09:08:00.393Z</time>
      </trkpt>
      <trkpt lat="47.0427" lon="9.02015">
        <ele>743</ele>
        <time>2021-08-02T09:08:01.392Z</time>
      </trkpt>
      <trkpt lat="47.04268" lon="9.02014">
        <ele>743</ele>
        <time>2021-08-02T09:08:02.393Z</time>
      </trkpt>
      <trkpt lat="47.04267" lon="9.02014">
        <ele>743</ele>
        <time>2021-08-02T09:08:03.392Z</time>
      </trkpt>
      <trkpt lat="47.04266" lon="9.02013">
        <ele>743</ele>
        <time>2021-08-02T09:08:04.392Z</time>
      </trkpt>
      <trkpt lat="47.04265" lon="9.02013">
        <ele>744</ele>
        <time>2021-08-02T09:08:05.393Z</time>
      </trkpt>
      <trkpt lat="47.04264" lon="9.02012">
        <ele>744</ele>
        <time>2021-08-02T09:08:06.393Z</time>
      </trkpt>
      <trkpt lat="47.04263" lon="9.02011">
        <ele>744</ele>
        <time>2021-08-02T09:08:07.392Z</time>
      </trkpt>
      <trkpt lat="47.04262" lon="9.0201">
        <ele>744</ele>
        <time>2021-08-02T09:08:08.393Z</time>
      </trkpt>
      <trkpt lat="47.04261" lon="9.02008">
        <ele>744</ele>
        <time>2021-08-02T09:08:09.393Z</time>
      </trkpt>
      <trkpt lat="47.0426" lon="9.02007">
        <ele>745</ele>
        <time>2021-08-02T09:08:10.393Z</time>
      </trkpt>
      <trkpt lat="47.0426" lon="9.02006">
        <ele>745</ele>
        <time>2021-08-02T09:08:11.392Z</time>
      </trkpt>
      <trkpt lat="47.04259" lon="9.02006">
        <ele>745</ele>
        <time>2021-08-02T09:08:12.392Z</time>
      </trkpt>
      <trkpt lat="47.04258" lon="9.02006">
        <ele>745</ele>
        <time>2021-08-02T09:08:13.393Z</time>
      </trkpt>
      <trkpt lat="47.04257" lon="9.02005">
        <ele>745</ele>
        <time>2021-08-02T09:08:14.393Z</time>
      </trkpt>
      <trkpt lat="47.04257" lon="9.02004">
        <ele>745</ele>
        <time>2021-08-02T09:08:15.393Z</time>
      </trkpt>
      <trkpt lat="47.04257" lon="9.02004">
        <ele>745</ele>
        <time>2021-08-02T09:08:16.392Z</time>
      </trkpt>
      <trkpt lat="47.04256" lon="9.02004">
        <ele>746</ele>
        <time>2021-08-02T09:08:17.393Z</time>
      </trkpt>
      <trkpt lat="47.04255" lon="9.02003">
        <ele>746</ele>
        <time>2021-08-02T09:08:18.393Z</time>
      </trkpt>
      <trkpt lat="47.04254" lon="9.02001">
        <ele>746</ele>
        <time>2021-08-02T09:08:19.393Z</time>
      </trkpt>
      <trkpt lat="47.04254" lon="9.02">
        <ele>747</ele>
        <time>2021-08-02T09:08:20.393Z</time>
      </trkpt>
      <trkpt lat="47.04253" lon="9.01998">
        <ele>747</ele>
        <time>2021-08-02T09:08:21.393Z</time>
      </trkpt>
      <trkpt lat="47.04253" lon="9.01997">
        <ele>747</ele>
        <time>2021-08-02T09:08:22.393Z</time>
      </trkpt>
      <trkpt lat="47.04253" lon="9.01995">
        <ele>747</ele>
        <time>2021-08-02T09:08:23.392Z</time>
      </trkpt>
      <trkpt lat="47.04252" lon="9.01994">
        <ele>747</ele>
        <time>2021-08-02T09:08:24.393Z</time>
      </trkpt>
      <trkpt lat="47.04251" lon="9.01993">
        <ele>747</ele>
        <time>2021-08-02T09:08:25.392Z</time>
      </trkpt>
      <trkpt lat="47.0425" lon="9.01991">
        <ele>747</ele>
        <time>2021-08-02T09:08:26.392Z</time>
      </trkpt>
      <trkpt lat="47.04249" lon="9.0199">
        <ele>746</ele>
        <time>2021-08-02T09:08:27.393Z</time>
      </trkpt>
      <trkpt lat="47.0425" lon="9.01988">
        <ele>746</ele>
        <time>2021-08-02T09:08:28.393Z</time>
      </trkpt>
      <trkpt lat="47.0425" lon="9.01987">
        <ele>745</ele>
        <time>2021-08-02T09:08:29.393Z</time>
      </trkpt>
      <trkpt lat="47.04249" lon="9.01985">
        <ele>745</ele>
        <time>2021-08-02T09:08:30.393Z</time>
      </trkpt>
      <trkpt lat="47.04249" lon="9.01984">
        <ele>745</ele>
        <time>2021-08-02T09:08:31.393Z</time>
      </trkpt>
      <trkpt lat="47.04249" lon="9.01983">
        <ele>745</ele>
        <time>2021-08-02T09:08:32.393Z</time>
      </trkpt>
      <trkpt lat="47.04249" lon="9.01982">
        <ele>745</ele>
        <time>2021-08-02T09:08:33.393Z</time>
      </trkpt>
      <trkpt lat="47.04249" lon="9.01981">
        <ele>744</ele>
        <time>2021-08-02T09:08:34.393Z</time>
      </trkpt>
      <trkpt lat="47.04249" lon="9.01979">
        <ele>744</ele>
        <time>2021-08-02T09:08:35.393Z</time>
      </trkpt>
      <trkpt lat="47.04249" lon="9.01978">
        <ele>744</ele>
        <time>2021-08-02T09:08:36.392Z</time>
      </trkpt>
      <trkpt lat="47.04248" lon="9.01977">
        <ele>744</ele>
        <time>2021-08-02T09:08:37.393Z</time>
      </trkpt>
      <trkpt lat="47.04249" lon="9.01975">
        <ele>744</ele>
        <time>2021-08-02T09:08:38.393Z</time>
      </trkpt>
      <trkpt lat="47.04249" lon="9.01974">
        <ele>745</ele>
        <time>2021-08-02T09:08:39.392Z</time>
      </trkpt>
      <trkpt lat="47.04249" lon="9.01973">
        <ele>745</ele>
        <time>2021-08-02T09:08:40.393Z</time>
      </trkpt>
      <trkpt lat="47.04248" lon="9.01972">
        <ele>745</ele>
        <time>2021-08-02T09:08:41.392Z</time>
      </trkpt>
      <trkpt lat="47.04248" lon="9.01971">
        <ele>745</ele>
        <time>2021-08-02T09:08:42.393Z</time>
      </trkpt>
      <trkpt lat="47.04247" lon="9.01969">
        <ele>745</ele>
        <time>2021-08-02T09:08:43.392Z</time>
      </trkpt>
      <trkpt lat="47.04247" lon="9.01967">
        <ele>745</ele>
        <time>2021-08-02T09:08:44.393Z</time>
      </trkpt>
      <trkpt lat="47.04246" lon="9.01966">
        <ele>745</ele>
        <time>2021-08-02T09:08:45.392Z</time>
      </trkpt>
      <trkpt lat="47.04246" lon="9.01965">
        <ele>746</ele>
        <time>2021-08-02T09:08:46.393Z</time>
      </trkpt>
      <trkpt lat="47.04247" lon="9.01963">
        <ele>746</ele>
        <time>2021-08-02T09:08:47.393Z</time>
      </trkpt>
      <trkpt lat="47.04247" lon="9.01961">
        <ele>746</ele>
        <time>2021-08-02T09:08:48.393Z</time>
      </trkpt>
      <trkpt lat="47.04247" lon="9.01959">
        <ele>746</ele>
        <time>2021-08-02T09:08:49.392Z</time>
      </trkpt>
      <trkpt lat="47.04247" lon="9.01957">
        <ele>746</ele>
        <time>2021-08-02T09:08:50.393Z</time>
      </trkpt>
      <trkpt lat="47.04247" lon="9.01955">
        <ele>746</ele>
        <time>2021-08-02T09:08:51.392Z</time>
      </trkpt>
      <trkpt lat="47.04246" lon="9.01953">
        <ele>746</ele>
        <time>2021-08-02T09:08:52.392Z</time>
      </trkpt>
      <trkpt lat="47.04245" lon="9.01951">
        <ele>746</ele>
        <time>2021-08-02T09:08:53.393Z</time>
      </trkpt>
      <trkpt lat="47.04244" lon="9.01949">
        <ele>746</ele>
        <time>2021-08-02T09:08:54.393Z</time>
      </trkpt>
      <trkpt lat="47.04243" lon="9.01947">
        <ele>745</ele>
        <time>2021-08-02T09:08:55.393Z</time>
      </trkpt>
      <trkpt lat="47.04242" lon="9.01946">
        <ele>745</ele>
        <time>2021-08-02T09:08:56.392Z</time>
      </trkpt>
      <trkpt lat="47.04241" lon="9.01945">
        <ele>744</ele>
        <time>2021-08-02T09:08:57.392Z</time>
      </trkpt>
      <trkpt lat="47.0424" lon="9.01944">
        <ele>744</ele>
        <time>2021-08-02T09:08:58.393Z</time>
      </trkpt>
      <trkpt lat="47.04239" lon="9.01943">
        <ele>743</ele>
        <time>2021-08-02T09:08:59.393Z</time>
      </trkpt>
      <trkpt lat="47.04239" lon="9.01943">
        <ele>743</ele>
        <time>2021-08-02T09:09:00.393Z</time>
      </trkpt>
      <trkpt lat="47.04238" lon="9.01944">
        <ele>742</ele>
        <time>2021-08-02T09:09:01.393Z</time>
      </trkpt>
      <trkpt lat="47.04237" lon="9.01944">
        <ele>742</ele>
        <time>2021-08-02T09:09:02.393Z</time>
      </trkpt>
      <trkpt lat="47.04237" lon="9.01943">
        <ele>741</ele>
        <time>2021-08-02T09:09:03.392Z</time>
      </trkpt>
      <trkpt lat="47.04236" lon="9.01942">
        <ele>741</ele>
        <time>2021-08-02T09:09:04.393Z</time>
      </trkpt>
      <trkpt lat="47.04236" lon="9.01941">
        <ele>741</ele>
        <time>2021-08-02T09:09:05.393Z</time>
      </trkpt>
      <trkpt lat="47.04235" lon="9.01941">
        <ele>740</ele>
        <time>2021-08-02T09:09:06.393Z</time>
      </trkpt>
      <trkpt lat="47.04235" lon="9.0194">
        <ele>740</ele>
        <time>2021-08-02T09:09:07.393Z</time>
      </trkpt>
      <trkpt lat="47.04234" lon="9.01939">
        <ele>740</ele>
        <time>2021-08-02T09:09:08.392Z</time>
      </trkpt>
      <trkpt lat="47.04233" lon="9.01938">
        <ele>740</ele>
        <time>2021-08-02T09:09:09.392Z</time>
      </trkpt>
      <trkpt lat="47.04233" lon="9.01937">
        <ele>739</ele>
        <time>2021-08-02T09:09:10.393Z</time>
      </trkpt>
      <trkpt lat="47.04232" lon="9.01936">
        <ele>739</ele>
        <time>2021-08-02T09:09:11.393Z</time>
      </trkpt>
      <trkpt lat="47.04232" lon="9.01935">
        <ele>739</ele>
        <time>2021-08-02T09:09:12.393Z</time>
      </trkpt>
      <trkpt lat="47.04232" lon="9.01934">
        <ele>738</ele>
        <time>2021-08-02T09:09:13.393Z</time>
      </trkpt>
      <trkpt lat="47.04231" lon="9.01932">
        <ele>738</ele>
        <time>2021-08-02T09:09:14.393Z</time>
      </trkpt>
      <trkpt lat="47.04231" lon="9.01931">
        <ele>738</ele>
        <time>2021-08-02T09:09:15.393Z</time>
      </trkpt>
      <trkpt lat="47.04231" lon="9.0193">
        <ele>738</ele>
        <time>2021-08-02T09:09:16.393Z</time>
      </trkpt>
      <trkpt lat="47.04231" lon="9.01929">
        <ele>738</ele>
        <time>2021-08-02T09:09:17.393Z</time>
      </trkpt>
      <trkpt lat="47.0423" lon="9.01928">
        <ele>738</ele>
        <time>2021-08-02T09:09:18.393Z</time>
      </trkpt>
      <trkpt lat="47.0423" lon="9.01927">
        <ele>738</ele>
        <time>2021-08-02T09:09:19.393Z</time>
      </trkpt>
      <trkpt lat="47.04229" lon="9.01925">
        <ele>738</ele>
        <time>2021-08-02T09:09:20.392Z</time>
      </trkpt>
      <trkpt lat="47.04229" lon="9.01924">
        <ele>738</ele>
        <time>2021-08-02T09:09:21.393Z</time>
      </trkpt>
      <trkpt lat="47.04229" lon="9.01923">
        <ele>739</ele>
        <time>2021-08-02T09:09:22.392Z</time>
      </trkpt>
      <trkpt lat="47.04229" lon="9.01921">
        <ele>739</ele>
        <time>2021-08-02T09:09:23.393Z</time>
      </trkpt>
      <trkpt lat="47.04228" lon="9.01918">
        <ele>739</ele>
        <time>2021-08-02T09:09:24.392Z</time>
      </trkpt>
      <trkpt lat="47.04228" lon="9.01917">
        <ele>739</ele>
        <time>2021-08-02T09:09:25.393Z</time>
      </trkpt>
      <trkpt lat="47.04227" lon="9.01916">
        <ele>739</ele>
        <time>2021-08-02T09:09:26.393Z</time>
      </trkpt>
      <trkpt lat="47.04225" lon="9.01914">
        <ele>738</ele>
        <time>2021-08-02T09:09:27.392Z</time>
      </trkpt>
      <trkpt lat="47.04225" lon="9.01913">
        <ele>738</ele>
        <time>2021-08-02T09:09:28.392Z</time>
      </trkpt>
      <trkpt lat="47.04225" lon="9.01912">
        <ele>738</ele>
        <time>2021-08-02T09:09:29.392Z</time>
      </trkpt>
      <trkpt lat="47.04225" lon="9.0191">
        <ele>738</ele>
        <time>2021-08-02T09:09:30.392Z</time>
      </trkpt>
      <trkpt lat="47.04225" lon="9.0191">
        <ele>738</ele>
        <time>2021-08-02T09:09:31.392Z</time>
      </trkpt>
      <trkpt lat="47.04223" lon="9.01909">
        <ele>738</ele>
        <time>2021-08-02T09:09:32.393Z</time>
      </trkpt>
      <trkpt lat="47.04222" lon="9.01909">
        <ele>738</ele>
        <time>2021-08-02T09:09:33.392Z</time>
      </trkpt>
      <trkpt lat="47.04222" lon="9.01907">
        <ele>738</ele>
        <time>2021-08-02T09:09:34.393Z</time>
      </trkpt>
      <trkpt lat="47.04221" lon="9.01905">
        <ele>738</ele>
        <time>2021-08-02T09:09:35.392Z</time>
      </trkpt>
      <trkpt lat="47.04221" lon="9.01904">
        <ele>738</ele>
        <time>2021-08-02T09:09:36.392Z</time>
      </trkpt>
      <trkpt lat="47.04221" lon="9.01903">
        <ele>738</ele>
        <time>2021-08-02T09:09:37.392Z</time>
      </trkpt>
      <trkpt lat="47.04219" lon="9.01902">
        <ele>737</ele>
        <time>2021-08-02T09:09:38.392Z</time>
      </trkpt>
      <trkpt lat="47.04218" lon="9.01902">
        <ele>737</ele>
        <time>2021-08-02T09:09:39.392Z</time>
      </trkpt>
      <trkpt lat="47.04217" lon="9.01901">
        <ele>736</ele>
        <time>2021-08-02T09:09:40.393Z</time>
      </trkpt>
      <trkpt lat="47.04215" lon="9.019">
        <ele>736</ele>
        <time>2021-08-02T09:09:41.392Z</time>
      </trkpt>
      <trkpt lat="47.04214" lon="9.019">
        <ele>735</ele>
        <time>2021-08-02T09:09:42.392Z</time>
      </trkpt>
      <trkpt lat="47.04213" lon="9.019">
        <ele>735</ele>
        <time>2021-08-02T09:09:43.392Z</time>
      </trkpt>
      <trkpt lat="47.04212" lon="9.019">
        <ele>735</ele>
        <time>2021-08-02T09:09:44.392Z</time>
      </trkpt>
      <trkpt lat="47.04212" lon="9.01899">
        <ele>735</ele>
        <time>2021-08-02T09:09:45.393Z</time>
      </trkpt>
      <trkpt lat="47.04213" lon="9.01897">
        <ele>735</ele>
        <time>2021-08-02T09:09:46.392Z</time>
      </trkpt>
      <trkpt lat="47.04213" lon="9.01895">
        <ele>735</ele>
        <time>2021-08-02T09:09:47.392Z</time>
      </trkpt>
      <trkpt lat="47.04214" lon="9.01893">
        <ele>736</ele>
        <time>2021-08-02T09:09:48.392Z</time>
      </trkpt>
      <trkpt lat="47.04214" lon="9.01892">
        <ele>736</ele>
        <time>2021-08-02T09:09:49.392Z</time>
      </trkpt>
      <trkpt lat="47.04214" lon="9.01891">
        <ele>737</ele>
        <time>2021-08-02T09:09:50.392Z</time>
      </trkpt>
      <trkpt lat="47.04213" lon="9.0189">
        <ele>737</ele>
        <time>2021-08-02T09:09:51.392Z</time>
      </trkpt>
      <trkpt lat="47.04213" lon="9.01889">
        <ele>738</ele>
        <time>2021-08-02T09:09:52.392Z</time>
      </trkpt>
      <trkpt lat="47.04213" lon="9.01888">
        <ele>739</ele>
        <time>2021-08-02T09:09:53.393Z</time>
      </trkpt>
      <trkpt lat="47.04212" lon="9.01887">
        <ele>739</ele>
        <time>2021-08-02T09:09:54.392Z</time>
      </trkpt>
      <trkpt lat="47.04212" lon="9.01886">
        <ele>740</ele>
        <time>2021-08-02T09:09:55.392Z</time>
      </trkpt>
      <trkpt lat="47.04212" lon="9.01886">
        <ele>741</ele>
        <time>2021-08-02T09:09:56.392Z</time>
      </trkpt>
      <trkpt lat="47.04212" lon="9.01886">
        <ele>742</ele>
        <time>2021-08-02T09:09:57.392Z</time>
      </trkpt>
      <trkpt lat="47.04212" lon="9.01885">
        <ele>743</ele>
        <time>2021-08-02T09:09:58.393Z</time>
      </trkpt>
      <trkpt lat="47.04211" lon="9.01884">
        <ele>744</ele>
        <time>2021-08-02T09:09:59.393Z</time>
      </trkpt>
      <trkpt lat="47.04211" lon="9.01882">
        <ele>745</ele>
        <time>2021-08-02T09:10:00.393Z</time>
      </trkpt>
      <trkpt lat="47.0421" lon="9.01881">
        <ele>746</ele>
        <time>2021-08-02T09:10:01.393Z</time>
      </trkpt>
      <trkpt lat="47.04209" lon="9.01879">
        <ele>746</ele>
        <time>2021-08-02T09:10:02.392Z</time>
      </trkpt>
      <trkpt lat="47.04209" lon="9.01877">
        <ele>747</ele>
        <time>2021-08-02T09:10:03.393Z</time>
      </trkpt>
      <trkpt lat="47.0421" lon="9.01875">
        <ele>747</ele>
        <time>2021-08-02T09:10:04.393Z</time>
      </trkpt>
      <trkpt lat="47.0421" lon="9.01873">
        <ele>747</ele>
        <time>2021-08-02T09:10:05.393Z</time>
      </trkpt>
      <trkpt lat="47.04209" lon="9.01872">
        <ele>748</ele>
        <time>2021-08-02T09:10:06.393Z</time>
      </trkpt>
      <trkpt lat="47.04208" lon="9.01871">
        <ele>748</ele>
        <time>2021-08-02T09:10:07.393Z</time>
      </trkpt>
      <trkpt lat="47.04207" lon="9.0187">
        <ele>749</ele>
        <time>2021-08-02T09:10:08.393Z</time>
      </trkpt>
      <trkpt lat="47.04206" lon="9.01869">
        <ele>749</ele>
        <time>2021-08-02T09:10:09.393Z</time>
      </trkpt>
      <trkpt lat="47.04205" lon="9.01867">
        <ele>749</ele>
        <time>2021-08-02T09:10:10.393Z</time>
      </trkpt>
      <trkpt lat="47.04204" lon="9.01866">
        <ele>750</ele>
        <time>2021-08-02T09:10:11.392Z</time>
      </trkpt>
      <trkpt lat="47.04203" lon="9.01866">
        <ele>750</ele>
        <time>2021-08-02T09:10:12.392Z</time>
      </trkpt>
      <trkpt lat="47.04203" lon="9.01865">
        <ele>750</ele>
        <time>2021-08-02T09:10:13.393Z</time>
      </trkpt>
      <trkpt lat="47.04203" lon="9.01864">
        <ele>751</ele>
        <time>2021-08-02T09:10:14.393Z</time>
      </trkpt>
      <trkpt lat="47.04203" lon="9.01864">
        <ele>751</ele>
        <time>2021-08-02T09:10:15.393Z</time>
      </trkpt>
      <trkpt lat="47.04203" lon="9.01863">
        <ele>751</ele>
        <time>2021-08-02T09:10:16.393Z</time>
      </trkpt>
      <trkpt lat="47.04204" lon="9.01861">
        <ele>752</ele>
        <time>2021-08-02T09:10:17.393Z</time>
      </trkpt>
      <trkpt lat="47.04204" lon="9.0186">
        <ele>753</ele>
        <time>2021-08-02T09:10:18.393Z</time>
      </trkpt>
      <trkpt lat="47.04203" lon="9.01859">
        <ele>754</ele>
        <time>2021-08-02T09:10:19.393Z</time>
      </trkpt>
      <trkpt lat="47.04202" lon="9.01858">
        <ele>754</ele>
        <time>2021-08-02T09:10:20.393Z</time>
      </trkpt>
      <trkpt lat="47.04201" lon="9.01856">
        <ele>755</ele>
        <time>2021-08-02T09:10:21.393Z</time>
      </trkpt>
      <trkpt lat="47.042" lon="9.01855">
        <ele>756</ele>
        <time>2021-08-02T09:10:22.393Z</time>
      </trkpt>
      <trkpt lat="47.04199" lon="9.01854">
        <ele>756</ele>
        <time>2021-08-02T09:10:23.393Z</time>
      </trkpt>
      <trkpt lat="47.04198" lon="9.01854">
        <ele>757</ele>
        <time>2021-08-02T09:10:24.393Z</time>
      </trkpt>
      <trkpt lat="47.04197" lon="9.01853">
        <ele>758</ele>
        <time>2021-08-02T09:10:25.393Z</time>
      </trkpt>
      <trkpt lat="47.04196" lon="9.01852">
        <ele>758</ele>
        <time>2021-08-02T09:10:26.393Z</time>
      </trkpt>
      <trkpt lat="47.04195" lon="9.01851">
        <ele>759</ele>
        <time>2021-08-02T09:10:27.393Z</time>
      </trkpt>
      <trkpt lat="47.04194" lon="9.01852">
        <ele>759</ele>
        <time>2021-08-02T09:10:28.393Z</time>
      </trkpt>
      <trkpt lat="47.04193" lon="9.01851">
        <ele>760</ele>
        <time>2021-08-02T09:10:29.393Z</time>
      </trkpt>
      <trkpt lat="47.04193" lon="9.01851">
        <ele>760</ele>
        <time>2021-08-02T09:10:30.393Z</time>
      </trkpt>
      <trkpt lat="47.04192" lon="9.0185">
        <ele>760</ele>
        <time>2021-08-02T09:10:31.392Z</time>
      </trkpt>
      <trkpt lat="47.04192" lon="9.0185">
        <ele>760</ele>
        <time>2021-08-02T09:10:32.393Z</time>
      </trkpt>
      <trkpt lat="47.04191" lon="9.01849">
        <ele>760</ele>
        <time>2021-08-02T09:10:33.393Z</time>
      </trkpt>
      <trkpt lat="47.0419" lon="9.01849">
        <ele>760</ele>
        <time>2021-08-02T09:10:34.393Z</time>
      </trkpt>
      <trkpt lat="47.0419" lon="9.01847">
        <ele>760</ele>
        <time>2021-08-02T09:10:35.393Z</time>
      </trkpt>
      <trkpt lat="47.0419" lon="9.01846">
        <ele>760</ele>
        <time>2021-08-02T09:10:36.393Z</time>
      </trkpt>
      <trkpt lat="47.04189" lon="9.01844">
        <ele>760</ele>
        <time>2021-08-02T09:10:37.393Z</time>
      </trkpt>
      <trkpt lat="47.04189" lon="9.01843">
        <ele>760</ele>
        <time>2021-08-02T09:10:38.392Z</time>
      </trkpt>
      <trkpt lat="47.04188" lon="9.01843">
        <ele>760</ele>
        <time>2021-08-02T09:10:39.393Z</time>
      </trkpt>
      <trkpt lat="47.04188" lon="9.01842">
        <ele>760</ele>
        <time>2021-08-02T09:10:40.393Z</time>
      </trkpt>
      <trkpt lat="47.04187" lon="9.01841">
        <ele>760</ele>
        <time>2021-08-02T09:10:41.392Z</time>
      </trkpt>
      <trkpt lat="47.04186" lon="9.0184">
        <ele>760</ele>
        <time>2021-08-02T09:10:42.393Z</time>
      </trkpt>
      <trkpt lat="47.04185" lon="9.01839">
        <ele>760</ele>
        <time>2021-08-02T09:10:43.392Z</time>
      </trkpt>
      <trkpt lat="47.04185" lon="9.01837">
        <ele>760</ele>
        <time>2021-08-02T09:10:44.393Z</time>
      </trkpt>
      <trkpt lat="47.04184" lon="9.01836">
        <ele>760</ele>
        <time>2021-08-02T09:10:45.393Z</time>
      </trkpt>
      <trkpt lat="47.04183" lon="9.01835">
        <ele>761</ele>
        <time>2021-08-02T09:10:46.393Z</time>
      </trkpt>
      <trkpt lat="47.04182" lon="9.01833">
        <ele>761</ele>
        <time>2021-08-02T09:10:47.393Z</time>
      </trkpt>
      <trkpt lat="47.04182" lon="9.01831">
        <ele>761</ele>
        <time>2021-08-02T09:10:48.393Z</time>
      </trkpt>
      <trkpt lat="47.04181" lon="9.0183">
        <ele>761</ele>
        <time>2021-08-02T09:10:49.393Z</time>
      </trkpt>
      <trkpt lat="47.0418" lon="9.01828">
        <ele>760</ele>
        <time>2021-08-02T09:10:50.393Z</time>
      </trkpt>
      <trkpt lat="47.0418" lon="9.01827">
        <ele>760</ele>
        <time>2021-08-02T09:10:51.393Z</time>
      </trkpt>
      <trkpt lat="47.04179" lon="9.01826">
        <ele>760</ele>
        <time>2021-08-02T09:10:52.392Z</time>
      </trkpt>
      <trkpt lat="47.04178" lon="9.01824">
        <ele>759</ele>
        <time>2021-08-02T09:10:53.393Z</time>
      </trkpt>
      <trkpt lat="47.04178" lon="9.01823">
        <ele>759</ele>
        <time>2021-08-02T09:10:54.392Z</time>
      </trkpt>
      <trkpt lat="47.04177" lon="9.01822">
        <ele>759</ele>
        <time>2021-08-02T09:10:55.392Z</time>
      </trkpt>
      <trkpt lat="47.04177" lon="9.01821">
        <ele>759</ele>
        <time>2021-08-02T09:10:56.393Z</time>
      </trkpt>
      <trkpt lat="47.04177" lon="9.0182">
        <ele>759</ele>
        <time>2021-08-02T09:10:57.393Z</time>
      </trkpt>
      <trkpt lat="47.04177" lon="9.01819">
        <ele>759</ele>
        <time>2021-08-02T09:10:58.392Z</time>
      </trkpt>
      <trkpt lat="47.04177" lon="9.01818">
        <ele>759</ele>
        <time>2021-08-02T09:10:59.392Z</time>
      </trkpt>
      <trkpt lat="47.04176" lon="9.01817">
        <ele>759</ele>
        <time>2021-08-02T09:11:00.393Z</time>
      </trkpt>
      <trkpt lat="47.04176" lon="9.01817">
        <ele>759</ele>
        <time>2021-08-02T09:11:01.392Z</time>
      </trkpt>
      <trkpt lat="47.04175" lon="9.01816">
        <ele>758</ele>
        <time>2021-08-02T09:11:02.393Z</time>
      </trkpt>
      <trkpt lat="47.04174" lon="9.01815">
        <ele>758</ele>
        <time>2021-08-02T09:11:03.393Z</time>
      </trkpt>
      <trkpt lat="47.04174" lon="9.01815">
        <ele>757</ele>
        <time>2021-08-02T09:11:04.393Z</time>
      </trkpt>
      <trkpt lat="47.04174" lon="9.01813">
        <ele>757</ele>
        <time>2021-08-02T09:11:05.392Z</time>
      </trkpt>
      <trkpt lat="47.04173" lon="9.01812">
        <ele>757</ele>
        <time>2021-08-02T09:11:06.393Z</time>
      </trkpt>
      <trkpt lat="47.04173" lon="9.0181">
        <ele>757</ele>
        <time>2021-08-02T09:11:07.393Z</time>
      </trkpt>
      <trkpt lat="47.04173" lon="9.01808">
        <ele>757</ele>
        <time>2021-08-02T09:11:08.393Z</time>
      </trkpt>
      <trkpt lat="47.04172" lon="9.01806">
        <ele>757</ele>
        <time>2021-08-02T09:11:09.392Z</time>
      </trkpt>
      <trkpt lat="47.04171" lon="9.01805">
        <ele>756</ele>
        <time>2021-08-02T09:11:10.393Z</time>
      </trkpt>
      <trkpt lat="47.04171" lon="9.01805">
        <ele>756</ele>
        <time>2021-08-02T09:11:11.392Z</time>
      </trkpt>
      <trkpt lat="47.04171" lon="9.01804">
        <ele>755</ele>
        <time>2021-08-02T09:11:12.392Z</time>
      </trkpt>
      <trkpt lat="47.0417" lon="9.01805">
        <ele>755</ele>
        <time>2021-08-02T09:11:13.393Z</time>
      </trkpt>
      <trkpt lat="47.04169" lon="9.01804">
        <ele>754</ele>
        <time>2021-08-02T09:11:14.393Z</time>
      </trkpt>
      <trkpt lat="47.04169" lon="9.01804">
        <ele>754</ele>
        <time>2021-08-02T09:11:15.393Z</time>
      </trkpt>
      <trkpt lat="47.04168" lon="9.01803">
        <ele>754</ele>
        <time>2021-08-02T09:11:16.393Z</time>
      </trkpt>
      <trkpt lat="47.04167" lon="9.01803">
        <ele>754</ele>
        <time>2021-08-02T09:11:17.393Z</time>
      </trkpt>
      <trkpt lat="47.04166" lon="9.01802">
        <ele>754</ele>
        <time>2021-08-02T09:11:18.393Z</time>
      </trkpt>
      <trkpt lat="47.04166" lon="9.01801">
        <ele>754</ele>
        <time>2021-08-02T09:11:19.393Z</time>
      </trkpt>
      <trkpt lat="47.04166" lon="9.01799">
        <ele>755</ele>
        <time>2021-08-02T09:11:20.393Z</time>
      </trkpt>
      <trkpt lat="47.04165" lon="9.01798">
        <ele>755</ele>
        <time>2021-08-02T09:11:21.393Z</time>
      </trkpt>
      <trkpt lat="47.04165" lon="9.01798">
        <ele>756</ele>
        <time>2021-08-02T09:11:22.393Z</time>
      </trkpt>
      <trkpt lat="47.04164" lon="9.01798">
        <ele>757</ele>
        <time>2021-08-02T09:11:23.393Z</time>
      </trkpt>
      <trkpt lat="47.04164" lon="9.01797">
        <ele>757</ele>
        <time>2021-08-02T09:11:24.393Z</time>
      </trkpt>
      <trkpt lat="47.04163" lon="9.01796">
        <ele>757</ele>
        <time>2021-08-02T09:11:25.392Z</time>
      </trkpt>
      <trkpt lat="47.04163" lon="9.01795">
        <ele>757</ele>
        <time>2021-08-02T09:11:26.393Z</time>
      </trkpt>
      <trkpt lat="47.04162" lon="9.01794">
        <ele>757</ele>
        <time>2021-08-02T09:11:27.392Z</time>
      </trkpt>
      <trkpt lat="47.04161" lon="9.01793">
        <ele>756</ele>
        <time>2021-08-02T09:11:28.392Z</time>
      </trkpt>
      <trkpt lat="47.04161" lon="9.01793">
        <ele>756</ele>
        <time>2021-08-02T09:11:29.393Z</time>
      </trkpt>
      <trkpt lat="47.0416" lon="9.01792">
        <ele>756</ele>
        <time>2021-08-02T09:11:30.393Z</time>
      </trkpt>
      <trkpt lat="47.0416" lon="9.01791">
        <ele>756</ele>
        <time>2021-08-02T09:11:31.393Z</time>
      </trkpt>
      <trkpt lat="47.04159" lon="9.01791">
        <ele>757</ele>
        <time>2021-08-02T09:11:32.393Z</time>
      </trkpt>
      <trkpt lat="47.04159" lon="9.0179">
        <ele>757</ele>
        <time>2021-08-02T09:11:33.393Z</time>
      </trkpt>
      <trkpt lat="47.04158" lon="9.0179">
        <ele>757</ele>
        <time>2021-08-02T09:11:34.393Z</time>
      </trkpt>
      <trkpt lat="47.04158" lon="9.01789">
        <ele>757</ele>
        <time>2021-08-02T09:11:35.393Z</time>
      </trkpt>
      <trkpt lat="47.04157" lon="9.01788">
        <ele>757</ele>
        <time>2021-08-02T09:11:36.393Z</time>
      </trkpt>
      <trkpt lat="47.04157" lon="9.01787">
        <ele>758</ele>
        <time>2021-08-02T09:11:37.392Z</time>
      </trkpt>
      <trkpt lat="47.04156" lon="9.01787">
        <ele>758</ele>
        <time>2021-08-02T09:11:38.393Z</time>
      </trkpt>
      <trkpt lat="47.04156" lon="9.01787">
        <ele>758</ele>
        <time>2021-08-02T09:11:39.393Z</time>
      </trkpt>
      <trkpt lat="47.04155" lon="9.01786">
        <ele>758</ele>
        <time>2021-08-02T09:11:40.392Z</time>
      </trkpt>
      <trkpt lat="47.04154" lon="9.01786">
        <ele>759</ele>
        <time>2021-08-02T09:11:41.393Z</time>
      </trkpt>
      <trkpt lat="47.04153" lon="9.01786">
        <ele>759</ele>
        <time>2021-08-02T09:11:42.392Z</time>
      </trkpt>
      <trkpt lat="47.04152" lon="9.01785">
        <ele>759</ele>
        <time>2021-08-02T09:11:43.392Z</time>
      </trkpt>
      <trkpt lat="47.04151" lon="9.01785">
        <ele>759</ele>
        <time>2021-08-02T09:11:44.393Z</time>
      </trkpt>
      <trkpt lat="47.0415" lon="9.01785">
        <ele>759</ele>
        <time>2021-08-02T09:11:45.393Z</time>
      </trkpt>
      <trkpt lat="47.04149" lon="9.01784">
        <ele>760</ele>
        <time>2021-08-02T09:11:46.392Z</time>
      </trkpt>
      <trkpt lat="47.04148" lon="9.01784">
        <ele>760</ele>
        <time>2021-08-02T09:11:47.393Z</time>
      </trkpt>
      <trkpt lat="47.04147" lon="9.01784">
        <ele>759</ele>
        <time>2021-08-02T09:11:48.392Z</time>
      </trkpt>
      <trkpt lat="47.04146" lon="9.01784">
        <ele>759</ele>
        <time>2021-08-02T09:11:49.393Z</time>
      </trkpt>
      <trkpt lat="47.04145" lon="9.01785">
        <ele>759</ele>
        <time>2021-08-02T09:11:50.393Z</time>
      </trkpt>
      <trkpt lat="47.04144" lon="9.01785">
        <ele>759</ele>
        <time>2021-08-02T09:11:51.393Z</time>
      </trkpt>
      <trkpt lat="47.04143" lon="9.01784">
        <ele>759</ele>
        <time>2021-08-02T09:11:52.393Z</time>
      </trkpt>
      <trkpt lat="47.04142" lon="9.01784">
        <ele>759</ele>
        <time>2021-08-02T09:11:53.393Z</time>
      </trkpt>
      <trkpt lat="47.04142" lon="9.01783">
        <ele>759</ele>
        <time>2021-08-02T09:11:54.393Z</time>
      </trkpt>
      <trkpt lat="47.04141" lon="9.01782">
        <ele>759</ele>
        <time>2021-08-02T09:11:55.393Z</time>
      </trkpt>
      <trkpt lat="47.0414" lon="9.01781">
        <ele>759</ele>
        <time>2021-08-02T09:11:56.392Z</time>
      </trkpt>
      <trkpt lat="47.0414" lon="9.01781">
        <ele>759</ele>
        <time>2021-08-02T09:11:57.392Z</time>
      </trkpt>
      <trkpt lat="47.04139" lon="9.0178">
        <ele>759</ele>
        <time>2021-08-02T09:11:58.393Z</time>
      </trkpt>
      <trkpt lat="47.04138" lon="9.01778">
        <ele>759</ele>
        <time>2021-08-02T09:11:59.393Z</time>
      </trkpt>
      <trkpt lat="47.04138" lon="9.01777">
        <ele>759</ele>
        <time>2021-08-02T09:12:00.392Z</time>
      </trkpt>
      <trkpt lat="47.04137" lon="9.01775">
        <ele>759</ele>
        <time>2021-08-02T09:12:01.393Z</time>
      </trkpt>
      <trkpt lat="47.04136" lon="9.01774">
        <ele>759</ele>
        <time>2021-08-02T09:12:02.392Z</time>
      </trkpt>
      <trkpt lat="47.04136" lon="9.01774">
        <ele>759</ele>
        <time>2021-08-02T09:12:03.392Z</time>
      </trkpt>
      <trkpt lat="47.04135" lon="9.01773">
        <ele>759</ele>
        <time>2021-08-02T09:12:04.392Z</time>
      </trkpt>
      <trkpt lat="47.04135" lon="9.01772">
        <ele>759</ele>
        <time>2021-08-02T09:12:05.393Z</time>
      </trkpt>
      <trkpt lat="47.04134" lon="9.0177">
        <ele>758</ele>
        <time>2021-08-02T09:12:06.392Z</time>
      </trkpt>
      <trkpt lat="47.04132" lon="9.0177">
        <ele>758</ele>
        <time>2021-08-02T09:12:07.393Z</time>
      </trkpt>
      <trkpt lat="47.04131" lon="9.01769">
        <ele>758</ele>
        <time>2021-08-02T09:12:08.392Z</time>
      </trkpt>
      <trkpt lat="47.04131" lon="9.01768">
        <ele>758</ele>
        <time>2021-08-02T09:12:09.393Z</time>
      </trkpt>
      <trkpt lat="47.0413" lon="9.01768">
        <ele>758</ele>
        <time>2021-08-02T09:12:10.393Z</time>
      </trkpt>
      <trkpt lat="47.0413" lon="9.01767">
        <ele>758</ele>
        <time>2021-08-02T09:12:11.392Z</time>
      </trkpt>
      <trkpt lat="47.04129" lon="9.01767">
        <ele>758</ele>
        <time>2021-08-02T09:12:12.393Z</time>
      </trkpt>
      <trkpt lat="47.04128" lon="9.01766">
        <ele>757</ele>
        <time>2021-08-02T09:12:13.393Z</time>
      </trkpt>
      <trkpt lat="47.04127" lon="9.01765">
        <ele>757</ele>
        <time>2021-08-02T09:12:14.393Z</time>
      </trkpt>
      <trkpt lat="47.04127" lon="9.01764">
        <ele>757</ele>
        <time>2021-08-02T09:12:15.393Z</time>
      </trkpt>
      <trkpt lat="47.04126" lon="9.01763">
        <ele>757</ele>
        <time>2021-08-02T09:12:16.392Z</time>
      </trkpt>
      <trkpt lat="47.04125" lon="9.01762">
        <ele>758</ele>
        <time>2021-08-02T09:12:17.393Z</time>
      </trkpt>
      <trkpt lat="47.04124" lon="9.0176">
        <ele>758</ele>
        <time>2021-08-02T09:12:18.393Z</time>
      </trkpt>
      <trkpt lat="47.04123" lon="9.01759">
        <ele>759</ele>
        <time>2021-08-02T09:12:19.393Z</time>
      </trkpt>
      <trkpt lat="47.04124" lon="9.01758">
        <ele>760</ele>
        <time>2021-08-02T09:12:20.393Z</time>
      </trkpt>
      <trkpt lat="47.04124" lon="9.01757">
        <ele>760</ele>
        <time>2021-08-02T09:12:21.392Z</time>
      </trkpt>
      <trkpt lat="47.04124" lon="9.01757">
        <ele>760</ele>
        <time>2021-08-02T09:12:22.392Z</time>
      </trkpt>
      <trkpt lat="47.04123" lon="9.01756">
        <ele>760</ele>
        <time>2021-08-02T09:12:23.392Z</time>
      </trkpt>
      <trkpt lat="47.04123" lon="9.01756">
        <ele>760</ele>
        <time>2021-08-02T09:12:24.392Z</time>
      </trkpt>
      <trkpt lat="47.04122" lon="9.01755">
        <ele>760</ele>
        <time>2021-08-02T09:12:25.393Z</time>
      </trkpt>
      <trkpt lat="47.04121" lon="9.01754">
        <ele>760</ele>
        <time>2021-08-02T09:12:26.393Z</time>
      </trkpt>
      <trkpt lat="47.04121" lon="9.01754">
        <ele>760</ele>
        <time>2021-08-02T09:12:27.393Z</time>
      </trkpt>
      <trkpt lat="47.04121" lon="9.01753">
        <ele>761</ele>
        <time>2021-08-02T09:12:28.393Z</time>
      </trkpt>
      <trkpt lat="47.0412" lon="9.01752">
        <ele>761</ele>
        <time>2021-08-02T09:12:29.393Z</time>
      </trkpt>
      <trkpt lat="47.04119" lon="9.01751">
        <ele>761</ele>
        <time>2021-08-02T09:12:30.392Z</time>
      </trkpt>
      <trkpt lat="47.04118" lon="9.01751">
        <ele>761</ele>
        <time>2021-08-02T09:12:31.393Z</time>
      </trkpt>
      <trkpt lat="47.04117" lon="9.0175">
        <ele>762</ele>
        <time>2021-08-02T09:12:32.393Z</time>
      </trkpt>
      <trkpt lat="47.04116" lon="9.0175">
        <ele>762</ele>
        <time>2021-08-02T09:12:33.392Z</time>
      </trkpt>
      <trkpt lat="47.04114" lon="9.01749">
        <ele>763</ele>
        <time>2021-08-02T09:12:34.393Z</time>
      </trkpt>
      <trkpt lat="47.04113" lon="9.01749">
        <ele>763</ele>
        <time>2021-08-02T09:12:35.393Z</time>
      </trkpt>
      <trkpt lat="47.04113" lon="9.01748">
        <ele>764</ele>
        <time>2021-08-02T09:12:36.393Z</time>
      </trkpt>
      <trkpt lat="47.04112" lon="9.01748">
        <ele>764</ele>
        <time>2021-08-02T09:12:37.392Z</time>
      </trkpt>
      <trkpt lat="47.04111" lon="9.01748">
        <ele>764</ele>
        <time>2021-08-02T09:12:38.393Z</time>
      </trkpt>
      <trkpt lat="47.0411" lon="9.01747">
        <ele>764</ele>
        <time>2021-08-02T09:12:39.392Z</time>
      </trkpt>
      <trkpt lat="47.0411" lon="9.01747">
        <ele>764</ele>
        <time>2021-08-02T09:12:40.393Z</time>
      </trkpt>
      <trkpt lat="47.0411" lon="9.01747">
        <ele>764</ele>
        <time>2021-08-02T09:12:41.392Z</time>
      </trkpt>
      <trkpt lat="47.04109" lon="9.01747">
        <ele>764</ele>
        <time>2021-08-02T09:12:42.393Z</time>
      </trkpt>
      <trkpt lat="47.04109" lon="9.01747">
        <ele>764</ele>
        <time>2021-08-02T09:12:43.393Z</time>
      </trkpt>
      <trkpt lat="47.04108" lon="9.01747">
        <ele>764</ele>
        <time>2021-08-02T09:12:44.393Z</time>
      </trkpt>
      <trkpt lat="47.04107" lon="9.01747">
        <ele>764</ele>
        <time>2021-08-02T09:12:45.393Z</time>
      </trkpt>
      <trkpt lat="47.04106" lon="9.01746">
        <ele>764</ele>
        <time>2021-08-02T09:12:46.392Z</time>
      </trkpt>
      <trkpt lat="47.04106" lon="9.01745">
        <ele>764</ele>
        <time>2021-08-02T09:12:47.392Z</time>
      </trkpt>
      <trkpt lat="47.04106" lon="9.01744">
        <ele>764</ele>
        <time>2021-08-02T09:12:48.393Z</time>
      </trkpt>
      <trkpt lat="47.04106" lon="9.01743">
        <ele>764</ele>
        <time>2021-08-02T09:12:49.393Z</time>
      </trkpt>
      <trkpt lat="47.04105" lon="9.01742">
        <ele>764</ele>
        <time>2021-08-02T09:12:50.392Z</time>
      </trkpt>
      <trkpt lat="47.04104" lon="9.01741">
        <ele>764</ele>
        <time>2021-08-02T09:12:51.393Z</time>
      </trkpt>
      <trkpt lat="47.04104" lon="9.0174">
        <ele>764</ele>
        <time>2021-08-02T09:12:52.392Z</time>
      </trkpt>
      <trkpt lat="47.04103" lon="9.0174">
        <ele>764</ele>
        <time>2021-08-02T09:12:53.393Z</time>
      </trkpt>
      <trkpt lat="47.04103" lon="9.01739">
        <ele>764</ele>
        <time>2021-08-02T09:12:54.393Z</time>
      </trkpt>
      <trkpt lat="47.04103" lon="9.01738">
        <ele>764</ele>
        <time>2021-08-02T09:12:55.392Z</time>
      </trkpt>
      <trkpt lat="47.04103" lon="9.01737">
        <ele>764</ele>
        <time>2021-08-02T09:12:56.392Z</time>
      </trkpt>
      <trkpt lat="47.04103" lon="9.01736">
        <ele>764</ele>
        <time>2021-08-02T09:12:57.392Z</time>
      </trkpt>
      <trkpt lat="47.04103" lon="9.01735">
        <ele>765</ele>
        <time>2021-08-02T09:12:58.392Z</time>
      </trkpt>
      <trkpt lat="47.04103" lon="9.01734">
        <ele>765</ele>
        <time>2021-08-02T09:12:59.393Z</time>
      </trkpt>
      <trkpt lat="47.04103" lon="9.01733">
        <ele>765</ele>
        <time>2021-08-02T09:13:00.393Z</time>
      </trkpt>
      <trkpt lat="47.04103" lon="9.01732">
        <ele>766</ele>
        <time>2021-08-02T09:13:01.393Z</time>
      </trkpt>
      <trkpt lat="47.04103" lon="9.01731">
        <ele>766</ele>
        <time>2021-08-02T09:13:02.393Z</time>
      </trkpt>
      <trkpt lat="47.04103" lon="9.01729">
        <ele>767</ele>
        <time>2021-08-02T09:13:03.393Z</time>
      </trkpt>
      <trkpt lat="47.04103" lon="9.01729">
        <ele>767</ele>
        <time>2021-08-02T09:13:04.393Z</time>
      </trkpt>
      <trkpt lat="47.04103" lon="9.01727">
        <ele>768</ele>
        <time>2021-08-02T09:13:05.392Z</time>
      </trkpt>
      <trkpt lat="47.04103" lon="9.01726">
        <ele>768</ele>
        <time>2021-08-02T09:13:06.392Z</time>
      </trkpt>
      <trkpt lat="47.04104" lon="9.01726">
        <ele>769</ele>
        <time>2021-08-02T09:13:07.393Z</time>
      </trkpt>
      <trkpt lat="47.04105" lon="9.01725">
        <ele>770</ele>
        <time>2021-08-02T09:13:08.393Z</time>
      </trkpt>
      <trkpt lat="47.04105" lon="9.01724">
        <ele>770</ele>
        <time>2021-08-02T09:13:09.393Z</time>
      </trkpt>
      <trkpt lat="47.04106" lon="9.01723">
        <ele>771</ele>
        <time>2021-08-02T09:13:10.393Z</time>
      </trkpt>
      <trkpt lat="47.04105" lon="9.01722">
        <ele>772</ele>
        <time>2021-08-02T09:13:11.393Z</time>
      </trkpt>
      <trkpt lat="47.04105" lon="9.0172">
        <ele>772</ele>
        <time>2021-08-02T09:13:12.393Z</time>
      </trkpt>
      <trkpt lat="47.04105" lon="9.0172">
        <ele>771</ele>
        <time>2021-08-02T09:13:13.392Z</time>
      </trkpt>
      <trkpt lat="47.04105" lon="9.01719">
        <ele>771</ele>
        <time>2021-08-02T09:13:14.392Z</time>
      </trkpt>
      <trkpt lat="47.04105" lon="9.01717">
        <ele>771</ele>
        <time>2021-08-02T09:13:15.393Z</time>
      </trkpt>
      <trkpt lat="47.04105" lon="9.01716">
        <ele>770</ele>
        <time>2021-08-02T09:13:16.393Z</time>
      </trkpt>
      <trkpt lat="47.04104" lon="9.01715">
        <ele>769</ele>
        <time>2021-08-02T09:13:17.392Z</time>
      </trkpt>
      <trkpt lat="47.04103" lon="9.01713">
        <ele>769</ele>
        <time>2021-08-02T09:13:18.392Z</time>
      </trkpt>
      <trkpt lat="47.04103" lon="9.01712">
        <ele>769</ele>
        <time>2021-08-02T09:13:19.393Z</time>
      </trkpt>
      <trkpt lat="47.04102" lon="9.0171">
        <ele>769</ele>
        <time>2021-08-02T09:13:20.393Z</time>
      </trkpt>
      <trkpt lat="47.04101" lon="9.01709">
        <ele>769</ele>
        <time>2021-08-02T09:13:21.392Z</time>
      </trkpt>
      <trkpt lat="47.041" lon="9.01708">
        <ele>769</ele>
        <time>2021-08-02T09:13:22.393Z</time>
      </trkpt>
      <trkpt lat="47.04099" lon="9.01707">
        <ele>769</ele>
        <time>2021-08-02T09:13:23.393Z</time>
      </trkpt>
      <trkpt lat="47.04099" lon="9.01706">
        <ele>769</ele>
        <time>2021-08-02T09:13:24.393Z</time>
      </trkpt>
      <trkpt lat="47.04097" lon="9.01705">
        <ele>770</ele>
        <time>2021-08-02T09:13:25.393Z</time>
      </trkpt>
      <trkpt lat="47.04096" lon="9.01704">
        <ele>770</ele>
        <time>2021-08-02T09:13:26.393Z</time>
      </trkpt>
      <trkpt lat="47.04095" lon="9.01703">
        <ele>771</ele>
        <time>2021-08-02T09:13:27.392Z</time>
      </trkpt>
      <trkpt lat="47.04094" lon="9.01702">
        <ele>771</ele>
        <time>2021-08-02T09:13:28.392Z</time>
      </trkpt>
      <trkpt lat="47.04093" lon="9.01701">
        <ele>771</ele>
        <time>2021-08-02T09:13:29.393Z</time>
      </trkpt>
      <trkpt lat="47.04093" lon="9.017">
        <ele>772</ele>
        <time>2021-08-02T09:13:30.392Z</time>
      </trkpt>
      <trkpt lat="47.04092" lon="9.01698">
        <ele>772</ele>
        <time>2021-08-02T09:13:31.393Z</time>
      </trkpt>
      <trkpt lat="47.04092" lon="9.01697">
        <ele>772</ele>
        <time>2021-08-02T09:13:32.392Z</time>
      </trkpt>
      <trkpt lat="47.04091" lon="9.01697">
        <ele>772</ele>
        <time>2021-08-02T09:13:33.392Z</time>
      </trkpt>
      <trkpt lat="47.04091" lon="9.01696">
        <ele>771</ele>
        <time>2021-08-02T09:13:34.392Z</time>
      </trkpt>
      <trkpt lat="47.0409" lon="9.01695">
        <ele>771</ele>
        <time>2021-08-02T09:13:35.393Z</time>
      </trkpt>
      <trkpt lat="47.0409" lon="9.01696">
        <ele>770</ele>
        <time>2021-08-02T09:13:36.393Z</time>
      </trkpt>
      <trkpt lat="47.04088" lon="9.01697">
        <ele>769</ele>
        <time>2021-08-02T09:13:37.393Z</time>
      </trkpt>
      <trkpt lat="47.04088" lon="9.01697">
        <ele>769</ele>
        <time>2021-08-02T09:13:38.393Z</time>
      </trkpt>
      <trkpt lat="47.04088" lon="9.01696">
        <ele>769</ele>
        <time>2021-08-02T09:13:39.392Z</time>
      </trkpt>
      <trkpt lat="47.04088" lon="9.01694">
        <ele>769</ele>
        <time>2021-08-02T09:13:40.392Z</time>
      </trkpt>
      <trkpt lat="47.04088" lon="9.01693">
        <ele>769</ele>
        <time>2021-08-02T09:13:41.393Z</time>
      </trkpt>
      <trkpt lat="47.04088" lon="9.01693">
        <ele>768</ele>
        <time>2021-08-02T09:13:42.392Z</time>
      </trkpt>
      <trkpt lat="47.04088" lon="9.01693">
        <ele>768</ele>
        <time>2021-08-02T09:13:43.392Z</time>
      </trkpt>
      <trkpt lat="47.04086" lon="9.01693">
        <ele>768</ele>
        <time>2021-08-02T09:13:44.392Z</time>
      </trkpt>
      <trkpt lat="47.04085" lon="9.01692">
        <ele>768</ele>
        <time>2021-08-02T09:13:45.393Z</time>
      </trkpt>
      <trkpt lat="47.04084" lon="9.01691">
        <ele>767</ele>
        <time>2021-08-02T09:13:46.393Z</time>
      </trkpt>
      <trkpt lat="47.04084" lon="9.01691">
        <ele>767</ele>
        <time>2021-08-02T09:13:47.392Z</time>
      </trkpt>
      <trkpt lat="47.04084" lon="9.0169">
        <ele>767</ele>
        <time>2021-08-02T09:13:48.392Z</time>
      </trkpt>
      <trkpt lat="47.04084" lon="9.0169">
        <ele>766</ele>
        <time>2021-08-02T09:13:49.392Z</time>
      </trkpt>
      <trkpt lat="47.04083" lon="9.01689">
        <ele>766</ele>
        <time>2021-08-02T09:13:50.392Z</time>
      </trkpt>
      <trkpt lat="47.04083" lon="9.01688">
        <ele>765</ele>
        <time>2021-08-02T09:13:51.393Z</time>
      </trkpt>
      <trkpt lat="47.04082" lon="9.01688">
        <ele>765</ele>
        <time>2021-08-02T09:13:52.392Z</time>
      </trkpt>
      <trkpt lat="47.04082" lon="9.01687">
        <ele>765</ele>
        <time>2021-08-02T09:13:53.393Z</time>
      </trkpt>
      <trkpt lat="47.04082" lon="9.01687">
        <ele>765</ele>
        <time>2021-08-02T09:13:54.393Z</time>
      </trkpt>
      <trkpt lat="47.04082" lon="9.01687">
        <ele>766</ele>
        <time>2021-08-02T09:13:55.392Z</time>
      </trkpt>
      <trkpt lat="47.04082" lon="9.01686">
        <ele>766</ele>
        <time>2021-08-02T09:13:56.393Z</time>
      </trkpt>
      <trkpt lat="47.04081" lon="9.01686">
        <ele>767</ele>
        <time>2021-08-02T09:13:57.392Z</time>
      </trkpt>
      <trkpt lat="47.04081" lon="9.01685">
        <ele>768</ele>
        <time>2021-08-02T09:13:58.392Z</time>
      </trkpt>
      <trkpt lat="47.04081" lon="9.01685">
        <ele>769</ele>
        <time>2021-08-02T09:13:59.392Z</time>
      </trkpt>
      <trkpt lat="47.0408" lon="9.01684">
        <ele>769</ele>
        <time>2021-08-02T09:14:00.392Z</time>
      </trkpt>
      <trkpt lat="47.0408" lon="9.01684">
        <ele>770</ele>
        <time>2021-08-02T09:14:01.393Z</time>
      </trkpt>
      <trkpt lat="47.04079" lon="9.01683">
        <ele>770</ele>
        <time>2021-08-02T09:14:02.393Z</time>
      </trkpt>
      <trkpt lat="47.04079" lon="9.01683">
        <ele>770</ele>
        <time>2021-08-02T09:14:03.393Z</time>
      </trkpt>
      <trkpt lat="47.04079" lon="9.01683">
        <ele>770</ele>
        <time>2021-08-02T09:14:04.392Z</time>
      </trkpt>
      <trkpt lat="47.04079" lon="9.01681">
        <ele>771</ele>
        <time>2021-08-02T09:14:05.393Z</time>
      </trkpt>
      <trkpt lat="47.04079" lon="9.0168">
        <ele>771</ele>
        <time>2021-08-02T09:14:06.393Z</time>
      </trkpt>
      <trkpt lat="47.0408" lon="9.01679">
        <ele>771</ele>
        <time>2021-08-02T09:14:07.393Z</time>
      </trkpt>
      <trkpt lat="47.0408" lon="9.01677">
        <ele>772</ele>
        <time>2021-08-02T09:14:08.392Z</time>
      </trkpt>
      <trkpt lat="47.0408" lon="9.01675">
        <ele>772</ele>
        <time>2021-08-02T09:14:09.392Z</time>
      </trkpt>
      <trkpt lat="47.04079" lon="9.01674">
        <ele>772</ele>
        <time>2021-08-02T09:14:10.393Z</time>
      </trkpt>
      <trkpt lat="47.04079" lon="9.01674">
        <ele>772</ele>
        <time>2021-08-02T09:14:11.393Z</time>
      </trkpt>
      <trkpt lat="47.04078" lon="9.01675">
        <ele>772</ele>
        <time>2021-08-02T09:14:12.393Z</time>
      </trkpt>
      <trkpt lat="47.04075" lon="9.01672">
        <ele>771</ele>
        <time>2021-08-02T09:14:13.393Z</time>
      </trkpt>
      <trkpt lat="47.04075" lon="9.01672">
        <ele>771</ele>
        <time>2021-08-02T09:14:14.393Z</time>
      </trkpt>
      <trkpt lat="47.04076" lon="9.01673">
        <ele>770</ele>
        <time>2021-08-02T09:14:15.393Z</time>
      </trkpt>
      <trkpt lat="47.04074" lon="9.01672">
        <ele>770</ele>
        <time>2021-08-02T09:14:16.393Z</time>
      </trkpt>
      <trkpt lat="47.04075" lon="9.01671">
        <ele>770</ele>
        <time>2021-08-02T09:14:17.394Z</time>
      </trkpt>
      <trkpt lat="47.04075" lon="9.01671">
        <ele>770</ele>
        <time>2021-08-02T09:14:18.393Z</time>
      </trkpt>
      <trkpt lat="47.04076" lon="9.0167">
        <ele>771</ele>
        <time>2021-08-02T09:14:19.393Z</time>
      </trkpt>
      <trkpt lat="47.04075" lon="9.01669">
        <ele>771</ele>
        <time>2021-08-02T09:14:20.395Z</time>
      </trkpt>
      <trkpt lat="47.04075" lon="9.01668">
        <ele>772</ele>
        <time>2021-08-02T09:14:21.395Z</time>
      </trkpt>
      <trkpt lat="47.04075" lon="9.01667">
        <ele>772</ele>
        <time>2021-08-02T09:14:22.394Z</time>
      </trkpt>
      <trkpt lat="47.04074" lon="9.01666">
        <ele>773</ele>
        <time>2021-08-02T09:14:23.395Z</time>
      </trkpt>
      <trkpt lat="47.04073" lon="9.01666">
        <ele>773</ele>
        <time>2021-08-02T09:14:24.394Z</time>
      </trkpt>
      <trkpt lat="47.04073" lon="9.01666">
        <ele>774</ele>
        <time>2021-08-02T09:14:25.394Z</time>
      </trkpt>
      <trkpt lat="47.04073" lon="9.01666">
        <ele>775</ele>
        <time>2021-08-02T09:14:26.394Z</time>
      </trkpt>
      <trkpt lat="47.04072" lon="9.01662">
        <ele>775</ele>
        <time>2021-08-02T09:14:27.395Z</time>
      </trkpt>
      <trkpt lat="47.04071" lon="9.01661">
        <ele>775</ele>
        <time>2021-08-02T09:14:28.395Z</time>
      </trkpt>
      <trkpt lat="47.0407" lon="9.0166">
        <ele>775</ele>
        <time>2021-08-02T09:14:29.394Z</time>
      </trkpt>
      <trkpt lat="47.04069" lon="9.0166">
        <ele>774</ele>
        <time>2021-08-02T09:14:30.394Z</time>
      </trkpt>
      <trkpt lat="47.04069" lon="9.01659">
        <ele>774</ele>
        <time>2021-08-02T09:14:31.394Z</time>
      </trkpt>
      <trkpt lat="47.04067" lon="9.01657">
        <ele>774</ele>
        <time>2021-08-02T09:14:32.394Z</time>
      </trkpt>
      <trkpt lat="47.04065" lon="9.01656">
        <ele>773</ele>
        <time>2021-08-02T09:14:33.394Z</time>
      </trkpt>
      <trkpt lat="47.04063" lon="9.01655">
        <ele>773</ele>
        <time>2021-08-02T09:14:34.395Z</time>
      </trkpt>
      <trkpt lat="47.04061" lon="9.01654">
        <ele>772</ele>
        <time>2021-08-02T09:14:35.395Z</time>
      </trkpt>
      <trkpt lat="47.04061" lon="9.01653">
        <ele>771</ele>
        <time>2021-08-02T09:14:36.394Z</time>
      </trkpt>
      <trkpt lat="47.04061" lon="9.01652">
        <ele>770</ele>
        <time>2021-08-02T09:14:37.395Z</time>
      </trkpt>
      <trkpt lat="47.0406" lon="9.01652">
        <ele>770</ele>
        <time>2021-08-02T09:14:38.394Z</time>
      </trkpt>
      <trkpt lat="47.04058" lon="9.01654">
        <ele>755</ele>
        <time>2021-08-02T09:14:39.395Z</time>
      </trkpt>
      <trkpt lat="47.04058" lon="9.01654">
        <ele>754</ele>
        <time>2021-08-02T09:14:40.394Z</time>
      </trkpt>
      <trkpt lat="47.04061" lon="9.01655">
        <ele>750</ele>
        <time>2021-08-02T09:14:41.394Z</time>
      </trkpt>
      <trkpt lat="47.04061" lon="9.01655">
        <ele>749</ele>
        <time>2021-08-02T09:14:42.395Z</time>
      </trkpt>
      <trkpt lat="47.04061" lon="9.01655">
        <ele>748</ele>
        <time>2021-08-02T09:14:43.394Z</time>
      </trkpt>
      <trkpt lat="47.04061" lon="9.01655">
        <ele>748</ele>
        <time>2021-08-02T09:14:44.395Z</time>
      </trkpt>
      <trkpt lat="47.04061" lon="9.01655">
        <ele>747</ele>
        <time>2021-08-02T09:14:45.395Z</time>
      </trkpt>
      <trkpt lat="47.04061" lon="9.01654">
        <ele>746</ele>
        <time>2021-08-02T09:14:46.395Z</time>
      </trkpt>
      <trkpt lat="47.04061" lon="9.01654">
        <ele>745</ele>
        <time>2021-08-02T09:14:47.395Z</time>
      </trkpt>
      <trkpt lat="47.04061" lon="9.01655">
        <ele>744</ele>
        <time>2021-08-02T09:14:48.395Z</time>
      </trkpt>
      <trkpt lat="47.04061" lon="9.01655">
        <ele>743</ele>
        <time>2021-08-02T09:14:49.395Z</time>
      </trkpt>
      <trkpt lat="47.04061" lon="9.01654">
        <ele>743</ele>
        <time>2021-08-02T09:14:50.395Z</time>
      </trkpt>
      <trkpt lat="47.04061" lon="9.0165">
        <ele>744</ele>
        <time>2021-08-02T09:14:51.394Z</time>
      </trkpt>
      <trkpt lat="47.04062" lon="9.0165">
        <ele>745</ele>
        <time>2021-08-02T09:14:52.394Z</time>
      </trkpt>
      <trkpt lat="47.04063" lon="9.01649">
        <ele>746</ele>
        <time>2021-08-02T09:14:53.394Z</time>
      </trkpt>
      <trkpt lat="47.04064" lon="9.01648">
        <ele>747</ele>
        <time>2021-08-02T09:14:54.395Z</time>
      </trkpt>
      <trkpt lat="47.04065" lon="9.01646">
        <ele>748</ele>
        <time>2021-08-02T09:14:55.395Z</time>
      </trkpt>
      <trkpt lat="47.04065" lon="9.01644">
        <ele>749</ele>
        <time>2021-08-02T09:14:56.395Z</time>
      </trkpt>
      <trkpt lat="47.04065" lon="9.01643">
        <ele>750</ele>
        <time>2021-08-02T09:14:57.395Z</time>
      </trkpt>
      <trkpt lat="47.04064" lon="9.01642">
        <ele>751</ele>
        <time>2021-08-02T09:14:58.395Z</time>
      </trkpt>
      <trkpt lat="47.04064" lon="9.01641">
        <ele>753</ele>
        <time>2021-08-02T09:14:59.394Z</time>
      </trkpt>
      <trkpt lat="47.04064" lon="9.01641">
        <ele>754</ele>
        <time>2021-08-02T09:15:00.394Z</time>
      </trkpt>
      <trkpt lat="47.04063" lon="9.0164">
        <ele>755</ele>
        <time>2021-08-02T09:15:01.395Z</time>
      </trkpt>
      <trkpt lat="47.04062" lon="9.01639">
        <ele>756</ele>
        <time>2021-08-02T09:15:02.394Z</time>
      </trkpt>
      <trkpt lat="47.04062" lon="9.01639">
        <ele>757</ele>
        <time>2021-08-02T09:15:03.394Z</time>
      </trkpt>
      <trkpt lat="47.04062" lon="9.01638">
        <ele>759</ele>
        <time>2021-08-02T09:15:04.395Z</time>
      </trkpt>
      <trkpt lat="47.04061" lon="9.01637">
        <ele>760</ele>
        <time>2021-08-02T09:15:05.394Z</time>
      </trkpt>
      <trkpt lat="47.04061" lon="9.01637">
        <ele>762</ele>
        <time>2021-08-02T09:15:06.394Z</time>
      </trkpt>
      <trkpt lat="47.04061" lon="9.01637">
        <ele>763</ele>
        <time>2021-08-02T09:15:07.394Z</time>
      </trkpt>
      <trkpt lat="47.0406" lon="9.01636">
        <ele>765</ele>
        <time>2021-08-02T09:15:08.394Z</time>
      </trkpt>
      <trkpt lat="47.0406" lon="9.01637">
        <ele>765</ele>
        <time>2021-08-02T09:15:09.394Z</time>
      </trkpt>
      <trkpt lat="47.04063" lon="9.01637">
        <ele>768</ele>
        <time>2021-08-02T09:15:10.395Z</time>
      </trkpt>
      <trkpt lat="47.04064" lon="9.01636">
        <ele>769</ele>
        <time>2021-08-02T09:15:11.394Z</time>
      </trkpt>
      <trkpt lat="47.04065" lon="9.01635">
        <ele>770</ele>
        <time>2021-08-02T09:15:12.394Z</time>
      </trkpt>
      <trkpt lat="47.04065" lon="9.01634">
        <ele>771</ele>
        <time>2021-08-02T09:15:13.395Z</time>
      </trkpt>
      <trkpt lat="47.04066" lon="9.01633">
        <ele>772</ele>
        <time>2021-08-02T09:15:14.394Z</time>
      </trkpt>
      <trkpt lat="47.04066" lon="9.01631">
        <ele>773</ele>
        <time>2021-08-02T09:15:15.395Z</time>
      </trkpt>
      <trkpt lat="47.04065" lon="9.0163">
        <ele>773</ele>
        <time>2021-08-02T09:15:16.395Z</time>
      </trkpt>
      <trkpt lat="47.04066" lon="9.01628">
        <ele>774</ele>
        <time>2021-08-02T09:15:17.395Z</time>
      </trkpt>
      <trkpt lat="47.04066" lon="9.01627">
        <ele>775</ele>
        <time>2021-08-02T09:15:18.395Z</time>
      </trkpt>
      <trkpt lat="47.04066" lon="9.01625">
        <ele>776</ele>
        <time>2021-08-02T09:15:19.395Z</time>
      </trkpt>
      <trkpt lat="47.04066" lon="9.01623">
        <ele>777</ele>
        <time>2021-08-02T09:15:20.394Z</time>
      </trkpt>
      <trkpt lat="47.04066" lon="9.01622">
        <ele>778</ele>
        <time>2021-08-02T09:15:21.395Z</time>
      </trkpt>
      <trkpt lat="47.04065" lon="9.01621">
        <ele>778</ele>
        <time>2021-08-02T09:15:22.395Z</time>
      </trkpt>
      <trkpt lat="47.04064" lon="9.01619">
        <ele>778</ele>
        <time>2021-08-02T09:15:23.395Z</time>
      </trkpt>
      <trkpt lat="47.04063" lon="9.01618">
        <ele>778</ele>
        <time>2021-08-02T09:15:24.395Z</time>
      </trkpt>
      <trkpt lat="47.04062" lon="9.01617">
        <ele>778</ele>
        <time>2021-08-02T09:15:25.394Z</time>
      </trkpt>
      <trkpt lat="47.04062" lon="9.01616">
        <ele>778</ele>
        <time>2021-08-02T09:15:26.395Z</time>
      </trkpt>
      <trkpt lat="47.04062" lon="9.01615">
        <ele>778</ele>
        <time>2021-08-02T09:15:27.394Z</time>
      </trkpt>
      <trkpt lat="47.04062" lon="9.01614">
        <ele>779</ele>
        <time>2021-08-02T09:15:28.395Z</time>
      </trkpt>
      <trkpt lat="47.04062" lon="9.01613">
        <ele>780</ele>
        <time>2021-08-02T09:15:29.395Z</time>
      </trkpt>
      <trkpt lat="47.04062" lon="9.01611">
        <ele>780</ele>
        <time>2021-08-02T09:15:30.395Z</time>
      </trkpt>
      <trkpt lat="47.04062" lon="9.0161">
        <ele>781</ele>
        <time>2021-08-02T09:15:31.395Z</time>
      </trkpt>
      <trkpt lat="47.04061" lon="9.01609">
        <ele>782</ele>
        <time>2021-08-02T09:15:32.395Z</time>
      </trkpt>
      <trkpt lat="47.0406" lon="9.01608">
        <ele>783</ele>
        <time>2021-08-02T09:15:33.394Z</time>
      </trkpt>
      <trkpt lat="47.04059" lon="9.01608">
        <ele>784</ele>
        <time>2021-08-02T09:15:34.394Z</time>
      </trkpt>
      <trkpt lat="47.04059" lon="9.01607">
        <ele>785</ele>
        <time>2021-08-02T09:15:35.394Z</time>
      </trkpt>
      <trkpt lat="47.04058" lon="9.01607">
        <ele>786</ele>
        <time>2021-08-02T09:15:36.395Z</time>
      </trkpt>
      <trkpt lat="47.04057" lon="9.01606">
        <ele>787</ele>
        <time>2021-08-02T09:15:37.394Z</time>
      </trkpt>
      <trkpt lat="47.04057" lon="9.01606">
        <ele>788</ele>
        <time>2021-08-02T09:15:38.394Z</time>
      </trkpt>
      <trkpt lat="47.04056" lon="9.01605">
        <ele>789</ele>
        <time>2021-08-02T09:15:39.395Z</time>
      </trkpt>
      <trkpt lat="47.04055" lon="9.01605">
        <ele>789</ele>
        <time>2021-08-02T09:15:40.394Z</time>
      </trkpt>
      <trkpt lat="47.04054" lon="9.01604">
        <ele>790</ele>
        <time>2021-08-02T09:15:41.395Z</time>
      </trkpt>
      <trkpt lat="47.04053" lon="9.01604">
        <ele>790</ele>
        <time>2021-08-02T09:15:42.394Z</time>
      </trkpt>
      <trkpt lat="47.04053" lon="9.01603">
        <ele>790</ele>
        <time>2021-08-02T09:15:43.395Z</time>
      </trkpt>
      <trkpt lat="47.04053" lon="9.01602">
        <ele>790</ele>
        <time>2021-08-02T09:15:44.395Z</time>
      </trkpt>
      <trkpt lat="47.04052" lon="9.01601">
        <ele>790</ele>
        <time>2021-08-02T09:15:45.395Z</time>
      </trkpt>
      <trkpt lat="47.04052" lon="9.01599">
        <ele>789</ele>
        <time>2021-08-02T09:15:46.395Z</time>
      </trkpt>
      <trkpt lat="47.04051" lon="9.01598">
        <ele>789</ele>
        <time>2021-08-02T09:15:47.394Z</time>
      </trkpt>
      <trkpt lat="47.04051" lon="9.01596">
        <ele>789</ele>
        <time>2021-08-02T09:15:48.395Z</time>
      </trkpt>
      <trkpt lat="47.04051" lon="9.01595">
        <ele>789</ele>
        <time>2021-08-02T09:15:49.394Z</time>
      </trkpt>
      <trkpt lat="47.04051" lon="9.01593">
        <ele>788</ele>
        <time>2021-08-02T09:15:50.395Z</time>
      </trkpt>
      <trkpt lat="47.0405" lon="9.01592">
        <ele>788</ele>
        <time>2021-08-02T09:15:51.394Z</time>
      </trkpt>
      <trkpt lat="47.0405" lon="9.0159">
        <ele>788</ele>
        <time>2021-08-02T09:15:52.394Z</time>
      </trkpt>
      <trkpt lat="47.04049" lon="9.01589">
        <ele>787</ele>
        <time>2021-08-02T09:15:53.395Z</time>
      </trkpt>
      <trkpt lat="47.04049" lon="9.01587">
        <ele>787</ele>
        <time>2021-08-02T09:15:54.395Z</time>
      </trkpt>
      <trkpt lat="47.04049" lon="9.01586">
        <ele>787</ele>
        <time>2021-08-02T09:15:55.395Z</time>
      </trkpt>
      <trkpt lat="47.04048" lon="9.01584">
        <ele>786</ele>
        <time>2021-08-02T09:15:56.395Z</time>
      </trkpt>
      <trkpt lat="47.04048" lon="9.01582">
        <ele>786</ele>
        <time>2021-08-02T09:15:57.395Z</time>
      </trkpt>
      <trkpt lat="47.04047" lon="9.01581">
        <ele>785</ele>
        <time>2021-08-02T09:15:58.394Z</time>
      </trkpt>
      <trkpt lat="47.04047" lon="9.0158">
        <ele>785</ele>
        <time>2021-08-02T09:15:59.395Z</time>
      </trkpt>
      <trkpt lat="47.04047" lon="9.01578">
        <ele>785</ele>
        <time>2021-08-02T09:16:00.394Z</time>
      </trkpt>
      <trkpt lat="47.04047" lon="9.01577">
        <ele>785</ele>
        <time>2021-08-02T09:16:01.395Z</time>
      </trkpt>
      <trkpt lat="47.04048" lon="9.01576">
        <ele>785</ele>
        <time>2021-08-02T09:16:02.395Z</time>
      </trkpt>
      <trkpt lat="47.04048" lon="9.01575">
        <ele>785</ele>
        <time>2021-08-02T09:16:03.395Z</time>
      </trkpt>
      <trkpt lat="47.04048" lon="9.01574">
        <ele>785</ele>
        <time>2021-08-02T09:16:04.395Z</time>
      </trkpt>
      <trkpt lat="47.04049" lon="9.01572">
        <ele>785</ele>
        <time>2021-08-02T09:16:05.395Z</time>
      </trkpt>
      <trkpt lat="47.0405" lon="9.01571">
        <ele>785</ele>
        <time>2021-08-02T09:16:06.394Z</time>
      </trkpt>
      <trkpt lat="47.04051" lon="9.0157">
        <ele>785</ele>
        <time>2021-08-02T09:16:07.395Z</time>
      </trkpt>
      <trkpt lat="47.04052" lon="9.01569">
        <ele>786</ele>
        <time>2021-08-02T09:16:08.394Z</time>
      </trkpt>
      <trkpt lat="47.04053" lon="9.01568">
        <ele>786</ele>
        <time>2021-08-02T09:16:09.395Z</time>
      </trkpt>
      <trkpt lat="47.04053" lon="9.01566">
        <ele>786</ele>
        <time>2021-08-02T09:16:10.395Z</time>
      </trkpt>
      <trkpt lat="47.04053" lon="9.01566">
        <ele>786</ele>
        <time>2021-08-02T09:16:11.395Z</time>
      </trkpt>
      <trkpt lat="47.04054" lon="9.01565">
        <ele>787</ele>
        <time>2021-08-02T09:16:12.395Z</time>
      </trkpt>
      <trkpt lat="47.04055" lon="9.01565">
        <ele>787</ele>
        <time>2021-08-02T09:16:13.395Z</time>
      </trkpt>
      <trkpt lat="47.04056" lon="9.01564">
        <ele>787</ele>
        <time>2021-08-02T09:16:14.394Z</time>
      </trkpt>
      <trkpt lat="47.04056" lon="9.01562">
        <ele>787</ele>
        <time>2021-08-02T09:16:15.395Z</time>
      </trkpt>
      <trkpt lat="47.04056" lon="9.01561">
        <ele>788</ele>
        <time>2021-08-02T09:16:16.395Z</time>
      </trkpt>
      <trkpt lat="47.04057" lon="9.01559">
        <ele>788</ele>
        <time>2021-08-02T09:16:17.394Z</time>
      </trkpt>
      <trkpt lat="47.04057" lon="9.01558">
        <ele>788</ele>
        <time>2021-08-02T09:16:18.395Z</time>
      </trkpt>
      <trkpt lat="47.04057" lon="9.01557">
        <ele>788</ele>
        <time>2021-08-02T09:16:19.394Z</time>
      </trkpt>
      <trkpt lat="47.04057" lon="9.01556">
        <ele>788</ele>
        <time>2021-08-02T09:16:20.394Z</time>
      </trkpt>
      <trkpt lat="47.04057" lon="9.01555">
        <ele>789</ele>
        <time>2021-08-02T09:16:21.395Z</time>
      </trkpt>
      <trkpt lat="47.04056" lon="9.01553">
        <ele>789</ele>
        <time>2021-08-02T09:16:22.394Z</time>
      </trkpt>
      <trkpt lat="47.04055" lon="9.01552">
        <ele>789</ele>
        <time>2021-08-02T09:16:23.394Z</time>
      </trkpt>
      <trkpt lat="47.04055" lon="9.01551">
        <ele>790</ele>
        <time>2021-08-02T09:16:24.394Z</time>
      </trkpt>
      <trkpt lat="47.04054" lon="9.01551">
        <ele>789</ele>
        <time>2021-08-02T09:16:25.394Z</time>
      </trkpt>
      <trkpt lat="47.04053" lon="9.01549">
        <ele>789</ele>
        <time>2021-08-02T09:16:26.395Z</time>
      </trkpt>
      <trkpt lat="47.04051" lon="9.01548">
        <ele>789</ele>
        <time>2021-08-02T09:16:27.394Z</time>
      </trkpt>
      <trkpt lat="47.0405" lon="9.01547">
        <ele>789</ele>
        <time>2021-08-02T09:16:28.395Z</time>
      </trkpt>
      <trkpt lat="47.0405" lon="9.01546">
        <ele>788</ele>
        <time>2021-08-02T09:16:29.394Z</time>
      </trkpt>
      <trkpt lat="47.0405" lon="9.01545">
        <ele>787</ele>
        <time>2021-08-02T09:16:30.394Z</time>
      </trkpt>
      <trkpt lat="47.0405" lon="9.01544">
        <ele>787</ele>
        <time>2021-08-02T09:16:31.395Z</time>
      </trkpt>
      <trkpt lat="47.0405" lon="9.01542">
        <ele>787</ele>
        <time>2021-08-02T09:16:32.394Z</time>
      </trkpt>
      <trkpt lat="47.0405" lon="9.01541">
        <ele>787</ele>
        <time>2021-08-02T09:16:33.394Z</time>
      </trkpt>
      <trkpt lat="47.0405" lon="9.0154">
        <ele>786</ele>
        <time>2021-08-02T09:16:34.394Z</time>
      </trkpt>
      <trkpt lat="47.0405" lon="9.01539">
        <ele>786</ele>
        <time>2021-08-02T09:16:35.395Z</time>
      </trkpt>
      <trkpt lat="47.0405" lon="9.01538">
        <ele>786</ele>
        <time>2021-08-02T09:16:36.395Z</time>
      </trkpt>
      <trkpt lat="47.04051" lon="9.01537">
        <ele>786</ele>
        <time>2021-08-02T09:16:37.394Z</time>
      </trkpt>
      <trkpt lat="47.04052" lon="9.01536">
        <ele>786</ele>
        <time>2021-08-02T09:16:38.395Z</time>
      </trkpt>
      <trkpt lat="47.04052" lon="9.01535">
        <ele>785</ele>
        <time>2021-08-02T09:16:39.395Z</time>
      </trkpt>
      <trkpt lat="47.04052" lon="9.01534">
        <ele>785</ele>
        <time>2021-08-02T09:16:40.394Z</time>
      </trkpt>
      <trkpt lat="47.04052" lon="9.01533">
        <ele>785</ele>
        <time>2021-08-02T09:16:41.394Z</time>
      </trkpt>
      <trkpt lat="47.04052" lon="9.01533">
        <ele>785</ele>
        <time>2021-08-02T09:16:42.395Z</time>
      </trkpt>
      <trkpt lat="47.04052" lon="9.01532">
        <ele>785</ele>
        <time>2021-08-02T09:16:43.395Z</time>
      </trkpt>
      <trkpt lat="47.04052" lon="9.01531">
        <ele>785</ele>
        <time>2021-08-02T09:16:44.395Z</time>
      </trkpt>
      <trkpt lat="47.04052" lon="9.01531">
        <ele>785</ele>
        <time>2021-08-02T09:16:45.395Z</time>
      </trkpt>
      <trkpt lat="47.04052" lon="9.0153">
        <ele>786</ele>
        <time>2021-08-02T09:16:46.395Z</time>
      </trkpt>
      <trkpt lat="47.04052" lon="9.01529">
        <ele>786</ele>
        <time>2021-08-02T09:16:47.395Z</time>
      </trkpt>
      <trkpt lat="47.04053" lon="9.01528">
        <ele>786</ele>
        <time>2021-08-02T09:16:48.395Z</time>
      </trkpt>
      <trkpt lat="47.04053" lon="9.01527">
        <ele>786</ele>
        <time>2021-08-02T09:16:49.394Z</time>
      </trkpt>
      <trkpt lat="47.04053" lon="9.01525">
        <ele>786</ele>
        <time>2021-08-02T09:16:50.394Z</time>
      </trkpt>
      <trkpt lat="47.04053" lon="9.01524">
        <ele>787</ele>
        <time>2021-08-02T09:16:51.394Z</time>
      </trkpt>
      <trkpt lat="47.04052" lon="9.01523">
        <ele>787</ele>
        <time>2021-08-02T09:16:52.395Z</time>
      </trkpt>
      <trkpt lat="47.04051" lon="9.01522">
        <ele>787</ele>
        <time>2021-08-02T09:16:53.394Z</time>
      </trkpt>
      <trkpt lat="47.0405" lon="9.01521">
        <ele>787</ele>
        <time>2021-08-02T09:16:54.394Z</time>
      </trkpt>
      <trkpt lat="47.0405" lon="9.0152">
        <ele>787</ele>
        <time>2021-08-02T09:16:55.394Z</time>
      </trkpt>
      <trkpt lat="47.04049" lon="9.01519">
        <ele>788</ele>
        <time>2021-08-02T09:16:56.395Z</time>
      </trkpt>
      <trkpt lat="47.04049" lon="9.01517">
        <ele>788</ele>
        <time>2021-08-02T09:16:57.395Z</time>
      </trkpt>
      <trkpt lat="47.04048" lon="9.01516">
        <ele>788</ele>
        <time>2021-08-02T09:16:58.394Z</time>
      </trkpt>
      <trkpt lat="47.04048" lon="9.01515">
        <ele>789</ele>
        <time>2021-08-02T09:16:59.395Z</time>
      </trkpt>
      <trkpt lat="47.04048" lon="9.01513">
        <ele>789</ele>
        <time>2021-08-02T09:17:00.395Z</time>
      </trkpt>
      <trkpt lat="47.04048" lon="9.01512">
        <ele>790</ele>
        <time>2021-08-02T09:17:01.395Z</time>
      </trkpt>
      <trkpt lat="47.04048" lon="9.01511">
        <ele>790</ele>
        <time>2021-08-02T09:17:02.394Z</time>
      </trkpt>
      <trkpt lat="47.04048" lon="9.0151">
        <ele>790</ele>
        <time>2021-08-02T09:17:03.395Z</time>
      </trkpt>
      <trkpt lat="47.04048" lon="9.01509">
        <ele>791</ele>
        <time>2021-08-02T09:17:04.395Z</time>
      </trkpt>
      <trkpt lat="47.04048" lon="9.01507">
        <ele>791</ele>
        <time>2021-08-02T09:17:05.394Z</time>
      </trkpt>
      <trkpt lat="47.04048" lon="9.01506">
        <ele>791</ele>
        <time>2021-08-02T09:17:06.394Z</time>
      </trkpt>
      <trkpt lat="47.04048" lon="9.01505">
        <ele>791</ele>
        <time>2021-08-02T09:17:07.395Z</time>
      </trkpt>
      <trkpt lat="47.04048" lon="9.01504">
        <ele>792</ele>
        <time>2021-08-02T09:17:08.395Z</time>
      </trkpt>
      <trkpt lat="47.04047" lon="9.01504">
        <ele>792</ele>
        <time>2021-08-02T09:17:09.395Z</time>
      </trkpt>
      <trkpt lat="47.04047" lon="9.01503">
        <ele>792</ele>
        <time>2021-08-02T09:17:10.395Z</time>
      </trkpt>
      <trkpt lat="47.04045" lon="9.01502">
        <ele>793</ele>
        <time>2021-08-02T09:17:11.395Z</time>
      </trkpt>
      <trkpt lat="47.04045" lon="9.01501">
        <ele>793</ele>
        <time>2021-08-02T09:17:12.395Z</time>
      </trkpt>
      <trkpt lat="47.04045" lon="9.015">
        <ele>793</ele>
        <time>2021-08-02T09:17:13.395Z</time>
      </trkpt>
      <trkpt lat="47.04045" lon="9.01498">
        <ele>792</ele>
        <time>2021-08-02T09:17:14.395Z</time>
      </trkpt>
      <trkpt lat="47.04045" lon="9.01497">
        <ele>792</ele>
        <time>2021-08-02T09:17:15.395Z</time>
      </trkpt>
      <trkpt lat="47.04045" lon="9.01496">
        <ele>792</ele>
        <time>2021-08-02T09:17:16.395Z</time>
      </trkpt>
      <trkpt lat="47.04046" lon="9.01495">
        <ele>792</ele>
        <time>2021-08-02T09:17:17.395Z</time>
      </trkpt>
      <trkpt lat="47.04046" lon="9.01494">
        <ele>792</ele>
        <time>2021-08-02T09:17:18.395Z</time>
      </trkpt>
      <trkpt lat="47.04047" lon="9.01493">
        <ele>793</ele>
        <time>2021-08-02T09:17:19.395Z</time>
      </trkpt>
      <trkpt lat="47.04047" lon="9.01492">
        <ele>793</ele>
        <time>2021-08-02T09:17:20.394Z</time>
      </trkpt>
      <trkpt lat="47.04047" lon="9.01491">
        <ele>794</ele>
        <time>2021-08-02T09:17:21.395Z</time>
      </trkpt>
      <trkpt lat="47.04047" lon="9.0149">
        <ele>795</ele>
        <time>2021-08-02T09:17:22.395Z</time>
      </trkpt>
      <trkpt lat="47.04047" lon="9.01489">
        <ele>796</ele>
        <time>2021-08-02T09:17:23.395Z</time>
      </trkpt>
      <trkpt lat="47.04046" lon="9.01488">
        <ele>797</ele>
        <time>2021-08-02T09:17:24.395Z</time>
      </trkpt>
      <trkpt lat="47.04046" lon="9.01487">
        <ele>797</ele>
        <time>2021-08-02T09:17:25.395Z</time>
      </trkpt>
      <trkpt lat="47.04046" lon="9.01487">
        <ele>798</ele>
        <time>2021-08-02T09:17:26.395Z</time>
      </trkpt>
      <trkpt lat="47.04046" lon="9.01486">
        <ele>798</ele>
        <time>2021-08-02T09:17:27.395Z</time>
      </trkpt>
      <trkpt lat="47.04045" lon="9.01486">
        <ele>799</ele>
        <time>2021-08-02T09:17:28.394Z</time>
      </trkpt>
      <trkpt lat="47.04045" lon="9.01485">
        <ele>799</ele>
        <time>2021-08-02T09:17:29.394Z</time>
      </trkpt>
      <trkpt lat="47.04045" lon="9.01483">
        <ele>799</ele>
        <time>2021-08-02T09:17:30.395Z</time>
      </trkpt>
      <trkpt lat="47.04045" lon="9.01482">
        <ele>799</ele>
        <time>2021-08-02T09:17:31.395Z</time>
      </trkpt>
      <trkpt lat="47.04045" lon="9.01481">
        <ele>799</ele>
        <time>2021-08-02T09:17:32.395Z</time>
      </trkpt>
      <trkpt lat="47.04043" lon="9.01481">
        <ele>800</ele>
        <time>2021-08-02T09:17:33.394Z</time>
      </trkpt>
      <trkpt lat="47.04042" lon="9.01482">
        <ele>800</ele>
        <time>2021-08-02T09:17:34.394Z</time>
      </trkpt>
      <trkpt lat="47.0404" lon="9.01482">
        <ele>801</ele>
        <time>2021-08-02T09:17:35.394Z</time>
      </trkpt>
      <trkpt lat="47.04038" lon="9.01481">
        <ele>802</ele>
        <time>2021-08-02T09:17:36.394Z</time>
      </trkpt>
      <trkpt lat="47.04038" lon="9.0148">
        <ele>802</ele>
        <time>2021-08-02T09:17:37.395Z</time>
      </trkpt>
      <trkpt lat="47.04038" lon="9.01479">
        <ele>803</ele>
        <time>2021-08-02T09:17:38.395Z</time>
      </trkpt>
      <trkpt lat="47.04037" lon="9.01477">
        <ele>803</ele>
        <time>2021-08-02T09:17:39.395Z</time>
      </trkpt>
      <trkpt lat="47.04037" lon="9.01475">
        <ele>804</ele>
        <time>2021-08-02T09:17:40.395Z</time>
      </trkpt>
      <trkpt lat="47.04037" lon="9.01474">
        <ele>804</ele>
        <time>2021-08-02T09:17:41.395Z</time>
      </trkpt>
      <trkpt lat="47.04037" lon="9.01473">
        <ele>804</ele>
        <time>2021-08-02T09:17:42.394Z</time>
      </trkpt>
      <trkpt lat="47.04037" lon="9.01471">
        <ele>804</ele>
        <time>2021-08-02T09:17:43.395Z</time>
      </trkpt>
      <trkpt lat="47.04037" lon="9.0147">
        <ele>804</ele>
        <time>2021-08-02T09:17:44.395Z</time>
      </trkpt>
      <trkpt lat="47.04037" lon="9.01469">
        <ele>804</ele>
        <time>2021-08-02T09:17:45.394Z</time>
      </trkpt>
      <trkpt lat="47.04036" lon="9.01467">
        <ele>804</ele>
        <time>2021-08-02T09:17:46.394Z</time>
      </trkpt>
      <trkpt lat="47.04036" lon="9.01466">
        <ele>804</ele>
        <time>2021-08-02T09:17:47.395Z</time>
      </trkpt>
      <trkpt lat="47.04035" lon="9.01464">
        <ele>803</ele>
        <time>2021-08-02T09:17:48.394Z</time>
      </trkpt>
      <trkpt lat="47.04035" lon="9.01463">
        <ele>802</ele>
        <time>2021-08-02T09:17:49.394Z</time>
      </trkpt>
      <trkpt lat="47.04035" lon="9.01461">
        <ele>801</ele>
        <time>2021-08-02T09:17:50.394Z</time>
      </trkpt>
      <trkpt lat="47.04034" lon="9.01459">
        <ele>800</ele>
        <time>2021-08-02T09:17:51.395Z</time>
      </trkpt>
      <trkpt lat="47.04033" lon="9.01457">
        <ele>799</ele>
        <time>2021-08-02T09:17:52.395Z</time>
      </trkpt>
      <trkpt lat="47.04032" lon="9.01457">
        <ele>798</ele>
        <time>2021-08-02T09:17:53.394Z</time>
      </trkpt>
      <trkpt lat="47.04032" lon="9.01457">
        <ele>797</ele>
        <time>2021-08-02T09:17:54.395Z</time>
      </trkpt>
      <trkpt lat="47.04031" lon="9.01456">
        <ele>796</ele>
        <time>2021-08-02T09:17:55.395Z</time>
      </trkpt>
      <trkpt lat="47.04031" lon="9.01455">
        <ele>795</ele>
        <time>2021-08-02T09:17:56.394Z</time>
      </trkpt>
      <trkpt lat="47.0403" lon="9.01453">
        <ele>794</ele>
        <time>2021-08-02T09:17:57.395Z</time>
      </trkpt>
      <trkpt lat="47.0403" lon="9.01452">
        <ele>793</ele>
        <time>2021-08-02T09:17:58.395Z</time>
      </trkpt>
      <trkpt lat="47.0403" lon="9.0145">
        <ele>792</ele>
        <time>2021-08-02T09:17:59.394Z</time>
      </trkpt>
      <trkpt lat="47.0403" lon="9.01449">
        <ele>791</ele>
        <time>2021-08-02T09:18:00.395Z</time>
      </trkpt>
      <trkpt lat="47.0403" lon="9.01448">
        <ele>791</ele>
        <time>2021-08-02T09:18:01.395Z</time>
      </trkpt>
      <trkpt lat="47.0403" lon="9.01447">
        <ele>790</ele>
        <time>2021-08-02T09:18:02.395Z</time>
      </trkpt>
      <trkpt lat="47.04029" lon="9.01446">
        <ele>790</ele>
        <time>2021-08-02T09:18:03.395Z</time>
      </trkpt>
      <trkpt lat="47.04029" lon="9.01445">
        <ele>790</ele>
        <time>2021-08-02T09:18:04.395Z</time>
      </trkpt>
      <trkpt lat="47.04029" lon="9.01443">
        <ele>790</ele>
        <time>2021-08-02T09:18:05.394Z</time>
      </trkpt>
      <trkpt lat="47.04028" lon="9.01442">
        <ele>790</ele>
        <time>2021-08-02T09:18:06.395Z</time>
      </trkpt>
      <trkpt lat="47.04028" lon="9.01441">
        <ele>790</ele>
        <time>2021-08-02T09:18:07.395Z</time>
      </trkpt>
      <trkpt lat="47.04028" lon="9.0144">
        <ele>790</ele>
        <time>2021-08-02T09:18:08.394Z</time>
      </trkpt>
      <trkpt lat="47.04027" lon="9.01438">
        <ele>791</ele>
        <time>2021-08-02T09:18:09.395Z</time>
      </trkpt>
      <trkpt lat="47.04026" lon="9.01437">
        <ele>791</ele>
        <time>2021-08-02T09:18:10.395Z</time>
      </trkpt>
      <trkpt lat="47.04026" lon="9.01434">
        <ele>791</ele>
        <time>2021-08-02T09:18:11.394Z</time>
      </trkpt>
      <trkpt lat="47.04025" lon="9.01432">
        <ele>792</ele>
        <time>2021-08-02T09:18:12.395Z</time>
      </trkpt>
      <trkpt lat="47.04025" lon="9.01431">
        <ele>792</ele>
        <time>2021-08-02T09:18:13.395Z</time>
      </trkpt>
      <trkpt lat="47.04024" lon="9.01431">
        <ele>792</ele>
        <time>2021-08-02T09:18:14.395Z</time>
      </trkpt>
      <trkpt lat="47.04024" lon="9.0143">
        <ele>793</ele>
        <time>2021-08-02T09:18:15.395Z</time>
      </trkpt>
      <trkpt lat="47.04023" lon="9.01428">
        <ele>793</ele>
        <time>2021-08-02T09:18:16.394Z</time>
      </trkpt>
      <trkpt lat="47.04022" lon="9.01428">
        <ele>793</ele>
        <time>2021-08-02T09:18:17.394Z</time>
      </trkpt>
      <trkpt lat="47.04022" lon="9.01427">
        <ele>793</ele>
        <time>2021-08-02T09:18:18.395Z</time>
      </trkpt>
      <trkpt lat="47.04021" lon="9.01425">
        <ele>793</ele>
        <time>2021-08-02T09:18:19.395Z</time>
      </trkpt>
      <trkpt lat="47.0402" lon="9.01424">
        <ele>794</ele>
        <time>2021-08-02T09:18:20.394Z</time>
      </trkpt>
      <trkpt lat="47.0402" lon="9.01423">
        <ele>794</ele>
        <time>2021-08-02T09:18:21.395Z</time>
      </trkpt>
      <trkpt lat="47.0402" lon="9.01422">
        <ele>794</ele>
        <time>2021-08-02T09:18:22.395Z</time>
      </trkpt>
      <trkpt lat="47.04019" lon="9.0142">
        <ele>795</ele>
        <time>2021-08-02T09:18:23.395Z</time>
      </trkpt>
      <trkpt lat="47.04019" lon="9.01419">
        <ele>795</ele>
        <time>2021-08-02T09:18:24.395Z</time>
      </trkpt>
      <trkpt lat="47.04018" lon="9.01418">
        <ele>795</ele>
        <time>2021-08-02T09:18:25.395Z</time>
      </trkpt>
      <trkpt lat="47.04017" lon="9.01417">
        <ele>796</ele>
        <time>2021-08-02T09:18:26.394Z</time>
      </trkpt>
      <trkpt lat="47.04017" lon="9.01416">
        <ele>796</ele>
        <time>2021-08-02T09:18:27.395Z</time>
      </trkpt>
      <trkpt lat="47.04016" lon="9.01416">
        <ele>797</ele>
        <time>2021-08-02T09:18:28.394Z</time>
      </trkpt>
      <trkpt lat="47.04016" lon="9.01415">
        <ele>796</ele>
        <time>2021-08-02T09:18:29.394Z</time>
      </trkpt>
      <trkpt lat="47.04015" lon="9.01414">
        <ele>796</ele>
        <time>2021-08-02T09:18:30.395Z</time>
      </trkpt>
      <trkpt lat="47.04015" lon="9.01412">
        <ele>796</ele>
        <time>2021-08-02T09:18:31.395Z</time>
      </trkpt>
      <trkpt lat="47.04015" lon="9.01411">
        <ele>796</ele>
        <time>2021-08-02T09:18:32.394Z</time>
      </trkpt>
      <trkpt lat="47.04014" lon="9.01409">
        <ele>796</ele>
        <time>2021-08-02T09:18:33.395Z</time>
      </trkpt>
      <trkpt lat="47.04014" lon="9.01408">
        <ele>795</ele>
        <time>2021-08-02T09:18:34.395Z</time>
      </trkpt>
      <trkpt lat="47.04013" lon="9.01407">
        <ele>795</ele>
        <time>2021-08-02T09:18:35.394Z</time>
      </trkpt>
      <trkpt lat="47.04012" lon="9.01406">
        <ele>795</ele>
        <time>2021-08-02T09:18:36.395Z</time>
      </trkpt>
      <trkpt lat="47.04012" lon="9.01405">
        <ele>795</ele>
        <time>2021-08-02T09:18:37.395Z</time>
      </trkpt>
      <trkpt lat="47.04012" lon="9.01404">
        <ele>796</ele>
        <time>2021-08-02T09:18:38.395Z</time>
      </trkpt>
      <trkpt lat="47.04012" lon="9.01403">
        <ele>796</ele>
        <time>2021-08-02T09:18:39.394Z</time>
      </trkpt>
      <trkpt lat="47.04012" lon="9.01402">
        <ele>796</ele>
        <time>2021-08-02T09:18:40.395Z</time>
      </trkpt>
      <trkpt lat="47.04011" lon="9.01401">
        <ele>796</ele>
        <time>2021-08-02T09:18:41.394Z</time>
      </trkpt>
      <trkpt lat="47.04012" lon="9.01399">
        <ele>797</ele>
        <time>2021-08-02T09:18:42.395Z</time>
      </trkpt>
      <trkpt lat="47.04012" lon="9.01398">
        <ele>797</ele>
        <time>2021-08-02T09:18:43.394Z</time>
      </trkpt>
      <trkpt lat="47.04013" lon="9.01397">
        <ele>798</ele>
        <time>2021-08-02T09:18:44.395Z</time>
      </trkpt>
      <trkpt lat="47.04014" lon="9.01396">
        <ele>798</ele>
        <time>2021-08-02T09:18:45.395Z</time>
      </trkpt>
      <trkpt lat="47.04015" lon="9.01395">
        <ele>798</ele>
        <time>2021-08-02T09:18:46.395Z</time>
      </trkpt>
      <trkpt lat="47.04015" lon="9.01394">
        <ele>799</ele>
        <time>2021-08-02T09:18:47.395Z</time>
      </trkpt>
      <trkpt lat="47.04016" lon="9.01393">
        <ele>799</ele>
        <time>2021-08-02T09:18:48.395Z</time>
      </trkpt>
      <trkpt lat="47.04016" lon="9.01392">
        <ele>800</ele>
        <time>2021-08-02T09:18:49.394Z</time>
      </trkpt>
      <trkpt lat="47.04017" lon="9.0139">
        <ele>800</ele>
        <time>2021-08-02T09:18:50.395Z</time>
      </trkpt>
      <trkpt lat="47.04018" lon="9.01388">
        <ele>800</ele>
        <time>2021-08-02T09:18:51.395Z</time>
      </trkpt>
      <trkpt lat="47.04019" lon="9.01386">
        <ele>800</ele>
        <time>2021-08-02T09:18:52.394Z</time>
      </trkpt>
      <trkpt lat="47.04018" lon="9.01385">
        <ele>800</ele>
        <time>2021-08-02T09:18:53.395Z</time>
      </trkpt>
      <trkpt lat="47.04018" lon="9.01384">
        <ele>800</ele>
        <time>2021-08-02T09:18:54.395Z</time>
      </trkpt>
      <trkpt lat="47.04018" lon="9.01382">
        <ele>800</ele>
        <time>2021-08-02T09:18:55.394Z</time>
      </trkpt>
      <trkpt lat="47.04017" lon="9.01381">
        <ele>800</ele>
        <time>2021-08-02T09:18:56.395Z</time>
      </trkpt>
      <trkpt lat="47.04017" lon="9.0138">
        <ele>800</ele>
        <time>2021-08-02T09:18:57.395Z</time>
      </trkpt>
      <trkpt lat="47.04016" lon="9.01378">
        <ele>801</ele>
        <time>2021-08-02T09:18:58.395Z</time>
      </trkpt>
      <trkpt lat="47.04015" lon="9.01377">
        <ele>801</ele>
        <time>2021-08-02T09:18:59.394Z</time>
      </trkpt>
      <trkpt lat="47.04015" lon="9.01376">
        <ele>802</ele>
        <time>2021-08-02T09:19:00.394Z</time>
      </trkpt>
      <trkpt lat="47.04013" lon="9.01374">
        <ele>803</ele>
        <time>2021-08-02T09:19:01.395Z</time>
      </trkpt>
      <trkpt lat="47.04011" lon="9.01373">
        <ele>803</ele>
        <time>2021-08-02T09:19:02.395Z</time>
      </trkpt>
      <trkpt lat="47.0401" lon="9.01372">
        <ele>804</ele>
        <time>2021-08-02T09:19:03.394Z</time>
      </trkpt>
      <trkpt lat="47.04008" lon="9.0137">
        <ele>804</ele>
        <time>2021-08-02T09:19:04.394Z</time>
      </trkpt>
      <trkpt lat="47.04007" lon="9.0137">
        <ele>803</ele>
        <time>2021-08-02T09:19:05.394Z</time>
      </trkpt>
      <trkpt lat="47.04006" lon="9.01369">
        <ele>803</ele>
        <time>2021-08-02T09:19:06.395Z</time>
      </trkpt>
      <trkpt lat="47.04005" lon="9.01369">
        <ele>802</ele>
        <time>2021-08-02T09:19:07.394Z</time>
      </trkpt>
      <trkpt lat="47.04004" lon="9.01369">
        <ele>802</ele>
        <time>2021-08-02T09:19:08.394Z</time>
      </trkpt>
      <trkpt lat="47.04003" lon="9.01367">
        <ele>802</ele>
        <time>2021-08-02T09:19:09.395Z</time>
      </trkpt>
      <trkpt lat="47.04003" lon="9.01365">
        <ele>802</ele>
        <time>2021-08-02T09:19:10.394Z</time>
      </trkpt>
      <trkpt lat="47.04002" lon="9.01363">
        <ele>802</ele>
        <time>2021-08-02T09:19:11.395Z</time>
      </trkpt>
      <trkpt lat="47.04002" lon="9.01361">
        <ele>802</ele>
        <time>2021-08-02T09:19:12.394Z</time>
      </trkpt>
      <trkpt lat="47.04002" lon="9.01359">
        <ele>802</ele>
        <time>2021-08-02T09:19:13.394Z</time>
      </trkpt>
      <trkpt lat="47.04002" lon="9.01357">
        <ele>802</ele>
        <time>2021-08-02T09:19:14.395Z</time>
      </trkpt>
      <trkpt lat="47.04002" lon="9.01355">
        <ele>802</ele>
        <time>2021-08-02T09:19:15.394Z</time>
      </trkpt>
      <trkpt lat="47.04002" lon="9.01354">
        <ele>801</ele>
        <time>2021-08-02T09:19:16.394Z</time>
      </trkpt>
      <trkpt lat="47.04002" lon="9.01352">
        <ele>801</ele>
        <time>2021-08-02T09:19:17.394Z</time>
      </trkpt>
      <trkpt lat="47.04001" lon="9.0135">
        <ele>800</ele>
        <time>2021-08-02T09:19:18.394Z</time>
      </trkpt>
      <trkpt lat="47.04" lon="9.01348">
        <ele>800</ele>
        <time>2021-08-02T09:19:19.394Z</time>
      </trkpt>
      <trkpt lat="47.03999" lon="9.01346">
        <ele>800</ele>
        <time>2021-08-02T09:19:20.395Z</time>
      </trkpt>
      <trkpt lat="47.03998" lon="9.01345">
        <ele>800</ele>
        <time>2021-08-02T09:19:21.395Z</time>
      </trkpt>
      <trkpt lat="47.03998" lon="9.01344">
        <ele>801</ele>
        <time>2021-08-02T09:19:22.394Z</time>
      </trkpt>
      <trkpt lat="47.03998" lon="9.01343">
        <ele>801</ele>
        <time>2021-08-02T09:19:23.394Z</time>
      </trkpt>
      <trkpt lat="47.03998" lon="9.01342">
        <ele>802</ele>
        <time>2021-08-02T09:19:24.395Z</time>
      </trkpt>
      <trkpt lat="47.03998" lon="9.01341">
        <ele>802</ele>
        <time>2021-08-02T09:19:25.396Z</time>
      </trkpt>
      <trkpt lat="47.03998" lon="9.01341">
        <ele>801</ele>
        <time>2021-08-02T09:19:26.395Z</time>
      </trkpt>
      <trkpt lat="47.03997" lon="9.0134">
        <ele>801</ele>
        <time>2021-08-02T09:19:27.396Z</time>
      </trkpt>
      <trkpt lat="47.03997" lon="9.01339">
        <ele>801</ele>
        <time>2021-08-02T09:19:28.395Z</time>
      </trkpt>
      <trkpt lat="47.03996" lon="9.01338">
        <ele>802</ele>
        <time>2021-08-02T09:19:29.396Z</time>
      </trkpt>
      <trkpt lat="47.03996" lon="9.01337">
        <ele>802</ele>
        <time>2021-08-02T09:19:30.396Z</time>
      </trkpt>
      <trkpt lat="47.03996" lon="9.01335">
        <ele>803</ele>
        <time>2021-08-02T09:19:31.395Z</time>
      </trkpt>
      <trkpt lat="47.03996" lon="9.01334">
        <ele>803</ele>
        <time>2021-08-02T09:19:32.395Z</time>
      </trkpt>
      <trkpt lat="47.03997" lon="9.01331">
        <ele>803</ele>
        <time>2021-08-02T09:19:33.396Z</time>
      </trkpt>
      <trkpt lat="47.03997" lon="9.0133">
        <ele>803</ele>
        <time>2021-08-02T09:19:34.395Z</time>
      </trkpt>
      <trkpt lat="47.03997" lon="9.01328">
        <ele>802</ele>
        <time>2021-08-02T09:19:35.396Z</time>
      </trkpt>
      <trkpt lat="47.03996" lon="9.01326">
        <ele>802</ele>
        <time>2021-08-02T09:19:36.396Z</time>
      </trkpt>
      <trkpt lat="47.03996" lon="9.01323">
        <ele>803</ele>
        <time>2021-08-02T09:19:37.396Z</time>
      </trkpt>
      <trkpt lat="47.03995" lon="9.01321">
        <ele>803</ele>
        <time>2021-08-02T09:19:38.396Z</time>
      </trkpt>
      <trkpt lat="47.03994" lon="9.01319">
        <ele>803</ele>
        <time>2021-08-02T09:19:39.395Z</time>
      </trkpt>
      <trkpt lat="47.03994" lon="9.01316">
        <ele>804</ele>
        <time>2021-08-02T09:19:40.395Z</time>
      </trkpt>
      <trkpt lat="47.03992" lon="9.01315">
        <ele>805</ele>
        <time>2021-08-02T09:19:41.396Z</time>
      </trkpt>
      <trkpt lat="47.03991" lon="9.01314">
        <ele>805</ele>
        <time>2021-08-02T09:19:42.396Z</time>
      </trkpt>
      <trkpt lat="47.0399" lon="9.01313">
        <ele>806</ele>
        <time>2021-08-02T09:19:43.395Z</time>
      </trkpt>
      <trkpt lat="47.03989" lon="9.01313">
        <ele>806</ele>
        <time>2021-08-02T09:19:44.396Z</time>
      </trkpt>
      <trkpt lat="47.03989" lon="9.01313">
        <ele>806</ele>
        <time>2021-08-02T09:19:45.395Z</time>
      </trkpt>
      <trkpt lat="47.03988" lon="9.01313">
        <ele>806</ele>
        <time>2021-08-02T09:19:46.396Z</time>
      </trkpt>
      <trkpt lat="47.03988" lon="9.01312">
        <ele>806</ele>
        <time>2021-08-02T09:19:47.395Z</time>
      </trkpt>
      <trkpt lat="47.03988" lon="9.01311">
        <ele>806</ele>
        <time>2021-08-02T09:19:48.396Z</time>
      </trkpt>
      <trkpt lat="47.03987" lon="9.0131">
        <ele>805</ele>
        <time>2021-08-02T09:19:49.395Z</time>
      </trkpt>
      <trkpt lat="47.03987" lon="9.0131">
        <ele>805</ele>
        <time>2021-08-02T09:19:50.396Z</time>
      </trkpt>
      <trkpt lat="47.03986" lon="9.0131">
        <ele>804</ele>
        <time>2021-08-02T09:19:51.395Z</time>
      </trkpt>
      <trkpt lat="47.03986" lon="9.01308">
        <ele>804</ele>
        <time>2021-08-02T09:19:52.395Z</time>
      </trkpt>
      <trkpt lat="47.03985" lon="9.01307">
        <ele>804</ele>
        <time>2021-08-02T09:19:53.396Z</time>
      </trkpt>
      <trkpt lat="47.03984" lon="9.01306">
        <ele>804</ele>
        <time>2021-08-02T09:19:54.395Z</time>
      </trkpt>
      <trkpt lat="47.03984" lon="9.01304">
        <ele>804</ele>
        <time>2021-08-02T09:19:55.395Z</time>
      </trkpt>
      <trkpt lat="47.03984" lon="9.01302">
        <ele>804</ele>
        <time>2021-08-02T09:19:56.396Z</time>
      </trkpt>
      <trkpt lat="47.03984" lon="9.01299">
        <ele>805</ele>
        <time>2021-08-02T09:19:57.395Z</time>
      </trkpt>
      <trkpt lat="47.03982" lon="9.01298">
        <ele>805</ele>
        <time>2021-08-02T09:19:58.396Z</time>
      </trkpt>
      <trkpt lat="47.03981" lon="9.01297">
        <ele>806</ele>
        <time>2021-08-02T09:19:59.396Z</time>
      </trkpt>
      <trkpt lat="47.03981" lon="9.01296">
        <ele>806</ele>
        <time>2021-08-02T09:20:00.396Z</time>
      </trkpt>
      <trkpt lat="47.0398" lon="9.01294">
        <ele>807</ele>
        <time>2021-08-02T09:20:01.395Z</time>
      </trkpt>
      <trkpt lat="47.0398" lon="9.01292">
        <ele>807</ele>
        <time>2021-08-02T09:20:02.396Z</time>
      </trkpt>
      <trkpt lat="47.03979" lon="9.01291">
        <ele>807</ele>
        <time>2021-08-02T09:20:03.396Z</time>
      </trkpt>
      <trkpt lat="47.03979" lon="9.01289">
        <ele>807</ele>
        <time>2021-08-02T09:20:04.395Z</time>
      </trkpt>
      <trkpt lat="47.03978" lon="9.01288">
        <ele>808</ele>
        <time>2021-08-02T09:20:05.396Z</time>
      </trkpt>
      <trkpt lat="47.03978" lon="9.01287">
        <ele>808</ele>
        <time>2021-08-02T09:20:06.396Z</time>
      </trkpt>
      <trkpt lat="47.03977" lon="9.01286">
        <ele>808</ele>
        <time>2021-08-02T09:20:07.396Z</time>
      </trkpt>
      <trkpt lat="47.03977" lon="9.01286">
        <ele>808</ele>
        <time>2021-08-02T09:20:08.395Z</time>
      </trkpt>
      <trkpt lat="47.03977" lon="9.01285">
        <ele>808</ele>
        <time>2021-08-02T09:20:09.396Z</time>
      </trkpt>
      <trkpt lat="47.03976" lon="9.01284">
        <ele>808</ele>
        <time>2021-08-02T09:20:10.395Z</time>
      </trkpt>
      <trkpt lat="47.03975" lon="9.01282">
        <ele>808</ele>
        <time>2021-08-02T09:20:11.395Z</time>
      </trkpt>
      <trkpt lat="47.03975" lon="9.01281">
        <ele>808</ele>
        <time>2021-08-02T09:20:12.395Z</time>
      </trkpt>
      <trkpt lat="47.03976" lon="9.0128">
        <ele>808</ele>
        <time>2021-08-02T09:20:13.396Z</time>
      </trkpt>
      <trkpt lat="47.03975" lon="9.01279">
        <ele>807</ele>
        <time>2021-08-02T09:20:14.395Z</time>
      </trkpt>
      <trkpt lat="47.03974" lon="9.01278">
        <ele>807</ele>
        <time>2021-08-02T09:20:15.395Z</time>
      </trkpt>
      <trkpt lat="47.03973" lon="9.01278">
        <ele>806</ele>
        <time>2021-08-02T09:20:16.395Z</time>
      </trkpt>
      <trkpt lat="47.03972" lon="9.01277">
        <ele>806</ele>
        <time>2021-08-02T09:20:17.395Z</time>
      </trkpt>
      <trkpt lat="47.0397" lon="9.01276">
        <ele>805</ele>
        <time>2021-08-02T09:20:18.395Z</time>
      </trkpt>
      <trkpt lat="47.03969" lon="9.01275">
        <ele>805</ele>
        <time>2021-08-02T09:20:19.396Z</time>
      </trkpt>
      <trkpt lat="47.03968" lon="9.01274">
        <ele>804</ele>
        <time>2021-08-02T09:20:20.395Z</time>
      </trkpt>
      <trkpt lat="47.03968" lon="9.01273">
        <ele>803</ele>
        <time>2021-08-02T09:20:21.395Z</time>
      </trkpt>
      <trkpt lat="47.03967" lon="9.01272">
        <ele>803</ele>
        <time>2021-08-02T09:20:22.396Z</time>
      </trkpt>
      <trkpt lat="47.03966" lon="9.01272">
        <ele>802</ele>
        <time>2021-08-02T09:20:23.396Z</time>
      </trkpt>
      <trkpt lat="47.03965" lon="9.01272">
        <ele>801</ele>
        <time>2021-08-02T09:20:24.395Z</time>
      </trkpt>
      <trkpt lat="47.03964" lon="9.01271">
        <ele>801</ele>
        <time>2021-08-02T09:20:25.395Z</time>
      </trkpt>
      <trkpt lat="47.03963" lon="9.0127">
        <ele>801</ele>
        <time>2021-08-02T09:20:26.395Z</time>
      </trkpt>
      <trkpt lat="47.03963" lon="9.01269">
        <ele>800</ele>
        <time>2021-08-02T09:20:27.395Z</time>
      </trkpt>
      <trkpt lat="47.03963" lon="9.01267">
        <ele>800</ele>
        <time>2021-08-02T09:20:28.396Z</time>
      </trkpt>
      <trkpt lat="47.03962" lon="9.01265">
        <ele>800</ele>
        <time>2021-08-02T09:20:29.395Z</time>
      </trkpt>
      <trkpt lat="47.03962" lon="9.01263">
        <ele>800</ele>
        <time>2021-08-02T09:20:30.395Z</time>
      </trkpt>
      <trkpt lat="47.03962" lon="9.01262">
        <ele>800</ele>
        <time>2021-08-02T09:20:31.395Z</time>
      </trkpt>
      <trkpt lat="47.03962" lon="9.0126">
        <ele>800</ele>
        <time>2021-08-02T09:20:32.395Z</time>
      </trkpt>
      <trkpt lat="47.03961" lon="9.01259">
        <ele>801</ele>
        <time>2021-08-02T09:20:33.395Z</time>
      </trkpt>
      <trkpt lat="47.0396" lon="9.01257">
        <ele>802</ele>
        <time>2021-08-02T09:20:34.395Z</time>
      </trkpt>
      <trkpt lat="47.0396" lon="9.01257">
        <ele>802</ele>
        <time>2021-08-02T09:20:35.396Z</time>
      </trkpt>
      <trkpt lat="47.0396" lon="9.01257">
        <ele>802</ele>
        <time>2021-08-02T09:20:36.395Z</time>
      </trkpt>
      <trkpt lat="47.03959" lon="9.01257">
        <ele>802</ele>
        <time>2021-08-02T09:20:37.395Z</time>
      </trkpt>
      <trkpt lat="47.03957" lon="9.01252">
        <ele>804</ele>
        <time>2021-08-02T09:20:38.396Z</time>
      </trkpt>
      <trkpt lat="47.03956" lon="9.01251">
        <ele>805</ele>
        <time>2021-08-02T09:20:39.397Z</time>
      </trkpt>
      <trkpt lat="47.03956" lon="9.0125">
        <ele>806</ele>
        <time>2021-08-02T09:20:40.397Z</time>
      </trkpt>
      <trkpt lat="47.03957" lon="9.01249">
        <ele>806</ele>
        <time>2021-08-02T09:20:41.397Z</time>
      </trkpt>
      <trkpt lat="47.03956" lon="9.01248">
        <ele>806</ele>
        <time>2021-08-02T09:20:42.397Z</time>
      </trkpt>
      <trkpt lat="47.03956" lon="9.01246">
        <ele>806</ele>
        <time>2021-08-02T09:20:43.397Z</time>
      </trkpt>
      <trkpt lat="47.03956" lon="9.01246">
        <ele>807</ele>
        <time>2021-08-02T09:20:44.396Z</time>
      </trkpt>
      <trkpt lat="47.03956" lon="9.01245">
        <ele>807</ele>
        <time>2021-08-02T09:20:45.397Z</time>
      </trkpt>
      <trkpt lat="47.03956" lon="9.01243">
        <ele>807</ele>
        <time>2021-08-02T09:20:46.396Z</time>
      </trkpt>
      <trkpt lat="47.03956" lon="9.01242">
        <ele>808</ele>
        <time>2021-08-02T09:20:47.396Z</time>
      </trkpt>
      <trkpt lat="47.03955" lon="9.01242">
        <ele>808</ele>
        <time>2021-08-02T09:20:48.397Z</time>
      </trkpt>
      <trkpt lat="47.03954" lon="9.01242">
        <ele>808</ele>
        <time>2021-08-02T09:20:49.397Z</time>
      </trkpt>
      <trkpt lat="47.03953" lon="9.01242">
        <ele>809</ele>
        <time>2021-08-02T09:20:50.397Z</time>
      </trkpt>
      <trkpt lat="47.03953" lon="9.01242">
        <ele>811</ele>
        <time>2021-08-02T09:20:51.397Z</time>
      </trkpt>
      <trkpt lat="47.03953" lon="9.01242">
        <ele>811</ele>
        <time>2021-08-02T09:20:52.396Z</time>
      </trkpt>
      <trkpt lat="47.03952" lon="9.01241">
        <ele>812</ele>
        <time>2021-08-02T09:20:53.397Z</time>
      </trkpt>
      <trkpt lat="47.03952" lon="9.01237">
        <ele>814</ele>
        <time>2021-08-02T09:20:54.397Z</time>
      </trkpt>
      <trkpt lat="47.03953" lon="9.01235">
        <ele>817</ele>
        <time>2021-08-02T09:20:55.398Z</time>
      </trkpt>
      <trkpt lat="47.03955" lon="9.01231">
        <ele>821</ele>
        <time>2021-08-02T09:20:56.399Z</time>
      </trkpt>
      <trkpt lat="47.03954" lon="9.0123">
        <ele>820</ele>
        <time>2021-08-02T09:20:57.398Z</time>
      </trkpt>
      <trkpt lat="47.03954" lon="9.01229">
        <ele>820</ele>
        <time>2021-08-02T09:20:58.399Z</time>
      </trkpt>
      <trkpt lat="47.03953" lon="9.01229">
        <ele>820</ele>
        <time>2021-08-02T09:20:59.399Z</time>
      </trkpt>
      <trkpt lat="47.03953" lon="9.01229">
        <ele>821</ele>
        <time>2021-08-02T09:21:00.399Z</time>
      </trkpt>
      <trkpt lat="47.03953" lon="9.01229">
        <ele>821</ele>
        <time>2021-08-02T09:21:01.399Z</time>
      </trkpt>
      <trkpt lat="47.03953" lon="9.01229">
        <ele>821</ele>
        <time>2021-08-02T09:21:02.398Z</time>
      </trkpt>
      <trkpt lat="47.03952" lon="9.01236">
        <ele>827</ele>
        <time>2021-08-02T09:21:03.398Z</time>
      </trkpt>
      <trkpt lat="47.03954" lon="9.01238">
        <ele>827</ele>
        <time>2021-08-02T09:21:04.398Z</time>
      </trkpt>
      <trkpt lat="47.03954" lon="9.01237">
        <ele>827</ele>
        <time>2021-08-02T09:21:05.399Z</time>
      </trkpt>
      <trkpt lat="47.03949" lon="9.01236">
        <ele>822</ele>
        <time>2021-08-02T09:21:06.399Z</time>
      </trkpt>
      <trkpt lat="47.03948" lon="9.01236">
        <ele>822</ele>
        <time>2021-08-02T09:21:07.400Z</time>
      </trkpt>
      <trkpt lat="47.03948" lon="9.01236">
        <ele>822</ele>
        <time>2021-08-02T09:21:08.399Z</time>
      </trkpt>
      <trkpt lat="47.03948" lon="9.01236">
        <ele>822</ele>
        <time>2021-08-02T09:21:09.399Z</time>
      </trkpt>
      <trkpt lat="47.03947" lon="9.01235">
        <ele>822</ele>
        <time>2021-08-02T09:21:10.399Z</time>
      </trkpt>
      <trkpt lat="47.03947" lon="9.01235">
        <ele>821</ele>
        <time>2021-08-02T09:21:11.400Z</time>
      </trkpt>
      <trkpt lat="47.03947" lon="9.01234">
        <ele>821</ele>
        <time>2021-08-02T09:21:12.400Z</time>
      </trkpt>
      <trkpt lat="47.03946" lon="9.01234">
        <ele>820</ele>
        <time>2021-08-02T09:21:13.401Z</time>
      </trkpt>
      <trkpt lat="47.03951" lon="9.01242">
        <ele>812</ele>
        <time>2021-08-02T09:21:14.401Z</time>
      </trkpt>
      <trkpt lat="47.0395" lon="9.01243">
        <ele>812</ele>
        <time>2021-08-02T09:21:15.400Z</time>
      </trkpt>
      <trkpt lat="47.0395" lon="9.01244">
        <ele>811</ele>
        <time>2021-08-02T09:21:16.401Z</time>
      </trkpt>
      <trkpt lat="47.0395" lon="9.01244">
        <ele>809</ele>
        <time>2021-08-02T09:21:17.400Z</time>
      </trkpt>
      <trkpt lat="47.03951" lon="9.01245">
        <ele>807</ele>
        <time>2021-08-02T09:21:18.400Z</time>
      </trkpt>
      <trkpt lat="47.03954" lon="9.01245">
        <ele>807</ele>
        <time>2021-08-02T09:21:19.401Z</time>
      </trkpt>
      <trkpt lat="47.03955" lon="9.01247">
        <ele>809</ele>
        <time>2021-08-02T09:21:20.401Z</time>
      </trkpt>
      <trkpt lat="47.03956" lon="9.01247">
        <ele>809</ele>
        <time>2021-08-02T09:21:21.400Z</time>
      </trkpt>
      <trkpt lat="47.03956" lon="9.01247">
        <ele>810</ele>
        <time>2021-08-02T09:21:22.401Z</time>
      </trkpt>
      <trkpt lat="47.03957" lon="9.01248">
        <ele>810</ele>
        <time>2021-08-02T09:21:23.401Z</time>
      </trkpt>
      <trkpt lat="47.03957" lon="9.01248">
        <ele>810</ele>
        <time>2021-08-02T09:21:24.401Z</time>
      </trkpt>
      <trkpt lat="47.03958" lon="9.01249">
        <ele>810</ele>
        <time>2021-08-02T09:21:25.401Z</time>
      </trkpt>
      <trkpt lat="47.03959" lon="9.01248">
        <ele>810</ele>
        <time>2021-08-02T09:21:26.400Z</time>
      </trkpt>
      <trkpt lat="47.0396" lon="9.01248">
        <ele>810</ele>
        <time>2021-08-02T09:21:27.401Z</time>
      </trkpt>
      <trkpt lat="47.03952" lon="9.01249">
        <ele>812</ele>
        <time>2021-08-02T09:21:28.403Z</time>
      </trkpt>
      <trkpt lat="47.03953" lon="9.0125">
        <ele>812</ele>
        <time>2021-08-02T09:21:29.402Z</time>
      </trkpt>
      <trkpt lat="47.03953" lon="9.0125">
        <ele>811</ele>
        <time>2021-08-02T09:21:30.402Z</time>
      </trkpt>
      <trkpt lat="47.03954" lon="9.0125">
        <ele>811</ele>
        <time>2021-08-02T09:21:31.403Z</time>
      </trkpt>
      <trkpt lat="47.03953" lon="9.01249">
        <ele>810</ele>
        <time>2021-08-02T09:21:32.402Z</time>
      </trkpt>
      <trkpt lat="47.03952" lon="9.01248">
        <ele>810</ele>
        <time>2021-08-02T09:21:33.402Z</time>
      </trkpt>
      <trkpt lat="47.03951" lon="9.01247">
        <ele>810</ele>
        <time>2021-08-02T09:21:34.403Z</time>
      </trkpt>
      <trkpt lat="47.03951" lon="9.01246">
        <ele>809</ele>
        <time>2021-08-02T09:21:35.402Z</time>
      </trkpt>
      <trkpt lat="47.0395" lon="9.01245">
        <ele>809</ele>
        <time>2021-08-02T09:21:36.402Z</time>
      </trkpt>
      <trkpt lat="47.03949" lon="9.01244">
        <ele>809</ele>
        <time>2021-08-02T09:21:37.403Z</time>
      </trkpt>
      <trkpt lat="47.03948" lon="9.01244">
        <ele>809</ele>
        <time>2021-08-02T09:21:38.402Z</time>
      </trkpt>
      <trkpt lat="47.03948" lon="9.01243">
        <ele>810</ele>
        <time>2021-08-02T09:21:39.403Z</time>
      </trkpt>
      <trkpt lat="47.03947" lon="9.01242">
        <ele>810</ele>
        <time>2021-08-02T09:21:40.403Z</time>
      </trkpt>
      <trkpt lat="47.03946" lon="9.01242">
        <ele>810</ele>
        <time>2021-08-02T09:21:41.402Z</time>
      </trkpt>
      <trkpt lat="47.03945" lon="9.01241">
        <ele>810</ele>
        <time>2021-08-02T09:21:42.403Z</time>
      </trkpt>
      <trkpt lat="47.03945" lon="9.01241">
        <ele>810</ele>
        <time>2021-08-02T09:21:43.403Z</time>
      </trkpt>
      <trkpt lat="47.03944" lon="9.0124">
        <ele>811</ele>
        <time>2021-08-02T09:21:44.403Z</time>
      </trkpt>
      <trkpt lat="47.03944" lon="9.01239">
        <ele>811</ele>
        <time>2021-08-02T09:21:45.402Z</time>
      </trkpt>
      <trkpt lat="47.03943" lon="9.01239">
        <ele>811</ele>
        <time>2021-08-02T09:21:46.403Z</time>
      </trkpt>
      <trkpt lat="47.03942" lon="9.01238">
        <ele>811</ele>
        <time>2021-08-02T09:21:47.402Z</time>
      </trkpt>
      <trkpt lat="47.03941" lon="9.01237">
        <ele>811</ele>
        <time>2021-08-02T09:21:48.403Z</time>
      </trkpt>
      <trkpt lat="47.0394" lon="9.01236">
        <ele>811</ele>
        <time>2021-08-02T09:21:49.403Z</time>
      </trkpt>
      <trkpt lat="47.03939" lon="9.01235">
        <ele>811</ele>
        <time>2021-08-02T09:21:50.402Z</time>
      </trkpt>
      <trkpt lat="47.03938" lon="9.01233">
        <ele>811</ele>
        <time>2021-08-02T09:21:51.403Z</time>
      </trkpt>
      <trkpt lat="47.03938" lon="9.01231">
        <ele>811</ele>
        <time>2021-08-02T09:21:52.403Z</time>
      </trkpt>
      <trkpt lat="47.03938" lon="9.01229">
        <ele>811</ele>
        <time>2021-08-02T09:21:53.402Z</time>
      </trkpt>
      <trkpt lat="47.03938" lon="9.01227">
        <ele>811</ele>
        <time>2021-08-02T09:21:54.402Z</time>
      </trkpt>
      <trkpt lat="47.03937" lon="9.01226">
        <ele>811</ele>
        <time>2021-08-02T09:21:55.402Z</time>
      </trkpt>
      <trkpt lat="47.03936" lon="9.01225">
        <ele>811</ele>
        <time>2021-08-02T09:21:56.402Z</time>
      </trkpt>
      <trkpt lat="47.03935" lon="9.01224">
        <ele>811</ele>
        <time>2021-08-02T09:21:57.402Z</time>
      </trkpt>
      <trkpt lat="47.03935" lon="9.01223">
        <ele>811</ele>
        <time>2021-08-02T09:21:58.402Z</time>
      </trkpt>
      <trkpt lat="47.03935" lon="9.01221">
        <ele>812</ele>
        <time>2021-08-02T09:21:59.403Z</time>
      </trkpt>
      <trkpt lat="47.03934" lon="9.0122">
        <ele>811</ele>
        <time>2021-08-02T09:22:00.403Z</time>
      </trkpt>
      <trkpt lat="47.03933" lon="9.01218">
        <ele>811</ele>
        <time>2021-08-02T09:22:01.403Z</time>
      </trkpt>
      <trkpt lat="47.03932" lon="9.01215">
        <ele>811</ele>
        <time>2021-08-02T09:22:02.403Z</time>
      </trkpt>
      <trkpt lat="47.03931" lon="9.01214">
        <ele>811</ele>
        <time>2021-08-02T09:22:03.403Z</time>
      </trkpt>
      <trkpt lat="47.0393" lon="9.01213">
        <ele>811</ele>
        <time>2021-08-02T09:22:04.402Z</time>
      </trkpt>
      <trkpt lat="47.03928" lon="9.01212">
        <ele>811</ele>
        <time>2021-08-02T09:22:05.402Z</time>
      </trkpt>
      <trkpt lat="47.03927" lon="9.01212">
        <ele>810</ele>
        <time>2021-08-02T09:22:06.403Z</time>
      </trkpt>
      <trkpt lat="47.03925" lon="9.01212">
        <ele>810</ele>
        <time>2021-08-02T09:22:07.402Z</time>
      </trkpt>
      <trkpt lat="47.03925" lon="9.0121">
        <ele>810</ele>
        <time>2021-08-02T09:22:08.403Z</time>
      </trkpt>
      <trkpt lat="47.03925" lon="9.01208">
        <ele>809</ele>
        <time>2021-08-02T09:22:09.402Z</time>
      </trkpt>
      <trkpt lat="47.03924" lon="9.01206">
        <ele>808</ele>
        <time>2021-08-02T09:22:10.402Z</time>
      </trkpt>
      <trkpt lat="47.03924" lon="9.01204">
        <ele>807</ele>
        <time>2021-08-02T09:22:11.402Z</time>
      </trkpt>
      <trkpt lat="47.03923" lon="9.01203">
        <ele>807</ele>
        <time>2021-08-02T09:22:12.402Z</time>
      </trkpt>
      <trkpt lat="47.03922" lon="9.01202">
        <ele>806</ele>
        <time>2021-08-02T09:22:13.403Z</time>
      </trkpt>
      <trkpt lat="47.03921" lon="9.01201">
        <ele>806</ele>
        <time>2021-08-02T09:22:14.403Z</time>
      </trkpt>
      <trkpt lat="47.0392" lon="9.01199">
        <ele>807</ele>
        <time>2021-08-02T09:22:15.402Z</time>
      </trkpt>
      <trkpt lat="47.0392" lon="9.01198">
        <ele>807</ele>
        <time>2021-08-02T09:22:16.402Z</time>
      </trkpt>
      <trkpt lat="47.03919" lon="9.01197">
        <ele>807</ele>
        <time>2021-08-02T09:22:17.402Z</time>
      </trkpt>
      <trkpt lat="47.03919" lon="9.01196">
        <ele>807</ele>
        <time>2021-08-02T09:22:18.403Z</time>
      </trkpt>
      <trkpt lat="47.03919" lon="9.01194">
        <ele>806</ele>
        <time>2021-08-02T09:22:19.403Z</time>
      </trkpt>
      <trkpt lat="47.03918" lon="9.01193">
        <ele>806</ele>
        <time>2021-08-02T09:22:20.403Z</time>
      </trkpt>
      <trkpt lat="47.03918" lon="9.01191">
        <ele>806</ele>
        <time>2021-08-02T09:22:21.402Z</time>
      </trkpt>
      <trkpt lat="47.03917" lon="9.0119">
        <ele>807</ele>
        <time>2021-08-02T09:22:22.402Z</time>
      </trkpt>
      <trkpt lat="47.03916" lon="9.01188">
        <ele>807</ele>
        <time>2021-08-02T09:22:23.402Z</time>
      </trkpt>
      <trkpt lat="47.03916" lon="9.01186">
        <ele>807</ele>
        <time>2021-08-02T09:22:24.402Z</time>
      </trkpt>
      <trkpt lat="47.03915" lon="9.01185">
        <ele>807</ele>
        <time>2021-08-02T09:22:25.403Z</time>
      </trkpt>
      <trkpt lat="47.03915" lon="9.01183">
        <ele>808</ele>
        <time>2021-08-02T09:22:26.402Z</time>
      </trkpt>
      <trkpt lat="47.03914" lon="9.01181">
        <ele>808</ele>
        <time>2021-08-02T09:22:27.403Z</time>
      </trkpt>
      <trkpt lat="47.03914" lon="9.0118">
        <ele>808</ele>
        <time>2021-08-02T09:22:28.402Z</time>
      </trkpt>
      <trkpt lat="47.03913" lon="9.01179">
        <ele>809</ele>
        <time>2021-08-02T09:22:29.403Z</time>
      </trkpt>
      <trkpt lat="47.03913" lon="9.01177">
        <ele>809</ele>
        <time>2021-08-02T09:22:30.402Z</time>
      </trkpt>
      <trkpt lat="47.03912" lon="9.01176">
        <ele>809</ele>
        <time>2021-08-02T09:22:31.402Z</time>
      </trkpt>
      <trkpt lat="47.03911" lon="9.01174">
        <ele>810</ele>
        <time>2021-08-02T09:22:32.402Z</time>
      </trkpt>
      <trkpt lat="47.03911" lon="9.01173">
        <ele>810</ele>
        <time>2021-08-02T09:22:33.403Z</time>
      </trkpt>
      <trkpt lat="47.0391" lon="9.01172">
        <ele>811</ele>
        <time>2021-08-02T09:22:34.403Z</time>
      </trkpt>
      <trkpt lat="47.03909" lon="9.0117">
        <ele>811</ele>
        <time>2021-08-02T09:22:35.403Z</time>
      </trkpt>
      <trkpt lat="47.03908" lon="9.01167">
        <ele>812</ele>
        <time>2021-08-02T09:22:36.402Z</time>
      </trkpt>
      <trkpt lat="47.03907" lon="9.01164">
        <ele>813</ele>
        <time>2021-08-02T09:22:37.402Z</time>
      </trkpt>
      <trkpt lat="47.03906" lon="9.01162">
        <ele>813</ele>
        <time>2021-08-02T09:22:38.403Z</time>
      </trkpt>
      <trkpt lat="47.03907" lon="9.0116">
        <ele>813</ele>
        <time>2021-08-02T09:22:39.402Z</time>
      </trkpt>
      <trkpt lat="47.03907" lon="9.01158">
        <ele>814</ele>
        <time>2021-08-02T09:22:40.402Z</time>
      </trkpt>
      <trkpt lat="47.03906" lon="9.01156">
        <ele>814</ele>
        <time>2021-08-02T09:22:41.403Z</time>
      </trkpt>
      <trkpt lat="47.03905" lon="9.01155">
        <ele>815</ele>
        <time>2021-08-02T09:22:42.402Z</time>
      </trkpt>
      <trkpt lat="47.03904" lon="9.01154">
        <ele>815</ele>
        <time>2021-08-02T09:22:43.403Z</time>
      </trkpt>
      <trkpt lat="47.03903" lon="9.01153">
        <ele>816</ele>
        <time>2021-08-02T09:22:44.402Z</time>
      </trkpt>
      <trkpt lat="47.03902" lon="9.01153">
        <ele>816</ele>
        <time>2021-08-02T09:22:45.403Z</time>
      </trkpt>
      <trkpt lat="47.03901" lon="9.01152">
        <ele>817</ele>
        <time>2021-08-02T09:22:46.403Z</time>
      </trkpt>
      <trkpt lat="47.039" lon="9.01152">
        <ele>817</ele>
        <time>2021-08-02T09:22:47.402Z</time>
      </trkpt>
      <trkpt lat="47.03899" lon="9.01151">
        <ele>817</ele>
        <time>2021-08-02T09:22:48.402Z</time>
      </trkpt>
      <trkpt lat="47.03898" lon="9.0115">
        <ele>816</ele>
        <time>2021-08-02T09:22:49.402Z</time>
      </trkpt>
      <trkpt lat="47.03896" lon="9.0115">
        <ele>816</ele>
        <time>2021-08-02T09:22:50.403Z</time>
      </trkpt>
      <trkpt lat="47.03895" lon="9.01149">
        <ele>815</ele>
        <time>2021-08-02T09:22:51.402Z</time>
      </trkpt>
      <trkpt lat="47.03895" lon="9.01149">
        <ele>815</ele>
        <time>2021-08-02T09:22:52.403Z</time>
      </trkpt>
      <trkpt lat="47.03895" lon="9.01148">
        <ele>815</ele>
        <time>2021-08-02T09:22:53.403Z</time>
      </trkpt>
      <trkpt lat="47.03894" lon="9.01148">
        <ele>815</ele>
        <time>2021-08-02T09:22:54.402Z</time>
      </trkpt>
      <trkpt lat="47.03894" lon="9.01147">
        <ele>815</ele>
        <time>2021-08-02T09:22:55.403Z</time>
      </trkpt>
      <trkpt lat="47.03893" lon="9.01147">
        <ele>814</ele>
        <time>2021-08-02T09:22:56.402Z</time>
      </trkpt>
      <trkpt lat="47.03891" lon="9.01146">
        <ele>814</ele>
        <time>2021-08-02T09:22:57.403Z</time>
      </trkpt>
      <trkpt lat="47.03891" lon="9.01145">
        <ele>814</ele>
        <time>2021-08-02T09:22:58.403Z</time>
      </trkpt>
      <trkpt lat="47.0389" lon="9.01144">
        <ele>813</ele>
        <time>2021-08-02T09:22:59.402Z</time>
      </trkpt>
      <trkpt lat="47.03889" lon="9.01144">
        <ele>813</ele>
        <time>2021-08-02T09:23:00.402Z</time>
      </trkpt>
      <trkpt lat="47.03888" lon="9.01143">
        <ele>812</ele>
        <time>2021-08-02T09:23:01.402Z</time>
      </trkpt>
      <trkpt lat="47.03887" lon="9.01142">
        <ele>812</ele>
        <time>2021-08-02T09:23:02.402Z</time>
      </trkpt>
      <trkpt lat="47.03886" lon="9.0114">
        <ele>812</ele>
        <time>2021-08-02T09:23:03.403Z</time>
      </trkpt>
      <trkpt lat="47.03884" lon="9.0114">
        <ele>812</ele>
        <time>2021-08-02T09:23:04.402Z</time>
      </trkpt>
      <trkpt lat="47.03883" lon="9.01139">
        <ele>812</ele>
        <time>2021-08-02T09:23:05.402Z</time>
      </trkpt>
      <trkpt lat="47.03882" lon="9.01139">
        <ele>812</ele>
        <time>2021-08-02T09:23:06.402Z</time>
      </trkpt>
      <trkpt lat="47.0388" lon="9.01139">
        <ele>813</ele>
        <time>2021-08-02T09:23:07.403Z</time>
      </trkpt>
      <trkpt lat="47.03879" lon="9.01137">
        <ele>813</ele>
        <time>2021-08-02T09:23:08.402Z</time>
      </trkpt>
      <trkpt lat="47.03878" lon="9.01136">
        <ele>814</ele>
        <time>2021-08-02T09:23:09.403Z</time>
      </trkpt>
      <trkpt lat="47.03877" lon="9.01135">
        <ele>814</ele>
        <time>2021-08-02T09:23:10.403Z</time>
      </trkpt>
      <trkpt lat="47.03876" lon="9.01134">
        <ele>815</ele>
        <time>2021-08-02T09:23:11.403Z</time>
      </trkpt>
      <trkpt lat="47.03874" lon="9.01133">
        <ele>815</ele>
        <time>2021-08-02T09:23:12.402Z</time>
      </trkpt>
      <trkpt lat="47.03873" lon="9.01132">
        <ele>816</ele>
        <time>2021-08-02T09:23:13.402Z</time>
      </trkpt>
      <trkpt lat="47.03871" lon="9.01131">
        <ele>817</ele>
        <time>2021-08-02T09:23:14.403Z</time>
      </trkpt>
      <trkpt lat="47.0387" lon="9.01131">
        <ele>818</ele>
        <time>2021-08-02T09:23:15.403Z</time>
      </trkpt>
      <trkpt lat="47.03869" lon="9.0113">
        <ele>819</ele>
        <time>2021-08-02T09:23:16.402Z</time>
      </trkpt>
      <trkpt lat="47.03868" lon="9.0113">
        <ele>820</ele>
        <time>2021-08-02T09:23:17.402Z</time>
      </trkpt>
      <trkpt lat="47.03866" lon="9.01129">
        <ele>820</ele>
        <time>2021-08-02T09:23:18.403Z</time>
      </trkpt>
      <trkpt lat="47.03865" lon="9.01128">
        <ele>821</ele>
        <time>2021-08-02T09:23:19.402Z</time>
      </trkpt>
      <trkpt lat="47.03865" lon="9.01127">
        <ele>821</ele>
        <time>2021-08-02T09:23:20.403Z</time>
      </trkpt>
      <trkpt lat="47.03863" lon="9.01126">
        <ele>822</ele>
        <time>2021-08-02T09:23:21.402Z</time>
      </trkpt>
      <trkpt lat="47.03863" lon="9.01125">
        <ele>822</ele>
        <time>2021-08-02T09:23:22.402Z</time>
      </trkpt>
      <trkpt lat="47.03862" lon="9.01124">
        <ele>822</ele>
        <time>2021-08-02T09:23:23.403Z</time>
      </trkpt>
      <trkpt lat="47.03862" lon="9.01124">
        <ele>822</ele>
        <time>2021-08-02T09:23:24.403Z</time>
      </trkpt>
      <trkpt lat="47.03862" lon="9.01123">
        <ele>823</ele>
        <time>2021-08-02T09:23:25.402Z</time>
      </trkpt>
      <trkpt lat="47.03861" lon="9.01122">
        <ele>823</ele>
        <time>2021-08-02T09:23:26.403Z</time>
      </trkpt>
      <trkpt lat="47.03861" lon="9.01121">
        <ele>823</ele>
        <time>2021-08-02T09:23:27.403Z</time>
      </trkpt>
      <trkpt lat="47.0386" lon="9.0112">
        <ele>824</ele>
        <time>2021-08-02T09:23:28.402Z</time>
      </trkpt>
      <trkpt lat="47.03859" lon="9.01118">
        <ele>824</ele>
        <time>2021-08-02T09:23:29.402Z</time>
      </trkpt>
      <trkpt lat="47.03858" lon="9.01117">
        <ele>824</ele>
        <time>2021-08-02T09:23:30.402Z</time>
      </trkpt>
      <trkpt lat="47.03857" lon="9.01116">
        <ele>824</ele>
        <time>2021-08-02T09:23:31.402Z</time>
      </trkpt>
      <trkpt lat="47.03856" lon="9.01115">
        <ele>824</ele>
        <time>2021-08-02T09:23:32.403Z</time>
      </trkpt>
      <trkpt lat="47.03855" lon="9.01115">
        <ele>824</ele>
        <time>2021-08-02T09:23:33.402Z</time>
      </trkpt>
      <trkpt lat="47.03854" lon="9.01114">
        <ele>824</ele>
        <time>2021-08-02T09:23:34.403Z</time>
      </trkpt>
      <trkpt lat="47.03854" lon="9.01114">
        <ele>823</ele>
        <time>2021-08-02T09:23:35.403Z</time>
      </trkpt>
      <trkpt lat="47.03854" lon="9.01113">
        <ele>823</ele>
        <time>2021-08-02T09:23:36.403Z</time>
      </trkpt>
      <trkpt lat="47.03854" lon="9.01112">
        <ele>822</ele>
        <time>2021-08-02T09:23:37.402Z</time>
      </trkpt>
      <trkpt lat="47.03854" lon="9.01111">
        <ele>821</ele>
        <time>2021-08-02T09:23:38.403Z</time>
      </trkpt>
      <trkpt lat="47.03854" lon="9.0111">
        <ele>821</ele>
        <time>2021-08-02T09:23:39.402Z</time>
      </trkpt>
      <trkpt lat="47.03853" lon="9.01109">
        <ele>820</ele>
        <time>2021-08-02T09:23:40.402Z</time>
      </trkpt>
      <trkpt lat="47.03853" lon="9.01107">
        <ele>819</ele>
        <time>2021-08-02T09:23:41.402Z</time>
      </trkpt>
      <trkpt lat="47.03853" lon="9.01106">
        <ele>818</ele>
        <time>2021-08-02T09:23:42.403Z</time>
      </trkpt>
      <trkpt lat="47.03853" lon="9.01105">
        <ele>818</ele>
        <time>2021-08-02T09:23:43.402Z</time>
      </trkpt>
      <trkpt lat="47.03852" lon="9.01105">
        <ele>817</ele>
        <time>2021-08-02T09:23:44.402Z</time>
      </trkpt>
      <trkpt lat="47.03852" lon="9.01104">
        <ele>816</ele>
        <time>2021-08-02T09:23:45.403Z</time>
      </trkpt>
      <trkpt lat="47.03852" lon="9.01104">
        <ele>816</ele>
        <time>2021-08-02T09:23:46.402Z</time>
      </trkpt>
      <trkpt lat="47.03852" lon="9.01103">
        <ele>816</ele>
        <time>2021-08-02T09:23:47.402Z</time>
      </trkpt>
      <trkpt lat="47.03852" lon="9.01103">
        <ele>816</ele>
        <time>2021-08-02T09:23:48.402Z</time>
      </trkpt>
      <trkpt lat="47.03851" lon="9.01101">
        <ele>815</ele>
        <time>2021-08-02T09:23:49.402Z</time>
      </trkpt>
      <trkpt lat="47.0385" lon="9.011">
        <ele>815</ele>
        <time>2021-08-02T09:23:50.402Z</time>
      </trkpt>
      <trkpt lat="47.0385" lon="9.01099">
        <ele>815</ele>
        <time>2021-08-02T09:23:51.403Z</time>
      </trkpt>
      <trkpt lat="47.03849" lon="9.01098">
        <ele>815</ele>
        <time>2021-08-02T09:23:52.402Z</time>
      </trkpt>
      <trkpt lat="47.03849" lon="9.01097">
        <ele>814</ele>
        <time>2021-08-02T09:23:53.402Z</time>
      </trkpt>
      <trkpt lat="47.03849" lon="9.01096">
        <ele>814</ele>
        <time>2021-08-02T09:23:54.403Z</time>
      </trkpt>
      <trkpt lat="47.03848" lon="9.01095">
        <ele>813</ele>
        <time>2021-08-02T09:23:55.402Z</time>
      </trkpt>
      <trkpt lat="47.03848" lon="9.01094">
        <ele>813</ele>
        <time>2021-08-02T09:23:56.403Z</time>
      </trkpt>
      <trkpt lat="47.03847" lon="9.01094">
        <ele>812</ele>
        <time>2021-08-02T09:23:57.402Z</time>
      </trkpt>
      <trkpt lat="47.03847" lon="9.01093">
        <ele>812</ele>
        <time>2021-08-02T09:23:58.402Z</time>
      </trkpt>
      <trkpt lat="47.03847" lon="9.01092">
        <ele>812</ele>
        <time>2021-08-02T09:23:59.403Z</time>
      </trkpt>
      <trkpt lat="47.03846" lon="9.01092">
        <ele>812</ele>
        <time>2021-08-02T09:24:00.403Z</time>
      </trkpt>
      <trkpt lat="47.03846" lon="9.01092">
        <ele>812</ele>
        <time>2021-08-02T09:24:01.402Z</time>
      </trkpt>
      <trkpt lat="47.03846" lon="9.01091">
        <ele>812</ele>
        <time>2021-08-02T09:24:02.403Z</time>
      </trkpt>
      <trkpt lat="47.03846" lon="9.01089">
        <ele>811</ele>
        <time>2021-08-02T09:24:03.403Z</time>
      </trkpt>
      <trkpt lat="47.03846" lon="9.01086">
        <ele>810</ele>
        <time>2021-08-02T09:24:04.402Z</time>
      </trkpt>
      <trkpt lat="47.03846" lon="9.01083">
        <ele>809</ele>
        <time>2021-08-02T09:24:05.402Z</time>
      </trkpt>
      <trkpt lat="47.03847" lon="9.01081">
        <ele>809</ele>
        <time>2021-08-02T09:24:06.402Z</time>
      </trkpt>
      <trkpt lat="47.03847" lon="9.0108">
        <ele>808</ele>
        <time>2021-08-02T09:24:07.402Z</time>
      </trkpt>
      <trkpt lat="47.03847" lon="9.01078">
        <ele>808</ele>
        <time>2021-08-02T09:24:08.402Z</time>
      </trkpt>
      <trkpt lat="47.03847" lon="9.01077">
        <ele>808</ele>
        <time>2021-08-02T09:24:09.402Z</time>
      </trkpt>
      <trkpt lat="47.03848" lon="9.01076">
        <ele>808</ele>
        <time>2021-08-02T09:24:10.402Z</time>
      </trkpt>
      <trkpt lat="47.03848" lon="9.01075">
        <ele>808</ele>
        <time>2021-08-02T09:24:11.402Z</time>
      </trkpt>
      <trkpt lat="47.03847" lon="9.01073">
        <ele>809</ele>
        <time>2021-08-02T09:24:12.403Z</time>
      </trkpt>
      <trkpt lat="47.03847" lon="9.01072">
        <ele>809</ele>
        <time>2021-08-02T09:24:13.403Z</time>
      </trkpt>
      <trkpt lat="47.03848" lon="9.0107">
        <ele>810</ele>
        <time>2021-08-02T09:24:14.402Z</time>
      </trkpt>
      <trkpt lat="47.03847" lon="9.01068">
        <ele>810</ele>
        <time>2021-08-02T09:24:15.402Z</time>
      </trkpt>
      <trkpt lat="47.03846" lon="9.01066">
        <ele>811</ele>
        <time>2021-08-02T09:24:16.402Z</time>
      </trkpt>
      <trkpt lat="47.03844" lon="9.01064">
        <ele>811</ele>
        <time>2021-08-02T09:24:17.402Z</time>
      </trkpt>
      <trkpt lat="47.03843" lon="9.01063">
        <ele>811</ele>
        <time>2021-08-02T09:24:18.403Z</time>
      </trkpt>
      <trkpt lat="47.03842" lon="9.01061">
        <ele>811</ele>
        <time>2021-08-02T09:24:19.402Z</time>
      </trkpt>
      <trkpt lat="47.03842" lon="9.0106">
        <ele>811</ele>
        <time>2021-08-02T09:24:20.403Z</time>
      </trkpt>
      <trkpt lat="47.03843" lon="9.0106">
        <ele>810</ele>
        <time>2021-08-02T09:24:21.403Z</time>
      </trkpt>
      <trkpt lat="47.03843" lon="9.01059">
        <ele>810</ele>
        <time>2021-08-02T09:24:22.402Z</time>
      </trkpt>
      <trkpt lat="47.03843" lon="9.01058">
        <ele>811</ele>
        <time>2021-08-02T09:24:23.403Z</time>
      </trkpt>
      <trkpt lat="47.03842" lon="9.01057">
        <ele>811</ele>
        <time>2021-08-02T09:24:24.403Z</time>
      </trkpt>
      <trkpt lat="47.03841" lon="9.01057">
        <ele>811</ele>
        <time>2021-08-02T09:24:25.402Z</time>
      </trkpt>
      <trkpt lat="47.0384" lon="9.01056">
        <ele>812</ele>
        <time>2021-08-02T09:24:26.403Z</time>
      </trkpt>
      <trkpt lat="47.03839" lon="9.01056">
        <ele>812</ele>
        <time>2021-08-02T09:24:27.402Z</time>
      </trkpt>
      <trkpt lat="47.03837" lon="9.01056">
        <ele>812</ele>
        <time>2021-08-02T09:24:28.403Z</time>
      </trkpt>
      <trkpt lat="47.03836" lon="9.01055">
        <ele>812</ele>
        <time>2021-08-02T09:24:29.403Z</time>
      </trkpt>
      <trkpt lat="47.03836" lon="9.01055">
        <ele>812</ele>
        <time>2021-08-02T09:24:30.402Z</time>
      </trkpt>
      <trkpt lat="47.03835" lon="9.01055">
        <ele>813</ele>
        <time>2021-08-02T09:24:31.403Z</time>
      </trkpt>
      <trkpt lat="47.03835" lon="9.01056">
        <ele>813</ele>
        <time>2021-08-02T09:24:32.403Z</time>
      </trkpt>
      <trkpt lat="47.03834" lon="9.01055">
        <ele>814</ele>
        <time>2021-08-02T09:24:33.402Z</time>
      </trkpt>
      <trkpt lat="47.03833" lon="9.01055">
        <ele>814</ele>
        <time>2021-08-02T09:24:34.403Z</time>
      </trkpt>
      <trkpt lat="47.03832" lon="9.01055">
        <ele>814</ele>
        <time>2021-08-02T09:24:35.403Z</time>
      </trkpt>
      <trkpt lat="47.03831" lon="9.01055">
        <ele>815</ele>
        <time>2021-08-02T09:24:36.403Z</time>
      </trkpt>
      <trkpt lat="47.0383" lon="9.01054">
        <ele>815</ele>
        <time>2021-08-02T09:24:37.402Z</time>
      </trkpt>
      <trkpt lat="47.03829" lon="9.01053">
        <ele>816</ele>
        <time>2021-08-02T09:24:38.403Z</time>
      </trkpt>
      <trkpt lat="47.03828" lon="9.01052">
        <ele>817</ele>
        <time>2021-08-02T09:24:39.403Z</time>
      </trkpt>
      <trkpt lat="47.03828" lon="9.01051">
        <ele>817</ele>
        <time>2021-08-02T09:24:40.403Z</time>
      </trkpt>
      <trkpt lat="47.03827" lon="9.01051">
        <ele>817</ele>
        <time>2021-08-02T09:24:41.402Z</time>
      </trkpt>
      <trkpt lat="47.03827" lon="9.01051">
        <ele>818</ele>
        <time>2021-08-02T09:24:42.403Z</time>
      </trkpt>
      <trkpt lat="47.03826" lon="9.0105">
        <ele>818</ele>
        <time>2021-08-02T09:24:43.403Z</time>
      </trkpt>
      <trkpt lat="47.03825" lon="9.0105">
        <ele>819</ele>
        <time>2021-08-02T09:24:44.403Z</time>
      </trkpt>
      <trkpt lat="47.03824" lon="9.01051">
        <ele>819</ele>
        <time>2021-08-02T09:24:45.402Z</time>
      </trkpt>
      <trkpt lat="47.03824" lon="9.01051">
        <ele>820</ele>
        <time>2021-08-02T09:24:46.403Z</time>
      </trkpt>
      <trkpt lat="47.03823" lon="9.01052">
        <ele>820</ele>
        <time>2021-08-02T09:24:47.402Z</time>
      </trkpt>
      <trkpt lat="47.03823" lon="9.01052">
        <ele>821</ele>
        <time>2021-08-02T09:24:48.403Z</time>
      </trkpt>
      <trkpt lat="47.03822" lon="9.01052">
        <ele>821</ele>
        <time>2021-08-02T09:24:49.402Z</time>
      </trkpt>
      <trkpt lat="47.03822" lon="9.0105">
        <ele>822</ele>
        <time>2021-08-02T09:24:50.403Z</time>
      </trkpt>
      <trkpt lat="47.03821" lon="9.01049">
        <ele>822</ele>
        <time>2021-08-02T09:24:51.403Z</time>
      </trkpt>
      <trkpt lat="47.0382" lon="9.01047">
        <ele>822</ele>
        <time>2021-08-02T09:24:52.402Z</time>
      </trkpt>
      <trkpt lat="47.03819" lon="9.01046">
        <ele>822</ele>
        <time>2021-08-02T09:24:53.402Z</time>
      </trkpt>
      <trkpt lat="47.03818" lon="9.01046">
        <ele>822</ele>
        <time>2021-08-02T09:24:54.403Z</time>
      </trkpt>
      <trkpt lat="47.03817" lon="9.01045">
        <ele>822</ele>
        <time>2021-08-02T09:24:55.403Z</time>
      </trkpt>
      <trkpt lat="47.03816" lon="9.01045">
        <ele>822</ele>
        <time>2021-08-02T09:24:56.403Z</time>
      </trkpt>
      <trkpt lat="47.03815" lon="9.01044">
        <ele>822</ele>
        <time>2021-08-02T09:24:57.403Z</time>
      </trkpt>
      <trkpt lat="47.03815" lon="9.01043">
        <ele>822</ele>
        <time>2021-08-02T09:24:58.402Z</time>
      </trkpt>
      <trkpt lat="47.03814" lon="9.01043">
        <ele>822</ele>
        <time>2021-08-02T09:24:59.403Z</time>
      </trkpt>
      <trkpt lat="47.03814" lon="9.01042">
        <ele>822</ele>
        <time>2021-08-02T09:25:00.402Z</time>
      </trkpt>
      <trkpt lat="47.03813" lon="9.01041">
        <ele>822</ele>
        <time>2021-08-02T09:25:01.403Z</time>
      </trkpt>
      <trkpt lat="47.03812" lon="9.0104">
        <ele>822</ele>
        <time>2021-08-02T09:25:02.403Z</time>
      </trkpt>
      <trkpt lat="47.03811" lon="9.0104">
        <ele>822</ele>
        <time>2021-08-02T09:25:03.402Z</time>
      </trkpt>
      <trkpt lat="47.03809" lon="9.0104">
        <ele>822</ele>
        <time>2021-08-02T09:25:04.403Z</time>
      </trkpt>
      <trkpt lat="47.03808" lon="9.01039">
        <ele>823</ele>
        <time>2021-08-02T09:25:05.403Z</time>
      </trkpt>
      <trkpt lat="47.03808" lon="9.01039">
        <ele>823</ele>
        <time>2021-08-02T09:25:06.403Z</time>
      </trkpt>
      <trkpt lat="47.03807" lon="9.01038">
        <ele>824</ele>
        <time>2021-08-02T09:25:07.403Z</time>
      </trkpt>
      <trkpt lat="47.03807" lon="9.01038">
        <ele>824</ele>
        <time>2021-08-02T09:25:08.402Z</time>
      </trkpt>
      <trkpt lat="47.03806" lon="9.01037">
        <ele>825</ele>
        <time>2021-08-02T09:25:09.403Z</time>
      </trkpt>
      <trkpt lat="47.03807" lon="9.01035">
        <ele>825</ele>
        <time>2021-08-02T09:25:10.403Z</time>
      </trkpt>
      <trkpt lat="47.03807" lon="9.01034">
        <ele>825</ele>
        <time>2021-08-02T09:25:11.403Z</time>
      </trkpt>
      <trkpt lat="47.03807" lon="9.01033">
        <ele>825</ele>
        <time>2021-08-02T09:25:12.402Z</time>
      </trkpt>
      <trkpt lat="47.03806" lon="9.01033">
        <ele>825</ele>
        <time>2021-08-02T09:25:13.402Z</time>
      </trkpt>
      <trkpt lat="47.03806" lon="9.01032">
        <ele>825</ele>
        <time>2021-08-02T09:25:14.402Z</time>
      </trkpt>
      <trkpt lat="47.03805" lon="9.01032">
        <ele>825</ele>
        <time>2021-08-02T09:25:15.402Z</time>
      </trkpt>
      <trkpt lat="47.03804" lon="9.01032">
        <ele>825</ele>
        <time>2021-08-02T09:25:16.403Z</time>
      </trkpt>
      <trkpt lat="47.03804" lon="9.01031">
        <ele>825</ele>
        <time>2021-08-02T09:25:17.403Z</time>
      </trkpt>
      <trkpt lat="47.03804" lon="9.01031">
        <ele>825</ele>
        <time>2021-08-02T09:25:18.402Z</time>
      </trkpt>
      <trkpt lat="47.03804" lon="9.0103">
        <ele>825</ele>
        <time>2021-08-02T09:25:19.403Z</time>
      </trkpt>
      <trkpt lat="47.03803" lon="9.0103">
        <ele>826</ele>
        <time>2021-08-02T09:25:20.402Z</time>
      </trkpt>
      <trkpt lat="47.03802" lon="9.0103">
        <ele>826</ele>
        <time>2021-08-02T09:25:21.403Z</time>
      </trkpt>
      <trkpt lat="47.03801" lon="9.0103">
        <ele>827</ele>
        <time>2021-08-02T09:25:22.403Z</time>
      </trkpt>
      <trkpt lat="47.03801" lon="9.01029">
        <ele>826</ele>
        <time>2021-08-02T09:25:23.403Z</time>
      </trkpt>
      <trkpt lat="47.03801" lon="9.01027">
        <ele>826</ele>
        <time>2021-08-02T09:25:24.403Z</time>
      </trkpt>
      <trkpt lat="47.038" lon="9.01025">
        <ele>826</ele>
        <time>2021-08-02T09:25:25.403Z</time>
      </trkpt>
      <trkpt lat="47.038" lon="9.01024">
        <ele>825</ele>
        <time>2021-08-02T09:25:26.403Z</time>
      </trkpt>
      <trkpt lat="47.03799" lon="9.01023">
        <ele>825</ele>
        <time>2021-08-02T09:25:27.403Z</time>
      </trkpt>
      <trkpt lat="47.03799" lon="9.01023">
        <ele>825</ele>
        <time>2021-08-02T09:25:28.403Z</time>
      </trkpt>
      <trkpt lat="47.03798" lon="9.01023">
        <ele>825</ele>
        <time>2021-08-02T09:25:29.402Z</time>
      </trkpt>
      <trkpt lat="47.03798" lon="9.01022">
        <ele>826</ele>
        <time>2021-08-02T09:25:30.403Z</time>
      </trkpt>
      <trkpt lat="47.03798" lon="9.01022">
        <ele>826</ele>
        <time>2021-08-02T09:25:31.403Z</time>
      </trkpt>
      <trkpt lat="47.03798" lon="9.01021">
        <ele>826</ele>
        <time>2021-08-02T09:25:32.403Z</time>
      </trkpt>
      <trkpt lat="47.03797" lon="9.0102">
        <ele>826</ele>
        <time>2021-08-02T09:25:33.403Z</time>
      </trkpt>
      <trkpt lat="47.03796" lon="9.01019">
        <ele>826</ele>
        <time>2021-08-02T09:25:34.402Z</time>
      </trkpt>
      <trkpt lat="47.03795" lon="9.01018">
        <ele>826</ele>
        <time>2021-08-02T09:25:35.402Z</time>
      </trkpt>
      <trkpt lat="47.03795" lon="9.01018">
        <ele>826</ele>
        <time>2021-08-02T09:25:36.402Z</time>
      </trkpt>
      <trkpt lat="47.03795" lon="9.01016">
        <ele>826</ele>
        <time>2021-08-02T09:25:37.402Z</time>
      </trkpt>
      <trkpt lat="47.03795" lon="9.01015">
        <ele>826</ele>
        <time>2021-08-02T09:25:38.402Z</time>
      </trkpt>
      <trkpt lat="47.03795" lon="9.01015">
        <ele>826</ele>
        <time>2021-08-02T09:25:39.402Z</time>
      </trkpt>
      <trkpt lat="47.03794" lon="9.01014">
        <ele>826</ele>
        <time>2021-08-02T09:25:40.403Z</time>
      </trkpt>
      <trkpt lat="47.03793" lon="9.01013">
        <ele>825</ele>
        <time>2021-08-02T09:25:41.403Z</time>
      </trkpt>
      <trkpt lat="47.03792" lon="9.01012">
        <ele>825</ele>
        <time>2021-08-02T09:25:42.402Z</time>
      </trkpt>
      <trkpt lat="47.03792" lon="9.0101">
        <ele>824</ele>
        <time>2021-08-02T09:25:43.402Z</time>
      </trkpt>
      <trkpt lat="47.03791" lon="9.01008">
        <ele>824</ele>
        <time>2021-08-02T09:25:44.402Z</time>
      </trkpt>
      <trkpt lat="47.0379" lon="9.01007">
        <ele>824</ele>
        <time>2021-08-02T09:25:45.402Z</time>
      </trkpt>
      <trkpt lat="47.03788" lon="9.01006">
        <ele>824</ele>
        <time>2021-08-02T09:25:46.403Z</time>
      </trkpt>
      <trkpt lat="47.03787" lon="9.01006">
        <ele>825</ele>
        <time>2021-08-02T09:25:47.402Z</time>
      </trkpt>
      <trkpt lat="47.03786" lon="9.01006">
        <ele>825</ele>
        <time>2021-08-02T09:25:48.403Z</time>
      </trkpt>
      <trkpt lat="47.03786" lon="9.01007">
        <ele>825</ele>
        <time>2021-08-02T09:25:49.402Z</time>
      </trkpt>
      <trkpt lat="47.03785" lon="9.01007">
        <ele>826</ele>
        <time>2021-08-02T09:25:50.402Z</time>
      </trkpt>
      <trkpt lat="47.03783" lon="9.01007">
        <ele>826</ele>
        <time>2021-08-02T09:25:51.403Z</time>
      </trkpt>
      <trkpt lat="47.03782" lon="9.01007">
        <ele>826</ele>
        <time>2021-08-02T09:25:52.403Z</time>
      </trkpt>
      <trkpt lat="47.03781" lon="9.01006">
        <ele>826</ele>
        <time>2021-08-02T09:25:53.403Z</time>
      </trkpt>
      <trkpt lat="47.0378" lon="9.01005">
        <ele>826</ele>
        <time>2021-08-02T09:25:54.403Z</time>
      </trkpt>
      <trkpt lat="47.03779" lon="9.01004">
        <ele>827</ele>
        <time>2021-08-02T09:25:55.403Z</time>
      </trkpt>
      <trkpt lat="47.03777" lon="9.01004">
        <ele>827</ele>
        <time>2021-08-02T09:25:56.402Z</time>
      </trkpt>
      <trkpt lat="47.03776" lon="9.01005">
        <ele>827</ele>
        <time>2021-08-02T09:25:57.402Z</time>
      </trkpt>
      <trkpt lat="47.03775" lon="9.01005">
        <ele>827</ele>
        <time>2021-08-02T09:25:58.403Z</time>
      </trkpt>
      <trkpt lat="47.03774" lon="9.01006">
        <ele>827</ele>
        <time>2021-08-02T09:25:59.403Z</time>
      </trkpt>
      <trkpt lat="47.03773" lon="9.01006">
        <ele>827</ele>
        <time>2021-08-02T09:26:00.403Z</time>
      </trkpt>
      <trkpt lat="47.03772" lon="9.01006">
        <ele>827</ele>
        <time>2021-08-02T09:26:01.403Z</time>
      </trkpt>
      <trkpt lat="47.0377" lon="9.01006">
        <ele>827</ele>
        <time>2021-08-02T09:26:02.403Z</time>
      </trkpt>
      <trkpt lat="47.03769" lon="9.01006">
        <ele>828</ele>
        <time>2021-08-02T09:26:03.403Z</time>
      </trkpt>
      <trkpt lat="47.03768" lon="9.01007">
        <ele>829</ele>
        <time>2021-08-02T09:26:04.403Z</time>
      </trkpt>
      <trkpt lat="47.03767" lon="9.01006">
        <ele>830</ele>
        <time>2021-08-02T09:26:05.402Z</time>
      </trkpt>
      <trkpt lat="47.03766" lon="9.01004">
        <ele>830</ele>
        <time>2021-08-02T09:26:06.402Z</time>
      </trkpt>
      <trkpt lat="47.03765" lon="9.01003">
        <ele>831</ele>
        <time>2021-08-02T09:26:07.403Z</time>
      </trkpt>
      <trkpt lat="47.03764" lon="9.01003">
        <ele>833</ele>
        <time>2021-08-02T09:26:08.403Z</time>
      </trkpt>
      <trkpt lat="47.03763" lon="9.01002">
        <ele>834</ele>
        <time>2021-08-02T09:26:09.403Z</time>
      </trkpt>
      <trkpt lat="47.03762" lon="9.01003">
        <ele>835</ele>
        <time>2021-08-02T09:26:10.403Z</time>
      </trkpt>
      <trkpt lat="47.03761" lon="9.01003">
        <ele>837</ele>
        <time>2021-08-02T09:26:11.402Z</time>
      </trkpt>
      <trkpt lat="47.0376" lon="9.01003">
        <ele>838</ele>
        <time>2021-08-02T09:26:12.402Z</time>
      </trkpt>
      <trkpt lat="47.0376" lon="9.01002">
        <ele>839</ele>
        <time>2021-08-02T09:26:13.402Z</time>
      </trkpt>
      <trkpt lat="47.03758" lon="9.01001">
        <ele>841</ele>
        <time>2021-08-02T09:26:14.402Z</time>
      </trkpt>
      <trkpt lat="47.03758" lon="9.01001">
        <ele>842</ele>
        <time>2021-08-02T09:26:15.403Z</time>
      </trkpt>
      <trkpt lat="47.03757" lon="9.01">
        <ele>842</ele>
        <time>2021-08-02T09:26:16.403Z</time>
      </trkpt>
      <trkpt lat="47.03756" lon="9.00999">
        <ele>843</ele>
        <time>2021-08-02T09:26:17.403Z</time>
      </trkpt>
      <trkpt lat="47.03756" lon="9.00998">
        <ele>844</ele>
        <time>2021-08-02T09:26:18.402Z</time>
      </trkpt>
      <trkpt lat="47.03756" lon="9.00998">
        <ele>844</ele>
        <time>2021-08-02T09:26:19.403Z</time>
      </trkpt>
      <trkpt lat="47.03754" lon="9.00993">
        <ele>847</ele>
        <time>2021-08-02T09:26:20.403Z</time>
      </trkpt>
      <trkpt lat="47.03753" lon="9.00991">
        <ele>847</ele>
        <time>2021-08-02T09:26:21.403Z</time>
      </trkpt>
      <trkpt lat="47.03753" lon="9.0099">
        <ele>848</ele>
        <time>2021-08-02T09:26:22.402Z</time>
      </trkpt>
      <trkpt lat="47.03752" lon="9.00988">
        <ele>848</ele>
        <time>2021-08-02T09:26:23.402Z</time>
      </trkpt>
      <trkpt lat="47.03751" lon="9.00987">
        <ele>847</ele>
        <time>2021-08-02T09:26:24.402Z</time>
      </trkpt>
      <trkpt lat="47.03751" lon="9.00987">
        <ele>847</ele>
        <time>2021-08-02T09:26:25.403Z</time>
      </trkpt>
      <trkpt lat="47.03751" lon="9.00987">
        <ele>846</ele>
        <time>2021-08-02T09:26:26.403Z</time>
      </trkpt>
      <trkpt lat="47.0375" lon="9.00986">
        <ele>845</ele>
        <time>2021-08-02T09:26:27.403Z</time>
      </trkpt>
      <trkpt lat="47.0375" lon="9.00985">
        <ele>844</ele>
        <time>2021-08-02T09:26:28.403Z</time>
      </trkpt>
      <trkpt lat="47.0375" lon="9.00984">
        <ele>843</ele>
        <time>2021-08-02T09:26:29.402Z</time>
      </trkpt>
      <trkpt lat="47.0375" lon="9.00983">
        <ele>843</ele>
        <time>2021-08-02T09:26:30.403Z</time>
      </trkpt>
      <trkpt lat="47.03749" lon="9.00982">
        <ele>842</ele>
        <time>2021-08-02T09:26:31.402Z</time>
      </trkpt>
      <trkpt lat="47.03748" lon="9.00981">
        <ele>842</ele>
        <time>2021-08-02T09:26:32.403Z</time>
      </trkpt>
      <trkpt lat="47.03748" lon="9.0098">
        <ele>841</ele>
        <time>2021-08-02T09:26:33.403Z</time>
      </trkpt>
      <trkpt lat="47.03748" lon="9.00979">
        <ele>841</ele>
        <time>2021-08-02T09:26:34.402Z</time>
      </trkpt>
      <trkpt lat="47.03747" lon="9.00978">
        <ele>841</ele>
        <time>2021-08-02T09:26:35.402Z</time>
      </trkpt>
      <trkpt lat="47.03747" lon="9.00977">
        <ele>841</ele>
        <time>2021-08-02T09:26:36.403Z</time>
      </trkpt>
      <trkpt lat="47.03746" lon="9.00975">
        <ele>840</ele>
        <time>2021-08-02T09:26:37.402Z</time>
      </trkpt>
      <trkpt lat="47.03745" lon="9.00974">
        <ele>839</ele>
        <time>2021-08-02T09:26:38.403Z</time>
      </trkpt>
      <trkpt lat="47.03745" lon="9.00973">
        <ele>839</ele>
        <time>2021-08-02T09:26:39.403Z</time>
      </trkpt>
      <trkpt lat="47.03744" lon="9.00972">
        <ele>838</ele>
        <time>2021-08-02T09:26:40.403Z</time>
      </trkpt>
      <trkpt lat="47.03742" lon="9.00972">
        <ele>838</ele>
        <time>2021-08-02T09:26:41.403Z</time>
      </trkpt>
      <trkpt lat="47.03741" lon="9.00971">
        <ele>837</ele>
        <time>2021-08-02T09:26:42.402Z</time>
      </trkpt>
      <trkpt lat="47.0374" lon="9.00971">
        <ele>837</ele>
        <time>2021-08-02T09:26:43.403Z</time>
      </trkpt>
      <trkpt lat="47.0374" lon="9.00972">
        <ele>837</ele>
        <time>2021-08-02T09:26:44.402Z</time>
      </trkpt>
      <trkpt lat="47.03741" lon="9.00974">
        <ele>836</ele>
        <time>2021-08-02T09:26:45.402Z</time>
      </trkpt>
      <trkpt lat="47.0374" lon="9.00974">
        <ele>836</ele>
        <time>2021-08-02T09:26:46.403Z</time>
      </trkpt>
      <trkpt lat="47.0374" lon="9.00974">
        <ele>836</ele>
        <time>2021-08-02T09:26:47.402Z</time>
      </trkpt>
      <trkpt lat="47.03739" lon="9.00974">
        <ele>835</ele>
        <time>2021-08-02T09:26:48.403Z</time>
      </trkpt>
      <trkpt lat="47.03738" lon="9.00974">
        <ele>835</ele>
        <time>2021-08-02T09:26:49.403Z</time>
      </trkpt>
      <trkpt lat="47.03737" lon="9.00973">
        <ele>835</ele>
        <time>2021-08-02T09:26:50.403Z</time>
      </trkpt>
      <trkpt lat="47.03737" lon="9.00972">
        <ele>834</ele>
        <time>2021-08-02T09:26:51.403Z</time>
      </trkpt>
      <trkpt lat="47.03737" lon="9.00972">
        <ele>834</ele>
        <time>2021-08-02T09:26:52.402Z</time>
      </trkpt>
      <trkpt lat="47.03736" lon="9.00971">
        <ele>833</ele>
        <time>2021-08-02T09:26:53.403Z</time>
      </trkpt>
      <trkpt lat="47.03736" lon="9.0097">
        <ele>832</ele>
        <time>2021-08-02T09:26:54.402Z</time>
      </trkpt>
      <trkpt lat="47.03735" lon="9.00969">
        <ele>832</ele>
        <time>2021-08-02T09:26:55.403Z</time>
      </trkpt>
      <trkpt lat="47.03734" lon="9.00968">
        <ele>831</ele>
        <time>2021-08-02T09:26:56.403Z</time>
      </trkpt>
      <trkpt lat="47.03733" lon="9.00966">
        <ele>830</ele>
        <time>2021-08-02T09:26:57.402Z</time>
      </trkpt>
      <trkpt lat="47.03733" lon="9.00964">
        <ele>830</ele>
        <time>2021-08-02T09:26:58.403Z</time>
      </trkpt>
      <trkpt lat="47.03732" lon="9.00964">
        <ele>830</ele>
        <time>2021-08-02T09:26:59.402Z</time>
      </trkpt>
      <trkpt lat="47.03732" lon="9.00964">
        <ele>830</ele>
        <time>2021-08-02T09:27:00.402Z</time>
      </trkpt>
      <trkpt lat="47.03731" lon="9.00963">
        <ele>830</ele>
        <time>2021-08-02T09:27:01.403Z</time>
      </trkpt>
      <trkpt lat="47.03731" lon="9.00962">
        <ele>829</ele>
        <time>2021-08-02T09:27:02.402Z</time>
      </trkpt>
      <trkpt lat="47.0373" lon="9.00961">
        <ele>828</ele>
        <time>2021-08-02T09:27:03.403Z</time>
      </trkpt>
      <trkpt lat="47.0373" lon="9.0096">
        <ele>827</ele>
        <time>2021-08-02T09:27:04.403Z</time>
      </trkpt>
      <trkpt lat="47.03729" lon="9.00959">
        <ele>825</ele>
        <time>2021-08-02T09:27:05.402Z</time>
      </trkpt>
      <trkpt lat="47.03729" lon="9.00957">
        <ele>824</ele>
        <time>2021-08-02T09:27:06.402Z</time>
      </trkpt>
      <trkpt lat="47.03728" lon="9.00956">
        <ele>823</ele>
        <time>2021-08-02T09:27:07.402Z</time>
      </trkpt>
      <trkpt lat="47.03727" lon="9.00955">
        <ele>822</ele>
        <time>2021-08-02T09:27:08.403Z</time>
      </trkpt>
      <trkpt lat="47.03726" lon="9.00955">
        <ele>821</ele>
        <time>2021-08-02T09:27:09.403Z</time>
      </trkpt>
      <trkpt lat="47.03725" lon="9.00954">
        <ele>821</ele>
        <time>2021-08-02T09:27:10.403Z</time>
      </trkpt>
      <trkpt lat="47.03725" lon="9.00953">
        <ele>821</ele>
        <time>2021-08-02T09:27:11.403Z</time>
      </trkpt>
      <trkpt lat="47.03724" lon="9.00953">
        <ele>821</ele>
        <time>2021-08-02T09:27:12.402Z</time>
      </trkpt>
      <trkpt lat="47.03724" lon="9.00952">
        <ele>821</ele>
        <time>2021-08-02T09:27:13.402Z</time>
      </trkpt>
      <trkpt lat="47.03723" lon="9.0095">
        <ele>822</ele>
        <time>2021-08-02T09:27:14.403Z</time>
      </trkpt>
      <trkpt lat="47.03723" lon="9.00949">
        <ele>823</ele>
        <time>2021-08-02T09:27:15.403Z</time>
      </trkpt>
      <trkpt lat="47.03722" lon="9.00948">
        <ele>824</ele>
        <time>2021-08-02T09:27:16.402Z</time>
      </trkpt>
      <trkpt lat="47.03721" lon="9.00947">
        <ele>825</ele>
        <time>2021-08-02T09:27:17.402Z</time>
      </trkpt>
      <trkpt lat="47.0372" lon="9.00946">
        <ele>826</ele>
        <time>2021-08-02T09:27:18.403Z</time>
      </trkpt>
      <trkpt lat="47.03719" lon="9.00945">
        <ele>826</ele>
        <time>2021-08-02T09:27:19.402Z</time>
      </trkpt>
      <trkpt lat="47.03717" lon="9.00944">
        <ele>827</ele>
        <time>2021-08-02T09:27:20.403Z</time>
      </trkpt>
      <trkpt lat="47.03716" lon="9.00943">
        <ele>828</ele>
        <time>2021-08-02T09:27:21.403Z</time>
      </trkpt>
      <trkpt lat="47.03716" lon="9.00941">
        <ele>829</ele>
        <time>2021-08-02T09:27:22.403Z</time>
      </trkpt>
      <trkpt lat="47.03715" lon="9.0094">
        <ele>830</ele>
        <time>2021-08-02T09:27:23.403Z</time>
      </trkpt>
      <trkpt lat="47.03715" lon="9.00939">
        <ele>830</ele>
        <time>2021-08-02T09:27:24.403Z</time>
      </trkpt>
      <trkpt lat="47.03714" lon="9.00938">
        <ele>831</ele>
        <time>2021-08-02T09:27:25.403Z</time>
      </trkpt>
      <trkpt lat="47.03714" lon="9.00937">
        <ele>832</ele>
        <time>2021-08-02T09:27:26.403Z</time>
      </trkpt>
      <trkpt lat="47.03714" lon="9.00936">
        <ele>832</ele>
        <time>2021-08-02T09:27:27.403Z</time>
      </trkpt>
      <trkpt lat="47.03713" lon="9.00935">
        <ele>833</ele>
        <time>2021-08-02T09:27:28.403Z</time>
      </trkpt>
      <trkpt lat="47.03712" lon="9.00934">
        <ele>833</ele>
        <time>2021-08-02T09:27:29.403Z</time>
      </trkpt>
      <trkpt lat="47.03712" lon="9.00933">
        <ele>834</ele>
        <time>2021-08-02T09:27:30.403Z</time>
      </trkpt>
      <trkpt lat="47.03711" lon="9.00932">
        <ele>834</ele>
        <time>2021-08-02T09:27:31.402Z</time>
      </trkpt>
      <trkpt lat="47.0371" lon="9.00931">
        <ele>834</ele>
        <time>2021-08-02T09:27:32.402Z</time>
      </trkpt>
      <trkpt lat="47.03709" lon="9.0093">
        <ele>834</ele>
        <time>2021-08-02T09:27:33.403Z</time>
      </trkpt>
      <trkpt lat="47.03709" lon="9.0093">
        <ele>835</ele>
        <time>2021-08-02T09:27:34.403Z</time>
      </trkpt>
      <trkpt lat="47.03708" lon="9.00929">
        <ele>835</ele>
        <time>2021-08-02T09:27:35.402Z</time>
      </trkpt>
      <trkpt lat="47.03708" lon="9.00928">
        <ele>834</ele>
        <time>2021-08-02T09:27:36.402Z</time>
      </trkpt>
      <trkpt lat="47.03707" lon="9.00927">
        <ele>834</ele>
        <time>2021-08-02T09:27:37.402Z</time>
      </trkpt>
      <trkpt lat="47.03706" lon="9.00926">
        <ele>834</ele>
        <time>2021-08-02T09:27:38.402Z</time>
      </trkpt>
      <trkpt lat="47.03706" lon="9.00925">
        <ele>835</ele>
        <time>2021-08-02T09:27:39.403Z</time>
      </trkpt>
      <trkpt lat="47.03705" lon="9.00924">
        <ele>835</ele>
        <time>2021-08-02T09:27:40.403Z</time>
      </trkpt>
      <trkpt lat="47.03705" lon="9.00923">
        <ele>835</ele>
        <time>2021-08-02T09:27:41.403Z</time>
      </trkpt>
      <trkpt lat="47.03704" lon="9.00922">
        <ele>835</ele>
        <time>2021-08-02T09:27:42.402Z</time>
      </trkpt>
      <trkpt lat="47.03703" lon="9.00921">
        <ele>835</ele>
        <time>2021-08-02T09:27:43.403Z</time>
      </trkpt>
      <trkpt lat="47.03703" lon="9.00921">
        <ele>835</ele>
        <time>2021-08-02T09:27:44.403Z</time>
      </trkpt>
      <trkpt lat="47.03702" lon="9.0092">
        <ele>836</ele>
        <time>2021-08-02T09:27:45.403Z</time>
      </trkpt>
      <trkpt lat="47.03701" lon="9.00919">
        <ele>836</ele>
        <time>2021-08-02T09:27:46.403Z</time>
      </trkpt>
      <trkpt lat="47.037" lon="9.00918">
        <ele>835</ele>
        <time>2021-08-02T09:27:47.402Z</time>
      </trkpt>
      <trkpt lat="47.037" lon="9.00917">
        <ele>835</ele>
        <time>2021-08-02T09:27:48.403Z</time>
      </trkpt>
      <trkpt lat="47.03698" lon="9.00917">
        <ele>835</ele>
        <time>2021-08-02T09:27:49.402Z</time>
      </trkpt>
      <trkpt lat="47.03698" lon="9.00916">
        <ele>834</ele>
        <time>2021-08-02T09:27:50.403Z</time>
      </trkpt>
      <trkpt lat="47.03698" lon="9.00915">
        <ele>834</ele>
        <time>2021-08-02T09:27:51.403Z</time>
      </trkpt>
      <trkpt lat="47.03697" lon="9.00914">
        <ele>833</ele>
        <time>2021-08-02T09:27:52.403Z</time>
      </trkpt>
      <trkpt lat="47.03696" lon="9.00914">
        <ele>833</ele>
        <time>2021-08-02T09:27:53.402Z</time>
      </trkpt>
      <trkpt lat="47.03695" lon="9.00912">
        <ele>833</ele>
        <time>2021-08-02T09:27:54.403Z</time>
      </trkpt>
      <trkpt lat="47.03695" lon="9.00911">
        <ele>833</ele>
        <time>2021-08-02T09:27:55.402Z</time>
      </trkpt>
      <trkpt lat="47.03694" lon="9.0091">
        <ele>833</ele>
        <time>2021-08-02T09:27:56.403Z</time>
      </trkpt>
      <trkpt lat="47.03693" lon="9.00909">
        <ele>833</ele>
        <time>2021-08-02T09:27:57.403Z</time>
      </trkpt>
      <trkpt lat="47.03692" lon="9.00907">
        <ele>833</ele>
        <time>2021-08-02T09:27:58.403Z</time>
      </trkpt>
      <trkpt lat="47.03691" lon="9.00906">
        <ele>833</ele>
        <time>2021-08-02T09:27:59.403Z</time>
      </trkpt>
      <trkpt lat="47.0369" lon="9.00904">
        <ele>833</ele>
        <time>2021-08-02T09:28:00.402Z</time>
      </trkpt>
      <trkpt lat="47.0369" lon="9.00902">
        <ele>834</ele>
        <time>2021-08-02T09:28:01.402Z</time>
      </trkpt>
      <trkpt lat="47.03688" lon="9.009">
        <ele>834</ele>
        <time>2021-08-02T09:28:02.402Z</time>
      </trkpt>
      <trkpt lat="47.03687" lon="9.00899">
        <ele>834</ele>
        <time>2021-08-02T09:28:03.402Z</time>
      </trkpt>
      <trkpt lat="47.03687" lon="9.00898">
        <ele>834</ele>
        <time>2021-08-02T09:28:04.403Z</time>
      </trkpt>
      <trkpt lat="47.03686" lon="9.00897">
        <ele>834</ele>
        <time>2021-08-02T09:28:05.403Z</time>
      </trkpt>
      <trkpt lat="47.03685" lon="9.00896">
        <ele>834</ele>
        <time>2021-08-02T09:28:06.402Z</time>
      </trkpt>
      <trkpt lat="47.03685" lon="9.00895">
        <ele>834</ele>
        <time>2021-08-02T09:28:07.402Z</time>
      </trkpt>
      <trkpt lat="47.03685" lon="9.00894">
        <ele>834</ele>
        <time>2021-08-02T09:28:08.403Z</time>
      </trkpt>
      <trkpt lat="47.03685" lon="9.00892">
        <ele>833</ele>
        <time>2021-08-02T09:28:09.403Z</time>
      </trkpt>
      <trkpt lat="47.03686" lon="9.0089">
        <ele>832</ele>
        <time>2021-08-02T09:28:10.403Z</time>
      </trkpt>
      <trkpt lat="47.03685" lon="9.00889">
        <ele>831</ele>
        <time>2021-08-02T09:28:11.402Z</time>
      </trkpt>
      <trkpt lat="47.03685" lon="9.00888">
        <ele>831</ele>
        <time>2021-08-02T09:28:12.403Z</time>
      </trkpt>
      <trkpt lat="47.03684" lon="9.00887">
        <ele>831</ele>
        <time>2021-08-02T09:28:13.403Z</time>
      </trkpt>
      <trkpt lat="47.03683" lon="9.00887">
        <ele>831</ele>
        <time>2021-08-02T09:28:14.403Z</time>
      </trkpt>
      <trkpt lat="47.03683" lon="9.00886">
        <ele>830</ele>
        <time>2021-08-02T09:28:15.403Z</time>
      </trkpt>
      <trkpt lat="47.03682" lon="9.00885">
        <ele>830</ele>
        <time>2021-08-02T09:28:16.402Z</time>
      </trkpt>
      <trkpt lat="47.03682" lon="9.00884">
        <ele>830</ele>
        <time>2021-08-02T09:28:17.402Z</time>
      </trkpt>
      <trkpt lat="47.0368" lon="9.00884">
        <ele>830</ele>
        <time>2021-08-02T09:28:18.402Z</time>
      </trkpt>
      <trkpt lat="47.03679" lon="9.00882">
        <ele>831</ele>
        <time>2021-08-02T09:28:19.403Z</time>
      </trkpt>
      <trkpt lat="47.03679" lon="9.00881">
        <ele>831</ele>
        <time>2021-08-02T09:28:20.403Z</time>
      </trkpt>
      <trkpt lat="47.03678" lon="9.00878">
        <ele>832</ele>
        <time>2021-08-02T09:28:21.403Z</time>
      </trkpt>
      <trkpt lat="47.03678" lon="9.00877">
        <ele>832</ele>
        <time>2021-08-02T09:28:22.403Z</time>
      </trkpt>
      <trkpt lat="47.03677" lon="9.00875">
        <ele>833</ele>
        <time>2021-08-02T09:28:23.403Z</time>
      </trkpt>
      <trkpt lat="47.03677" lon="9.00874">
        <ele>833</ele>
        <time>2021-08-02T09:28:24.403Z</time>
      </trkpt>
      <trkpt lat="47.03676" lon="9.00873">
        <ele>834</ele>
        <time>2021-08-02T09:28:25.403Z</time>
      </trkpt>
      <trkpt lat="47.03674" lon="9.00872">
        <ele>834</ele>
        <time>2021-08-02T09:28:26.403Z</time>
      </trkpt>
      <trkpt lat="47.03673" lon="9.00871">
        <ele>835</ele>
        <time>2021-08-02T09:28:27.403Z</time>
      </trkpt>
      <trkpt lat="47.03672" lon="9.00869">
        <ele>836</ele>
        <time>2021-08-02T09:28:28.403Z</time>
      </trkpt>
      <trkpt lat="47.03671" lon="9.00868">
        <ele>836</ele>
        <time>2021-08-02T09:28:29.403Z</time>
      </trkpt>
      <trkpt lat="47.03671" lon="9.00866">
        <ele>837</ele>
        <time>2021-08-02T09:28:30.403Z</time>
      </trkpt>
      <trkpt lat="47.0367" lon="9.00865">
        <ele>837</ele>
        <time>2021-08-02T09:28:31.402Z</time>
      </trkpt>
      <trkpt lat="47.0367" lon="9.00864">
        <ele>837</ele>
        <time>2021-08-02T09:28:32.403Z</time>
      </trkpt>
      <trkpt lat="47.03669" lon="9.00863">
        <ele>837</ele>
        <time>2021-08-02T09:28:33.403Z</time>
      </trkpt>
      <trkpt lat="47.03669" lon="9.00861">
        <ele>837</ele>
        <time>2021-08-02T09:28:34.403Z</time>
      </trkpt>
      <trkpt lat="47.03668" lon="9.0086">
        <ele>837</ele>
        <time>2021-08-02T09:28:35.403Z</time>
      </trkpt>
      <trkpt lat="47.03668" lon="9.00858">
        <ele>836</ele>
        <time>2021-08-02T09:28:36.403Z</time>
      </trkpt>
      <trkpt lat="47.03667" lon="9.00857">
        <ele>836</ele>
        <time>2021-08-02T09:28:37.402Z</time>
      </trkpt>
      <trkpt lat="47.03666" lon="9.00856">
        <ele>836</ele>
        <time>2021-08-02T09:28:38.402Z</time>
      </trkpt>
      <trkpt lat="47.03666" lon="9.00854">
        <ele>835</ele>
        <time>2021-08-02T09:28:39.403Z</time>
      </trkpt>
      <trkpt lat="47.03666" lon="9.00853">
        <ele>835</ele>
        <time>2021-08-02T09:28:40.403Z</time>
      </trkpt>
      <trkpt lat="47.03665" lon="9.00852">
        <ele>835</ele>
        <time>2021-08-02T09:28:41.403Z</time>
      </trkpt>
      <trkpt lat="47.03665" lon="9.00851">
        <ele>835</ele>
        <time>2021-08-02T09:28:42.402Z</time>
      </trkpt>
      <trkpt lat="47.03665" lon="9.0085">
        <ele>834</ele>
        <time>2021-08-02T09:28:43.403Z</time>
      </trkpt>
      <trkpt lat="47.03665" lon="9.00849">
        <ele>834</ele>
        <time>2021-08-02T09:28:44.403Z</time>
      </trkpt>
      <trkpt lat="47.03664" lon="9.00848">
        <ele>834</ele>
        <time>2021-08-02T09:28:45.402Z</time>
      </trkpt>
      <trkpt lat="47.03664" lon="9.00847">
        <ele>833</ele>
        <time>2021-08-02T09:28:46.403Z</time>
      </trkpt>
      <trkpt lat="47.03663" lon="9.00845">
        <ele>833</ele>
        <time>2021-08-02T09:28:47.403Z</time>
      </trkpt>
      <trkpt lat="47.03663" lon="9.00844">
        <ele>832</ele>
        <time>2021-08-02T09:28:48.402Z</time>
      </trkpt>
      <trkpt lat="47.03664" lon="9.00842">
        <ele>832</ele>
        <time>2021-08-02T09:28:49.402Z</time>
      </trkpt>
      <trkpt lat="47.03664" lon="9.0084">
        <ele>832</ele>
        <time>2021-08-02T09:28:50.402Z</time>
      </trkpt>
      <trkpt lat="47.03664" lon="9.00839">
        <ele>831</ele>
        <time>2021-08-02T09:28:51.403Z</time>
      </trkpt>
      <trkpt lat="47.03664" lon="9.00837">
        <ele>831</ele>
        <time>2021-08-02T09:28:52.402Z</time>
      </trkpt>
      <trkpt lat="47.03663" lon="9.00837">
        <ele>831</ele>
        <time>2021-08-02T09:28:53.403Z</time>
      </trkpt>
      <trkpt lat="47.03663" lon="9.00835">
        <ele>831</ele>
        <time>2021-08-02T09:28:54.403Z</time>
      </trkpt>
      <trkpt lat="47.03662" lon="9.00834">
        <ele>830</ele>
        <time>2021-08-02T09:28:55.402Z</time>
      </trkpt>
      <trkpt lat="47.03662" lon="9.00832">
        <ele>830</ele>
        <time>2021-08-02T09:28:56.403Z</time>
      </trkpt>
      <trkpt lat="47.03661" lon="9.0083">
        <ele>830</ele>
        <time>2021-08-02T09:28:57.402Z</time>
      </trkpt>
      <trkpt lat="47.0366" lon="9.00828">
        <ele>830</ele>
        <time>2021-08-02T09:28:58.403Z</time>
      </trkpt>
      <trkpt lat="47.0366" lon="9.00827">
        <ele>830</ele>
        <time>2021-08-02T09:28:59.402Z</time>
      </trkpt>
      <trkpt lat="47.03659" lon="9.00826">
        <ele>831</ele>
        <time>2021-08-02T09:29:00.403Z</time>
      </trkpt>
      <trkpt lat="47.03659" lon="9.00825">
        <ele>831</ele>
        <time>2021-08-02T09:29:01.403Z</time>
      </trkpt>
      <trkpt lat="47.03658" lon="9.00824">
        <ele>831</ele>
        <time>2021-08-02T09:29:02.403Z</time>
      </trkpt>
      <trkpt lat="47.03658" lon="9.00824">
        <ele>832</ele>
        <time>2021-08-02T09:29:03.402Z</time>
      </trkpt>
      <trkpt lat="47.03664" lon="9.00822">
        <ele>828</ele>
        <time>2021-08-02T09:29:04.403Z</time>
      </trkpt>
      <trkpt lat="47.03665" lon="9.00822">
        <ele>827</ele>
        <time>2021-08-02T09:29:05.403Z</time>
      </trkpt>
      <trkpt lat="47.03665" lon="9.00822">
        <ele>827</ele>
        <time>2021-08-02T09:29:06.402Z</time>
      </trkpt>
      <trkpt lat="47.03665" lon="9.00822">
        <ele>827</ele>
        <time>2021-08-02T09:29:07.403Z</time>
      </trkpt>
      <trkpt lat="47.03663" lon="9.00826">
        <ele>828</ele>
        <time>2021-08-02T09:29:08.403Z</time>
      </trkpt>
      <trkpt lat="47.03664" lon="9.00825">
        <ele>829</ele>
        <time>2021-08-02T09:29:09.403Z</time>
      </trkpt>
      <trkpt lat="47.03662" lon="9.00828">
        <ele>832</ele>
        <time>2021-08-02T09:29:10.403Z</time>
      </trkpt>
      <trkpt lat="47.03661" lon="9.00828">
        <ele>832</ele>
        <time>2021-08-02T09:29:11.403Z</time>
      </trkpt>
      <trkpt lat="47.0366" lon="9.00826">
        <ele>833</ele>
        <time>2021-08-02T09:29:12.403Z</time>
      </trkpt>
      <trkpt lat="47.03659" lon="9.00825">
        <ele>834</ele>
        <time>2021-08-02T09:29:13.403Z</time>
      </trkpt>
      <trkpt lat="47.03658" lon="9.00825">
        <ele>834</ele>
        <time>2021-08-02T09:29:14.402Z</time>
      </trkpt>
      <trkpt lat="47.03657" lon="9.00825">
        <ele>834</ele>
        <time>2021-08-02T09:29:15.402Z</time>
      </trkpt>
      <trkpt lat="47.03656" lon="9.00825">
        <ele>835</ele>
        <time>2021-08-02T09:29:16.403Z</time>
      </trkpt>
      <trkpt lat="47.03655" lon="9.00825">
        <ele>834</ele>
        <time>2021-08-02T09:29:17.403Z</time>
      </trkpt>
      <trkpt lat="47.03654" lon="9.00825">
        <ele>834</ele>
        <time>2021-08-02T09:29:18.403Z</time>
      </trkpt>
      <trkpt lat="47.03653" lon="9.00825">
        <ele>834</ele>
        <time>2021-08-02T09:29:19.402Z</time>
      </trkpt>
      <trkpt lat="47.03652" lon="9.00825">
        <ele>833</ele>
        <time>2021-08-02T09:29:20.403Z</time>
      </trkpt>
      <trkpt lat="47.03651" lon="9.00825">
        <ele>833</ele>
        <time>2021-08-02T09:29:21.403Z</time>
      </trkpt>
      <trkpt lat="47.0365" lon="9.00824">
        <ele>833</ele>
        <time>2021-08-02T09:29:22.403Z</time>
      </trkpt>
      <trkpt lat="47.03648" lon="9.00824">
        <ele>833</ele>
        <time>2021-08-02T09:29:23.403Z</time>
      </trkpt>
      <trkpt lat="47.03646" lon="9.00824">
        <ele>833</ele>
        <time>2021-08-02T09:29:24.403Z</time>
      </trkpt>
      <trkpt lat="47.03645" lon="9.00822">
        <ele>833</ele>
        <time>2021-08-02T09:29:25.403Z</time>
      </trkpt>
      <trkpt lat="47.03644" lon="9.00822">
        <ele>833</ele>
        <time>2021-08-02T09:29:26.403Z</time>
      </trkpt>
      <trkpt lat="47.03643" lon="9.00821">
        <ele>833</ele>
        <time>2021-08-02T09:29:27.403Z</time>
      </trkpt>
      <trkpt lat="47.03642" lon="9.00821">
        <ele>833</ele>
        <time>2021-08-02T09:29:28.403Z</time>
      </trkpt>
      <trkpt lat="47.0364" lon="9.0082">
        <ele>833</ele>
        <time>2021-08-02T09:29:29.402Z</time>
      </trkpt>
      <trkpt lat="47.0364" lon="9.00819">
        <ele>833</ele>
        <time>2021-08-02T09:29:30.403Z</time>
      </trkpt>
      <trkpt lat="47.03638" lon="9.00818">
        <ele>833</ele>
        <time>2021-08-02T09:29:31.403Z</time>
      </trkpt>
      <trkpt lat="47.03636" lon="9.00819">
        <ele>833</ele>
        <time>2021-08-02T09:29:32.402Z</time>
      </trkpt>
      <trkpt lat="47.03635" lon="9.00819">
        <ele>833</ele>
        <time>2021-08-02T09:29:33.402Z</time>
      </trkpt>
      <trkpt lat="47.03633" lon="9.00819">
        <ele>833</ele>
        <time>2021-08-02T09:29:34.403Z</time>
      </trkpt>
      <trkpt lat="47.03631" lon="9.00819">
        <ele>833</ele>
        <time>2021-08-02T09:29:35.402Z</time>
      </trkpt>
      <trkpt lat="47.0363" lon="9.00818">
        <ele>832</ele>
        <time>2021-08-02T09:29:36.402Z</time>
      </trkpt>
      <trkpt lat="47.03629" lon="9.00818">
        <ele>832</ele>
        <time>2021-08-02T09:29:37.403Z</time>
      </trkpt>
      <trkpt lat="47.03629" lon="9.00817">
        <ele>833</ele>
        <time>2021-08-02T09:29:38.403Z</time>
      </trkpt>
      <trkpt lat="47.03628" lon="9.00817">
        <ele>833</ele>
        <time>2021-08-02T09:29:39.403Z</time>
      </trkpt>
      <trkpt lat="47.03628" lon="9.00816">
        <ele>834</ele>
        <time>2021-08-02T09:29:40.403Z</time>
      </trkpt>
      <trkpt lat="47.03628" lon="9.00816">
        <ele>834</ele>
        <time>2021-08-02T09:29:41.403Z</time>
      </trkpt>
      <trkpt lat="47.03627" lon="9.00816">
        <ele>835</ele>
        <time>2021-08-02T09:29:42.403Z</time>
      </trkpt>
      <trkpt lat="47.03627" lon="9.00816">
        <ele>835</ele>
        <time>2021-08-02T09:29:43.402Z</time>
      </trkpt>
      <trkpt lat="47.03627" lon="9.00823">
        <ele>835</ele>
        <time>2021-08-02T09:29:44.403Z</time>
      </trkpt>
      <trkpt lat="47.03628" lon="9.00825">
        <ele>835</ele>
        <time>2021-08-02T09:29:45.403Z</time>
      </trkpt>
      <trkpt lat="47.03627" lon="9.00826">
        <ele>835</ele>
        <time>2021-08-02T09:29:46.402Z</time>
      </trkpt>
      <trkpt lat="47.03625" lon="9.00823">
        <ele>838</ele>
        <time>2021-08-02T09:29:47.402Z</time>
      </trkpt>
      <trkpt lat="47.03624" lon="9.00823">
        <ele>838</ele>
        <time>2021-08-02T09:29:48.403Z</time>
      </trkpt>
      <trkpt lat="47.03623" lon="9.00822">
        <ele>839</ele>
        <time>2021-08-02T09:29:49.402Z</time>
      </trkpt>
      <trkpt lat="47.03622" lon="9.00822">
        <ele>839</ele>
        <time>2021-08-02T09:29:50.403Z</time>
      </trkpt>
      <trkpt lat="47.03621" lon="9.00821">
        <ele>840</ele>
        <time>2021-08-02T09:29:51.403Z</time>
      </trkpt>
      <trkpt lat="47.0362" lon="9.00821">
        <ele>840</ele>
        <time>2021-08-02T09:29:52.403Z</time>
      </trkpt>
      <trkpt lat="47.03619" lon="9.0082">
        <ele>841</ele>
        <time>2021-08-02T09:29:53.403Z</time>
      </trkpt>
      <trkpt lat="47.03618" lon="9.00819">
        <ele>841</ele>
        <time>2021-08-02T09:29:54.402Z</time>
      </trkpt>
      <trkpt lat="47.03616" lon="9.00817">
        <ele>841</ele>
        <time>2021-08-02T09:29:55.402Z</time>
      </trkpt>
      <trkpt lat="47.03615" lon="9.00816">
        <ele>841</ele>
        <time>2021-08-02T09:29:56.402Z</time>
      </trkpt>
      <trkpt lat="47.03615" lon="9.00815">
        <ele>841</ele>
        <time>2021-08-02T09:29:57.402Z</time>
      </trkpt>
      <trkpt lat="47.03614" lon="9.00815">
        <ele>842</ele>
        <time>2021-08-02T09:29:58.403Z</time>
      </trkpt>
      <trkpt lat="47.03614" lon="9.00813">
        <ele>842</ele>
        <time>2021-08-02T09:29:59.402Z</time>
      </trkpt>
      <trkpt lat="47.03613" lon="9.00811">
        <ele>842</ele>
        <time>2021-08-02T09:30:00.403Z</time>
      </trkpt>
      <trkpt lat="47.03613" lon="9.00809">
        <ele>842</ele>
        <time>2021-08-02T09:30:01.403Z</time>
      </trkpt>
      <trkpt lat="47.03612" lon="9.00808">
        <ele>843</ele>
        <time>2021-08-02T09:30:02.403Z</time>
      </trkpt>
      <trkpt lat="47.03612" lon="9.00806">
        <ele>843</ele>
        <time>2021-08-02T09:30:03.402Z</time>
      </trkpt>
      <trkpt lat="47.03611" lon="9.00805">
        <ele>843</ele>
        <time>2021-08-02T09:30:04.402Z</time>
      </trkpt>
      <trkpt lat="47.0361" lon="9.00804">
        <ele>843</ele>
        <time>2021-08-02T09:30:05.403Z</time>
      </trkpt>
      <trkpt lat="47.03611" lon="9.00803">
        <ele>843</ele>
        <time>2021-08-02T09:30:06.403Z</time>
      </trkpt>
      <trkpt lat="47.03611" lon="9.00803">
        <ele>843</ele>
        <time>2021-08-02T09:30:07.403Z</time>
      </trkpt>
      <trkpt lat="47.03611" lon="9.00802">
        <ele>844</ele>
        <time>2021-08-02T09:30:08.403Z</time>
      </trkpt>
      <trkpt lat="47.03611" lon="9.00801">
        <ele>844</ele>
        <time>2021-08-02T09:30:09.402Z</time>
      </trkpt>
      <trkpt lat="47.0361" lon="9.008">
        <ele>844</ele>
        <time>2021-08-02T09:30:10.402Z</time>
      </trkpt>
      <trkpt lat="47.03609" lon="9.008">
        <ele>845</ele>
        <time>2021-08-02T09:30:11.403Z</time>
      </trkpt>
      <trkpt lat="47.03608" lon="9.00799">
        <ele>845</ele>
        <time>2021-08-02T09:30:12.403Z</time>
      </trkpt>
      <trkpt lat="47.03608" lon="9.00799">
        <ele>846</ele>
        <time>2021-08-02T09:30:13.402Z</time>
      </trkpt>
      <trkpt lat="47.03607" lon="9.00798">
        <ele>846</ele>
        <time>2021-08-02T09:30:14.402Z</time>
      </trkpt>
      <trkpt lat="47.03607" lon="9.00797">
        <ele>846</ele>
        <time>2021-08-02T09:30:15.402Z</time>
      </trkpt>
      <trkpt lat="47.03607" lon="9.00797">
        <ele>846</ele>
        <time>2021-08-02T09:30:16.403Z</time>
      </trkpt>
      <trkpt lat="47.03606" lon="9.00796">
        <ele>846</ele>
        <time>2021-08-02T09:30:17.403Z</time>
      </trkpt>
      <trkpt lat="47.03606" lon="9.00796">
        <ele>846</ele>
        <time>2021-08-02T09:30:18.403Z</time>
      </trkpt>
      <trkpt lat="47.03605" lon="9.00795">
        <ele>846</ele>
        <time>2021-08-02T09:30:19.403Z</time>
      </trkpt>
      <trkpt lat="47.03605" lon="9.00794">
        <ele>846</ele>
        <time>2021-08-02T09:30:20.403Z</time>
      </trkpt>
      <trkpt lat="47.03604" lon="9.00793">
        <ele>846</ele>
        <time>2021-08-02T09:30:21.403Z</time>
      </trkpt>
      <trkpt lat="47.03604" lon="9.00793">
        <ele>846</ele>
        <time>2021-08-02T09:30:22.403Z</time>
      </trkpt>
      <trkpt lat="47.03603" lon="9.00792">
        <ele>846</ele>
        <time>2021-08-02T09:30:23.403Z</time>
      </trkpt>
      <trkpt lat="47.03601" lon="9.00791">
        <ele>847</ele>
        <time>2021-08-02T09:30:24.402Z</time>
      </trkpt>
      <trkpt lat="47.036" lon="9.00792">
        <ele>847</ele>
        <time>2021-08-02T09:30:25.403Z</time>
      </trkpt>
      <trkpt lat="47.03598" lon="9.00791">
        <ele>848</ele>
        <time>2021-08-02T09:30:26.404Z</time>
      </trkpt>
      <trkpt lat="47.03598" lon="9.0079">
        <ele>849</ele>
        <time>2021-08-02T09:30:27.404Z</time>
      </trkpt>
      <trkpt lat="47.03597" lon="9.00788">
        <ele>849</ele>
        <time>2021-08-02T09:30:28.403Z</time>
      </trkpt>
      <trkpt lat="47.03596" lon="9.00787">
        <ele>850</ele>
        <time>2021-08-02T09:30:29.404Z</time>
      </trkpt>
      <trkpt lat="47.03596" lon="9.00786">
        <ele>850</ele>
        <time>2021-08-02T09:30:30.404Z</time>
      </trkpt>
      <trkpt lat="47.03595" lon="9.00784">
        <ele>850</ele>
        <time>2021-08-02T09:30:31.404Z</time>
      </trkpt>
      <trkpt lat="47.03595" lon="9.00783">
        <ele>850</ele>
        <time>2021-08-02T09:30:32.403Z</time>
      </trkpt>
      <trkpt lat="47.03595" lon="9.00783">
        <ele>850</ele>
        <time>2021-08-02T09:30:33.403Z</time>
      </trkpt>
      <trkpt lat="47.03594" lon="9.00783">
        <ele>850</ele>
        <time>2021-08-02T09:30:34.403Z</time>
      </trkpt>
      <trkpt lat="47.03594" lon="9.00782">
        <ele>849</ele>
        <time>2021-08-02T09:30:35.404Z</time>
      </trkpt>
      <trkpt lat="47.03593" lon="9.0078">
        <ele>848</ele>
        <time>2021-08-02T09:30:36.404Z</time>
      </trkpt>
      <trkpt lat="47.03593" lon="9.00779">
        <ele>847</ele>
        <time>2021-08-02T09:30:37.404Z</time>
      </trkpt>
      <trkpt lat="47.03592" lon="9.00778">
        <ele>846</ele>
        <time>2021-08-02T09:30:38.403Z</time>
      </trkpt>
      <trkpt lat="47.03592" lon="9.00778">
        <ele>846</ele>
        <time>2021-08-02T09:30:39.404Z</time>
      </trkpt>
      <trkpt lat="47.03591" lon="9.00777">
        <ele>845</ele>
        <time>2021-08-02T09:30:40.404Z</time>
      </trkpt>
      <trkpt lat="47.0359" lon="9.00776">
        <ele>844</ele>
        <time>2021-08-02T09:30:41.404Z</time>
      </trkpt>
      <trkpt lat="47.03589" lon="9.00776">
        <ele>844</ele>
        <time>2021-08-02T09:30:42.404Z</time>
      </trkpt>
      <trkpt lat="47.03589" lon="9.00775">
        <ele>844</ele>
        <time>2021-08-02T09:30:43.403Z</time>
      </trkpt>
      <trkpt lat="47.03588" lon="9.00774">
        <ele>843</ele>
        <time>2021-08-02T09:30:44.403Z</time>
      </trkpt>
      <trkpt lat="47.03587" lon="9.00773">
        <ele>843</ele>
        <time>2021-08-02T09:30:45.403Z</time>
      </trkpt>
      <trkpt lat="47.03586" lon="9.00773">
        <ele>843</ele>
        <time>2021-08-02T09:30:46.404Z</time>
      </trkpt>
      <trkpt lat="47.03586" lon="9.00772">
        <ele>843</ele>
        <time>2021-08-02T09:30:47.403Z</time>
      </trkpt>
      <trkpt lat="47.03585" lon="9.00771">
        <ele>842</ele>
        <time>2021-08-02T09:30:48.404Z</time>
      </trkpt>
      <trkpt lat="47.03585" lon="9.00771">
        <ele>842</ele>
        <time>2021-08-02T09:30:49.403Z</time>
      </trkpt>
      <trkpt lat="47.03583" lon="9.00771">
        <ele>842</ele>
        <time>2021-08-02T09:30:50.404Z</time>
      </trkpt>
      <trkpt lat="47.03582" lon="9.00772">
        <ele>842</ele>
        <time>2021-08-02T09:30:51.403Z</time>
      </trkpt>
      <trkpt lat="47.0358" lon="9.00772">
        <ele>842</ele>
        <time>2021-08-02T09:30:52.404Z</time>
      </trkpt>
      <trkpt lat="47.0358" lon="9.00773">
        <ele>841</ele>
        <time>2021-08-02T09:30:53.404Z</time>
      </trkpt>
      <trkpt lat="47.0358" lon="9.00773">
        <ele>841</ele>
        <time>2021-08-02T09:30:54.403Z</time>
      </trkpt>
      <trkpt lat="47.0358" lon="9.00773">
        <ele>840</ele>
        <time>2021-08-02T09:30:55.404Z</time>
      </trkpt>
      <trkpt lat="47.0358" lon="9.00772">
        <ele>839</ele>
        <time>2021-08-02T09:30:56.403Z</time>
      </trkpt>
      <trkpt lat="47.03579" lon="9.00771">
        <ele>838</ele>
        <time>2021-08-02T09:30:57.403Z</time>
      </trkpt>
      <trkpt lat="47.03578" lon="9.00771">
        <ele>838</ele>
        <time>2021-08-02T09:30:58.403Z</time>
      </trkpt>
      <trkpt lat="47.03577" lon="9.00771">
        <ele>837</ele>
        <time>2021-08-02T09:30:59.404Z</time>
      </trkpt>
      <trkpt lat="47.03577" lon="9.0077">
        <ele>838</ele>
        <time>2021-08-02T09:31:00.404Z</time>
      </trkpt>
      <trkpt lat="47.03576" lon="9.0077">
        <ele>838</ele>
        <time>2021-08-02T09:31:01.404Z</time>
      </trkpt>
      <trkpt lat="47.03575" lon="9.0077">
        <ele>839</ele>
        <time>2021-08-02T09:31:02.404Z</time>
      </trkpt>
      <trkpt lat="47.03574" lon="9.0077">
        <ele>839</ele>
        <time>2021-08-02T09:31:03.403Z</time>
      </trkpt>
      <trkpt lat="47.03573" lon="9.00769">
        <ele>839</ele>
        <time>2021-08-02T09:31:04.404Z</time>
      </trkpt>
      <trkpt lat="47.03573" lon="9.00769">
        <ele>839</ele>
        <time>2021-08-02T09:31:05.404Z</time>
      </trkpt>
      <trkpt lat="47.03572" lon="9.00768">
        <ele>839</ele>
        <time>2021-08-02T09:31:06.403Z</time>
      </trkpt>
      <trkpt lat="47.03572" lon="9.00768">
        <ele>839</ele>
        <time>2021-08-02T09:31:07.404Z</time>
      </trkpt>
      <trkpt lat="47.03571" lon="9.00768">
        <ele>839</ele>
        <time>2021-08-02T09:31:08.404Z</time>
      </trkpt>
      <trkpt lat="47.0357" lon="9.00767">
        <ele>840</ele>
        <time>2021-08-02T09:31:09.404Z</time>
      </trkpt>
      <trkpt lat="47.03569" lon="9.00767">
        <ele>840</ele>
        <time>2021-08-02T09:31:10.404Z</time>
      </trkpt>
      <trkpt lat="47.03568" lon="9.00766">
        <ele>840</ele>
        <time>2021-08-02T09:31:11.404Z</time>
      </trkpt>
      <trkpt lat="47.03567" lon="9.00765">
        <ele>840</ele>
        <time>2021-08-02T09:31:12.404Z</time>
      </trkpt>
      <trkpt lat="47.03566" lon="9.00763">
        <ele>840</ele>
        <time>2021-08-02T09:31:13.404Z</time>
      </trkpt>
      <trkpt lat="47.03565" lon="9.00762">
        <ele>841</ele>
        <time>2021-08-02T09:31:14.403Z</time>
      </trkpt>
      <trkpt lat="47.03564" lon="9.00762">
        <ele>841</ele>
        <time>2021-08-02T09:31:15.404Z</time>
      </trkpt>
      <trkpt lat="47.03564" lon="9.00761">
        <ele>841</ele>
        <time>2021-08-02T09:31:16.404Z</time>
      </trkpt>
      <trkpt lat="47.03563" lon="9.0076">
        <ele>842</ele>
        <time>2021-08-02T09:31:17.404Z</time>
      </trkpt>
      <trkpt lat="47.03562" lon="9.00759">
        <ele>842</ele>
        <time>2021-08-02T09:31:18.403Z</time>
      </trkpt>
      <trkpt lat="47.0356" lon="9.00759">
        <ele>843</ele>
        <time>2021-08-02T09:31:19.404Z</time>
      </trkpt>
      <trkpt lat="47.03559" lon="9.00758">
        <ele>843</ele>
        <time>2021-08-02T09:31:20.404Z</time>
      </trkpt>
      <trkpt lat="47.03558" lon="9.00758">
        <ele>844</ele>
        <time>2021-08-02T09:31:21.404Z</time>
      </trkpt>
      <trkpt lat="47.03557" lon="9.00757">
        <ele>844</ele>
        <time>2021-08-02T09:31:22.403Z</time>
      </trkpt>
      <trkpt lat="47.03556" lon="9.00757">
        <ele>844</ele>
        <time>2021-08-02T09:31:23.404Z</time>
      </trkpt>
      <trkpt lat="47.03555" lon="9.00757">
        <ele>844</ele>
        <time>2021-08-02T09:31:24.404Z</time>
      </trkpt>
      <trkpt lat="47.03554" lon="9.00755">
        <ele>844</ele>
        <time>2021-08-02T09:31:25.404Z</time>
      </trkpt>
      <trkpt lat="47.03552" lon="9.00754">
        <ele>845</ele>
        <time>2021-08-02T09:31:26.403Z</time>
      </trkpt>
      <trkpt lat="47.03551" lon="9.00753">
        <ele>845</ele>
        <time>2021-08-02T09:31:27.404Z</time>
      </trkpt>
      <trkpt lat="47.0355" lon="9.00752">
        <ele>845</ele>
        <time>2021-08-02T09:31:28.404Z</time>
      </trkpt>
      <trkpt lat="47.03548" lon="9.0075">
        <ele>845</ele>
        <time>2021-08-02T09:31:29.403Z</time>
      </trkpt>
      <trkpt lat="47.03547" lon="9.00748">
        <ele>845</ele>
        <time>2021-08-02T09:31:30.403Z</time>
      </trkpt>
      <trkpt lat="47.03545" lon="9.00747">
        <ele>846</ele>
        <time>2021-08-02T09:31:31.404Z</time>
      </trkpt>
      <trkpt lat="47.03545" lon="9.00746">
        <ele>846</ele>
        <time>2021-08-02T09:31:32.404Z</time>
      </trkpt>
      <trkpt lat="47.03545" lon="9.00746">
        <ele>846</ele>
        <time>2021-08-02T09:31:33.404Z</time>
      </trkpt>
      <trkpt lat="47.03543" lon="9.00745">
        <ele>846</ele>
        <time>2021-08-02T09:31:34.404Z</time>
      </trkpt>
      <trkpt lat="47.03541" lon="9.00745">
        <ele>846</ele>
        <time>2021-08-02T09:31:35.404Z</time>
      </trkpt>
      <trkpt lat="47.03539" lon="9.00745">
        <ele>846</ele>
        <time>2021-08-02T09:31:36.404Z</time>
      </trkpt>
      <trkpt lat="47.03538" lon="9.00744">
        <ele>846</ele>
        <time>2021-08-02T09:31:37.404Z</time>
      </trkpt>
      <trkpt lat="47.03537" lon="9.00744">
        <ele>845</ele>
        <time>2021-08-02T09:31:38.404Z</time>
      </trkpt>
      <trkpt lat="47.03536" lon="9.00744">
        <ele>845</ele>
        <time>2021-08-02T09:31:39.403Z</time>
      </trkpt>
      <trkpt lat="47.03536" lon="9.00744">
        <ele>845</ele>
        <time>2021-08-02T09:31:40.404Z</time>
      </trkpt>
      <trkpt lat="47.03535" lon="9.00743">
        <ele>845</ele>
        <time>2021-08-02T09:31:41.404Z</time>
      </trkpt>
      <trkpt lat="47.03534" lon="9.00743">
        <ele>845</ele>
        <time>2021-08-02T09:31:42.403Z</time>
      </trkpt>
      <trkpt lat="47.03533" lon="9.00742">
        <ele>846</ele>
        <time>2021-08-02T09:31:43.403Z</time>
      </trkpt>
      <trkpt lat="47.03532" lon="9.00742">
        <ele>846</ele>
        <time>2021-08-02T09:31:44.403Z</time>
      </trkpt>
      <trkpt lat="47.03531" lon="9.0074">
        <ele>846</ele>
        <time>2021-08-02T09:31:45.403Z</time>
      </trkpt>
      <trkpt lat="47.0353" lon="9.0074">
        <ele>846</ele>
        <time>2021-08-02T09:31:46.403Z</time>
      </trkpt>
      <trkpt lat="47.03529" lon="9.00739">
        <ele>847</ele>
        <time>2021-08-02T09:31:47.403Z</time>
      </trkpt>
      <trkpt lat="47.03529" lon="9.00739">
        <ele>847</ele>
        <time>2021-08-02T09:31:48.404Z</time>
      </trkpt>
      <trkpt lat="47.03528" lon="9.00739">
        <ele>847</ele>
        <time>2021-08-02T09:31:49.404Z</time>
      </trkpt>
      <trkpt lat="47.03527" lon="9.00738">
        <ele>848</ele>
        <time>2021-08-02T09:31:50.404Z</time>
      </trkpt>
      <trkpt lat="47.03526" lon="9.00738">
        <ele>848</ele>
        <time>2021-08-02T09:31:51.404Z</time>
      </trkpt>
      <trkpt lat="47.03526" lon="9.00737">
        <ele>849</ele>
        <time>2021-08-02T09:31:52.404Z</time>
      </trkpt>
      <trkpt lat="47.03525" lon="9.00737">
        <ele>849</ele>
        <time>2021-08-02T09:31:53.404Z</time>
      </trkpt>
      <trkpt lat="47.03524" lon="9.00737">
        <ele>849</ele>
        <time>2021-08-02T09:31:54.404Z</time>
      </trkpt>
      <trkpt lat="47.03523" lon="9.00737">
        <ele>850</ele>
        <time>2021-08-02T09:31:55.404Z</time>
      </trkpt>
      <trkpt lat="47.03522" lon="9.00736">
        <ele>850</ele>
        <time>2021-08-02T09:31:56.404Z</time>
      </trkpt>
      <trkpt lat="47.0352" lon="9.00735">
        <ele>850</ele>
        <time>2021-08-02T09:31:57.403Z</time>
      </trkpt>
      <trkpt lat="47.03518" lon="9.00733">
        <ele>850</ele>
        <time>2021-08-02T09:31:58.403Z</time>
      </trkpt>
      <trkpt lat="47.03517" lon="9.00732">
        <ele>851</ele>
        <time>2021-08-02T09:31:59.404Z</time>
      </trkpt>
      <trkpt lat="47.03516" lon="9.00731">
        <ele>851</ele>
        <time>2021-08-02T09:32:00.404Z</time>
      </trkpt>
      <trkpt lat="47.03515" lon="9.0073">
        <ele>851</ele>
        <time>2021-08-02T09:32:01.404Z</time>
      </trkpt>
      <trkpt lat="47.03515" lon="9.00729">
        <ele>852</ele>
        <time>2021-08-02T09:32:02.404Z</time>
      </trkpt>
      <trkpt lat="47.03514" lon="9.00729">
        <ele>852</ele>
        <time>2021-08-02T09:32:03.404Z</time>
      </trkpt>
      <trkpt lat="47.03512" lon="9.00728">
        <ele>853</ele>
        <time>2021-08-02T09:32:04.403Z</time>
      </trkpt>
      <trkpt lat="47.03511" lon="9.00727">
        <ele>853</ele>
        <time>2021-08-02T09:32:05.404Z</time>
      </trkpt>
      <trkpt lat="47.0351" lon="9.00726">
        <ele>853</ele>
        <time>2021-08-02T09:32:06.404Z</time>
      </trkpt>
      <trkpt lat="47.03508" lon="9.00724">
        <ele>854</ele>
        <time>2021-08-02T09:32:07.404Z</time>
      </trkpt>
      <trkpt lat="47.03507" lon="9.00723">
        <ele>854</ele>
        <time>2021-08-02T09:32:08.404Z</time>
      </trkpt>
      <trkpt lat="47.03506" lon="9.00722">
        <ele>854</ele>
        <time>2021-08-02T09:32:09.404Z</time>
      </trkpt>
      <trkpt lat="47.03505" lon="9.00721">
        <ele>854</ele>
        <time>2021-08-02T09:32:10.404Z</time>
      </trkpt>
      <trkpt lat="47.03504" lon="9.00721">
        <ele>854</ele>
        <time>2021-08-02T09:32:11.404Z</time>
      </trkpt>
      <trkpt lat="47.03503" lon="9.0072">
        <ele>854</ele>
        <time>2021-08-02T09:32:12.404Z</time>
      </trkpt>
      <trkpt lat="47.03502" lon="9.0072">
        <ele>854</ele>
        <time>2021-08-02T09:32:13.404Z</time>
      </trkpt>
      <trkpt lat="47.03501" lon="9.0072">
        <ele>854</ele>
        <time>2021-08-02T09:32:14.403Z</time>
      </trkpt>
      <trkpt lat="47.035" lon="9.0072">
        <ele>855</ele>
        <time>2021-08-02T09:32:15.404Z</time>
      </trkpt>
      <trkpt lat="47.03499" lon="9.00719">
        <ele>855</ele>
        <time>2021-08-02T09:32:16.404Z</time>
      </trkpt>
      <trkpt lat="47.03498" lon="9.00719">
        <ele>855</ele>
        <time>2021-08-02T09:32:17.403Z</time>
      </trkpt>
      <trkpt lat="47.03497" lon="9.00718">
        <ele>855</ele>
        <time>2021-08-02T09:32:18.404Z</time>
      </trkpt>
      <trkpt lat="47.03496" lon="9.00717">
        <ele>855</ele>
        <time>2021-08-02T09:32:19.403Z</time>
      </trkpt>
      <trkpt lat="47.03495" lon="9.00717">
        <ele>855</ele>
        <time>2021-08-02T09:32:20.403Z</time>
      </trkpt>
      <trkpt lat="47.03494" lon="9.00716">
        <ele>856</ele>
        <time>2021-08-02T09:32:21.404Z</time>
      </trkpt>
      <trkpt lat="47.03492" lon="9.00715">
        <ele>856</ele>
        <time>2021-08-02T09:32:22.404Z</time>
      </trkpt>
      <trkpt lat="47.03491" lon="9.00715">
        <ele>856</ele>
        <time>2021-08-02T09:32:23.403Z</time>
      </trkpt>
      <trkpt lat="47.0349" lon="9.00715">
        <ele>857</ele>
        <time>2021-08-02T09:32:24.404Z</time>
      </trkpt>
      <trkpt lat="47.03489" lon="9.00714">
        <ele>858</ele>
        <time>2021-08-02T09:32:25.404Z</time>
      </trkpt>
      <trkpt lat="47.03487" lon="9.00713">
        <ele>858</ele>
        <time>2021-08-02T09:32:26.404Z</time>
      </trkpt>
      <trkpt lat="47.03486" lon="9.00712">
        <ele>859</ele>
        <time>2021-08-02T09:32:27.404Z</time>
      </trkpt>
      <trkpt lat="47.03485" lon="9.00711">
        <ele>860</ele>
        <time>2021-08-02T09:32:28.403Z</time>
      </trkpt>
      <trkpt lat="47.03483" lon="9.0071">
        <ele>861</ele>
        <time>2021-08-02T09:32:29.403Z</time>
      </trkpt>
      <trkpt lat="47.03481" lon="9.0071">
        <ele>862</ele>
        <time>2021-08-02T09:32:30.404Z</time>
      </trkpt>
      <trkpt lat="47.0348" lon="9.00709">
        <ele>862</ele>
        <time>2021-08-02T09:32:31.403Z</time>
      </trkpt>
      <trkpt lat="47.03479" lon="9.00708">
        <ele>863</ele>
        <time>2021-08-02T09:32:32.403Z</time>
      </trkpt>
      <trkpt lat="47.03477" lon="9.00707">
        <ele>864</ele>
        <time>2021-08-02T09:32:33.404Z</time>
      </trkpt>
      <trkpt lat="47.03476" lon="9.00706">
        <ele>865</ele>
        <time>2021-08-02T09:32:34.404Z</time>
      </trkpt>
      <trkpt lat="47.03474" lon="9.00705">
        <ele>865</ele>
        <time>2021-08-02T09:32:35.403Z</time>
      </trkpt>
      <trkpt lat="47.03473" lon="9.00704">
        <ele>866</ele>
        <time>2021-08-02T09:32:36.404Z</time>
      </trkpt>
      <trkpt lat="47.03471" lon="9.00703">
        <ele>867</ele>
        <time>2021-08-02T09:32:37.404Z</time>
      </trkpt>
      <trkpt lat="47.0347" lon="9.00703">
        <ele>867</ele>
        <time>2021-08-02T09:32:38.403Z</time>
      </trkpt>
      <trkpt lat="47.03469" lon="9.00702">
        <ele>868</ele>
        <time>2021-08-02T09:32:39.404Z</time>
      </trkpt>
      <trkpt lat="47.03467" lon="9.00701">
        <ele>868</ele>
        <time>2021-08-02T09:32:40.404Z</time>
      </trkpt>
      <trkpt lat="47.03465" lon="9.00699">
        <ele>869</ele>
        <time>2021-08-02T09:32:41.403Z</time>
      </trkpt>
      <trkpt lat="47.03464" lon="9.00698">
        <ele>870</ele>
        <time>2021-08-02T09:32:42.404Z</time>
      </trkpt>
      <trkpt lat="47.03463" lon="9.00698">
        <ele>871</ele>
        <time>2021-08-02T09:32:43.403Z</time>
      </trkpt>
      <trkpt lat="47.03461" lon="9.00697">
        <ele>871</ele>
        <time>2021-08-02T09:32:44.404Z</time>
      </trkpt>
      <trkpt lat="47.0346" lon="9.00697">
        <ele>871</ele>
        <time>2021-08-02T09:32:45.404Z</time>
      </trkpt>
      <trkpt lat="47.03459" lon="9.00697">
        <ele>872</ele>
        <time>2021-08-02T09:32:46.403Z</time>
      </trkpt>
      <trkpt lat="47.03458" lon="9.00697">
        <ele>872</ele>
        <time>2021-08-02T09:32:47.404Z</time>
      </trkpt>
      <trkpt lat="47.03457" lon="9.00698">
        <ele>872</ele>
        <time>2021-08-02T09:32:48.404Z</time>
      </trkpt>
      <trkpt lat="47.03457" lon="9.00699">
        <ele>872</ele>
        <time>2021-08-02T09:32:49.403Z</time>
      </trkpt>
      <trkpt lat="47.03456" lon="9.007">
        <ele>871</ele>
        <time>2021-08-02T09:32:50.404Z</time>
      </trkpt>
      <trkpt lat="47.03455" lon="9.00699">
        <ele>872</ele>
        <time>2021-08-02T09:32:51.403Z</time>
      </trkpt>
      <trkpt lat="47.03453" lon="9.00698">
        <ele>872</ele>
        <time>2021-08-02T09:32:52.403Z</time>
      </trkpt>
      <trkpt lat="47.03452" lon="9.00697">
        <ele>872</ele>
        <time>2021-08-02T09:32:53.403Z</time>
      </trkpt>
      <trkpt lat="47.03451" lon="9.00698">
        <ele>872</ele>
        <time>2021-08-02T09:32:54.403Z</time>
      </trkpt>
      <trkpt lat="47.0345" lon="9.00698">
        <ele>871</ele>
        <time>2021-08-02T09:32:55.403Z</time>
      </trkpt>
      <trkpt lat="47.03449" lon="9.00698">
        <ele>871</ele>
        <time>2021-08-02T09:32:56.403Z</time>
      </trkpt>
      <trkpt lat="47.03448" lon="9.00698">
        <ele>871</ele>
        <time>2021-08-02T09:32:57.403Z</time>
      </trkpt>
      <trkpt lat="47.03447" lon="9.00699">
        <ele>871</ele>
        <time>2021-08-02T09:32:58.404Z</time>
      </trkpt>
      <trkpt lat="47.03446" lon="9.00699">
        <ele>870</ele>
        <time>2021-08-02T09:32:59.403Z</time>
      </trkpt>
      <trkpt lat="47.03445" lon="9.00699">
        <ele>870</ele>
        <time>2021-08-02T09:33:00.403Z</time>
      </trkpt>
      <trkpt lat="47.03444" lon="9.007">
        <ele>870</ele>
        <time>2021-08-02T09:33:01.404Z</time>
      </trkpt>
      <trkpt lat="47.03444" lon="9.007">
        <ele>870</ele>
        <time>2021-08-02T09:33:02.404Z</time>
      </trkpt>
      <trkpt lat="47.03443" lon="9.007">
        <ele>870</ele>
        <time>2021-08-02T09:33:03.403Z</time>
      </trkpt>
      <trkpt lat="47.03442" lon="9.007">
        <ele>869</ele>
        <time>2021-08-02T09:33:04.404Z</time>
      </trkpt>
      <trkpt lat="47.03441" lon="9.007">
        <ele>869</ele>
        <time>2021-08-02T09:33:05.404Z</time>
      </trkpt>
      <trkpt lat="47.0344" lon="9.00699">
        <ele>869</ele>
        <time>2021-08-02T09:33:06.404Z</time>
      </trkpt>
      <trkpt lat="47.03439" lon="9.00699">
        <ele>869</ele>
        <time>2021-08-02T09:33:07.403Z</time>
      </trkpt>
      <trkpt lat="47.03439" lon="9.00698">
        <ele>869</ele>
        <time>2021-08-02T09:33:08.403Z</time>
      </trkpt>
      <trkpt lat="47.03438" lon="9.00698">
        <ele>869</ele>
        <time>2021-08-02T09:33:09.404Z</time>
      </trkpt>
      <trkpt lat="47.03437" lon="9.00697">
        <ele>869</ele>
        <time>2021-08-02T09:33:10.403Z</time>
      </trkpt>
      <trkpt lat="47.03436" lon="9.00696">
        <ele>869</ele>
        <time>2021-08-02T09:33:11.404Z</time>
      </trkpt>
      <trkpt lat="47.03435" lon="9.00696">
        <ele>869</ele>
        <time>2021-08-02T09:33:12.404Z</time>
      </trkpt>
      <trkpt lat="47.03434" lon="9.00695">
        <ele>868</ele>
        <time>2021-08-02T09:33:13.404Z</time>
      </trkpt>
      <trkpt lat="47.03433" lon="9.00694">
        <ele>868</ele>
        <time>2021-08-02T09:33:14.404Z</time>
      </trkpt>
      <trkpt lat="47.03433" lon="9.00693">
        <ele>868</ele>
        <time>2021-08-02T09:33:15.404Z</time>
      </trkpt>
      <trkpt lat="47.03433" lon="9.00693">
        <ele>867</ele>
        <time>2021-08-02T09:33:16.403Z</time>
      </trkpt>
      <trkpt lat="47.03432" lon="9.00692">
        <ele>867</ele>
        <time>2021-08-02T09:33:17.404Z</time>
      </trkpt>
      <trkpt lat="47.03432" lon="9.00691">
        <ele>866</ele>
        <time>2021-08-02T09:33:18.404Z</time>
      </trkpt>
      <trkpt lat="47.03432" lon="9.00691">
        <ele>866</ele>
        <time>2021-08-02T09:33:19.404Z</time>
      </trkpt>
      <trkpt lat="47.03432" lon="9.0069">
        <ele>865</ele>
        <time>2021-08-02T09:33:20.403Z</time>
      </trkpt>
      <trkpt lat="47.03432" lon="9.00689">
        <ele>865</ele>
        <time>2021-08-02T09:33:21.404Z</time>
      </trkpt>
      <trkpt lat="47.03431" lon="9.00689">
        <ele>865</ele>
        <time>2021-08-02T09:33:22.404Z</time>
      </trkpt>
      <trkpt lat="47.0343" lon="9.00688">
        <ele>865</ele>
        <time>2021-08-02T09:33:23.403Z</time>
      </trkpt>
      <trkpt lat="47.0343" lon="9.00688">
        <ele>864</ele>
        <time>2021-08-02T09:33:24.403Z</time>
      </trkpt>
      <trkpt lat="47.0343" lon="9.00687">
        <ele>864</ele>
        <time>2021-08-02T09:33:25.404Z</time>
      </trkpt>
      <trkpt lat="47.0343" lon="9.00687">
        <ele>864</ele>
        <time>2021-08-02T09:33:26.403Z</time>
      </trkpt>
      <trkpt lat="47.03432" lon="9.00686">
        <ele>864</ele>
        <time>2021-08-02T09:33:27.404Z</time>
      </trkpt>
      <trkpt lat="47.03433" lon="9.00687">
        <ele>863</ele>
        <time>2021-08-02T09:33:28.404Z</time>
      </trkpt>
      <trkpt lat="47.03433" lon="9.00687">
        <ele>863</ele>
        <time>2021-08-02T09:33:29.403Z</time>
      </trkpt>
      <trkpt lat="47.03433" lon="9.00688">
        <ele>862</ele>
        <time>2021-08-02T09:33:30.403Z</time>
      </trkpt>
      <trkpt lat="47.03433" lon="9.00688">
        <ele>862</ele>
        <time>2021-08-02T09:33:31.404Z</time>
      </trkpt>
      <trkpt lat="47.03433" lon="9.00688">
        <ele>862</ele>
        <time>2021-08-02T09:33:32.404Z</time>
      </trkpt>
      <trkpt lat="47.03433" lon="9.00688">
        <ele>862</ele>
        <time>2021-08-02T09:33:33.403Z</time>
      </trkpt>
      <trkpt lat="47.03432" lon="9.00688">
        <ele>863</ele>
        <time>2021-08-02T09:33:34.403Z</time>
      </trkpt>
      <trkpt lat="47.03433" lon="9.00688">
        <ele>863</ele>
        <time>2021-08-02T09:33:35.404Z</time>
      </trkpt>
      <trkpt lat="47.03433" lon="9.00689">
        <ele>863</ele>
        <time>2021-08-02T09:33:36.404Z</time>
      </trkpt>
      <trkpt lat="47.03434" lon="9.0069">
        <ele>863</ele>
        <time>2021-08-02T09:33:37.403Z</time>
      </trkpt>
      <trkpt lat="47.03434" lon="9.00691">
        <ele>863</ele>
        <time>2021-08-02T09:33:38.405Z</time>
      </trkpt>
      <trkpt lat="47.03434" lon="9.00692">
        <ele>864</ele>
        <time>2021-08-02T09:33:39.406Z</time>
      </trkpt>
      <trkpt lat="47.03433" lon="9.00692">
        <ele>864</ele>
        <time>2021-08-02T09:33:40.405Z</time>
      </trkpt>
      <trkpt lat="47.03433" lon="9.00693">
        <ele>864</ele>
        <time>2021-08-02T09:33:41.406Z</time>
      </trkpt>
      <trkpt lat="47.03433" lon="9.00693">
        <ele>864</ele>
        <time>2021-08-02T09:33:42.406Z</time>
      </trkpt>
      <trkpt lat="47.03433" lon="9.00694">
        <ele>864</ele>
        <time>2021-08-02T09:33:43.406Z</time>
      </trkpt>
      <trkpt lat="47.03433" lon="9.00694">
        <ele>865</ele>
        <time>2021-08-02T09:33:44.406Z</time>
      </trkpt>
      <trkpt lat="47.03433" lon="9.00694">
        <ele>865</ele>
        <time>2021-08-02T09:33:45.406Z</time>
      </trkpt>
      <trkpt lat="47.03433" lon="9.00694">
        <ele>865</ele>
        <time>2021-08-02T09:33:46.406Z</time>
      </trkpt>
      <trkpt lat="47.03432" lon="9.00695">
        <ele>865</ele>
        <time>2021-08-02T09:33:47.406Z</time>
      </trkpt>
      <trkpt lat="47.03432" lon="9.00695">
        <ele>866</ele>
        <time>2021-08-02T09:33:48.405Z</time>
      </trkpt>
      <trkpt lat="47.03432" lon="9.00695">
        <ele>866</ele>
        <time>2021-08-02T09:33:49.406Z</time>
      </trkpt>
      <trkpt lat="47.03433" lon="9.00695">
        <ele>866</ele>
        <time>2021-08-02T09:33:50.406Z</time>
      </trkpt>
      <trkpt lat="47.03433" lon="9.00695">
        <ele>867</ele>
        <time>2021-08-02T09:33:51.405Z</time>
      </trkpt>
      <trkpt lat="47.03434" lon="9.00694">
        <ele>867</ele>
        <time>2021-08-02T09:33:52.405Z</time>
      </trkpt>
      <trkpt lat="47.03434" lon="9.00693">
        <ele>867</ele>
        <time>2021-08-02T09:33:53.405Z</time>
      </trkpt>
      <trkpt lat="47.03434" lon="9.00693">
        <ele>866</ele>
        <time>2021-08-02T09:33:54.406Z</time>
      </trkpt>
      <trkpt lat="47.03434" lon="9.00693">
        <ele>865</ele>
        <time>2021-08-02T09:33:55.406Z</time>
      </trkpt>
      <trkpt lat="47.03433" lon="9.00692">
        <ele>864</ele>
        <time>2021-08-02T09:33:56.406Z</time>
      </trkpt>
      <trkpt lat="47.03433" lon="9.00692">
        <ele>864</ele>
        <time>2021-08-02T09:33:57.405Z</time>
      </trkpt>
      <trkpt lat="47.03432" lon="9.00693">
        <ele>863</ele>
        <time>2021-08-02T09:33:58.405Z</time>
      </trkpt>
      <trkpt lat="47.03433" lon="9.00694">
        <ele>862</ele>
        <time>2021-08-02T09:33:59.406Z</time>
      </trkpt>
      <trkpt lat="47.03434" lon="9.00697">
        <ele>859</ele>
        <time>2021-08-02T09:34:00.407Z</time>
      </trkpt>
      <trkpt lat="47.03436" lon="9.00696">
        <ele>855</ele>
        <time>2021-08-02T09:34:01.408Z</time>
      </trkpt>
      <trkpt lat="47.03442" lon="9.00691">
        <ele>848</ele>
        <time>2021-08-02T09:34:02.408Z</time>
      </trkpt>
      <trkpt lat="47.03442" lon="9.0069">
        <ele>848</ele>
        <time>2021-08-02T09:34:03.408Z</time>
      </trkpt>
      <trkpt lat="47.03442" lon="9.0069">
        <ele>849</ele>
        <time>2021-08-02T09:34:04.407Z</time>
      </trkpt>
      <trkpt lat="47.03443" lon="9.00689">
        <ele>849</ele>
        <time>2021-08-02T09:34:05.407Z</time>
      </trkpt>
      <trkpt lat="47.03443" lon="9.00688">
        <ele>850</ele>
        <time>2021-08-02T09:34:06.407Z</time>
      </trkpt>
      <trkpt lat="47.03443" lon="9.00688">
        <ele>851</ele>
        <time>2021-08-02T09:34:07.408Z</time>
      </trkpt>
      <trkpt lat="47.03443" lon="9.00689">
        <ele>851</ele>
        <time>2021-08-02T09:34:08.407Z</time>
      </trkpt>
      <trkpt lat="47.03442" lon="9.00689">
        <ele>852</ele>
        <time>2021-08-02T09:34:09.408Z</time>
      </trkpt>
      <trkpt lat="47.03442" lon="9.00689">
        <ele>852</ele>
        <time>2021-08-02T09:34:10.408Z</time>
      </trkpt>
      <trkpt lat="47.03441" lon="9.0069">
        <ele>852</ele>
        <time>2021-08-02T09:34:11.408Z</time>
      </trkpt>
      <trkpt lat="47.03441" lon="9.00691">
        <ele>852</ele>
        <time>2021-08-02T09:34:12.408Z</time>
      </trkpt>
      <trkpt lat="47.03441" lon="9.00692">
        <ele>851</ele>
        <time>2021-08-02T09:34:13.407Z</time>
      </trkpt>
      <trkpt lat="47.0344" lon="9.00691">
        <ele>851</ele>
        <time>2021-08-02T09:34:14.407Z</time>
      </trkpt>
      <trkpt lat="47.03439" lon="9.0069">
        <ele>852</ele>
        <time>2021-08-02T09:34:15.408Z</time>
      </trkpt>
      <trkpt lat="47.03437" lon="9.00689">
        <ele>852</ele>
        <time>2021-08-02T09:34:16.407Z</time>
      </trkpt>
      <trkpt lat="47.03436" lon="9.00687">
        <ele>852</ele>
        <time>2021-08-02T09:34:17.408Z</time>
      </trkpt>
      <trkpt lat="47.03435" lon="9.00686">
        <ele>852</ele>
        <time>2021-08-02T09:34:18.408Z</time>
      </trkpt>
      <trkpt lat="47.03434" lon="9.00685">
        <ele>852</ele>
        <time>2021-08-02T09:34:19.408Z</time>
      </trkpt>
      <trkpt lat="47.03434" lon="9.00686">
        <ele>853</ele>
        <time>2021-08-02T09:34:20.408Z</time>
      </trkpt>
      <trkpt lat="47.03433" lon="9.00685">
        <ele>853</ele>
        <time>2021-08-02T09:34:21.407Z</time>
      </trkpt>
      <trkpt lat="47.03432" lon="9.00684">
        <ele>853</ele>
        <time>2021-08-02T09:34:22.408Z</time>
      </trkpt>
      <trkpt lat="47.03432" lon="9.00684">
        <ele>853</ele>
        <time>2021-08-02T09:34:23.407Z</time>
      </trkpt>
      <trkpt lat="47.0343" lon="9.00683">
        <ele>853</ele>
        <time>2021-08-02T09:34:24.408Z</time>
      </trkpt>
      <trkpt lat="47.03429" lon="9.00682">
        <ele>853</ele>
        <time>2021-08-02T09:34:25.408Z</time>
      </trkpt>
      <trkpt lat="47.03428" lon="9.00682">
        <ele>853</ele>
        <time>2021-08-02T09:34:26.407Z</time>
      </trkpt>
      <trkpt lat="47.03427" lon="9.00682">
        <ele>854</ele>
        <time>2021-08-02T09:34:27.408Z</time>
      </trkpt>
      <trkpt lat="47.03424" lon="9.00681">
        <ele>854</ele>
        <time>2021-08-02T09:34:28.408Z</time>
      </trkpt>
      <trkpt lat="47.03422" lon="9.00681">
        <ele>854</ele>
        <time>2021-08-02T09:34:29.407Z</time>
      </trkpt>
      <trkpt lat="47.0342" lon="9.0068">
        <ele>854</ele>
        <time>2021-08-02T09:34:30.408Z</time>
      </trkpt>
      <trkpt lat="47.03419" lon="9.0068">
        <ele>855</ele>
        <time>2021-08-02T09:34:31.407Z</time>
      </trkpt>
      <trkpt lat="47.03418" lon="9.0068">
        <ele>855</ele>
        <time>2021-08-02T09:34:32.407Z</time>
      </trkpt>
      <trkpt lat="47.03416" lon="9.0068">
        <ele>855</ele>
        <time>2021-08-02T09:34:33.408Z</time>
      </trkpt>
      <trkpt lat="47.03415" lon="9.0068">
        <ele>856</ele>
        <time>2021-08-02T09:34:34.408Z</time>
      </trkpt>
      <trkpt lat="47.03414" lon="9.00679">
        <ele>856</ele>
        <time>2021-08-02T09:34:35.407Z</time>
      </trkpt>
      <trkpt lat="47.03413" lon="9.00679">
        <ele>857</ele>
        <time>2021-08-02T09:34:36.407Z</time>
      </trkpt>
      <trkpt lat="47.03412" lon="9.00679">
        <ele>857</ele>
        <time>2021-08-02T09:34:37.407Z</time>
      </trkpt>
      <trkpt lat="47.03411" lon="9.00679">
        <ele>857</ele>
        <time>2021-08-02T09:34:38.407Z</time>
      </trkpt>
      <trkpt lat="47.0341" lon="9.00678">
        <ele>857</ele>
        <time>2021-08-02T09:34:39.408Z</time>
      </trkpt>
      <trkpt lat="47.03409" lon="9.00678">
        <ele>857</ele>
        <time>2021-08-02T09:34:40.407Z</time>
      </trkpt>
      <trkpt lat="47.03409" lon="9.00678">
        <ele>857</ele>
        <time>2021-08-02T09:34:41.407Z</time>
      </trkpt>
      <trkpt lat="47.03409" lon="9.00678">
        <ele>857</ele>
        <time>2021-08-02T09:34:42.408Z</time>
      </trkpt>
      <trkpt lat="47.03409" lon="9.00678">
        <ele>857</ele>
        <time>2021-08-02T09:34:43.407Z</time>
      </trkpt>
      <trkpt lat="47.03409" lon="9.00678">
        <ele>857</ele>
        <time>2021-08-02T09:34:44.408Z</time>
      </trkpt>
      <trkpt lat="47.03409" lon="9.00678">
        <ele>856</ele>
        <time>2021-08-02T09:34:45.408Z</time>
      </trkpt>
      <trkpt lat="47.03409" lon="9.00679">
        <ele>856</ele>
        <time>2021-08-02T09:34:46.408Z</time>
      </trkpt>
      <trkpt lat="47.03409" lon="9.00679">
        <ele>855</ele>
        <time>2021-08-02T09:34:47.407Z</time>
      </trkpt>
      <trkpt lat="47.03409" lon="9.00679">
        <ele>854</ele>
        <time>2021-08-02T09:34:48.407Z</time>
      </trkpt>
      <trkpt lat="47.03408" lon="9.00679">
        <ele>853</ele>
        <time>2021-08-02T09:34:49.407Z</time>
      </trkpt>
      <trkpt lat="47.03408" lon="9.00678">
        <ele>853</ele>
        <time>2021-08-02T09:34:50.407Z</time>
      </trkpt>
      <trkpt lat="47.03408" lon="9.00677">
        <ele>852</ele>
        <time>2021-08-02T09:34:51.407Z</time>
      </trkpt>
      <trkpt lat="47.03408" lon="9.00676">
        <ele>851</ele>
        <time>2021-08-02T09:34:52.408Z</time>
      </trkpt>
      <trkpt lat="47.03408" lon="9.00675">
        <ele>851</ele>
        <time>2021-08-02T09:34:53.408Z</time>
      </trkpt>
      <trkpt lat="47.03407" lon="9.00674">
        <ele>851</ele>
        <time>2021-08-02T09:34:54.408Z</time>
      </trkpt>
      <trkpt lat="47.03407" lon="9.00673">
        <ele>851</ele>
        <time>2021-08-02T09:34:55.408Z</time>
      </trkpt>
      <trkpt lat="47.03406" lon="9.00672">
        <ele>851</ele>
        <time>2021-08-02T09:34:56.408Z</time>
      </trkpt>
      <trkpt lat="47.03405" lon="9.00671">
        <ele>850</ele>
        <time>2021-08-02T09:34:57.407Z</time>
      </trkpt>
      <trkpt lat="47.03404" lon="9.0067">
        <ele>850</ele>
        <time>2021-08-02T09:34:58.408Z</time>
      </trkpt>
      <trkpt lat="47.03403" lon="9.00669">
        <ele>850</ele>
        <time>2021-08-02T09:34:59.408Z</time>
      </trkpt>
      <trkpt lat="47.03402" lon="9.00669">
        <ele>849</ele>
        <time>2021-08-02T09:35:00.407Z</time>
      </trkpt>
      <trkpt lat="47.03402" lon="9.00668">
        <ele>849</ele>
        <time>2021-08-02T09:35:01.408Z</time>
      </trkpt>
      <trkpt lat="47.03401" lon="9.00668">
        <ele>849</ele>
        <time>2021-08-02T09:35:02.407Z</time>
      </trkpt>
      <trkpt lat="47.03402" lon="9.00669">
        <ele>849</ele>
        <time>2021-08-02T09:35:03.408Z</time>
      </trkpt>
      <trkpt lat="47.03401" lon="9.00669">
        <ele>848</ele>
        <time>2021-08-02T09:35:04.408Z</time>
      </trkpt>
      <trkpt lat="47.034" lon="9.00668">
        <ele>848</ele>
        <time>2021-08-02T09:35:05.408Z</time>
      </trkpt>
      <trkpt lat="47.034" lon="9.00668">
        <ele>848</ele>
        <time>2021-08-02T09:35:06.407Z</time>
      </trkpt>
      <trkpt lat="47.03399" lon="9.00668">
        <ele>849</ele>
        <time>2021-08-02T09:35:07.407Z</time>
      </trkpt>
      <trkpt lat="47.03398" lon="9.00667">
        <ele>849</ele>
        <time>2021-08-02T09:35:08.408Z</time>
      </trkpt>
      <trkpt lat="47.03397" lon="9.00666">
        <ele>849</ele>
        <time>2021-08-02T09:35:09.408Z</time>
      </trkpt>
      <trkpt lat="47.03396" lon="9.00666">
        <ele>849</ele>
        <time>2021-08-02T09:35:10.408Z</time>
      </trkpt>
      <trkpt lat="47.03396" lon="9.00666">
        <ele>850</ele>
        <time>2021-08-02T09:35:11.407Z</time>
      </trkpt>
      <trkpt lat="47.03394" lon="9.00665">
        <ele>850</ele>
        <time>2021-08-02T09:35:12.408Z</time>
      </trkpt>
      <trkpt lat="47.03393" lon="9.00665">
        <ele>851</ele>
        <time>2021-08-02T09:35:13.408Z</time>
      </trkpt>
      <trkpt lat="47.03393" lon="9.00665">
        <ele>851</ele>
        <time>2021-08-02T09:35:14.408Z</time>
      </trkpt>
      <trkpt lat="47.03392" lon="9.00665">
        <ele>852</ele>
        <time>2021-08-02T09:35:15.408Z</time>
      </trkpt>
      <trkpt lat="47.03391" lon="9.00664">
        <ele>852</ele>
        <time>2021-08-02T09:35:16.407Z</time>
      </trkpt>
      <trkpt lat="47.0339" lon="9.00664">
        <ele>852</ele>
        <time>2021-08-02T09:35:17.408Z</time>
      </trkpt>
      <trkpt lat="47.03389" lon="9.00664">
        <ele>852</ele>
        <time>2021-08-02T09:35:18.408Z</time>
      </trkpt>
      <trkpt lat="47.03388" lon="9.00664">
        <ele>852</ele>
        <time>2021-08-02T09:35:19.408Z</time>
      </trkpt>
      <trkpt lat="47.03388" lon="9.00664">
        <ele>852</ele>
        <time>2021-08-02T09:35:20.408Z</time>
      </trkpt>
      <trkpt lat="47.03387" lon="9.00664">
        <ele>852</ele>
        <time>2021-08-02T09:35:21.408Z</time>
      </trkpt>
      <trkpt lat="47.03386" lon="9.00663">
        <ele>852</ele>
        <time>2021-08-02T09:35:22.407Z</time>
      </trkpt>
      <trkpt lat="47.03385" lon="9.00663">
        <ele>853</ele>
        <time>2021-08-02T09:35:23.408Z</time>
      </trkpt>
      <trkpt lat="47.03383" lon="9.00663">
        <ele>853</ele>
        <time>2021-08-02T09:35:24.407Z</time>
      </trkpt>
      <trkpt lat="47.03382" lon="9.00662">
        <ele>853</ele>
        <time>2021-08-02T09:35:25.408Z</time>
      </trkpt>
      <trkpt lat="47.03381" lon="9.00662">
        <ele>852</ele>
        <time>2021-08-02T09:35:26.408Z</time>
      </trkpt>
      <trkpt lat="47.0338" lon="9.00662">
        <ele>852</ele>
        <time>2021-08-02T09:35:27.407Z</time>
      </trkpt>
      <trkpt lat="47.03379" lon="9.00661">
        <ele>852</ele>
        <time>2021-08-02T09:35:28.407Z</time>
      </trkpt>
      <trkpt lat="47.03378" lon="9.00661">
        <ele>852</ele>
        <time>2021-08-02T09:35:29.407Z</time>
      </trkpt>
      <trkpt lat="47.03377" lon="9.00661">
        <ele>852</ele>
        <time>2021-08-02T09:35:30.407Z</time>
      </trkpt>
      <trkpt lat="47.03376" lon="9.0066">
        <ele>852</ele>
        <time>2021-08-02T09:35:31.408Z</time>
      </trkpt>
      <trkpt lat="47.03375" lon="9.0066">
        <ele>851</ele>
        <time>2021-08-02T09:35:32.408Z</time>
      </trkpt>
      <trkpt lat="47.03374" lon="9.0066">
        <ele>851</ele>
        <time>2021-08-02T09:35:33.408Z</time>
      </trkpt>
      <trkpt lat="47.03373" lon="9.0066">
        <ele>851</ele>
        <time>2021-08-02T09:35:34.408Z</time>
      </trkpt>
      <trkpt lat="47.03371" lon="9.00659">
        <ele>851</ele>
        <time>2021-08-02T09:35:35.408Z</time>
      </trkpt>
      <trkpt lat="47.0337" lon="9.00659">
        <ele>851</ele>
        <time>2021-08-02T09:35:36.407Z</time>
      </trkpt>
      <trkpt lat="47.03369" lon="9.00659">
        <ele>851</ele>
        <time>2021-08-02T09:35:37.408Z</time>
      </trkpt>
      <trkpt lat="47.03368" lon="9.00659">
        <ele>852</ele>
        <time>2021-08-02T09:35:38.407Z</time>
      </trkpt>
      <trkpt lat="47.03367" lon="9.00659">
        <ele>852</ele>
        <time>2021-08-02T09:35:39.407Z</time>
      </trkpt>
      <trkpt lat="47.03367" lon="9.00658">
        <ele>852</ele>
        <time>2021-08-02T09:35:40.408Z</time>
      </trkpt>
      <trkpt lat="47.03366" lon="9.00658">
        <ele>853</ele>
        <time>2021-08-02T09:35:41.407Z</time>
      </trkpt>
      <trkpt lat="47.03365" lon="9.00658">
        <ele>853</ele>
        <time>2021-08-02T09:35:42.408Z</time>
      </trkpt>
      <trkpt lat="47.03364" lon="9.00658">
        <ele>853</ele>
        <time>2021-08-02T09:35:43.408Z</time>
      </trkpt>
      <trkpt lat="47.03362" lon="9.00657">
        <ele>853</ele>
        <time>2021-08-02T09:35:44.407Z</time>
      </trkpt>
      <trkpt lat="47.03362" lon="9.00656">
        <ele>854</ele>
        <time>2021-08-02T09:35:45.407Z</time>
      </trkpt>
      <trkpt lat="47.03361" lon="9.00655">
        <ele>854</ele>
        <time>2021-08-02T09:35:46.408Z</time>
      </trkpt>
      <trkpt lat="47.0336" lon="9.00655">
        <ele>855</ele>
        <time>2021-08-02T09:35:47.408Z</time>
      </trkpt>
      <trkpt lat="47.03359" lon="9.00655">
        <ele>855</ele>
        <time>2021-08-02T09:35:48.407Z</time>
      </trkpt>
      <trkpt lat="47.03358" lon="9.00655">
        <ele>856</ele>
        <time>2021-08-02T09:35:49.407Z</time>
      </trkpt>
      <trkpt lat="47.03357" lon="9.00655">
        <ele>856</ele>
        <time>2021-08-02T09:35:50.407Z</time>
      </trkpt>
      <trkpt lat="47.03356" lon="9.00654">
        <ele>856</ele>
        <time>2021-08-02T09:35:51.407Z</time>
      </trkpt>
      <trkpt lat="47.03355" lon="9.00654">
        <ele>857</ele>
        <time>2021-08-02T09:35:52.407Z</time>
      </trkpt>
      <trkpt lat="47.03353" lon="9.00654">
        <ele>857</ele>
        <time>2021-08-02T09:35:53.407Z</time>
      </trkpt>
      <trkpt lat="47.03352" lon="9.00654">
        <ele>857</ele>
        <time>2021-08-02T09:35:54.407Z</time>
      </trkpt>
      <trkpt lat="47.0335" lon="9.00654">
        <ele>857</ele>
        <time>2021-08-02T09:35:55.407Z</time>
      </trkpt>
      <trkpt lat="47.03349" lon="9.00653">
        <ele>857</ele>
        <time>2021-08-02T09:35:56.408Z</time>
      </trkpt>
      <trkpt lat="47.03348" lon="9.00653">
        <ele>857</ele>
        <time>2021-08-02T09:35:57.408Z</time>
      </trkpt>
      <trkpt lat="47.03347" lon="9.00653">
        <ele>857</ele>
        <time>2021-08-02T09:35:58.408Z</time>
      </trkpt>
      <trkpt lat="47.03345" lon="9.00653">
        <ele>857</ele>
        <time>2021-08-02T09:35:59.407Z</time>
      </trkpt>
      <trkpt lat="47.03344" lon="9.00652">
        <ele>858</ele>
        <time>2021-08-02T09:36:00.408Z</time>
      </trkpt>
      <trkpt lat="47.03343" lon="9.00652">
        <ele>858</ele>
        <time>2021-08-02T09:36:01.408Z</time>
      </trkpt>
      <trkpt lat="47.03342" lon="9.00652">
        <ele>858</ele>
        <time>2021-08-02T09:36:02.408Z</time>
      </trkpt>
      <trkpt lat="47.0334" lon="9.00652">
        <ele>858</ele>
        <time>2021-08-02T09:36:03.408Z</time>
      </trkpt>
      <trkpt lat="47.03339" lon="9.00651">
        <ele>859</ele>
        <time>2021-08-02T09:36:04.407Z</time>
      </trkpt>
      <trkpt lat="47.03338" lon="9.00651">
        <ele>859</ele>
        <time>2021-08-02T09:36:05.408Z</time>
      </trkpt>
      <trkpt lat="47.03337" lon="9.00651">
        <ele>859</ele>
        <time>2021-08-02T09:36:06.408Z</time>
      </trkpt>
      <trkpt lat="47.03336" lon="9.00651">
        <ele>859</ele>
        <time>2021-08-02T09:36:07.407Z</time>
      </trkpt>
      <trkpt lat="47.03335" lon="9.00651">
        <ele>858</ele>
        <time>2021-08-02T09:36:08.408Z</time>
      </trkpt>
      <trkpt lat="47.03335" lon="9.00652">
        <ele>857</ele>
        <time>2021-08-02T09:36:09.408Z</time>
      </trkpt>
      <trkpt lat="47.03335" lon="9.00652">
        <ele>857</ele>
        <time>2021-08-02T09:36:10.408Z</time>
      </trkpt>
      <trkpt lat="47.03333" lon="9.00652">
        <ele>856</ele>
        <time>2021-08-02T09:36:11.407Z</time>
      </trkpt>
      <trkpt lat="47.03333" lon="9.00652">
        <ele>855</ele>
        <time>2021-08-02T09:36:12.408Z</time>
      </trkpt>
      <trkpt lat="47.03332" lon="9.00651">
        <ele>855</ele>
        <time>2021-08-02T09:36:13.408Z</time>
      </trkpt>
      <trkpt lat="47.0333" lon="9.00651">
        <ele>855</ele>
        <time>2021-08-02T09:36:14.407Z</time>
      </trkpt>
      <trkpt lat="47.03329" lon="9.00651">
        <ele>854</ele>
        <time>2021-08-02T09:36:15.407Z</time>
      </trkpt>
      <trkpt lat="47.03327" lon="9.0065">
        <ele>854</ele>
        <time>2021-08-02T09:36:16.408Z</time>
      </trkpt>
      <trkpt lat="47.03326" lon="9.0065">
        <ele>854</ele>
        <time>2021-08-02T09:36:17.408Z</time>
      </trkpt>
      <trkpt lat="47.03325" lon="9.00649">
        <ele>855</ele>
        <time>2021-08-02T09:36:18.408Z</time>
      </trkpt>
      <trkpt lat="47.03325" lon="9.00649">
        <ele>855</ele>
        <time>2021-08-02T09:36:19.407Z</time>
      </trkpt>
      <trkpt lat="47.03324" lon="9.00648">
        <ele>855</ele>
        <time>2021-08-02T09:36:20.408Z</time>
      </trkpt>
      <trkpt lat="47.03323" lon="9.00648">
        <ele>855</ele>
        <time>2021-08-02T09:36:21.408Z</time>
      </trkpt>
      <trkpt lat="47.03322" lon="9.00647">
        <ele>854</ele>
        <time>2021-08-02T09:36:22.408Z</time>
      </trkpt>
      <trkpt lat="47.0332" lon="9.00647">
        <ele>854</ele>
        <time>2021-08-02T09:36:23.407Z</time>
      </trkpt>
      <trkpt lat="47.0332" lon="9.00647">
        <ele>854</ele>
        <time>2021-08-02T09:36:24.408Z</time>
      </trkpt>
      <trkpt lat="47.03319" lon="9.00646">
        <ele>854</ele>
        <time>2021-08-02T09:36:25.408Z</time>
      </trkpt>
      <trkpt lat="47.03319" lon="9.00645">
        <ele>854</ele>
        <time>2021-08-02T09:36:26.407Z</time>
      </trkpt>
      <trkpt lat="47.03318" lon="9.00644">
        <ele>854</ele>
        <time>2021-08-02T09:36:27.408Z</time>
      </trkpt>
      <trkpt lat="47.03318" lon="9.00644">
        <ele>854</ele>
        <time>2021-08-02T09:36:28.408Z</time>
      </trkpt>
      <trkpt lat="47.03317" lon="9.00643">
        <ele>854</ele>
        <time>2021-08-02T09:36:29.408Z</time>
      </trkpt>
      <trkpt lat="47.03316" lon="9.00642">
        <ele>854</ele>
        <time>2021-08-02T09:36:30.408Z</time>
      </trkpt>
      <trkpt lat="47.03316" lon="9.00641">
        <ele>854</ele>
        <time>2021-08-02T09:36:31.407Z</time>
      </trkpt>
      <trkpt lat="47.03315" lon="9.00641">
        <ele>853</ele>
        <time>2021-08-02T09:36:32.408Z</time>
      </trkpt>
      <trkpt lat="47.03315" lon="9.0064">
        <ele>853</ele>
        <time>2021-08-02T09:36:33.408Z</time>
      </trkpt>
      <trkpt lat="47.03314" lon="9.00639">
        <ele>853</ele>
        <time>2021-08-02T09:36:34.408Z</time>
      </trkpt>
      <trkpt lat="47.03313" lon="9.00639">
        <ele>852</ele>
        <time>2021-08-02T09:36:35.407Z</time>
      </trkpt>
      <trkpt lat="47.03312" lon="9.00637">
        <ele>852</ele>
        <time>2021-08-02T09:36:36.408Z</time>
      </trkpt>
      <trkpt lat="47.03311" lon="9.00635">
        <ele>852</ele>
        <time>2021-08-02T09:36:37.407Z</time>
      </trkpt>
      <trkpt lat="47.0331" lon="9.00634">
        <ele>852</ele>
        <time>2021-08-02T09:36:38.407Z</time>
      </trkpt>
      <trkpt lat="47.0331" lon="9.00633">
        <ele>852</ele>
        <time>2021-08-02T09:36:39.408Z</time>
      </trkpt>
      <trkpt lat="47.03309" lon="9.00632">
        <ele>852</ele>
        <time>2021-08-02T09:36:40.407Z</time>
      </trkpt>
      <trkpt lat="47.03308" lon="9.00631">
        <ele>852</ele>
        <time>2021-08-02T09:36:41.408Z</time>
      </trkpt>
      <trkpt lat="47.03307" lon="9.0063">
        <ele>852</ele>
        <time>2021-08-02T09:36:42.408Z</time>
      </trkpt>
      <trkpt lat="47.03307" lon="9.00629">
        <ele>852</ele>
        <time>2021-08-02T09:36:43.407Z</time>
      </trkpt>
      <trkpt lat="47.03306" lon="9.00629">
        <ele>852</ele>
        <time>2021-08-02T09:36:44.407Z</time>
      </trkpt>
      <trkpt lat="47.03305" lon="9.00628">
        <ele>851</ele>
        <time>2021-08-02T09:36:45.408Z</time>
      </trkpt>
      <trkpt lat="47.03304" lon="9.00628">
        <ele>851</ele>
        <time>2021-08-02T09:36:46.407Z</time>
      </trkpt>
      <trkpt lat="47.03303" lon="9.00627">
        <ele>851</ele>
        <time>2021-08-02T09:36:47.408Z</time>
      </trkpt>
      <trkpt lat="47.03302" lon="9.00626">
        <ele>851</ele>
        <time>2021-08-02T09:36:48.407Z</time>
      </trkpt>
      <trkpt lat="47.03301" lon="9.00625">
        <ele>851</ele>
        <time>2021-08-02T09:36:49.408Z</time>
      </trkpt>
      <trkpt lat="47.033" lon="9.00625">
        <ele>851</ele>
        <time>2021-08-02T09:36:50.407Z</time>
      </trkpt>
      <trkpt lat="47.03298" lon="9.00624">
        <ele>851</ele>
        <time>2021-08-02T09:36:51.407Z</time>
      </trkpt>
      <trkpt lat="47.03297" lon="9.00624">
        <ele>852</ele>
        <time>2021-08-02T09:36:52.407Z</time>
      </trkpt>
      <trkpt lat="47.03296" lon="9.00623">
        <ele>852</ele>
        <time>2021-08-02T09:36:53.407Z</time>
      </trkpt>
      <trkpt lat="47.03295" lon="9.00623">
        <ele>852</ele>
        <time>2021-08-02T09:36:54.407Z</time>
      </trkpt>
      <trkpt lat="47.03295" lon="9.00622">
        <ele>851</ele>
        <time>2021-08-02T09:36:55.407Z</time>
      </trkpt>
      <trkpt lat="47.03296" lon="9.00619">
        <ele>851</ele>
        <time>2021-08-02T09:36:56.407Z</time>
      </trkpt>
      <trkpt lat="47.03295" lon="9.00618">
        <ele>851</ele>
        <time>2021-08-02T09:36:57.407Z</time>
      </trkpt>
      <trkpt lat="47.03295" lon="9.00617">
        <ele>851</ele>
        <time>2021-08-02T09:36:58.407Z</time>
      </trkpt>
      <trkpt lat="47.03294" lon="9.00616">
        <ele>851</ele>
        <time>2021-08-02T09:36:59.408Z</time>
      </trkpt>
      <trkpt lat="47.03293" lon="9.00616">
        <ele>851</ele>
        <time>2021-08-02T09:37:00.407Z</time>
      </trkpt>
      <trkpt lat="47.03292" lon="9.00615">
        <ele>851</ele>
        <time>2021-08-02T09:37:01.408Z</time>
      </trkpt>
      <trkpt lat="47.03291" lon="9.00614">
        <ele>851</ele>
        <time>2021-08-02T09:37:02.408Z</time>
      </trkpt>
      <trkpt lat="47.0329" lon="9.00614">
        <ele>851</ele>
        <time>2021-08-02T09:37:03.407Z</time>
      </trkpt>
      <trkpt lat="47.03288" lon="9.00613">
        <ele>851</ele>
        <time>2021-08-02T09:37:04.408Z</time>
      </trkpt>
      <trkpt lat="47.03287" lon="9.00612">
        <ele>852</ele>
        <time>2021-08-02T09:37:05.408Z</time>
      </trkpt>
      <trkpt lat="47.03286" lon="9.00612">
        <ele>852</ele>
        <time>2021-08-02T09:37:06.407Z</time>
      </trkpt>
      <trkpt lat="47.03286" lon="9.00611">
        <ele>851</ele>
        <time>2021-08-02T09:37:07.408Z</time>
      </trkpt>
      <trkpt lat="47.03285" lon="9.00611">
        <ele>851</ele>
        <time>2021-08-02T09:37:08.408Z</time>
      </trkpt>
      <trkpt lat="47.03284" lon="9.0061">
        <ele>851</ele>
        <time>2021-08-02T09:37:09.408Z</time>
      </trkpt>
      <trkpt lat="47.03283" lon="9.00609">
        <ele>851</ele>
        <time>2021-08-02T09:37:10.408Z</time>
      </trkpt>
      <trkpt lat="47.03282" lon="9.00608">
        <ele>851</ele>
        <time>2021-08-02T09:37:11.408Z</time>
      </trkpt>
      <trkpt lat="47.03281" lon="9.00607">
        <ele>851</ele>
        <time>2021-08-02T09:37:12.407Z</time>
      </trkpt>
      <trkpt lat="47.0328" lon="9.00606">
        <ele>851</ele>
        <time>2021-08-02T09:37:13.408Z</time>
      </trkpt>
      <trkpt lat="47.03279" lon="9.00605">
        <ele>851</ele>
        <time>2021-08-02T09:37:14.408Z</time>
      </trkpt>
      <trkpt lat="47.03278" lon="9.00605">
        <ele>851</ele>
        <time>2021-08-02T09:37:15.407Z</time>
      </trkpt>
      <trkpt lat="47.03277" lon="9.00603">
        <ele>850</ele>
        <time>2021-08-02T09:37:16.408Z</time>
      </trkpt>
      <trkpt lat="47.03276" lon="9.00602">
        <ele>850</ele>
        <time>2021-08-02T09:37:17.408Z</time>
      </trkpt>
      <trkpt lat="47.03276" lon="9.00601">
        <ele>850</ele>
        <time>2021-08-02T09:37:18.408Z</time>
      </trkpt>
      <trkpt lat="47.03275" lon="9.006">
        <ele>850</ele>
        <time>2021-08-02T09:37:19.408Z</time>
      </trkpt>
      <trkpt lat="47.03274" lon="9.00599">
        <ele>850</ele>
        <time>2021-08-02T09:37:20.408Z</time>
      </trkpt>
      <trkpt lat="47.03274" lon="9.00597">
        <ele>849</ele>
        <time>2021-08-02T09:37:21.408Z</time>
      </trkpt>
      <trkpt lat="47.03273" lon="9.00596">
        <ele>849</ele>
        <time>2021-08-02T09:37:22.407Z</time>
      </trkpt>
      <trkpt lat="47.03273" lon="9.00595">
        <ele>849</ele>
        <time>2021-08-02T09:37:23.408Z</time>
      </trkpt>
      <trkpt lat="47.03272" lon="9.00593">
        <ele>849</ele>
        <time>2021-08-02T09:37:24.408Z</time>
      </trkpt>
      <trkpt lat="47.03271" lon="9.00592">
        <ele>849</ele>
        <time>2021-08-02T09:37:25.408Z</time>
      </trkpt>
      <trkpt lat="47.03271" lon="9.00591">
        <ele>848</ele>
        <time>2021-08-02T09:37:26.408Z</time>
      </trkpt>
      <trkpt lat="47.0327" lon="9.00591">
        <ele>848</ele>
        <time>2021-08-02T09:37:27.407Z</time>
      </trkpt>
      <trkpt lat="47.03269" lon="9.0059">
        <ele>848</ele>
        <time>2021-08-02T09:37:28.407Z</time>
      </trkpt>
      <trkpt lat="47.03268" lon="9.00589">
        <ele>848</ele>
        <time>2021-08-02T09:37:29.408Z</time>
      </trkpt>
      <trkpt lat="47.03267" lon="9.00588">
        <ele>847</ele>
        <time>2021-08-02T09:37:30.408Z</time>
      </trkpt>
      <trkpt lat="47.03266" lon="9.00587">
        <ele>847</ele>
        <time>2021-08-02T09:37:31.408Z</time>
      </trkpt>
      <trkpt lat="47.03266" lon="9.00586">
        <ele>848</ele>
        <time>2021-08-02T09:37:32.408Z</time>
      </trkpt>
      <trkpt lat="47.03265" lon="9.00585">
        <ele>848</ele>
        <time>2021-08-02T09:37:33.407Z</time>
      </trkpt>
      <trkpt lat="47.03264" lon="9.00584">
        <ele>848</ele>
        <time>2021-08-02T09:37:34.408Z</time>
      </trkpt>
      <trkpt lat="47.03263" lon="9.00583">
        <ele>848</ele>
        <time>2021-08-02T09:37:35.408Z</time>
      </trkpt>
      <trkpt lat="47.03262" lon="9.00582">
        <ele>848</ele>
        <time>2021-08-02T09:37:36.407Z</time>
      </trkpt>
      <trkpt lat="47.03261" lon="9.00581">
        <ele>848</ele>
        <time>2021-08-02T09:37:37.408Z</time>
      </trkpt>
      <trkpt lat="47.03261" lon="9.0058">
        <ele>848</ele>
        <time>2021-08-02T09:37:38.408Z</time>
      </trkpt>
      <trkpt lat="47.0326" lon="9.00579">
        <ele>848</ele>
        <time>2021-08-02T09:37:39.407Z</time>
      </trkpt>
      <trkpt lat="47.03259" lon="9.00579">
        <ele>848</ele>
        <time>2021-08-02T09:37:40.408Z</time>
      </trkpt>
      <trkpt lat="47.03258" lon="9.00578">
        <ele>848</ele>
        <time>2021-08-02T09:37:41.407Z</time>
      </trkpt>
      <trkpt lat="47.03257" lon="9.00577">
        <ele>848</ele>
        <time>2021-08-02T09:37:42.407Z</time>
      </trkpt>
      <trkpt lat="47.03256" lon="9.00576">
        <ele>849</ele>
        <time>2021-08-02T09:37:43.408Z</time>
      </trkpt>
      <trkpt lat="47.03255" lon="9.00576">
        <ele>849</ele>
        <time>2021-08-02T09:37:44.408Z</time>
      </trkpt>
      <trkpt lat="47.03254" lon="9.00576">
        <ele>849</ele>
        <time>2021-08-02T09:37:45.408Z</time>
      </trkpt>
      <trkpt lat="47.03252" lon="9.00577">
        <ele>849</ele>
        <time>2021-08-02T09:37:46.407Z</time>
      </trkpt>
      <trkpt lat="47.03251" lon="9.00577">
        <ele>850</ele>
        <time>2021-08-02T09:37:47.408Z</time>
      </trkpt>
      <trkpt lat="47.0325" lon="9.00577">
        <ele>850</ele>
        <time>2021-08-02T09:37:48.408Z</time>
      </trkpt>
      <trkpt lat="47.0325" lon="9.00577">
        <ele>849</ele>
        <time>2021-08-02T09:37:49.408Z</time>
      </trkpt>
      <trkpt lat="47.0325" lon="9.00576">
        <ele>849</ele>
        <time>2021-08-02T09:37:50.408Z</time>
      </trkpt>
      <trkpt lat="47.03249" lon="9.00575">
        <ele>849</ele>
        <time>2021-08-02T09:37:51.408Z</time>
      </trkpt>
      <trkpt lat="47.03248" lon="9.00574">
        <ele>849</ele>
        <time>2021-08-02T09:37:52.408Z</time>
      </trkpt>
      <trkpt lat="47.03247" lon="9.00574">
        <ele>849</ele>
        <time>2021-08-02T09:37:53.407Z</time>
      </trkpt>
      <trkpt lat="47.03246" lon="9.00573">
        <ele>849</ele>
        <time>2021-08-02T09:37:54.407Z</time>
      </trkpt>
      <trkpt lat="47.03246" lon="9.00573">
        <ele>849</ele>
        <time>2021-08-02T09:37:55.407Z</time>
      </trkpt>
      <trkpt lat="47.03245" lon="9.00573">
        <ele>849</ele>
        <time>2021-08-02T09:37:56.408Z</time>
      </trkpt>
      <trkpt lat="47.03245" lon="9.00573">
        <ele>848</ele>
        <time>2021-08-02T09:37:57.407Z</time>
      </trkpt>
      <trkpt lat="47.03245" lon="9.00573">
        <ele>848</ele>
        <time>2021-08-02T09:37:58.408Z</time>
      </trkpt>
      <trkpt lat="47.03242" lon="9.00573">
        <ele>848</ele>
        <time>2021-08-02T09:37:59.408Z</time>
      </trkpt>
      <trkpt lat="47.03241" lon="9.00572">
        <ele>848</ele>
        <time>2021-08-02T09:38:00.408Z</time>
      </trkpt>
      <trkpt lat="47.0324" lon="9.00571">
        <ele>848</ele>
        <time>2021-08-02T09:38:01.407Z</time>
      </trkpt>
      <trkpt lat="47.03239" lon="9.0057">
        <ele>848</ele>
        <time>2021-08-02T09:38:02.408Z</time>
      </trkpt>
      <trkpt lat="47.03239" lon="9.00568">
        <ele>847</ele>
        <time>2021-08-02T09:38:03.408Z</time>
      </trkpt>
      <trkpt lat="47.03238" lon="9.00568">
        <ele>847</ele>
        <time>2021-08-02T09:38:04.408Z</time>
      </trkpt>
      <trkpt lat="47.03237" lon="9.00568">
        <ele>848</ele>
        <time>2021-08-02T09:38:05.407Z</time>
      </trkpt>
      <trkpt lat="47.03236" lon="9.00567">
        <ele>848</ele>
        <time>2021-08-02T09:38:06.408Z</time>
      </trkpt>
      <trkpt lat="47.03235" lon="9.00566">
        <ele>849</ele>
        <time>2021-08-02T09:38:07.407Z</time>
      </trkpt>
      <trkpt lat="47.03234" lon="9.00566">
        <ele>849</ele>
        <time>2021-08-02T09:38:08.407Z</time>
      </trkpt>
      <trkpt lat="47.03233" lon="9.00565">
        <ele>850</ele>
        <time>2021-08-02T09:38:09.408Z</time>
      </trkpt>
      <trkpt lat="47.03232" lon="9.00563">
        <ele>850</ele>
        <time>2021-08-02T09:38:10.408Z</time>
      </trkpt>
      <trkpt lat="47.03231" lon="9.00562">
        <ele>851</ele>
        <time>2021-08-02T09:38:11.408Z</time>
      </trkpt>
      <trkpt lat="47.0323" lon="9.0056">
        <ele>851</ele>
        <time>2021-08-02T09:38:12.407Z</time>
      </trkpt>
      <trkpt lat="47.03228" lon="9.00559">
        <ele>851</ele>
        <time>2021-08-02T09:38:13.408Z</time>
      </trkpt>
      <trkpt lat="47.03227" lon="9.00558">
        <ele>852</ele>
        <time>2021-08-02T09:38:14.408Z</time>
      </trkpt>
      <trkpt lat="47.03226" lon="9.00556">
        <ele>852</ele>
        <time>2021-08-02T09:38:15.408Z</time>
      </trkpt>
      <trkpt lat="47.03225" lon="9.00555">
        <ele>852</ele>
        <time>2021-08-02T09:38:16.408Z</time>
      </trkpt>
      <trkpt lat="47.03224" lon="9.00554">
        <ele>852</ele>
        <time>2021-08-02T09:38:17.408Z</time>
      </trkpt>
      <trkpt lat="47.03223" lon="9.00552">
        <ele>852</ele>
        <time>2021-08-02T09:38:18.408Z</time>
      </trkpt>
      <trkpt lat="47.03223" lon="9.00551">
        <ele>852</ele>
        <time>2021-08-02T09:38:19.407Z</time>
      </trkpt>
      <trkpt lat="47.03222" lon="9.00549">
        <ele>852</ele>
        <time>2021-08-02T09:38:20.408Z</time>
      </trkpt>
      <trkpt lat="47.03221" lon="9.00548">
        <ele>852</ele>
        <time>2021-08-02T09:38:21.408Z</time>
      </trkpt>
      <trkpt lat="47.0322" lon="9.00547">
        <ele>852</ele>
        <time>2021-08-02T09:38:22.407Z</time>
      </trkpt>
      <trkpt lat="47.03219" lon="9.00546">
        <ele>852</ele>
        <time>2021-08-02T09:38:23.407Z</time>
      </trkpt>
      <trkpt lat="47.03217" lon="9.00545">
        <ele>852</ele>
        <time>2021-08-02T09:38:24.407Z</time>
      </trkpt>
      <trkpt lat="47.03216" lon="9.00544">
        <ele>851</ele>
        <time>2021-08-02T09:38:25.407Z</time>
      </trkpt>
      <trkpt lat="47.03216" lon="9.00543">
        <ele>851</ele>
        <time>2021-08-02T09:38:26.407Z</time>
      </trkpt>
      <trkpt lat="47.03216" lon="9.00541">
        <ele>851</ele>
        <time>2021-08-02T09:38:27.408Z</time>
      </trkpt>
      <trkpt lat="47.03215" lon="9.0054">
        <ele>851</ele>
        <time>2021-08-02T09:38:28.408Z</time>
      </trkpt>
      <trkpt lat="47.03214" lon="9.00539">
        <ele>851</ele>
        <time>2021-08-02T09:38:29.408Z</time>
      </trkpt>
      <trkpt lat="47.03214" lon="9.00539">
        <ele>851</ele>
        <time>2021-08-02T09:38:30.408Z</time>
      </trkpt>
      <trkpt lat="47.03213" lon="9.00538">
        <ele>851</ele>
        <time>2021-08-02T09:38:31.407Z</time>
      </trkpt>
      <trkpt lat="47.03212" lon="9.00537">
        <ele>851</ele>
        <time>2021-08-02T09:38:32.407Z</time>
      </trkpt>
      <trkpt lat="47.03212" lon="9.00536">
        <ele>850</ele>
        <time>2021-08-02T09:38:33.407Z</time>
      </trkpt>
      <trkpt lat="47.03211" lon="9.00535">
        <ele>850</ele>
        <time>2021-08-02T09:38:34.407Z</time>
      </trkpt>
      <trkpt lat="47.0321" lon="9.00535">
        <ele>850</ele>
        <time>2021-08-02T09:38:35.407Z</time>
      </trkpt>
      <trkpt lat="47.03209" lon="9.00534">
        <ele>850</ele>
        <time>2021-08-02T09:38:36.408Z</time>
      </trkpt>
      <trkpt lat="47.03208" lon="9.00533">
        <ele>850</ele>
        <time>2021-08-02T09:38:37.407Z</time>
      </trkpt>
      <trkpt lat="47.03208" lon="9.00532">
        <ele>850</ele>
        <time>2021-08-02T09:38:38.407Z</time>
      </trkpt>
      <trkpt lat="47.03207" lon="9.0053">
        <ele>850</ele>
        <time>2021-08-02T09:38:39.407Z</time>
      </trkpt>
      <trkpt lat="47.03206" lon="9.00529">
        <ele>850</ele>
        <time>2021-08-02T09:38:40.408Z</time>
      </trkpt>
      <trkpt lat="47.03205" lon="9.00528">
        <ele>850</ele>
        <time>2021-08-02T09:38:41.408Z</time>
      </trkpt>
      <trkpt lat="47.03205" lon="9.00527">
        <ele>850</ele>
        <time>2021-08-02T09:38:42.407Z</time>
      </trkpt>
      <trkpt lat="47.03204" lon="9.00526">
        <ele>850</ele>
        <time>2021-08-02T09:38:43.408Z</time>
      </trkpt>
      <trkpt lat="47.03204" lon="9.00525">
        <ele>851</ele>
        <time>2021-08-02T09:38:44.408Z</time>
      </trkpt>
      <trkpt lat="47.03203" lon="9.00524">
        <ele>851</ele>
        <time>2021-08-02T09:38:45.407Z</time>
      </trkpt>
      <trkpt lat="47.03203" lon="9.00523">
        <ele>852</ele>
        <time>2021-08-02T09:38:46.408Z</time>
      </trkpt>
      <trkpt lat="47.03202" lon="9.00522">
        <ele>852</ele>
        <time>2021-08-02T09:38:47.408Z</time>
      </trkpt>
      <trkpt lat="47.03202" lon="9.00521">
        <ele>852</ele>
        <time>2021-08-02T09:38:48.407Z</time>
      </trkpt>
      <trkpt lat="47.03202" lon="9.00519">
        <ele>853</ele>
        <time>2021-08-02T09:38:49.407Z</time>
      </trkpt>
      <trkpt lat="47.03201" lon="9.00517">
        <ele>853</ele>
        <time>2021-08-02T09:38:50.407Z</time>
      </trkpt>
      <trkpt lat="47.032" lon="9.00516">
        <ele>853</ele>
        <time>2021-08-02T09:38:51.408Z</time>
      </trkpt>
      <trkpt lat="47.03199" lon="9.00516">
        <ele>853</ele>
        <time>2021-08-02T09:38:52.407Z</time>
      </trkpt>
      <trkpt lat="47.03199" lon="9.00515">
        <ele>854</ele>
        <time>2021-08-02T09:38:53.407Z</time>
      </trkpt>
      <trkpt lat="47.03198" lon="9.00513">
        <ele>854</ele>
        <time>2021-08-02T09:38:54.408Z</time>
      </trkpt>
      <trkpt lat="47.03198" lon="9.00512">
        <ele>854</ele>
        <time>2021-08-02T09:38:55.408Z</time>
      </trkpt>
      <trkpt lat="47.03197" lon="9.0051">
        <ele>854</ele>
        <time>2021-08-02T09:38:56.407Z</time>
      </trkpt>
      <trkpt lat="47.03197" lon="9.00508">
        <ele>853</ele>
        <time>2021-08-02T09:38:57.407Z</time>
      </trkpt>
      <trkpt lat="47.03196" lon="9.00506">
        <ele>853</ele>
        <time>2021-08-02T09:38:58.407Z</time>
      </trkpt>
      <trkpt lat="47.03196" lon="9.00504">
        <ele>853</ele>
        <time>2021-08-02T09:38:59.407Z</time>
      </trkpt>
      <trkpt lat="47.03196" lon="9.00503">
        <ele>852</ele>
        <time>2021-08-02T09:39:00.407Z</time>
      </trkpt>
      <trkpt lat="47.03196" lon="9.00502">
        <ele>852</ele>
        <time>2021-08-02T09:39:01.407Z</time>
      </trkpt>
      <trkpt lat="47.03196" lon="9.005">
        <ele>852</ele>
        <time>2021-08-02T09:39:02.407Z</time>
      </trkpt>
      <trkpt lat="47.03197" lon="9.00499">
        <ele>852</ele>
        <time>2021-08-02T09:39:03.407Z</time>
      </trkpt>
      <trkpt lat="47.03196" lon="9.00497">
        <ele>852</ele>
        <time>2021-08-02T09:39:04.407Z</time>
      </trkpt>
      <trkpt lat="47.03195" lon="9.00496">
        <ele>851</ele>
        <time>2021-08-02T09:39:05.408Z</time>
      </trkpt>
      <trkpt lat="47.03194" lon="9.00495">
        <ele>851</ele>
        <time>2021-08-02T09:39:06.408Z</time>
      </trkpt>
      <trkpt lat="47.03192" lon="9.00494">
        <ele>852</ele>
        <time>2021-08-02T09:39:07.407Z</time>
      </trkpt>
      <trkpt lat="47.03191" lon="9.00493">
        <ele>852</ele>
        <time>2021-08-02T09:39:08.407Z</time>
      </trkpt>
      <trkpt lat="47.0319" lon="9.00493">
        <ele>852</ele>
        <time>2021-08-02T09:39:09.407Z</time>
      </trkpt>
      <trkpt lat="47.03189" lon="9.00492">
        <ele>852</ele>
        <time>2021-08-02T09:39:10.407Z</time>
      </trkpt>
      <trkpt lat="47.03188" lon="9.00491">
        <ele>852</ele>
        <time>2021-08-02T09:39:11.408Z</time>
      </trkpt>
      <trkpt lat="47.03187" lon="9.00491">
        <ele>852</ele>
        <time>2021-08-02T09:39:12.407Z</time>
      </trkpt>
      <trkpt lat="47.03186" lon="9.0049">
        <ele>853</ele>
        <time>2021-08-02T09:39:13.407Z</time>
      </trkpt>
      <trkpt lat="47.03186" lon="9.0049">
        <ele>853</ele>
        <time>2021-08-02T09:39:14.407Z</time>
      </trkpt>
      <trkpt lat="47.03185" lon="9.0049">
        <ele>854</ele>
        <time>2021-08-02T09:39:15.408Z</time>
      </trkpt>
      <trkpt lat="47.03184" lon="9.00489">
        <ele>854</ele>
        <time>2021-08-02T09:39:16.408Z</time>
      </trkpt>
      <trkpt lat="47.03183" lon="9.00489">
        <ele>854</ele>
        <time>2021-08-02T09:39:17.407Z</time>
      </trkpt>
      <trkpt lat="47.03182" lon="9.00488">
        <ele>855</ele>
        <time>2021-08-02T09:39:18.407Z</time>
      </trkpt>
      <trkpt lat="47.03182" lon="9.00487">
        <ele>855</ele>
        <time>2021-08-02T09:39:19.407Z</time>
      </trkpt>
      <trkpt lat="47.03181" lon="9.00486">
        <ele>855</ele>
        <time>2021-08-02T09:39:20.407Z</time>
      </trkpt>
      <trkpt lat="47.03182" lon="9.00485">
        <ele>856</ele>
        <time>2021-08-02T09:39:21.407Z</time>
      </trkpt>
      <trkpt lat="47.03182" lon="9.00484">
        <ele>856</ele>
        <time>2021-08-02T09:39:22.407Z</time>
      </trkpt>
      <trkpt lat="47.03182" lon="9.00482">
        <ele>856</ele>
        <time>2021-08-02T09:39:23.407Z</time>
      </trkpt>
      <trkpt lat="47.03181" lon="9.00481">
        <ele>856</ele>
        <time>2021-08-02T09:39:24.407Z</time>
      </trkpt>
      <trkpt lat="47.0318" lon="9.00481">
        <ele>856</ele>
        <time>2021-08-02T09:39:25.407Z</time>
      </trkpt>
      <trkpt lat="47.03178" lon="9.00481">
        <ele>856</ele>
        <time>2021-08-02T09:39:26.407Z</time>
      </trkpt>
      <trkpt lat="47.03177" lon="9.0048">
        <ele>856</ele>
        <time>2021-08-02T09:39:27.407Z</time>
      </trkpt>
      <trkpt lat="47.03177" lon="9.0048">
        <ele>856</ele>
        <time>2021-08-02T09:39:28.407Z</time>
      </trkpt>
      <trkpt lat="47.03176" lon="9.0048">
        <ele>857</ele>
        <time>2021-08-02T09:39:29.407Z</time>
      </trkpt>
      <trkpt lat="47.03176" lon="9.00479">
        <ele>857</ele>
        <time>2021-08-02T09:39:30.407Z</time>
      </trkpt>
      <trkpt lat="47.03176" lon="9.00479">
        <ele>857</ele>
        <time>2021-08-02T09:39:31.407Z</time>
      </trkpt>
      <trkpt lat="47.03175" lon="9.00478">
        <ele>857</ele>
        <time>2021-08-02T09:39:32.407Z</time>
      </trkpt>
      <trkpt lat="47.03175" lon="9.00478">
        <ele>857</ele>
        <time>2021-08-02T09:39:33.408Z</time>
      </trkpt>
      <trkpt lat="47.03174" lon="9.00477">
        <ele>857</ele>
        <time>2021-08-02T09:39:34.408Z</time>
      </trkpt>
      <trkpt lat="47.03174" lon="9.00477">
        <ele>857</ele>
        <time>2021-08-02T09:39:35.408Z</time>
      </trkpt>
      <trkpt lat="47.03173" lon="9.00477">
        <ele>857</ele>
        <time>2021-08-02T09:39:36.408Z</time>
      </trkpt>
      <trkpt lat="47.03173" lon="9.00478">
        <ele>857</ele>
        <time>2021-08-02T09:39:37.408Z</time>
      </trkpt>
      <trkpt lat="47.03172" lon="9.00479">
        <ele>857</ele>
        <time>2021-08-02T09:39:38.408Z</time>
      </trkpt>
      <trkpt lat="47.03171" lon="9.00479">
        <ele>857</ele>
        <time>2021-08-02T09:39:39.408Z</time>
      </trkpt>
      <trkpt lat="47.0317" lon="9.0048">
        <ele>857</ele>
        <time>2021-08-02T09:39:40.408Z</time>
      </trkpt>
      <trkpt lat="47.03169" lon="9.00479">
        <ele>857</ele>
        <time>2021-08-02T09:39:41.408Z</time>
      </trkpt>
      <trkpt lat="47.03169" lon="9.00479">
        <ele>858</ele>
        <time>2021-08-02T09:39:42.408Z</time>
      </trkpt>
      <trkpt lat="47.03168" lon="9.00479">
        <ele>858</ele>
        <time>2021-08-02T09:39:43.408Z</time>
      </trkpt>
      <trkpt lat="47.03167" lon="9.00478">
        <ele>858</ele>
        <time>2021-08-02T09:39:44.408Z</time>
      </trkpt>
      <trkpt lat="47.03165" lon="9.00478">
        <ele>859</ele>
        <time>2021-08-02T09:39:45.407Z</time>
      </trkpt>
      <trkpt lat="47.03164" lon="9.00477">
        <ele>859</ele>
        <time>2021-08-02T09:39:46.408Z</time>
      </trkpt>
      <trkpt lat="47.03162" lon="9.00476">
        <ele>859</ele>
        <time>2021-08-02T09:39:47.408Z</time>
      </trkpt>
      <trkpt lat="47.03161" lon="9.00476">
        <ele>860</ele>
        <time>2021-08-02T09:39:48.408Z</time>
      </trkpt>
      <trkpt lat="47.0316" lon="9.00475">
        <ele>860</ele>
        <time>2021-08-02T09:39:49.408Z</time>
      </trkpt>
      <trkpt lat="47.03159" lon="9.00474">
        <ele>861</ele>
        <time>2021-08-02T09:39:50.408Z</time>
      </trkpt>
      <trkpt lat="47.03157" lon="9.00474">
        <ele>861</ele>
        <time>2021-08-02T09:39:51.408Z</time>
      </trkpt>
      <trkpt lat="47.03156" lon="9.00474">
        <ele>861</ele>
        <time>2021-08-02T09:39:52.408Z</time>
      </trkpt>
      <trkpt lat="47.03154" lon="9.00475">
        <ele>861</ele>
        <time>2021-08-02T09:39:53.408Z</time>
      </trkpt>
      <trkpt lat="47.03152" lon="9.00476">
        <ele>861</ele>
        <time>2021-08-02T09:39:54.407Z</time>
      </trkpt>
      <trkpt lat="47.03151" lon="9.00476">
        <ele>861</ele>
        <time>2021-08-02T09:39:55.408Z</time>
      </trkpt>
      <trkpt lat="47.03151" lon="9.00477">
        <ele>861</ele>
        <time>2021-08-02T09:39:56.407Z</time>
      </trkpt>
      <trkpt lat="47.0315" lon="9.00476">
        <ele>862</ele>
        <time>2021-08-02T09:39:57.408Z</time>
      </trkpt>
      <trkpt lat="47.03149" lon="9.00475">
        <ele>862</ele>
        <time>2021-08-02T09:39:58.407Z</time>
      </trkpt>
      <trkpt lat="47.03148" lon="9.00474">
        <ele>862</ele>
        <time>2021-08-02T09:39:59.408Z</time>
      </trkpt>
      <trkpt lat="47.03148" lon="9.00474">
        <ele>862</ele>
        <time>2021-08-02T09:40:00.408Z</time>
      </trkpt>
      <trkpt lat="47.03147" lon="9.00473">
        <ele>863</ele>
        <time>2021-08-02T09:40:01.407Z</time>
      </trkpt>
      <trkpt lat="47.03146" lon="9.00473">
        <ele>863</ele>
        <time>2021-08-02T09:40:02.408Z</time>
      </trkpt>
      <trkpt lat="47.03146" lon="9.00474">
        <ele>863</ele>
        <time>2021-08-02T09:40:03.407Z</time>
      </trkpt>
      <trkpt lat="47.03146" lon="9.00473">
        <ele>863</ele>
        <time>2021-08-02T09:40:04.408Z</time>
      </trkpt>
      <trkpt lat="47.03146" lon="9.00473">
        <ele>864</ele>
        <time>2021-08-02T09:40:05.408Z</time>
      </trkpt>
      <trkpt lat="47.03146" lon="9.00472">
        <ele>864</ele>
        <time>2021-08-02T09:40:06.408Z</time>
      </trkpt>
      <trkpt lat="47.03146" lon="9.00471">
        <ele>864</ele>
        <time>2021-08-02T09:40:07.408Z</time>
      </trkpt>
      <trkpt lat="47.03146" lon="9.00469">
        <ele>864</ele>
        <time>2021-08-02T09:40:08.408Z</time>
      </trkpt>
      <trkpt lat="47.03146" lon="9.00468">
        <ele>864</ele>
        <time>2021-08-02T09:40:09.408Z</time>
      </trkpt>
      <trkpt lat="47.03145" lon="9.00466">
        <ele>864</ele>
        <time>2021-08-02T09:40:10.408Z</time>
      </trkpt>
      <trkpt lat="47.03145" lon="9.00465">
        <ele>863</ele>
        <time>2021-08-02T09:40:11.407Z</time>
      </trkpt>
      <trkpt lat="47.03144" lon="9.00465">
        <ele>863</ele>
        <time>2021-08-02T09:40:12.407Z</time>
      </trkpt>
      <trkpt lat="47.03144" lon="9.00464">
        <ele>862</ele>
        <time>2021-08-02T09:40:13.407Z</time>
      </trkpt>
      <trkpt lat="47.03143" lon="9.00463">
        <ele>862</ele>
        <time>2021-08-02T09:40:14.407Z</time>
      </trkpt>
      <trkpt lat="47.03143" lon="9.00462">
        <ele>862</ele>
        <time>2021-08-02T09:40:15.407Z</time>
      </trkpt>
      <trkpt lat="47.03142" lon="9.00461">
        <ele>862</ele>
        <time>2021-08-02T09:40:16.407Z</time>
      </trkpt>
      <trkpt lat="47.03142" lon="9.0046">
        <ele>862</ele>
        <time>2021-08-02T09:40:17.407Z</time>
      </trkpt>
      <trkpt lat="47.03141" lon="9.00458">
        <ele>861</ele>
        <time>2021-08-02T09:40:18.407Z</time>
      </trkpt>
      <trkpt lat="47.0314" lon="9.00456">
        <ele>861</ele>
        <time>2021-08-02T09:40:19.407Z</time>
      </trkpt>
      <trkpt lat="47.0314" lon="9.00454">
        <ele>860</ele>
        <time>2021-08-02T09:40:20.407Z</time>
      </trkpt>
      <trkpt lat="47.0314" lon="9.00453">
        <ele>860</ele>
        <time>2021-08-02T09:40:21.407Z</time>
      </trkpt>
      <trkpt lat="47.03139" lon="9.00452">
        <ele>860</ele>
        <time>2021-08-02T09:40:22.407Z</time>
      </trkpt>
      <trkpt lat="47.03138" lon="9.00451">
        <ele>859</ele>
        <time>2021-08-02T09:40:23.407Z</time>
      </trkpt>
      <trkpt lat="47.03137" lon="9.00451">
        <ele>859</ele>
        <time>2021-08-02T09:40:24.407Z</time>
      </trkpt>
      <trkpt lat="47.03135" lon="9.0045">
        <ele>859</ele>
        <time>2021-08-02T09:40:25.407Z</time>
      </trkpt>
      <trkpt lat="47.03135" lon="9.00449">
        <ele>858</ele>
        <time>2021-08-02T09:40:26.407Z</time>
      </trkpt>
      <trkpt lat="47.03134" lon="9.00448">
        <ele>858</ele>
        <time>2021-08-02T09:40:27.408Z</time>
      </trkpt>
      <trkpt lat="47.03134" lon="9.00447">
        <ele>858</ele>
        <time>2021-08-02T09:40:28.407Z</time>
      </trkpt>
      <trkpt lat="47.03134" lon="9.00446">
        <ele>858</ele>
        <time>2021-08-02T09:40:29.408Z</time>
      </trkpt>
      <trkpt lat="47.03133" lon="9.00445">
        <ele>858</ele>
        <time>2021-08-02T09:40:30.407Z</time>
      </trkpt>
      <trkpt lat="47.03133" lon="9.00444">
        <ele>858</ele>
        <time>2021-08-02T09:40:31.408Z</time>
      </trkpt>
      <trkpt lat="47.03133" lon="9.00443">
        <ele>857</ele>
        <time>2021-08-02T09:40:32.408Z</time>
      </trkpt>
      <trkpt lat="47.03133" lon="9.00441">
        <ele>857</ele>
        <time>2021-08-02T09:40:33.407Z</time>
      </trkpt>
      <trkpt lat="47.03133" lon="9.0044">
        <ele>857</ele>
        <time>2021-08-02T09:40:34.407Z</time>
      </trkpt>
      <trkpt lat="47.03133" lon="9.00438">
        <ele>858</ele>
        <time>2021-08-02T09:40:35.407Z</time>
      </trkpt>
      <trkpt lat="47.03133" lon="9.00437">
        <ele>858</ele>
        <time>2021-08-02T09:40:36.407Z</time>
      </trkpt>
      <trkpt lat="47.03132" lon="9.00436">
        <ele>858</ele>
        <time>2021-08-02T09:40:37.407Z</time>
      </trkpt>
      <trkpt lat="47.03132" lon="9.00435">
        <ele>858</ele>
        <time>2021-08-02T09:40:38.408Z</time>
      </trkpt>
      <trkpt lat="47.03131" lon="9.00433">
        <ele>859</ele>
        <time>2021-08-02T09:40:39.408Z</time>
      </trkpt>
      <trkpt lat="47.0313" lon="9.00431">
        <ele>859</ele>
        <time>2021-08-02T09:40:40.408Z</time>
      </trkpt>
      <trkpt lat="47.0313" lon="9.00427">
        <ele>859</ele>
        <time>2021-08-02T09:40:41.407Z</time>
      </trkpt>
      <trkpt lat="47.03131" lon="9.00424">
        <ele>859</ele>
        <time>2021-08-02T09:40:42.407Z</time>
      </trkpt>
      <trkpt lat="47.03131" lon="9.00422">
        <ele>859</ele>
        <time>2021-08-02T09:40:43.408Z</time>
      </trkpt>
      <trkpt lat="47.0313" lon="9.0042">
        <ele>860</ele>
        <time>2021-08-02T09:40:44.407Z</time>
      </trkpt>
      <trkpt lat="47.03129" lon="9.00418">
        <ele>860</ele>
        <time>2021-08-02T09:40:45.408Z</time>
      </trkpt>
      <trkpt lat="47.03128" lon="9.00416">
        <ele>860</ele>
        <time>2021-08-02T09:40:46.408Z</time>
      </trkpt>
      <trkpt lat="47.03127" lon="9.00414">
        <ele>860</ele>
        <time>2021-08-02T09:40:47.407Z</time>
      </trkpt>
      <trkpt lat="47.03126" lon="9.00413">
        <ele>859</ele>
        <time>2021-08-02T09:40:48.408Z</time>
      </trkpt>
      <trkpt lat="47.03126" lon="9.00411">
        <ele>859</ele>
        <time>2021-08-02T09:40:49.407Z</time>
      </trkpt>
      <trkpt lat="47.03125" lon="9.0041">
        <ele>859</ele>
        <time>2021-08-02T09:40:50.407Z</time>
      </trkpt>
      <trkpt lat="47.03125" lon="9.00409">
        <ele>859</ele>
        <time>2021-08-02T09:40:51.407Z</time>
      </trkpt>
      <trkpt lat="47.03124" lon="9.0041">
        <ele>858</ele>
        <time>2021-08-02T09:40:52.407Z</time>
      </trkpt>
      <trkpt lat="47.03124" lon="9.00411">
        <ele>858</ele>
        <time>2021-08-02T09:40:53.407Z</time>
      </trkpt>
      <trkpt lat="47.03124" lon="9.00413">
        <ele>857</ele>
        <time>2021-08-02T09:40:54.409Z</time>
      </trkpt>
      <trkpt lat="47.03125" lon="9.00413">
        <ele>857</ele>
        <time>2021-08-02T09:40:55.409Z</time>
      </trkpt>
      <trkpt lat="47.03125" lon="9.00412">
        <ele>857</ele>
        <time>2021-08-02T09:40:56.408Z</time>
      </trkpt>
      <trkpt lat="47.03125" lon="9.00412">
        <ele>857</ele>
        <time>2021-08-02T09:40:57.409Z</time>
      </trkpt>
      <trkpt lat="47.03125" lon="9.00411">
        <ele>854</ele>
        <time>2021-08-02T09:40:58.409Z</time>
      </trkpt>
      <trkpt lat="47.03125" lon="9.00412">
        <ele>854</ele>
        <time>2021-08-02T09:40:59.409Z</time>
      </trkpt>
      <trkpt lat="47.03125" lon="9.00412">
        <ele>853</ele>
        <time>2021-08-02T09:41:00.408Z</time>
      </trkpt>
      <trkpt lat="47.03122" lon="9.00412">
        <ele>850</ele>
        <time>2021-08-02T09:41:01.410Z</time>
      </trkpt>
      <trkpt lat="47.03121" lon="9.00411">
        <ele>849</ele>
        <time>2021-08-02T09:41:02.409Z</time>
      </trkpt>
      <trkpt lat="47.0312" lon="9.00411">
        <ele>849</ele>
        <time>2021-08-02T09:41:03.409Z</time>
      </trkpt>
      <trkpt lat="47.03119" lon="9.0041">
        <ele>848</ele>
        <time>2021-08-02T09:41:04.410Z</time>
      </trkpt>
      <trkpt lat="47.03118" lon="9.00409">
        <ele>847</ele>
        <time>2021-08-02T09:41:05.409Z</time>
      </trkpt>
      <trkpt lat="47.03117" lon="9.00408">
        <ele>847</ele>
        <time>2021-08-02T09:41:06.410Z</time>
      </trkpt>
      <trkpt lat="47.03116" lon="9.00407">
        <ele>846</ele>
        <time>2021-08-02T09:41:07.410Z</time>
      </trkpt>
      <trkpt lat="47.03116" lon="9.00406">
        <ele>846</ele>
        <time>2021-08-02T09:41:08.410Z</time>
      </trkpt>
      <trkpt lat="47.03115" lon="9.00405">
        <ele>845</ele>
        <time>2021-08-02T09:41:09.410Z</time>
      </trkpt>
      <trkpt lat="47.03115" lon="9.00404">
        <ele>845</ele>
        <time>2021-08-02T09:41:10.410Z</time>
      </trkpt>
      <trkpt lat="47.03115" lon="9.00403">
        <ele>844</ele>
        <time>2021-08-02T09:41:11.410Z</time>
      </trkpt>
      <trkpt lat="47.03115" lon="9.00402">
        <ele>844</ele>
        <time>2021-08-02T09:41:12.409Z</time>
      </trkpt>
      <trkpt lat="47.03116" lon="9.00401">
        <ele>844</ele>
        <time>2021-08-02T09:41:13.410Z</time>
      </trkpt>
      <trkpt lat="47.03116" lon="9.004">
        <ele>844</ele>
        <time>2021-08-02T09:41:14.410Z</time>
      </trkpt>
      <trkpt lat="47.03116" lon="9.00398">
        <ele>844</ele>
        <time>2021-08-02T09:41:15.409Z</time>
      </trkpt>
      <trkpt lat="47.03115" lon="9.00397">
        <ele>844</ele>
        <time>2021-08-02T09:41:16.410Z</time>
      </trkpt>
      <trkpt lat="47.03115" lon="9.00395">
        <ele>844</ele>
        <time>2021-08-02T09:41:17.410Z</time>
      </trkpt>
      <trkpt lat="47.03115" lon="9.00394">
        <ele>844</ele>
        <time>2021-08-02T09:41:18.409Z</time>
      </trkpt>
      <trkpt lat="47.03115" lon="9.00393">
        <ele>845</ele>
        <time>2021-08-02T09:41:19.409Z</time>
      </trkpt>
      <trkpt lat="47.03115" lon="9.00391">
        <ele>845</ele>
        <time>2021-08-02T09:41:20.410Z</time>
      </trkpt>
      <trkpt lat="47.03115" lon="9.00389">
        <ele>846</ele>
        <time>2021-08-02T09:41:21.409Z</time>
      </trkpt>
      <trkpt lat="47.03115" lon="9.00387">
        <ele>846</ele>
        <time>2021-08-02T09:41:22.410Z</time>
      </trkpt>
      <trkpt lat="47.03115" lon="9.00385">
        <ele>847</ele>
        <time>2021-08-02T09:41:23.410Z</time>
      </trkpt>
      <trkpt lat="47.03115" lon="9.00383">
        <ele>847</ele>
        <time>2021-08-02T09:41:24.410Z</time>
      </trkpt>
      <trkpt lat="47.03114" lon="9.00381">
        <ele>848</ele>
        <time>2021-08-02T09:41:25.410Z</time>
      </trkpt>
      <trkpt lat="47.03114" lon="9.00379">
        <ele>848</ele>
        <time>2021-08-02T09:41:26.409Z</time>
      </trkpt>
      <trkpt lat="47.03114" lon="9.00377">
        <ele>849</ele>
        <time>2021-08-02T09:41:27.410Z</time>
      </trkpt>
      <trkpt lat="47.03114" lon="9.00376">
        <ele>849</ele>
        <time>2021-08-02T09:41:28.409Z</time>
      </trkpt>
      <trkpt lat="47.03114" lon="9.00373">
        <ele>849</ele>
        <time>2021-08-02T09:41:29.410Z</time>
      </trkpt>
      <trkpt lat="47.03115" lon="9.00371">
        <ele>849</ele>
        <time>2021-08-02T09:41:30.409Z</time>
      </trkpt>
      <trkpt lat="47.03115" lon="9.00369">
        <ele>849</ele>
        <time>2021-08-02T09:41:31.409Z</time>
      </trkpt>
      <trkpt lat="47.03115" lon="9.00366">
        <ele>849</ele>
        <time>2021-08-02T09:41:32.409Z</time>
      </trkpt>
      <trkpt lat="47.03115" lon="9.00364">
        <ele>850</ele>
        <time>2021-08-02T09:41:33.409Z</time>
      </trkpt>
      <trkpt lat="47.03115" lon="9.00361">
        <ele>850</ele>
        <time>2021-08-02T09:41:34.410Z</time>
      </trkpt>
      <trkpt lat="47.03114" lon="9.00359">
        <ele>850</ele>
        <time>2021-08-02T09:41:35.409Z</time>
      </trkpt>
      <trkpt lat="47.03113" lon="9.00357">
        <ele>850</ele>
        <time>2021-08-02T09:41:36.410Z</time>
      </trkpt>
      <trkpt lat="47.03113" lon="9.00355">
        <ele>850</ele>
        <time>2021-08-02T09:41:37.410Z</time>
      </trkpt>
      <trkpt lat="47.03113" lon="9.00352">
        <ele>850</ele>
        <time>2021-08-02T09:41:38.410Z</time>
      </trkpt>
      <trkpt lat="47.03113" lon="9.00351">
        <ele>850</ele>
        <time>2021-08-02T09:41:39.410Z</time>
      </trkpt>
      <trkpt lat="47.03113" lon="9.00349">
        <ele>850</ele>
        <time>2021-08-02T09:41:40.409Z</time>
      </trkpt>
      <trkpt lat="47.03112" lon="9.00347">
        <ele>850</ele>
        <time>2021-08-02T09:41:41.409Z</time>
      </trkpt>
      <trkpt lat="47.03112" lon="9.00345">
        <ele>850</ele>
        <time>2021-08-02T09:41:42.410Z</time>
      </trkpt>
      <trkpt lat="47.03112" lon="9.00343">
        <ele>851</ele>
        <time>2021-08-02T09:41:43.410Z</time>
      </trkpt>
      <trkpt lat="47.03112" lon="9.00341">
        <ele>851</ele>
        <time>2021-08-02T09:41:44.409Z</time>
      </trkpt>
      <trkpt lat="47.03113" lon="9.0034">
        <ele>850</ele>
        <time>2021-08-02T09:41:45.410Z</time>
      </trkpt>
      <trkpt lat="47.03113" lon="9.00337">
        <ele>850</ele>
        <time>2021-08-02T09:41:46.409Z</time>
      </trkpt>
      <trkpt lat="47.03113" lon="9.00336">
        <ele>850</ele>
        <time>2021-08-02T09:41:47.410Z</time>
      </trkpt>
      <trkpt lat="47.03113" lon="9.00334">
        <ele>850</ele>
        <time>2021-08-02T09:41:48.410Z</time>
      </trkpt>
      <trkpt lat="47.03112" lon="9.00333">
        <ele>850</ele>
        <time>2021-08-02T09:41:49.409Z</time>
      </trkpt>
      <trkpt lat="47.03112" lon="9.00331">
        <ele>850</ele>
        <time>2021-08-02T09:41:50.409Z</time>
      </trkpt>
      <trkpt lat="47.03112" lon="9.00329">
        <ele>850</ele>
        <time>2021-08-02T09:41:51.409Z</time>
      </trkpt>
      <trkpt lat="47.03112" lon="9.00328">
        <ele>850</ele>
        <time>2021-08-02T09:41:52.410Z</time>
      </trkpt>
      <trkpt lat="47.03112" lon="9.00326">
        <ele>850</ele>
        <time>2021-08-02T09:41:53.409Z</time>
      </trkpt>
      <trkpt lat="47.03112" lon="9.00325">
        <ele>850</ele>
        <time>2021-08-02T09:41:54.409Z</time>
      </trkpt>
      <trkpt lat="47.03113" lon="9.00323">
        <ele>850</ele>
        <time>2021-08-02T09:41:55.409Z</time>
      </trkpt>
      <trkpt lat="47.03113" lon="9.00322">
        <ele>851</ele>
        <time>2021-08-02T09:41:56.409Z</time>
      </trkpt>
      <trkpt lat="47.03113" lon="9.0032">
        <ele>851</ele>
        <time>2021-08-02T09:41:57.410Z</time>
      </trkpt>
      <trkpt lat="47.03113" lon="9.00319">
        <ele>851</ele>
        <time>2021-08-02T09:41:58.409Z</time>
      </trkpt>
      <trkpt lat="47.03113" lon="9.00317">
        <ele>851</ele>
        <time>2021-08-02T09:41:59.409Z</time>
      </trkpt>
      <trkpt lat="47.03112" lon="9.00316">
        <ele>851</ele>
        <time>2021-08-02T09:42:00.409Z</time>
      </trkpt>
      <trkpt lat="47.03112" lon="9.00314">
        <ele>851</ele>
        <time>2021-08-02T09:42:01.409Z</time>
      </trkpt>
      <trkpt lat="47.03112" lon="9.00313">
        <ele>851</ele>
        <time>2021-08-02T09:42:02.410Z</time>
      </trkpt>
      <trkpt lat="47.03112" lon="9.00311">
        <ele>851</ele>
        <time>2021-08-02T09:42:03.410Z</time>
      </trkpt>
      <trkpt lat="47.03111" lon="9.0031">
        <ele>851</ele>
        <time>2021-08-02T09:42:04.409Z</time>
      </trkpt>
      <trkpt lat="47.03111" lon="9.00308">
        <ele>851</ele>
        <time>2021-08-02T09:42:05.409Z</time>
      </trkpt>
      <trkpt lat="47.03111" lon="9.00307">
        <ele>851</ele>
        <time>2021-08-02T09:42:06.409Z</time>
      </trkpt>
      <trkpt lat="47.03111" lon="9.00305">
        <ele>850</ele>
        <time>2021-08-02T09:42:07.409Z</time>
      </trkpt>
      <trkpt lat="47.0311" lon="9.00304">
        <ele>850</ele>
        <time>2021-08-02T09:42:08.410Z</time>
      </trkpt>
      <trkpt lat="47.0311" lon="9.00301">
        <ele>850</ele>
        <time>2021-08-02T09:42:09.409Z</time>
      </trkpt>
      <trkpt lat="47.0311" lon="9.003">
        <ele>850</ele>
        <time>2021-08-02T09:42:10.409Z</time>
      </trkpt>
      <trkpt lat="47.03109" lon="9.00298">
        <ele>850</ele>
        <time>2021-08-02T09:42:11.409Z</time>
      </trkpt>
      <trkpt lat="47.03109" lon="9.00296">
        <ele>850</ele>
        <time>2021-08-02T09:42:12.409Z</time>
      </trkpt>
      <trkpt lat="47.03109" lon="9.00295">
        <ele>850</ele>
        <time>2021-08-02T09:42:13.410Z</time>
      </trkpt>
      <trkpt lat="47.03108" lon="9.00293">
        <ele>850</ele>
        <time>2021-08-02T09:42:14.409Z</time>
      </trkpt>
      <trkpt lat="47.03108" lon="9.00291">
        <ele>850</ele>
        <time>2021-08-02T09:42:15.409Z</time>
      </trkpt>
      <trkpt lat="47.03107" lon="9.0029">
        <ele>850</ele>
        <time>2021-08-02T09:42:16.410Z</time>
      </trkpt>
      <trkpt lat="47.03106" lon="9.00289">
        <ele>850</ele>
        <time>2021-08-02T09:42:17.409Z</time>
      </trkpt>
      <trkpt lat="47.03105" lon="9.00288">
        <ele>851</ele>
        <time>2021-08-02T09:42:18.409Z</time>
      </trkpt>
      <trkpt lat="47.03105" lon="9.00287">
        <ele>851</ele>
        <time>2021-08-02T09:42:19.409Z</time>
      </trkpt>
      <trkpt lat="47.03105" lon="9.00285">
        <ele>851</ele>
        <time>2021-08-02T09:42:20.409Z</time>
      </trkpt>
      <trkpt lat="47.03105" lon="9.00284">
        <ele>851</ele>
        <time>2021-08-02T09:42:21.409Z</time>
      </trkpt>
      <trkpt lat="47.03104" lon="9.00284">
        <ele>851</ele>
        <time>2021-08-02T09:42:22.409Z</time>
      </trkpt>
      <trkpt lat="47.03103" lon="9.00283">
        <ele>851</ele>
        <time>2021-08-02T09:42:23.409Z</time>
      </trkpt>
      <trkpt lat="47.03103" lon="9.00283">
        <ele>851</ele>
        <time>2021-08-02T09:42:24.410Z</time>
      </trkpt>
      <trkpt lat="47.031" lon="9.00282">
        <ele>852</ele>
        <time>2021-08-02T09:42:25.410Z</time>
      </trkpt>
      <trkpt lat="47.031" lon="9.0028">
        <ele>852</ele>
        <time>2021-08-02T09:42:26.409Z</time>
      </trkpt>
      <trkpt lat="47.03101" lon="9.00279">
        <ele>852</ele>
        <time>2021-08-02T09:42:27.409Z</time>
      </trkpt>
      <trkpt lat="47.031" lon="9.00278">
        <ele>851</ele>
        <time>2021-08-02T09:42:28.410Z</time>
      </trkpt>
      <trkpt lat="47.031" lon="9.00276">
        <ele>851</ele>
        <time>2021-08-02T09:42:29.410Z</time>
      </trkpt>
      <trkpt lat="47.031" lon="9.00275">
        <ele>851</ele>
        <time>2021-08-02T09:42:30.410Z</time>
      </trkpt>
      <trkpt lat="47.03099" lon="9.00274">
        <ele>851</ele>
        <time>2021-08-02T09:42:31.409Z</time>
      </trkpt>
      <trkpt lat="47.03099" lon="9.00273">
        <ele>852</ele>
        <time>2021-08-02T09:42:32.409Z</time>
      </trkpt>
      <trkpt lat="47.03099" lon="9.00273">
        <ele>852</ele>
        <time>2021-08-02T09:42:33.410Z</time>
      </trkpt>
      <trkpt lat="47.03098" lon="9.00273">
        <ele>852</ele>
        <time>2021-08-02T09:42:34.410Z</time>
      </trkpt>
      <trkpt lat="47.03097" lon="9.00273">
        <ele>853</ele>
        <time>2021-08-02T09:42:35.409Z</time>
      </trkpt>
      <trkpt lat="47.03096" lon="9.00273">
        <ele>853</ele>
        <time>2021-08-02T09:42:36.409Z</time>
      </trkpt>
      <trkpt lat="47.03095" lon="9.00274">
        <ele>853</ele>
        <time>2021-08-02T09:42:37.410Z</time>
      </trkpt>
      <trkpt lat="47.03095" lon="9.00273">
        <ele>854</ele>
        <time>2021-08-02T09:42:38.410Z</time>
      </trkpt>
      <trkpt lat="47.03095" lon="9.00273">
        <ele>855</ele>
        <time>2021-08-02T09:42:39.410Z</time>
      </trkpt>
      <trkpt lat="47.03094" lon="9.00272">
        <ele>855</ele>
        <time>2021-08-02T09:42:40.409Z</time>
      </trkpt>
      <trkpt lat="47.03094" lon="9.00271">
        <ele>856</ele>
        <time>2021-08-02T09:42:41.410Z</time>
      </trkpt>
      <trkpt lat="47.03094" lon="9.0027">
        <ele>856</ele>
        <time>2021-08-02T09:42:42.409Z</time>
      </trkpt>
      <trkpt lat="47.03094" lon="9.00268">
        <ele>856</ele>
        <time>2021-08-02T09:42:43.410Z</time>
      </trkpt>
      <trkpt lat="47.03093" lon="9.00267">
        <ele>855</ele>
        <time>2021-08-02T09:42:44.409Z</time>
      </trkpt>
      <trkpt lat="47.03093" lon="9.00266">
        <ele>855</ele>
        <time>2021-08-02T09:42:45.410Z</time>
      </trkpt>
      <trkpt lat="47.03092" lon="9.00265">
        <ele>855</ele>
        <time>2021-08-02T09:42:46.410Z</time>
      </trkpt>
      <trkpt lat="47.03092" lon="9.00264">
        <ele>855</ele>
        <time>2021-08-02T09:42:47.409Z</time>
      </trkpt>
      <trkpt lat="47.03092" lon="9.00262">
        <ele>855</ele>
        <time>2021-08-02T09:42:48.409Z</time>
      </trkpt>
      <trkpt lat="47.03091" lon="9.00261">
        <ele>856</ele>
        <time>2021-08-02T09:42:49.410Z</time>
      </trkpt>
      <trkpt lat="47.0309" lon="9.0026">
        <ele>856</ele>
        <time>2021-08-02T09:42:50.409Z</time>
      </trkpt>
      <trkpt lat="47.0309" lon="9.00259">
        <ele>856</ele>
        <time>2021-08-02T09:42:51.409Z</time>
      </trkpt>
      <trkpt lat="47.03089" lon="9.00258">
        <ele>856</ele>
        <time>2021-08-02T09:42:52.409Z</time>
      </trkpt>
      <trkpt lat="47.03088" lon="9.00257">
        <ele>856</ele>
        <time>2021-08-02T09:42:53.410Z</time>
      </trkpt>
      <trkpt lat="47.03088" lon="9.00255">
        <ele>855</ele>
        <time>2021-08-02T09:42:54.409Z</time>
      </trkpt>
      <trkpt lat="47.03088" lon="9.00253">
        <ele>855</ele>
        <time>2021-08-02T09:42:55.410Z</time>
      </trkpt>
      <trkpt lat="47.03088" lon="9.00251">
        <ele>855</ele>
        <time>2021-08-02T09:42:56.409Z</time>
      </trkpt>
      <trkpt lat="47.03087" lon="9.00249">
        <ele>855</ele>
        <time>2021-08-02T09:42:57.409Z</time>
      </trkpt>
      <trkpt lat="47.03087" lon="9.00248">
        <ele>855</ele>
        <time>2021-08-02T09:42:58.409Z</time>
      </trkpt>
      <trkpt lat="47.03086" lon="9.00247">
        <ele>854</ele>
        <time>2021-08-02T09:42:59.410Z</time>
      </trkpt>
      <trkpt lat="47.03085" lon="9.00245">
        <ele>855</ele>
        <time>2021-08-02T09:43:00.410Z</time>
      </trkpt>
      <trkpt lat="47.03086" lon="9.00244">
        <ele>855</ele>
        <time>2021-08-02T09:43:01.409Z</time>
      </trkpt>
      <trkpt lat="47.03086" lon="9.00242">
        <ele>856</ele>
        <time>2021-08-02T09:43:02.409Z</time>
      </trkpt>
      <trkpt lat="47.03087" lon="9.00242">
        <ele>856</ele>
        <time>2021-08-02T09:43:03.409Z</time>
      </trkpt>
      <trkpt lat="47.03087" lon="9.00242">
        <ele>856</ele>
        <time>2021-08-02T09:43:04.409Z</time>
      </trkpt>
      <trkpt lat="47.03086" lon="9.00242">
        <ele>857</ele>
        <time>2021-08-02T09:43:05.410Z</time>
      </trkpt>
      <trkpt lat="47.03085" lon="9.00242">
        <ele>857</ele>
        <time>2021-08-02T09:43:06.409Z</time>
      </trkpt>
      <trkpt lat="47.03084" lon="9.00243">
        <ele>858</ele>
        <time>2021-08-02T09:43:07.409Z</time>
      </trkpt>
      <trkpt lat="47.03084" lon="9.00243">
        <ele>857</ele>
        <time>2021-08-02T09:43:08.410Z</time>
      </trkpt>
      <trkpt lat="47.03083" lon="9.00243">
        <ele>857</ele>
        <time>2021-08-02T09:43:09.410Z</time>
      </trkpt>
      <trkpt lat="47.03081" lon="9.00242">
        <ele>857</ele>
        <time>2021-08-02T09:43:10.410Z</time>
      </trkpt>
      <trkpt lat="47.03081" lon="9.0024">
        <ele>856</ele>
        <time>2021-08-02T09:43:11.409Z</time>
      </trkpt>
      <trkpt lat="47.03081" lon="9.00238">
        <ele>856</ele>
        <time>2021-08-02T09:43:12.409Z</time>
      </trkpt>
      <trkpt lat="47.0308" lon="9.00237">
        <ele>856</ele>
        <time>2021-08-02T09:43:13.409Z</time>
      </trkpt>
      <trkpt lat="47.0308" lon="9.00235">
        <ele>855</ele>
        <time>2021-08-02T09:43:14.410Z</time>
      </trkpt>
      <trkpt lat="47.0308" lon="9.00234">
        <ele>855</ele>
        <time>2021-08-02T09:43:15.409Z</time>
      </trkpt>
      <trkpt lat="47.0308" lon="9.00233">
        <ele>855</ele>
        <time>2021-08-02T09:43:16.409Z</time>
      </trkpt>
      <trkpt lat="47.0308" lon="9.00231">
        <ele>855</ele>
        <time>2021-08-02T09:43:17.409Z</time>
      </trkpt>
      <trkpt lat="47.03079" lon="9.0023">
        <ele>855</ele>
        <time>2021-08-02T09:43:18.410Z</time>
      </trkpt>
      <trkpt lat="47.03078" lon="9.00229">
        <ele>855</ele>
        <time>2021-08-02T09:43:19.409Z</time>
      </trkpt>
      <trkpt lat="47.03077" lon="9.00228">
        <ele>855</ele>
        <time>2021-08-02T09:43:20.409Z</time>
      </trkpt>
      <trkpt lat="47.03077" lon="9.00227">
        <ele>855</ele>
        <time>2021-08-02T09:43:21.410Z</time>
      </trkpt>
      <trkpt lat="47.03076" lon="9.00226">
        <ele>855</ele>
        <time>2021-08-02T09:43:22.410Z</time>
      </trkpt>
      <trkpt lat="47.03074" lon="9.00225">
        <ele>854</ele>
        <time>2021-08-02T09:43:23.409Z</time>
      </trkpt>
      <trkpt lat="47.03073" lon="9.00224">
        <ele>854</ele>
        <time>2021-08-02T09:43:24.410Z</time>
      </trkpt>
      <trkpt lat="47.03072" lon="9.00222">
        <ele>853</ele>
        <time>2021-08-02T09:43:25.410Z</time>
      </trkpt>
      <trkpt lat="47.03073" lon="9.00221">
        <ele>853</ele>
        <time>2021-08-02T09:43:26.409Z</time>
      </trkpt>
      <trkpt lat="47.03073" lon="9.00219">
        <ele>853</ele>
        <time>2021-08-02T09:43:27.410Z</time>
      </trkpt>
      <trkpt lat="47.03073" lon="9.00219">
        <ele>852</ele>
        <time>2021-08-02T09:43:28.410Z</time>
      </trkpt>
      <trkpt lat="47.03073" lon="9.00218">
        <ele>852</ele>
        <time>2021-08-02T09:43:29.410Z</time>
      </trkpt>
      <trkpt lat="47.03072" lon="9.00218">
        <ele>851</ele>
        <time>2021-08-02T09:43:30.409Z</time>
      </trkpt>
      <trkpt lat="47.03072" lon="9.00218">
        <ele>851</ele>
        <time>2021-08-02T09:43:31.410Z</time>
      </trkpt>
      <trkpt lat="47.03071" lon="9.00219">
        <ele>851</ele>
        <time>2021-08-02T09:43:32.410Z</time>
      </trkpt>
      <trkpt lat="47.03071" lon="9.0022">
        <ele>850</ele>
        <time>2021-08-02T09:43:33.409Z</time>
      </trkpt>
      <trkpt lat="47.03071" lon="9.0022">
        <ele>850</ele>
        <time>2021-08-02T09:43:34.409Z</time>
      </trkpt>
      <trkpt lat="47.0307" lon="9.0022">
        <ele>850</ele>
        <time>2021-08-02T09:43:35.410Z</time>
      </trkpt>
      <trkpt lat="47.03069" lon="9.00221">
        <ele>850</ele>
        <time>2021-08-02T09:43:36.409Z</time>
      </trkpt>
      <trkpt lat="47.03069" lon="9.0022">
        <ele>850</ele>
        <time>2021-08-02T09:43:37.410Z</time>
      </trkpt>
      <trkpt lat="47.03067" lon="9.0022">
        <ele>849</ele>
        <time>2021-08-02T09:43:38.410Z</time>
      </trkpt>
      <trkpt lat="47.03065" lon="9.0022">
        <ele>849</ele>
        <time>2021-08-02T09:43:39.410Z</time>
      </trkpt>
      <trkpt lat="47.03064" lon="9.0022">
        <ele>849</ele>
        <time>2021-08-02T09:43:40.410Z</time>
      </trkpt>
      <trkpt lat="47.03064" lon="9.00219">
        <ele>850</ele>
        <time>2021-08-02T09:43:41.409Z</time>
      </trkpt>
      <trkpt lat="47.03063" lon="9.00218">
        <ele>850</ele>
        <time>2021-08-02T09:43:42.410Z</time>
      </trkpt>
      <trkpt lat="47.03062" lon="9.00217">
        <ele>851</ele>
        <time>2021-08-02T09:43:43.409Z</time>
      </trkpt>
      <trkpt lat="47.03062" lon="9.00216">
        <ele>851</ele>
        <time>2021-08-02T09:43:44.410Z</time>
      </trkpt>
      <trkpt lat="47.03062" lon="9.00214">
        <ele>852</ele>
        <time>2021-08-02T09:43:45.409Z</time>
      </trkpt>
      <trkpt lat="47.03062" lon="9.00213">
        <ele>852</ele>
        <time>2021-08-02T09:43:46.409Z</time>
      </trkpt>
      <trkpt lat="47.03063" lon="9.00212">
        <ele>852</ele>
        <time>2021-08-02T09:43:47.410Z</time>
      </trkpt>
      <trkpt lat="47.03063" lon="9.00211">
        <ele>853</ele>
        <time>2021-08-02T09:43:48.409Z</time>
      </trkpt>
      <trkpt lat="47.03062" lon="9.0021">
        <ele>853</ele>
        <time>2021-08-02T09:43:49.409Z</time>
      </trkpt>
      <trkpt lat="47.03061" lon="9.00209">
        <ele>853</ele>
        <time>2021-08-02T09:43:50.409Z</time>
      </trkpt>
      <trkpt lat="47.0306" lon="9.00208">
        <ele>853</ele>
        <time>2021-08-02T09:43:51.409Z</time>
      </trkpt>
      <trkpt lat="47.0306" lon="9.00207">
        <ele>854</ele>
        <time>2021-08-02T09:43:52.410Z</time>
      </trkpt>
      <trkpt lat="47.0306" lon="9.00206">
        <ele>854</ele>
        <time>2021-08-02T09:43:53.409Z</time>
      </trkpt>
      <trkpt lat="47.0306" lon="9.00206">
        <ele>855</ele>
        <time>2021-08-02T09:43:54.409Z</time>
      </trkpt>
      <trkpt lat="47.0306" lon="9.00205">
        <ele>855</ele>
        <time>2021-08-02T09:43:55.409Z</time>
      </trkpt>
      <trkpt lat="47.0306" lon="9.00204">
        <ele>855</ele>
        <time>2021-08-02T09:43:56.410Z</time>
      </trkpt>
      <trkpt lat="47.0306" lon="9.00202">
        <ele>856</ele>
        <time>2021-08-02T09:43:57.409Z</time>
      </trkpt>
      <trkpt lat="47.03059" lon="9.00201">
        <ele>856</ele>
        <time>2021-08-02T09:43:58.410Z</time>
      </trkpt>
      <trkpt lat="47.03058" lon="9.00199">
        <ele>856</ele>
        <time>2021-08-02T09:43:59.409Z</time>
      </trkpt>
      <trkpt lat="47.03057" lon="9.00198">
        <ele>856</ele>
        <time>2021-08-02T09:44:00.410Z</time>
      </trkpt>
      <trkpt lat="47.03056" lon="9.00197">
        <ele>856</ele>
        <time>2021-08-02T09:44:01.410Z</time>
      </trkpt>
      <trkpt lat="47.03055" lon="9.00197">
        <ele>856</ele>
        <time>2021-08-02T09:44:02.410Z</time>
      </trkpt>
      <trkpt lat="47.03055" lon="9.00196">
        <ele>855</ele>
        <time>2021-08-02T09:44:03.410Z</time>
      </trkpt>
      <trkpt lat="47.03055" lon="9.00194">
        <ele>855</ele>
        <time>2021-08-02T09:44:04.409Z</time>
      </trkpt>
      <trkpt lat="47.03056" lon="9.00193">
        <ele>855</ele>
        <time>2021-08-02T09:44:05.410Z</time>
      </trkpt>
      <trkpt lat="47.03055" lon="9.00191">
        <ele>855</ele>
        <time>2021-08-02T09:44:06.409Z</time>
      </trkpt>
      <trkpt lat="47.03055" lon="9.0019">
        <ele>856</ele>
        <time>2021-08-02T09:44:07.409Z</time>
      </trkpt>
      <trkpt lat="47.03054" lon="9.00189">
        <ele>856</ele>
        <time>2021-08-02T09:44:08.410Z</time>
      </trkpt>
      <trkpt lat="47.03053" lon="9.00187">
        <ele>856</ele>
        <time>2021-08-02T09:44:09.410Z</time>
      </trkpt>
      <trkpt lat="47.03052" lon="9.00185">
        <ele>856</ele>
        <time>2021-08-02T09:44:10.410Z</time>
      </trkpt>
      <trkpt lat="47.0305" lon="9.00184">
        <ele>856</ele>
        <time>2021-08-02T09:44:11.409Z</time>
      </trkpt>
      <trkpt lat="47.03048" lon="9.00184">
        <ele>857</ele>
        <time>2021-08-02T09:44:12.410Z</time>
      </trkpt>
      <trkpt lat="47.03047" lon="9.00183">
        <ele>857</ele>
        <time>2021-08-02T09:44:13.410Z</time>
      </trkpt>
      <trkpt lat="47.03047" lon="9.00182">
        <ele>857</ele>
        <time>2021-08-02T09:44:14.409Z</time>
      </trkpt>
      <trkpt lat="47.03048" lon="9.00181">
        <ele>857</ele>
        <time>2021-08-02T09:44:15.410Z</time>
      </trkpt>
      <trkpt lat="47.03047" lon="9.0018">
        <ele>857</ele>
        <time>2021-08-02T09:44:16.410Z</time>
      </trkpt>
      <trkpt lat="47.03046" lon="9.00179">
        <ele>857</ele>
        <time>2021-08-02T09:44:17.410Z</time>
      </trkpt>
      <trkpt lat="47.03045" lon="9.00178">
        <ele>857</ele>
        <time>2021-08-02T09:44:18.409Z</time>
      </trkpt>
      <trkpt lat="47.03045" lon="9.00177">
        <ele>857</ele>
        <time>2021-08-02T09:44:19.409Z</time>
      </trkpt>
      <trkpt lat="47.03044" lon="9.00176">
        <ele>858</ele>
        <time>2021-08-02T09:44:20.409Z</time>
      </trkpt>
      <trkpt lat="47.03043" lon="9.00174">
        <ele>858</ele>
        <time>2021-08-02T09:44:21.409Z</time>
      </trkpt>
      <trkpt lat="47.03043" lon="9.00173">
        <ele>857</ele>
        <time>2021-08-02T09:44:22.409Z</time>
      </trkpt>
      <trkpt lat="47.03042" lon="9.00172">
        <ele>857</ele>
        <time>2021-08-02T09:44:23.409Z</time>
      </trkpt>
      <trkpt lat="47.03042" lon="9.00171">
        <ele>856</ele>
        <time>2021-08-02T09:44:24.409Z</time>
      </trkpt>
      <trkpt lat="47.03042" lon="9.00169">
        <ele>856</ele>
        <time>2021-08-02T09:44:25.410Z</time>
      </trkpt>
      <trkpt lat="47.03043" lon="9.00167">
        <ele>855</ele>
        <time>2021-08-02T09:44:26.409Z</time>
      </trkpt>
      <trkpt lat="47.03043" lon="9.00165">
        <ele>854</ele>
        <time>2021-08-02T09:44:27.409Z</time>
      </trkpt>
      <trkpt lat="47.03043" lon="9.00164">
        <ele>854</ele>
        <time>2021-08-02T09:44:28.409Z</time>
      </trkpt>
      <trkpt lat="47.03042" lon="9.00163">
        <ele>854</ele>
        <time>2021-08-02T09:44:29.409Z</time>
      </trkpt>
      <trkpt lat="47.03042" lon="9.00163">
        <ele>853</ele>
        <time>2021-08-02T09:44:30.410Z</time>
      </trkpt>
      <trkpt lat="47.03041" lon="9.00162">
        <ele>853</ele>
        <time>2021-08-02T09:44:31.410Z</time>
      </trkpt>
      <trkpt lat="47.0304" lon="9.00161">
        <ele>853</ele>
        <time>2021-08-02T09:44:32.409Z</time>
      </trkpt>
      <trkpt lat="47.0304" lon="9.0016">
        <ele>852</ele>
        <time>2021-08-02T09:44:33.409Z</time>
      </trkpt>
      <trkpt lat="47.03039" lon="9.00159">
        <ele>852</ele>
        <time>2021-08-02T09:44:34.409Z</time>
      </trkpt>
      <trkpt lat="47.03038" lon="9.00157">
        <ele>851</ele>
        <time>2021-08-02T09:44:35.410Z</time>
      </trkpt>
      <trkpt lat="47.03037" lon="9.00157">
        <ele>851</ele>
        <time>2021-08-02T09:44:36.410Z</time>
      </trkpt>
      <trkpt lat="47.03035" lon="9.00156">
        <ele>851</ele>
        <time>2021-08-02T09:44:37.409Z</time>
      </trkpt>
      <trkpt lat="47.03034" lon="9.00155">
        <ele>851</ele>
        <time>2021-08-02T09:44:38.409Z</time>
      </trkpt>
      <trkpt lat="47.03033" lon="9.00154">
        <ele>850</ele>
        <time>2021-08-02T09:44:39.409Z</time>
      </trkpt>
      <trkpt lat="47.03033" lon="9.00153">
        <ele>850</ele>
        <time>2021-08-02T09:44:40.409Z</time>
      </trkpt>
      <trkpt lat="47.03032" lon="9.00153">
        <ele>850</ele>
        <time>2021-08-02T09:44:41.410Z</time>
      </trkpt>
      <trkpt lat="47.03031" lon="9.00153">
        <ele>850</ele>
        <time>2021-08-02T09:44:42.410Z</time>
      </trkpt>
      <trkpt lat="47.03031" lon="9.00152">
        <ele>851</ele>
        <time>2021-08-02T09:44:43.409Z</time>
      </trkpt>
      <trkpt lat="47.0303" lon="9.00153">
        <ele>851</ele>
        <time>2021-08-02T09:44:44.409Z</time>
      </trkpt>
      <trkpt lat="47.0303" lon="9.00153">
        <ele>851</ele>
        <time>2021-08-02T09:44:45.409Z</time>
      </trkpt>
      <trkpt lat="47.0303" lon="9.00153">
        <ele>852</ele>
        <time>2021-08-02T09:44:46.410Z</time>
      </trkpt>
      <trkpt lat="47.0303" lon="9.00153">
        <ele>853</ele>
        <time>2021-08-02T09:44:47.411Z</time>
      </trkpt>
      <trkpt lat="47.0303" lon="9.00152">
        <ele>853</ele>
        <time>2021-08-02T09:44:48.410Z</time>
      </trkpt>
      <trkpt lat="47.0303" lon="9.00152">
        <ele>852</ele>
        <time>2021-08-02T09:44:49.411Z</time>
      </trkpt>
      <trkpt lat="47.0303" lon="9.00151">
        <ele>852</ele>
        <time>2021-08-02T09:44:50.411Z</time>
      </trkpt>
      <trkpt lat="47.03029" lon="9.00151">
        <ele>852</ele>
        <time>2021-08-02T09:44:51.410Z</time>
      </trkpt>
      <trkpt lat="47.03029" lon="9.0015">
        <ele>851</ele>
        <time>2021-08-02T09:44:52.411Z</time>
      </trkpt>
      <trkpt lat="47.03029" lon="9.00148">
        <ele>852</ele>
        <time>2021-08-02T09:44:53.411Z</time>
      </trkpt>
      <trkpt lat="47.03029" lon="9.00147">
        <ele>852</ele>
        <time>2021-08-02T09:44:54.411Z</time>
      </trkpt>
      <trkpt lat="47.03029" lon="9.00145">
        <ele>852</ele>
        <time>2021-08-02T09:44:55.410Z</time>
      </trkpt>
      <trkpt lat="47.03028" lon="9.00143">
        <ele>852</ele>
        <time>2021-08-02T09:44:56.411Z</time>
      </trkpt>
      <trkpt lat="47.03027" lon="9.00142">
        <ele>852</ele>
        <time>2021-08-02T09:44:57.410Z</time>
      </trkpt>
      <trkpt lat="47.03025" lon="9.00141">
        <ele>852</ele>
        <time>2021-08-02T09:44:58.410Z</time>
      </trkpt>
      <trkpt lat="47.03024" lon="9.0014">
        <ele>852</ele>
        <time>2021-08-02T09:44:59.411Z</time>
      </trkpt>
      <trkpt lat="47.03024" lon="9.00139">
        <ele>852</ele>
        <time>2021-08-02T09:45:00.411Z</time>
      </trkpt>
      <trkpt lat="47.03023" lon="9.00138">
        <ele>853</ele>
        <time>2021-08-02T09:45:01.411Z</time>
      </trkpt>
      <trkpt lat="47.03023" lon="9.00136">
        <ele>853</ele>
        <time>2021-08-02T09:45:02.410Z</time>
      </trkpt>
      <trkpt lat="47.03022" lon="9.00135">
        <ele>853</ele>
        <time>2021-08-02T09:45:03.410Z</time>
      </trkpt>
      <trkpt lat="47.0302" lon="9.00134">
        <ele>853</ele>
        <time>2021-08-02T09:45:04.410Z</time>
      </trkpt>
      <trkpt lat="47.03018" lon="9.00133">
        <ele>853</ele>
        <time>2021-08-02T09:45:05.411Z</time>
      </trkpt>
      <trkpt lat="47.03018" lon="9.00132">
        <ele>853</ele>
        <time>2021-08-02T09:45:06.411Z</time>
      </trkpt>
      <trkpt lat="47.03017" lon="9.00131">
        <ele>854</ele>
        <time>2021-08-02T09:45:07.411Z</time>
      </trkpt>
      <trkpt lat="47.03016" lon="9.0013">
        <ele>854</ele>
        <time>2021-08-02T09:45:08.410Z</time>
      </trkpt>
      <trkpt lat="47.03015" lon="9.00129">
        <ele>854</ele>
        <time>2021-08-02T09:45:09.410Z</time>
      </trkpt>
      <trkpt lat="47.03013" lon="9.00129">
        <ele>854</ele>
        <time>2021-08-02T09:45:10.410Z</time>
      </trkpt>
      <trkpt lat="47.03012" lon="9.00128">
        <ele>854</ele>
        <time>2021-08-02T09:45:11.410Z</time>
      </trkpt>
      <trkpt lat="47.03012" lon="9.00128">
        <ele>854</ele>
        <time>2021-08-02T09:45:12.410Z</time>
      </trkpt>
      <trkpt lat="47.03011" lon="9.00128">
        <ele>855</ele>
        <time>2021-08-02T09:45:13.411Z</time>
      </trkpt>
      <trkpt lat="47.03011" lon="9.00128">
        <ele>855</ele>
        <time>2021-08-02T09:45:14.410Z</time>
      </trkpt>
      <trkpt lat="47.03013" lon="9.00128">
        <ele>855</ele>
        <time>2021-08-02T09:45:15.410Z</time>
      </trkpt>
      <trkpt lat="47.03015" lon="9.00127">
        <ele>856</ele>
        <time>2021-08-02T09:45:16.410Z</time>
      </trkpt>
      <trkpt lat="47.03018" lon="9.00127">
        <ele>856</ele>
        <time>2021-08-02T09:45:17.410Z</time>
      </trkpt>
      <trkpt lat="47.0302" lon="9.00127">
        <ele>856</ele>
        <time>2021-08-02T09:45:18.411Z</time>
      </trkpt>
      <trkpt lat="47.03021" lon="9.00127">
        <ele>857</ele>
        <time>2021-08-02T09:45:19.410Z</time>
      </trkpt>
      <trkpt lat="47.03021" lon="9.00126">
        <ele>857</ele>
        <time>2021-08-02T09:45:20.411Z</time>
      </trkpt>
      <trkpt lat="47.0302" lon="9.00126">
        <ele>857</ele>
        <time>2021-08-02T09:45:21.410Z</time>
      </trkpt>
      <trkpt lat="47.0302" lon="9.00126">
        <ele>857</ele>
        <time>2021-08-02T09:45:22.411Z</time>
      </trkpt>
      <trkpt lat="47.0302" lon="9.00126">
        <ele>858</ele>
        <time>2021-08-02T09:45:23.411Z</time>
      </trkpt>
      <trkpt lat="47.0302" lon="9.00126">
        <ele>858</ele>
        <time>2021-08-02T09:45:24.410Z</time>
      </trkpt>
      <trkpt lat="47.0302" lon="9.00127">
        <ele>857</ele>
        <time>2021-08-02T09:45:25.411Z</time>
      </trkpt>
      <trkpt lat="47.0302" lon="9.00127">
        <ele>857</ele>
        <time>2021-08-02T09:45:26.410Z</time>
      </trkpt>
      <trkpt lat="47.03021" lon="9.00126">
        <ele>857</ele>
        <time>2021-08-02T09:45:27.411Z</time>
      </trkpt>
      <trkpt lat="47.03022" lon="9.00126">
        <ele>858</ele>
        <time>2021-08-02T09:45:28.411Z</time>
      </trkpt>
      <trkpt lat="47.03023" lon="9.00126">
        <ele>858</ele>
        <time>2021-08-02T09:45:29.411Z</time>
      </trkpt>
      <trkpt lat="47.03023" lon="9.00126">
        <ele>858</ele>
        <time>2021-08-02T09:45:30.410Z</time>
      </trkpt>
      <trkpt lat="47.03023" lon="9.00126">
        <ele>858</ele>
        <time>2021-08-02T09:45:31.411Z</time>
      </trkpt>
      <trkpt lat="47.03022" lon="9.00127">
        <ele>858</ele>
        <time>2021-08-02T09:45:32.411Z</time>
      </trkpt>
      <trkpt lat="47.03022" lon="9.00127">
        <ele>858</ele>
        <time>2021-08-02T09:45:33.411Z</time>
      </trkpt>
      <trkpt lat="47.03021" lon="9.00127">
        <ele>858</ele>
        <time>2021-08-02T09:45:34.411Z</time>
      </trkpt>
      <trkpt lat="47.0302" lon="9.00127">
        <ele>858</ele>
        <time>2021-08-02T09:45:35.410Z</time>
      </trkpt>
      <trkpt lat="47.0302" lon="9.00128">
        <ele>859</ele>
        <time>2021-08-02T09:45:36.411Z</time>
      </trkpt>
      <trkpt lat="47.03019" lon="9.00128">
        <ele>859</ele>
        <time>2021-08-02T09:45:37.411Z</time>
      </trkpt>
      <trkpt lat="47.03019" lon="9.00128">
        <ele>859</ele>
        <time>2021-08-02T09:45:38.410Z</time>
      </trkpt>
      <trkpt lat="47.03018" lon="9.00128">
        <ele>859</ele>
        <time>2021-08-02T09:45:39.411Z</time>
      </trkpt>
      <trkpt lat="47.03017" lon="9.00128">
        <ele>859</ele>
        <time>2021-08-02T09:45:40.410Z</time>
      </trkpt>
      <trkpt lat="47.03016" lon="9.00128">
        <ele>859</ele>
        <time>2021-08-02T09:45:41.410Z</time>
      </trkpt>
      <trkpt lat="47.03015" lon="9.00128">
        <ele>859</ele>
        <time>2021-08-02T09:45:42.411Z</time>
      </trkpt>
      <trkpt lat="47.03015" lon="9.00128">
        <ele>859</ele>
        <time>2021-08-02T09:45:43.410Z</time>
      </trkpt>
      <trkpt lat="47.03014" lon="9.00127">
        <ele>859</ele>
        <time>2021-08-02T09:45:44.411Z</time>
      </trkpt>
      <trkpt lat="47.03013" lon="9.00127">
        <ele>859</ele>
        <time>2021-08-02T09:45:45.410Z</time>
      </trkpt>
      <trkpt lat="47.03013" lon="9.00127">
        <ele>859</ele>
        <time>2021-08-02T09:45:46.411Z</time>
      </trkpt>
      <trkpt lat="47.03012" lon="9.00127">
        <ele>858</ele>
        <time>2021-08-02T09:45:47.410Z</time>
      </trkpt>
      <trkpt lat="47.03012" lon="9.00127">
        <ele>858</ele>
        <time>2021-08-02T09:45:48.410Z</time>
      </trkpt>
      <trkpt lat="47.03013" lon="9.00126">
        <ele>858</ele>
        <time>2021-08-02T09:45:49.411Z</time>
      </trkpt>
      <trkpt lat="47.03013" lon="9.00125">
        <ele>858</ele>
        <time>2021-08-02T09:45:50.411Z</time>
      </trkpt>
      <trkpt lat="47.03014" lon="9.00125">
        <ele>858</ele>
        <time>2021-08-02T09:45:51.411Z</time>
      </trkpt>
      <trkpt lat="47.03015" lon="9.00125">
        <ele>858</ele>
        <time>2021-08-02T09:45:52.410Z</time>
      </trkpt>
      <trkpt lat="47.03014" lon="9.00126">
        <ele>856</ele>
        <time>2021-08-02T09:45:53.411Z</time>
      </trkpt>
      <trkpt lat="47.03014" lon="9.00126">
        <ele>856</ele>
        <time>2021-08-02T09:45:54.411Z</time>
      </trkpt>
      <trkpt lat="47.03015" lon="9.00126">
        <ele>856</ele>
        <time>2021-08-02T09:45:55.411Z</time>
      </trkpt>
      <trkpt lat="47.03015" lon="9.00125">
        <ele>856</ele>
        <time>2021-08-02T09:45:56.411Z</time>
      </trkpt>
      <trkpt lat="47.03014" lon="9.00126">
        <ele>856</ele>
        <time>2021-08-02T09:45:57.411Z</time>
      </trkpt>
      <trkpt lat="47.03014" lon="9.00126">
        <ele>856</ele>
        <time>2021-08-02T09:45:58.411Z</time>
      </trkpt>
      <trkpt lat="47.03016" lon="9.00127">
        <ele>856</ele>
        <time>2021-08-02T09:45:59.411Z</time>
      </trkpt>
      <trkpt lat="47.03016" lon="9.00128">
        <ele>856</ele>
        <time>2021-08-02T09:46:00.411Z</time>
      </trkpt>
      <trkpt lat="47.03017" lon="9.00129">
        <ele>856</ele>
        <time>2021-08-02T09:46:01.411Z</time>
      </trkpt>
      <trkpt lat="47.03017" lon="9.0013">
        <ele>856</ele>
        <time>2021-08-02T09:46:02.411Z</time>
      </trkpt>
      <trkpt lat="47.03015" lon="9.00132">
        <ele>856</ele>
        <time>2021-08-02T09:46:03.411Z</time>
      </trkpt>
      <trkpt lat="47.03015" lon="9.00133">
        <ele>856</ele>
        <time>2021-08-02T09:46:04.410Z</time>
      </trkpt>
      <trkpt lat="47.03013" lon="9.00133">
        <ele>856</ele>
        <time>2021-08-02T09:46:05.411Z</time>
      </trkpt>
      <trkpt lat="47.03012" lon="9.00132">
        <ele>856</ele>
        <time>2021-08-02T09:46:06.411Z</time>
      </trkpt>
      <trkpt lat="47.0301" lon="9.00132">
        <ele>856</ele>
        <time>2021-08-02T09:46:07.410Z</time>
      </trkpt>
      <trkpt lat="47.03009" lon="9.00134">
        <ele>856</ele>
        <time>2021-08-02T09:46:08.411Z</time>
      </trkpt>
      <trkpt lat="47.03007" lon="9.00134">
        <ele>855</ele>
        <time>2021-08-02T09:46:09.410Z</time>
      </trkpt>
      <trkpt lat="47.03006" lon="9.00135">
        <ele>855</ele>
        <time>2021-08-02T09:46:10.411Z</time>
      </trkpt>
      <trkpt lat="47.03004" lon="9.00135">
        <ele>855</ele>
        <time>2021-08-02T09:46:11.411Z</time>
      </trkpt>
      <trkpt lat="47.03003" lon="9.00136">
        <ele>855</ele>
        <time>2021-08-02T09:46:12.411Z</time>
      </trkpt>
      <trkpt lat="47.03002" lon="9.00136">
        <ele>854</ele>
        <time>2021-08-02T09:46:13.411Z</time>
      </trkpt>
      <trkpt lat="47.03" lon="9.00138">
        <ele>854</ele>
        <time>2021-08-02T09:46:14.411Z</time>
      </trkpt>
      <trkpt lat="47.02999" lon="9.00139">
        <ele>854</ele>
        <time>2021-08-02T09:46:15.411Z</time>
      </trkpt>
      <trkpt lat="47.02998" lon="9.0014">
        <ele>854</ele>
        <time>2021-08-02T09:46:16.411Z</time>
      </trkpt>
      <trkpt lat="47.02998" lon="9.0014">
        <ele>853</ele>
        <time>2021-08-02T09:46:17.410Z</time>
      </trkpt>
      <trkpt lat="47.02996" lon="9.0014">
        <ele>852</ele>
        <time>2021-08-02T09:46:18.411Z</time>
      </trkpt>
      <trkpt lat="47.02994" lon="9.0014">
        <ele>852</ele>
        <time>2021-08-02T09:46:19.411Z</time>
      </trkpt>
      <trkpt lat="47.02993" lon="9.0014">
        <ele>851</ele>
        <time>2021-08-02T09:46:20.411Z</time>
      </trkpt>
      <trkpt lat="47.02991" lon="9.0014">
        <ele>851</ele>
        <time>2021-08-02T09:46:21.411Z</time>
      </trkpt>
      <trkpt lat="47.02989" lon="9.0014">
        <ele>850</ele>
        <time>2021-08-02T09:46:22.411Z</time>
      </trkpt>
      <trkpt lat="47.02988" lon="9.0014">
        <ele>850</ele>
        <time>2021-08-02T09:46:23.411Z</time>
      </trkpt>
      <trkpt lat="47.02988" lon="9.0014">
        <ele>850</ele>
        <time>2021-08-02T09:46:24.410Z</time>
      </trkpt>
      <trkpt lat="47.02988" lon="9.0014">
        <ele>849</ele>
        <time>2021-08-02T09:46:25.411Z</time>
      </trkpt>
      <trkpt lat="47.02989" lon="9.0014">
        <ele>849</ele>
        <time>2021-08-02T09:46:26.410Z</time>
      </trkpt>
      <trkpt lat="47.0299" lon="9.00141">
        <ele>848</ele>
        <time>2021-08-02T09:46:27.411Z</time>
      </trkpt>
      <trkpt lat="47.02991" lon="9.00141">
        <ele>848</ele>
        <time>2021-08-02T09:46:28.410Z</time>
      </trkpt>
      <trkpt lat="47.02992" lon="9.00141">
        <ele>847</ele>
        <time>2021-08-02T09:46:29.411Z</time>
      </trkpt>
      <trkpt lat="47.02992" lon="9.00141">
        <ele>847</ele>
        <time>2021-08-02T09:46:30.410Z</time>
      </trkpt>
      <trkpt lat="47.02992" lon="9.00141">
        <ele>846</ele>
        <time>2021-08-02T09:46:31.411Z</time>
      </trkpt>
      <trkpt lat="47.02992" lon="9.00142">
        <ele>845</ele>
        <time>2021-08-02T09:46:32.410Z</time>
      </trkpt>
      <trkpt lat="47.02993" lon="9.00142">
        <ele>845</ele>
        <time>2021-08-02T09:46:33.410Z</time>
      </trkpt>
      <trkpt lat="47.02993" lon="9.00142">
        <ele>845</ele>
        <time>2021-08-02T09:46:34.411Z</time>
      </trkpt>
      <trkpt lat="47.02993" lon="9.00142">
        <ele>848</ele>
        <time>2021-08-02T09:46:35.412Z</time>
      </trkpt>
      <trkpt lat="47.02994" lon="9.00143">
        <ele>853</ele>
        <time>2021-08-02T09:46:36.412Z</time>
      </trkpt>
      <trkpt lat="47.02992" lon="9.00144">
        <ele>851</ele>
        <time>2021-08-02T09:46:37.412Z</time>
      </trkpt>
      <trkpt lat="47.02992" lon="9.00144">
        <ele>851</ele>
        <time>2021-08-02T09:46:38.411Z</time>
      </trkpt>
      <trkpt lat="47.02992" lon="9.00145">
        <ele>852</ele>
        <time>2021-08-02T09:46:39.412Z</time>
      </trkpt>
      <trkpt lat="47.02992" lon="9.00144">
        <ele>852</ele>
        <time>2021-08-02T09:46:40.412Z</time>
      </trkpt>
      <trkpt lat="47.02992" lon="9.00144">
        <ele>852</ele>
        <time>2021-08-02T09:46:41.412Z</time>
      </trkpt>
      <trkpt lat="47.02992" lon="9.00144">
        <ele>852</ele>
        <time>2021-08-02T09:46:42.411Z</time>
      </trkpt>
      <trkpt lat="47.02994" lon="9.00141">
        <ele>850</ele>
        <time>2021-08-02T09:46:43.412Z</time>
      </trkpt>
      <trkpt lat="47.02993" lon="9.00141">
        <ele>850</ele>
        <time>2021-08-02T09:46:44.412Z</time>
      </trkpt>
      <trkpt lat="47.02991" lon="9.0014">
        <ele>847</ele>
        <time>2021-08-02T09:46:45.413Z</time>
      </trkpt>
      <trkpt lat="47.02991" lon="9.0014">
        <ele>847</ele>
        <time>2021-08-02T09:46:46.413Z</time>
      </trkpt>
      <trkpt lat="47.02992" lon="9.0014">
        <ele>848</ele>
        <time>2021-08-02T09:46:47.415Z</time>
      </trkpt>
      <trkpt lat="47.02992" lon="9.0014">
        <ele>849</ele>
        <time>2021-08-02T09:46:48.415Z</time>
      </trkpt>
      <trkpt lat="47.02994" lon="9.0014">
        <ele>850</ele>
        <time>2021-08-02T09:46:49.414Z</time>
      </trkpt>
      <trkpt lat="47.02994" lon="9.0014">
        <ele>851</ele>
        <time>2021-08-02T09:46:50.415Z</time>
      </trkpt>
      <trkpt lat="47.02995" lon="9.0014">
        <ele>852</ele>
        <time>2021-08-02T09:46:51.415Z</time>
      </trkpt>
      <trkpt lat="47.02995" lon="9.0014">
        <ele>853</ele>
        <time>2021-08-02T09:46:52.414Z</time>
      </trkpt>
      <trkpt lat="47.02996" lon="9.00141">
        <ele>852</ele>
        <time>2021-08-02T09:46:53.414Z</time>
      </trkpt>
      <trkpt lat="47.02996" lon="9.0014">
        <ele>851</ele>
        <time>2021-08-02T09:46:54.415Z</time>
      </trkpt>
      <trkpt lat="47.02996" lon="9.00139">
        <ele>851</ele>
        <time>2021-08-02T09:46:55.416Z</time>
      </trkpt>
      <trkpt lat="47.03001" lon="9.0014">
        <ele>853</ele>
        <time>2021-08-02T09:46:56.416Z</time>
      </trkpt>
      <trkpt lat="47.03001" lon="9.0014">
        <ele>853</ele>
        <time>2021-08-02T09:46:57.416Z</time>
      </trkpt>
      <trkpt lat="47.03001" lon="9.0014">
        <ele>852</ele>
        <time>2021-08-02T09:46:58.415Z</time>
      </trkpt>
      <trkpt lat="47.02999" lon="9.00141">
        <ele>854</ele>
        <time>2021-08-02T09:46:59.417Z</time>
      </trkpt>
      <trkpt lat="47.03" lon="9.00142">
        <ele>855</ele>
        <time>2021-08-02T09:47:00.417Z</time>
      </trkpt>
      <trkpt lat="47.02999" lon="9.00142">
        <ele>855</ele>
        <time>2021-08-02T09:47:01.416Z</time>
      </trkpt>
      <trkpt lat="47.02999" lon="9.00144">
        <ele>855</ele>
        <time>2021-08-02T09:47:02.418Z</time>
      </trkpt>
      <trkpt lat="47.02999" lon="9.00144">
        <ele>855</ele>
        <time>2021-08-02T09:47:03.418Z</time>
      </trkpt>
      <trkpt lat="47.03" lon="9.00145">
        <ele>855</ele>
        <time>2021-08-02T09:47:04.417Z</time>
      </trkpt>
      <trkpt lat="47.03001" lon="9.00145">
        <ele>855</ele>
        <time>2021-08-02T09:47:05.418Z</time>
      </trkpt>
      <trkpt lat="47.03002" lon="9.00146">
        <ele>855</ele>
        <time>2021-08-02T09:47:06.418Z</time>
      </trkpt>
      <trkpt lat="47.03002" lon="9.00147">
        <ele>855</ele>
        <time>2021-08-02T09:47:07.418Z</time>
      </trkpt>
      <trkpt lat="47.03003" lon="9.00147">
        <ele>856</ele>
        <time>2021-08-02T09:47:08.418Z</time>
      </trkpt>
      <trkpt lat="47.03004" lon="9.00147">
        <ele>856</ele>
        <time>2021-08-02T09:47:09.417Z</time>
      </trkpt>
      <trkpt lat="47.03005" lon="9.00148">
        <ele>857</ele>
        <time>2021-08-02T09:47:10.417Z</time>
      </trkpt>
      <trkpt lat="47.03006" lon="9.00149">
        <ele>858</ele>
        <time>2021-08-02T09:47:11.418Z</time>
      </trkpt>
      <trkpt lat="47.03006" lon="9.00149">
        <ele>858</ele>
        <time>2021-08-02T09:47:12.418Z</time>
      </trkpt>
      <trkpt lat="47.03006" lon="9.00149">
        <ele>859</ele>
        <time>2021-08-02T09:47:13.418Z</time>
      </trkpt>
      <trkpt lat="47.03005" lon="9.00149">
        <ele>860</ele>
        <time>2021-08-02T09:47:14.417Z</time>
      </trkpt>
      <trkpt lat="47.03004" lon="9.00147">
        <ele>860</ele>
        <time>2021-08-02T09:47:15.418Z</time>
      </trkpt>
      <trkpt lat="47.03005" lon="9.00145">
        <ele>861</ele>
        <time>2021-08-02T09:47:16.417Z</time>
      </trkpt>
      <trkpt lat="47.03005" lon="9.00142">
        <ele>863</ele>
        <time>2021-08-02T09:47:17.418Z</time>
      </trkpt>
      <trkpt lat="47.03004" lon="9.00142">
        <ele>864</ele>
        <time>2021-08-02T09:47:18.418Z</time>
      </trkpt>
      <trkpt lat="47.03004" lon="9.00142">
        <ele>865</ele>
        <time>2021-08-02T09:47:19.417Z</time>
      </trkpt>
      <trkpt lat="47.03004" lon="9.00141">
        <ele>865</ele>
        <time>2021-08-02T09:47:20.417Z</time>
      </trkpt>
      <trkpt lat="47.03005" lon="9.00141">
        <ele>866</ele>
        <time>2021-08-02T09:47:21.418Z</time>
      </trkpt>
      <trkpt lat="47.03006" lon="9.00141">
        <ele>868</ele>
        <time>2021-08-02T09:47:22.417Z</time>
      </trkpt>
      <trkpt lat="47.03006" lon="9.00141">
        <ele>869</ele>
        <time>2021-08-02T09:47:23.417Z</time>
      </trkpt>
      <trkpt lat="47.03006" lon="9.00142">
        <ele>870</ele>
        <time>2021-08-02T09:47:24.419Z</time>
      </trkpt>
      <trkpt lat="47.03006" lon="9.00142">
        <ele>870</ele>
        <time>2021-08-02T09:47:25.418Z</time>
      </trkpt>
      <trkpt lat="47.03006" lon="9.00142">
        <ele>869</ele>
        <time>2021-08-02T09:47:26.418Z</time>
      </trkpt>
      <trkpt lat="47.03006" lon="9.00142">
        <ele>867</ele>
        <time>2021-08-02T09:47:27.419Z</time>
      </trkpt>
      <trkpt lat="47.03008" lon="9.00141">
        <ele>867</ele>
        <time>2021-08-02T09:47:28.419Z</time>
      </trkpt>
      <trkpt lat="47.03008" lon="9.00141">
        <ele>867</ele>
        <time>2021-08-02T09:47:29.420Z</time>
      </trkpt>
      <trkpt lat="47.03007" lon="9.00143">
        <ele>866</ele>
        <time>2021-08-02T09:47:33.420Z</time>
      </trkpt>
      <trkpt lat="47.03007" lon="9.00143">
        <ele>866</ele>
        <time>2021-08-02T09:47:34.419Z</time>
      </trkpt>
      <trkpt lat="47.03006" lon="9.00142">
        <ele>866</ele>
        <time>2021-08-02T09:47:35.419Z</time>
      </trkpt>
      <trkpt lat="47.03005" lon="9.00141">
        <ele>866</ele>
        <time>2021-08-02T09:47:36.419Z</time>
      </trkpt>
      <trkpt lat="47.03004" lon="9.00141">
        <ele>865</ele>
        <time>2021-08-02T09:47:37.420Z</time>
      </trkpt>
      <trkpt lat="47.03003" lon="9.00141">
        <ele>865</ele>
        <time>2021-08-02T09:47:38.420Z</time>
      </trkpt>
      <trkpt lat="47.03001" lon="9.00141">
        <ele>865</ele>
        <time>2021-08-02T09:47:39.419Z</time>
      </trkpt>
      <trkpt lat="47.03" lon="9.00141">
        <ele>864</ele>
        <time>2021-08-02T09:47:40.420Z</time>
      </trkpt>
      <trkpt lat="47.03" lon="9.0014">
        <ele>864</ele>
        <time>2021-08-02T09:47:41.420Z</time>
      </trkpt>
      <trkpt lat="47.03001" lon="9.00139">
        <ele>864</ele>
        <time>2021-08-02T09:47:42.420Z</time>
      </trkpt>
      <trkpt lat="47.03001" lon="9.00138">
        <ele>863</ele>
        <time>2021-08-02T09:47:43.419Z</time>
      </trkpt>
      <trkpt lat="47.03001" lon="9.00138">
        <ele>863</ele>
        <time>2021-08-02T09:47:44.419Z</time>
      </trkpt>
      <trkpt lat="47.03001" lon="9.00137">
        <ele>862</ele>
        <time>2021-08-02T09:47:45.419Z</time>
      </trkpt>
      <trkpt lat="47.02999" lon="9.00136">
        <ele>861</ele>
        <time>2021-08-02T09:47:46.420Z</time>
      </trkpt>
      <trkpt lat="47.03" lon="9.00137">
        <ele>860</ele>
        <time>2021-08-02T09:47:47.420Z</time>
      </trkpt>
      <trkpt lat="47.03" lon="9.00137">
        <ele>860</ele>
        <time>2021-08-02T09:47:48.420Z</time>
      </trkpt>
      <trkpt lat="47.02999" lon="9.00137">
        <ele>859</ele>
        <time>2021-08-02T09:47:49.420Z</time>
      </trkpt>
      <trkpt lat="47.03001" lon="9.00137">
        <ele>859</ele>
        <time>2021-08-02T09:47:50.419Z</time>
      </trkpt>
      <trkpt lat="47.03002" lon="9.00132">
        <ele>858</ele>
        <time>2021-08-02T09:47:51.420Z</time>
      </trkpt>
      <trkpt lat="47.03003" lon="9.0013">
        <ele>858</ele>
        <time>2021-08-02T09:47:52.420Z</time>
      </trkpt>
      <trkpt lat="47.03004" lon="9.00131">
        <ele>857</ele>
        <time>2021-08-02T09:47:53.420Z</time>
      </trkpt>
      <trkpt lat="47.03005" lon="9.00131">
        <ele>856</ele>
        <time>2021-08-02T09:47:54.420Z</time>
      </trkpt>
      <trkpt lat="47.03005" lon="9.00131">
        <ele>855</ele>
        <time>2021-08-02T09:47:55.420Z</time>
      </trkpt>
      <trkpt lat="47.03004" lon="9.00131">
        <ele>854</ele>
        <time>2021-08-02T09:47:56.420Z</time>
      </trkpt>
      <trkpt lat="47.03004" lon="9.0013">
        <ele>854</ele>
        <time>2021-08-02T09:47:57.420Z</time>
      </trkpt>
      <trkpt lat="47.03003" lon="9.00129">
        <ele>852</ele>
        <time>2021-08-02T09:47:58.420Z</time>
      </trkpt>
      <trkpt lat="47.03002" lon="9.00129">
        <ele>851</ele>
        <time>2021-08-02T09:47:59.420Z</time>
      </trkpt>
      <trkpt lat="47.03002" lon="9.00128">
        <ele>850</ele>
        <time>2021-08-02T09:48:00.420Z</time>
      </trkpt>
      <trkpt lat="47.03001" lon="9.00128">
        <ele>850</ele>
        <time>2021-08-02T09:48:01.419Z</time>
      </trkpt>
      <trkpt lat="47.03001" lon="9.00129">
        <ele>849</ele>
        <time>2021-08-02T09:48:02.419Z</time>
      </trkpt>
      <trkpt lat="47.03001" lon="9.00129">
        <ele>849</ele>
        <time>2021-08-02T09:48:03.420Z</time>
      </trkpt>
      <trkpt lat="47.03003" lon="9.0013">
        <ele>848</ele>
        <time>2021-08-02T09:48:04.419Z</time>
      </trkpt>
      <trkpt lat="47.03003" lon="9.0013">
        <ele>847</ele>
        <time>2021-08-02T09:48:05.419Z</time>
      </trkpt>
      <trkpt lat="47.03003" lon="9.0013">
        <ele>847</ele>
        <time>2021-08-02T09:48:06.419Z</time>
      </trkpt>
      <trkpt lat="47.03004" lon="9.0013">
        <ele>847</ele>
        <time>2021-08-02T09:48:07.419Z</time>
      </trkpt>
      <trkpt lat="47.03005" lon="9.00129">
        <ele>847</ele>
        <time>2021-08-02T09:48:08.419Z</time>
      </trkpt>
      <trkpt lat="47.03007" lon="9.00129">
        <ele>846</ele>
        <time>2021-08-02T09:48:09.419Z</time>
      </trkpt>
      <trkpt lat="47.03009" lon="9.00128">
        <ele>846</ele>
        <time>2021-08-02T09:48:10.419Z</time>
      </trkpt>
      <trkpt lat="47.0301" lon="9.00127">
        <ele>846</ele>
        <time>2021-08-02T09:48:11.419Z</time>
      </trkpt>
      <trkpt lat="47.03012" lon="9.00126">
        <ele>846</ele>
        <time>2021-08-02T09:48:12.420Z</time>
      </trkpt>
      <trkpt lat="47.03013" lon="9.00126">
        <ele>845</ele>
        <time>2021-08-02T09:48:13.419Z</time>
      </trkpt>
      <trkpt lat="47.03013" lon="9.00125">
        <ele>845</ele>
        <time>2021-08-02T09:48:14.419Z</time>
      </trkpt>
      <trkpt lat="47.03013" lon="9.00126">
        <ele>845</ele>
        <time>2021-08-02T09:48:15.420Z</time>
      </trkpt>
      <trkpt lat="47.03014" lon="9.00126">
        <ele>845</ele>
        <time>2021-08-02T09:48:16.419Z</time>
      </trkpt>
      <trkpt lat="47.03014" lon="9.00127">
        <ele>845</ele>
        <time>2021-08-02T09:48:17.419Z</time>
      </trkpt>
      <trkpt lat="47.03015" lon="9.00128">
        <ele>845</ele>
        <time>2021-08-02T09:48:18.419Z</time>
      </trkpt>
      <trkpt lat="47.03016" lon="9.00129">
        <ele>845</ele>
        <time>2021-08-02T09:48:19.420Z</time>
      </trkpt>
      <trkpt lat="47.03016" lon="9.00129">
        <ele>845</ele>
        <time>2021-08-02T09:48:20.419Z</time>
      </trkpt>
      <trkpt lat="47.03016" lon="9.00129">
        <ele>845</ele>
        <time>2021-08-02T09:48:21.420Z</time>
      </trkpt>
      <trkpt lat="47.03015" lon="9.00129">
        <ele>845</ele>
        <time>2021-08-02T09:48:22.420Z</time>
      </trkpt>
      <trkpt lat="47.03015" lon="9.00131">
        <ele>845</ele>
        <time>2021-08-02T09:48:23.420Z</time>
      </trkpt>
      <trkpt lat="47.03015" lon="9.00132">
        <ele>845</ele>
        <time>2021-08-02T09:48:24.419Z</time>
      </trkpt>
      <trkpt lat="47.03014" lon="9.00133">
        <ele>845</ele>
        <time>2021-08-02T09:48:25.420Z</time>
      </trkpt>
      <trkpt lat="47.03014" lon="9.00134">
        <ele>845</ele>
        <time>2021-08-02T09:48:26.419Z</time>
      </trkpt>
      <trkpt lat="47.03013" lon="9.00134">
        <ele>846</ele>
        <time>2021-08-02T09:48:27.419Z</time>
      </trkpt>
      <trkpt lat="47.03012" lon="9.00133">
        <ele>846</ele>
        <time>2021-08-02T09:48:28.419Z</time>
      </trkpt>
      <trkpt lat="47.0301" lon="9.00133">
        <ele>846</ele>
        <time>2021-08-02T09:48:29.419Z</time>
      </trkpt>
      <trkpt lat="47.03009" lon="9.00132">
        <ele>846</ele>
        <time>2021-08-02T09:48:30.420Z</time>
      </trkpt>
      <trkpt lat="47.03009" lon="9.00132">
        <ele>846</ele>
        <time>2021-08-02T09:48:31.419Z</time>
      </trkpt>
      <trkpt lat="47.03009" lon="9.00131">
        <ele>846</ele>
        <time>2021-08-02T09:48:32.419Z</time>
      </trkpt>
      <trkpt lat="47.0301" lon="9.00132">
        <ele>846</ele>
        <time>2021-08-02T09:48:33.420Z</time>
      </trkpt>
      <trkpt lat="47.0301" lon="9.00133">
        <ele>847</ele>
        <time>2021-08-02T09:48:34.419Z</time>
      </trkpt>
      <trkpt lat="47.03011" lon="9.00134">
        <ele>847</ele>
        <time>2021-08-02T09:48:35.420Z</time>
      </trkpt>
      <trkpt lat="47.0301" lon="9.00133">
        <ele>847</ele>
        <time>2021-08-02T09:48:36.420Z</time>
      </trkpt>
      <trkpt lat="47.03008" lon="9.00133">
        <ele>847</ele>
        <time>2021-08-02T09:48:37.419Z</time>
      </trkpt>
      <trkpt lat="47.03008" lon="9.00134">
        <ele>847</ele>
        <time>2021-08-02T09:48:38.419Z</time>
      </trkpt>
      <trkpt lat="47.03007" lon="9.00134">
        <ele>847</ele>
        <time>2021-08-02T09:48:39.419Z</time>
      </trkpt>
      <trkpt lat="47.03007" lon="9.00135">
        <ele>847</ele>
        <time>2021-08-02T09:48:40.419Z</time>
      </trkpt>
      <trkpt lat="47.03007" lon="9.00134">
        <ele>847</ele>
        <time>2021-08-02T09:48:41.420Z</time>
      </trkpt>
      <trkpt lat="47.03007" lon="9.00134">
        <ele>847</ele>
        <time>2021-08-02T09:48:42.420Z</time>
      </trkpt>
      <trkpt lat="47.03006" lon="9.00135">
        <ele>847</ele>
        <time>2021-08-02T09:48:43.421Z</time>
      </trkpt>
      <trkpt lat="47.03005" lon="9.00136">
        <ele>847</ele>
        <time>2021-08-02T09:48:44.420Z</time>
      </trkpt>
      <trkpt lat="47.03004" lon="9.00136">
        <ele>847</ele>
        <time>2021-08-02T09:48:45.420Z</time>
      </trkpt>
      <trkpt lat="47.03003" lon="9.00137">
        <ele>847</ele>
        <time>2021-08-02T09:48:46.421Z</time>
      </trkpt>
      <trkpt lat="47.03002" lon="9.00136">
        <ele>847</ele>
        <time>2021-08-02T09:48:47.420Z</time>
      </trkpt>
      <trkpt lat="47.03001" lon="9.00137">
        <ele>847</ele>
        <time>2021-08-02T09:48:48.421Z</time>
      </trkpt>
      <trkpt lat="47.03002" lon="9.00138">
        <ele>846</ele>
        <time>2021-08-02T09:48:49.422Z</time>
      </trkpt>
      <trkpt lat="47.03002" lon="9.00138">
        <ele>847</ele>
        <time>2021-08-02T09:48:50.421Z</time>
      </trkpt>
      <trkpt lat="47.03002" lon="9.00139">
        <ele>847</ele>
        <time>2021-08-02T09:48:51.421Z</time>
      </trkpt>
      <trkpt lat="47.03002" lon="9.00139">
        <ele>847</ele>
        <time>2021-08-02T09:48:52.421Z</time>
      </trkpt>
      <trkpt lat="47.03" lon="9.00138">
        <ele>849</ele>
        <time>2021-08-02T09:48:53.423Z</time>
      </trkpt>
      <trkpt lat="47.03" lon="9.00138">
        <ele>849</ele>
        <time>2021-08-02T09:48:54.422Z</time>
      </trkpt>
      <trkpt lat="47.03" lon="9.00138">
        <ele>849</ele>
        <time>2021-08-02T09:48:55.422Z</time>
      </trkpt>
      <trkpt lat="47.03" lon="9.00139">
        <ele>850</ele>
        <time>2021-08-02T09:48:56.424Z</time>
      </trkpt>
      <trkpt lat="47.03" lon="9.00139">
        <ele>850</ele>
        <time>2021-08-02T09:48:57.423Z</time>
      </trkpt>
      <trkpt lat="47.02999" lon="9.00139">
        <ele>850</ele>
        <time>2021-08-02T09:48:58.423Z</time>
      </trkpt>
      <trkpt lat="47.02999" lon="9.0014">
        <ele>851</ele>
        <time>2021-08-02T09:48:59.424Z</time>
      </trkpt>
      <trkpt lat="47.02999" lon="9.0014">
        <ele>851</ele>
        <time>2021-08-02T09:49:00.424Z</time>
      </trkpt>
      <trkpt lat="47.02999" lon="9.0014">
        <ele>852</ele>
        <time>2021-08-02T09:49:01.423Z</time>
      </trkpt>
      <trkpt lat="47.02997" lon="9.00139">
        <ele>854</ele>
        <time>2021-08-02T09:49:02.424Z</time>
      </trkpt>
      <trkpt lat="47.02996" lon="9.00139">
        <ele>854</ele>
        <time>2021-08-02T09:49:03.424Z</time>
      </trkpt>
      <trkpt lat="47.02994" lon="9.00139">
        <ele>854</ele>
        <time>2021-08-02T09:49:04.423Z</time>
      </trkpt>
      <trkpt lat="47.02995" lon="9.00139">
        <ele>855</ele>
        <time>2021-08-02T09:49:05.423Z</time>
      </trkpt>
      <trkpt lat="47.02996" lon="9.00139">
        <ele>855</ele>
        <time>2021-08-02T09:49:06.423Z</time>
      </trkpt>
      <trkpt lat="47.02996" lon="9.00139">
        <ele>855</ele>
        <time>2021-08-02T09:49:07.424Z</time>
      </trkpt>
      <trkpt lat="47.02997" lon="9.00139">
        <ele>855</ele>
        <time>2021-08-02T09:49:08.424Z</time>
      </trkpt>
      <trkpt lat="47.02998" lon="9.0014">
        <ele>855</ele>
        <time>2021-08-02T09:49:09.424Z</time>
      </trkpt>
      <trkpt lat="47.02998" lon="9.00141">
        <ele>855</ele>
        <time>2021-08-02T09:49:10.424Z</time>
      </trkpt>
      <trkpt lat="47.02999" lon="9.00142">
        <ele>855</ele>
        <time>2021-08-02T09:49:11.424Z</time>
      </trkpt>
      <trkpt lat="47.03" lon="9.00144">
        <ele>856</ele>
        <time>2021-08-02T09:49:12.424Z</time>
      </trkpt>
      <trkpt lat="47.03" lon="9.00145">
        <ele>856</ele>
        <time>2021-08-02T09:49:13.424Z</time>
      </trkpt>
      <trkpt lat="47.03" lon="9.00145">
        <ele>856</ele>
        <time>2021-08-02T09:49:14.423Z</time>
      </trkpt>
      <trkpt lat="47.03" lon="9.00145">
        <ele>857</ele>
        <time>2021-08-02T09:49:15.423Z</time>
      </trkpt>
      <trkpt lat="47.03" lon="9.00146">
        <ele>857</ele>
        <time>2021-08-02T09:49:16.423Z</time>
      </trkpt>
      <trkpt lat="47.03001" lon="9.00146">
        <ele>858</ele>
        <time>2021-08-02T09:49:17.423Z</time>
      </trkpt>
      <trkpt lat="47.03001" lon="9.00146">
        <ele>858</ele>
        <time>2021-08-02T09:49:18.424Z</time>
      </trkpt>
      <trkpt lat="47.03002" lon="9.00147">
        <ele>859</ele>
        <time>2021-08-02T09:49:19.424Z</time>
      </trkpt>
      <trkpt lat="47.03003" lon="9.00147">
        <ele>859</ele>
        <time>2021-08-02T09:49:20.424Z</time>
      </trkpt>
      <trkpt lat="47.03005" lon="9.00147">
        <ele>859</ele>
        <time>2021-08-02T09:49:21.424Z</time>
      </trkpt>
      <trkpt lat="47.03006" lon="9.00147">
        <ele>860</ele>
        <time>2021-08-02T09:49:22.424Z</time>
      </trkpt>
      <trkpt lat="47.03006" lon="9.00147">
        <ele>860</ele>
        <time>2021-08-02T09:49:23.423Z</time>
      </trkpt>
      <trkpt lat="47.03006" lon="9.00147">
        <ele>861</ele>
        <time>2021-08-02T09:49:24.424Z</time>
      </trkpt>
      <trkpt lat="47.03005" lon="9.00146">
        <ele>861</ele>
        <time>2021-08-02T09:49:25.424Z</time>
      </trkpt>
      <trkpt lat="47.03004" lon="9.00145">
        <ele>861</ele>
        <time>2021-08-02T09:49:26.423Z</time>
      </trkpt>
      <trkpt lat="47.03004" lon="9.00146">
        <ele>861</ele>
        <time>2021-08-02T09:49:27.424Z</time>
      </trkpt>
      <trkpt lat="47.03003" lon="9.00146">
        <ele>861</ele>
        <time>2021-08-02T09:49:28.424Z</time>
      </trkpt>
      <trkpt lat="47.03003" lon="9.00146">
        <ele>861</ele>
        <time>2021-08-02T09:49:29.424Z</time>
      </trkpt>
      <trkpt lat="47.03001" lon="9.00146">
        <ele>860</ele>
        <time>2021-08-02T09:49:30.423Z</time>
      </trkpt>
      <trkpt lat="47.03001" lon="9.00145">
        <ele>860</ele>
        <time>2021-08-02T09:49:31.424Z</time>
      </trkpt>
      <trkpt lat="47.03" lon="9.00145">
        <ele>860</ele>
        <time>2021-08-02T09:49:32.424Z</time>
      </trkpt>
      <trkpt lat="47.02999" lon="9.00143">
        <ele>859</ele>
        <time>2021-08-02T09:49:33.426Z</time>
      </trkpt>
      <trkpt lat="47.02999" lon="9.00144">
        <ele>859</ele>
        <time>2021-08-02T09:49:34.426Z</time>
      </trkpt>
      <trkpt lat="47.02998" lon="9.00143">
        <ele>859</ele>
        <time>2021-08-02T09:49:35.425Z</time>
      </trkpt>
      <trkpt lat="47.02998" lon="9.00143">
        <ele>859</ele>
        <time>2021-08-02T09:49:36.426Z</time>
      </trkpt>
      <trkpt lat="47.02997" lon="9.00143">
        <ele>859</ele>
        <time>2021-08-02T09:49:37.426Z</time>
      </trkpt>
      <trkpt lat="47.02998" lon="9.00143">
        <ele>859</ele>
        <time>2021-08-02T09:49:38.426Z</time>
      </trkpt>
      <trkpt lat="47.02998" lon="9.00141">
        <ele>859</ele>
        <time>2021-08-02T09:49:39.426Z</time>
      </trkpt>
      <trkpt lat="47.02997" lon="9.00139">
        <ele>858</ele>
        <time>2021-08-02T09:49:40.426Z</time>
      </trkpt>
      <trkpt lat="47.02997" lon="9.00137">
        <ele>858</ele>
        <time>2021-08-02T09:49:41.426Z</time>
      </trkpt>
      <trkpt lat="47.02997" lon="9.00136">
        <ele>858</ele>
        <time>2021-08-02T09:49:42.426Z</time>
      </trkpt>
      <trkpt lat="47.02996" lon="9.00134">
        <ele>858</ele>
        <time>2021-08-02T09:49:43.425Z</time>
      </trkpt>
      <trkpt lat="47.02997" lon="9.00132">
        <ele>858</ele>
        <time>2021-08-02T09:49:44.426Z</time>
      </trkpt>
      <trkpt lat="47.02998" lon="9.00124">
        <ele>858</ele>
        <time>2021-08-02T09:49:54.426Z</time>
      </trkpt>
      <trkpt lat="47.03006" lon="9.00118">
        <ele>858</ele>
        <time>2021-08-02T09:49:55.426Z</time>
      </trkpt>
      <trkpt lat="47.03017" lon="9.00116">
        <ele>858</ele>
        <time>2021-08-02T09:49:56.426Z</time>
      </trkpt>
      <trkpt lat="47.03013" lon="9.00116">
        <ele>858</ele>
        <time>2021-08-02T09:49:57.426Z</time>
      </trkpt>
      <trkpt lat="47.03016" lon="9.00114">
        <ele>858</ele>
        <time>2021-08-02T09:49:58.426Z</time>
      </trkpt>
      <trkpt lat="47.03018" lon="9.00114">
        <ele>858</ele>
        <time>2021-08-02T09:49:59.425Z</time>
      </trkpt>
      <trkpt lat="47.03021" lon="9.00114">
        <ele>858</ele>
        <time>2021-08-02T09:50:00.426Z</time>
      </trkpt>
      <trkpt lat="47.03021" lon="9.00112">
        <ele>857</ele>
        <time>2021-08-02T09:50:01.426Z</time>
      </trkpt>
      <trkpt lat="47.03025" lon="9.00113">
        <ele>857</ele>
        <time>2021-08-02T09:50:02.426Z</time>
      </trkpt>
      <trkpt lat="47.03028" lon="9.00113">
        <ele>857</ele>
        <time>2021-08-02T09:50:03.425Z</time>
      </trkpt>
      <trkpt lat="47.0303" lon="9.00113">
        <ele>856</ele>
        <time>2021-08-02T09:50:04.426Z</time>
      </trkpt>
      <trkpt lat="47.03029" lon="9.00112">
        <ele>856</ele>
        <time>2021-08-02T09:50:05.425Z</time>
      </trkpt>
      <trkpt lat="47.03027" lon="9.00114">
        <ele>855</ele>
        <time>2021-08-02T09:50:06.426Z</time>
      </trkpt>
      <trkpt lat="47.03023" lon="9.00116">
        <ele>855</ele>
        <time>2021-08-02T09:50:07.425Z</time>
      </trkpt>
      <trkpt lat="47.03019" lon="9.00118">
        <ele>855</ele>
        <time>2021-08-02T09:50:08.426Z</time>
      </trkpt>
      <trkpt lat="47.03013" lon="9.0012">
        <ele>854</ele>
        <time>2021-08-02T09:50:09.425Z</time>
      </trkpt>
      <trkpt lat="47.0301" lon="9.00121">
        <ele>854</ele>
        <time>2021-08-02T09:50:10.426Z</time>
      </trkpt>
      <trkpt lat="47.03009" lon="9.00122">
        <ele>854</ele>
        <time>2021-08-02T09:50:11.425Z</time>
      </trkpt>
      <trkpt lat="47.03007" lon="9.00124">
        <ele>853</ele>
        <time>2021-08-02T09:50:12.425Z</time>
      </trkpt>
      <trkpt lat="47.03006" lon="9.00124">
        <ele>853</ele>
        <time>2021-08-02T09:50:13.425Z</time>
      </trkpt>
      <trkpt lat="47.03006" lon="9.00124">
        <ele>852</ele>
        <time>2021-08-02T09:50:14.425Z</time>
      </trkpt>
      <trkpt lat="47.03007" lon="9.00124">
        <ele>852</ele>
        <time>2021-08-02T09:50:15.426Z</time>
      </trkpt>
      <trkpt lat="47.03007" lon="9.00124">
        <ele>852</ele>
        <time>2021-08-02T09:50:16.426Z</time>
      </trkpt>
      <trkpt lat="47.03008" lon="9.00124">
        <ele>851</ele>
        <time>2021-08-02T09:50:17.426Z</time>
      </trkpt>
      <trkpt lat="47.03009" lon="9.00124">
        <ele>851</ele>
        <time>2021-08-02T09:50:18.425Z</time>
      </trkpt>
      <trkpt lat="47.03009" lon="9.00124">
        <ele>851</ele>
        <time>2021-08-02T09:50:19.426Z</time>
      </trkpt>
      <trkpt lat="47.03009" lon="9.00125">
        <ele>850</ele>
        <time>2021-08-02T09:50:20.426Z</time>
      </trkpt>
      <trkpt lat="47.03009" lon="9.00125">
        <ele>850</ele>
        <time>2021-08-02T09:50:21.426Z</time>
      </trkpt>
      <trkpt lat="47.03008" lon="9.00126">
        <ele>850</ele>
        <time>2021-08-02T09:50:22.425Z</time>
      </trkpt>
      <trkpt lat="47.03006" lon="9.00128">
        <ele>850</ele>
        <time>2021-08-02T09:50:23.426Z</time>
      </trkpt>
      <trkpt lat="47.03003" lon="9.00129">
        <ele>849</ele>
        <time>2021-08-02T09:50:24.426Z</time>
      </trkpt>
      <trkpt lat="47.03" lon="9.0013">
        <ele>849</ele>
        <time>2021-08-02T09:50:25.426Z</time>
      </trkpt>
      <trkpt lat="47.02997" lon="9.0013">
        <ele>849</ele>
        <time>2021-08-02T09:50:26.426Z</time>
      </trkpt>
      <trkpt lat="47.02996" lon="9.00131">
        <ele>849</ele>
        <time>2021-08-02T09:50:27.425Z</time>
      </trkpt>
      <trkpt lat="47.02995" lon="9.00131">
        <ele>849</ele>
        <time>2021-08-02T09:50:28.426Z</time>
      </trkpt>
      <trkpt lat="47.02996" lon="9.0013">
        <ele>849</ele>
        <time>2021-08-02T09:50:29.425Z</time>
      </trkpt>
      <trkpt lat="47.02995" lon="9.0013">
        <ele>849</ele>
        <time>2021-08-02T09:50:30.426Z</time>
      </trkpt>
      <trkpt lat="47.02996" lon="9.00129">
        <ele>849</ele>
        <time>2021-08-02T09:50:31.425Z</time>
      </trkpt>
      <trkpt lat="47.02997" lon="9.00129">
        <ele>849</ele>
        <time>2021-08-02T09:50:32.426Z</time>
      </trkpt>
      <trkpt lat="47.02997" lon="9.00129">
        <ele>850</ele>
        <time>2021-08-02T09:50:33.426Z</time>
      </trkpt>
      <trkpt lat="47.02998" lon="9.00128">
        <ele>850</ele>
        <time>2021-08-02T09:50:34.426Z</time>
      </trkpt>
      <trkpt lat="47.02998" lon="9.00128">
        <ele>851</ele>
        <time>2021-08-02T09:50:35.426Z</time>
      </trkpt>
      <trkpt lat="47.02999" lon="9.00129">
        <ele>853</ele>
        <time>2021-08-02T09:50:36.425Z</time>
      </trkpt>
      <trkpt lat="47.02998" lon="9.00129">
        <ele>854</ele>
        <time>2021-08-02T09:50:37.425Z</time>
      </trkpt>
      <trkpt lat="47.02998" lon="9.00129">
        <ele>855</ele>
        <time>2021-08-02T09:50:38.426Z</time>
      </trkpt>
      <trkpt lat="47.02998" lon="9.00129">
        <ele>856</ele>
        <time>2021-08-02T09:50:39.426Z</time>
      </trkpt>
      <trkpt lat="47.02997" lon="9.00128">
        <ele>856</ele>
        <time>2021-08-02T09:50:40.426Z</time>
      </trkpt>
      <trkpt lat="47.02996" lon="9.00128">
        <ele>857</ele>
        <time>2021-08-02T09:50:41.426Z</time>
      </trkpt>
      <trkpt lat="47.02995" lon="9.00128">
        <ele>857</ele>
        <time>2021-08-02T09:50:42.425Z</time>
      </trkpt>
      <trkpt lat="47.02994" lon="9.00128">
        <ele>857</ele>
        <time>2021-08-02T09:50:43.426Z</time>
      </trkpt>
      <trkpt lat="47.02994" lon="9.00129">
        <ele>857</ele>
        <time>2021-08-02T09:50:44.425Z</time>
      </trkpt>
      <trkpt lat="47.02993" lon="9.00129">
        <ele>857</ele>
        <time>2021-08-02T09:50:45.426Z</time>
      </trkpt>
      <trkpt lat="47.02993" lon="9.00129">
        <ele>858</ele>
        <time>2021-08-02T09:50:46.425Z</time>
      </trkpt>
      <trkpt lat="47.02992" lon="9.0013">
        <ele>858</ele>
        <time>2021-08-02T09:50:47.426Z</time>
      </trkpt>
      <trkpt lat="47.02991" lon="9.00132">
        <ele>859</ele>
        <time>2021-08-02T09:50:48.426Z</time>
      </trkpt>
      <trkpt lat="47.02992" lon="9.00134">
        <ele>859</ele>
        <time>2021-08-02T09:50:49.426Z</time>
      </trkpt>
      <trkpt lat="47.02993" lon="9.00135">
        <ele>859</ele>
        <time>2021-08-02T09:50:50.425Z</time>
      </trkpt>
      <trkpt lat="47.02993" lon="9.00137">
        <ele>859</ele>
        <time>2021-08-02T09:50:51.426Z</time>
      </trkpt>
      <trkpt lat="47.02991" lon="9.00139">
        <ele>859</ele>
        <time>2021-08-02T09:50:52.426Z</time>
      </trkpt>
      <trkpt lat="47.02991" lon="9.0014">
        <ele>859</ele>
        <time>2021-08-02T09:50:53.426Z</time>
      </trkpt>
      <trkpt lat="47.02992" lon="9.0014">
        <ele>859</ele>
        <time>2021-08-02T09:50:54.425Z</time>
      </trkpt>
      <trkpt lat="47.02996" lon="9.00141">
        <ele>858</ele>
        <time>2021-08-02T09:50:55.426Z</time>
      </trkpt>
      <trkpt lat="47.03" lon="9.00142">
        <ele>858</ele>
        <time>2021-08-02T09:50:56.426Z</time>
      </trkpt>
      <trkpt lat="47.03002" lon="9.00142">
        <ele>857</ele>
        <time>2021-08-02T09:50:57.425Z</time>
      </trkpt>
      <trkpt lat="47.03002" lon="9.00143">
        <ele>857</ele>
        <time>2021-08-02T09:50:58.426Z</time>
      </trkpt>
      <trkpt lat="47.03001" lon="9.00144">
        <ele>857</ele>
        <time>2021-08-02T09:50:59.426Z</time>
      </trkpt>
      <trkpt lat="47.03001" lon="9.00145">
        <ele>857</ele>
        <time>2021-08-02T09:51:00.425Z</time>
      </trkpt>
      <trkpt lat="47.03" lon="9.00146">
        <ele>857</ele>
        <time>2021-08-02T09:51:01.426Z</time>
      </trkpt>
      <trkpt lat="47.03" lon="9.00146">
        <ele>857</ele>
        <time>2021-08-02T09:51:02.425Z</time>
      </trkpt>
      <trkpt lat="47.03" lon="9.00145">
        <ele>857</ele>
        <time>2021-08-02T09:51:03.425Z</time>
      </trkpt>
      <trkpt lat="47.03001" lon="9.00143">
        <ele>857</ele>
        <time>2021-08-02T09:51:04.426Z</time>
      </trkpt>
      <trkpt lat="47.03002" lon="9.00144">
        <ele>857</ele>
        <time>2021-08-02T09:51:05.426Z</time>
      </trkpt>
      <trkpt lat="47.03002" lon="9.00143">
        <ele>857</ele>
        <time>2021-08-02T09:51:06.426Z</time>
      </trkpt>
      <trkpt lat="47.03002" lon="9.00143">
        <ele>856</ele>
        <time>2021-08-02T09:51:07.426Z</time>
      </trkpt>
      <trkpt lat="47.03002" lon="9.00142">
        <ele>856</ele>
        <time>2021-08-02T09:51:08.426Z</time>
      </trkpt>
      <trkpt lat="47.03001" lon="9.00142">
        <ele>856</ele>
        <time>2021-08-02T09:51:09.425Z</time>
      </trkpt>
      <trkpt lat="47.03001" lon="9.00141">
        <ele>855</ele>
        <time>2021-08-02T09:51:10.426Z</time>
      </trkpt>
      <trkpt lat="47.03" lon="9.00143">
        <ele>855</ele>
        <time>2021-08-02T09:51:11.425Z</time>
      </trkpt>
      <trkpt lat="47.02999" lon="9.00144">
        <ele>854</ele>
        <time>2021-08-02T09:51:12.426Z</time>
      </trkpt>
      <trkpt lat="47.03" lon="9.00143">
        <ele>854</ele>
        <time>2021-08-02T09:51:13.426Z</time>
      </trkpt>
      <trkpt lat="47.03013" lon="9.00129">
        <ele>847</ele>
        <time>2021-08-02T09:51:14.426Z</time>
      </trkpt>
      <trkpt lat="47.03012" lon="9.00127">
        <ele>847</ele>
        <time>2021-08-02T09:51:15.426Z</time>
      </trkpt>
      <trkpt lat="47.03011" lon="9.00125">
        <ele>847</ele>
        <time>2021-08-02T09:51:35.533Z</time>
      </trkpt>
      <trkpt lat="47.0301" lon="9.00124">
        <ele>847</ele>
        <time>2021-08-02T09:51:36.534Z</time>
      </trkpt>
      <trkpt lat="47.03009" lon="9.00123">
        <ele>847</ele>
        <time>2021-08-02T09:51:37.534Z</time>
      </trkpt>
      <trkpt lat="47.03009" lon="9.00121">
        <ele>848</ele>
        <time>2021-08-02T09:51:38.534Z</time>
      </trkpt>
      <trkpt lat="47.03008" lon="9.0012">
        <ele>848</ele>
        <time>2021-08-02T09:51:39.534Z</time>
      </trkpt>
      <trkpt lat="47.03008" lon="9.0012">
        <ele>848</ele>
        <time>2021-08-02T09:51:40.534Z</time>
      </trkpt>
      <trkpt lat="47.03007" lon="9.00119">
        <ele>849</ele>
        <time>2021-08-02T09:51:41.534Z</time>
      </trkpt>
      <trkpt lat="47.03007" lon="9.00118">
        <ele>849</ele>
        <time>2021-08-02T09:51:42.534Z</time>
      </trkpt>
      <trkpt lat="47.03006" lon="9.00117">
        <ele>850</ele>
        <time>2021-08-02T09:51:43.533Z</time>
      </trkpt>
      <trkpt lat="47.03005" lon="9.00117">
        <ele>850</ele>
        <time>2021-08-02T09:51:44.533Z</time>
      </trkpt>
      <trkpt lat="47.03004" lon="9.00115">
        <ele>851</ele>
        <time>2021-08-02T09:51:45.534Z</time>
      </trkpt>
      <trkpt lat="47.03003" lon="9.00114">
        <ele>851</ele>
        <time>2021-08-02T09:51:46.534Z</time>
      </trkpt>
      <trkpt lat="47.03003" lon="9.00113">
        <ele>850</ele>
        <time>2021-08-02T09:51:47.533Z</time>
      </trkpt>
      <trkpt lat="47.03002" lon="9.00112">
        <ele>850</ele>
        <time>2021-08-02T09:51:48.534Z</time>
      </trkpt>
      <trkpt lat="47.03001" lon="9.0011">
        <ele>850</ele>
        <time>2021-08-02T09:51:49.534Z</time>
      </trkpt>
      <trkpt lat="47.03" lon="9.00109">
        <ele>850</ele>
        <time>2021-08-02T09:51:50.534Z</time>
      </trkpt>
      <trkpt lat="47.02999" lon="9.00107">
        <ele>850</ele>
        <time>2021-08-02T09:51:51.534Z</time>
      </trkpt>
      <trkpt lat="47.02998" lon="9.00105">
        <ele>850</ele>
        <time>2021-08-02T09:51:52.533Z</time>
      </trkpt>
      <trkpt lat="47.02997" lon="9.00104">
        <ele>850</ele>
        <time>2021-08-02T09:51:53.534Z</time>
      </trkpt>
      <trkpt lat="47.02995" lon="9.00101">
        <ele>850</ele>
        <time>2021-08-02T09:51:54.534Z</time>
      </trkpt>
      <trkpt lat="47.02995" lon="9.00101">
        <ele>850</ele>
        <time>2021-08-02T09:51:55.534Z</time>
      </trkpt>
      <trkpt lat="47.02994" lon="9.001">
        <ele>850</ele>
        <time>2021-08-02T09:51:56.533Z</time>
      </trkpt>
      <trkpt lat="47.02994" lon="9.00099">
        <ele>850</ele>
        <time>2021-08-02T09:51:57.533Z</time>
      </trkpt>
      <trkpt lat="47.02993" lon="9.00097">
        <ele>850</ele>
        <time>2021-08-02T09:51:58.533Z</time>
      </trkpt>
      <trkpt lat="47.02993" lon="9.00096">
        <ele>850</ele>
        <time>2021-08-02T09:51:59.533Z</time>
      </trkpt>
      <trkpt lat="47.02992" lon="9.00095">
        <ele>850</ele>
        <time>2021-08-02T09:52:00.533Z</time>
      </trkpt>
      <trkpt lat="47.02991" lon="9.00094">
        <ele>851</ele>
        <time>2021-08-02T09:52:01.533Z</time>
      </trkpt>
      <trkpt lat="47.02991" lon="9.00093">
        <ele>851</ele>
        <time>2021-08-02T09:52:02.533Z</time>
      </trkpt>
      <trkpt lat="47.02991" lon="9.00092">
        <ele>851</ele>
        <time>2021-08-02T09:52:03.534Z</time>
      </trkpt>
      <trkpt lat="47.02991" lon="9.0009">
        <ele>852</ele>
        <time>2021-08-02T09:52:04.533Z</time>
      </trkpt>
      <trkpt lat="47.02991" lon="9.0009">
        <ele>853</ele>
        <time>2021-08-02T09:52:05.533Z</time>
      </trkpt>
      <trkpt lat="47.02991" lon="9.00089">
        <ele>853</ele>
        <time>2021-08-02T09:52:06.533Z</time>
      </trkpt>
      <trkpt lat="47.0299" lon="9.00089">
        <ele>853</ele>
        <time>2021-08-02T09:52:07.533Z</time>
      </trkpt>
      <trkpt lat="47.0299" lon="9.00088">
        <ele>853</ele>
        <time>2021-08-02T09:52:08.534Z</time>
      </trkpt>
      <trkpt lat="47.02989" lon="9.00087">
        <ele>853</ele>
        <time>2021-08-02T09:52:09.533Z</time>
      </trkpt>
      <trkpt lat="47.02989" lon="9.00087">
        <ele>853</ele>
        <time>2021-08-02T09:52:10.533Z</time>
      </trkpt>
      <trkpt lat="47.02985" lon="9.0008">
        <ele>853</ele>
        <time>2021-08-02T09:52:11.533Z</time>
      </trkpt>
      <trkpt lat="47.02983" lon="9.00078">
        <ele>854</ele>
        <time>2021-08-02T09:52:12.533Z</time>
      </trkpt>
      <trkpt lat="47.02981" lon="9.00077">
        <ele>854</ele>
        <time>2021-08-02T09:52:13.533Z</time>
      </trkpt>
      <trkpt lat="47.02979" lon="9.00078">
        <ele>854</ele>
        <time>2021-08-02T09:52:14.534Z</time>
      </trkpt>
      <trkpt lat="47.02978" lon="9.00078">
        <ele>854</ele>
        <time>2021-08-02T09:52:15.534Z</time>
      </trkpt>
      <trkpt lat="47.02977" lon="9.00078">
        <ele>854</ele>
        <time>2021-08-02T09:52:16.534Z</time>
      </trkpt>
      <trkpt lat="47.02974" lon="9.00076">
        <ele>853</ele>
        <time>2021-08-02T09:52:17.535Z</time>
      </trkpt>
      <trkpt lat="47.02974" lon="9.00075">
        <ele>853</ele>
        <time>2021-08-02T09:52:18.536Z</time>
      </trkpt>
      <trkpt lat="47.02973" lon="9.00074">
        <ele>853</ele>
        <time>2021-08-02T09:52:19.536Z</time>
      </trkpt>
      <trkpt lat="47.02972" lon="9.00074">
        <ele>852</ele>
        <time>2021-08-02T09:52:20.536Z</time>
      </trkpt>
      <trkpt lat="47.02972" lon="9.00073">
        <ele>852</ele>
        <time>2021-08-02T09:52:21.536Z</time>
      </trkpt>
      <trkpt lat="47.02971" lon="9.00072">
        <ele>852</ele>
        <time>2021-08-02T09:52:22.535Z</time>
      </trkpt>
      <trkpt lat="47.0297" lon="9.00071">
        <ele>851</ele>
        <time>2021-08-02T09:52:23.536Z</time>
      </trkpt>
      <trkpt lat="47.0297" lon="9.00071">
        <ele>851</ele>
        <time>2021-08-02T09:52:24.536Z</time>
      </trkpt>
      <trkpt lat="47.02969" lon="9.0007">
        <ele>850</ele>
        <time>2021-08-02T09:52:25.535Z</time>
      </trkpt>
      <trkpt lat="47.02969" lon="9.00069">
        <ele>850</ele>
        <time>2021-08-02T09:52:26.536Z</time>
      </trkpt>
      <trkpt lat="47.02969" lon="9.00068">
        <ele>850</ele>
        <time>2021-08-02T09:52:27.536Z</time>
      </trkpt>
      <trkpt lat="47.02969" lon="9.00067">
        <ele>850</ele>
        <time>2021-08-02T09:52:28.536Z</time>
      </trkpt>
      <trkpt lat="47.02968" lon="9.00066">
        <ele>849</ele>
        <time>2021-08-02T09:52:29.536Z</time>
      </trkpt>
      <trkpt lat="47.02967" lon="9.00065">
        <ele>849</ele>
        <time>2021-08-02T09:52:30.535Z</time>
      </trkpt>
      <trkpt lat="47.02967" lon="9.00063">
        <ele>849</ele>
        <time>2021-08-02T09:52:31.535Z</time>
      </trkpt>
      <trkpt lat="47.02966" lon="9.00063">
        <ele>848</ele>
        <time>2021-08-02T09:52:32.536Z</time>
      </trkpt>
      <trkpt lat="47.02965" lon="9.00061">
        <ele>848</ele>
        <time>2021-08-02T09:52:33.535Z</time>
      </trkpt>
      <trkpt lat="47.02964" lon="9.00059">
        <ele>848</ele>
        <time>2021-08-02T09:52:34.535Z</time>
      </trkpt>
      <trkpt lat="47.02963" lon="9.00057">
        <ele>848</ele>
        <time>2021-08-02T09:52:35.536Z</time>
      </trkpt>
      <trkpt lat="47.02962" lon="9.00056">
        <ele>848</ele>
        <time>2021-08-02T09:52:36.536Z</time>
      </trkpt>
      <trkpt lat="47.0296" lon="9.00056">
        <ele>848</ele>
        <time>2021-08-02T09:52:37.535Z</time>
      </trkpt>
      <trkpt lat="47.02959" lon="9.00056">
        <ele>848</ele>
        <time>2021-08-02T09:52:38.536Z</time>
      </trkpt>
      <trkpt lat="47.02958" lon="9.00056">
        <ele>848</ele>
        <time>2021-08-02T09:52:39.536Z</time>
      </trkpt>
      <trkpt lat="47.02958" lon="9.00055">
        <ele>848</ele>
        <time>2021-08-02T09:52:40.536Z</time>
      </trkpt>
      <trkpt lat="47.02958" lon="9.00055">
        <ele>848</ele>
        <time>2021-08-02T09:52:41.536Z</time>
      </trkpt>
      <trkpt lat="47.02953" lon="9.00051">
        <ele>848</ele>
        <time>2021-08-02T09:52:42.537Z</time>
      </trkpt>
      <trkpt lat="47.02953" lon="9.00051">
        <ele>848</ele>
        <time>2021-08-02T09:52:43.536Z</time>
      </trkpt>
      <trkpt lat="47.02953" lon="9.00051">
        <ele>848</ele>
        <time>2021-08-02T09:52:44.536Z</time>
      </trkpt>
      <trkpt lat="47.02953" lon="9.0005">
        <ele>848</ele>
        <time>2021-08-02T09:52:45.536Z</time>
      </trkpt>
      <trkpt lat="47.02953" lon="9.00049">
        <ele>848</ele>
        <time>2021-08-02T09:52:46.536Z</time>
      </trkpt>
      <trkpt lat="47.02952" lon="9.00049">
        <ele>848</ele>
        <time>2021-08-02T09:52:47.536Z</time>
      </trkpt>
      <trkpt lat="47.02952" lon="9.00048">
        <ele>848</ele>
        <time>2021-08-02T09:52:48.536Z</time>
      </trkpt>
      <trkpt lat="47.02951" lon="9.00047">
        <ele>849</ele>
        <time>2021-08-02T09:52:49.536Z</time>
      </trkpt>
      <trkpt lat="47.0295" lon="9.00047">
        <ele>849</ele>
        <time>2021-08-02T09:52:50.536Z</time>
      </trkpt>
      <trkpt lat="47.02949" lon="9.00046">
        <ele>849</ele>
        <time>2021-08-02T09:52:51.536Z</time>
      </trkpt>
      <trkpt lat="47.02948" lon="9.00045">
        <ele>849</ele>
        <time>2021-08-02T09:52:52.536Z</time>
      </trkpt>
      <trkpt lat="47.02947" lon="9.00044">
        <ele>850</ele>
        <time>2021-08-02T09:52:53.536Z</time>
      </trkpt>
      <trkpt lat="47.02946" lon="9.00043">
        <ele>850</ele>
        <time>2021-08-02T09:52:54.536Z</time>
      </trkpt>
      <trkpt lat="47.02945" lon="9.00043">
        <ele>851</ele>
        <time>2021-08-02T09:52:55.536Z</time>
      </trkpt>
      <trkpt lat="47.02944" lon="9.00042">
        <ele>851</ele>
        <time>2021-08-02T09:52:56.536Z</time>
      </trkpt>
      <trkpt lat="47.02943" lon="9.00041">
        <ele>852</ele>
        <time>2021-08-02T09:52:57.537Z</time>
      </trkpt>
      <trkpt lat="47.02942" lon="9.00039">
        <ele>853</ele>
        <time>2021-08-02T09:52:58.536Z</time>
      </trkpt>
      <trkpt lat="47.02941" lon="9.00038">
        <ele>854</ele>
        <time>2021-08-02T09:52:59.537Z</time>
      </trkpt>
      <trkpt lat="47.02941" lon="9.00036">
        <ele>854</ele>
        <time>2021-08-02T09:53:00.536Z</time>
      </trkpt>
      <trkpt lat="47.02941" lon="9.00034">
        <ele>854</ele>
        <time>2021-08-02T09:53:01.536Z</time>
      </trkpt>
      <trkpt lat="47.0294" lon="9.00033">
        <ele>854</ele>
        <time>2021-08-02T09:53:02.536Z</time>
      </trkpt>
      <trkpt lat="47.0294" lon="9.00032">
        <ele>855</ele>
        <time>2021-08-02T09:53:03.537Z</time>
      </trkpt>
      <trkpt lat="47.02939" lon="9.00031">
        <ele>855</ele>
        <time>2021-08-02T09:53:04.537Z</time>
      </trkpt>
      <trkpt lat="47.02939" lon="9.0003">
        <ele>856</ele>
        <time>2021-08-02T09:53:05.537Z</time>
      </trkpt>
      <trkpt lat="47.02939" lon="9.00029">
        <ele>856</ele>
        <time>2021-08-02T09:53:06.537Z</time>
      </trkpt>
      <trkpt lat="47.02939" lon="9.00029">
        <ele>856</ele>
        <time>2021-08-02T09:53:07.537Z</time>
      </trkpt>
      <trkpt lat="47.0294" lon="9.00029">
        <ele>857</ele>
        <time>2021-08-02T09:53:08.537Z</time>
      </trkpt>
      <trkpt lat="47.02938" lon="9.00028">
        <ele>856</ele>
        <time>2021-08-02T09:53:09.538Z</time>
      </trkpt>
      <trkpt lat="47.02938" lon="9.00028">
        <ele>856</ele>
        <time>2021-08-02T09:53:10.537Z</time>
      </trkpt>
      <trkpt lat="47.02938" lon="9.00028">
        <ele>854</ele>
        <time>2021-08-02T09:53:11.538Z</time>
      </trkpt>
      <trkpt lat="47.02937" lon="9.00028">
        <ele>854</ele>
        <time>2021-08-02T09:53:12.538Z</time>
      </trkpt>
      <trkpt lat="47.02936" lon="9.00028">
        <ele>853</ele>
        <time>2021-08-02T09:53:13.537Z</time>
      </trkpt>
      <trkpt lat="47.02935" lon="9.00028">
        <ele>853</ele>
        <time>2021-08-02T09:53:14.537Z</time>
      </trkpt>
      <trkpt lat="47.02933" lon="9.00027">
        <ele>854</ele>
        <time>2021-08-02T09:53:15.537Z</time>
      </trkpt>
      <trkpt lat="47.02932" lon="9.00027">
        <ele>854</ele>
        <time>2021-08-02T09:53:16.537Z</time>
      </trkpt>
      <trkpt lat="47.02931" lon="9.00027">
        <ele>854</ele>
        <time>2021-08-02T09:53:17.537Z</time>
      </trkpt>
      <trkpt lat="47.0293" lon="9.00026">
        <ele>855</ele>
        <time>2021-08-02T09:53:18.537Z</time>
      </trkpt>
      <trkpt lat="47.02929" lon="9.00026">
        <ele>855</ele>
        <time>2021-08-02T09:53:19.537Z</time>
      </trkpt>
      <trkpt lat="47.02927" lon="9.00025">
        <ele>855</ele>
        <time>2021-08-02T09:53:20.537Z</time>
      </trkpt>
      <trkpt lat="47.02925" lon="9.00024">
        <ele>855</ele>
        <time>2021-08-02T09:53:21.537Z</time>
      </trkpt>
      <trkpt lat="47.02923" lon="9.00023">
        <ele>855</ele>
        <time>2021-08-02T09:53:22.537Z</time>
      </trkpt>
      <trkpt lat="47.02922" lon="9.00022">
        <ele>855</ele>
        <time>2021-08-02T09:53:23.537Z</time>
      </trkpt>
      <trkpt lat="47.02921" lon="9.00022">
        <ele>856</ele>
        <time>2021-08-02T09:53:24.538Z</time>
      </trkpt>
      <trkpt lat="47.02919" lon="9.00022">
        <ele>856</ele>
        <time>2021-08-02T09:53:25.538Z</time>
      </trkpt>
      <trkpt lat="47.02918" lon="9.00021">
        <ele>857</ele>
        <time>2021-08-02T09:53:26.537Z</time>
      </trkpt>
      <trkpt lat="47.02917" lon="9.0002">
        <ele>857</ele>
        <time>2021-08-02T09:53:27.538Z</time>
      </trkpt>
      <trkpt lat="47.02916" lon="9.0002">
        <ele>858</ele>
        <time>2021-08-02T09:53:28.538Z</time>
      </trkpt>
      <trkpt lat="47.02915" lon="9.00019">
        <ele>858</ele>
        <time>2021-08-02T09:53:29.537Z</time>
      </trkpt>
      <trkpt lat="47.02914" lon="9.00019">
        <ele>859</ele>
        <time>2021-08-02T09:53:30.538Z</time>
      </trkpt>
      <trkpt lat="47.02913" lon="9.00018">
        <ele>859</ele>
        <time>2021-08-02T09:53:31.537Z</time>
      </trkpt>
      <trkpt lat="47.02912" lon="9.00017">
        <ele>860</ele>
        <time>2021-08-02T09:53:32.538Z</time>
      </trkpt>
      <trkpt lat="47.02911" lon="9.00016">
        <ele>860</ele>
        <time>2021-08-02T09:53:33.538Z</time>
      </trkpt>
      <trkpt lat="47.02909" lon="9.00016">
        <ele>861</ele>
        <time>2021-08-02T09:53:34.538Z</time>
      </trkpt>
      <trkpt lat="47.02908" lon="9.00015">
        <ele>861</ele>
        <time>2021-08-02T09:53:35.537Z</time>
      </trkpt>
      <trkpt lat="47.02905" lon="9.00014">
        <ele>861</ele>
        <time>2021-08-02T09:53:36.538Z</time>
      </trkpt>
      <trkpt lat="47.02904" lon="9.00013">
        <ele>861</ele>
        <time>2021-08-02T09:53:37.537Z</time>
      </trkpt>
      <trkpt lat="47.02903" lon="9.00012">
        <ele>861</ele>
        <time>2021-08-02T09:53:38.538Z</time>
      </trkpt>
      <trkpt lat="47.02903" lon="9.0001">
        <ele>861</ele>
        <time>2021-08-02T09:53:39.538Z</time>
      </trkpt>
      <trkpt lat="47.02903" lon="9.00008">
        <ele>861</ele>
        <time>2021-08-02T09:53:40.538Z</time>
      </trkpt>
      <trkpt lat="47.02902" lon="9.00007">
        <ele>861</ele>
        <time>2021-08-02T09:53:41.537Z</time>
      </trkpt>
      <trkpt lat="47.02901" lon="9.00007">
        <ele>861</ele>
        <time>2021-08-02T09:53:42.538Z</time>
      </trkpt>
      <trkpt lat="47.029" lon="9.00007">
        <ele>861</ele>
        <time>2021-08-02T09:53:43.538Z</time>
      </trkpt>
      <trkpt lat="47.02899" lon="9.00006">
        <ele>862</ele>
        <time>2021-08-02T09:53:44.537Z</time>
      </trkpt>
      <trkpt lat="47.02898" lon="9.00006">
        <ele>862</ele>
        <time>2021-08-02T09:53:45.537Z</time>
      </trkpt>
      <trkpt lat="47.02897" lon="9.00006">
        <ele>862</ele>
        <time>2021-08-02T09:53:46.538Z</time>
      </trkpt>
      <trkpt lat="47.02897" lon="9.00005">
        <ele>862</ele>
        <time>2021-08-02T09:53:47.538Z</time>
      </trkpt>
      <trkpt lat="47.02896" lon="9.00004">
        <ele>862</ele>
        <time>2021-08-02T09:53:48.538Z</time>
      </trkpt>
      <trkpt lat="47.02896" lon="9.00003">
        <ele>862</ele>
        <time>2021-08-02T09:53:49.537Z</time>
      </trkpt>
      <trkpt lat="47.02895" lon="9.00002">
        <ele>862</ele>
        <time>2021-08-02T09:53:50.537Z</time>
      </trkpt>
      <trkpt lat="47.02895" lon="9.00001">
        <ele>862</ele>
        <time>2021-08-02T09:53:51.537Z</time>
      </trkpt>
      <trkpt lat="47.02894" lon="9.00001">
        <ele>862</ele>
        <time>2021-08-02T09:53:52.538Z</time>
      </trkpt>
      <trkpt lat="47.02894" lon="9.00001">
        <ele>862</ele>
        <time>2021-08-02T09:53:53.538Z</time>
      </trkpt>
      <trkpt lat="47.02894" lon="9.00001">
        <ele>862</ele>
        <time>2021-08-02T09:53:54.537Z</time>
      </trkpt>
      <trkpt lat="47.02894" lon="9.00002">
        <ele>862</ele>
        <time>2021-08-02T09:53:55.538Z</time>
      </trkpt>
      <trkpt lat="47.02894" lon="9.00003">
        <ele>862</ele>
        <time>2021-08-02T09:53:56.538Z</time>
      </trkpt>
      <trkpt lat="47.02894" lon="9.00004">
        <ele>863</ele>
        <time>2021-08-02T09:53:57.538Z</time>
      </trkpt>
      <trkpt lat="47.02894" lon="9.00005">
        <ele>864</ele>
        <time>2021-08-02T09:53:58.537Z</time>
      </trkpt>
      <trkpt lat="47.02894" lon="9.00006">
        <ele>865</ele>
        <time>2021-08-02T09:53:59.537Z</time>
      </trkpt>
      <trkpt lat="47.02894" lon="9.00005">
        <ele>865</ele>
        <time>2021-08-02T09:54:00.538Z</time>
      </trkpt>
      <trkpt lat="47.02894" lon="9.00004">
        <ele>865</ele>
        <time>2021-08-02T09:54:01.538Z</time>
      </trkpt>
      <trkpt lat="47.02893" lon="9.00003">
        <ele>864</ele>
        <time>2021-08-02T09:54:02.538Z</time>
      </trkpt>
      <trkpt lat="47.02892" lon="9.00002">
        <ele>863</ele>
        <time>2021-08-02T09:54:03.537Z</time>
      </trkpt>
      <trkpt lat="47.02892" lon="9.00001">
        <ele>863</ele>
        <time>2021-08-02T09:54:04.538Z</time>
      </trkpt>
      <trkpt lat="47.02891" lon="9">
        <ele>863</ele>
        <time>2021-08-02T09:54:05.537Z</time>
      </trkpt>
      <trkpt lat="47.0289" lon="8.99998">
        <ele>862</ele>
        <time>2021-08-02T09:54:06.538Z</time>
      </trkpt>
      <trkpt lat="47.02889" lon="8.99997">
        <ele>861</ele>
        <time>2021-08-02T09:54:07.538Z</time>
      </trkpt>
      <trkpt lat="47.02889" lon="8.99995">
        <ele>860</ele>
        <time>2021-08-02T09:54:08.538Z</time>
      </trkpt>
      <trkpt lat="47.02889" lon="8.99994">
        <ele>860</ele>
        <time>2021-08-02T09:54:09.538Z</time>
      </trkpt>
      <trkpt lat="47.02889" lon="8.99992">
        <ele>860</ele>
        <time>2021-08-02T09:54:10.538Z</time>
      </trkpt>
      <trkpt lat="47.02888" lon="8.99991">
        <ele>859</ele>
        <time>2021-08-02T09:54:11.538Z</time>
      </trkpt>
      <trkpt lat="47.02886" lon="8.9999">
        <ele>859</ele>
        <time>2021-08-02T09:54:12.538Z</time>
      </trkpt>
      <trkpt lat="47.02884" lon="8.99989">
        <ele>859</ele>
        <time>2021-08-02T09:54:13.537Z</time>
      </trkpt>
      <trkpt lat="47.02883" lon="8.99987">
        <ele>859</ele>
        <time>2021-08-02T09:54:14.537Z</time>
      </trkpt>
      <trkpt lat="47.02882" lon="8.99985">
        <ele>859</ele>
        <time>2021-08-02T09:54:15.537Z</time>
      </trkpt>
      <trkpt lat="47.02882" lon="8.99984">
        <ele>859</ele>
        <time>2021-08-02T09:54:16.537Z</time>
      </trkpt>
      <trkpt lat="47.02882" lon="8.99984">
        <ele>859</ele>
        <time>2021-08-02T09:54:17.537Z</time>
      </trkpt>
      <trkpt lat="47.02882" lon="8.99983">
        <ele>859</ele>
        <time>2021-08-02T09:54:18.537Z</time>
      </trkpt>
      <trkpt lat="47.02881" lon="8.99983">
        <ele>859</ele>
        <time>2021-08-02T09:54:19.537Z</time>
      </trkpt>
      <trkpt lat="47.0288" lon="8.99981">
        <ele>860</ele>
        <time>2021-08-02T09:54:20.537Z</time>
      </trkpt>
      <trkpt lat="47.0288" lon="8.9998">
        <ele>860</ele>
        <time>2021-08-02T09:54:21.537Z</time>
      </trkpt>
      <trkpt lat="47.0288" lon="8.9998">
        <ele>860</ele>
        <time>2021-08-02T09:54:22.537Z</time>
      </trkpt>
      <trkpt lat="47.0288" lon="8.99979">
        <ele>860</ele>
        <time>2021-08-02T09:54:23.537Z</time>
      </trkpt>
      <trkpt lat="47.02879" lon="8.99977">
        <ele>860</ele>
        <time>2021-08-02T09:54:24.538Z</time>
      </trkpt>
      <trkpt lat="47.02878" lon="8.99976">
        <ele>860</ele>
        <time>2021-08-02T09:54:25.537Z</time>
      </trkpt>
      <trkpt lat="47.02878" lon="8.99974">
        <ele>859</ele>
        <time>2021-08-02T09:54:26.537Z</time>
      </trkpt>
      <trkpt lat="47.02877" lon="8.99972">
        <ele>859</ele>
        <time>2021-08-02T09:54:27.537Z</time>
      </trkpt>
      <trkpt lat="47.02877" lon="8.9997">
        <ele>859</ele>
        <time>2021-08-02T09:54:28.537Z</time>
      </trkpt>
      <trkpt lat="47.02877" lon="8.99967">
        <ele>859</ele>
        <time>2021-08-02T09:54:29.537Z</time>
      </trkpt>
      <trkpt lat="47.02877" lon="8.99966">
        <ele>859</ele>
        <time>2021-08-02T09:54:30.537Z</time>
      </trkpt>
      <trkpt lat="47.02876" lon="8.99964">
        <ele>859</ele>
        <time>2021-08-02T09:54:31.537Z</time>
      </trkpt>
      <trkpt lat="47.02877" lon="8.99962">
        <ele>859</ele>
        <time>2021-08-02T09:54:32.537Z</time>
      </trkpt>
      <trkpt lat="47.02877" lon="8.9996">
        <ele>859</ele>
        <time>2021-08-02T09:54:33.537Z</time>
      </trkpt>
      <trkpt lat="47.02878" lon="8.99959">
        <ele>859</ele>
        <time>2021-08-02T09:54:34.537Z</time>
      </trkpt>
      <trkpt lat="47.02878" lon="8.99959">
        <ele>860</ele>
        <time>2021-08-02T09:54:35.538Z</time>
      </trkpt>
      <trkpt lat="47.02878" lon="8.99957">
        <ele>859</ele>
        <time>2021-08-02T09:54:36.537Z</time>
      </trkpt>
      <trkpt lat="47.02878" lon="8.99957">
        <ele>859</ele>
        <time>2021-08-02T09:54:37.537Z</time>
      </trkpt>
      <trkpt lat="47.02878" lon="8.99956">
        <ele>858</ele>
        <time>2021-08-02T09:54:38.537Z</time>
      </trkpt>
      <trkpt lat="47.02877" lon="8.99955">
        <ele>858</ele>
        <time>2021-08-02T09:54:39.537Z</time>
      </trkpt>
      <trkpt lat="47.02877" lon="8.99954">
        <ele>857</ele>
        <time>2021-08-02T09:54:40.537Z</time>
      </trkpt>
      <trkpt lat="47.02877" lon="8.99952">
        <ele>857</ele>
        <time>2021-08-02T09:54:41.537Z</time>
      </trkpt>
      <trkpt lat="47.02876" lon="8.99951">
        <ele>857</ele>
        <time>2021-08-02T09:54:42.538Z</time>
      </trkpt>
      <trkpt lat="47.02876" lon="8.99949">
        <ele>856</ele>
        <time>2021-08-02T09:54:43.537Z</time>
      </trkpt>
      <trkpt lat="47.02876" lon="8.99948">
        <ele>856</ele>
        <time>2021-08-02T09:54:44.538Z</time>
      </trkpt>
      <trkpt lat="47.02876" lon="8.99946">
        <ele>856</ele>
        <time>2021-08-02T09:54:45.537Z</time>
      </trkpt>
      <trkpt lat="47.02875" lon="8.99944">
        <ele>857</ele>
        <time>2021-08-02T09:54:46.537Z</time>
      </trkpt>
      <trkpt lat="47.02874" lon="8.99943">
        <ele>857</ele>
        <time>2021-08-02T09:54:47.537Z</time>
      </trkpt>
      <trkpt lat="47.02873" lon="8.99941">
        <ele>857</ele>
        <time>2021-08-02T09:54:48.537Z</time>
      </trkpt>
      <trkpt lat="47.02873" lon="8.99939">
        <ele>857</ele>
        <time>2021-08-02T09:54:49.537Z</time>
      </trkpt>
      <trkpt lat="47.02873" lon="8.99938">
        <ele>858</ele>
        <time>2021-08-02T09:54:50.537Z</time>
      </trkpt>
      <trkpt lat="47.02874" lon="8.99936">
        <ele>858</ele>
        <time>2021-08-02T09:54:51.538Z</time>
      </trkpt>
      <trkpt lat="47.02873" lon="8.99935">
        <ele>858</ele>
        <time>2021-08-02T09:54:52.538Z</time>
      </trkpt>
      <trkpt lat="47.02872" lon="8.99933">
        <ele>858</ele>
        <time>2021-08-02T09:54:53.537Z</time>
      </trkpt>
      <trkpt lat="47.02871" lon="8.99932">
        <ele>858</ele>
        <time>2021-08-02T09:54:54.537Z</time>
      </trkpt>
      <trkpt lat="47.0287" lon="8.99931">
        <ele>858</ele>
        <time>2021-08-02T09:54:55.538Z</time>
      </trkpt>
      <trkpt lat="47.0287" lon="8.99929">
        <ele>858</ele>
        <time>2021-08-02T09:54:56.537Z</time>
      </trkpt>
      <trkpt lat="47.02869" lon="8.99928">
        <ele>858</ele>
        <time>2021-08-02T09:54:57.537Z</time>
      </trkpt>
      <trkpt lat="47.02868" lon="8.99927">
        <ele>859</ele>
        <time>2021-08-02T09:54:58.538Z</time>
      </trkpt>
      <trkpt lat="47.02867" lon="8.99926">
        <ele>858</ele>
        <time>2021-08-02T09:54:59.537Z</time>
      </trkpt>
      <trkpt lat="47.02867" lon="8.99926">
        <ele>858</ele>
        <time>2021-08-02T09:55:00.537Z</time>
      </trkpt>
      <trkpt lat="47.02866" lon="8.99925">
        <ele>858</ele>
        <time>2021-08-02T09:55:01.537Z</time>
      </trkpt>
      <trkpt lat="47.02865" lon="8.99924">
        <ele>857</ele>
        <time>2021-08-02T09:55:02.537Z</time>
      </trkpt>
      <trkpt lat="47.02864" lon="8.99923">
        <ele>857</ele>
        <time>2021-08-02T09:55:03.537Z</time>
      </trkpt>
      <trkpt lat="47.02863" lon="8.99922">
        <ele>856</ele>
        <time>2021-08-02T09:55:04.538Z</time>
      </trkpt>
      <trkpt lat="47.02863" lon="8.9992">
        <ele>856</ele>
        <time>2021-08-02T09:55:05.538Z</time>
      </trkpt>
      <trkpt lat="47.02864" lon="8.99918">
        <ele>855</ele>
        <time>2021-08-02T09:55:06.537Z</time>
      </trkpt>
      <trkpt lat="47.02863" lon="8.99916">
        <ele>855</ele>
        <time>2021-08-02T09:55:07.538Z</time>
      </trkpt>
      <trkpt lat="47.02863" lon="8.99914">
        <ele>855</ele>
        <time>2021-08-02T09:55:08.537Z</time>
      </trkpt>
      <trkpt lat="47.02862" lon="8.99912">
        <ele>855</ele>
        <time>2021-08-02T09:55:09.538Z</time>
      </trkpt>
      <trkpt lat="47.02861" lon="8.99911">
        <ele>855</ele>
        <time>2021-08-02T09:55:10.538Z</time>
      </trkpt>
      <trkpt lat="47.0286" lon="8.9991">
        <ele>855</ele>
        <time>2021-08-02T09:55:11.537Z</time>
      </trkpt>
      <trkpt lat="47.0286" lon="8.99909">
        <ele>855</ele>
        <time>2021-08-02T09:55:12.538Z</time>
      </trkpt>
      <trkpt lat="47.02859" lon="8.99908">
        <ele>855</ele>
        <time>2021-08-02T09:55:13.538Z</time>
      </trkpt>
      <trkpt lat="47.02858" lon="8.99907">
        <ele>856</ele>
        <time>2021-08-02T09:55:14.537Z</time>
      </trkpt>
      <trkpt lat="47.02857" lon="8.99906">
        <ele>856</ele>
        <time>2021-08-02T09:55:15.537Z</time>
      </trkpt>
      <trkpt lat="47.02856" lon="8.99905">
        <ele>855</ele>
        <time>2021-08-02T09:55:16.538Z</time>
      </trkpt>
      <trkpt lat="47.02855" lon="8.99904">
        <ele>855</ele>
        <time>2021-08-02T09:55:17.537Z</time>
      </trkpt>
      <trkpt lat="47.02854" lon="8.99904">
        <ele>855</ele>
        <time>2021-08-02T09:55:18.537Z</time>
      </trkpt>
      <trkpt lat="47.02853" lon="8.99903">
        <ele>854</ele>
        <time>2021-08-02T09:55:19.537Z</time>
      </trkpt>
      <trkpt lat="47.02851" lon="8.99901">
        <ele>854</ele>
        <time>2021-08-02T09:55:20.537Z</time>
      </trkpt>
      <trkpt lat="47.0285" lon="8.999">
        <ele>854</ele>
        <time>2021-08-02T09:55:21.538Z</time>
      </trkpt>
      <trkpt lat="47.0285" lon="8.99898">
        <ele>854</ele>
        <time>2021-08-02T09:55:22.537Z</time>
      </trkpt>
      <trkpt lat="47.02849" lon="8.99897">
        <ele>854</ele>
        <time>2021-08-02T09:55:23.537Z</time>
      </trkpt>
      <trkpt lat="47.02849" lon="8.99896">
        <ele>855</ele>
        <time>2021-08-02T09:55:24.537Z</time>
      </trkpt>
      <trkpt lat="47.0285" lon="8.99895">
        <ele>854</ele>
        <time>2021-08-02T09:55:25.537Z</time>
      </trkpt>
      <trkpt lat="47.02849" lon="8.99894">
        <ele>854</ele>
        <time>2021-08-02T09:55:26.537Z</time>
      </trkpt>
      <trkpt lat="47.02848" lon="8.99893">
        <ele>854</ele>
        <time>2021-08-02T09:55:27.537Z</time>
      </trkpt>
      <trkpt lat="47.02848" lon="8.99892">
        <ele>854</ele>
        <time>2021-08-02T09:55:28.537Z</time>
      </trkpt>
      <trkpt lat="47.02847" lon="8.99891">
        <ele>854</ele>
        <time>2021-08-02T09:55:29.537Z</time>
      </trkpt>
      <trkpt lat="47.02847" lon="8.9989">
        <ele>853</ele>
        <time>2021-08-02T09:55:30.537Z</time>
      </trkpt>
      <trkpt lat="47.02846" lon="8.99889">
        <ele>853</ele>
        <time>2021-08-02T09:55:31.537Z</time>
      </trkpt>
      <trkpt lat="47.02845" lon="8.99888">
        <ele>853</ele>
        <time>2021-08-02T09:55:32.537Z</time>
      </trkpt>
      <trkpt lat="47.02844" lon="8.99887">
        <ele>852</ele>
        <time>2021-08-02T09:55:33.538Z</time>
      </trkpt>
      <trkpt lat="47.02843" lon="8.99886">
        <ele>852</ele>
        <time>2021-08-02T09:55:34.537Z</time>
      </trkpt>
      <trkpt lat="47.02842" lon="8.99885">
        <ele>851</ele>
        <time>2021-08-02T09:55:35.537Z</time>
      </trkpt>
      <trkpt lat="47.02842" lon="8.99885">
        <ele>850</ele>
        <time>2021-08-02T09:55:36.537Z</time>
      </trkpt>
      <trkpt lat="47.02842" lon="8.99884">
        <ele>850</ele>
        <time>2021-08-02T09:55:37.537Z</time>
      </trkpt>
      <trkpt lat="47.02842" lon="8.99883">
        <ele>849</ele>
        <time>2021-08-02T09:55:39.559Z</time>
      </trkpt>
      <trkpt lat="47.02841" lon="8.99882">
        <ele>849</ele>
        <time>2021-08-02T09:55:40.558Z</time>
      </trkpt>
      <trkpt lat="47.02841" lon="8.99881">
        <ele>848</ele>
        <time>2021-08-02T09:55:41.558Z</time>
      </trkpt>
      <trkpt lat="47.02841" lon="8.9988">
        <ele>848</ele>
        <time>2021-08-02T09:55:42.559Z</time>
      </trkpt>
      <trkpt lat="47.02841" lon="8.99879">
        <ele>848</ele>
        <time>2021-08-02T09:55:43.559Z</time>
      </trkpt>
      <trkpt lat="47.0284" lon="8.99878">
        <ele>848</ele>
        <time>2021-08-02T09:55:44.559Z</time>
      </trkpt>
      <trkpt lat="47.02839" lon="8.99877">
        <ele>848</ele>
        <time>2021-08-02T09:55:45.558Z</time>
      </trkpt>
      <trkpt lat="47.02838" lon="8.99877">
        <ele>848</ele>
        <time>2021-08-02T09:55:46.558Z</time>
      </trkpt>
      <trkpt lat="47.02837" lon="8.99876">
        <ele>848</ele>
        <time>2021-08-02T09:55:47.558Z</time>
      </trkpt>
      <trkpt lat="47.02836" lon="8.99874">
        <ele>848</ele>
        <time>2021-08-02T09:55:48.558Z</time>
      </trkpt>
      <trkpt lat="47.02836" lon="8.99874">
        <ele>848</ele>
        <time>2021-08-02T09:55:49.558Z</time>
      </trkpt>
      <trkpt lat="47.02835" lon="8.99873">
        <ele>848</ele>
        <time>2021-08-02T09:55:50.558Z</time>
      </trkpt>
      <trkpt lat="47.02835" lon="8.99872">
        <ele>848</ele>
        <time>2021-08-02T09:55:51.558Z</time>
      </trkpt>
      <trkpt lat="47.02834" lon="8.99871">
        <ele>848</ele>
        <time>2021-08-02T09:55:52.558Z</time>
      </trkpt>
      <trkpt lat="47.02833" lon="8.9987">
        <ele>848</ele>
        <time>2021-08-02T09:55:53.558Z</time>
      </trkpt>
      <trkpt lat="47.02832" lon="8.99869">
        <ele>847</ele>
        <time>2021-08-02T09:55:54.558Z</time>
      </trkpt>
      <trkpt lat="47.02832" lon="8.99867">
        <ele>847</ele>
        <time>2021-08-02T09:55:55.559Z</time>
      </trkpt>
      <trkpt lat="47.02831" lon="8.99866">
        <ele>847</ele>
        <time>2021-08-02T09:55:56.558Z</time>
      </trkpt>
      <trkpt lat="47.02831" lon="8.99865">
        <ele>847</ele>
        <time>2021-08-02T09:55:57.558Z</time>
      </trkpt>
      <trkpt lat="47.0283" lon="8.99863">
        <ele>847</ele>
        <time>2021-08-02T09:55:58.558Z</time>
      </trkpt>
      <trkpt lat="47.02829" lon="8.99862">
        <ele>847</ele>
        <time>2021-08-02T09:55:59.558Z</time>
      </trkpt>
      <trkpt lat="47.02828" lon="8.99861">
        <ele>847</ele>
        <time>2021-08-02T09:56:00.558Z</time>
      </trkpt>
      <trkpt lat="47.02828" lon="8.9986">
        <ele>847</ele>
        <time>2021-08-02T09:56:01.558Z</time>
      </trkpt>
      <trkpt lat="47.02827" lon="8.99859">
        <ele>847</ele>
        <time>2021-08-02T09:56:02.559Z</time>
      </trkpt>
      <trkpt lat="47.02827" lon="8.99858">
        <ele>847</ele>
        <time>2021-08-02T09:56:03.558Z</time>
      </trkpt>
      <trkpt lat="47.02827" lon="8.99857">
        <ele>847</ele>
        <time>2021-08-02T09:56:04.558Z</time>
      </trkpt>
      <trkpt lat="47.02826" lon="8.99856">
        <ele>847</ele>
        <time>2021-08-02T09:56:05.559Z</time>
      </trkpt>
      <trkpt lat="47.02825" lon="8.99855">
        <ele>847</ele>
        <time>2021-08-02T09:56:06.558Z</time>
      </trkpt>
      <trkpt lat="47.02824" lon="8.99854">
        <ele>847</ele>
        <time>2021-08-02T09:56:07.558Z</time>
      </trkpt>
      <trkpt lat="47.02824" lon="8.99852">
        <ele>848</ele>
        <time>2021-08-02T09:56:08.558Z</time>
      </trkpt>
      <trkpt lat="47.02824" lon="8.9985">
        <ele>848</ele>
        <time>2021-08-02T09:56:09.558Z</time>
      </trkpt>
      <trkpt lat="47.02825" lon="8.99848">
        <ele>849</ele>
        <time>2021-08-02T09:56:10.558Z</time>
      </trkpt>
      <trkpt lat="47.02824" lon="8.99847">
        <ele>849</ele>
        <time>2021-08-02T09:56:11.558Z</time>
      </trkpt>
      <trkpt lat="47.02823" lon="8.99845">
        <ele>849</ele>
        <time>2021-08-02T09:56:12.558Z</time>
      </trkpt>
      <trkpt lat="47.02822" lon="8.99844">
        <ele>850</ele>
        <time>2021-08-02T09:56:13.558Z</time>
      </trkpt>
      <trkpt lat="47.02822" lon="8.99843">
        <ele>850</ele>
        <time>2021-08-02T09:56:14.559Z</time>
      </trkpt>
      <trkpt lat="47.02821" lon="8.99841">
        <ele>850</ele>
        <time>2021-08-02T09:56:15.558Z</time>
      </trkpt>
      <trkpt lat="47.02821" lon="8.9984">
        <ele>850</ele>
        <time>2021-08-02T09:56:16.558Z</time>
      </trkpt>
      <trkpt lat="47.0282" lon="8.99839">
        <ele>850</ele>
        <time>2021-08-02T09:56:17.558Z</time>
      </trkpt>
      <trkpt lat="47.0282" lon="8.99838">
        <ele>850</ele>
        <time>2021-08-02T09:56:18.559Z</time>
      </trkpt>
      <trkpt lat="47.02819" lon="8.99837">
        <ele>851</ele>
        <time>2021-08-02T09:56:19.558Z</time>
      </trkpt>
      <trkpt lat="47.02819" lon="8.99836">
        <ele>851</ele>
        <time>2021-08-02T09:56:20.559Z</time>
      </trkpt>
      <trkpt lat="47.02818" lon="8.99835">
        <ele>851</ele>
        <time>2021-08-02T09:56:21.558Z</time>
      </trkpt>
      <trkpt lat="47.02818" lon="8.99834">
        <ele>850</ele>
        <time>2021-08-02T09:56:22.558Z</time>
      </trkpt>
      <trkpt lat="47.02817" lon="8.99833">
        <ele>850</ele>
        <time>2021-08-02T09:56:23.559Z</time>
      </trkpt>
      <trkpt lat="47.02817" lon="8.99831">
        <ele>850</ele>
        <time>2021-08-02T09:56:24.558Z</time>
      </trkpt>
      <trkpt lat="47.02816" lon="8.99829">
        <ele>850</ele>
        <time>2021-08-02T09:56:25.558Z</time>
      </trkpt>
      <trkpt lat="47.02816" lon="8.99827">
        <ele>850</ele>
        <time>2021-08-02T09:56:26.558Z</time>
      </trkpt>
      <trkpt lat="47.02814" lon="8.99826">
        <ele>850</ele>
        <time>2021-08-02T09:56:27.558Z</time>
      </trkpt>
      <trkpt lat="47.02813" lon="8.99825">
        <ele>850</ele>
        <time>2021-08-02T09:56:28.558Z</time>
      </trkpt>
      <trkpt lat="47.02812" lon="8.99823">
        <ele>850</ele>
        <time>2021-08-02T09:56:29.558Z</time>
      </trkpt>
      <trkpt lat="47.02812" lon="8.99821">
        <ele>850</ele>
        <time>2021-08-02T09:56:30.558Z</time>
      </trkpt>
      <trkpt lat="47.02812" lon="8.99819">
        <ele>850</ele>
        <time>2021-08-02T09:56:31.558Z</time>
      </trkpt>
      <trkpt lat="47.02812" lon="8.99817">
        <ele>850</ele>
        <time>2021-08-02T09:56:32.559Z</time>
      </trkpt>
      <trkpt lat="47.02812" lon="8.99815">
        <ele>850</ele>
        <time>2021-08-02T09:56:33.558Z</time>
      </trkpt>
      <trkpt lat="47.02811" lon="8.99814">
        <ele>851</ele>
        <time>2021-08-02T09:56:34.558Z</time>
      </trkpt>
      <trkpt lat="47.02811" lon="8.99813">
        <ele>851</ele>
        <time>2021-08-02T09:56:35.558Z</time>
      </trkpt>
      <trkpt lat="47.02811" lon="8.99811">
        <ele>851</ele>
        <time>2021-08-02T09:56:36.558Z</time>
      </trkpt>
      <trkpt lat="47.02811" lon="8.9981">
        <ele>851</ele>
        <time>2021-08-02T09:56:37.558Z</time>
      </trkpt>
      <trkpt lat="47.02811" lon="8.99808">
        <ele>851</ele>
        <time>2021-08-02T09:56:38.558Z</time>
      </trkpt>
      <trkpt lat="47.0281" lon="8.99807">
        <ele>852</ele>
        <time>2021-08-02T09:56:39.558Z</time>
      </trkpt>
      <trkpt lat="47.02809" lon="8.99805">
        <ele>852</ele>
        <time>2021-08-02T09:56:40.558Z</time>
      </trkpt>
      <trkpt lat="47.02809" lon="8.99804">
        <ele>852</ele>
        <time>2021-08-02T09:56:41.559Z</time>
      </trkpt>
      <trkpt lat="47.02809" lon="8.99803">
        <ele>853</ele>
        <time>2021-08-02T09:56:42.558Z</time>
      </trkpt>
      <trkpt lat="47.02809" lon="8.99802">
        <ele>853</ele>
        <time>2021-08-02T09:56:43.559Z</time>
      </trkpt>
      <trkpt lat="47.02808" lon="8.99801">
        <ele>853</ele>
        <time>2021-08-02T09:56:44.558Z</time>
      </trkpt>
      <trkpt lat="47.02808" lon="8.998">
        <ele>853</ele>
        <time>2021-08-02T09:56:45.558Z</time>
      </trkpt>
      <trkpt lat="47.02808" lon="8.99798">
        <ele>853</ele>
        <time>2021-08-02T09:56:46.559Z</time>
      </trkpt>
      <trkpt lat="47.02807" lon="8.99796">
        <ele>854</ele>
        <time>2021-08-02T09:56:47.558Z</time>
      </trkpt>
      <trkpt lat="47.02807" lon="8.99795">
        <ele>854</ele>
        <time>2021-08-02T09:56:48.558Z</time>
      </trkpt>
      <trkpt lat="47.02807" lon="8.99794">
        <ele>853</ele>
        <time>2021-08-02T09:56:49.559Z</time>
      </trkpt>
      <trkpt lat="47.02806" lon="8.99792">
        <ele>853</ele>
        <time>2021-08-02T09:56:50.558Z</time>
      </trkpt>
      <trkpt lat="47.02806" lon="8.99791">
        <ele>852</ele>
        <time>2021-08-02T09:56:51.559Z</time>
      </trkpt>
      <trkpt lat="47.02806" lon="8.9979">
        <ele>851</ele>
        <time>2021-08-02T09:56:52.559Z</time>
      </trkpt>
      <trkpt lat="47.02805" lon="8.99788">
        <ele>851</ele>
        <time>2021-08-02T09:56:53.558Z</time>
      </trkpt>
      <trkpt lat="47.02805" lon="8.99787">
        <ele>850</ele>
        <time>2021-08-02T09:56:54.558Z</time>
      </trkpt>
      <trkpt lat="47.02804" lon="8.99786">
        <ele>850</ele>
        <time>2021-08-02T09:56:55.558Z</time>
      </trkpt>
      <trkpt lat="47.02804" lon="8.99784">
        <ele>850</ele>
        <time>2021-08-02T09:56:56.559Z</time>
      </trkpt>
      <trkpt lat="47.02803" lon="8.99782">
        <ele>850</ele>
        <time>2021-08-02T09:56:57.558Z</time>
      </trkpt>
      <trkpt lat="47.02804" lon="8.9978">
        <ele>850</ele>
        <time>2021-08-02T09:56:58.559Z</time>
      </trkpt>
      <trkpt lat="47.02803" lon="8.99778">
        <ele>850</ele>
        <time>2021-08-02T09:56:59.559Z</time>
      </trkpt>
      <trkpt lat="47.02803" lon="8.99777">
        <ele>851</ele>
        <time>2021-08-02T09:57:00.558Z</time>
      </trkpt>
      <trkpt lat="47.02802" lon="8.99775">
        <ele>851</ele>
        <time>2021-08-02T09:57:01.559Z</time>
      </trkpt>
      <trkpt lat="47.02802" lon="8.99773">
        <ele>852</ele>
        <time>2021-08-02T09:57:02.558Z</time>
      </trkpt>
      <trkpt lat="47.02801" lon="8.99771">
        <ele>853</ele>
        <time>2021-08-02T09:57:03.558Z</time>
      </trkpt>
      <trkpt lat="47.028" lon="8.99769">
        <ele>854</ele>
        <time>2021-08-02T09:57:04.558Z</time>
      </trkpt>
      <trkpt lat="47.028" lon="8.99767">
        <ele>854</ele>
        <time>2021-08-02T09:57:05.558Z</time>
      </trkpt>
      <trkpt lat="47.028" lon="8.99766">
        <ele>854</ele>
        <time>2021-08-02T09:57:06.558Z</time>
      </trkpt>
      <trkpt lat="47.02799" lon="8.99764">
        <ele>854</ele>
        <time>2021-08-02T09:57:07.558Z</time>
      </trkpt>
      <trkpt lat="47.02798" lon="8.99762">
        <ele>855</ele>
        <time>2021-08-02T09:57:08.558Z</time>
      </trkpt>
      <trkpt lat="47.02798" lon="8.99761">
        <ele>855</ele>
        <time>2021-08-02T09:57:09.558Z</time>
      </trkpt>
      <trkpt lat="47.02797" lon="8.99759">
        <ele>855</ele>
        <time>2021-08-02T09:57:10.558Z</time>
      </trkpt>
      <trkpt lat="47.02797" lon="8.99757">
        <ele>856</ele>
        <time>2021-08-02T09:57:17.695Z</time>
      </trkpt>
      <trkpt lat="47.02795" lon="8.99755">
        <ele>856</ele>
        <time>2021-08-02T09:57:18.695Z</time>
      </trkpt>
      <trkpt lat="47.02795" lon="8.99754">
        <ele>857</ele>
        <time>2021-08-02T09:57:19.695Z</time>
      </trkpt>
      <trkpt lat="47.02794" lon="8.99753">
        <ele>857</ele>
        <time>2021-08-02T09:57:20.695Z</time>
      </trkpt>
      <trkpt lat="47.02793" lon="8.99751">
        <ele>857</ele>
        <time>2021-08-02T09:57:21.695Z</time>
      </trkpt>
      <trkpt lat="47.02793" lon="8.9975">
        <ele>856</ele>
        <time>2021-08-02T09:57:22.695Z</time>
      </trkpt>
      <trkpt lat="47.02792" lon="8.99749">
        <ele>856</ele>
        <time>2021-08-02T09:57:23.695Z</time>
      </trkpt>
      <trkpt lat="47.02792" lon="8.99747">
        <ele>856</ele>
        <time>2021-08-02T09:57:24.696Z</time>
      </trkpt>
      <trkpt lat="47.02791" lon="8.99746">
        <ele>856</ele>
        <time>2021-08-02T09:57:25.695Z</time>
      </trkpt>
      <trkpt lat="47.0279" lon="8.99745">
        <ele>855</ele>
        <time>2021-08-02T09:57:26.695Z</time>
      </trkpt>
      <trkpt lat="47.0279" lon="8.99744">
        <ele>854</ele>
        <time>2021-08-02T09:57:27.695Z</time>
      </trkpt>
      <trkpt lat="47.02789" lon="8.99743">
        <ele>854</ele>
        <time>2021-08-02T09:57:28.695Z</time>
      </trkpt>
      <trkpt lat="47.02788" lon="8.99742">
        <ele>854</ele>
        <time>2021-08-02T09:57:29.695Z</time>
      </trkpt>
      <trkpt lat="47.02788" lon="8.99742">
        <ele>854</ele>
        <time>2021-08-02T09:57:30.695Z</time>
      </trkpt>
      <trkpt lat="47.02787" lon="8.99741">
        <ele>854</ele>
        <time>2021-08-02T09:57:31.696Z</time>
      </trkpt>
      <trkpt lat="47.02786" lon="8.9974">
        <ele>854</ele>
        <time>2021-08-02T09:57:32.695Z</time>
      </trkpt>
      <trkpt lat="47.02786" lon="8.99739">
        <ele>854</ele>
        <time>2021-08-02T09:57:33.695Z</time>
      </trkpt>
      <trkpt lat="47.02786" lon="8.99737">
        <ele>853</ele>
        <time>2021-08-02T09:57:34.695Z</time>
      </trkpt>
      <trkpt lat="47.02785" lon="8.99736">
        <ele>853</ele>
        <time>2021-08-02T09:57:35.695Z</time>
      </trkpt>
      <trkpt lat="47.02784" lon="8.99733">
        <ele>853</ele>
        <time>2021-08-02T09:57:36.696Z</time>
      </trkpt>
      <trkpt lat="47.02783" lon="8.99731">
        <ele>853</ele>
        <time>2021-08-02T09:57:37.695Z</time>
      </trkpt>
      <trkpt lat="47.02782" lon="8.99728">
        <ele>853</ele>
        <time>2021-08-02T09:57:38.695Z</time>
      </trkpt>
      <trkpt lat="47.02782" lon="8.99726">
        <ele>853</ele>
        <time>2021-08-02T09:57:39.695Z</time>
      </trkpt>
      <trkpt lat="47.0278" lon="8.99726">
        <ele>853</ele>
        <time>2021-08-02T09:57:40.696Z</time>
      </trkpt>
      <trkpt lat="47.02779" lon="8.99726">
        <ele>853</ele>
        <time>2021-08-02T09:57:41.695Z</time>
      </trkpt>
      <trkpt lat="47.02777" lon="8.99725">
        <ele>854</ele>
        <time>2021-08-02T09:57:42.695Z</time>
      </trkpt>
      <trkpt lat="47.02776" lon="8.99724">
        <ele>854</ele>
        <time>2021-08-02T09:57:43.695Z</time>
      </trkpt>
      <trkpt lat="47.02776" lon="8.99723">
        <ele>854</ele>
        <time>2021-08-02T09:57:44.695Z</time>
      </trkpt>
      <trkpt lat="47.02775" lon="8.99722">
        <ele>854</ele>
        <time>2021-08-02T09:57:45.695Z</time>
      </trkpt>
      <trkpt lat="47.02774" lon="8.99721">
        <ele>854</ele>
        <time>2021-08-02T09:57:46.695Z</time>
      </trkpt>
      <trkpt lat="47.02773" lon="8.9972">
        <ele>854</ele>
        <time>2021-08-02T09:57:47.696Z</time>
      </trkpt>
      <trkpt lat="47.02773" lon="8.99719">
        <ele>855</ele>
        <time>2021-08-02T09:57:48.695Z</time>
      </trkpt>
      <trkpt lat="47.02772" lon="8.99718">
        <ele>855</ele>
        <time>2021-08-02T09:57:49.695Z</time>
      </trkpt>
      <trkpt lat="47.02772" lon="8.99716">
        <ele>855</ele>
        <time>2021-08-02T09:57:50.695Z</time>
      </trkpt>
      <trkpt lat="47.02771" lon="8.99715">
        <ele>854</ele>
        <time>2021-08-02T09:57:54.851Z</time>
      </trkpt>
      <trkpt lat="47.0277" lon="8.99714">
        <ele>854</ele>
        <time>2021-08-02T09:57:55.851Z</time>
      </trkpt>
      <trkpt lat="47.0277" lon="8.99714">
        <ele>853</ele>
        <time>2021-08-02T09:57:56.850Z</time>
      </trkpt>
      <trkpt lat="47.02769" lon="8.99712">
        <ele>852</ele>
        <time>2021-08-02T09:58:00.948Z</time>
      </trkpt>
      <trkpt lat="47.02768" lon="8.99711">
        <ele>852</ele>
        <time>2021-08-02T09:58:01.948Z</time>
      </trkpt>
      <trkpt lat="47.02767" lon="8.99709">
        <ele>852</ele>
        <time>2021-08-02T09:58:02.948Z</time>
      </trkpt>
      <trkpt lat="47.02767" lon="8.99707">
        <ele>851</ele>
        <time>2021-08-02T09:58:03.948Z</time>
      </trkpt>
      <trkpt lat="47.02766" lon="8.99705">
        <ele>851</ele>
        <time>2021-08-02T09:58:04.948Z</time>
      </trkpt>
      <trkpt lat="47.02766" lon="8.99703">
        <ele>851</ele>
        <time>2021-08-02T09:58:05.948Z</time>
      </trkpt>
      <trkpt lat="47.02766" lon="8.99701">
        <ele>851</ele>
        <time>2021-08-02T09:58:06.948Z</time>
      </trkpt>
      <trkpt lat="47.02766" lon="8.997">
        <ele>851</ele>
        <time>2021-08-02T09:58:07.948Z</time>
      </trkpt>
      <trkpt lat="47.02766" lon="8.99698">
        <ele>852</ele>
        <time>2021-08-02T09:58:08.948Z</time>
      </trkpt>
      <trkpt lat="47.02765" lon="8.99695">
        <ele>852</ele>
        <time>2021-08-02T09:58:09.948Z</time>
      </trkpt>
      <trkpt lat="47.02765" lon="8.99692">
        <ele>852</ele>
        <time>2021-08-02T09:58:10.948Z</time>
      </trkpt>
      <trkpt lat="47.02764" lon="8.99691">
        <ele>851</ele>
        <time>2021-08-02T09:58:11.948Z</time>
      </trkpt>
      <trkpt lat="47.02764" lon="8.9969">
        <ele>851</ele>
        <time>2021-08-02T09:58:12.948Z</time>
      </trkpt>
      <trkpt lat="47.02763" lon="8.99688">
        <ele>851</ele>
        <time>2021-08-02T09:58:13.948Z</time>
      </trkpt>
      <trkpt lat="47.02763" lon="8.99687">
        <ele>851</ele>
        <time>2021-08-02T09:58:14.949Z</time>
      </trkpt>
      <trkpt lat="47.02762" lon="8.99686">
        <ele>851</ele>
        <time>2021-08-02T09:58:15.949Z</time>
      </trkpt>
      <trkpt lat="47.02761" lon="8.99684">
        <ele>851</ele>
        <time>2021-08-02T09:58:16.948Z</time>
      </trkpt>
      <trkpt lat="47.0276" lon="8.99683">
        <ele>851</ele>
        <time>2021-08-02T09:58:17.948Z</time>
      </trkpt>
      <trkpt lat="47.0276" lon="8.99681">
        <ele>851</ele>
        <time>2021-08-02T09:58:18.948Z</time>
      </trkpt>
      <trkpt lat="47.02759" lon="8.9968">
        <ele>852</ele>
        <time>2021-08-02T09:58:19.948Z</time>
      </trkpt>
      <trkpt lat="47.02758" lon="8.99679">
        <ele>852</ele>
        <time>2021-08-02T09:58:20.948Z</time>
      </trkpt>
      <trkpt lat="47.02757" lon="8.99676">
        <ele>853</ele>
        <time>2021-08-02T09:58:21.949Z</time>
      </trkpt>
      <trkpt lat="47.02757" lon="8.99676">
        <ele>853</ele>
        <time>2021-08-02T09:58:22.948Z</time>
      </trkpt>
      <trkpt lat="47.02757" lon="8.99674">
        <ele>853</ele>
        <time>2021-08-02T09:58:23.948Z</time>
      </trkpt>
      <trkpt lat="47.02757" lon="8.99672">
        <ele>853</ele>
        <time>2021-08-02T09:58:24.948Z</time>
      </trkpt>
      <trkpt lat="47.02758" lon="8.9967">
        <ele>853</ele>
        <time>2021-08-02T09:58:25.948Z</time>
      </trkpt>
      <trkpt lat="47.02757" lon="8.99668">
        <ele>853</ele>
        <time>2021-08-02T09:58:26.948Z</time>
      </trkpt>
      <trkpt lat="47.02756" lon="8.99666">
        <ele>853</ele>
        <time>2021-08-02T09:58:27.948Z</time>
      </trkpt>
      <trkpt lat="47.02755" lon="8.99665">
        <ele>853</ele>
        <time>2021-08-02T09:58:28.949Z</time>
      </trkpt>
      <trkpt lat="47.02755" lon="8.99664">
        <ele>853</ele>
        <time>2021-08-02T09:58:29.948Z</time>
      </trkpt>
      <trkpt lat="47.02754" lon="8.99662">
        <ele>852</ele>
        <time>2021-08-02T09:58:30.948Z</time>
      </trkpt>
      <trkpt lat="47.02755" lon="8.9966">
        <ele>852</ele>
        <time>2021-08-02T09:58:31.948Z</time>
      </trkpt>
      <trkpt lat="47.02755" lon="8.99658">
        <ele>852</ele>
        <time>2021-08-02T09:58:32.949Z</time>
      </trkpt>
      <trkpt lat="47.02754" lon="8.99656">
        <ele>852</ele>
        <time>2021-08-02T09:58:33.948Z</time>
      </trkpt>
      <trkpt lat="47.02754" lon="8.99655">
        <ele>852</ele>
        <time>2021-08-02T09:58:34.948Z</time>
      </trkpt>
      <trkpt lat="47.02753" lon="8.99653">
        <ele>852</ele>
        <time>2021-08-02T09:58:35.949Z</time>
      </trkpt>
      <trkpt lat="47.02752" lon="8.99652">
        <ele>852</ele>
        <time>2021-08-02T09:58:36.948Z</time>
      </trkpt>
      <trkpt lat="47.02752" lon="8.9965">
        <ele>852</ele>
        <time>2021-08-02T09:58:37.949Z</time>
      </trkpt>
      <trkpt lat="47.02751" lon="8.99648">
        <ele>851</ele>
        <time>2021-08-02T09:58:38.948Z</time>
      </trkpt>
      <trkpt lat="47.02751" lon="8.99647">
        <ele>851</ele>
        <time>2021-08-02T09:58:39.949Z</time>
      </trkpt>
      <trkpt lat="47.0275" lon="8.99645">
        <ele>850</ele>
        <time>2021-08-02T09:58:40.949Z</time>
      </trkpt>
      <trkpt lat="47.0275" lon="8.99644">
        <ele>850</ele>
        <time>2021-08-02T09:58:41.949Z</time>
      </trkpt>
      <trkpt lat="47.02749" lon="8.99642">
        <ele>851</ele>
        <time>2021-08-02T09:58:42.948Z</time>
      </trkpt>
      <trkpt lat="47.02749" lon="8.99641">
        <ele>851</ele>
        <time>2021-08-02T09:58:43.948Z</time>
      </trkpt>
      <trkpt lat="47.02748" lon="8.99639">
        <ele>851</ele>
        <time>2021-08-02T09:58:44.948Z</time>
      </trkpt>
      <trkpt lat="47.02748" lon="8.99638">
        <ele>851</ele>
        <time>2021-08-02T09:58:45.948Z</time>
      </trkpt>
      <trkpt lat="47.02748" lon="8.99636">
        <ele>851</ele>
        <time>2021-08-02T09:58:46.948Z</time>
      </trkpt>
      <trkpt lat="47.02748" lon="8.99634">
        <ele>851</ele>
        <time>2021-08-02T09:58:47.948Z</time>
      </trkpt>
      <trkpt lat="47.02747" lon="8.99633">
        <ele>851</ele>
        <time>2021-08-02T09:58:48.948Z</time>
      </trkpt>
      <trkpt lat="47.02747" lon="8.99631">
        <ele>852</ele>
        <time>2021-08-02T09:58:52.072Z</time>
      </trkpt>
      <trkpt lat="47.02746" lon="8.99629">
        <ele>852</ele>
        <time>2021-08-02T09:58:53.071Z</time>
      </trkpt>
      <trkpt lat="47.02746" lon="8.99628">
        <ele>851</ele>
        <time>2021-08-02T09:58:54.071Z</time>
      </trkpt>
      <trkpt lat="47.02745" lon="8.99626">
        <ele>852</ele>
        <time>2021-08-02T09:58:55.071Z</time>
      </trkpt>
      <trkpt lat="47.02745" lon="8.99625">
        <ele>851</ele>
        <time>2021-08-02T09:58:56.072Z</time>
      </trkpt>
      <trkpt lat="47.02745" lon="8.99624">
        <ele>851</ele>
        <time>2021-08-02T09:58:57.071Z</time>
      </trkpt>
      <trkpt lat="47.02745" lon="8.99622">
        <ele>851</ele>
        <time>2021-08-02T09:58:58.071Z</time>
      </trkpt>
      <trkpt lat="47.02744" lon="8.99621">
        <ele>851</ele>
        <time>2021-08-02T09:58:59.071Z</time>
      </trkpt>
      <trkpt lat="47.02743" lon="8.99619">
        <ele>851</ele>
        <time>2021-08-02T09:59:00.071Z</time>
      </trkpt>
      <trkpt lat="47.02743" lon="8.99618">
        <ele>851</ele>
        <time>2021-08-02T09:59:01.071Z</time>
      </trkpt>
      <trkpt lat="47.02743" lon="8.99616">
        <ele>850</ele>
        <time>2021-08-02T09:59:02.071Z</time>
      </trkpt>
      <trkpt lat="47.02743" lon="8.99614">
        <ele>850</ele>
        <time>2021-08-02T09:59:03.071Z</time>
      </trkpt>
      <trkpt lat="47.02743" lon="8.99611">
        <ele>850</ele>
        <time>2021-08-02T09:59:04.071Z</time>
      </trkpt>
      <trkpt lat="47.02742" lon="8.99609">
        <ele>850</ele>
        <time>2021-08-02T09:59:05.071Z</time>
      </trkpt>
      <trkpt lat="47.02742" lon="8.99607">
        <ele>850</ele>
        <time>2021-08-02T09:59:06.072Z</time>
      </trkpt>
      <trkpt lat="47.02742" lon="8.99606">
        <ele>850</ele>
        <time>2021-08-02T09:59:07.071Z</time>
      </trkpt>
      <trkpt lat="47.02742" lon="8.99604">
        <ele>850</ele>
        <time>2021-08-02T09:59:08.071Z</time>
      </trkpt>
      <trkpt lat="47.02742" lon="8.99603">
        <ele>850</ele>
        <time>2021-08-02T09:59:09.071Z</time>
      </trkpt>
      <trkpt lat="47.02743" lon="8.99602">
        <ele>851</ele>
        <time>2021-08-02T09:59:10.071Z</time>
      </trkpt>
      <trkpt lat="47.02743" lon="8.996">
        <ele>851</ele>
        <time>2021-08-02T09:59:11.071Z</time>
      </trkpt>
      <trkpt lat="47.02743" lon="8.99599">
        <ele>851</ele>
        <time>2021-08-02T09:59:13.201Z</time>
      </trkpt>
      <trkpt lat="47.02743" lon="8.99597">
        <ele>851</ele>
        <time>2021-08-02T09:59:14.201Z</time>
      </trkpt>
      <trkpt lat="47.02742" lon="8.99596">
        <ele>851</ele>
        <time>2021-08-02T09:59:15.201Z</time>
      </trkpt>
      <trkpt lat="47.02742" lon="8.99595">
        <ele>852</ele>
        <time>2021-08-02T09:59:16.201Z</time>
      </trkpt>
      <trkpt lat="47.02742" lon="8.99593">
        <ele>852</ele>
        <time>2021-08-02T09:59:17.201Z</time>
      </trkpt>
      <trkpt lat="47.02741" lon="8.99592">
        <ele>852</ele>
        <time>2021-08-02T09:59:18.201Z</time>
      </trkpt>
      <trkpt lat="47.0274" lon="8.99591">
        <ele>853</ele>
        <time>2021-08-02T09:59:19.201Z</time>
      </trkpt>
      <trkpt lat="47.02739" lon="8.99589">
        <ele>853</ele>
        <time>2021-08-02T09:59:20.201Z</time>
      </trkpt>
      <trkpt lat="47.02739" lon="8.99588">
        <ele>854</ele>
        <time>2021-08-02T09:59:21.202Z</time>
      </trkpt>
      <trkpt lat="47.02739" lon="8.99587">
        <ele>854</ele>
        <time>2021-08-02T09:59:22.201Z</time>
      </trkpt>
      <trkpt lat="47.02739" lon="8.99585">
        <ele>854</ele>
        <time>2021-08-02T09:59:23.202Z</time>
      </trkpt>
      <trkpt lat="47.02738" lon="8.99584">
        <ele>854</ele>
        <time>2021-08-02T09:59:24.201Z</time>
      </trkpt>
      <trkpt lat="47.02737" lon="8.99583">
        <ele>854</ele>
        <time>2021-08-02T09:59:25.201Z</time>
      </trkpt>
      <trkpt lat="47.02737" lon="8.99582">
        <ele>854</ele>
        <time>2021-08-02T09:59:26.201Z</time>
      </trkpt>
      <trkpt lat="47.02737" lon="8.9958">
        <ele>854</ele>
        <time>2021-08-02T09:59:27.201Z</time>
      </trkpt>
      <trkpt lat="47.02736" lon="8.99579">
        <ele>854</ele>
        <time>2021-08-02T09:59:28.201Z</time>
      </trkpt>
      <trkpt lat="47.02736" lon="8.99578">
        <ele>854</ele>
        <time>2021-08-02T09:59:29.202Z</time>
      </trkpt>
      <trkpt lat="47.02736" lon="8.99577">
        <ele>854</ele>
        <time>2021-08-02T09:59:30.202Z</time>
      </trkpt>
      <trkpt lat="47.02736" lon="8.99576">
        <ele>854</ele>
        <time>2021-08-02T09:59:31.201Z</time>
      </trkpt>
      <trkpt lat="47.02735" lon="8.99575">
        <ele>854</ele>
        <time>2021-08-02T09:59:32.201Z</time>
      </trkpt>
      <trkpt lat="47.02733" lon="8.99575">
        <ele>854</ele>
        <time>2021-08-02T09:59:33.201Z</time>
      </trkpt>
      <trkpt lat="47.02733" lon="8.99575">
        <ele>854</ele>
        <time>2021-08-02T09:59:34.201Z</time>
      </trkpt>
      <trkpt lat="47.02733" lon="8.99574">
        <ele>854</ele>
        <time>2021-08-02T09:59:35.202Z</time>
      </trkpt>
      <trkpt lat="47.02731" lon="8.99572">
        <ele>854</ele>
        <time>2021-08-02T09:59:36.201Z</time>
      </trkpt>
      <trkpt lat="47.0273" lon="8.99572">
        <ele>854</ele>
        <time>2021-08-02T09:59:37.201Z</time>
      </trkpt>
      <trkpt lat="47.0273" lon="8.99572">
        <ele>854</ele>
        <time>2021-08-02T09:59:38.201Z</time>
      </trkpt>
      <trkpt lat="47.02729" lon="8.99572">
        <ele>854</ele>
        <time>2021-08-02T09:59:39.201Z</time>
      </trkpt>
      <trkpt lat="47.02729" lon="8.99572">
        <ele>854</ele>
        <time>2021-08-02T09:59:40.201Z</time>
      </trkpt>
      <trkpt lat="47.02729" lon="8.99573">
        <ele>854</ele>
        <time>2021-08-02T09:59:41.201Z</time>
      </trkpt>
      <trkpt lat="47.02728" lon="8.99573">
        <ele>854</ele>
        <time>2021-08-02T09:59:42.201Z</time>
      </trkpt>
      <trkpt lat="47.02726" lon="8.99573">
        <ele>863</ele>
        <time>2021-08-02T09:59:43.202Z</time>
      </trkpt>
      <trkpt lat="47.02725" lon="8.99573">
        <ele>863</ele>
        <time>2021-08-02T09:59:44.201Z</time>
      </trkpt>
      <trkpt lat="47.02724" lon="8.99573">
        <ele>863</ele>
        <time>2021-08-02T09:59:45.201Z</time>
      </trkpt>
      <trkpt lat="47.02723" lon="8.99572">
        <ele>863</ele>
        <time>2021-08-02T09:59:46.202Z</time>
      </trkpt>
      <trkpt lat="47.02721" lon="8.99571">
        <ele>863</ele>
        <time>2021-08-02T09:59:47.201Z</time>
      </trkpt>
      <trkpt lat="47.0272" lon="8.9957">
        <ele>863</ele>
        <time>2021-08-02T09:59:48.201Z</time>
      </trkpt>
      <trkpt lat="47.02719" lon="8.99569">
        <ele>863</ele>
        <time>2021-08-02T09:59:49.202Z</time>
      </trkpt>
      <trkpt lat="47.02718" lon="8.99569">
        <ele>863</ele>
        <time>2021-08-02T09:59:50.202Z</time>
      </trkpt>
      <trkpt lat="47.02717" lon="8.99568">
        <ele>863</ele>
        <time>2021-08-02T09:59:51.201Z</time>
      </trkpt>
      <trkpt lat="47.02715" lon="8.99567">
        <ele>863</ele>
        <time>2021-08-02T09:59:52.201Z</time>
      </trkpt>
      <trkpt lat="47.02714" lon="8.99566">
        <ele>862</ele>
        <time>2021-08-02T09:59:53.201Z</time>
      </trkpt>
      <trkpt lat="47.02712" lon="8.99564">
        <ele>862</ele>
        <time>2021-08-02T09:59:54.201Z</time>
      </trkpt>
      <trkpt lat="47.0271" lon="8.99563">
        <ele>862</ele>
        <time>2021-08-02T09:59:55.202Z</time>
      </trkpt>
      <trkpt lat="47.02708" lon="8.99562">
        <ele>862</ele>
        <time>2021-08-02T09:59:56.201Z</time>
      </trkpt>
      <trkpt lat="47.02707" lon="8.9956">
        <ele>862</ele>
        <time>2021-08-02T09:59:57.201Z</time>
      </trkpt>
      <trkpt lat="47.02706" lon="8.99559">
        <ele>861</ele>
        <time>2021-08-02T09:59:58.201Z</time>
      </trkpt>
      <trkpt lat="47.02705" lon="8.99559">
        <ele>861</ele>
        <time>2021-08-02T09:59:59.201Z</time>
      </trkpt>
      <trkpt lat="47.02704" lon="8.9956">
        <ele>861</ele>
        <time>2021-08-02T10:00:00.201Z</time>
      </trkpt>
      <trkpt lat="47.02702" lon="8.9956">
        <ele>860</ele>
        <time>2021-08-02T10:00:01.201Z</time>
      </trkpt>
      <trkpt lat="47.02701" lon="8.9956">
        <ele>860</ele>
        <time>2021-08-02T10:00:09.310Z</time>
      </trkpt>
      <trkpt lat="47.02701" lon="8.9956">
        <ele>860</ele>
        <time>2021-08-02T10:00:10.310Z</time>
      </trkpt>
      <trkpt lat="47.027" lon="8.99559">
        <ele>860</ele>
        <time>2021-08-02T10:00:11.310Z</time>
      </trkpt>
      <trkpt lat="47.02699" lon="8.99558">
        <ele>859</ele>
        <time>2021-08-02T10:00:12.311Z</time>
      </trkpt>
      <trkpt lat="47.02699" lon="8.99557">
        <ele>859</ele>
        <time>2021-08-02T10:00:13.310Z</time>
      </trkpt>
      <trkpt lat="47.02699" lon="8.99556">
        <ele>860</ele>
        <time>2021-08-02T10:00:14.310Z</time>
      </trkpt>
      <trkpt lat="47.02698" lon="8.99554">
        <ele>860</ele>
        <time>2021-08-02T10:00:15.310Z</time>
      </trkpt>
      <trkpt lat="47.02697" lon="8.99553">
        <ele>860</ele>
        <time>2021-08-02T10:00:16.310Z</time>
      </trkpt>
      <trkpt lat="47.02696" lon="8.99551">
        <ele>861</ele>
        <time>2021-08-02T10:00:17.310Z</time>
      </trkpt>
      <trkpt lat="47.02695" lon="8.9955">
        <ele>861</ele>
        <time>2021-08-02T10:00:18.311Z</time>
      </trkpt>
      <trkpt lat="47.02694" lon="8.99549">
        <ele>862</ele>
        <time>2021-08-02T10:00:19.310Z</time>
      </trkpt>
      <trkpt lat="47.02693" lon="8.99548">
        <ele>862</ele>
        <time>2021-08-02T10:00:20.310Z</time>
      </trkpt>
      <trkpt lat="47.02692" lon="8.99546">
        <ele>863</ele>
        <time>2021-08-02T10:00:21.310Z</time>
      </trkpt>
      <trkpt lat="47.02691" lon="8.99545">
        <ele>863</ele>
        <time>2021-08-02T10:00:22.310Z</time>
      </trkpt>
      <trkpt lat="47.02691" lon="8.99545">
        <ele>864</ele>
        <time>2021-08-02T10:00:23.310Z</time>
      </trkpt>
      <trkpt lat="47.02691" lon="8.99544">
        <ele>864</ele>
        <time>2021-08-02T10:00:24.310Z</time>
      </trkpt>
      <trkpt lat="47.02692" lon="8.99543">
        <ele>865</ele>
        <time>2021-08-02T10:00:25.311Z</time>
      </trkpt>
      <trkpt lat="47.02692" lon="8.99542">
        <ele>865</ele>
        <time>2021-08-02T10:00:26.310Z</time>
      </trkpt>
      <trkpt lat="47.02691" lon="8.99541">
        <ele>865</ele>
        <time>2021-08-02T10:00:27.310Z</time>
      </trkpt>
      <trkpt lat="47.0269" lon="8.99539">
        <ele>865</ele>
        <time>2021-08-02T10:00:28.310Z</time>
      </trkpt>
      <trkpt lat="47.02689" lon="8.99538">
        <ele>865</ele>
        <time>2021-08-02T10:00:29.310Z</time>
      </trkpt>
      <trkpt lat="47.02688" lon="8.99536">
        <ele>865</ele>
        <time>2021-08-02T10:00:30.310Z</time>
      </trkpt>
      <trkpt lat="47.02688" lon="8.99535">
        <ele>864</ele>
        <time>2021-08-02T10:00:31.310Z</time>
      </trkpt>
      <trkpt lat="47.02688" lon="8.99533">
        <ele>864</ele>
        <time>2021-08-02T10:00:32.310Z</time>
      </trkpt>
      <trkpt lat="47.02687" lon="8.99532">
        <ele>864</ele>
        <time>2021-08-02T10:00:33.310Z</time>
      </trkpt>
      <trkpt lat="47.02687" lon="8.9953">
        <ele>864</ele>
        <time>2021-08-02T10:00:34.310Z</time>
      </trkpt>
      <trkpt lat="47.02687" lon="8.99529">
        <ele>865</ele>
        <time>2021-08-02T10:00:35.310Z</time>
      </trkpt>
      <trkpt lat="47.02687" lon="8.99527">
        <ele>865</ele>
        <time>2021-08-02T10:00:36.311Z</time>
      </trkpt>
      <trkpt lat="47.02686" lon="8.99526">
        <ele>865</ele>
        <time>2021-08-02T10:00:37.310Z</time>
      </trkpt>
      <trkpt lat="47.02686" lon="8.99525">
        <ele>865</ele>
        <time>2021-08-02T10:00:38.310Z</time>
      </trkpt>
      <trkpt lat="47.02686" lon="8.99523">
        <ele>865</ele>
        <time>2021-08-02T10:00:39.310Z</time>
      </trkpt>
      <trkpt lat="47.02685" lon="8.99521">
        <ele>864</ele>
        <time>2021-08-02T10:00:40.310Z</time>
      </trkpt>
      <trkpt lat="47.02684" lon="8.9952">
        <ele>864</ele>
        <time>2021-08-02T10:00:41.310Z</time>
      </trkpt>
      <trkpt lat="47.02683" lon="8.99518">
        <ele>863</ele>
        <time>2021-08-02T10:00:42.310Z</time>
      </trkpt>
      <trkpt lat="47.02682" lon="8.99516">
        <ele>863</ele>
        <time>2021-08-02T10:00:43.310Z</time>
      </trkpt>
      <trkpt lat="47.02682" lon="8.99515">
        <ele>862</ele>
        <time>2021-08-02T10:00:44.310Z</time>
      </trkpt>
      <trkpt lat="47.02682" lon="8.99513">
        <ele>861</ele>
        <time>2021-08-02T10:00:45.310Z</time>
      </trkpt>
      <trkpt lat="47.02682" lon="8.99512">
        <ele>860</ele>
        <time>2021-08-02T10:00:46.311Z</time>
      </trkpt>
      <trkpt lat="47.02682" lon="8.9951">
        <ele>860</ele>
        <time>2021-08-02T10:00:47.310Z</time>
      </trkpt>
      <trkpt lat="47.02681" lon="8.99507">
        <ele>860</ele>
        <time>2021-08-02T10:00:48.310Z</time>
      </trkpt>
      <trkpt lat="47.02681" lon="8.99506">
        <ele>860</ele>
        <time>2021-08-02T10:00:49.310Z</time>
      </trkpt>
      <trkpt lat="47.0268" lon="8.99505">
        <ele>860</ele>
        <time>2021-08-02T10:00:50.310Z</time>
      </trkpt>
      <trkpt lat="47.0268" lon="8.99504">
        <ele>859</ele>
        <time>2021-08-02T10:00:51.311Z</time>
      </trkpt>
      <trkpt lat="47.02679" lon="8.99502">
        <ele>859</ele>
        <time>2021-08-02T10:00:52.310Z</time>
      </trkpt>
      <trkpt lat="47.02678" lon="8.99501">
        <ele>859</ele>
        <time>2021-08-02T10:00:53.310Z</time>
      </trkpt>
      <trkpt lat="47.02677" lon="8.995">
        <ele>859</ele>
        <time>2021-08-02T10:00:54.310Z</time>
      </trkpt>
      <trkpt lat="47.02675" lon="8.99497">
        <ele>858</ele>
        <time>2021-08-02T10:00:55.310Z</time>
      </trkpt>
      <trkpt lat="47.02675" lon="8.99496">
        <ele>859</ele>
        <time>2021-08-02T10:00:56.310Z</time>
      </trkpt>
      <trkpt lat="47.02675" lon="8.99493">
        <ele>859</ele>
        <time>2021-08-02T10:00:57.310Z</time>
      </trkpt>
      <trkpt lat="47.02675" lon="8.99492">
        <ele>859</ele>
        <time>2021-08-02T10:00:58.310Z</time>
      </trkpt>
      <trkpt lat="47.02674" lon="8.99491">
        <ele>859</ele>
        <time>2021-08-02T10:00:59.310Z</time>
      </trkpt>
      <trkpt lat="47.02674" lon="8.99489">
        <ele>858</ele>
        <time>2021-08-02T10:01:00.310Z</time>
      </trkpt>
      <trkpt lat="47.02673" lon="8.99488">
        <ele>858</ele>
        <time>2021-08-02T10:01:01.311Z</time>
      </trkpt>
      <trkpt lat="47.02673" lon="8.99487">
        <ele>857</ele>
        <time>2021-08-02T10:01:02.310Z</time>
      </trkpt>
      <trkpt lat="47.02673" lon="8.99485">
        <ele>857</ele>
        <time>2021-08-02T10:01:03.310Z</time>
      </trkpt>
      <trkpt lat="47.02672" lon="8.99484">
        <ele>857</ele>
        <time>2021-08-02T10:01:04.310Z</time>
      </trkpt>
      <trkpt lat="47.02671" lon="8.99482">
        <ele>857</ele>
        <time>2021-08-02T10:01:05.310Z</time>
      </trkpt>
      <trkpt lat="47.0267" lon="8.99481">
        <ele>857</ele>
        <time>2021-08-02T10:01:06.311Z</time>
      </trkpt>
      <trkpt lat="47.02668" lon="8.9948">
        <ele>857</ele>
        <time>2021-08-02T10:01:07.310Z</time>
      </trkpt>
      <trkpt lat="47.02667" lon="8.99479">
        <ele>856</ele>
        <time>2021-08-02T10:01:08.310Z</time>
      </trkpt>
      <trkpt lat="47.02667" lon="8.99478">
        <ele>856</ele>
        <time>2021-08-02T10:01:09.310Z</time>
      </trkpt>
      <trkpt lat="47.02666" lon="8.99476">
        <ele>856</ele>
        <time>2021-08-02T10:01:10.310Z</time>
      </trkpt>
      <trkpt lat="47.02666" lon="8.99474">
        <ele>855</ele>
        <time>2021-08-02T10:01:11.310Z</time>
      </trkpt>
      <trkpt lat="47.02665" lon="8.99473">
        <ele>855</ele>
        <time>2021-08-02T10:01:12.310Z</time>
      </trkpt>
      <trkpt lat="47.02665" lon="8.99471">
        <ele>855</ele>
        <time>2021-08-02T10:01:13.310Z</time>
      </trkpt>
      <trkpt lat="47.02665" lon="8.99469">
        <ele>855</ele>
        <time>2021-08-02T10:01:14.311Z</time>
      </trkpt>
      <trkpt lat="47.02664" lon="8.99467">
        <ele>855</ele>
        <time>2021-08-02T10:01:15.310Z</time>
      </trkpt>
      <trkpt lat="47.02663" lon="8.99465">
        <ele>855</ele>
        <time>2021-08-02T10:01:16.310Z</time>
      </trkpt>
      <trkpt lat="47.02663" lon="8.99464">
        <ele>855</ele>
        <time>2021-08-02T10:01:17.310Z</time>
      </trkpt>
      <trkpt lat="47.02662" lon="8.99462">
        <ele>856</ele>
        <time>2021-08-02T10:01:18.310Z</time>
      </trkpt>
      <trkpt lat="47.02662" lon="8.9946">
        <ele>856</ele>
        <time>2021-08-02T10:01:19.310Z</time>
      </trkpt>
      <trkpt lat="47.02662" lon="8.99458">
        <ele>856</ele>
        <time>2021-08-02T10:01:20.310Z</time>
      </trkpt>
      <trkpt lat="47.02662" lon="8.99456">
        <ele>856</ele>
        <time>2021-08-02T10:01:21.310Z</time>
      </trkpt>
      <trkpt lat="47.02661" lon="8.99454">
        <ele>856</ele>
        <time>2021-08-02T10:01:22.310Z</time>
      </trkpt>
      <trkpt lat="47.0266" lon="8.99452">
        <ele>857</ele>
        <time>2021-08-02T10:01:23.310Z</time>
      </trkpt>
      <trkpt lat="47.0266" lon="8.99449">
        <ele>857</ele>
        <time>2021-08-02T10:01:24.310Z</time>
      </trkpt>
      <trkpt lat="47.02659" lon="8.99447">
        <ele>857</ele>
        <time>2021-08-02T10:01:25.310Z</time>
      </trkpt>
      <trkpt lat="47.02659" lon="8.99445">
        <ele>857</ele>
        <time>2021-08-02T10:01:26.310Z</time>
      </trkpt>
      <trkpt lat="47.02659" lon="8.99444">
        <ele>857</ele>
        <time>2021-08-02T10:01:27.311Z</time>
      </trkpt>
      <trkpt lat="47.02659" lon="8.99441">
        <ele>857</ele>
        <time>2021-08-02T10:01:28.310Z</time>
      </trkpt>
      <trkpt lat="47.0266" lon="8.99438">
        <ele>857</ele>
        <time>2021-08-02T10:01:29.311Z</time>
      </trkpt>
      <trkpt lat="47.02659" lon="8.99436">
        <ele>857</ele>
        <time>2021-08-02T10:01:30.310Z</time>
      </trkpt>
      <trkpt lat="47.02659" lon="8.99434">
        <ele>857</ele>
        <time>2021-08-02T10:01:31.310Z</time>
      </trkpt>
      <trkpt lat="47.02658" lon="8.99431">
        <ele>857</ele>
        <time>2021-08-02T10:01:32.310Z</time>
      </trkpt>
      <trkpt lat="47.02657" lon="8.99429">
        <ele>857</ele>
        <time>2021-08-02T10:01:33.310Z</time>
      </trkpt>
      <trkpt lat="47.02657" lon="8.99428">
        <ele>857</ele>
        <time>2021-08-02T10:01:34.310Z</time>
      </trkpt>
      <trkpt lat="47.02657" lon="8.99426">
        <ele>857</ele>
        <time>2021-08-02T10:01:35.310Z</time>
      </trkpt>
      <trkpt lat="47.02657" lon="8.99426">
        <ele>857</ele>
        <time>2021-08-02T10:01:36.311Z</time>
      </trkpt>
      <trkpt lat="47.02657" lon="8.99426">
        <ele>857</ele>
        <time>2021-08-02T10:01:37.311Z</time>
      </trkpt>
      <trkpt lat="47.02656" lon="8.99427">
        <ele>856</ele>
        <time>2021-08-02T10:01:38.311Z</time>
      </trkpt>
      <trkpt lat="47.02655" lon="8.99428">
        <ele>856</ele>
        <time>2021-08-02T10:01:39.311Z</time>
      </trkpt>
      <trkpt lat="47.02656" lon="8.99424">
        <ele>856</ele>
        <time>2021-08-02T10:01:40.312Z</time>
      </trkpt>
      <trkpt lat="47.02657" lon="8.99423">
        <ele>856</ele>
        <time>2021-08-02T10:01:41.311Z</time>
      </trkpt>
      <trkpt lat="47.02657" lon="8.99421">
        <ele>856</ele>
        <time>2021-08-02T10:01:42.311Z</time>
      </trkpt>
      <trkpt lat="47.02657" lon="8.99419">
        <ele>855</ele>
        <time>2021-08-02T10:01:43.311Z</time>
      </trkpt>
      <trkpt lat="47.02658" lon="8.99417">
        <ele>855</ele>
        <time>2021-08-02T10:01:44.311Z</time>
      </trkpt>
      <trkpt lat="47.02658" lon="8.99416">
        <ele>854</ele>
        <time>2021-08-02T10:01:45.312Z</time>
      </trkpt>
      <trkpt lat="47.02658" lon="8.99414">
        <ele>853</ele>
        <time>2021-08-02T10:01:46.311Z</time>
      </trkpt>
      <trkpt lat="47.02659" lon="8.99412">
        <ele>853</ele>
        <time>2021-08-02T10:01:47.312Z</time>
      </trkpt>
      <trkpt lat="47.02659" lon="8.99411">
        <ele>853</ele>
        <time>2021-08-02T10:01:48.312Z</time>
      </trkpt>
      <trkpt lat="47.0266" lon="8.99409">
        <ele>853</ele>
        <time>2021-08-02T10:01:49.311Z</time>
      </trkpt>
      <trkpt lat="47.0266" lon="8.99407">
        <ele>852</ele>
        <time>2021-08-02T10:01:50.311Z</time>
      </trkpt>
      <trkpt lat="47.0266" lon="8.99406">
        <ele>852</ele>
        <time>2021-08-02T10:01:51.311Z</time>
      </trkpt>
      <trkpt lat="47.02661" lon="8.99404">
        <ele>851</ele>
        <time>2021-08-02T10:01:52.311Z</time>
      </trkpt>
      <trkpt lat="47.02661" lon="8.99403">
        <ele>851</ele>
        <time>2021-08-02T10:01:53.311Z</time>
      </trkpt>
      <trkpt lat="47.02661" lon="8.99401">
        <ele>851</ele>
        <time>2021-08-02T10:01:54.311Z</time>
      </trkpt>
      <trkpt lat="47.02662" lon="8.994">
        <ele>851</ele>
        <time>2021-08-02T10:01:55.311Z</time>
      </trkpt>
      <trkpt lat="47.02662" lon="8.99398">
        <ele>851</ele>
        <time>2021-08-02T10:01:56.311Z</time>
      </trkpt>
      <trkpt lat="47.02663" lon="8.99396">
        <ele>851</ele>
        <time>2021-08-02T10:01:57.311Z</time>
      </trkpt>
      <trkpt lat="47.02663" lon="8.99395">
        <ele>851</ele>
        <time>2021-08-02T10:01:58.312Z</time>
      </trkpt>
      <trkpt lat="47.02663" lon="8.99393">
        <ele>852</ele>
        <time>2021-08-02T10:01:59.311Z</time>
      </trkpt>
      <trkpt lat="47.02664" lon="8.99391">
        <ele>852</ele>
        <time>2021-08-02T10:02:00.311Z</time>
      </trkpt>
      <trkpt lat="47.02664" lon="8.99389">
        <ele>852</ele>
        <time>2021-08-02T10:02:01.311Z</time>
      </trkpt>
      <trkpt lat="47.02664" lon="8.99388">
        <ele>853</ele>
        <time>2021-08-02T10:02:02.312Z</time>
      </trkpt>
      <trkpt lat="47.02665" lon="8.99386">
        <ele>853</ele>
        <time>2021-08-02T10:02:03.311Z</time>
      </trkpt>
      <trkpt lat="47.02665" lon="8.99384">
        <ele>853</ele>
        <time>2021-08-02T10:02:04.312Z</time>
      </trkpt>
      <trkpt lat="47.02666" lon="8.99382">
        <ele>852</ele>
        <time>2021-08-02T10:02:05.311Z</time>
      </trkpt>
      <trkpt lat="47.02666" lon="8.99381">
        <ele>852</ele>
        <time>2021-08-02T10:02:06.311Z</time>
      </trkpt>
      <trkpt lat="47.02666" lon="8.99379">
        <ele>853</ele>
        <time>2021-08-02T10:02:07.311Z</time>
      </trkpt>
      <trkpt lat="47.02667" lon="8.99377">
        <ele>853</ele>
        <time>2021-08-02T10:02:08.311Z</time>
      </trkpt>
      <trkpt lat="47.02667" lon="8.99375">
        <ele>852</ele>
        <time>2021-08-02T10:02:09.312Z</time>
      </trkpt>
      <trkpt lat="47.02667" lon="8.99374">
        <ele>852</ele>
        <time>2021-08-02T10:02:10.311Z</time>
      </trkpt>
      <trkpt lat="47.02668" lon="8.99372">
        <ele>852</ele>
        <time>2021-08-02T10:02:11.311Z</time>
      </trkpt>
      <trkpt lat="47.02668" lon="8.99371">
        <ele>851</ele>
        <time>2021-08-02T10:02:12.311Z</time>
      </trkpt>
      <trkpt lat="47.02668" lon="8.9937">
        <ele>850</ele>
        <time>2021-08-02T10:02:13.311Z</time>
      </trkpt>
      <trkpt lat="47.02668" lon="8.99368">
        <ele>850</ele>
        <time>2021-08-02T10:02:14.311Z</time>
      </trkpt>
      <trkpt lat="47.02668" lon="8.99367">
        <ele>849</ele>
        <time>2021-08-02T10:02:15.311Z</time>
      </trkpt>
      <trkpt lat="47.02668" lon="8.99365">
        <ele>849</ele>
        <time>2021-08-02T10:02:16.312Z</time>
      </trkpt>
      <trkpt lat="47.02668" lon="8.99363">
        <ele>849</ele>
        <time>2021-08-02T10:02:17.311Z</time>
      </trkpt>
      <trkpt lat="47.02669" lon="8.99361">
        <ele>849</ele>
        <time>2021-08-02T10:02:18.311Z</time>
      </trkpt>
      <trkpt lat="47.02669" lon="8.99359">
        <ele>849</ele>
        <time>2021-08-02T10:02:19.311Z</time>
      </trkpt>
      <trkpt lat="47.02669" lon="8.99357">
        <ele>849</ele>
        <time>2021-08-02T10:02:20.311Z</time>
      </trkpt>
      <trkpt lat="47.02669" lon="8.99356">
        <ele>849</ele>
        <time>2021-08-02T10:02:21.311Z</time>
      </trkpt>
      <trkpt lat="47.0267" lon="8.99354">
        <ele>849</ele>
        <time>2021-08-02T10:02:22.311Z</time>
      </trkpt>
      <trkpt lat="47.0267" lon="8.99352">
        <ele>849</ele>
        <time>2021-08-02T10:02:23.311Z</time>
      </trkpt>
      <trkpt lat="47.0267" lon="8.99351">
        <ele>849</ele>
        <time>2021-08-02T10:02:24.311Z</time>
      </trkpt>
      <trkpt lat="47.02671" lon="8.99349">
        <ele>849</ele>
        <time>2021-08-02T10:02:25.311Z</time>
      </trkpt>
      <trkpt lat="47.02671" lon="8.99347">
        <ele>849</ele>
        <time>2021-08-02T10:02:26.312Z</time>
      </trkpt>
      <trkpt lat="47.02672" lon="8.99345">
        <ele>849</ele>
        <time>2021-08-02T10:02:27.312Z</time>
      </trkpt>
      <trkpt lat="47.02672" lon="8.99343">
        <ele>849</ele>
        <time>2021-08-02T10:02:28.311Z</time>
      </trkpt>
      <trkpt lat="47.02673" lon="8.99341">
        <ele>848</ele>
        <time>2021-08-02T10:02:29.311Z</time>
      </trkpt>
      <trkpt lat="47.02673" lon="8.99338">
        <ele>848</ele>
        <time>2021-08-02T10:02:30.311Z</time>
      </trkpt>
      <trkpt lat="47.02674" lon="8.99336">
        <ele>847</ele>
        <time>2021-08-02T10:02:31.311Z</time>
      </trkpt>
      <trkpt lat="47.02674" lon="8.99334">
        <ele>847</ele>
        <time>2021-08-02T10:02:32.311Z</time>
      </trkpt>
      <trkpt lat="47.02674" lon="8.99332">
        <ele>847</ele>
        <time>2021-08-02T10:02:33.311Z</time>
      </trkpt>
      <trkpt lat="47.02673" lon="8.9933">
        <ele>846</ele>
        <time>2021-08-02T10:02:34.311Z</time>
      </trkpt>
      <trkpt lat="47.02673" lon="8.99328">
        <ele>846</ele>
        <time>2021-08-02T10:02:35.311Z</time>
      </trkpt>
      <trkpt lat="47.02673" lon="8.99326">
        <ele>846</ele>
        <time>2021-08-02T10:02:37.403Z</time>
      </trkpt>
      <trkpt lat="47.02673" lon="8.99325">
        <ele>846</ele>
        <time>2021-08-02T10:02:41.158Z</time>
      </trkpt>
      <trkpt lat="47.02673" lon="8.99323">
        <ele>847</ele>
        <time>2021-08-02T10:02:42.157Z</time>
      </trkpt>
      <trkpt lat="47.02673" lon="8.99321">
        <ele>847</ele>
        <time>2021-08-02T10:02:43.158Z</time>
      </trkpt>
      <trkpt lat="47.02673" lon="8.99319">
        <ele>846</ele>
        <time>2021-08-02T10:03:09.922Z</time>
      </trkpt>
      <trkpt lat="47.02673" lon="8.99318">
        <ele>846</ele>
        <time>2021-08-02T10:03:10.922Z</time>
      </trkpt>
      <trkpt lat="47.02672" lon="8.99316">
        <ele>846</ele>
        <time>2021-08-02T10:03:11.922Z</time>
      </trkpt>
      <trkpt lat="47.02672" lon="8.99314">
        <ele>846</ele>
        <time>2021-08-02T10:03:12.923Z</time>
      </trkpt>
      <trkpt lat="47.02672" lon="8.99312">
        <ele>846</ele>
        <time>2021-08-02T10:03:13.922Z</time>
      </trkpt>
      <trkpt lat="47.02671" lon="8.9931">
        <ele>847</ele>
        <time>2021-08-02T10:03:14.922Z</time>
      </trkpt>
      <trkpt lat="47.02671" lon="8.99309">
        <ele>847</ele>
        <time>2021-08-02T10:03:15.922Z</time>
      </trkpt>
      <trkpt lat="47.02671" lon="8.99307">
        <ele>847</ele>
        <time>2021-08-02T10:03:16.922Z</time>
      </trkpt>
      <trkpt lat="47.02671" lon="8.99305">
        <ele>847</ele>
        <time>2021-08-02T10:03:17.923Z</time>
      </trkpt>
      <trkpt lat="47.02672" lon="8.99303">
        <ele>847</ele>
        <time>2021-08-02T10:03:21.925Z</time>
      </trkpt>
      <trkpt lat="47.02672" lon="8.99301">
        <ele>847</ele>
        <time>2021-08-02T10:03:22.925Z</time>
      </trkpt>
      <trkpt lat="47.02672" lon="8.99299">
        <ele>847</ele>
        <time>2021-08-02T10:03:23.925Z</time>
      </trkpt>
      <trkpt lat="47.02672" lon="8.99297">
        <ele>847</ele>
        <time>2021-08-02T10:03:24.925Z</time>
      </trkpt>
      <trkpt lat="47.02672" lon="8.99295">
        <ele>847</ele>
        <time>2021-08-02T10:03:25.925Z</time>
      </trkpt>
      <trkpt lat="47.02672" lon="8.99294">
        <ele>847</ele>
        <time>2021-08-02T10:03:26.925Z</time>
      </trkpt>
      <trkpt lat="47.02671" lon="8.99292">
        <ele>847</ele>
        <time>2021-08-02T10:03:27.925Z</time>
      </trkpt>
      <trkpt lat="47.02672" lon="8.9929">
        <ele>847</ele>
        <time>2021-08-02T10:03:28.925Z</time>
      </trkpt>
      <trkpt lat="47.02672" lon="8.99288">
        <ele>848</ele>
        <time>2021-08-02T10:03:29.925Z</time>
      </trkpt>
      <trkpt lat="47.02672" lon="8.99286">
        <ele>848</ele>
        <time>2021-08-02T10:03:30.925Z</time>
      </trkpt>
      <trkpt lat="47.02673" lon="8.99284">
        <ele>848</ele>
        <time>2021-08-02T10:03:31.925Z</time>
      </trkpt>
      <trkpt lat="47.02673" lon="8.99282">
        <ele>848</ele>
        <time>2021-08-02T10:03:32.925Z</time>
      </trkpt>
      <trkpt lat="47.02673" lon="8.9928">
        <ele>848</ele>
        <time>2021-08-02T10:03:33.925Z</time>
      </trkpt>
      <trkpt lat="47.02672" lon="8.99279">
        <ele>848</ele>
        <time>2021-08-02T10:03:34.925Z</time>
      </trkpt>
      <trkpt lat="47.02672" lon="8.99277">
        <ele>848</ele>
        <time>2021-08-02T10:03:35.925Z</time>
      </trkpt>
      <trkpt lat="47.02672" lon="8.99276">
        <ele>848</ele>
        <time>2021-08-02T10:03:36.925Z</time>
      </trkpt>
      <trkpt lat="47.02672" lon="8.99274">
        <ele>848</ele>
        <time>2021-08-02T10:03:37.925Z</time>
      </trkpt>
      <trkpt lat="47.02672" lon="8.99272">
        <ele>848</ele>
        <time>2021-08-02T10:03:38.925Z</time>
      </trkpt>
      <trkpt lat="47.02673" lon="8.99271">
        <ele>848</ele>
        <time>2021-08-02T10:03:39.925Z</time>
      </trkpt>
      <trkpt lat="47.02673" lon="8.99268">
        <ele>848</ele>
        <time>2021-08-02T10:03:40.925Z</time>
      </trkpt>
      <trkpt lat="47.02674" lon="8.99267">
        <ele>849</ele>
        <time>2021-08-02T10:03:41.925Z</time>
      </trkpt>
      <trkpt lat="47.02674" lon="8.99265">
        <ele>849</ele>
        <time>2021-08-02T10:03:42.925Z</time>
      </trkpt>
      <trkpt lat="47.02675" lon="8.99263">
        <ele>849</ele>
        <time>2021-08-02T10:03:43.925Z</time>
      </trkpt>
      <trkpt lat="47.02675" lon="8.99262">
        <ele>849</ele>
        <time>2021-08-02T10:03:44.925Z</time>
      </trkpt>
      <trkpt lat="47.02676" lon="8.9926">
        <ele>849</ele>
        <time>2021-08-02T10:03:45.925Z</time>
      </trkpt>
      <trkpt lat="47.02676" lon="8.99258">
        <ele>849</ele>
        <time>2021-08-02T10:03:46.925Z</time>
      </trkpt>
      <trkpt lat="47.02677" lon="8.99257">
        <ele>849</ele>
        <time>2021-08-02T10:03:47.925Z</time>
      </trkpt>
      <trkpt lat="47.02677" lon="8.99255">
        <ele>849</ele>
        <time>2021-08-02T10:03:48.925Z</time>
      </trkpt>
      <trkpt lat="47.02678" lon="8.99254">
        <ele>848</ele>
        <time>2021-08-02T10:03:49.925Z</time>
      </trkpt>
      <trkpt lat="47.02679" lon="8.99253">
        <ele>849</ele>
        <time>2021-08-02T10:03:50.925Z</time>
      </trkpt>
      <trkpt lat="47.0268" lon="8.99252">
        <ele>849</ele>
        <time>2021-08-02T10:03:51.925Z</time>
      </trkpt>
      <trkpt lat="47.0268" lon="8.99251">
        <ele>849</ele>
        <time>2021-08-02T10:03:52.925Z</time>
      </trkpt>
      <trkpt lat="47.0268" lon="8.9925">
        <ele>850</ele>
        <time>2021-08-02T10:03:53.925Z</time>
      </trkpt>
      <trkpt lat="47.0268" lon="8.99249">
        <ele>850</ele>
        <time>2021-08-02T10:03:54.925Z</time>
      </trkpt>
      <trkpt lat="47.0268" lon="8.99248">
        <ele>851</ele>
        <time>2021-08-02T10:03:55.925Z</time>
      </trkpt>
      <trkpt lat="47.0268" lon="8.99248">
        <ele>852</ele>
        <time>2021-08-02T10:03:56.925Z</time>
      </trkpt>
      <trkpt lat="47.02682" lon="8.99248">
        <ele>854</ele>
        <time>2021-08-02T10:04:02.044Z</time>
      </trkpt>
      <trkpt lat="47.02683" lon="8.99247">
        <ele>853</ele>
        <time>2021-08-02T10:04:03.045Z</time>
      </trkpt>
      <trkpt lat="47.02684" lon="8.99246">
        <ele>853</ele>
        <time>2021-08-02T10:04:10.809Z</time>
      </trkpt>
      <trkpt lat="47.02685" lon="8.99244">
        <ele>852</ele>
        <time>2021-08-02T10:04:11.809Z</time>
      </trkpt>
      <trkpt lat="47.02686" lon="8.99243">
        <ele>852</ele>
        <time>2021-08-02T10:04:12.809Z</time>
      </trkpt>
      <trkpt lat="47.02686" lon="8.99242">
        <ele>852</ele>
        <time>2021-08-02T10:04:13.809Z</time>
      </trkpt>
      <trkpt lat="47.02687" lon="8.9924">
        <ele>852</ele>
        <time>2021-08-02T10:04:14.809Z</time>
      </trkpt>
      <trkpt lat="47.02688" lon="8.99239">
        <ele>851</ele>
        <time>2021-08-02T10:04:15.809Z</time>
      </trkpt>
      <trkpt lat="47.02688" lon="8.99237">
        <ele>851</ele>
        <time>2021-08-02T10:04:16.809Z</time>
      </trkpt>
      <trkpt lat="47.02689" lon="8.99236">
        <ele>851</ele>
        <time>2021-08-02T10:04:17.809Z</time>
      </trkpt>
      <trkpt lat="47.02689" lon="8.99234">
        <ele>850</ele>
        <time>2021-08-02T10:04:18.810Z</time>
      </trkpt>
      <trkpt lat="47.0269" lon="8.99233">
        <ele>850</ele>
        <time>2021-08-02T10:04:19.809Z</time>
      </trkpt>
      <trkpt lat="47.0269" lon="8.99231">
        <ele>850</ele>
        <time>2021-08-02T10:04:20.809Z</time>
      </trkpt>
      <trkpt lat="47.02691" lon="8.99229">
        <ele>849</ele>
        <time>2021-08-02T10:04:21.810Z</time>
      </trkpt>
      <trkpt lat="47.02692" lon="8.99227">
        <ele>849</ele>
        <time>2021-08-02T10:04:22.809Z</time>
      </trkpt>
      <trkpt lat="47.02693" lon="8.99226">
        <ele>849</ele>
        <time>2021-08-02T10:04:23.809Z</time>
      </trkpt>
      <trkpt lat="47.02694" lon="8.99224">
        <ele>848</ele>
        <time>2021-08-02T10:04:24.809Z</time>
      </trkpt>
      <trkpt lat="47.02694" lon="8.99222">
        <ele>848</ele>
        <time>2021-08-02T10:04:25.810Z</time>
      </trkpt>
      <trkpt lat="47.02695" lon="8.9922">
        <ele>847</ele>
        <time>2021-08-02T10:04:26.809Z</time>
      </trkpt>
      <trkpt lat="47.02696" lon="8.99218">
        <ele>846</ele>
        <time>2021-08-02T10:04:27.809Z</time>
      </trkpt>
      <trkpt lat="47.02696" lon="8.99216">
        <ele>846</ele>
        <time>2021-08-02T10:04:28.810Z</time>
      </trkpt>
      <trkpt lat="47.02696" lon="8.99214">
        <ele>846</ele>
        <time>2021-08-02T10:04:29.809Z</time>
      </trkpt>
      <trkpt lat="47.02696" lon="8.99213">
        <ele>847</ele>
        <time>2021-08-02T10:04:30.810Z</time>
      </trkpt>
      <trkpt lat="47.02697" lon="8.99211">
        <ele>847</ele>
        <time>2021-08-02T10:04:31.809Z</time>
      </trkpt>
      <trkpt lat="47.02697" lon="8.9921">
        <ele>848</ele>
        <time>2021-08-02T10:04:32.809Z</time>
      </trkpt>
      <trkpt lat="47.02698" lon="8.99209">
        <ele>848</ele>
        <time>2021-08-02T10:04:33.810Z</time>
      </trkpt>
      <trkpt lat="47.02699" lon="8.99207">
        <ele>849</ele>
        <time>2021-08-02T10:04:34.810Z</time>
      </trkpt>
      <trkpt lat="47.02699" lon="8.99206">
        <ele>849</ele>
        <time>2021-08-02T10:04:35.809Z</time>
      </trkpt>
      <trkpt lat="47.027" lon="8.99204">
        <ele>849</ele>
        <time>2021-08-02T10:04:36.810Z</time>
      </trkpt>
      <trkpt lat="47.027" lon="8.99203">
        <ele>848</ele>
        <time>2021-08-02T10:04:37.809Z</time>
      </trkpt>
      <trkpt lat="47.02701" lon="8.99201">
        <ele>848</ele>
        <time>2021-08-02T10:04:38.809Z</time>
      </trkpt>
      <trkpt lat="47.02701" lon="8.992">
        <ele>848</ele>
        <time>2021-08-02T10:04:39.809Z</time>
      </trkpt>
      <trkpt lat="47.02701" lon="8.99199">
        <ele>848</ele>
        <time>2021-08-02T10:04:40.809Z</time>
      </trkpt>
      <trkpt lat="47.02702" lon="8.99197">
        <ele>848</ele>
        <time>2021-08-02T10:04:41.809Z</time>
      </trkpt>
      <trkpt lat="47.02702" lon="8.99195">
        <ele>848</ele>
        <time>2021-08-02T10:04:42.809Z</time>
      </trkpt>
      <trkpt lat="47.02703" lon="8.99194">
        <ele>848</ele>
        <time>2021-08-02T10:04:43.809Z</time>
      </trkpt>
      <trkpt lat="47.02703" lon="8.99192">
        <ele>848</ele>
        <time>2021-08-02T10:04:44.809Z</time>
      </trkpt>
      <trkpt lat="47.02704" lon="8.9919">
        <ele>849</ele>
        <time>2021-08-02T10:04:45.809Z</time>
      </trkpt>
      <trkpt lat="47.02704" lon="8.99189">
        <ele>849</ele>
        <time>2021-08-02T10:04:46.810Z</time>
      </trkpt>
      <trkpt lat="47.02705" lon="8.99187">
        <ele>849</ele>
        <time>2021-08-02T10:04:47.809Z</time>
      </trkpt>
      <trkpt lat="47.02705" lon="8.99185">
        <ele>848</ele>
        <time>2021-08-02T10:04:48.809Z</time>
      </trkpt>
      <trkpt lat="47.02705" lon="8.99183">
        <ele>848</ele>
        <time>2021-08-02T10:04:49.809Z</time>
      </trkpt>
      <trkpt lat="47.02705" lon="8.99182">
        <ele>848</ele>
        <time>2021-08-02T10:04:50.810Z</time>
      </trkpt>
      <trkpt lat="47.02706" lon="8.9918">
        <ele>848</ele>
        <time>2021-08-02T10:04:51.809Z</time>
      </trkpt>
      <trkpt lat="47.02706" lon="8.99178">
        <ele>847</ele>
        <time>2021-08-02T10:04:52.809Z</time>
      </trkpt>
      <trkpt lat="47.02706" lon="8.99176">
        <ele>847</ele>
        <time>2021-08-02T10:04:53.809Z</time>
      </trkpt>
      <trkpt lat="47.02707" lon="8.99174">
        <ele>847</ele>
        <time>2021-08-02T10:04:54.809Z</time>
      </trkpt>
      <trkpt lat="47.02708" lon="8.99172">
        <ele>847</ele>
        <time>2021-08-02T10:04:55.809Z</time>
      </trkpt>
      <trkpt lat="47.02709" lon="8.9917">
        <ele>847</ele>
        <time>2021-08-02T10:04:56.810Z</time>
      </trkpt>
      <trkpt lat="47.02709" lon="8.99167">
        <ele>847</ele>
        <time>2021-08-02T10:04:57.809Z</time>
      </trkpt>
      <trkpt lat="47.02709" lon="8.99165">
        <ele>847</ele>
        <time>2021-08-02T10:04:58.809Z</time>
      </trkpt>
      <trkpt lat="47.0271" lon="8.99163">
        <ele>847</ele>
        <time>2021-08-02T10:04:59.809Z</time>
      </trkpt>
      <trkpt lat="47.0271" lon="8.99161">
        <ele>847</ele>
        <time>2021-08-02T10:05:00.809Z</time>
      </trkpt>
      <trkpt lat="47.0271" lon="8.99159">
        <ele>847</ele>
        <time>2021-08-02T10:05:01.810Z</time>
      </trkpt>
      <trkpt lat="47.0271" lon="8.99157">
        <ele>848</ele>
        <time>2021-08-02T10:05:02.809Z</time>
      </trkpt>
      <trkpt lat="47.02711" lon="8.99156">
        <ele>848</ele>
        <time>2021-08-02T10:05:03.809Z</time>
      </trkpt>
      <trkpt lat="47.02711" lon="8.99154">
        <ele>849</ele>
        <time>2021-08-02T10:05:04.809Z</time>
      </trkpt>
      <trkpt lat="47.0271" lon="8.99152">
        <ele>850</ele>
        <time>2021-08-02T10:05:05.810Z</time>
      </trkpt>
      <trkpt lat="47.0271" lon="8.9915">
        <ele>850</ele>
        <time>2021-08-02T10:05:06.810Z</time>
      </trkpt>
      <trkpt lat="47.0271" lon="8.99148">
        <ele>850</ele>
        <time>2021-08-02T10:05:07.809Z</time>
      </trkpt>
      <trkpt lat="47.0271" lon="8.99147">
        <ele>850</ele>
        <time>2021-08-02T10:05:08.809Z</time>
      </trkpt>
      <trkpt lat="47.0271" lon="8.99145">
        <ele>850</ele>
        <time>2021-08-02T10:05:09.809Z</time>
      </trkpt>
      <trkpt lat="47.0271" lon="8.99143">
        <ele>849</ele>
        <time>2021-08-02T10:05:10.809Z</time>
      </trkpt>
      <trkpt lat="47.0271" lon="8.99142">
        <ele>849</ele>
        <time>2021-08-02T10:05:11.809Z</time>
      </trkpt>
      <trkpt lat="47.0271" lon="8.9914">
        <ele>848</ele>
        <time>2021-08-02T10:05:12.809Z</time>
      </trkpt>
      <trkpt lat="47.0271" lon="8.99138">
        <ele>848</ele>
        <time>2021-08-02T10:05:13.809Z</time>
      </trkpt>
      <trkpt lat="47.0271" lon="8.99136">
        <ele>848</ele>
        <time>2021-08-02T10:05:14.809Z</time>
      </trkpt>
      <trkpt lat="47.0271" lon="8.99135">
        <ele>849</ele>
        <time>2021-08-02T10:05:15.809Z</time>
      </trkpt>
      <trkpt lat="47.0271" lon="8.99133">
        <ele>849</ele>
        <time>2021-08-02T10:05:16.809Z</time>
      </trkpt>
      <trkpt lat="47.0271" lon="8.99131">
        <ele>850</ele>
        <time>2021-08-02T10:05:17.809Z</time>
      </trkpt>
      <trkpt lat="47.0271" lon="8.99129">
        <ele>850</ele>
        <time>2021-08-02T10:05:18.809Z</time>
      </trkpt>
      <trkpt lat="47.0271" lon="8.99127">
        <ele>851</ele>
        <time>2021-08-02T10:05:19.809Z</time>
      </trkpt>
      <trkpt lat="47.0271" lon="8.99126">
        <ele>852</ele>
        <time>2021-08-02T10:05:20.809Z</time>
      </trkpt>
      <trkpt lat="47.0271" lon="8.99124">
        <ele>852</ele>
        <time>2021-08-02T10:05:21.809Z</time>
      </trkpt>
      <trkpt lat="47.0271" lon="8.99123">
        <ele>853</ele>
        <time>2021-08-02T10:05:22.810Z</time>
      </trkpt>
      <trkpt lat="47.0271" lon="8.99121">
        <ele>854</ele>
        <time>2021-08-02T10:05:23.809Z</time>
      </trkpt>
      <trkpt lat="47.02709" lon="8.99119">
        <ele>855</ele>
        <time>2021-08-02T10:05:24.810Z</time>
      </trkpt>
      <trkpt lat="47.02709" lon="8.99118">
        <ele>856</ele>
        <time>2021-08-02T10:05:25.809Z</time>
      </trkpt>
      <trkpt lat="47.02709" lon="8.99116">
        <ele>856</ele>
        <time>2021-08-02T10:05:26.809Z</time>
      </trkpt>
      <trkpt lat="47.02709" lon="8.99114">
        <ele>857</ele>
        <time>2021-08-02T10:05:27.810Z</time>
      </trkpt>
      <trkpt lat="47.02708" lon="8.99112">
        <ele>858</ele>
        <time>2021-08-02T10:05:28.809Z</time>
      </trkpt>
      <trkpt lat="47.02708" lon="8.9911">
        <ele>858</ele>
        <time>2021-08-02T10:05:29.810Z</time>
      </trkpt>
      <trkpt lat="47.02709" lon="8.99107">
        <ele>857</ele>
        <time>2021-08-02T10:05:30.810Z</time>
      </trkpt>
      <trkpt lat="47.02708" lon="8.99105">
        <ele>857</ele>
        <time>2021-08-02T10:05:31.810Z</time>
      </trkpt>
      <trkpt lat="47.02708" lon="8.99104">
        <ele>857</ele>
        <time>2021-08-02T10:05:32.810Z</time>
      </trkpt>
      <trkpt lat="47.02707" lon="8.99102">
        <ele>857</ele>
        <time>2021-08-02T10:05:33.809Z</time>
      </trkpt>
      <trkpt lat="47.02707" lon="8.991">
        <ele>857</ele>
        <time>2021-08-02T10:05:34.810Z</time>
      </trkpt>
      <trkpt lat="47.02707" lon="8.99097">
        <ele>857</ele>
        <time>2021-08-02T10:05:35.810Z</time>
      </trkpt>
      <trkpt lat="47.02707" lon="8.99096">
        <ele>857</ele>
        <time>2021-08-02T10:05:36.810Z</time>
      </trkpt>
      <trkpt lat="47.02707" lon="8.99094">
        <ele>856</ele>
        <time>2021-08-02T10:05:37.810Z</time>
      </trkpt>
      <trkpt lat="47.02706" lon="8.99092">
        <ele>856</ele>
        <time>2021-08-02T10:05:38.810Z</time>
      </trkpt>
      <trkpt lat="47.02706" lon="8.9909">
        <ele>856</ele>
        <time>2021-08-02T10:05:39.810Z</time>
      </trkpt>
      <trkpt lat="47.02706" lon="8.99088">
        <ele>855</ele>
        <time>2021-08-02T10:05:40.810Z</time>
      </trkpt>
      <trkpt lat="47.02706" lon="8.99086">
        <ele>855</ele>
        <time>2021-08-02T10:05:41.809Z</time>
      </trkpt>
      <trkpt lat="47.02706" lon="8.99085">
        <ele>855</ele>
        <time>2021-08-02T10:05:42.810Z</time>
      </trkpt>
      <trkpt lat="47.02705" lon="8.99083">
        <ele>856</ele>
        <time>2021-08-02T10:05:43.810Z</time>
      </trkpt>
      <trkpt lat="47.02705" lon="8.99081">
        <ele>856</ele>
        <time>2021-08-02T10:05:44.810Z</time>
      </trkpt>
      <trkpt lat="47.02706" lon="8.99079">
        <ele>857</ele>
        <time>2021-08-02T10:05:49.910Z</time>
      </trkpt>
      <trkpt lat="47.02706" lon="8.99078">
        <ele>857</ele>
        <time>2021-08-02T10:05:51.814Z</time>
      </trkpt>
      <trkpt lat="47.02706" lon="8.99077">
        <ele>857</ele>
        <time>2021-08-02T10:05:52.814Z</time>
      </trkpt>
      <trkpt lat="47.02705" lon="8.99075">
        <ele>857</ele>
        <time>2021-08-02T10:06:01.570Z</time>
      </trkpt>
      <trkpt lat="47.02705" lon="8.99073">
        <ele>857</ele>
        <time>2021-08-02T10:06:02.570Z</time>
      </trkpt>
      <trkpt lat="47.02704" lon="8.99072">
        <ele>858</ele>
        <time>2021-08-02T10:06:03.570Z</time>
      </trkpt>
      <trkpt lat="47.02703" lon="8.9907">
        <ele>858</ele>
        <time>2021-08-02T10:06:16.660Z</time>
      </trkpt>
      <trkpt lat="47.02702" lon="8.99067">
        <ele>858</ele>
        <time>2021-08-02T10:06:17.659Z</time>
      </trkpt>
      <trkpt lat="47.02701" lon="8.99066">
        <ele>858</ele>
        <time>2021-08-02T10:06:18.659Z</time>
      </trkpt>
      <trkpt lat="47.02701" lon="8.99064">
        <ele>858</ele>
        <time>2021-08-02T10:06:19.659Z</time>
      </trkpt>
      <trkpt lat="47.02701" lon="8.99063">
        <ele>858</ele>
        <time>2021-08-02T10:06:23.681Z</time>
      </trkpt>
      <trkpt lat="47.027" lon="8.9906">
        <ele>858</ele>
        <time>2021-08-02T10:06:24.681Z</time>
      </trkpt>
      <trkpt lat="47.027" lon="8.99059">
        <ele>858</ele>
        <time>2021-08-02T10:06:25.681Z</time>
      </trkpt>
      <trkpt lat="47.027" lon="8.99057">
        <ele>858</ele>
        <time>2021-08-02T10:06:26.681Z</time>
      </trkpt>
      <trkpt lat="47.027" lon="8.99055">
        <ele>858</ele>
        <time>2021-08-02T10:06:27.681Z</time>
      </trkpt>
      <trkpt lat="47.02699" lon="8.99054">
        <ele>858</ele>
        <time>2021-08-02T10:06:38.795Z</time>
      </trkpt>
      <trkpt lat="47.02699" lon="8.99052">
        <ele>858</ele>
        <time>2021-08-02T10:06:39.795Z</time>
      </trkpt>
      <trkpt lat="47.02699" lon="8.99049">
        <ele>857</ele>
        <time>2021-08-02T10:06:40.796Z</time>
      </trkpt>
      <trkpt lat="47.02699" lon="8.99047">
        <ele>857</ele>
        <time>2021-08-02T10:06:41.795Z</time>
      </trkpt>
      <trkpt lat="47.02699" lon="8.99045">
        <ele>857</ele>
        <time>2021-08-02T10:06:46.942Z</time>
      </trkpt>
      <trkpt lat="47.02698" lon="8.99042">
        <ele>856</ele>
        <time>2021-08-02T10:06:47.941Z</time>
      </trkpt>
      <trkpt lat="47.02698" lon="8.99041">
        <ele>856</ele>
        <time>2021-08-02T10:06:48.942Z</time>
      </trkpt>
      <trkpt lat="47.02697" lon="8.99039">
        <ele>856</ele>
        <time>2021-08-02T10:06:49.941Z</time>
      </trkpt>
      <trkpt lat="47.02697" lon="8.99037">
        <ele>855</ele>
        <time>2021-08-02T10:06:50.942Z</time>
      </trkpt>
      <trkpt lat="47.02697" lon="8.99035">
        <ele>855</ele>
        <time>2021-08-02T10:06:51.941Z</time>
      </trkpt>
      <trkpt lat="47.02696" lon="8.99033">
        <ele>855</ele>
        <time>2021-08-02T10:06:52.941Z</time>
      </trkpt>
      <trkpt lat="47.02696" lon="8.99031">
        <ele>855</ele>
        <time>2021-08-02T10:06:53.941Z</time>
      </trkpt>
      <trkpt lat="47.02695" lon="8.99029">
        <ele>855</ele>
        <time>2021-08-02T10:06:54.941Z</time>
      </trkpt>
      <trkpt lat="47.02695" lon="8.99027">
        <ele>855</ele>
        <time>2021-08-02T10:06:59.075Z</time>
      </trkpt>
      <trkpt lat="47.02694" lon="8.99025">
        <ele>855</ele>
        <time>2021-08-02T10:07:00.075Z</time>
      </trkpt>
      <trkpt lat="47.02694" lon="8.99023">
        <ele>855</ele>
        <time>2021-08-02T10:07:01.075Z</time>
      </trkpt>
      <trkpt lat="47.02693" lon="8.99021">
        <ele>855</ele>
        <time>2021-08-02T10:07:05.212Z</time>
      </trkpt>
      <trkpt lat="47.02693" lon="8.99019">
        <ele>855</ele>
        <time>2021-08-02T10:07:06.212Z</time>
      </trkpt>
      <trkpt lat="47.02692" lon="8.99018">
        <ele>855</ele>
        <time>2021-08-02T10:07:07.212Z</time>
      </trkpt>
      <trkpt lat="47.02692" lon="8.99017">
        <ele>855</ele>
        <time>2021-08-02T10:07:08.213Z</time>
      </trkpt>
      <trkpt lat="47.02691" lon="8.99015">
        <ele>856</ele>
        <time>2021-08-02T10:07:09.212Z</time>
      </trkpt>
      <trkpt lat="47.02691" lon="8.99013">
        <ele>855</ele>
        <time>2021-08-02T10:07:10.212Z</time>
      </trkpt>
      <trkpt lat="47.0269" lon="8.99012">
        <ele>855</ele>
        <time>2021-08-02T10:07:11.213Z</time>
      </trkpt>
      <trkpt lat="47.02689" lon="8.9901">
        <ele>856</ele>
        <time>2021-08-02T10:07:12.212Z</time>
      </trkpt>
      <trkpt lat="47.02689" lon="8.99008">
        <ele>856</ele>
        <time>2021-08-02T10:07:13.212Z</time>
      </trkpt>
      <trkpt lat="47.02688" lon="8.99006">
        <ele>856</ele>
        <time>2021-08-02T10:07:14.212Z</time>
      </trkpt>
      <trkpt lat="47.02688" lon="8.99004">
        <ele>856</ele>
        <time>2021-08-02T10:07:15.212Z</time>
      </trkpt>
      <trkpt lat="47.02688" lon="8.99002">
        <ele>856</ele>
        <time>2021-08-02T10:07:16.212Z</time>
      </trkpt>
      <trkpt lat="47.02688" lon="8.99">
        <ele>856</ele>
        <time>2021-08-02T10:07:17.212Z</time>
      </trkpt>
      <trkpt lat="47.02687" lon="8.98998">
        <ele>856</ele>
        <time>2021-08-02T10:07:18.212Z</time>
      </trkpt>
      <trkpt lat="47.02687" lon="8.98996">
        <ele>855</ele>
        <time>2021-08-02T10:07:19.213Z</time>
      </trkpt>
      <trkpt lat="47.02686" lon="8.98993">
        <ele>855</ele>
        <time>2021-08-02T10:07:20.213Z</time>
      </trkpt>
      <trkpt lat="47.02685" lon="8.98992">
        <ele>855</ele>
        <time>2021-08-02T10:07:21.213Z</time>
      </trkpt>
      <trkpt lat="47.02685" lon="8.98991">
        <ele>855</ele>
        <time>2021-08-02T10:07:22.212Z</time>
      </trkpt>
      <trkpt lat="47.02684" lon="8.98989">
        <ele>855</ele>
        <time>2021-08-02T10:07:23.213Z</time>
      </trkpt>
      <trkpt lat="47.02683" lon="8.98988">
        <ele>855</ele>
        <time>2021-08-02T10:07:24.213Z</time>
      </trkpt>
      <trkpt lat="47.02683" lon="8.98986">
        <ele>855</ele>
        <time>2021-08-02T10:07:25.213Z</time>
      </trkpt>
      <trkpt lat="47.02683" lon="8.98984">
        <ele>855</ele>
        <time>2021-08-02T10:07:26.213Z</time>
      </trkpt>
      <trkpt lat="47.02683" lon="8.98983">
        <ele>854</ele>
        <time>2021-08-02T10:07:27.213Z</time>
      </trkpt>
      <trkpt lat="47.02682" lon="8.98981">
        <ele>854</ele>
        <time>2021-08-02T10:07:28.213Z</time>
      </trkpt>
      <trkpt lat="47.02682" lon="8.98979">
        <ele>854</ele>
        <time>2021-08-02T10:07:29.212Z</time>
      </trkpt>
      <trkpt lat="47.02681" lon="8.98977">
        <ele>853</ele>
        <time>2021-08-02T10:07:30.213Z</time>
      </trkpt>
      <trkpt lat="47.0268" lon="8.98975">
        <ele>853</ele>
        <time>2021-08-02T10:07:31.213Z</time>
      </trkpt>
      <trkpt lat="47.02679" lon="8.98973">
        <ele>854</ele>
        <time>2021-08-02T10:07:32.212Z</time>
      </trkpt>
      <trkpt lat="47.02678" lon="8.98971">
        <ele>854</ele>
        <time>2021-08-02T10:07:33.212Z</time>
      </trkpt>
      <trkpt lat="47.02677" lon="8.9897">
        <ele>854</ele>
        <time>2021-08-02T10:07:34.213Z</time>
      </trkpt>
      <trkpt lat="47.02676" lon="8.98968">
        <ele>855</ele>
        <time>2021-08-02T10:07:35.212Z</time>
      </trkpt>
      <trkpt lat="47.02675" lon="8.98966">
        <ele>855</ele>
        <time>2021-08-02T10:07:36.213Z</time>
      </trkpt>
      <trkpt lat="47.02674" lon="8.98964">
        <ele>854</ele>
        <time>2021-08-02T10:07:37.212Z</time>
      </trkpt>
      <trkpt lat="47.02672" lon="8.98961">
        <ele>854</ele>
        <time>2021-08-02T10:07:38.213Z</time>
      </trkpt>
      <trkpt lat="47.02671" lon="8.9896">
        <ele>854</ele>
        <time>2021-08-02T10:07:39.213Z</time>
      </trkpt>
      <trkpt lat="47.02671" lon="8.98959">
        <ele>855</ele>
        <time>2021-08-02T10:07:40.213Z</time>
      </trkpt>
      <trkpt lat="47.0267" lon="8.98957">
        <ele>854</ele>
        <time>2021-08-02T10:07:41.213Z</time>
      </trkpt>
      <trkpt lat="47.02669" lon="8.98956">
        <ele>854</ele>
        <time>2021-08-02T10:07:42.212Z</time>
      </trkpt>
      <trkpt lat="47.02668" lon="8.98955">
        <ele>854</ele>
        <time>2021-08-02T10:07:43.212Z</time>
      </trkpt>
      <trkpt lat="47.02666" lon="8.98955">
        <ele>853</ele>
        <time>2021-08-02T10:07:44.213Z</time>
      </trkpt>
      <trkpt lat="47.02664" lon="8.98954">
        <ele>853</ele>
        <time>2021-08-02T10:07:45.212Z</time>
      </trkpt>
      <trkpt lat="47.02663" lon="8.98953">
        <ele>853</ele>
        <time>2021-08-02T10:07:46.212Z</time>
      </trkpt>
      <trkpt lat="47.02661" lon="8.98952">
        <ele>853</ele>
        <time>2021-08-02T10:07:47.213Z</time>
      </trkpt>
      <trkpt lat="47.0266" lon="8.98951">
        <ele>853</ele>
        <time>2021-08-02T10:07:48.212Z</time>
      </trkpt>
      <trkpt lat="47.02659" lon="8.9895">
        <ele>853</ele>
        <time>2021-08-02T10:07:49.213Z</time>
      </trkpt>
      <trkpt lat="47.02658" lon="8.98949">
        <ele>853</ele>
        <time>2021-08-02T10:07:50.212Z</time>
      </trkpt>
      <trkpt lat="47.02657" lon="8.98948">
        <ele>853</ele>
        <time>2021-08-02T10:07:51.213Z</time>
      </trkpt>
      <trkpt lat="47.02656" lon="8.98947">
        <ele>853</ele>
        <time>2021-08-02T10:07:52.213Z</time>
      </trkpt>
      <trkpt lat="47.02654" lon="8.98946">
        <ele>854</ele>
        <time>2021-08-02T10:07:53.212Z</time>
      </trkpt>
      <trkpt lat="47.02653" lon="8.98945">
        <ele>854</ele>
        <time>2021-08-02T10:07:54.213Z</time>
      </trkpt>
      <trkpt lat="47.02652" lon="8.98944">
        <ele>854</ele>
        <time>2021-08-02T10:07:55.213Z</time>
      </trkpt>
      <trkpt lat="47.0265" lon="8.98943">
        <ele>854</ele>
        <time>2021-08-02T10:07:56.213Z</time>
      </trkpt>
      <trkpt lat="47.02649" lon="8.98943">
        <ele>854</ele>
        <time>2021-08-02T10:07:57.213Z</time>
      </trkpt>
      <trkpt lat="47.02648" lon="8.98943">
        <ele>854</ele>
        <time>2021-08-02T10:07:58.212Z</time>
      </trkpt>
      <trkpt lat="47.02647" lon="8.98942">
        <ele>854</ele>
        <time>2021-08-02T10:07:59.213Z</time>
      </trkpt>
      <trkpt lat="47.02646" lon="8.98942">
        <ele>854</ele>
        <time>2021-08-02T10:08:00.213Z</time>
      </trkpt>
      <trkpt lat="47.02645" lon="8.98941">
        <ele>854</ele>
        <time>2021-08-02T10:08:01.213Z</time>
      </trkpt>
      <trkpt lat="47.02645" lon="8.9894">
        <ele>854</ele>
        <time>2021-08-02T10:08:02.213Z</time>
      </trkpt>
      <trkpt lat="47.02644" lon="8.98939">
        <ele>854</ele>
        <time>2021-08-02T10:08:03.213Z</time>
      </trkpt>
      <trkpt lat="47.02643" lon="8.98938">
        <ele>854</ele>
        <time>2021-08-02T10:08:04.212Z</time>
      </trkpt>
      <trkpt lat="47.02642" lon="8.98937">
        <ele>855</ele>
        <time>2021-08-02T10:08:05.212Z</time>
      </trkpt>
      <trkpt lat="47.02641" lon="8.98936">
        <ele>855</ele>
        <time>2021-08-02T10:08:06.213Z</time>
      </trkpt>
      <trkpt lat="47.0264" lon="8.98936">
        <ele>856</ele>
        <time>2021-08-02T10:08:07.213Z</time>
      </trkpt>
      <trkpt lat="47.02637" lon="8.98933">
        <ele>856</ele>
        <time>2021-08-02T10:08:08.213Z</time>
      </trkpt>
      <trkpt lat="47.02635" lon="8.98931">
        <ele>857</ele>
        <time>2021-08-02T10:08:09.212Z</time>
      </trkpt>
      <trkpt lat="47.02634" lon="8.9893">
        <ele>857</ele>
        <time>2021-08-02T10:08:10.213Z</time>
      </trkpt>
      <trkpt lat="47.02633" lon="8.98929">
        <ele>857</ele>
        <time>2021-08-02T10:08:11.212Z</time>
      </trkpt>
      <trkpt lat="47.02632" lon="8.98928">
        <ele>857</ele>
        <time>2021-08-02T10:08:12.212Z</time>
      </trkpt>
      <trkpt lat="47.02631" lon="8.98927">
        <ele>857</ele>
        <time>2021-08-02T10:08:13.213Z</time>
      </trkpt>
      <trkpt lat="47.02629" lon="8.98926">
        <ele>857</ele>
        <time>2021-08-02T10:08:14.212Z</time>
      </trkpt>
      <trkpt lat="47.02629" lon="8.98925">
        <ele>857</ele>
        <time>2021-08-02T10:08:15.212Z</time>
      </trkpt>
      <trkpt lat="47.02628" lon="8.98924">
        <ele>858</ele>
        <time>2021-08-02T10:08:16.213Z</time>
      </trkpt>
      <trkpt lat="47.02627" lon="8.98923">
        <ele>858</ele>
        <time>2021-08-02T10:08:17.213Z</time>
      </trkpt>
      <trkpt lat="47.02626" lon="8.98922">
        <ele>858</ele>
        <time>2021-08-02T10:08:18.212Z</time>
      </trkpt>
      <trkpt lat="47.02625" lon="8.9892">
        <ele>858</ele>
        <time>2021-08-02T10:08:19.213Z</time>
      </trkpt>
      <trkpt lat="47.02624" lon="8.98919">
        <ele>858</ele>
        <time>2021-08-02T10:08:20.213Z</time>
      </trkpt>
      <trkpt lat="47.02623" lon="8.98917">
        <ele>859</ele>
        <time>2021-08-02T10:08:21.213Z</time>
      </trkpt>
      <trkpt lat="47.02622" lon="8.98916">
        <ele>858</ele>
        <time>2021-08-02T10:08:22.213Z</time>
      </trkpt>
      <trkpt lat="47.02621" lon="8.98916">
        <ele>859</ele>
        <time>2021-08-02T10:08:23.213Z</time>
      </trkpt>
      <trkpt lat="47.0262" lon="8.98915">
        <ele>859</ele>
        <time>2021-08-02T10:08:24.213Z</time>
      </trkpt>
      <trkpt lat="47.02619" lon="8.98913">
        <ele>858</ele>
        <time>2021-08-02T10:08:25.213Z</time>
      </trkpt>
      <trkpt lat="47.02618" lon="8.98911">
        <ele>858</ele>
        <time>2021-08-02T10:08:26.213Z</time>
      </trkpt>
      <trkpt lat="47.02617" lon="8.9891">
        <ele>857</ele>
        <time>2021-08-02T10:08:27.213Z</time>
      </trkpt>
      <trkpt lat="47.02616" lon="8.98909">
        <ele>857</ele>
        <time>2021-08-02T10:08:28.213Z</time>
      </trkpt>
      <trkpt lat="47.02615" lon="8.98908">
        <ele>856</ele>
        <time>2021-08-02T10:08:29.212Z</time>
      </trkpt>
      <trkpt lat="47.02614" lon="8.98908">
        <ele>856</ele>
        <time>2021-08-02T10:08:30.213Z</time>
      </trkpt>
      <trkpt lat="47.02613" lon="8.98907">
        <ele>855</ele>
        <time>2021-08-02T10:08:31.213Z</time>
      </trkpt>
      <trkpt lat="47.02612" lon="8.98906">
        <ele>855</ele>
        <time>2021-08-02T10:08:32.213Z</time>
      </trkpt>
      <trkpt lat="47.02611" lon="8.98905">
        <ele>854</ele>
        <time>2021-08-02T10:08:33.213Z</time>
      </trkpt>
      <trkpt lat="47.0261" lon="8.98903">
        <ele>854</ele>
        <time>2021-08-02T10:08:34.213Z</time>
      </trkpt>
      <trkpt lat="47.02609" lon="8.98903">
        <ele>854</ele>
        <time>2021-08-02T10:08:35.213Z</time>
      </trkpt>
      <trkpt lat="47.02607" lon="8.98902">
        <ele>853</ele>
        <time>2021-08-02T10:08:36.213Z</time>
      </trkpt>
      <trkpt lat="47.02606" lon="8.98901">
        <ele>853</ele>
        <time>2021-08-02T10:08:37.213Z</time>
      </trkpt>
      <trkpt lat="47.02606" lon="8.989">
        <ele>852</ele>
        <time>2021-08-02T10:08:38.213Z</time>
      </trkpt>
      <trkpt lat="47.02605" lon="8.98899">
        <ele>853</ele>
        <time>2021-08-02T10:08:39.213Z</time>
      </trkpt>
      <trkpt lat="47.02604" lon="8.98898">
        <ele>853</ele>
        <time>2021-08-02T10:08:40.213Z</time>
      </trkpt>
      <trkpt lat="47.02603" lon="8.98897">
        <ele>854</ele>
        <time>2021-08-02T10:08:41.213Z</time>
      </trkpt>
      <trkpt lat="47.02602" lon="8.98896">
        <ele>854</ele>
        <time>2021-08-02T10:08:42.213Z</time>
      </trkpt>
      <trkpt lat="47.02601" lon="8.98895">
        <ele>855</ele>
        <time>2021-08-02T10:08:43.213Z</time>
      </trkpt>
      <trkpt lat="47.026" lon="8.98893">
        <ele>855</ele>
        <time>2021-08-02T10:08:44.213Z</time>
      </trkpt>
      <trkpt lat="47.02601" lon="8.98892">
        <ele>855</ele>
        <time>2021-08-02T10:08:45.212Z</time>
      </trkpt>
      <trkpt lat="47.02601" lon="8.98891">
        <ele>856</ele>
        <time>2021-08-02T10:08:46.213Z</time>
      </trkpt>
      <trkpt lat="47.026" lon="8.98889">
        <ele>856</ele>
        <time>2021-08-02T10:08:47.212Z</time>
      </trkpt>
      <trkpt lat="47.02598" lon="8.98887">
        <ele>856</ele>
        <time>2021-08-02T10:08:48.213Z</time>
      </trkpt>
      <trkpt lat="47.02597" lon="8.98885">
        <ele>857</ele>
        <time>2021-08-02T10:08:49.212Z</time>
      </trkpt>
      <trkpt lat="47.02595" lon="8.98884">
        <ele>857</ele>
        <time>2021-08-02T10:08:50.213Z</time>
      </trkpt>
      <trkpt lat="47.02593" lon="8.98883">
        <ele>858</ele>
        <time>2021-08-02T10:08:51.213Z</time>
      </trkpt>
      <trkpt lat="47.02592" lon="8.98881">
        <ele>858</ele>
        <time>2021-08-02T10:08:52.213Z</time>
      </trkpt>
      <trkpt lat="47.02591" lon="8.9888">
        <ele>857</ele>
        <time>2021-08-02T10:08:53.213Z</time>
      </trkpt>
      <trkpt lat="47.02591" lon="8.98878">
        <ele>857</ele>
        <time>2021-08-02T10:08:54.213Z</time>
      </trkpt>
      <trkpt lat="47.02589" lon="8.98877">
        <ele>857</ele>
        <time>2021-08-02T10:08:55.213Z</time>
      </trkpt>
      <trkpt lat="47.02588" lon="8.98876">
        <ele>857</ele>
        <time>2021-08-02T10:08:56.213Z</time>
      </trkpt>
      <trkpt lat="47.02586" lon="8.98875">
        <ele>857</ele>
        <time>2021-08-02T10:08:57.213Z</time>
      </trkpt>
      <trkpt lat="47.02585" lon="8.98875">
        <ele>857</ele>
        <time>2021-08-02T10:08:58.213Z</time>
      </trkpt>
      <trkpt lat="47.02583" lon="8.98875">
        <ele>857</ele>
        <time>2021-08-02T10:08:59.212Z</time>
      </trkpt>
      <trkpt lat="47.02582" lon="8.98874">
        <ele>857</ele>
        <time>2021-08-02T10:09:00.213Z</time>
      </trkpt>
      <trkpt lat="47.02582" lon="8.98871">
        <ele>857</ele>
        <time>2021-08-02T10:09:01.213Z</time>
      </trkpt>
      <trkpt lat="47.02581" lon="8.9887">
        <ele>857</ele>
        <time>2021-08-02T10:09:02.213Z</time>
      </trkpt>
      <trkpt lat="47.02581" lon="8.98869">
        <ele>857</ele>
        <time>2021-08-02T10:09:03.213Z</time>
      </trkpt>
      <trkpt lat="47.02581" lon="8.98868">
        <ele>857</ele>
        <time>2021-08-02T10:09:04.212Z</time>
      </trkpt>
      <trkpt lat="47.02581" lon="8.98867">
        <ele>857</ele>
        <time>2021-08-02T10:09:05.213Z</time>
      </trkpt>
      <trkpt lat="47.0258" lon="8.98866">
        <ele>857</ele>
        <time>2021-08-02T10:09:06.213Z</time>
      </trkpt>
      <trkpt lat="47.02579" lon="8.98865">
        <ele>858</ele>
        <time>2021-08-02T10:09:07.213Z</time>
      </trkpt>
      <trkpt lat="47.02578" lon="8.98864">
        <ele>858</ele>
        <time>2021-08-02T10:09:08.213Z</time>
      </trkpt>
      <trkpt lat="47.02577" lon="8.98864">
        <ele>858</ele>
        <time>2021-08-02T10:09:09.212Z</time>
      </trkpt>
      <trkpt lat="47.02576" lon="8.98863">
        <ele>859</ele>
        <time>2021-08-02T10:09:10.212Z</time>
      </trkpt>
      <trkpt lat="47.02575" lon="8.98863">
        <ele>859</ele>
        <time>2021-08-02T10:09:11.212Z</time>
      </trkpt>
      <trkpt lat="47.02574" lon="8.98862">
        <ele>860</ele>
        <time>2021-08-02T10:09:12.213Z</time>
      </trkpt>
      <trkpt lat="47.02573" lon="8.98861">
        <ele>860</ele>
        <time>2021-08-02T10:09:13.213Z</time>
      </trkpt>
      <trkpt lat="47.02573" lon="8.9886">
        <ele>861</ele>
        <time>2021-08-02T10:09:14.213Z</time>
      </trkpt>
      <trkpt lat="47.02572" lon="8.98859">
        <ele>861</ele>
        <time>2021-08-02T10:09:15.213Z</time>
      </trkpt>
      <trkpt lat="47.02571" lon="8.98858">
        <ele>861</ele>
        <time>2021-08-02T10:09:16.213Z</time>
      </trkpt>
      <trkpt lat="47.02569" lon="8.98857">
        <ele>861</ele>
        <time>2021-08-02T10:09:17.213Z</time>
      </trkpt>
      <trkpt lat="47.02568" lon="8.98856">
        <ele>861</ele>
        <time>2021-08-02T10:09:18.213Z</time>
      </trkpt>
      <trkpt lat="47.02567" lon="8.98855">
        <ele>861</ele>
        <time>2021-08-02T10:09:19.213Z</time>
      </trkpt>
      <trkpt lat="47.02566" lon="8.98854">
        <ele>861</ele>
        <time>2021-08-02T10:09:20.213Z</time>
      </trkpt>
      <trkpt lat="47.02565" lon="8.98853">
        <ele>861</ele>
        <time>2021-08-02T10:09:21.213Z</time>
      </trkpt>
      <trkpt lat="47.02564" lon="8.98852">
        <ele>861</ele>
        <time>2021-08-02T10:09:22.212Z</time>
      </trkpt>
      <trkpt lat="47.02562" lon="8.98851">
        <ele>861</ele>
        <time>2021-08-02T10:09:23.213Z</time>
      </trkpt>
      <trkpt lat="47.02561" lon="8.9885">
        <ele>861</ele>
        <time>2021-08-02T10:09:24.213Z</time>
      </trkpt>
      <trkpt lat="47.02559" lon="8.98849">
        <ele>861</ele>
        <time>2021-08-02T10:09:25.212Z</time>
      </trkpt>
      <trkpt lat="47.02557" lon="8.98849">
        <ele>861</ele>
        <time>2021-08-02T10:09:26.213Z</time>
      </trkpt>
      <trkpt lat="47.02555" lon="8.98847">
        <ele>861</ele>
        <time>2021-08-02T10:09:27.213Z</time>
      </trkpt>
      <trkpt lat="47.02554" lon="8.98846">
        <ele>861</ele>
        <time>2021-08-02T10:09:28.212Z</time>
      </trkpt>
      <trkpt lat="47.02553" lon="8.98845">
        <ele>861</ele>
        <time>2021-08-02T10:09:29.213Z</time>
      </trkpt>
      <trkpt lat="47.02552" lon="8.98844">
        <ele>860</ele>
        <time>2021-08-02T10:09:30.213Z</time>
      </trkpt>
      <trkpt lat="47.0255" lon="8.98843">
        <ele>860</ele>
        <time>2021-08-02T10:09:31.212Z</time>
      </trkpt>
      <trkpt lat="47.02549" lon="8.98842">
        <ele>860</ele>
        <time>2021-08-02T10:09:32.212Z</time>
      </trkpt>
      <trkpt lat="47.02548" lon="8.98842">
        <ele>861</ele>
        <time>2021-08-02T10:09:33.212Z</time>
      </trkpt>
      <trkpt lat="47.02547" lon="8.98841">
        <ele>861</ele>
        <time>2021-08-02T10:09:34.212Z</time>
      </trkpt>
      <trkpt lat="47.02547" lon="8.9884">
        <ele>861</ele>
        <time>2021-08-02T10:09:35.212Z</time>
      </trkpt>
      <trkpt lat="47.02545" lon="8.98839">
        <ele>861</ele>
        <time>2021-08-02T10:09:36.212Z</time>
      </trkpt>
      <trkpt lat="47.02544" lon="8.98837">
        <ele>861</ele>
        <time>2021-08-02T10:09:37.212Z</time>
      </trkpt>
      <trkpt lat="47.02542" lon="8.98835">
        <ele>861</ele>
        <time>2021-08-02T10:09:38.212Z</time>
      </trkpt>
      <trkpt lat="47.0254" lon="8.98834">
        <ele>860</ele>
        <time>2021-08-02T10:09:39.213Z</time>
      </trkpt>
      <trkpt lat="47.02539" lon="8.98833">
        <ele>860</ele>
        <time>2021-08-02T10:09:40.212Z</time>
      </trkpt>
      <trkpt lat="47.02538" lon="8.98833">
        <ele>860</ele>
        <time>2021-08-02T10:09:41.212Z</time>
      </trkpt>
      <trkpt lat="47.02537" lon="8.98832">
        <ele>859</ele>
        <time>2021-08-02T10:09:42.212Z</time>
      </trkpt>
      <trkpt lat="47.02536" lon="8.98831">
        <ele>859</ele>
        <time>2021-08-02T10:09:43.212Z</time>
      </trkpt>
      <trkpt lat="47.02536" lon="8.9883">
        <ele>859</ele>
        <time>2021-08-02T10:09:44.213Z</time>
      </trkpt>
      <trkpt lat="47.02535" lon="8.98828">
        <ele>859</ele>
        <time>2021-08-02T10:09:45.213Z</time>
      </trkpt>
      <trkpt lat="47.02533" lon="8.98828">
        <ele>859</ele>
        <time>2021-08-02T10:09:46.212Z</time>
      </trkpt>
      <trkpt lat="47.02531" lon="8.98827">
        <ele>859</ele>
        <time>2021-08-02T10:09:47.213Z</time>
      </trkpt>
      <trkpt lat="47.0253" lon="8.98826">
        <ele>859</ele>
        <time>2021-08-02T10:09:48.213Z</time>
      </trkpt>
      <trkpt lat="47.0253" lon="8.98824">
        <ele>859</ele>
        <time>2021-08-02T10:09:49.212Z</time>
      </trkpt>
      <trkpt lat="47.02529" lon="8.98823">
        <ele>859</ele>
        <time>2021-08-02T10:09:50.213Z</time>
      </trkpt>
      <trkpt lat="47.02528" lon="8.98821">
        <ele>859</ele>
        <time>2021-08-02T10:09:51.213Z</time>
      </trkpt>
      <trkpt lat="47.02528" lon="8.98821">
        <ele>858</ele>
        <time>2021-08-02T10:09:52.213Z</time>
      </trkpt>
      <trkpt lat="47.02527" lon="8.98821">
        <ele>858</ele>
        <time>2021-08-02T10:09:53.213Z</time>
      </trkpt>
      <trkpt lat="47.02526" lon="8.9882">
        <ele>857</ele>
        <time>2021-08-02T10:09:54.213Z</time>
      </trkpt>
      <trkpt lat="47.02525" lon="8.9882">
        <ele>857</ele>
        <time>2021-08-02T10:09:55.212Z</time>
      </trkpt>
      <trkpt lat="47.02524" lon="8.98819">
        <ele>856</ele>
        <time>2021-08-02T10:09:56.213Z</time>
      </trkpt>
      <trkpt lat="47.02523" lon="8.98818">
        <ele>856</ele>
        <time>2021-08-02T10:09:57.213Z</time>
      </trkpt>
      <trkpt lat="47.02523" lon="8.98817">
        <ele>855</ele>
        <time>2021-08-02T10:09:58.213Z</time>
      </trkpt>
      <trkpt lat="47.02521" lon="8.98816">
        <ele>855</ele>
        <time>2021-08-02T10:09:59.213Z</time>
      </trkpt>
      <trkpt lat="47.0252" lon="8.98815">
        <ele>855</ele>
        <time>2021-08-02T10:10:00.212Z</time>
      </trkpt>
      <trkpt lat="47.02519" lon="8.98814">
        <ele>855</ele>
        <time>2021-08-02T10:10:01.213Z</time>
      </trkpt>
      <trkpt lat="47.02517" lon="8.98813">
        <ele>855</ele>
        <time>2021-08-02T10:10:02.212Z</time>
      </trkpt>
      <trkpt lat="47.02517" lon="8.98812">
        <ele>855</ele>
        <time>2021-08-02T10:10:03.212Z</time>
      </trkpt>
      <trkpt lat="47.02516" lon="8.98812">
        <ele>855</ele>
        <time>2021-08-02T10:10:04.213Z</time>
      </trkpt>
      <trkpt lat="47.02515" lon="8.98811">
        <ele>855</ele>
        <time>2021-08-02T10:10:05.213Z</time>
      </trkpt>
      <trkpt lat="47.02514" lon="8.98811">
        <ele>855</ele>
        <time>2021-08-02T10:10:06.213Z</time>
      </trkpt>
      <trkpt lat="47.02512" lon="8.9881">
        <ele>855</ele>
        <time>2021-08-02T10:10:07.212Z</time>
      </trkpt>
      <trkpt lat="47.02511" lon="8.9881">
        <ele>855</ele>
        <time>2021-08-02T10:10:08.213Z</time>
      </trkpt>
      <trkpt lat="47.0251" lon="8.9881">
        <ele>856</ele>
        <time>2021-08-02T10:10:09.213Z</time>
      </trkpt>
      <trkpt lat="47.02509" lon="8.98811">
        <ele>856</ele>
        <time>2021-08-02T10:10:10.212Z</time>
      </trkpt>
      <trkpt lat="47.02508" lon="8.98811">
        <ele>857</ele>
        <time>2021-08-02T10:10:11.213Z</time>
      </trkpt>
      <trkpt lat="47.02507" lon="8.98811">
        <ele>857</ele>
        <time>2021-08-02T10:10:12.212Z</time>
      </trkpt>
      <trkpt lat="47.02506" lon="8.98812">
        <ele>857</ele>
        <time>2021-08-02T10:10:13.213Z</time>
      </trkpt>
      <trkpt lat="47.02505" lon="8.98812">
        <ele>856</ele>
        <time>2021-08-02T10:10:14.213Z</time>
      </trkpt>
      <trkpt lat="47.02504" lon="8.98811">
        <ele>855</ele>
        <time>2021-08-02T10:10:15.213Z</time>
      </trkpt>
      <trkpt lat="47.02502" lon="8.98811">
        <ele>855</ele>
        <time>2021-08-02T10:10:16.213Z</time>
      </trkpt>
      <trkpt lat="47.02501" lon="8.98811">
        <ele>855</ele>
        <time>2021-08-02T10:10:17.213Z</time>
      </trkpt>
      <trkpt lat="47.025" lon="8.9881">
        <ele>855</ele>
        <time>2021-08-02T10:10:18.213Z</time>
      </trkpt>
      <trkpt lat="47.02499" lon="8.9881">
        <ele>855</ele>
        <time>2021-08-02T10:10:19.213Z</time>
      </trkpt>
      <trkpt lat="47.02498" lon="8.9881">
        <ele>855</ele>
        <time>2021-08-02T10:10:20.212Z</time>
      </trkpt>
      <trkpt lat="47.02497" lon="8.9881">
        <ele>856</ele>
        <time>2021-08-02T10:10:21.213Z</time>
      </trkpt>
      <trkpt lat="47.02496" lon="8.9881">
        <ele>856</ele>
        <time>2021-08-02T10:10:22.212Z</time>
      </trkpt>
      <trkpt lat="47.02495" lon="8.98809">
        <ele>857</ele>
        <time>2021-08-02T10:10:23.213Z</time>
      </trkpt>
      <trkpt lat="47.02494" lon="8.98809">
        <ele>857</ele>
        <time>2021-08-02T10:10:24.213Z</time>
      </trkpt>
      <trkpt lat="47.02493" lon="8.98808">
        <ele>857</ele>
        <time>2021-08-02T10:10:25.212Z</time>
      </trkpt>
      <trkpt lat="47.02492" lon="8.98807">
        <ele>857</ele>
        <time>2021-08-02T10:10:26.213Z</time>
      </trkpt>
      <trkpt lat="47.02491" lon="8.98806">
        <ele>858</ele>
        <time>2021-08-02T10:10:27.213Z</time>
      </trkpt>
      <trkpt lat="47.0249" lon="8.98804">
        <ele>858</ele>
        <time>2021-08-02T10:10:28.213Z</time>
      </trkpt>
      <trkpt lat="47.02489" lon="8.98804">
        <ele>858</ele>
        <time>2021-08-02T10:10:29.213Z</time>
      </trkpt>
      <trkpt lat="47.02488" lon="8.98803">
        <ele>858</ele>
        <time>2021-08-02T10:10:30.212Z</time>
      </trkpt>
      <trkpt lat="47.02487" lon="8.98802">
        <ele>858</ele>
        <time>2021-08-02T10:10:31.212Z</time>
      </trkpt>
      <trkpt lat="47.02487" lon="8.98801">
        <ele>857</ele>
        <time>2021-08-02T10:10:32.213Z</time>
      </trkpt>
      <trkpt lat="47.02486" lon="8.98801">
        <ele>856</ele>
        <time>2021-08-02T10:10:33.212Z</time>
      </trkpt>
      <trkpt lat="47.02486" lon="8.98799">
        <ele>856</ele>
        <time>2021-08-02T10:10:34.212Z</time>
      </trkpt>
      <trkpt lat="47.02485" lon="8.98799">
        <ele>856</ele>
        <time>2021-08-02T10:10:35.212Z</time>
      </trkpt>
      <trkpt lat="47.02484" lon="8.98798">
        <ele>856</ele>
        <time>2021-08-02T10:10:36.213Z</time>
      </trkpt>
      <trkpt lat="47.02483" lon="8.98797">
        <ele>855</ele>
        <time>2021-08-02T10:10:37.213Z</time>
      </trkpt>
      <trkpt lat="47.02482" lon="8.98796">
        <ele>855</ele>
        <time>2021-08-02T10:10:38.212Z</time>
      </trkpt>
      <trkpt lat="47.02481" lon="8.98795">
        <ele>855</ele>
        <time>2021-08-02T10:10:39.213Z</time>
      </trkpt>
      <trkpt lat="47.0248" lon="8.98794">
        <ele>855</ele>
        <time>2021-08-02T10:10:40.213Z</time>
      </trkpt>
      <trkpt lat="47.0248" lon="8.98793">
        <ele>854</ele>
        <time>2021-08-02T10:10:41.213Z</time>
      </trkpt>
      <trkpt lat="47.02479" lon="8.98792">
        <ele>854</ele>
        <time>2021-08-02T10:10:42.213Z</time>
      </trkpt>
      <trkpt lat="47.02479" lon="8.98791">
        <ele>854</ele>
        <time>2021-08-02T10:10:43.212Z</time>
      </trkpt>
      <trkpt lat="47.02478" lon="8.98789">
        <ele>854</ele>
        <time>2021-08-02T10:10:44.213Z</time>
      </trkpt>
      <trkpt lat="47.02477" lon="8.98789">
        <ele>854</ele>
        <time>2021-08-02T10:10:45.213Z</time>
      </trkpt>
      <trkpt lat="47.02476" lon="8.98788">
        <ele>854</ele>
        <time>2021-08-02T10:10:46.212Z</time>
      </trkpt>
      <trkpt lat="47.02475" lon="8.98787">
        <ele>854</ele>
        <time>2021-08-02T10:10:47.213Z</time>
      </trkpt>
      <trkpt lat="47.02474" lon="8.98785">
        <ele>854</ele>
        <time>2021-08-02T10:10:48.213Z</time>
      </trkpt>
      <trkpt lat="47.02475" lon="8.98784">
        <ele>853</ele>
        <time>2021-08-02T10:10:49.213Z</time>
      </trkpt>
      <trkpt lat="47.02475" lon="8.98782">
        <ele>853</ele>
        <time>2021-08-02T10:10:50.213Z</time>
      </trkpt>
      <trkpt lat="47.02474" lon="8.98781">
        <ele>853</ele>
        <time>2021-08-02T10:10:51.212Z</time>
      </trkpt>
      <trkpt lat="47.02474" lon="8.98781">
        <ele>853</ele>
        <time>2021-08-02T10:10:52.213Z</time>
      </trkpt>
      <trkpt lat="47.02473" lon="8.9878">
        <ele>853</ele>
        <time>2021-08-02T10:10:53.212Z</time>
      </trkpt>
      <trkpt lat="47.02472" lon="8.9878">
        <ele>853</ele>
        <time>2021-08-02T10:10:54.213Z</time>
      </trkpt>
      <trkpt lat="47.02472" lon="8.98779">
        <ele>853</ele>
        <time>2021-08-02T10:10:55.213Z</time>
      </trkpt>
      <trkpt lat="47.02471" lon="8.98779">
        <ele>852</ele>
        <time>2021-08-02T10:10:56.212Z</time>
      </trkpt>
      <trkpt lat="47.0247" lon="8.98778">
        <ele>852</ele>
        <time>2021-08-02T10:10:57.213Z</time>
      </trkpt>
      <trkpt lat="47.0247" lon="8.98778">
        <ele>852</ele>
        <time>2021-08-02T10:10:58.213Z</time>
      </trkpt>
      <trkpt lat="47.02469" lon="8.98777">
        <ele>852</ele>
        <time>2021-08-02T10:10:59.212Z</time>
      </trkpt>
      <trkpt lat="47.02468" lon="8.98777">
        <ele>852</ele>
        <time>2021-08-02T10:11:00.213Z</time>
      </trkpt>
      <trkpt lat="47.02467" lon="8.98776">
        <ele>853</ele>
        <time>2021-08-02T10:11:01.213Z</time>
      </trkpt>
      <trkpt lat="47.02466" lon="8.98776">
        <ele>853</ele>
        <time>2021-08-02T10:11:02.213Z</time>
      </trkpt>
      <trkpt lat="47.02465" lon="8.98776">
        <ele>854</ele>
        <time>2021-08-02T10:11:03.212Z</time>
      </trkpt>
      <trkpt lat="47.02464" lon="8.98775">
        <ele>854</ele>
        <time>2021-08-02T10:11:04.212Z</time>
      </trkpt>
      <trkpt lat="47.02463" lon="8.98773">
        <ele>854</ele>
        <time>2021-08-02T10:11:05.213Z</time>
      </trkpt>
      <trkpt lat="47.02462" lon="8.98772">
        <ele>854</ele>
        <time>2021-08-02T10:11:06.213Z</time>
      </trkpt>
      <trkpt lat="47.0246" lon="8.9877">
        <ele>854</ele>
        <time>2021-08-02T10:11:07.213Z</time>
      </trkpt>
      <trkpt lat="47.0246" lon="8.98769">
        <ele>854</ele>
        <time>2021-08-02T10:11:08.212Z</time>
      </trkpt>
      <trkpt lat="47.02459" lon="8.98768">
        <ele>854</ele>
        <time>2021-08-02T10:11:09.213Z</time>
      </trkpt>
      <trkpt lat="47.02459" lon="8.98767">
        <ele>854</ele>
        <time>2021-08-02T10:11:10.212Z</time>
      </trkpt>
      <trkpt lat="47.02458" lon="8.98766">
        <ele>853</ele>
        <time>2021-08-02T10:11:11.212Z</time>
      </trkpt>
      <trkpt lat="47.02458" lon="8.98765">
        <ele>853</ele>
        <time>2021-08-02T10:11:12.213Z</time>
      </trkpt>
      <trkpt lat="47.02458" lon="8.98764">
        <ele>854</ele>
        <time>2021-08-02T10:11:13.213Z</time>
      </trkpt>
      <trkpt lat="47.02457" lon="8.98762">
        <ele>854</ele>
        <time>2021-08-02T10:11:14.213Z</time>
      </trkpt>
      <trkpt lat="47.02456" lon="8.9876">
        <ele>854</ele>
        <time>2021-08-02T10:11:15.212Z</time>
      </trkpt>
      <trkpt lat="47.02454" lon="8.98758">
        <ele>854</ele>
        <time>2021-08-02T10:11:16.213Z</time>
      </trkpt>
      <trkpt lat="47.02453" lon="8.98756">
        <ele>854</ele>
        <time>2021-08-02T10:11:17.212Z</time>
      </trkpt>
      <trkpt lat="47.02452" lon="8.98756">
        <ele>854</ele>
        <time>2021-08-02T10:11:18.213Z</time>
      </trkpt>
      <trkpt lat="47.02452" lon="8.98755">
        <ele>853</ele>
        <time>2021-08-02T10:11:19.213Z</time>
      </trkpt>
      <trkpt lat="47.02451" lon="8.98754">
        <ele>853</ele>
        <time>2021-08-02T10:11:20.213Z</time>
      </trkpt>
      <trkpt lat="47.02451" lon="8.98753">
        <ele>852</ele>
        <time>2021-08-02T10:11:21.212Z</time>
      </trkpt>
      <trkpt lat="47.0245" lon="8.98752">
        <ele>852</ele>
        <time>2021-08-02T10:11:22.212Z</time>
      </trkpt>
      <trkpt lat="47.02448" lon="8.98751">
        <ele>852</ele>
        <time>2021-08-02T10:11:23.213Z</time>
      </trkpt>
      <trkpt lat="47.02447" lon="8.9875">
        <ele>852</ele>
        <time>2021-08-02T10:11:24.212Z</time>
      </trkpt>
      <trkpt lat="47.02446" lon="8.9875">
        <ele>853</ele>
        <time>2021-08-02T10:11:25.213Z</time>
      </trkpt>
      <trkpt lat="47.02444" lon="8.98749">
        <ele>853</ele>
        <time>2021-08-02T10:11:26.212Z</time>
      </trkpt>
      <trkpt lat="47.02443" lon="8.98748">
        <ele>854</ele>
        <time>2021-08-02T10:11:27.213Z</time>
      </trkpt>
      <trkpt lat="47.02442" lon="8.98747">
        <ele>854</ele>
        <time>2021-08-02T10:11:28.213Z</time>
      </trkpt>
      <trkpt lat="47.02441" lon="8.98745">
        <ele>854</ele>
        <time>2021-08-02T10:11:29.213Z</time>
      </trkpt>
      <trkpt lat="47.02441" lon="8.98744">
        <ele>854</ele>
        <time>2021-08-02T10:11:30.213Z</time>
      </trkpt>
      <trkpt lat="47.0244" lon="8.98742">
        <ele>854</ele>
        <time>2021-08-02T10:11:31.213Z</time>
      </trkpt>
      <trkpt lat="47.0244" lon="8.98741">
        <ele>854</ele>
        <time>2021-08-02T10:11:32.213Z</time>
      </trkpt>
      <trkpt lat="47.0244" lon="8.9874">
        <ele>854</ele>
        <time>2021-08-02T10:11:33.213Z</time>
      </trkpt>
      <trkpt lat="47.02439" lon="8.98739">
        <ele>853</ele>
        <time>2021-08-02T10:11:34.212Z</time>
      </trkpt>
      <trkpt lat="47.02439" lon="8.98738">
        <ele>853</ele>
        <time>2021-08-02T10:11:35.212Z</time>
      </trkpt>
      <trkpt lat="47.02438" lon="8.98737">
        <ele>853</ele>
        <time>2021-08-02T10:11:36.212Z</time>
      </trkpt>
      <trkpt lat="47.02437" lon="8.98737">
        <ele>853</ele>
        <time>2021-08-02T10:11:37.213Z</time>
      </trkpt>
      <trkpt lat="47.02436" lon="8.98736">
        <ele>853</ele>
        <time>2021-08-02T10:11:38.213Z</time>
      </trkpt>
      <trkpt lat="47.02435" lon="8.98736">
        <ele>853</ele>
        <time>2021-08-02T10:11:39.212Z</time>
      </trkpt>
      <trkpt lat="47.02435" lon="8.98735">
        <ele>853</ele>
        <time>2021-08-02T10:11:40.212Z</time>
      </trkpt>
      <trkpt lat="47.02434" lon="8.98734">
        <ele>853</ele>
        <time>2021-08-02T10:11:41.213Z</time>
      </trkpt>
      <trkpt lat="47.02433" lon="8.98733">
        <ele>853</ele>
        <time>2021-08-02T10:11:42.213Z</time>
      </trkpt>
      <trkpt lat="47.02432" lon="8.98731">
        <ele>853</ele>
        <time>2021-08-02T10:11:43.212Z</time>
      </trkpt>
      <trkpt lat="47.02432" lon="8.98729">
        <ele>853</ele>
        <time>2021-08-02T10:11:44.212Z</time>
      </trkpt>
      <trkpt lat="47.02432" lon="8.98728">
        <ele>853</ele>
        <time>2021-08-02T10:11:45.213Z</time>
      </trkpt>
      <trkpt lat="47.0243" lon="8.98727">
        <ele>853</ele>
        <time>2021-08-02T10:11:46.213Z</time>
      </trkpt>
      <trkpt lat="47.02429" lon="8.98726">
        <ele>853</ele>
        <time>2021-08-02T10:11:47.213Z</time>
      </trkpt>
      <trkpt lat="47.02428" lon="8.98725">
        <ele>853</ele>
        <time>2021-08-02T10:11:48.212Z</time>
      </trkpt>
      <trkpt lat="47.02427" lon="8.98723">
        <ele>853</ele>
        <time>2021-08-02T10:11:49.213Z</time>
      </trkpt>
      <trkpt lat="47.02427" lon="8.98721">
        <ele>852</ele>
        <time>2021-08-02T10:11:50.212Z</time>
      </trkpt>
      <trkpt lat="47.02426" lon="8.9872">
        <ele>852</ele>
        <time>2021-08-02T10:11:51.213Z</time>
      </trkpt>
      <trkpt lat="47.02424" lon="8.98719">
        <ele>851</ele>
        <time>2021-08-02T10:11:52.213Z</time>
      </trkpt>
      <trkpt lat="47.02423" lon="8.98718">
        <ele>851</ele>
        <time>2021-08-02T10:11:53.212Z</time>
      </trkpt>
      <trkpt lat="47.02423" lon="8.98718">
        <ele>851</ele>
        <time>2021-08-02T10:11:54.213Z</time>
      </trkpt>
      <trkpt lat="47.02422" lon="8.98717">
        <ele>851</ele>
        <time>2021-08-02T10:11:55.213Z</time>
      </trkpt>
      <trkpt lat="47.02421" lon="8.98716">
        <ele>851</ele>
        <time>2021-08-02T10:11:56.212Z</time>
      </trkpt>
      <trkpt lat="47.02421" lon="8.98715">
        <ele>851</ele>
        <time>2021-08-02T10:11:57.213Z</time>
      </trkpt>
      <trkpt lat="47.0242" lon="8.98714">
        <ele>850</ele>
        <time>2021-08-02T10:11:58.212Z</time>
      </trkpt>
      <trkpt lat="47.0242" lon="8.98713">
        <ele>850</ele>
        <time>2021-08-02T10:11:59.212Z</time>
      </trkpt>
      <trkpt lat="47.02419" lon="8.98711">
        <ele>850</ele>
        <time>2021-08-02T10:12:00.212Z</time>
      </trkpt>
      <trkpt lat="47.02419" lon="8.9871">
        <ele>850</ele>
        <time>2021-08-02T10:12:01.213Z</time>
      </trkpt>
      <trkpt lat="47.02419" lon="8.98709">
        <ele>850</ele>
        <time>2021-08-02T10:12:02.212Z</time>
      </trkpt>
      <trkpt lat="47.02419" lon="8.98707">
        <ele>850</ele>
        <time>2021-08-02T10:12:03.212Z</time>
      </trkpt>
      <trkpt lat="47.02418" lon="8.98707">
        <ele>850</ele>
        <time>2021-08-02T10:12:04.212Z</time>
      </trkpt>
      <trkpt lat="47.02417" lon="8.98706">
        <ele>850</ele>
        <time>2021-08-02T10:12:05.213Z</time>
      </trkpt>
      <trkpt lat="47.02416" lon="8.98705">
        <ele>849</ele>
        <time>2021-08-02T10:12:06.213Z</time>
      </trkpt>
      <trkpt lat="47.02415" lon="8.98704">
        <ele>849</ele>
        <time>2021-08-02T10:12:07.212Z</time>
      </trkpt>
      <trkpt lat="47.02415" lon="8.98702">
        <ele>849</ele>
        <time>2021-08-02T10:12:08.212Z</time>
      </trkpt>
      <trkpt lat="47.02415" lon="8.98701">
        <ele>850</ele>
        <time>2021-08-02T10:12:15.301Z</time>
      </trkpt>
      <trkpt lat="47.02414" lon="8.98701">
        <ele>850</ele>
        <time>2021-08-02T10:12:16.302Z</time>
      </trkpt>
      <trkpt lat="47.02413" lon="8.987">
        <ele>850</ele>
        <time>2021-08-02T10:12:17.302Z</time>
      </trkpt>
      <trkpt lat="47.02412" lon="8.98699">
        <ele>849</ele>
        <time>2021-08-02T10:12:18.301Z</time>
      </trkpt>
      <trkpt lat="47.02412" lon="8.98698">
        <ele>849</ele>
        <time>2021-08-02T10:12:19.301Z</time>
      </trkpt>
      <trkpt lat="47.0241" lon="8.98697">
        <ele>849</ele>
        <time>2021-08-02T10:12:20.301Z</time>
      </trkpt>
      <trkpt lat="47.02409" lon="8.98695">
        <ele>849</ele>
        <time>2021-08-02T10:12:21.302Z</time>
      </trkpt>
      <trkpt lat="47.02408" lon="8.98694">
        <ele>849</ele>
        <time>2021-08-02T10:12:22.301Z</time>
      </trkpt>
      <trkpt lat="47.02408" lon="8.98692">
        <ele>849</ele>
        <time>2021-08-02T10:12:29.442Z</time>
      </trkpt>
      <trkpt lat="47.02407" lon="8.98691">
        <ele>849</ele>
        <time>2021-08-02T10:12:30.442Z</time>
      </trkpt>
      <trkpt lat="47.02406" lon="8.98689">
        <ele>849</ele>
        <time>2021-08-02T10:12:31.442Z</time>
      </trkpt>
      <trkpt lat="47.02405" lon="8.98687">
        <ele>849</ele>
        <time>2021-08-02T10:12:32.441Z</time>
      </trkpt>
      <trkpt lat="47.02404" lon="8.98686">
        <ele>849</ele>
        <time>2021-08-02T10:12:40.564Z</time>
      </trkpt>
      <trkpt lat="47.02403" lon="8.98684">
        <ele>849</ele>
        <time>2021-08-02T10:12:48.444Z</time>
      </trkpt>
      <trkpt lat="47.02402" lon="8.98683">
        <ele>849</ele>
        <time>2021-08-02T10:12:49.443Z</time>
      </trkpt>
      <trkpt lat="47.02401" lon="8.98681">
        <ele>849</ele>
        <time>2021-08-02T10:12:50.443Z</time>
      </trkpt>
      <trkpt lat="47.02401" lon="8.9868">
        <ele>849</ele>
        <time>2021-08-02T10:12:51.443Z</time>
      </trkpt>
      <trkpt lat="47.024" lon="8.9868">
        <ele>849</ele>
        <time>2021-08-02T10:12:52.444Z</time>
      </trkpt>
      <trkpt lat="47.02399" lon="8.98679">
        <ele>850</ele>
        <time>2021-08-02T10:12:53.444Z</time>
      </trkpt>
      <trkpt lat="47.02398" lon="8.98679">
        <ele>850</ele>
        <time>2021-08-02T10:12:54.443Z</time>
      </trkpt>
      <trkpt lat="47.02397" lon="8.98679">
        <ele>850</ele>
        <time>2021-08-02T10:12:55.444Z</time>
      </trkpt>
      <trkpt lat="47.02397" lon="8.98678">
        <ele>850</ele>
        <time>2021-08-02T10:12:56.444Z</time>
      </trkpt>
      <trkpt lat="47.02397" lon="8.98676">
        <ele>849</ele>
        <time>2021-08-02T10:12:57.444Z</time>
      </trkpt>
      <trkpt lat="47.02397" lon="8.98674">
        <ele>849</ele>
        <time>2021-08-02T10:12:58.443Z</time>
      </trkpt>
      <trkpt lat="47.02397" lon="8.98672">
        <ele>849</ele>
        <time>2021-08-02T10:12:59.444Z</time>
      </trkpt>
      <trkpt lat="47.02397" lon="8.98671">
        <ele>848</ele>
        <time>2021-08-02T10:13:00.444Z</time>
      </trkpt>
      <trkpt lat="47.02397" lon="8.98669">
        <ele>848</ele>
        <time>2021-08-02T10:13:01.443Z</time>
      </trkpt>
      <trkpt lat="47.02396" lon="8.98668">
        <ele>848</ele>
        <time>2021-08-02T10:13:02.443Z</time>
      </trkpt>
      <trkpt lat="47.02396" lon="8.98667">
        <ele>847</ele>
        <time>2021-08-02T10:13:03.444Z</time>
      </trkpt>
      <trkpt lat="47.02395" lon="8.98666">
        <ele>847</ele>
        <time>2021-08-02T10:13:04.444Z</time>
      </trkpt>
      <trkpt lat="47.02395" lon="8.98665">
        <ele>847</ele>
        <time>2021-08-02T10:13:05.443Z</time>
      </trkpt>
      <trkpt lat="47.02394" lon="8.98663">
        <ele>847</ele>
        <time>2021-08-02T10:13:06.443Z</time>
      </trkpt>
      <trkpt lat="47.02393" lon="8.98662">
        <ele>847</ele>
        <time>2021-08-02T10:13:07.443Z</time>
      </trkpt>
      <trkpt lat="47.02392" lon="8.98661">
        <ele>847</ele>
        <time>2021-08-02T10:13:08.444Z</time>
      </trkpt>
      <trkpt lat="47.02391" lon="8.9866">
        <ele>847</ele>
        <time>2021-08-02T10:13:09.444Z</time>
      </trkpt>
      <trkpt lat="47.02389" lon="8.98659">
        <ele>847</ele>
        <time>2021-08-02T10:13:10.443Z</time>
      </trkpt>
      <trkpt lat="47.02388" lon="8.98659">
        <ele>847</ele>
        <time>2021-08-02T10:13:11.444Z</time>
      </trkpt>
      <trkpt lat="47.02387" lon="8.98658">
        <ele>847</ele>
        <time>2021-08-02T10:13:12.444Z</time>
      </trkpt>
      <trkpt lat="47.02386" lon="8.98658">
        <ele>847</ele>
        <time>2021-08-02T10:13:13.443Z</time>
      </trkpt>
      <trkpt lat="47.02384" lon="8.98657">
        <ele>848</ele>
        <time>2021-08-02T10:13:14.444Z</time>
      </trkpt>
      <trkpt lat="47.02383" lon="8.98656">
        <ele>848</ele>
        <time>2021-08-02T10:13:15.444Z</time>
      </trkpt>
      <trkpt lat="47.02382" lon="8.98654">
        <ele>849</ele>
        <time>2021-08-02T10:13:16.443Z</time>
      </trkpt>
      <trkpt lat="47.02381" lon="8.98653">
        <ele>849</ele>
        <time>2021-08-02T10:13:17.444Z</time>
      </trkpt>
      <trkpt lat="47.02381" lon="8.98652">
        <ele>850</ele>
        <time>2021-08-02T10:13:18.443Z</time>
      </trkpt>
      <trkpt lat="47.02379" lon="8.98651">
        <ele>850</ele>
        <time>2021-08-02T10:13:19.444Z</time>
      </trkpt>
      <trkpt lat="47.02378" lon="8.9865">
        <ele>850</ele>
        <time>2021-08-02T10:13:20.444Z</time>
      </trkpt>
      <trkpt lat="47.02377" lon="8.98649">
        <ele>850</ele>
        <time>2021-08-02T10:13:21.444Z</time>
      </trkpt>
      <trkpt lat="47.02375" lon="8.98649">
        <ele>850</ele>
        <time>2021-08-02T10:13:22.444Z</time>
      </trkpt>
      <trkpt lat="47.02374" lon="8.98648">
        <ele>850</ele>
        <time>2021-08-02T10:13:23.444Z</time>
      </trkpt>
      <trkpt lat="47.02372" lon="8.98647">
        <ele>850</ele>
        <time>2021-08-02T10:13:24.443Z</time>
      </trkpt>
      <trkpt lat="47.02371" lon="8.98646">
        <ele>850</ele>
        <time>2021-08-02T10:13:25.443Z</time>
      </trkpt>
      <trkpt lat="47.0237" lon="8.98645">
        <ele>850</ele>
        <time>2021-08-02T10:13:26.444Z</time>
      </trkpt>
      <trkpt lat="47.02369" lon="8.98644">
        <ele>850</ele>
        <time>2021-08-02T10:13:27.444Z</time>
      </trkpt>
      <trkpt lat="47.02369" lon="8.98642">
        <ele>850</ele>
        <time>2021-08-02T10:13:28.444Z</time>
      </trkpt>
      <trkpt lat="47.02369" lon="8.98641">
        <ele>850</ele>
        <time>2021-08-02T10:13:29.444Z</time>
      </trkpt>
      <trkpt lat="47.02369" lon="8.9864">
        <ele>850</ele>
        <time>2021-08-02T10:13:30.443Z</time>
      </trkpt>
      <trkpt lat="47.02368" lon="8.9864">
        <ele>851</ele>
        <time>2021-08-02T10:13:31.444Z</time>
      </trkpt>
      <trkpt lat="47.02367" lon="8.98639">
        <ele>851</ele>
        <time>2021-08-02T10:13:32.444Z</time>
      </trkpt>
      <trkpt lat="47.02365" lon="8.98639">
        <ele>851</ele>
        <time>2021-08-02T10:13:33.444Z</time>
      </trkpt>
      <trkpt lat="47.02365" lon="8.98638">
        <ele>852</ele>
        <time>2021-08-02T10:13:34.444Z</time>
      </trkpt>
      <trkpt lat="47.02364" lon="8.98637">
        <ele>852</ele>
        <time>2021-08-02T10:13:35.443Z</time>
      </trkpt>
      <trkpt lat="47.02363" lon="8.98636">
        <ele>853</ele>
        <time>2021-08-02T10:13:36.444Z</time>
      </trkpt>
      <trkpt lat="47.02363" lon="8.98635">
        <ele>853</ele>
        <time>2021-08-02T10:13:37.444Z</time>
      </trkpt>
      <trkpt lat="47.02362" lon="8.98634">
        <ele>854</ele>
        <time>2021-08-02T10:13:38.444Z</time>
      </trkpt>
      <trkpt lat="47.02362" lon="8.98633">
        <ele>854</ele>
        <time>2021-08-02T10:13:39.443Z</time>
      </trkpt>
      <trkpt lat="47.02362" lon="8.98632">
        <ele>855</ele>
        <time>2021-08-02T10:13:40.443Z</time>
      </trkpt>
      <trkpt lat="47.02361" lon="8.98631">
        <ele>855</ele>
        <time>2021-08-02T10:13:41.444Z</time>
      </trkpt>
      <trkpt lat="47.02361" lon="8.9863">
        <ele>855</ele>
        <time>2021-08-02T10:13:42.444Z</time>
      </trkpt>
      <trkpt lat="47.02361" lon="8.98629">
        <ele>855</ele>
        <time>2021-08-02T10:13:43.443Z</time>
      </trkpt>
      <trkpt lat="47.0236" lon="8.98628">
        <ele>855</ele>
        <time>2021-08-02T10:13:44.444Z</time>
      </trkpt>
      <trkpt lat="47.0236" lon="8.98626">
        <ele>855</ele>
        <time>2021-08-02T10:13:45.444Z</time>
      </trkpt>
      <trkpt lat="47.02358" lon="8.98625">
        <ele>855</ele>
        <time>2021-08-02T10:13:46.444Z</time>
      </trkpt>
      <trkpt lat="47.02357" lon="8.98623">
        <ele>855</ele>
        <time>2021-08-02T10:13:47.444Z</time>
      </trkpt>
      <trkpt lat="47.02356" lon="8.98621">
        <ele>855</ele>
        <time>2021-08-02T10:13:48.443Z</time>
      </trkpt>
      <trkpt lat="47.02356" lon="8.98619">
        <ele>854</ele>
        <time>2021-08-02T10:13:49.444Z</time>
      </trkpt>
      <trkpt lat="47.02356" lon="8.98617">
        <ele>855</ele>
        <time>2021-08-02T10:13:50.444Z</time>
      </trkpt>
      <trkpt lat="47.02355" lon="8.98615">
        <ele>855</ele>
        <time>2021-08-02T10:13:51.444Z</time>
      </trkpt>
      <trkpt lat="47.02354" lon="8.98614">
        <ele>855</ele>
        <time>2021-08-02T10:13:52.443Z</time>
      </trkpt>
      <trkpt lat="47.02352" lon="8.98612">
        <ele>855</ele>
        <time>2021-08-02T10:13:53.443Z</time>
      </trkpt>
      <trkpt lat="47.02351" lon="8.9861">
        <ele>855</ele>
        <time>2021-08-02T10:13:54.443Z</time>
      </trkpt>
      <trkpt lat="47.0235" lon="8.98608">
        <ele>855</ele>
        <time>2021-08-02T10:13:55.443Z</time>
      </trkpt>
      <trkpt lat="47.02349" lon="8.98606">
        <ele>856</ele>
        <time>2021-08-02T10:13:56.444Z</time>
      </trkpt>
      <trkpt lat="47.02348" lon="8.98605">
        <ele>856</ele>
        <time>2021-08-02T10:13:57.443Z</time>
      </trkpt>
      <trkpt lat="47.02347" lon="8.98603">
        <ele>856</ele>
        <time>2021-08-02T10:13:58.444Z</time>
      </trkpt>
      <trkpt lat="47.02346" lon="8.98603">
        <ele>856</ele>
        <time>2021-08-02T10:13:59.444Z</time>
      </trkpt>
      <trkpt lat="47.02345" lon="8.98603">
        <ele>856</ele>
        <time>2021-08-02T10:14:00.444Z</time>
      </trkpt>
      <trkpt lat="47.02344" lon="8.98602">
        <ele>856</ele>
        <time>2021-08-02T10:14:01.443Z</time>
      </trkpt>
      <trkpt lat="47.02344" lon="8.986">
        <ele>856</ele>
        <time>2021-08-02T10:14:02.444Z</time>
      </trkpt>
      <trkpt lat="47.02343" lon="8.986">
        <ele>856</ele>
        <time>2021-08-02T10:14:03.444Z</time>
      </trkpt>
      <trkpt lat="47.02342" lon="8.98599">
        <ele>856</ele>
        <time>2021-08-02T10:14:04.444Z</time>
      </trkpt>
      <trkpt lat="47.02342" lon="8.98598">
        <ele>856</ele>
        <time>2021-08-02T10:14:05.443Z</time>
      </trkpt>
      <trkpt lat="47.02341" lon="8.98597">
        <ele>857</ele>
        <time>2021-08-02T10:14:06.444Z</time>
      </trkpt>
      <trkpt lat="47.0234" lon="8.98597">
        <ele>857</ele>
        <time>2021-08-02T10:14:07.444Z</time>
      </trkpt>
      <trkpt lat="47.02339" lon="8.98596">
        <ele>857</ele>
        <time>2021-08-02T10:14:08.443Z</time>
      </trkpt>
      <trkpt lat="47.02338" lon="8.98595">
        <ele>857</ele>
        <time>2021-08-02T10:14:09.444Z</time>
      </trkpt>
      <trkpt lat="47.02337" lon="8.98595">
        <ele>857</ele>
        <time>2021-08-02T10:14:10.444Z</time>
      </trkpt>
      <trkpt lat="47.02336" lon="8.98594">
        <ele>857</ele>
        <time>2021-08-02T10:14:11.443Z</time>
      </trkpt>
      <trkpt lat="47.02335" lon="8.98594">
        <ele>857</ele>
        <time>2021-08-02T10:14:12.444Z</time>
      </trkpt>
      <trkpt lat="47.02334" lon="8.98593">
        <ele>857</ele>
        <time>2021-08-02T10:14:13.443Z</time>
      </trkpt>
      <trkpt lat="47.02333" lon="8.98592">
        <ele>857</ele>
        <time>2021-08-02T10:14:14.443Z</time>
      </trkpt>
      <trkpt lat="47.02332" lon="8.98591">
        <ele>857</ele>
        <time>2021-08-02T10:14:15.443Z</time>
      </trkpt>
      <trkpt lat="47.02331" lon="8.98591">
        <ele>857</ele>
        <time>2021-08-02T10:14:16.443Z</time>
      </trkpt>
      <trkpt lat="47.0233" lon="8.98589">
        <ele>857</ele>
        <time>2021-08-02T10:14:17.443Z</time>
      </trkpt>
      <trkpt lat="47.02329" lon="8.98587">
        <ele>857</ele>
        <time>2021-08-02T10:14:18.444Z</time>
      </trkpt>
      <trkpt lat="47.02328" lon="8.98584">
        <ele>857</ele>
        <time>2021-08-02T10:14:19.443Z</time>
      </trkpt>
      <trkpt lat="47.02326" lon="8.98583">
        <ele>857</ele>
        <time>2021-08-02T10:14:20.444Z</time>
      </trkpt>
      <trkpt lat="47.02326" lon="8.98581">
        <ele>857</ele>
        <time>2021-08-02T10:14:21.443Z</time>
      </trkpt>
      <trkpt lat="47.02325" lon="8.9858">
        <ele>857</ele>
        <time>2021-08-02T10:14:22.444Z</time>
      </trkpt>
      <trkpt lat="47.02323" lon="8.98579">
        <ele>857</ele>
        <time>2021-08-02T10:14:32.552Z</time>
      </trkpt>
      <trkpt lat="47.02322" lon="8.98578">
        <ele>857</ele>
        <time>2021-08-02T10:14:42.464Z</time>
      </trkpt>
      <trkpt lat="47.02322" lon="8.98578">
        <ele>857</ele>
        <time>2021-08-02T10:14:43.464Z</time>
      </trkpt>
      <trkpt lat="47.02321" lon="8.98577">
        <ele>857</ele>
        <time>2021-08-02T10:14:44.464Z</time>
      </trkpt>
      <trkpt lat="47.02321" lon="8.98576">
        <ele>858</ele>
        <time>2021-08-02T10:14:45.464Z</time>
      </trkpt>
      <trkpt lat="47.02321" lon="8.98575">
        <ele>858</ele>
        <time>2021-08-02T10:14:46.463Z</time>
      </trkpt>
      <trkpt lat="47.0232" lon="8.98573">
        <ele>858</ele>
        <time>2021-08-02T10:14:47.463Z</time>
      </trkpt>
      <trkpt lat="47.0232" lon="8.98572">
        <ele>858</ele>
        <time>2021-08-02T10:14:48.464Z</time>
      </trkpt>
      <trkpt lat="47.02319" lon="8.98572">
        <ele>859</ele>
        <time>2021-08-02T10:14:49.463Z</time>
      </trkpt>
      <trkpt lat="47.02319" lon="8.98571">
        <ele>859</ele>
        <time>2021-08-02T10:14:50.463Z</time>
      </trkpt>
      <trkpt lat="47.02318" lon="8.9857">
        <ele>859</ele>
        <time>2021-08-02T10:14:51.463Z</time>
      </trkpt>
      <trkpt lat="47.02317" lon="8.98569">
        <ele>860</ele>
        <time>2021-08-02T10:14:52.464Z</time>
      </trkpt>
      <trkpt lat="47.02317" lon="8.98569">
        <ele>859</ele>
        <time>2021-08-02T10:14:53.463Z</time>
      </trkpt>
      <trkpt lat="47.02317" lon="8.98568">
        <ele>859</ele>
        <time>2021-08-02T10:14:54.463Z</time>
      </trkpt>
      <trkpt lat="47.02317" lon="8.98567">
        <ele>858</ele>
        <time>2021-08-02T10:14:55.463Z</time>
      </trkpt>
      <trkpt lat="47.02316" lon="8.98566">
        <ele>858</ele>
        <time>2021-08-02T10:14:56.463Z</time>
      </trkpt>
      <trkpt lat="47.02316" lon="8.98565">
        <ele>858</ele>
        <time>2021-08-02T10:14:57.464Z</time>
      </trkpt>
      <trkpt lat="47.02316" lon="8.98565">
        <ele>857</ele>
        <time>2021-08-02T10:14:58.463Z</time>
      </trkpt>
      <trkpt lat="47.02315" lon="8.98565">
        <ele>857</ele>
        <time>2021-08-02T10:14:59.464Z</time>
      </trkpt>
      <trkpt lat="47.02314" lon="8.98565">
        <ele>856</ele>
        <time>2021-08-02T10:15:00.464Z</time>
      </trkpt>
      <trkpt lat="47.02313" lon="8.98564">
        <ele>856</ele>
        <time>2021-08-02T10:15:01.464Z</time>
      </trkpt>
      <trkpt lat="47.02312" lon="8.98564">
        <ele>856</ele>
        <time>2021-08-02T10:15:02.464Z</time>
      </trkpt>
      <trkpt lat="47.02312" lon="8.98563">
        <ele>856</ele>
        <time>2021-08-02T10:15:03.464Z</time>
      </trkpt>
      <trkpt lat="47.02311" lon="8.98562">
        <ele>856</ele>
        <time>2021-08-02T10:15:04.464Z</time>
      </trkpt>
      <trkpt lat="47.0231" lon="8.98561">
        <ele>856</ele>
        <time>2021-08-02T10:15:05.464Z</time>
      </trkpt>
      <trkpt lat="47.02309" lon="8.9856">
        <ele>856</ele>
        <time>2021-08-02T10:15:06.464Z</time>
      </trkpt>
      <trkpt lat="47.02309" lon="8.98559">
        <ele>856</ele>
        <time>2021-08-02T10:15:07.463Z</time>
      </trkpt>
      <trkpt lat="47.02308" lon="8.98559">
        <ele>856</ele>
        <time>2021-08-02T10:15:08.463Z</time>
      </trkpt>
      <trkpt lat="47.02307" lon="8.98557">
        <ele>855</ele>
        <time>2021-08-02T10:15:09.463Z</time>
      </trkpt>
      <trkpt lat="47.02306" lon="8.98556">
        <ele>855</ele>
        <time>2021-08-02T10:15:10.463Z</time>
      </trkpt>
      <trkpt lat="47.02305" lon="8.98555">
        <ele>855</ele>
        <time>2021-08-02T10:15:11.463Z</time>
      </trkpt>
      <trkpt lat="47.02305" lon="8.98554">
        <ele>854</ele>
        <time>2021-08-02T10:15:12.463Z</time>
      </trkpt>
      <trkpt lat="47.02305" lon="8.98553">
        <ele>854</ele>
        <time>2021-08-02T10:15:13.463Z</time>
      </trkpt>
      <trkpt lat="47.02304" lon="8.98551">
        <ele>853</ele>
        <time>2021-08-02T10:15:14.463Z</time>
      </trkpt>
      <trkpt lat="47.02304" lon="8.9855">
        <ele>853</ele>
        <time>2021-08-02T10:15:15.463Z</time>
      </trkpt>
      <trkpt lat="47.02304" lon="8.98548">
        <ele>853</ele>
        <time>2021-08-02T10:15:16.463Z</time>
      </trkpt>
      <trkpt lat="47.02304" lon="8.98546">
        <ele>853</ele>
        <time>2021-08-02T10:15:17.463Z</time>
      </trkpt>
      <trkpt lat="47.02304" lon="8.98544">
        <ele>853</ele>
        <time>2021-08-02T10:15:18.463Z</time>
      </trkpt>
      <trkpt lat="47.02304" lon="8.98543">
        <ele>852</ele>
        <time>2021-08-02T10:15:19.463Z</time>
      </trkpt>
      <trkpt lat="47.02303" lon="8.98542">
        <ele>852</ele>
        <time>2021-08-02T10:15:20.463Z</time>
      </trkpt>
      <trkpt lat="47.02303" lon="8.9854">
        <ele>852</ele>
        <time>2021-08-02T10:15:21.464Z</time>
      </trkpt>
      <trkpt lat="47.02302" lon="8.98538">
        <ele>852</ele>
        <time>2021-08-02T10:15:22.463Z</time>
      </trkpt>
      <trkpt lat="47.02301" lon="8.98537">
        <ele>852</ele>
        <time>2021-08-02T10:15:23.463Z</time>
      </trkpt>
      <trkpt lat="47.023" lon="8.98536">
        <ele>852</ele>
        <time>2021-08-02T10:15:24.463Z</time>
      </trkpt>
      <trkpt lat="47.023" lon="8.98535">
        <ele>852</ele>
        <time>2021-08-02T10:15:25.464Z</time>
      </trkpt>
      <trkpt lat="47.023" lon="8.98534">
        <ele>851</ele>
        <time>2021-08-02T10:15:26.463Z</time>
      </trkpt>
      <trkpt lat="47.023" lon="8.98531">
        <ele>851</ele>
        <time>2021-08-02T10:15:27.464Z</time>
      </trkpt>
      <trkpt lat="47.023" lon="8.98529">
        <ele>851</ele>
        <time>2021-08-02T10:15:28.464Z</time>
      </trkpt>
      <trkpt lat="47.023" lon="8.98528">
        <ele>851</ele>
        <time>2021-08-02T10:15:29.464Z</time>
      </trkpt>
      <trkpt lat="47.02299" lon="8.98527">
        <ele>851</ele>
        <time>2021-08-02T10:15:30.464Z</time>
      </trkpt>
      <trkpt lat="47.02298" lon="8.98525">
        <ele>851</ele>
        <time>2021-08-02T10:15:31.464Z</time>
      </trkpt>
      <trkpt lat="47.02298" lon="8.98524">
        <ele>852</ele>
        <time>2021-08-02T10:15:32.464Z</time>
      </trkpt>
      <trkpt lat="47.02297" lon="8.98522">
        <ele>852</ele>
        <time>2021-08-02T10:15:33.463Z</time>
      </trkpt>
      <trkpt lat="47.02297" lon="8.9852">
        <ele>853</ele>
        <time>2021-08-02T10:15:34.464Z</time>
      </trkpt>
      <trkpt lat="47.02295" lon="8.98519">
        <ele>853</ele>
        <time>2021-08-02T10:15:35.464Z</time>
      </trkpt>
      <trkpt lat="47.02294" lon="8.98517">
        <ele>854</ele>
        <time>2021-08-02T10:15:36.464Z</time>
      </trkpt>
      <trkpt lat="47.02293" lon="8.98516">
        <ele>854</ele>
        <time>2021-08-02T10:15:37.463Z</time>
      </trkpt>
      <trkpt lat="47.02292" lon="8.98515">
        <ele>853</ele>
        <time>2021-08-02T10:15:38.464Z</time>
      </trkpt>
      <trkpt lat="47.02291" lon="8.98514">
        <ele>853</ele>
        <time>2021-08-02T10:15:39.464Z</time>
      </trkpt>
      <trkpt lat="47.0229" lon="8.98512">
        <ele>853</ele>
        <time>2021-08-02T10:15:40.463Z</time>
      </trkpt>
      <trkpt lat="47.02287" lon="8.9851">
        <ele>852</ele>
        <time>2021-08-02T10:15:41.464Z</time>
      </trkpt>
      <trkpt lat="47.02286" lon="8.98508">
        <ele>852</ele>
        <time>2021-08-02T10:15:42.463Z</time>
      </trkpt>
      <trkpt lat="47.02285" lon="8.98506">
        <ele>851</ele>
        <time>2021-08-02T10:15:43.464Z</time>
      </trkpt>
      <trkpt lat="47.02284" lon="8.98504">
        <ele>851</ele>
        <time>2021-08-02T10:15:44.463Z</time>
      </trkpt>
      <trkpt lat="47.02283" lon="8.98503">
        <ele>851</ele>
        <time>2021-08-02T10:15:45.464Z</time>
      </trkpt>
      <trkpt lat="47.02283" lon="8.98502">
        <ele>852</ele>
        <time>2021-08-02T10:15:46.464Z</time>
      </trkpt>
      <trkpt lat="47.02283" lon="8.985">
        <ele>852</ele>
        <time>2021-08-02T10:15:47.464Z</time>
      </trkpt>
      <trkpt lat="47.02282" lon="8.98499">
        <ele>852</ele>
        <time>2021-08-02T10:15:48.463Z</time>
      </trkpt>
      <trkpt lat="47.02281" lon="8.98498">
        <ele>852</ele>
        <time>2021-08-02T10:15:49.464Z</time>
      </trkpt>
      <trkpt lat="47.0228" lon="8.98497">
        <ele>852</ele>
        <time>2021-08-02T10:15:50.464Z</time>
      </trkpt>
      <trkpt lat="47.02279" lon="8.98496">
        <ele>852</ele>
        <time>2021-08-02T10:15:51.464Z</time>
      </trkpt>
      <trkpt lat="47.02279" lon="8.98494">
        <ele>852</ele>
        <time>2021-08-02T10:15:52.464Z</time>
      </trkpt>
      <trkpt lat="47.02278" lon="8.98493">
        <ele>852</ele>
        <time>2021-08-02T10:15:53.464Z</time>
      </trkpt>
      <trkpt lat="47.02277" lon="8.98492">
        <ele>852</ele>
        <time>2021-08-02T10:15:54.464Z</time>
      </trkpt>
      <trkpt lat="47.02276" lon="8.98491">
        <ele>851</ele>
        <time>2021-08-02T10:15:55.464Z</time>
      </trkpt>
      <trkpt lat="47.02275" lon="8.98489">
        <ele>850</ele>
        <time>2021-08-02T10:15:56.464Z</time>
      </trkpt>
      <trkpt lat="47.02275" lon="8.98487">
        <ele>850</ele>
        <time>2021-08-02T10:15:57.463Z</time>
      </trkpt>
      <trkpt lat="47.02275" lon="8.98486">
        <ele>849</ele>
        <time>2021-08-02T10:15:58.464Z</time>
      </trkpt>
      <trkpt lat="47.02275" lon="8.98485">
        <ele>849</ele>
        <time>2021-08-02T10:15:59.464Z</time>
      </trkpt>
      <trkpt lat="47.02275" lon="8.98484">
        <ele>849</ele>
        <time>2021-08-02T10:16:00.464Z</time>
      </trkpt>
      <trkpt lat="47.02275" lon="8.98482">
        <ele>849</ele>
        <time>2021-08-02T10:16:01.464Z</time>
      </trkpt>
      <trkpt lat="47.02274" lon="8.98481">
        <ele>849</ele>
        <time>2021-08-02T10:16:07.548Z</time>
      </trkpt>
      <trkpt lat="47.02274" lon="8.98479">
        <ele>849</ele>
        <time>2021-08-02T10:16:08.549Z</time>
      </trkpt>
      <trkpt lat="47.02274" lon="8.98478">
        <ele>848</ele>
        <time>2021-08-02T10:16:09.549Z</time>
      </trkpt>
      <trkpt lat="47.02274" lon="8.98476">
        <ele>848</ele>
        <time>2021-08-02T10:16:10.549Z</time>
      </trkpt>
      <trkpt lat="47.02273" lon="8.98474">
        <ele>848</ele>
        <time>2021-08-02T10:16:11.549Z</time>
      </trkpt>
      <trkpt lat="47.02273" lon="8.98473">
        <ele>848</ele>
        <time>2021-08-02T10:16:12.549Z</time>
      </trkpt>
      <trkpt lat="47.02273" lon="8.98471">
        <ele>847</ele>
        <time>2021-08-02T10:16:13.549Z</time>
      </trkpt>
      <trkpt lat="47.02272" lon="8.9847">
        <ele>847</ele>
        <time>2021-08-02T10:16:14.549Z</time>
      </trkpt>
      <trkpt lat="47.02272" lon="8.98469">
        <ele>847</ele>
        <time>2021-08-02T10:16:15.548Z</time>
      </trkpt>
      <trkpt lat="47.02272" lon="8.98468">
        <ele>848</ele>
        <time>2021-08-02T10:16:16.549Z</time>
      </trkpt>
      <trkpt lat="47.02271" lon="8.98466">
        <ele>848</ele>
        <time>2021-08-02T10:16:17.549Z</time>
      </trkpt>
      <trkpt lat="47.02271" lon="8.98465">
        <ele>848</ele>
        <time>2021-08-02T10:16:18.549Z</time>
      </trkpt>
      <trkpt lat="47.02271" lon="8.98464">
        <ele>849</ele>
        <time>2021-08-02T10:16:19.549Z</time>
      </trkpt>
      <trkpt lat="47.02271" lon="8.98463">
        <ele>849</ele>
        <time>2021-08-02T10:16:20.549Z</time>
      </trkpt>
      <trkpt lat="47.02272" lon="8.98461">
        <ele>849</ele>
        <time>2021-08-02T10:16:21.548Z</time>
      </trkpt>
      <trkpt lat="47.02271" lon="8.98459">
        <ele>849</ele>
        <time>2021-08-02T10:16:22.549Z</time>
      </trkpt>
      <trkpt lat="47.02271" lon="8.98458">
        <ele>849</ele>
        <time>2021-08-02T10:16:23.549Z</time>
      </trkpt>
      <trkpt lat="47.02271" lon="8.98457">
        <ele>850</ele>
        <time>2021-08-02T10:16:24.548Z</time>
      </trkpt>
      <trkpt lat="47.0227" lon="8.98455">
        <ele>850</ele>
        <time>2021-08-02T10:16:25.549Z</time>
      </trkpt>
      <trkpt lat="47.0227" lon="8.98454">
        <ele>850</ele>
        <time>2021-08-02T10:16:26.548Z</time>
      </trkpt>
      <trkpt lat="47.0227" lon="8.98453">
        <ele>851</ele>
        <time>2021-08-02T10:16:27.549Z</time>
      </trkpt>
      <trkpt lat="47.0227" lon="8.98452">
        <ele>851</ele>
        <time>2021-08-02T10:16:28.549Z</time>
      </trkpt>
      <trkpt lat="47.0227" lon="8.98451">
        <ele>851</ele>
        <time>2021-08-02T10:16:29.549Z</time>
      </trkpt>
      <trkpt lat="47.02271" lon="8.98448">
        <ele>852</ele>
        <time>2021-08-02T10:16:30.548Z</time>
      </trkpt>
      <trkpt lat="47.02272" lon="8.98446">
        <ele>852</ele>
        <time>2021-08-02T10:16:31.548Z</time>
      </trkpt>
      <trkpt lat="47.02272" lon="8.98445">
        <ele>853</ele>
        <time>2021-08-02T10:16:32.549Z</time>
      </trkpt>
      <trkpt lat="47.02273" lon="8.98443">
        <ele>853</ele>
        <time>2021-08-02T10:16:33.548Z</time>
      </trkpt>
      <trkpt lat="47.02273" lon="8.98442">
        <ele>853</ele>
        <time>2021-08-02T10:16:34.548Z</time>
      </trkpt>
      <trkpt lat="47.02273" lon="8.98441">
        <ele>854</ele>
        <time>2021-08-02T10:16:35.549Z</time>
      </trkpt>
      <trkpt lat="47.02273" lon="8.9844">
        <ele>854</ele>
        <time>2021-08-02T10:16:36.549Z</time>
      </trkpt>
      <trkpt lat="47.02274" lon="8.98438">
        <ele>854</ele>
        <time>2021-08-02T10:16:37.549Z</time>
      </trkpt>
      <trkpt lat="47.02273" lon="8.98437">
        <ele>854</ele>
        <time>2021-08-02T10:16:38.548Z</time>
      </trkpt>
      <trkpt lat="47.02272" lon="8.98436">
        <ele>854</ele>
        <time>2021-08-02T10:16:39.549Z</time>
      </trkpt>
      <trkpt lat="47.02272" lon="8.98435">
        <ele>854</ele>
        <time>2021-08-02T10:16:40.549Z</time>
      </trkpt>
      <trkpt lat="47.02271" lon="8.98434">
        <ele>854</ele>
        <time>2021-08-02T10:16:41.549Z</time>
      </trkpt>
      <trkpt lat="47.0227" lon="8.98434">
        <ele>854</ele>
        <time>2021-08-02T10:16:42.548Z</time>
      </trkpt>
      <trkpt lat="47.0227" lon="8.98432">
        <ele>854</ele>
        <time>2021-08-02T10:16:43.549Z</time>
      </trkpt>
      <trkpt lat="47.0227" lon="8.98431">
        <ele>854</ele>
        <time>2021-08-02T10:16:44.548Z</time>
      </trkpt>
      <trkpt lat="47.0227" lon="8.98429">
        <ele>854</ele>
        <time>2021-08-02T10:16:45.548Z</time>
      </trkpt>
      <trkpt lat="47.0227" lon="8.98427">
        <ele>854</ele>
        <time>2021-08-02T10:16:46.549Z</time>
      </trkpt>
      <trkpt lat="47.0227" lon="8.98426">
        <ele>854</ele>
        <time>2021-08-02T10:16:47.549Z</time>
      </trkpt>
      <trkpt lat="47.0227" lon="8.98424">
        <ele>854</ele>
        <time>2021-08-02T10:16:48.549Z</time>
      </trkpt>
      <trkpt lat="47.0227" lon="8.98422">
        <ele>854</ele>
        <time>2021-08-02T10:16:49.548Z</time>
      </trkpt>
      <trkpt lat="47.02269" lon="8.98421">
        <ele>854</ele>
        <time>2021-08-02T10:16:50.549Z</time>
      </trkpt>
      <trkpt lat="47.02269" lon="8.9842">
        <ele>854</ele>
        <time>2021-08-02T10:16:51.549Z</time>
      </trkpt>
      <trkpt lat="47.02269" lon="8.98419">
        <ele>854</ele>
        <time>2021-08-02T10:16:52.549Z</time>
      </trkpt>
      <trkpt lat="47.02268" lon="8.98418">
        <ele>854</ele>
        <time>2021-08-02T10:16:53.549Z</time>
      </trkpt>
      <trkpt lat="47.02268" lon="8.98416">
        <ele>854</ele>
        <time>2021-08-02T10:16:54.548Z</time>
      </trkpt>
      <trkpt lat="47.02268" lon="8.98415">
        <ele>855</ele>
        <time>2021-08-02T10:16:55.549Z</time>
      </trkpt>
      <trkpt lat="47.02268" lon="8.98413">
        <ele>855</ele>
        <time>2021-08-02T10:16:56.549Z</time>
      </trkpt>
      <trkpt lat="47.02267" lon="8.98413">
        <ele>855</ele>
        <time>2021-08-02T10:16:57.549Z</time>
      </trkpt>
      <trkpt lat="47.02265" lon="8.98412">
        <ele>855</ele>
        <time>2021-08-02T10:16:58.548Z</time>
      </trkpt>
      <trkpt lat="47.02264" lon="8.98411">
        <ele>855</ele>
        <time>2021-08-02T10:16:59.548Z</time>
      </trkpt>
      <trkpt lat="47.02263" lon="8.9841">
        <ele>855</ele>
        <time>2021-08-02T10:17:00.549Z</time>
      </trkpt>
      <trkpt lat="47.02263" lon="8.98409">
        <ele>855</ele>
        <time>2021-08-02T10:17:01.549Z</time>
      </trkpt>
      <trkpt lat="47.02263" lon="8.98407">
        <ele>855</ele>
        <time>2021-08-02T10:17:02.549Z</time>
      </trkpt>
      <trkpt lat="47.02263" lon="8.98406">
        <ele>854</ele>
        <time>2021-08-02T10:17:03.549Z</time>
      </trkpt>
      <trkpt lat="47.02262" lon="8.98404">
        <ele>854</ele>
        <time>2021-08-02T10:17:04.549Z</time>
      </trkpt>
      <trkpt lat="47.02262" lon="8.98403">
        <ele>854</ele>
        <time>2021-08-02T10:17:05.549Z</time>
      </trkpt>
      <trkpt lat="47.02262" lon="8.98402">
        <ele>854</ele>
        <time>2021-08-02T10:17:06.548Z</time>
      </trkpt>
      <trkpt lat="47.02263" lon="8.984">
        <ele>854</ele>
        <time>2021-08-02T10:17:07.549Z</time>
      </trkpt>
      <trkpt lat="47.02263" lon="8.98398">
        <ele>854</ele>
        <time>2021-08-02T10:17:08.548Z</time>
      </trkpt>
      <trkpt lat="47.02263" lon="8.98397">
        <ele>854</ele>
        <time>2021-08-02T10:17:09.548Z</time>
      </trkpt>
      <trkpt lat="47.02262" lon="8.98396">
        <ele>855</ele>
        <time>2021-08-02T10:17:10.549Z</time>
      </trkpt>
      <trkpt lat="47.02261" lon="8.98395">
        <ele>855</ele>
        <time>2021-08-02T10:17:11.549Z</time>
      </trkpt>
      <trkpt lat="47.02261" lon="8.98394">
        <ele>855</ele>
        <time>2021-08-02T10:17:12.549Z</time>
      </trkpt>
      <trkpt lat="47.02261" lon="8.98393">
        <ele>855</ele>
        <time>2021-08-02T10:17:13.549Z</time>
      </trkpt>
      <trkpt lat="47.02261" lon="8.98392">
        <ele>856</ele>
        <time>2021-08-02T10:17:14.548Z</time>
      </trkpt>
      <trkpt lat="47.02262" lon="8.98391">
        <ele>856</ele>
        <time>2021-08-02T10:17:15.549Z</time>
      </trkpt>
      <trkpt lat="47.02262" lon="8.9839">
        <ele>857</ele>
        <time>2021-08-02T10:17:16.549Z</time>
      </trkpt>
      <trkpt lat="47.02263" lon="8.98389">
        <ele>857</ele>
        <time>2021-08-02T10:17:17.548Z</time>
      </trkpt>
      <trkpt lat="47.02263" lon="8.98388">
        <ele>858</ele>
        <time>2021-08-02T10:17:24.656Z</time>
      </trkpt>
      <trkpt lat="47.02264" lon="8.98386">
        <ele>858</ele>
        <time>2021-08-02T10:17:25.655Z</time>
      </trkpt>
      <trkpt lat="47.02264" lon="8.98385">
        <ele>859</ele>
        <time>2021-08-02T10:17:26.656Z</time>
      </trkpt>
      <trkpt lat="47.02264" lon="8.98384">
        <ele>859</ele>
        <time>2021-08-02T10:17:27.655Z</time>
      </trkpt>
      <trkpt lat="47.02264" lon="8.98383">
        <ele>859</ele>
        <time>2021-08-02T10:17:28.655Z</time>
      </trkpt>
      <trkpt lat="47.02265" lon="8.98381">
        <ele>860</ele>
        <time>2021-08-02T10:17:29.655Z</time>
      </trkpt>
      <trkpt lat="47.02266" lon="8.98379">
        <ele>860</ele>
        <time>2021-08-02T10:17:30.656Z</time>
      </trkpt>
      <trkpt lat="47.02267" lon="8.98377">
        <ele>860</ele>
        <time>2021-08-02T10:17:31.656Z</time>
      </trkpt>
      <trkpt lat="47.02268" lon="8.98375">
        <ele>860</ele>
        <time>2021-08-02T10:17:32.656Z</time>
      </trkpt>
      <trkpt lat="47.02269" lon="8.98373">
        <ele>859</ele>
        <time>2021-08-02T10:17:33.655Z</time>
      </trkpt>
      <trkpt lat="47.0227" lon="8.98371">
        <ele>859</ele>
        <time>2021-08-02T10:17:34.656Z</time>
      </trkpt>
      <trkpt lat="47.02272" lon="8.98369">
        <ele>859</ele>
        <time>2021-08-02T10:17:35.655Z</time>
      </trkpt>
      <trkpt lat="47.02272" lon="8.98367">
        <ele>858</ele>
        <time>2021-08-02T10:17:36.656Z</time>
      </trkpt>
      <trkpt lat="47.02273" lon="8.98365">
        <ele>857</ele>
        <time>2021-08-02T10:17:37.656Z</time>
      </trkpt>
      <trkpt lat="47.02274" lon="8.98363">
        <ele>856</ele>
        <time>2021-08-02T10:17:38.656Z</time>
      </trkpt>
      <trkpt lat="47.02275" lon="8.98361">
        <ele>855</ele>
        <time>2021-08-02T10:17:39.655Z</time>
      </trkpt>
      <trkpt lat="47.02276" lon="8.98359">
        <ele>855</ele>
        <time>2021-08-02T10:17:40.656Z</time>
      </trkpt>
      <trkpt lat="47.02278" lon="8.98357">
        <ele>854</ele>
        <time>2021-08-02T10:17:41.656Z</time>
      </trkpt>
      <trkpt lat="47.02278" lon="8.98355">
        <ele>854</ele>
        <time>2021-08-02T10:17:42.656Z</time>
      </trkpt>
      <trkpt lat="47.02278" lon="8.98353">
        <ele>853</ele>
        <time>2021-08-02T10:17:43.655Z</time>
      </trkpt>
      <trkpt lat="47.02278" lon="8.98352">
        <ele>853</ele>
        <time>2021-08-02T10:17:44.655Z</time>
      </trkpt>
      <trkpt lat="47.02278" lon="8.9835">
        <ele>852</ele>
        <time>2021-08-02T10:17:45.656Z</time>
      </trkpt>
      <trkpt lat="47.02278" lon="8.98349">
        <ele>851</ele>
        <time>2021-08-02T10:17:46.655Z</time>
      </trkpt>
      <trkpt lat="47.02278" lon="8.98348">
        <ele>851</ele>
        <time>2021-08-02T10:17:47.656Z</time>
      </trkpt>
      <trkpt lat="47.02279" lon="8.98347">
        <ele>850</ele>
        <time>2021-08-02T10:17:48.656Z</time>
      </trkpt>
      <trkpt lat="47.02279" lon="8.98345">
        <ele>850</ele>
        <time>2021-08-02T10:17:49.655Z</time>
      </trkpt>
      <trkpt lat="47.02279" lon="8.98344">
        <ele>849</ele>
        <time>2021-08-02T10:17:50.655Z</time>
      </trkpt>
      <trkpt lat="47.02279" lon="8.98343">
        <ele>849</ele>
        <time>2021-08-02T10:17:51.655Z</time>
      </trkpt>
      <trkpt lat="47.02279" lon="8.98341">
        <ele>848</ele>
        <time>2021-08-02T10:17:52.655Z</time>
      </trkpt>
      <trkpt lat="47.02279" lon="8.9834">
        <ele>848</ele>
        <time>2021-08-02T10:17:53.656Z</time>
      </trkpt>
      <trkpt lat="47.02279" lon="8.98338">
        <ele>848</ele>
        <time>2021-08-02T10:17:54.656Z</time>
      </trkpt>
      <trkpt lat="47.0228" lon="8.98337">
        <ele>847</ele>
        <time>2021-08-02T10:17:55.656Z</time>
      </trkpt>
      <trkpt lat="47.0228" lon="8.98335">
        <ele>847</ele>
        <time>2021-08-02T10:17:56.656Z</time>
      </trkpt>
      <trkpt lat="47.0228" lon="8.98333">
        <ele>847</ele>
        <time>2021-08-02T10:17:57.656Z</time>
      </trkpt>
      <trkpt lat="47.0228" lon="8.98332">
        <ele>846</ele>
        <time>2021-08-02T10:17:58.656Z</time>
      </trkpt>
      <trkpt lat="47.02281" lon="8.9833">
        <ele>846</ele>
        <time>2021-08-02T10:17:59.656Z</time>
      </trkpt>
      <trkpt lat="47.02281" lon="8.98328">
        <ele>845</ele>
        <time>2021-08-02T10:18:00.656Z</time>
      </trkpt>
      <trkpt lat="47.02283" lon="8.98324">
        <ele>845</ele>
        <time>2021-08-02T10:18:01.655Z</time>
      </trkpt>
      <trkpt lat="47.02284" lon="8.98321">
        <ele>845</ele>
        <time>2021-08-02T10:18:02.655Z</time>
      </trkpt>
      <trkpt lat="47.02285" lon="8.98319">
        <ele>844</ele>
        <time>2021-08-02T10:18:03.656Z</time>
      </trkpt>
      <trkpt lat="47.02287" lon="8.98317">
        <ele>844</ele>
        <time>2021-08-02T10:18:04.656Z</time>
      </trkpt>
      <trkpt lat="47.02289" lon="8.98315">
        <ele>844</ele>
        <time>2021-08-02T10:18:05.656Z</time>
      </trkpt>
      <trkpt lat="47.0229" lon="8.98314">
        <ele>844</ele>
        <time>2021-08-02T10:18:06.656Z</time>
      </trkpt>
      <trkpt lat="47.02291" lon="8.98313">
        <ele>844</ele>
        <time>2021-08-02T10:18:07.655Z</time>
      </trkpt>
      <trkpt lat="47.02292" lon="8.98312">
        <ele>844</ele>
        <time>2021-08-02T10:18:08.656Z</time>
      </trkpt>
      <trkpt lat="47.02293" lon="8.98311">
        <ele>843</ele>
        <time>2021-08-02T10:18:09.655Z</time>
      </trkpt>
      <trkpt lat="47.02293" lon="8.9831">
        <ele>843</ele>
        <time>2021-08-02T10:18:10.656Z</time>
      </trkpt>
      <trkpt lat="47.02294" lon="8.9831">
        <ele>843</ele>
        <time>2021-08-02T10:18:11.656Z</time>
      </trkpt>
      <trkpt lat="47.02295" lon="8.98309">
        <ele>842</ele>
        <time>2021-08-02T10:18:12.656Z</time>
      </trkpt>
      <trkpt lat="47.02295" lon="8.98308">
        <ele>842</ele>
        <time>2021-08-02T10:18:13.656Z</time>
      </trkpt>
      <trkpt lat="47.02296" lon="8.98306">
        <ele>842</ele>
        <time>2021-08-02T10:18:14.655Z</time>
      </trkpt>
      <trkpt lat="47.02295" lon="8.98304">
        <ele>841</ele>
        <time>2021-08-02T10:18:15.656Z</time>
      </trkpt>
      <trkpt lat="47.02295" lon="8.98302">
        <ele>841</ele>
        <time>2021-08-02T10:18:16.656Z</time>
      </trkpt>
      <trkpt lat="47.02294" lon="8.98301">
        <ele>840</ele>
        <time>2021-08-02T10:18:17.656Z</time>
      </trkpt>
      <trkpt lat="47.02295" lon="8.983">
        <ele>839</ele>
        <time>2021-08-02T10:18:18.656Z</time>
      </trkpt>
      <trkpt lat="47.02295" lon="8.98299">
        <ele>838</ele>
        <time>2021-08-02T10:18:19.655Z</time>
      </trkpt>
      <trkpt lat="47.02296" lon="8.98298">
        <ele>838</ele>
        <time>2021-08-02T10:18:20.655Z</time>
      </trkpt>
      <trkpt lat="47.02297" lon="8.98296">
        <ele>838</ele>
        <time>2021-08-02T10:18:21.656Z</time>
      </trkpt>
      <trkpt lat="47.02298" lon="8.98294">
        <ele>838</ele>
        <time>2021-08-02T10:18:22.655Z</time>
      </trkpt>
      <trkpt lat="47.02298" lon="8.98293">
        <ele>838</ele>
        <time>2021-08-02T10:18:23.656Z</time>
      </trkpt>
      <trkpt lat="47.02299" lon="8.98292">
        <ele>838</ele>
        <time>2021-08-02T10:18:24.655Z</time>
      </trkpt>
      <trkpt lat="47.02299" lon="8.98291">
        <ele>838</ele>
        <time>2021-08-02T10:18:25.656Z</time>
      </trkpt>
      <trkpt lat="47.02299" lon="8.98291">
        <ele>838</ele>
        <time>2021-08-02T10:18:26.656Z</time>
      </trkpt>
      <trkpt lat="47.02299" lon="8.9829">
        <ele>838</ele>
        <time>2021-08-02T10:18:27.656Z</time>
      </trkpt>
      <trkpt lat="47.02299" lon="8.9829">
        <ele>838</ele>
        <time>2021-08-02T10:18:28.656Z</time>
      </trkpt>
      <trkpt lat="47.023" lon="8.98289">
        <ele>838</ele>
        <time>2021-08-02T10:18:29.655Z</time>
      </trkpt>
      <trkpt lat="47.023" lon="8.98288">
        <ele>838</ele>
        <time>2021-08-02T10:18:30.656Z</time>
      </trkpt>
      <trkpt lat="47.02301" lon="8.98287">
        <ele>839</ele>
        <time>2021-08-02T10:18:31.656Z</time>
      </trkpt>
      <trkpt lat="47.02302" lon="8.98287">
        <ele>839</ele>
        <time>2021-08-02T10:18:32.655Z</time>
      </trkpt>
      <trkpt lat="47.02302" lon="8.98286">
        <ele>839</ele>
        <time>2021-08-02T10:18:33.656Z</time>
      </trkpt>
      <trkpt lat="47.02303" lon="8.98286">
        <ele>840</ele>
        <time>2021-08-02T10:18:34.655Z</time>
      </trkpt>
      <trkpt lat="47.02304" lon="8.98286">
        <ele>840</ele>
        <time>2021-08-02T10:18:35.656Z</time>
      </trkpt>
      <trkpt lat="47.02305" lon="8.98286">
        <ele>840</ele>
        <time>2021-08-02T10:18:36.656Z</time>
      </trkpt>
      <trkpt lat="47.02306" lon="8.98285">
        <ele>840</ele>
        <time>2021-08-02T10:18:37.656Z</time>
      </trkpt>
      <trkpt lat="47.02306" lon="8.98284">
        <ele>841</ele>
        <time>2021-08-02T10:18:38.656Z</time>
      </trkpt>
      <trkpt lat="47.02307" lon="8.98283">
        <ele>841</ele>
        <time>2021-08-02T10:18:39.655Z</time>
      </trkpt>
      <trkpt lat="47.02308" lon="8.98282">
        <ele>841</ele>
        <time>2021-08-02T10:18:40.655Z</time>
      </trkpt>
      <trkpt lat="47.02309" lon="8.98281">
        <ele>842</ele>
        <time>2021-08-02T10:18:41.655Z</time>
      </trkpt>
      <trkpt lat="47.02309" lon="8.98279">
        <ele>842</ele>
        <time>2021-08-02T10:18:42.655Z</time>
      </trkpt>
      <trkpt lat="47.0231" lon="8.98277">
        <ele>843</ele>
        <time>2021-08-02T10:18:43.656Z</time>
      </trkpt>
      <trkpt lat="47.0231" lon="8.98276">
        <ele>843</ele>
        <time>2021-08-02T10:18:44.655Z</time>
      </trkpt>
      <trkpt lat="47.02309" lon="8.98275">
        <ele>844</ele>
        <time>2021-08-02T10:18:45.656Z</time>
      </trkpt>
      <trkpt lat="47.0231" lon="8.98273">
        <ele>844</ele>
        <time>2021-08-02T10:18:46.656Z</time>
      </trkpt>
      <trkpt lat="47.0231" lon="8.98272">
        <ele>844</ele>
        <time>2021-08-02T10:18:47.656Z</time>
      </trkpt>
      <trkpt lat="47.02311" lon="8.9827">
        <ele>844</ele>
        <time>2021-08-02T10:18:48.655Z</time>
      </trkpt>
      <trkpt lat="47.02311" lon="8.98268">
        <ele>844</ele>
        <time>2021-08-02T10:18:49.656Z</time>
      </trkpt>
      <trkpt lat="47.02311" lon="8.98266">
        <ele>844</ele>
        <time>2021-08-02T10:18:50.656Z</time>
      </trkpt>
      <trkpt lat="47.02312" lon="8.98265">
        <ele>845</ele>
        <time>2021-08-02T10:18:51.656Z</time>
      </trkpt>
      <trkpt lat="47.02312" lon="8.98263">
        <ele>845</ele>
        <time>2021-08-02T10:18:52.656Z</time>
      </trkpt>
      <trkpt lat="47.02312" lon="8.98261">
        <ele>846</ele>
        <time>2021-08-02T10:18:53.656Z</time>
      </trkpt>
      <trkpt lat="47.02313" lon="8.98259">
        <ele>847</ele>
        <time>2021-08-02T10:18:54.655Z</time>
      </trkpt>
      <trkpt lat="47.02313" lon="8.98257">
        <ele>847</ele>
        <time>2021-08-02T10:18:55.656Z</time>
      </trkpt>
      <trkpt lat="47.02314" lon="8.98255">
        <ele>848</ele>
        <time>2021-08-02T10:18:56.656Z</time>
      </trkpt>
      <trkpt lat="47.02315" lon="8.98253">
        <ele>848</ele>
        <time>2021-08-02T10:18:57.656Z</time>
      </trkpt>
      <trkpt lat="47.02316" lon="8.9825">
        <ele>849</ele>
        <time>2021-08-02T10:18:58.656Z</time>
      </trkpt>
      <trkpt lat="47.02316" lon="8.98247">
        <ele>849</ele>
        <time>2021-08-02T10:18:59.655Z</time>
      </trkpt>
      <trkpt lat="47.02316" lon="8.98245">
        <ele>849</ele>
        <time>2021-08-02T10:19:00.656Z</time>
      </trkpt>
      <trkpt lat="47.02315" lon="8.98244">
        <ele>848</ele>
        <time>2021-08-02T10:19:01.656Z</time>
      </trkpt>
      <trkpt lat="47.02316" lon="8.98243">
        <ele>848</ele>
        <time>2021-08-02T10:19:02.655Z</time>
      </trkpt>
      <trkpt lat="47.02316" lon="8.98241">
        <ele>848</ele>
        <time>2021-08-02T10:19:03.655Z</time>
      </trkpt>
      <trkpt lat="47.02316" lon="8.9824">
        <ele>848</ele>
        <time>2021-08-02T10:19:04.656Z</time>
      </trkpt>
      <trkpt lat="47.02315" lon="8.98238">
        <ele>848</ele>
        <time>2021-08-02T10:19:05.656Z</time>
      </trkpt>
      <trkpt lat="47.02316" lon="8.98237">
        <ele>849</ele>
        <time>2021-08-02T10:19:06.655Z</time>
      </trkpt>
      <trkpt lat="47.02315" lon="8.98234">
        <ele>849</ele>
        <time>2021-08-02T10:19:07.655Z</time>
      </trkpt>
      <trkpt lat="47.02314" lon="8.98232">
        <ele>850</ele>
        <time>2021-08-02T10:19:08.656Z</time>
      </trkpt>
      <trkpt lat="47.02312" lon="8.9823">
        <ele>850</ele>
        <time>2021-08-02T10:19:09.655Z</time>
      </trkpt>
      <trkpt lat="47.0231" lon="8.98228">
        <ele>850</ele>
        <time>2021-08-02T10:19:10.656Z</time>
      </trkpt>
      <trkpt lat="47.02309" lon="8.98227">
        <ele>850</ele>
        <time>2021-08-02T10:19:11.655Z</time>
      </trkpt>
      <trkpt lat="47.02308" lon="8.98227">
        <ele>850</ele>
        <time>2021-08-02T10:19:12.656Z</time>
      </trkpt>
      <trkpt lat="47.02308" lon="8.98226">
        <ele>850</ele>
        <time>2021-08-02T10:19:13.656Z</time>
      </trkpt>
      <trkpt lat="47.02307" lon="8.98225">
        <ele>850</ele>
        <time>2021-08-02T10:19:14.656Z</time>
      </trkpt>
      <trkpt lat="47.02306" lon="8.98224">
        <ele>849</ele>
        <time>2021-08-02T10:19:15.656Z</time>
      </trkpt>
      <trkpt lat="47.02305" lon="8.98222">
        <ele>849</ele>
        <time>2021-08-02T10:19:16.655Z</time>
      </trkpt>
      <trkpt lat="47.02304" lon="8.98221">
        <ele>848</ele>
        <time>2021-08-02T10:19:17.656Z</time>
      </trkpt>
      <trkpt lat="47.02304" lon="8.9822">
        <ele>848</ele>
        <time>2021-08-02T10:19:18.656Z</time>
      </trkpt>
      <trkpt lat="47.02303" lon="8.98219">
        <ele>847</ele>
        <time>2021-08-02T10:19:19.656Z</time>
      </trkpt>
      <trkpt lat="47.02302" lon="8.98218">
        <ele>846</ele>
        <time>2021-08-02T10:19:20.656Z</time>
      </trkpt>
      <trkpt lat="47.02301" lon="8.98217">
        <ele>846</ele>
        <time>2021-08-02T10:19:21.656Z</time>
      </trkpt>
      <trkpt lat="47.023" lon="8.98215">
        <ele>846</ele>
        <time>2021-08-02T10:19:22.655Z</time>
      </trkpt>
      <trkpt lat="47.02299" lon="8.98214">
        <ele>846</ele>
        <time>2021-08-02T10:19:23.656Z</time>
      </trkpt>
      <trkpt lat="47.02297" lon="8.98213">
        <ele>846</ele>
        <time>2021-08-02T10:19:24.656Z</time>
      </trkpt>
      <trkpt lat="47.02297" lon="8.98211">
        <ele>846</ele>
        <time>2021-08-02T10:19:25.656Z</time>
      </trkpt>
      <trkpt lat="47.02296" lon="8.98209">
        <ele>846</ele>
        <time>2021-08-02T10:19:26.656Z</time>
      </trkpt>
      <trkpt lat="47.02295" lon="8.98208">
        <ele>847</ele>
        <time>2021-08-02T10:19:27.656Z</time>
      </trkpt>
      <trkpt lat="47.02295" lon="8.98208">
        <ele>847</ele>
        <time>2021-08-02T10:19:28.656Z</time>
      </trkpt>
      <trkpt lat="47.02295" lon="8.98207">
        <ele>847</ele>
        <time>2021-08-02T10:19:29.655Z</time>
      </trkpt>
      <trkpt lat="47.02295" lon="8.98206">
        <ele>847</ele>
        <time>2021-08-02T10:19:30.656Z</time>
      </trkpt>
      <trkpt lat="47.02295" lon="8.98204">
        <ele>847</ele>
        <time>2021-08-02T10:19:31.655Z</time>
      </trkpt>
      <trkpt lat="47.02295" lon="8.98202">
        <ele>847</ele>
        <time>2021-08-02T10:19:32.656Z</time>
      </trkpt>
      <trkpt lat="47.02295" lon="8.98201">
        <ele>848</ele>
        <time>2021-08-02T10:19:33.656Z</time>
      </trkpt>
      <trkpt lat="47.02295" lon="8.98199">
        <ele>848</ele>
        <time>2021-08-02T10:19:34.656Z</time>
      </trkpt>
      <trkpt lat="47.02295" lon="8.98198">
        <ele>848</ele>
        <time>2021-08-02T10:19:35.656Z</time>
      </trkpt>
      <trkpt lat="47.02294" lon="8.98196">
        <ele>848</ele>
        <time>2021-08-02T10:19:36.656Z</time>
      </trkpt>
      <trkpt lat="47.02294" lon="8.98195">
        <ele>849</ele>
        <time>2021-08-02T10:19:37.656Z</time>
      </trkpt>
      <trkpt lat="47.02293" lon="8.98194">
        <ele>850</ele>
        <time>2021-08-02T10:19:38.655Z</time>
      </trkpt>
      <trkpt lat="47.02293" lon="8.98193">
        <ele>850</ele>
        <time>2021-08-02T10:19:39.655Z</time>
      </trkpt>
      <trkpt lat="47.02293" lon="8.98193">
        <ele>850</ele>
        <time>2021-08-02T10:19:40.655Z</time>
      </trkpt>
      <trkpt lat="47.02292" lon="8.98192">
        <ele>851</ele>
        <time>2021-08-02T10:19:41.655Z</time>
      </trkpt>
      <trkpt lat="47.02292" lon="8.98191">
        <ele>851</ele>
        <time>2021-08-02T10:19:42.656Z</time>
      </trkpt>
      <trkpt lat="47.02292" lon="8.9819">
        <ele>851</ele>
        <time>2021-08-02T10:19:43.656Z</time>
      </trkpt>
      <trkpt lat="47.02292" lon="8.98189">
        <ele>852</ele>
        <time>2021-08-02T10:19:44.656Z</time>
      </trkpt>
      <trkpt lat="47.02292" lon="8.98187">
        <ele>852</ele>
        <time>2021-08-02T10:19:45.655Z</time>
      </trkpt>
      <trkpt lat="47.02292" lon="8.98186">
        <ele>852</ele>
        <time>2021-08-02T10:19:46.656Z</time>
      </trkpt>
      <trkpt lat="47.02293" lon="8.98184">
        <ele>852</ele>
        <time>2021-08-02T10:19:47.655Z</time>
      </trkpt>
      <trkpt lat="47.02292" lon="8.98183">
        <ele>852</ele>
        <time>2021-08-02T10:19:48.655Z</time>
      </trkpt>
      <trkpt lat="47.02292" lon="8.98181">
        <ele>852</ele>
        <time>2021-08-02T10:19:49.655Z</time>
      </trkpt>
      <trkpt lat="47.02291" lon="8.98179">
        <ele>852</ele>
        <time>2021-08-02T10:19:50.656Z</time>
      </trkpt>
      <trkpt lat="47.02291" lon="8.98177">
        <ele>851</ele>
        <time>2021-08-02T10:19:51.655Z</time>
      </trkpt>
      <trkpt lat="47.02292" lon="8.98176">
        <ele>851</ele>
        <time>2021-08-02T10:19:52.656Z</time>
      </trkpt>
      <trkpt lat="47.02292" lon="8.98174">
        <ele>851</ele>
        <time>2021-08-02T10:19:53.656Z</time>
      </trkpt>
      <trkpt lat="47.02292" lon="8.98173">
        <ele>850</ele>
        <time>2021-08-02T10:19:54.655Z</time>
      </trkpt>
      <trkpt lat="47.02292" lon="8.98172">
        <ele>851</ele>
        <time>2021-08-02T10:19:55.656Z</time>
      </trkpt>
      <trkpt lat="47.02291" lon="8.9817">
        <ele>851</ele>
        <time>2021-08-02T10:19:56.656Z</time>
      </trkpt>
      <trkpt lat="47.02291" lon="8.98169">
        <ele>851</ele>
        <time>2021-08-02T10:19:57.656Z</time>
      </trkpt>
      <trkpt lat="47.02291" lon="8.98168">
        <ele>852</ele>
        <time>2021-08-02T10:19:58.655Z</time>
      </trkpt>
      <trkpt lat="47.02291" lon="8.98167">
        <ele>852</ele>
        <time>2021-08-02T10:19:59.656Z</time>
      </trkpt>
      <trkpt lat="47.02291" lon="8.98165">
        <ele>853</ele>
        <time>2021-08-02T10:20:00.656Z</time>
      </trkpt>
      <trkpt lat="47.02291" lon="8.98163">
        <ele>853</ele>
        <time>2021-08-02T10:20:01.656Z</time>
      </trkpt>
      <trkpt lat="47.02291" lon="8.98161">
        <ele>853</ele>
        <time>2021-08-02T10:20:02.656Z</time>
      </trkpt>
      <trkpt lat="47.02292" lon="8.98159">
        <ele>853</ele>
        <time>2021-08-02T10:20:03.656Z</time>
      </trkpt>
      <trkpt lat="47.02292" lon="8.98158">
        <ele>854</ele>
        <time>2021-08-02T10:20:04.655Z</time>
      </trkpt>
      <trkpt lat="47.02292" lon="8.98157">
        <ele>854</ele>
        <time>2021-08-02T10:20:05.655Z</time>
      </trkpt>
      <trkpt lat="47.02291" lon="8.98155">
        <ele>855</ele>
        <time>2021-08-02T10:20:06.656Z</time>
      </trkpt>
      <trkpt lat="47.02291" lon="8.98154">
        <ele>855</ele>
        <time>2021-08-02T10:20:07.656Z</time>
      </trkpt>
      <trkpt lat="47.02291" lon="8.98153">
        <ele>856</ele>
        <time>2021-08-02T10:20:08.656Z</time>
      </trkpt>
      <trkpt lat="47.02291" lon="8.98151">
        <ele>856</ele>
        <time>2021-08-02T10:20:09.656Z</time>
      </trkpt>
      <trkpt lat="47.02291" lon="8.9815">
        <ele>857</ele>
        <time>2021-08-02T10:20:10.656Z</time>
      </trkpt>
      <trkpt lat="47.02291" lon="8.98149">
        <ele>856</ele>
        <time>2021-08-02T10:20:11.655Z</time>
      </trkpt>
      <trkpt lat="47.0229" lon="8.98148">
        <ele>856</ele>
        <time>2021-08-02T10:20:12.656Z</time>
      </trkpt>
      <trkpt lat="47.02291" lon="8.98146">
        <ele>856</ele>
        <time>2021-08-02T10:20:13.655Z</time>
      </trkpt>
      <trkpt lat="47.0229" lon="8.98145">
        <ele>856</ele>
        <time>2021-08-02T10:20:14.656Z</time>
      </trkpt>
      <trkpt lat="47.0229" lon="8.98144">
        <ele>857</ele>
        <time>2021-08-02T10:20:15.656Z</time>
      </trkpt>
      <trkpt lat="47.0229" lon="8.98142">
        <ele>857</ele>
        <time>2021-08-02T10:20:16.655Z</time>
      </trkpt>
      <trkpt lat="47.0229" lon="8.98141">
        <ele>857</ele>
        <time>2021-08-02T10:20:17.656Z</time>
      </trkpt>
      <trkpt lat="47.02291" lon="8.98139">
        <ele>857</ele>
        <time>2021-08-02T10:20:18.655Z</time>
      </trkpt>
      <trkpt lat="47.02291" lon="8.98137">
        <ele>857</ele>
        <time>2021-08-02T10:20:19.655Z</time>
      </trkpt>
      <trkpt lat="47.0229" lon="8.98136">
        <ele>857</ele>
        <time>2021-08-02T10:20:20.656Z</time>
      </trkpt>
      <trkpt lat="47.0229" lon="8.98135">
        <ele>857</ele>
        <time>2021-08-02T10:20:21.656Z</time>
      </trkpt>
      <trkpt lat="47.0229" lon="8.98133">
        <ele>857</ele>
        <time>2021-08-02T10:20:22.655Z</time>
      </trkpt>
      <trkpt lat="47.02291" lon="8.98132">
        <ele>857</ele>
        <time>2021-08-02T10:20:23.655Z</time>
      </trkpt>
      <trkpt lat="47.02292" lon="8.9813">
        <ele>857</ele>
        <time>2021-08-02T10:20:24.656Z</time>
      </trkpt>
      <trkpt lat="47.02291" lon="8.98129">
        <ele>857</ele>
        <time>2021-08-02T10:20:25.655Z</time>
      </trkpt>
      <trkpt lat="47.02291" lon="8.98128">
        <ele>857</ele>
        <time>2021-08-02T10:20:26.655Z</time>
      </trkpt>
      <trkpt lat="47.0229" lon="8.98126">
        <ele>856</ele>
        <time>2021-08-02T10:20:27.656Z</time>
      </trkpt>
      <trkpt lat="47.02289" lon="8.98125">
        <ele>856</ele>
        <time>2021-08-02T10:20:28.655Z</time>
      </trkpt>
      <trkpt lat="47.02287" lon="8.98125">
        <ele>855</ele>
        <time>2021-08-02T10:20:29.655Z</time>
      </trkpt>
      <trkpt lat="47.02286" lon="8.98123">
        <ele>855</ele>
        <time>2021-08-02T10:20:30.655Z</time>
      </trkpt>
      <trkpt lat="47.02286" lon="8.98122">
        <ele>855</ele>
        <time>2021-08-02T10:20:31.656Z</time>
      </trkpt>
      <trkpt lat="47.02285" lon="8.9812">
        <ele>855</ele>
        <time>2021-08-02T10:20:32.656Z</time>
      </trkpt>
      <trkpt lat="47.02285" lon="8.98119">
        <ele>855</ele>
        <time>2021-08-02T10:20:33.656Z</time>
      </trkpt>
      <trkpt lat="47.02285" lon="8.98117">
        <ele>856</ele>
        <time>2021-08-02T10:20:34.656Z</time>
      </trkpt>
      <trkpt lat="47.02284" lon="8.98116">
        <ele>856</ele>
        <time>2021-08-02T10:20:35.655Z</time>
      </trkpt>
      <trkpt lat="47.02284" lon="8.98116">
        <ele>857</ele>
        <time>2021-08-02T10:20:36.656Z</time>
      </trkpt>
      <trkpt lat="47.02283" lon="8.98115">
        <ele>858</ele>
        <time>2021-08-02T10:20:37.655Z</time>
      </trkpt>
      <trkpt lat="47.02283" lon="8.98114">
        <ele>858</ele>
        <time>2021-08-02T10:20:38.655Z</time>
      </trkpt>
      <trkpt lat="47.02283" lon="8.98113">
        <ele>858</ele>
        <time>2021-08-02T10:20:39.655Z</time>
      </trkpt>
      <trkpt lat="47.02282" lon="8.98112">
        <ele>858</ele>
        <time>2021-08-02T10:20:40.655Z</time>
      </trkpt>
      <trkpt lat="47.02281" lon="8.98111">
        <ele>857</ele>
        <time>2021-08-02T10:20:41.656Z</time>
      </trkpt>
      <trkpt lat="47.0228" lon="8.9811">
        <ele>857</ele>
        <time>2021-08-02T10:20:42.655Z</time>
      </trkpt>
      <trkpt lat="47.02279" lon="8.98109">
        <ele>857</ele>
        <time>2021-08-02T10:20:43.655Z</time>
      </trkpt>
      <trkpt lat="47.02278" lon="8.98108">
        <ele>857</ele>
        <time>2021-08-02T10:20:44.656Z</time>
      </trkpt>
      <trkpt lat="47.02278" lon="8.98107">
        <ele>857</ele>
        <time>2021-08-02T10:20:45.655Z</time>
      </trkpt>
      <trkpt lat="47.02278" lon="8.98104">
        <ele>857</ele>
        <time>2021-08-02T10:20:46.656Z</time>
      </trkpt>
      <trkpt lat="47.02278" lon="8.98103">
        <ele>857</ele>
        <time>2021-08-02T10:20:47.656Z</time>
      </trkpt>
      <trkpt lat="47.02278" lon="8.98102">
        <ele>857</ele>
        <time>2021-08-02T10:20:48.655Z</time>
      </trkpt>
      <trkpt lat="47.02278" lon="8.981">
        <ele>857</ele>
        <time>2021-08-02T10:20:49.656Z</time>
      </trkpt>
      <trkpt lat="47.02279" lon="8.98098">
        <ele>857</ele>
        <time>2021-08-02T10:20:50.655Z</time>
      </trkpt>
      <trkpt lat="47.02279" lon="8.98095">
        <ele>857</ele>
        <time>2021-08-02T10:20:51.655Z</time>
      </trkpt>
      <trkpt lat="47.02278" lon="8.98093">
        <ele>857</ele>
        <time>2021-08-02T10:20:52.655Z</time>
      </trkpt>
      <trkpt lat="47.02277" lon="8.98091">
        <ele>857</ele>
        <time>2021-08-02T10:20:53.656Z</time>
      </trkpt>
      <trkpt lat="47.02277" lon="8.9809">
        <ele>857</ele>
        <time>2021-08-02T10:20:54.656Z</time>
      </trkpt>
      <trkpt lat="47.02276" lon="8.98089">
        <ele>858</ele>
        <time>2021-08-02T10:20:55.656Z</time>
      </trkpt>
      <trkpt lat="47.02276" lon="8.98088">
        <ele>858</ele>
        <time>2021-08-02T10:20:56.655Z</time>
      </trkpt>
      <trkpt lat="47.02276" lon="8.98087">
        <ele>858</ele>
        <time>2021-08-02T10:20:57.656Z</time>
      </trkpt>
      <trkpt lat="47.02275" lon="8.98086">
        <ele>858</ele>
        <time>2021-08-02T10:20:58.656Z</time>
      </trkpt>
      <trkpt lat="47.02275" lon="8.98085">
        <ele>859</ele>
        <time>2021-08-02T10:20:59.656Z</time>
      </trkpt>
      <trkpt lat="47.02275" lon="8.98084">
        <ele>858</ele>
        <time>2021-08-02T10:21:00.655Z</time>
      </trkpt>
      <trkpt lat="47.02275" lon="8.98082">
        <ele>858</ele>
        <time>2021-08-02T10:21:01.656Z</time>
      </trkpt>
      <trkpt lat="47.02275" lon="8.9808">
        <ele>857</ele>
        <time>2021-08-02T10:21:02.656Z</time>
      </trkpt>
      <trkpt lat="47.02274" lon="8.98078">
        <ele>856</ele>
        <time>2021-08-02T10:21:03.655Z</time>
      </trkpt>
      <trkpt lat="47.02273" lon="8.98077">
        <ele>856</ele>
        <time>2021-08-02T10:21:04.655Z</time>
      </trkpt>
      <trkpt lat="47.02271" lon="8.98075">
        <ele>856</ele>
        <time>2021-08-02T10:21:05.655Z</time>
      </trkpt>
      <trkpt lat="47.0227" lon="8.98074">
        <ele>856</ele>
        <time>2021-08-02T10:21:06.656Z</time>
      </trkpt>
      <trkpt lat="47.02269" lon="8.98073">
        <ele>856</ele>
        <time>2021-08-02T10:21:07.655Z</time>
      </trkpt>
      <trkpt lat="47.02268" lon="8.98071">
        <ele>856</ele>
        <time>2021-08-02T10:21:08.656Z</time>
      </trkpt>
      <trkpt lat="47.02267" lon="8.9807">
        <ele>856</ele>
        <time>2021-08-02T10:21:09.656Z</time>
      </trkpt>
      <trkpt lat="47.02267" lon="8.98069">
        <ele>856</ele>
        <time>2021-08-02T10:21:10.656Z</time>
      </trkpt>
      <trkpt lat="47.02266" lon="8.98068">
        <ele>856</ele>
        <time>2021-08-02T10:21:11.656Z</time>
      </trkpt>
      <trkpt lat="47.02266" lon="8.98066">
        <ele>856</ele>
        <time>2021-08-02T10:21:12.656Z</time>
      </trkpt>
      <trkpt lat="47.02266" lon="8.98065">
        <ele>856</ele>
        <time>2021-08-02T10:21:13.656Z</time>
      </trkpt>
      <trkpt lat="47.02265" lon="8.98063">
        <ele>855</ele>
        <time>2021-08-02T10:21:14.656Z</time>
      </trkpt>
      <trkpt lat="47.02264" lon="8.98062">
        <ele>855</ele>
        <time>2021-08-02T10:21:15.655Z</time>
      </trkpt>
      <trkpt lat="47.02263" lon="8.9806">
        <ele>855</ele>
        <time>2021-08-02T10:21:16.656Z</time>
      </trkpt>
      <trkpt lat="47.02262" lon="8.98059">
        <ele>855</ele>
        <time>2021-08-02T10:21:17.656Z</time>
      </trkpt>
      <trkpt lat="47.0226" lon="8.98057">
        <ele>854</ele>
        <time>2021-08-02T10:21:18.655Z</time>
      </trkpt>
      <trkpt lat="47.02259" lon="8.98056">
        <ele>854</ele>
        <time>2021-08-02T10:21:19.655Z</time>
      </trkpt>
      <trkpt lat="47.02258" lon="8.98056">
        <ele>854</ele>
        <time>2021-08-02T10:21:20.656Z</time>
      </trkpt>
      <trkpt lat="47.02257" lon="8.98055">
        <ele>854</ele>
        <time>2021-08-02T10:21:21.656Z</time>
      </trkpt>
      <trkpt lat="47.02257" lon="8.98054">
        <ele>854</ele>
        <time>2021-08-02T10:21:22.656Z</time>
      </trkpt>
      <trkpt lat="47.02257" lon="8.98053">
        <ele>854</ele>
        <time>2021-08-02T10:21:23.655Z</time>
      </trkpt>
      <trkpt lat="47.02256" lon="8.98052">
        <ele>854</ele>
        <time>2021-08-02T10:21:24.655Z</time>
      </trkpt>
      <trkpt lat="47.02255" lon="8.9805">
        <ele>854</ele>
        <time>2021-08-02T10:21:25.655Z</time>
      </trkpt>
      <trkpt lat="47.02255" lon="8.98049">
        <ele>855</ele>
        <time>2021-08-02T10:21:26.655Z</time>
      </trkpt>
      <trkpt lat="47.02255" lon="8.98047">
        <ele>855</ele>
        <time>2021-08-02T10:21:27.655Z</time>
      </trkpt>
      <trkpt lat="47.02254" lon="8.98045">
        <ele>855</ele>
        <time>2021-08-02T10:21:28.655Z</time>
      </trkpt>
      <trkpt lat="47.02254" lon="8.98042">
        <ele>855</ele>
        <time>2021-08-02T10:21:29.655Z</time>
      </trkpt>
      <trkpt lat="47.02254" lon="8.9804">
        <ele>855</ele>
        <time>2021-08-02T10:21:30.655Z</time>
      </trkpt>
      <trkpt lat="47.02253" lon="8.98039">
        <ele>855</ele>
        <time>2021-08-02T10:21:31.656Z</time>
      </trkpt>
      <trkpt lat="47.02253" lon="8.98038">
        <ele>855</ele>
        <time>2021-08-02T10:21:32.655Z</time>
      </trkpt>
      <trkpt lat="47.02253" lon="8.98036">
        <ele>855</ele>
        <time>2021-08-02T10:21:33.655Z</time>
      </trkpt>
      <trkpt lat="47.02252" lon="8.98035">
        <ele>855</ele>
        <time>2021-08-02T10:21:34.655Z</time>
      </trkpt>
      <trkpt lat="47.02252" lon="8.98034">
        <ele>855</ele>
        <time>2021-08-02T10:21:35.655Z</time>
      </trkpt>
      <trkpt lat="47.02251" lon="8.98032">
        <ele>855</ele>
        <time>2021-08-02T10:21:36.656Z</time>
      </trkpt>
      <trkpt lat="47.02251" lon="8.98031">
        <ele>855</ele>
        <time>2021-08-02T10:21:37.656Z</time>
      </trkpt>
      <trkpt lat="47.0225" lon="8.98031">
        <ele>855</ele>
        <time>2021-08-02T10:21:38.656Z</time>
      </trkpt>
      <trkpt lat="47.02251" lon="8.9803">
        <ele>855</ele>
        <time>2021-08-02T10:21:39.656Z</time>
      </trkpt>
      <trkpt lat="47.0225" lon="8.98028">
        <ele>855</ele>
        <time>2021-08-02T10:21:40.656Z</time>
      </trkpt>
      <trkpt lat="47.02249" lon="8.98026">
        <ele>855</ele>
        <time>2021-08-02T10:21:41.655Z</time>
      </trkpt>
      <trkpt lat="47.02249" lon="8.98025">
        <ele>855</ele>
        <time>2021-08-02T10:21:42.656Z</time>
      </trkpt>
      <trkpt lat="47.02248" lon="8.98024">
        <ele>854</ele>
        <time>2021-08-02T10:21:43.655Z</time>
      </trkpt>
      <trkpt lat="47.02248" lon="8.98024">
        <ele>854</ele>
        <time>2021-08-02T10:21:44.656Z</time>
      </trkpt>
      <trkpt lat="47.02247" lon="8.98023">
        <ele>854</ele>
        <time>2021-08-02T10:21:45.655Z</time>
      </trkpt>
      <trkpt lat="47.02247" lon="8.98022">
        <ele>854</ele>
        <time>2021-08-02T10:21:46.656Z</time>
      </trkpt>
      <trkpt lat="47.02246" lon="8.98021">
        <ele>854</ele>
        <time>2021-08-02T10:21:47.656Z</time>
      </trkpt>
      <trkpt lat="47.02247" lon="8.9802">
        <ele>854</ele>
        <time>2021-08-02T10:21:48.655Z</time>
      </trkpt>
      <trkpt lat="47.02246" lon="8.98018">
        <ele>854</ele>
        <time>2021-08-02T10:21:49.656Z</time>
      </trkpt>
      <trkpt lat="47.02246" lon="8.98016">
        <ele>854</ele>
        <time>2021-08-02T10:21:50.655Z</time>
      </trkpt>
      <trkpt lat="47.02246" lon="8.98015">
        <ele>854</ele>
        <time>2021-08-02T10:21:51.655Z</time>
      </trkpt>
      <trkpt lat="47.02246" lon="8.98013">
        <ele>854</ele>
        <time>2021-08-02T10:21:52.655Z</time>
      </trkpt>
      <trkpt lat="47.02245" lon="8.98011">
        <ele>855</ele>
        <time>2021-08-02T10:21:56.694Z</time>
      </trkpt>
      <trkpt lat="47.02244" lon="8.9801">
        <ele>855</ele>
        <time>2021-08-02T10:21:57.694Z</time>
      </trkpt>
      <trkpt lat="47.02244" lon="8.98009">
        <ele>856</ele>
        <time>2021-08-02T10:21:58.693Z</time>
      </trkpt>
      <trkpt lat="47.02243" lon="8.98008">
        <ele>856</ele>
        <time>2021-08-02T10:21:59.694Z</time>
      </trkpt>
      <trkpt lat="47.02242" lon="8.98006">
        <ele>856</ele>
        <time>2021-08-02T10:22:00.694Z</time>
      </trkpt>
      <trkpt lat="47.02242" lon="8.98005">
        <ele>857</ele>
        <time>2021-08-02T10:22:01.694Z</time>
      </trkpt>
      <trkpt lat="47.02241" lon="8.98004">
        <ele>857</ele>
        <time>2021-08-02T10:22:02.694Z</time>
      </trkpt>
      <trkpt lat="47.0224" lon="8.98004">
        <ele>857</ele>
        <time>2021-08-02T10:22:03.693Z</time>
      </trkpt>
      <trkpt lat="47.0224" lon="8.98003">
        <ele>857</ele>
        <time>2021-08-02T10:22:04.693Z</time>
      </trkpt>
      <trkpt lat="47.02239" lon="8.98002">
        <ele>857</ele>
        <time>2021-08-02T10:22:05.693Z</time>
      </trkpt>
      <trkpt lat="47.02239" lon="8.98001">
        <ele>857</ele>
        <time>2021-08-02T10:22:06.694Z</time>
      </trkpt>
      <trkpt lat="47.02239" lon="8.98">
        <ele>856</ele>
        <time>2021-08-02T10:22:07.694Z</time>
      </trkpt>
      <trkpt lat="47.02239" lon="8.97999">
        <ele>856</ele>
        <time>2021-08-02T10:22:08.694Z</time>
      </trkpt>
      <trkpt lat="47.02238" lon="8.97998">
        <ele>856</ele>
        <time>2021-08-02T10:22:09.694Z</time>
      </trkpt>
      <trkpt lat="47.02237" lon="8.97997">
        <ele>856</ele>
        <time>2021-08-02T10:22:10.694Z</time>
      </trkpt>
      <trkpt lat="47.02236" lon="8.97996">
        <ele>857</ele>
        <time>2021-08-02T10:22:11.694Z</time>
      </trkpt>
      <trkpt lat="47.02235" lon="8.97995">
        <ele>857</ele>
        <time>2021-08-02T10:22:12.693Z</time>
      </trkpt>
      <trkpt lat="47.02234" lon="8.97994">
        <ele>857</ele>
        <time>2021-08-02T10:22:13.693Z</time>
      </trkpt>
      <trkpt lat="47.02234" lon="8.97992">
        <ele>857</ele>
        <time>2021-08-02T10:22:14.694Z</time>
      </trkpt>
      <trkpt lat="47.02233" lon="8.97991">
        <ele>857</ele>
        <time>2021-08-02T10:22:15.693Z</time>
      </trkpt>
      <trkpt lat="47.02233" lon="8.97989">
        <ele>857</ele>
        <time>2021-08-02T10:22:16.693Z</time>
      </trkpt>
      <trkpt lat="47.02233" lon="8.97988">
        <ele>857</ele>
        <time>2021-08-02T10:22:17.694Z</time>
      </trkpt>
      <trkpt lat="47.02233" lon="8.97986">
        <ele>858</ele>
        <time>2021-08-02T10:22:18.693Z</time>
      </trkpt>
      <trkpt lat="47.02233" lon="8.97985">
        <ele>858</ele>
        <time>2021-08-02T10:22:19.693Z</time>
      </trkpt>
      <trkpt lat="47.02232" lon="8.97984">
        <ele>859</ele>
        <time>2021-08-02T10:22:20.693Z</time>
      </trkpt>
      <trkpt lat="47.02232" lon="8.97983">
        <ele>859</ele>
        <time>2021-08-02T10:22:21.694Z</time>
      </trkpt>
      <trkpt lat="47.02232" lon="8.97982">
        <ele>860</ele>
        <time>2021-08-02T10:22:22.694Z</time>
      </trkpt>
      <trkpt lat="47.02232" lon="8.9798">
        <ele>860</ele>
        <time>2021-08-02T10:22:23.694Z</time>
      </trkpt>
      <trkpt lat="47.02231" lon="8.97977">
        <ele>861</ele>
        <time>2021-08-02T10:22:24.694Z</time>
      </trkpt>
      <trkpt lat="47.02231" lon="8.97974">
        <ele>861</ele>
        <time>2021-08-02T10:22:25.694Z</time>
      </trkpt>
      <trkpt lat="47.02231" lon="8.97973">
        <ele>862</ele>
        <time>2021-08-02T10:22:26.694Z</time>
      </trkpt>
      <trkpt lat="47.02231" lon="8.97971">
        <ele>862</ele>
        <time>2021-08-02T10:22:27.693Z</time>
      </trkpt>
      <trkpt lat="47.0223" lon="8.97969">
        <ele>863</ele>
        <time>2021-08-02T10:22:28.693Z</time>
      </trkpt>
      <trkpt lat="47.02229" lon="8.97967">
        <ele>863</ele>
        <time>2021-08-02T10:22:29.694Z</time>
      </trkpt>
      <trkpt lat="47.0223" lon="8.97965">
        <ele>863</ele>
        <time>2021-08-02T10:22:30.694Z</time>
      </trkpt>
      <trkpt lat="47.0223" lon="8.97963">
        <ele>863</ele>
        <time>2021-08-02T10:22:31.693Z</time>
      </trkpt>
      <trkpt lat="47.0223" lon="8.97963">
        <ele>863</ele>
        <time>2021-08-02T10:22:32.693Z</time>
      </trkpt>
      <trkpt lat="47.02229" lon="8.97962">
        <ele>863</ele>
        <time>2021-08-02T10:22:33.693Z</time>
      </trkpt>
      <trkpt lat="47.02229" lon="8.97961">
        <ele>863</ele>
        <time>2021-08-02T10:22:34.693Z</time>
      </trkpt>
      <trkpt lat="47.02229" lon="8.97961">
        <ele>863</ele>
        <time>2021-08-02T10:22:35.694Z</time>
      </trkpt>
      <trkpt lat="47.0223" lon="8.97959">
        <ele>863</ele>
        <time>2021-08-02T10:22:36.694Z</time>
      </trkpt>
      <trkpt lat="47.0223" lon="8.97957">
        <ele>863</ele>
        <time>2021-08-02T10:22:37.694Z</time>
      </trkpt>
      <trkpt lat="47.0223" lon="8.97956">
        <ele>862</ele>
        <time>2021-08-02T10:22:38.694Z</time>
      </trkpt>
      <trkpt lat="47.02229" lon="8.97954">
        <ele>862</ele>
        <time>2021-08-02T10:22:39.694Z</time>
      </trkpt>
      <trkpt lat="47.02228" lon="8.97953">
        <ele>861</ele>
        <time>2021-08-02T10:22:40.694Z</time>
      </trkpt>
      <trkpt lat="47.02227" lon="8.97951">
        <ele>860</ele>
        <time>2021-08-02T10:22:41.693Z</time>
      </trkpt>
      <trkpt lat="47.02227" lon="8.9795">
        <ele>860</ele>
        <time>2021-08-02T10:22:42.693Z</time>
      </trkpt>
      <trkpt lat="47.02226" lon="8.97949">
        <ele>860</ele>
        <time>2021-08-02T10:22:43.694Z</time>
      </trkpt>
      <trkpt lat="47.02226" lon="8.97947">
        <ele>859</ele>
        <time>2021-08-02T10:22:44.694Z</time>
      </trkpt>
      <trkpt lat="47.02226" lon="8.97946">
        <ele>859</ele>
        <time>2021-08-02T10:22:45.693Z</time>
      </trkpt>
      <trkpt lat="47.02226" lon="8.97944">
        <ele>859</ele>
        <time>2021-08-02T10:22:46.694Z</time>
      </trkpt>
      <trkpt lat="47.02225" lon="8.97943">
        <ele>859</ele>
        <time>2021-08-02T10:22:47.694Z</time>
      </trkpt>
      <trkpt lat="47.02225" lon="8.97942">
        <ele>859</ele>
        <time>2021-08-02T10:22:48.693Z</time>
      </trkpt>
      <trkpt lat="47.02225" lon="8.9794">
        <ele>859</ele>
        <time>2021-08-02T10:22:49.694Z</time>
      </trkpt>
      <trkpt lat="47.02224" lon="8.97938">
        <ele>858</ele>
        <time>2021-08-02T10:22:50.693Z</time>
      </trkpt>
      <trkpt lat="47.02223" lon="8.97937">
        <ele>858</ele>
        <time>2021-08-02T10:22:51.694Z</time>
      </trkpt>
      <trkpt lat="47.02222" lon="8.97935">
        <ele>858</ele>
        <time>2021-08-02T10:22:52.694Z</time>
      </trkpt>
      <trkpt lat="47.02222" lon="8.97934">
        <ele>857</ele>
        <time>2021-08-02T10:22:53.694Z</time>
      </trkpt>
      <trkpt lat="47.02222" lon="8.97934">
        <ele>857</ele>
        <time>2021-08-02T10:22:54.693Z</time>
      </trkpt>
      <trkpt lat="47.02222" lon="8.97933">
        <ele>856</ele>
        <time>2021-08-02T10:22:55.694Z</time>
      </trkpt>
      <trkpt lat="47.02222" lon="8.97933">
        <ele>856</ele>
        <time>2021-08-02T10:22:56.694Z</time>
      </trkpt>
      <trkpt lat="47.02223" lon="8.97932">
        <ele>855</ele>
        <time>2021-08-02T10:22:57.694Z</time>
      </trkpt>
      <trkpt lat="47.02222" lon="8.97931">
        <ele>855</ele>
        <time>2021-08-02T10:22:58.694Z</time>
      </trkpt>
      <trkpt lat="47.02222" lon="8.97931">
        <ele>855</ele>
        <time>2021-08-02T10:22:59.694Z</time>
      </trkpt>
      <trkpt lat="47.02221" lon="8.97929">
        <ele>855</ele>
        <time>2021-08-02T10:23:00.694Z</time>
      </trkpt>
      <trkpt lat="47.02221" lon="8.97929">
        <ele>855</ele>
        <time>2021-08-02T10:23:01.693Z</time>
      </trkpt>
      <trkpt lat="47.02222" lon="8.97928">
        <ele>855</ele>
        <time>2021-08-02T10:23:02.694Z</time>
      </trkpt>
      <trkpt lat="47.02221" lon="8.97927">
        <ele>855</ele>
        <time>2021-08-02T10:23:03.694Z</time>
      </trkpt>
      <trkpt lat="47.02221" lon="8.97927">
        <ele>856</ele>
        <time>2021-08-02T10:23:04.693Z</time>
      </trkpt>
      <trkpt lat="47.0222" lon="8.97926">
        <ele>856</ele>
        <time>2021-08-02T10:23:05.693Z</time>
      </trkpt>
      <trkpt lat="47.02219" lon="8.97925">
        <ele>856</ele>
        <time>2021-08-02T10:23:06.693Z</time>
      </trkpt>
      <trkpt lat="47.02218" lon="8.97925">
        <ele>856</ele>
        <time>2021-08-02T10:23:07.693Z</time>
      </trkpt>
      <trkpt lat="47.02219" lon="8.97925">
        <ele>856</ele>
        <time>2021-08-02T10:23:08.694Z</time>
      </trkpt>
      <trkpt lat="47.02219" lon="8.97926">
        <ele>856</ele>
        <time>2021-08-02T10:23:09.694Z</time>
      </trkpt>
      <trkpt lat="47.02219" lon="8.97927">
        <ele>857</ele>
        <time>2021-08-02T10:23:10.693Z</time>
      </trkpt>
      <trkpt lat="47.02219" lon="8.97927">
        <ele>857</ele>
        <time>2021-08-02T10:23:11.693Z</time>
      </trkpt>
      <trkpt lat="47.02219" lon="8.97927">
        <ele>857</ele>
        <time>2021-08-02T10:23:12.694Z</time>
      </trkpt>
      <trkpt lat="47.02218" lon="8.97926">
        <ele>856</ele>
        <time>2021-08-02T10:23:13.693Z</time>
      </trkpt>
      <trkpt lat="47.02217" lon="8.97926">
        <ele>856</ele>
        <time>2021-08-02T10:23:14.694Z</time>
      </trkpt>
      <trkpt lat="47.02217" lon="8.97927">
        <ele>856</ele>
        <time>2021-08-02T10:23:15.693Z</time>
      </trkpt>
      <trkpt lat="47.02216" lon="8.97927">
        <ele>856</ele>
        <time>2021-08-02T10:23:16.693Z</time>
      </trkpt>
      <trkpt lat="47.02215" lon="8.97927">
        <ele>857</ele>
        <time>2021-08-02T10:23:17.694Z</time>
      </trkpt>
      <trkpt lat="47.02214" lon="8.97927">
        <ele>857</ele>
        <time>2021-08-02T10:23:18.693Z</time>
      </trkpt>
      <trkpt lat="47.02213" lon="8.97927">
        <ele>857</ele>
        <time>2021-08-02T10:23:19.693Z</time>
      </trkpt>
      <trkpt lat="47.02214" lon="8.97926">
        <ele>857</ele>
        <time>2021-08-02T10:23:20.694Z</time>
      </trkpt>
      <trkpt lat="47.02214" lon="8.97925">
        <ele>857</ele>
        <time>2021-08-02T10:23:21.693Z</time>
      </trkpt>
      <trkpt lat="47.02215" lon="8.97924">
        <ele>858</ele>
        <time>2021-08-02T10:23:22.694Z</time>
      </trkpt>
      <trkpt lat="47.02215" lon="8.97924">
        <ele>858</ele>
        <time>2021-08-02T10:23:23.694Z</time>
      </trkpt>
      <trkpt lat="47.02215" lon="8.97925">
        <ele>858</ele>
        <time>2021-08-02T10:23:24.694Z</time>
      </trkpt>
      <trkpt lat="47.02214" lon="8.97925">
        <ele>858</ele>
        <time>2021-08-02T10:23:25.694Z</time>
      </trkpt>
      <trkpt lat="47.02214" lon="8.97925">
        <ele>858</ele>
        <time>2021-08-02T10:23:26.694Z</time>
      </trkpt>
      <trkpt lat="47.02214" lon="8.97925">
        <ele>858</ele>
        <time>2021-08-02T10:23:27.693Z</time>
      </trkpt>
      <trkpt lat="47.02215" lon="8.97925">
        <ele>858</ele>
        <time>2021-08-02T10:23:28.694Z</time>
      </trkpt>
      <trkpt lat="47.02216" lon="8.97925">
        <ele>858</ele>
        <time>2021-08-02T10:23:29.693Z</time>
      </trkpt>
      <trkpt lat="47.02216" lon="8.97924">
        <ele>858</ele>
        <time>2021-08-02T10:23:30.694Z</time>
      </trkpt>
      <trkpt lat="47.02216" lon="8.97923">
        <ele>859</ele>
        <time>2021-08-02T10:23:31.694Z</time>
      </trkpt>
      <trkpt lat="47.02215" lon="8.97922">
        <ele>859</ele>
        <time>2021-08-02T10:23:32.693Z</time>
      </trkpt>
      <trkpt lat="47.02214" lon="8.97921">
        <ele>859</ele>
        <time>2021-08-02T10:23:33.693Z</time>
      </trkpt>
      <trkpt lat="47.02214" lon="8.97919">
        <ele>859</ele>
        <time>2021-08-02T10:23:34.694Z</time>
      </trkpt>
      <trkpt lat="47.02214" lon="8.97918">
        <ele>859</ele>
        <time>2021-08-02T10:23:35.694Z</time>
      </trkpt>
      <trkpt lat="47.02213" lon="8.97917">
        <ele>859</ele>
        <time>2021-08-02T10:23:36.693Z</time>
      </trkpt>
      <trkpt lat="47.02213" lon="8.97916">
        <ele>859</ele>
        <time>2021-08-02T10:23:37.693Z</time>
      </trkpt>
      <trkpt lat="47.02213" lon="8.97915">
        <ele>859</ele>
        <time>2021-08-02T10:23:38.694Z</time>
      </trkpt>
      <trkpt lat="47.02213" lon="8.97913">
        <ele>859</ele>
        <time>2021-08-02T10:23:39.694Z</time>
      </trkpt>
      <trkpt lat="47.02213" lon="8.97912">
        <ele>860</ele>
        <time>2021-08-02T10:23:40.694Z</time>
      </trkpt>
      <trkpt lat="47.02212" lon="8.97912">
        <ele>859</ele>
        <time>2021-08-02T10:23:41.695Z</time>
      </trkpt>
      <trkpt lat="47.02211" lon="8.97912">
        <ele>859</ele>
        <time>2021-08-02T10:23:42.695Z</time>
      </trkpt>
      <trkpt lat="47.02211" lon="8.97912">
        <ele>859</ele>
        <time>2021-08-02T10:23:43.694Z</time>
      </trkpt>
      <trkpt lat="47.02212" lon="8.97911">
        <ele>859</ele>
        <time>2021-08-02T10:23:44.694Z</time>
      </trkpt>
      <trkpt lat="47.02212" lon="8.9791">
        <ele>858</ele>
        <time>2021-08-02T10:23:45.694Z</time>
      </trkpt>
      <trkpt lat="47.02213" lon="8.9791">
        <ele>858</ele>
        <time>2021-08-02T10:23:46.695Z</time>
      </trkpt>
      <trkpt lat="47.02213" lon="8.9791">
        <ele>859</ele>
        <time>2021-08-02T10:23:47.694Z</time>
      </trkpt>
      <trkpt lat="47.02214" lon="8.97907">
        <ele>859</ele>
        <time>2021-08-02T10:23:48.694Z</time>
      </trkpt>
      <trkpt lat="47.02214" lon="8.97906">
        <ele>859</ele>
        <time>2021-08-02T10:23:49.695Z</time>
      </trkpt>
      <trkpt lat="47.02214" lon="8.97904">
        <ele>859</ele>
        <time>2021-08-02T10:23:50.694Z</time>
      </trkpt>
      <trkpt lat="47.02214" lon="8.97902">
        <ele>859</ele>
        <time>2021-08-02T10:23:51.694Z</time>
      </trkpt>
      <trkpt lat="47.02213" lon="8.97901">
        <ele>859</ele>
        <time>2021-08-02T10:23:52.694Z</time>
      </trkpt>
      <trkpt lat="47.02212" lon="8.97901">
        <ele>859</ele>
        <time>2021-08-02T10:23:53.694Z</time>
      </trkpt>
      <trkpt lat="47.02211" lon="8.979">
        <ele>858</ele>
        <time>2021-08-02T10:23:54.694Z</time>
      </trkpt>
      <trkpt lat="47.0221" lon="8.97899">
        <ele>858</ele>
        <time>2021-08-02T10:23:55.694Z</time>
      </trkpt>
      <trkpt lat="47.02208" lon="8.97898">
        <ele>857</ele>
        <time>2021-08-02T10:23:56.694Z</time>
      </trkpt>
      <trkpt lat="47.02208" lon="8.97898">
        <ele>857</ele>
        <time>2021-08-02T10:23:57.695Z</time>
      </trkpt>
      <trkpt lat="47.02208" lon="8.97898">
        <ele>857</ele>
        <time>2021-08-02T10:23:58.694Z</time>
      </trkpt>
      <trkpt lat="47.02209" lon="8.97897">
        <ele>857</ele>
        <time>2021-08-02T10:23:59.694Z</time>
      </trkpt>
      <trkpt lat="47.0221" lon="8.97896">
        <ele>857</ele>
        <time>2021-08-02T10:24:00.694Z</time>
      </trkpt>
      <trkpt lat="47.02211" lon="8.97894">
        <ele>857</ele>
        <time>2021-08-02T10:24:01.694Z</time>
      </trkpt>
      <trkpt lat="47.02211" lon="8.97892">
        <ele>857</ele>
        <time>2021-08-02T10:24:02.694Z</time>
      </trkpt>
      <trkpt lat="47.02212" lon="8.97891">
        <ele>857</ele>
        <time>2021-08-02T10:24:03.694Z</time>
      </trkpt>
      <trkpt lat="47.02212" lon="8.97889">
        <ele>858</ele>
        <time>2021-08-02T10:24:04.694Z</time>
      </trkpt>
      <trkpt lat="47.02213" lon="8.97887">
        <ele>858</ele>
        <time>2021-08-02T10:24:05.695Z</time>
      </trkpt>
      <trkpt lat="47.02213" lon="8.97886">
        <ele>858</ele>
        <time>2021-08-02T10:24:06.694Z</time>
      </trkpt>
      <trkpt lat="47.02214" lon="8.97886">
        <ele>859</ele>
        <time>2021-08-02T10:24:07.695Z</time>
      </trkpt>
      <trkpt lat="47.02214" lon="8.97885">
        <ele>859</ele>
        <time>2021-08-02T10:24:08.694Z</time>
      </trkpt>
      <trkpt lat="47.02215" lon="8.97885">
        <ele>860</ele>
        <time>2021-08-02T10:24:09.694Z</time>
      </trkpt>
      <trkpt lat="47.02216" lon="8.97886">
        <ele>861</ele>
        <time>2021-08-02T10:24:10.695Z</time>
      </trkpt>
      <trkpt lat="47.02216" lon="8.97887">
        <ele>861</ele>
        <time>2021-08-02T10:24:11.694Z</time>
      </trkpt>
      <trkpt lat="47.02217" lon="8.97888">
        <ele>862</ele>
        <time>2021-08-02T10:24:12.694Z</time>
      </trkpt>
      <trkpt lat="47.02217" lon="8.97888">
        <ele>862</ele>
        <time>2021-08-02T10:24:13.694Z</time>
      </trkpt>
      <trkpt lat="47.02217" lon="8.97888">
        <ele>863</ele>
        <time>2021-08-02T10:24:14.694Z</time>
      </trkpt>
      <trkpt lat="47.02215" lon="8.97887">
        <ele>864</ele>
        <time>2021-08-02T10:24:15.694Z</time>
      </trkpt>
      <trkpt lat="47.02212" lon="8.97883">
        <ele>861</ele>
        <time>2021-08-02T10:24:16.695Z</time>
      </trkpt>
      <trkpt lat="47.02212" lon="8.97882">
        <ele>861</ele>
        <time>2021-08-02T10:24:17.694Z</time>
      </trkpt>
      <trkpt lat="47.02213" lon="8.97881">
        <ele>861</ele>
        <time>2021-08-02T10:24:18.694Z</time>
      </trkpt>
      <trkpt lat="47.02214" lon="8.9788">
        <ele>861</ele>
        <time>2021-08-02T10:24:19.695Z</time>
      </trkpt>
      <trkpt lat="47.02214" lon="8.97879">
        <ele>862</ele>
        <time>2021-08-02T10:24:20.695Z</time>
      </trkpt>
      <trkpt lat="47.02215" lon="8.97878">
        <ele>862</ele>
        <time>2021-08-02T10:24:21.695Z</time>
      </trkpt>
      <trkpt lat="47.02215" lon="8.97876">
        <ele>862</ele>
        <time>2021-08-02T10:24:22.695Z</time>
      </trkpt>
      <trkpt lat="47.02216" lon="8.97875">
        <ele>862</ele>
        <time>2021-08-02T10:24:23.694Z</time>
      </trkpt>
      <trkpt lat="47.02216" lon="8.97873">
        <ele>862</ele>
        <time>2021-08-02T10:24:24.695Z</time>
      </trkpt>
      <trkpt lat="47.02216" lon="8.97872">
        <ele>862</ele>
        <time>2021-08-02T10:24:25.695Z</time>
      </trkpt>
      <trkpt lat="47.02217" lon="8.97871">
        <ele>861</ele>
        <time>2021-08-02T10:24:26.694Z</time>
      </trkpt>
      <trkpt lat="47.02217" lon="8.97869">
        <ele>861</ele>
        <time>2021-08-02T10:24:27.695Z</time>
      </trkpt>
      <trkpt lat="47.02219" lon="8.97867">
        <ele>860</ele>
        <time>2021-08-02T10:24:28.694Z</time>
      </trkpt>
      <trkpt lat="47.02221" lon="8.97865">
        <ele>860</ele>
        <time>2021-08-02T10:24:29.695Z</time>
      </trkpt>
      <trkpt lat="47.02222" lon="8.97863">
        <ele>859</ele>
        <time>2021-08-02T10:24:30.695Z</time>
      </trkpt>
      <trkpt lat="47.02223" lon="8.97861">
        <ele>859</ele>
        <time>2021-08-02T10:24:31.694Z</time>
      </trkpt>
      <trkpt lat="47.02222" lon="8.9786">
        <ele>858</ele>
        <time>2021-08-02T10:24:32.695Z</time>
      </trkpt>
      <trkpt lat="47.02222" lon="8.9786">
        <ele>858</ele>
        <time>2021-08-02T10:24:33.695Z</time>
      </trkpt>
      <trkpt lat="47.02222" lon="8.97858">
        <ele>858</ele>
        <time>2021-08-02T10:24:34.695Z</time>
      </trkpt>
      <trkpt lat="47.02222" lon="8.97857">
        <ele>857</ele>
        <time>2021-08-02T10:24:35.694Z</time>
      </trkpt>
      <trkpt lat="47.02221" lon="8.97857">
        <ele>857</ele>
        <time>2021-08-02T10:24:36.694Z</time>
      </trkpt>
      <trkpt lat="47.0222" lon="8.97856">
        <ele>857</ele>
        <time>2021-08-02T10:24:37.694Z</time>
      </trkpt>
      <trkpt lat="47.02219" lon="8.97855">
        <ele>857</ele>
        <time>2021-08-02T10:24:38.694Z</time>
      </trkpt>
      <trkpt lat="47.02219" lon="8.97854">
        <ele>857</ele>
        <time>2021-08-02T10:24:39.694Z</time>
      </trkpt>
      <trkpt lat="47.02218" lon="8.97853">
        <ele>857</ele>
        <time>2021-08-02T10:24:40.694Z</time>
      </trkpt>
      <trkpt lat="47.02218" lon="8.97851">
        <ele>857</ele>
        <time>2021-08-02T10:24:41.695Z</time>
      </trkpt>
      <trkpt lat="47.02218" lon="8.9785">
        <ele>857</ele>
        <time>2021-08-02T10:24:42.694Z</time>
      </trkpt>
      <trkpt lat="47.02219" lon="8.97848">
        <ele>857</ele>
        <time>2021-08-02T10:24:43.694Z</time>
      </trkpt>
      <trkpt lat="47.0222" lon="8.97847">
        <ele>857</ele>
        <time>2021-08-02T10:24:44.695Z</time>
      </trkpt>
      <trkpt lat="47.0222" lon="8.97846">
        <ele>857</ele>
        <time>2021-08-02T10:24:45.695Z</time>
      </trkpt>
      <trkpt lat="47.02221" lon="8.97845">
        <ele>857</ele>
        <time>2021-08-02T10:24:46.694Z</time>
      </trkpt>
      <trkpt lat="47.02221" lon="8.97844">
        <ele>857</ele>
        <time>2021-08-02T10:24:47.694Z</time>
      </trkpt>
      <trkpt lat="47.02221" lon="8.97843">
        <ele>857</ele>
        <time>2021-08-02T10:24:48.694Z</time>
      </trkpt>
      <trkpt lat="47.02222" lon="8.97843">
        <ele>857</ele>
        <time>2021-08-02T10:24:49.695Z</time>
      </trkpt>
      <trkpt lat="47.02223" lon="8.97844">
        <ele>856</ele>
        <time>2021-08-02T10:24:50.695Z</time>
      </trkpt>
      <trkpt lat="47.02225" lon="8.97843">
        <ele>856</ele>
        <time>2021-08-02T10:24:51.695Z</time>
      </trkpt>
      <trkpt lat="47.02226" lon="8.97842">
        <ele>856</ele>
        <time>2021-08-02T10:24:52.694Z</time>
      </trkpt>
      <trkpt lat="47.02227" lon="8.97841">
        <ele>857</ele>
        <time>2021-08-02T10:24:53.694Z</time>
      </trkpt>
      <trkpt lat="47.02228" lon="8.97839">
        <ele>857</ele>
        <time>2021-08-02T10:24:54.694Z</time>
      </trkpt>
      <trkpt lat="47.02229" lon="8.97838">
        <ele>856</ele>
        <time>2021-08-02T10:24:55.694Z</time>
      </trkpt>
      <trkpt lat="47.02229" lon="8.97836">
        <ele>856</ele>
        <time>2021-08-02T10:24:56.695Z</time>
      </trkpt>
      <trkpt lat="47.02229" lon="8.97835">
        <ele>856</ele>
        <time>2021-08-02T10:24:57.695Z</time>
      </trkpt>
      <trkpt lat="47.0223" lon="8.97834">
        <ele>855</ele>
        <time>2021-08-02T10:24:58.694Z</time>
      </trkpt>
      <trkpt lat="47.02231" lon="8.97833">
        <ele>855</ele>
        <time>2021-08-02T10:24:59.694Z</time>
      </trkpt>
      <trkpt lat="47.02231" lon="8.97831">
        <ele>854</ele>
        <time>2021-08-02T10:25:00.694Z</time>
      </trkpt>
      <trkpt lat="47.02232" lon="8.9783">
        <ele>854</ele>
        <time>2021-08-02T10:25:01.694Z</time>
      </trkpt>
      <trkpt lat="47.02231" lon="8.97828">
        <ele>854</ele>
        <time>2021-08-02T10:25:02.694Z</time>
      </trkpt>
      <trkpt lat="47.02231" lon="8.97826">
        <ele>854</ele>
        <time>2021-08-02T10:25:03.694Z</time>
      </trkpt>
      <trkpt lat="47.02231" lon="8.97824">
        <ele>853</ele>
        <time>2021-08-02T10:25:04.694Z</time>
      </trkpt>
      <trkpt lat="47.02231" lon="8.97823">
        <ele>853</ele>
        <time>2021-08-02T10:25:05.694Z</time>
      </trkpt>
      <trkpt lat="47.02231" lon="8.97821">
        <ele>854</ele>
        <time>2021-08-02T10:25:06.694Z</time>
      </trkpt>
      <trkpt lat="47.02231" lon="8.97819">
        <ele>854</ele>
        <time>2021-08-02T10:25:07.694Z</time>
      </trkpt>
      <trkpt lat="47.02231" lon="8.97817">
        <ele>853</ele>
        <time>2021-08-02T10:25:08.694Z</time>
      </trkpt>
      <trkpt lat="47.02231" lon="8.97816">
        <ele>853</ele>
        <time>2021-08-02T10:25:09.694Z</time>
      </trkpt>
      <trkpt lat="47.02231" lon="8.97815">
        <ele>853</ele>
        <time>2021-08-02T10:25:10.694Z</time>
      </trkpt>
      <trkpt lat="47.02231" lon="8.97813">
        <ele>853</ele>
        <time>2021-08-02T10:25:11.694Z</time>
      </trkpt>
      <trkpt lat="47.02231" lon="8.97812">
        <ele>853</ele>
        <time>2021-08-02T10:25:12.694Z</time>
      </trkpt>
      <trkpt lat="47.02231" lon="8.97811">
        <ele>853</ele>
        <time>2021-08-02T10:25:13.694Z</time>
      </trkpt>
      <trkpt lat="47.02231" lon="8.97809">
        <ele>853</ele>
        <time>2021-08-02T10:25:14.694Z</time>
      </trkpt>
      <trkpt lat="47.02231" lon="8.97807">
        <ele>853</ele>
        <time>2021-08-02T10:25:15.695Z</time>
      </trkpt>
      <trkpt lat="47.02232" lon="8.97805">
        <ele>852</ele>
        <time>2021-08-02T10:25:16.695Z</time>
      </trkpt>
      <trkpt lat="47.02232" lon="8.97804">
        <ele>852</ele>
        <time>2021-08-02T10:25:17.694Z</time>
      </trkpt>
      <trkpt lat="47.02232" lon="8.97804">
        <ele>852</ele>
        <time>2021-08-02T10:25:18.694Z</time>
      </trkpt>
      <trkpt lat="47.02233" lon="8.97804">
        <ele>852</ele>
        <time>2021-08-02T10:25:19.694Z</time>
      </trkpt>
      <trkpt lat="47.02233" lon="8.97804">
        <ele>852</ele>
        <time>2021-08-02T10:25:20.694Z</time>
      </trkpt>
      <trkpt lat="47.02234" lon="8.97803">
        <ele>852</ele>
        <time>2021-08-02T10:25:21.694Z</time>
      </trkpt>
      <trkpt lat="47.02233" lon="8.97802">
        <ele>852</ele>
        <time>2021-08-02T10:25:22.695Z</time>
      </trkpt>
      <trkpt lat="47.02233" lon="8.97801">
        <ele>852</ele>
        <time>2021-08-02T10:25:23.695Z</time>
      </trkpt>
      <trkpt lat="47.02233" lon="8.97799">
        <ele>852</ele>
        <time>2021-08-02T10:25:24.694Z</time>
      </trkpt>
      <trkpt lat="47.02233" lon="8.97798">
        <ele>852</ele>
        <time>2021-08-02T10:25:25.694Z</time>
      </trkpt>
      <trkpt lat="47.02232" lon="8.97797">
        <ele>852</ele>
        <time>2021-08-02T10:25:26.695Z</time>
      </trkpt>
      <trkpt lat="47.02232" lon="8.97795">
        <ele>852</ele>
        <time>2021-08-02T10:25:27.695Z</time>
      </trkpt>
      <trkpt lat="47.02231" lon="8.97794">
        <ele>851</ele>
        <time>2021-08-02T10:25:28.695Z</time>
      </trkpt>
      <trkpt lat="47.02231" lon="8.97792">
        <ele>851</ele>
        <time>2021-08-02T10:25:29.695Z</time>
      </trkpt>
      <trkpt lat="47.02231" lon="8.9779">
        <ele>850</ele>
        <time>2021-08-02T10:25:30.695Z</time>
      </trkpt>
      <trkpt lat="47.02231" lon="8.97789">
        <ele>850</ele>
        <time>2021-08-02T10:25:31.695Z</time>
      </trkpt>
      <trkpt lat="47.02231" lon="8.97787">
        <ele>849</ele>
        <time>2021-08-02T10:25:32.694Z</time>
      </trkpt>
      <trkpt lat="47.0223" lon="8.97785">
        <ele>849</ele>
        <time>2021-08-02T10:25:33.694Z</time>
      </trkpt>
      <trkpt lat="47.0223" lon="8.97783">
        <ele>849</ele>
        <time>2021-08-02T10:25:34.695Z</time>
      </trkpt>
      <trkpt lat="47.0223" lon="8.97781">
        <ele>848</ele>
        <time>2021-08-02T10:25:35.695Z</time>
      </trkpt>
      <trkpt lat="47.02229" lon="8.9778">
        <ele>848</ele>
        <time>2021-08-02T10:25:36.695Z</time>
      </trkpt>
      <trkpt lat="47.02228" lon="8.97779">
        <ele>848</ele>
        <time>2021-08-02T10:25:37.695Z</time>
      </trkpt>
      <trkpt lat="47.02228" lon="8.97778">
        <ele>848</ele>
        <time>2021-08-02T10:25:38.694Z</time>
      </trkpt>
      <trkpt lat="47.02227" lon="8.97777">
        <ele>848</ele>
        <time>2021-08-02T10:25:39.694Z</time>
      </trkpt>
      <trkpt lat="47.02226" lon="8.97776">
        <ele>848</ele>
        <time>2021-08-02T10:25:40.695Z</time>
      </trkpt>
      <trkpt lat="47.02225" lon="8.97775">
        <ele>847</ele>
        <time>2021-08-02T10:25:41.694Z</time>
      </trkpt>
      <trkpt lat="47.02224" lon="8.97773">
        <ele>847</ele>
        <time>2021-08-02T10:25:42.695Z</time>
      </trkpt>
      <trkpt lat="47.02223" lon="8.97772">
        <ele>847</ele>
        <time>2021-08-02T10:25:43.694Z</time>
      </trkpt>
      <trkpt lat="47.02222" lon="8.9777">
        <ele>847</ele>
        <time>2021-08-02T10:25:44.694Z</time>
      </trkpt>
      <trkpt lat="47.02221" lon="8.97768">
        <ele>847</ele>
        <time>2021-08-02T10:25:45.695Z</time>
      </trkpt>
      <trkpt lat="47.02221" lon="8.97766">
        <ele>847</ele>
        <time>2021-08-02T10:25:46.695Z</time>
      </trkpt>
      <trkpt lat="47.0222" lon="8.97765">
        <ele>847</ele>
        <time>2021-08-02T10:25:47.694Z</time>
      </trkpt>
      <trkpt lat="47.02219" lon="8.97764">
        <ele>847</ele>
        <time>2021-08-02T10:25:48.694Z</time>
      </trkpt>
      <trkpt lat="47.02218" lon="8.97763">
        <ele>846</ele>
        <time>2021-08-02T10:25:49.694Z</time>
      </trkpt>
      <trkpt lat="47.02217" lon="8.97761">
        <ele>846</ele>
        <time>2021-08-02T10:25:50.694Z</time>
      </trkpt>
      <trkpt lat="47.02216" lon="8.9776">
        <ele>846</ele>
        <time>2021-08-02T10:25:51.694Z</time>
      </trkpt>
      <trkpt lat="47.02215" lon="8.97758">
        <ele>846</ele>
        <time>2021-08-02T10:25:52.695Z</time>
      </trkpt>
      <trkpt lat="47.02214" lon="8.97756">
        <ele>846</ele>
        <time>2021-08-02T10:25:53.694Z</time>
      </trkpt>
      <trkpt lat="47.02214" lon="8.97754">
        <ele>846</ele>
        <time>2021-08-02T10:25:54.695Z</time>
      </trkpt>
      <trkpt lat="47.02213" lon="8.97752">
        <ele>846</ele>
        <time>2021-08-02T10:25:55.694Z</time>
      </trkpt>
      <trkpt lat="47.02214" lon="8.97749">
        <ele>846</ele>
        <time>2021-08-02T10:25:56.694Z</time>
      </trkpt>
      <trkpt lat="47.02214" lon="8.97746">
        <ele>846</ele>
        <time>2021-08-02T10:25:57.695Z</time>
      </trkpt>
      <trkpt lat="47.02213" lon="8.97745">
        <ele>846</ele>
        <time>2021-08-02T10:25:58.695Z</time>
      </trkpt>
      <trkpt lat="47.02213" lon="8.97744">
        <ele>846</ele>
        <time>2021-08-02T10:25:59.695Z</time>
      </trkpt>
      <trkpt lat="47.02213" lon="8.97743">
        <ele>846</ele>
        <time>2021-08-02T10:26:00.695Z</time>
      </trkpt>
      <trkpt lat="47.02213" lon="8.97741">
        <ele>846</ele>
        <time>2021-08-02T10:26:01.694Z</time>
      </trkpt>
      <trkpt lat="47.02213" lon="8.9774">
        <ele>847</ele>
        <time>2021-08-02T10:26:02.695Z</time>
      </trkpt>
      <trkpt lat="47.02214" lon="8.97738">
        <ele>847</ele>
        <time>2021-08-02T10:26:03.694Z</time>
      </trkpt>
      <trkpt lat="47.02214" lon="8.97736">
        <ele>847</ele>
        <time>2021-08-02T10:26:04.694Z</time>
      </trkpt>
      <trkpt lat="47.02213" lon="8.97734">
        <ele>847</ele>
        <time>2021-08-02T10:26:05.694Z</time>
      </trkpt>
      <trkpt lat="47.02213" lon="8.97732">
        <ele>847</ele>
        <time>2021-08-02T10:26:06.694Z</time>
      </trkpt>
      <trkpt lat="47.02212" lon="8.9773">
        <ele>847</ele>
        <time>2021-08-02T10:26:07.695Z</time>
      </trkpt>
      <trkpt lat="47.02212" lon="8.97729">
        <ele>846</ele>
        <time>2021-08-02T10:26:08.695Z</time>
      </trkpt>
      <trkpt lat="47.02212" lon="8.97727">
        <ele>846</ele>
        <time>2021-08-02T10:26:09.695Z</time>
      </trkpt>
      <trkpt lat="47.02212" lon="8.97726">
        <ele>847</ele>
        <time>2021-08-02T10:26:10.695Z</time>
      </trkpt>
      <trkpt lat="47.02212" lon="8.97726">
        <ele>847</ele>
        <time>2021-08-02T10:26:11.694Z</time>
      </trkpt>
      <trkpt lat="47.02211" lon="8.97725">
        <ele>848</ele>
        <time>2021-08-02T10:26:12.695Z</time>
      </trkpt>
      <trkpt lat="47.02211" lon="8.97724">
        <ele>848</ele>
        <time>2021-08-02T10:26:13.695Z</time>
      </trkpt>
      <trkpt lat="47.0221" lon="8.97723">
        <ele>848</ele>
        <time>2021-08-02T10:26:14.695Z</time>
      </trkpt>
      <trkpt lat="47.02209" lon="8.97721">
        <ele>848</ele>
        <time>2021-08-02T10:26:15.694Z</time>
      </trkpt>
      <trkpt lat="47.02209" lon="8.9772">
        <ele>848</ele>
        <time>2021-08-02T10:26:16.694Z</time>
      </trkpt>
      <trkpt lat="47.02208" lon="8.97719">
        <ele>848</ele>
        <time>2021-08-02T10:26:17.695Z</time>
      </trkpt>
      <trkpt lat="47.02208" lon="8.97718">
        <ele>848</ele>
        <time>2021-08-02T10:26:18.695Z</time>
      </trkpt>
      <trkpt lat="47.02208" lon="8.97716">
        <ele>848</ele>
        <time>2021-08-02T10:26:19.695Z</time>
      </trkpt>
      <trkpt lat="47.02208" lon="8.97714">
        <ele>848</ele>
        <time>2021-08-02T10:26:20.694Z</time>
      </trkpt>
      <trkpt lat="47.02208" lon="8.97712">
        <ele>848</ele>
        <time>2021-08-02T10:26:21.695Z</time>
      </trkpt>
      <trkpt lat="47.02208" lon="8.9771">
        <ele>849</ele>
        <time>2021-08-02T10:26:22.694Z</time>
      </trkpt>
      <trkpt lat="47.02208" lon="8.97707">
        <ele>849</ele>
        <time>2021-08-02T10:26:23.695Z</time>
      </trkpt>
      <trkpt lat="47.02208" lon="8.97704">
        <ele>849</ele>
        <time>2021-08-02T10:26:24.695Z</time>
      </trkpt>
      <trkpt lat="47.02207" lon="8.97702">
        <ele>850</ele>
        <time>2021-08-02T10:26:25.694Z</time>
      </trkpt>
      <trkpt lat="47.02207" lon="8.977">
        <ele>850</ele>
        <time>2021-08-02T10:26:26.694Z</time>
      </trkpt>
      <trkpt lat="47.02206" lon="8.97697">
        <ele>850</ele>
        <time>2021-08-02T10:26:27.695Z</time>
      </trkpt>
      <trkpt lat="47.02205" lon="8.97695">
        <ele>851</ele>
        <time>2021-08-02T10:26:28.694Z</time>
      </trkpt>
      <trkpt lat="47.02204" lon="8.97694">
        <ele>851</ele>
        <time>2021-08-02T10:26:29.694Z</time>
      </trkpt>
      <trkpt lat="47.02203" lon="8.97692">
        <ele>852</ele>
        <time>2021-08-02T10:26:30.694Z</time>
      </trkpt>
      <trkpt lat="47.02202" lon="8.97691">
        <ele>853</ele>
        <time>2021-08-02T10:26:31.694Z</time>
      </trkpt>
      <trkpt lat="47.02202" lon="8.9769">
        <ele>853</ele>
        <time>2021-08-02T10:26:32.694Z</time>
      </trkpt>
      <trkpt lat="47.02201" lon="8.97689">
        <ele>854</ele>
        <time>2021-08-02T10:26:33.695Z</time>
      </trkpt>
      <trkpt lat="47.02201" lon="8.97688">
        <ele>854</ele>
        <time>2021-08-02T10:26:34.695Z</time>
      </trkpt>
      <trkpt lat="47.022" lon="8.97687">
        <ele>855</ele>
        <time>2021-08-02T10:26:35.695Z</time>
      </trkpt>
      <trkpt lat="47.02199" lon="8.97685">
        <ele>855</ele>
        <time>2021-08-02T10:26:36.695Z</time>
      </trkpt>
      <trkpt lat="47.02198" lon="8.97685">
        <ele>856</ele>
        <time>2021-08-02T10:26:37.695Z</time>
      </trkpt>
      <trkpt lat="47.02197" lon="8.97684">
        <ele>856</ele>
        <time>2021-08-02T10:26:38.695Z</time>
      </trkpt>
      <trkpt lat="47.02197" lon="8.97683">
        <ele>856</ele>
        <time>2021-08-02T10:26:39.695Z</time>
      </trkpt>
      <trkpt lat="47.02195" lon="8.97681">
        <ele>856</ele>
        <time>2021-08-02T10:26:40.694Z</time>
      </trkpt>
      <trkpt lat="47.02194" lon="8.97679">
        <ele>857</ele>
        <time>2021-08-02T10:26:41.694Z</time>
      </trkpt>
      <trkpt lat="47.02193" lon="8.97678">
        <ele>857</ele>
        <time>2021-08-02T10:26:42.695Z</time>
      </trkpt>
      <trkpt lat="47.02192" lon="8.97677">
        <ele>857</ele>
        <time>2021-08-02T10:26:43.695Z</time>
      </trkpt>
      <trkpt lat="47.02192" lon="8.97676">
        <ele>857</ele>
        <time>2021-08-02T10:26:50.696Z</time>
      </trkpt>
      <trkpt lat="47.02192" lon="8.97675">
        <ele>858</ele>
        <time>2021-08-02T10:26:51.696Z</time>
      </trkpt>
      <trkpt lat="47.02191" lon="8.97674">
        <ele>858</ele>
        <time>2021-08-02T10:26:52.696Z</time>
      </trkpt>
      <trkpt lat="47.02191" lon="8.97673">
        <ele>859</ele>
        <time>2021-08-02T10:26:56.857Z</time>
      </trkpt>
      <trkpt lat="47.02191" lon="8.9767">
        <ele>859</ele>
        <time>2021-08-02T10:26:57.857Z</time>
      </trkpt>
      <trkpt lat="47.02191" lon="8.97669">
        <ele>860</ele>
        <time>2021-08-02T10:26:58.857Z</time>
      </trkpt>
      <trkpt lat="47.0219" lon="8.97668">
        <ele>860</ele>
        <time>2021-08-02T10:26:59.856Z</time>
      </trkpt>
      <trkpt lat="47.0219" lon="8.97667">
        <ele>861</ele>
        <time>2021-08-02T10:27:00.856Z</time>
      </trkpt>
      <trkpt lat="47.02189" lon="8.97665">
        <ele>861</ele>
        <time>2021-08-02T10:27:03.926Z</time>
      </trkpt>
      <trkpt lat="47.02189" lon="8.97664">
        <ele>862</ele>
        <time>2021-08-02T10:27:04.925Z</time>
      </trkpt>
      <trkpt lat="47.02188" lon="8.97663">
        <ele>862</ele>
        <time>2021-08-02T10:27:05.925Z</time>
      </trkpt>
      <trkpt lat="47.02188" lon="8.97662">
        <ele>863</ele>
        <time>2021-08-02T10:27:06.926Z</time>
      </trkpt>
      <trkpt lat="47.02187" lon="8.97661">
        <ele>863</ele>
        <time>2021-08-02T10:27:07.925Z</time>
      </trkpt>
      <trkpt lat="47.02187" lon="8.9766">
        <ele>863</ele>
        <time>2021-08-02T10:27:08.925Z</time>
      </trkpt>
      <trkpt lat="47.02188" lon="8.97659">
        <ele>864</ele>
        <time>2021-08-02T10:27:09.926Z</time>
      </trkpt>
      <trkpt lat="47.02188" lon="8.97658">
        <ele>864</ele>
        <time>2021-08-02T10:27:10.926Z</time>
      </trkpt>
      <trkpt lat="47.02188" lon="8.97657">
        <ele>863</ele>
        <time>2021-08-02T10:27:11.925Z</time>
      </trkpt>
      <trkpt lat="47.02189" lon="8.97655">
        <ele>862</ele>
        <time>2021-08-02T10:27:12.926Z</time>
      </trkpt>
      <trkpt lat="47.02189" lon="8.97653">
        <ele>862</ele>
        <time>2021-08-02T10:27:13.926Z</time>
      </trkpt>
      <trkpt lat="47.02188" lon="8.97652">
        <ele>861</ele>
        <time>2021-08-02T10:27:34.974Z</time>
      </trkpt>
      <trkpt lat="47.02188" lon="8.9765">
        <ele>860</ele>
        <time>2021-08-02T10:27:35.974Z</time>
      </trkpt>
      <trkpt lat="47.02188" lon="8.97649">
        <ele>859</ele>
        <time>2021-08-02T10:27:54.080Z</time>
      </trkpt>
      <trkpt lat="47.02188" lon="8.97648">
        <ele>859</ele>
        <time>2021-08-02T10:27:55.079Z</time>
      </trkpt>
      <trkpt lat="47.02188" lon="8.97647">
        <ele>858</ele>
        <time>2021-08-02T10:27:56.080Z</time>
      </trkpt>
      <trkpt lat="47.02188" lon="8.97645">
        <ele>857</ele>
        <time>2021-08-02T10:27:57.079Z</time>
      </trkpt>
      <trkpt lat="47.02187" lon="8.97644">
        <ele>856</ele>
        <time>2021-08-02T10:28:03.169Z</time>
      </trkpt>
      <trkpt lat="47.02187" lon="8.97643">
        <ele>855</ele>
        <time>2021-08-02T10:28:04.169Z</time>
      </trkpt>
      <trkpt lat="47.02187" lon="8.97641">
        <ele>855</ele>
        <time>2021-08-02T10:28:05.169Z</time>
      </trkpt>
      <trkpt lat="47.02187" lon="8.97639">
        <ele>855</ele>
        <time>2021-08-02T10:28:06.168Z</time>
      </trkpt>
      <trkpt lat="47.02188" lon="8.97637">
        <ele>855</ele>
        <time>2021-08-02T10:28:07.169Z</time>
      </trkpt>
      <trkpt lat="47.02188" lon="8.97636">
        <ele>855</ele>
        <time>2021-08-02T10:28:08.169Z</time>
      </trkpt>
      <trkpt lat="47.02188" lon="8.97634">
        <ele>855</ele>
        <time>2021-08-02T10:28:09.169Z</time>
      </trkpt>
      <trkpt lat="47.02188" lon="8.97632">
        <ele>855</ele>
        <time>2021-08-02T10:28:10.168Z</time>
      </trkpt>
      <trkpt lat="47.02188" lon="8.9763">
        <ele>855</ele>
        <time>2021-08-02T10:28:11.169Z</time>
      </trkpt>
      <trkpt lat="47.02188" lon="8.97627">
        <ele>855</ele>
        <time>2021-08-02T10:28:12.169Z</time>
      </trkpt>
      <trkpt lat="47.02188" lon="8.97625">
        <ele>855</ele>
        <time>2021-08-02T10:28:13.169Z</time>
      </trkpt>
      <trkpt lat="47.02187" lon="8.97623">
        <ele>855</ele>
        <time>2021-08-02T10:28:14.169Z</time>
      </trkpt>
      <trkpt lat="47.02187" lon="8.97621">
        <ele>855</ele>
        <time>2021-08-02T10:28:15.169Z</time>
      </trkpt>
      <trkpt lat="47.02187" lon="8.97619">
        <ele>856</ele>
        <time>2021-08-02T10:28:16.169Z</time>
      </trkpt>
      <trkpt lat="47.02186" lon="8.97618">
        <ele>856</ele>
        <time>2021-08-02T10:28:17.169Z</time>
      </trkpt>
      <trkpt lat="47.02186" lon="8.97617">
        <ele>856</ele>
        <time>2021-08-02T10:28:18.168Z</time>
      </trkpt>
      <trkpt lat="47.02186" lon="8.97616">
        <ele>857</ele>
        <time>2021-08-02T10:28:19.169Z</time>
      </trkpt>
      <trkpt lat="47.02186" lon="8.97615">
        <ele>857</ele>
        <time>2021-08-02T10:28:20.168Z</time>
      </trkpt>
      <trkpt lat="47.02185" lon="8.97613">
        <ele>857</ele>
        <time>2021-08-02T10:28:21.169Z</time>
      </trkpt>
      <trkpt lat="47.02185" lon="8.97612">
        <ele>856</ele>
        <time>2021-08-02T10:28:22.169Z</time>
      </trkpt>
      <trkpt lat="47.02185" lon="8.9761">
        <ele>856</ele>
        <time>2021-08-02T10:28:23.168Z</time>
      </trkpt>
      <trkpt lat="47.02184" lon="8.97608">
        <ele>856</ele>
        <time>2021-08-02T10:28:24.169Z</time>
      </trkpt>
      <trkpt lat="47.02183" lon="8.97606">
        <ele>856</ele>
        <time>2021-08-02T10:28:25.168Z</time>
      </trkpt>
      <trkpt lat="47.02183" lon="8.97605">
        <ele>856</ele>
        <time>2021-08-02T10:28:26.169Z</time>
      </trkpt>
      <trkpt lat="47.02183" lon="8.97603">
        <ele>856</ele>
        <time>2021-08-02T10:28:27.169Z</time>
      </trkpt>
      <trkpt lat="47.02182" lon="8.97602">
        <ele>855</ele>
        <time>2021-08-02T10:28:28.168Z</time>
      </trkpt>
      <trkpt lat="47.02181" lon="8.97601">
        <ele>855</ele>
        <time>2021-08-02T10:28:29.168Z</time>
      </trkpt>
      <trkpt lat="47.0218" lon="8.976">
        <ele>856</ele>
        <time>2021-08-02T10:29:03.367Z</time>
      </trkpt>
      <trkpt lat="47.02179" lon="8.97598">
        <ele>856</ele>
        <time>2021-08-02T10:29:04.367Z</time>
      </trkpt>
      <trkpt lat="47.02178" lon="8.97597">
        <ele>856</ele>
        <time>2021-08-02T10:29:05.366Z</time>
      </trkpt>
      <trkpt lat="47.02176" lon="8.97595">
        <ele>856</ele>
        <time>2021-08-02T10:29:06.366Z</time>
      </trkpt>
      <trkpt lat="47.02175" lon="8.97594">
        <ele>855</ele>
        <time>2021-08-02T10:29:13.472Z</time>
      </trkpt>
      <trkpt lat="47.02174" lon="8.97593">
        <ele>855</ele>
        <time>2021-08-02T10:29:14.472Z</time>
      </trkpt>
      <trkpt lat="47.02173" lon="8.97592">
        <ele>855</ele>
        <time>2021-08-02T10:29:15.472Z</time>
      </trkpt>
      <trkpt lat="47.02173" lon="8.97591">
        <ele>855</ele>
        <time>2021-08-02T10:29:16.471Z</time>
      </trkpt>
      <trkpt lat="47.02172" lon="8.97589">
        <ele>855</ele>
        <time>2021-08-02T10:29:17.472Z</time>
      </trkpt>
      <trkpt lat="47.02171" lon="8.97588">
        <ele>855</ele>
        <time>2021-08-02T10:29:18.472Z</time>
      </trkpt>
      <trkpt lat="47.0217" lon="8.97588">
        <ele>855</ele>
        <time>2021-08-02T10:29:19.471Z</time>
      </trkpt>
      <trkpt lat="47.0217" lon="8.97587">
        <ele>854</ele>
        <time>2021-08-02T10:29:20.471Z</time>
      </trkpt>
      <trkpt lat="47.02169" lon="8.97585">
        <ele>854</ele>
        <time>2021-08-02T10:29:21.471Z</time>
      </trkpt>
      <trkpt lat="47.02169" lon="8.97584">
        <ele>853</ele>
        <time>2021-08-02T10:29:22.471Z</time>
      </trkpt>
      <trkpt lat="47.02169" lon="8.97584">
        <ele>853</ele>
        <time>2021-08-02T10:29:23.472Z</time>
      </trkpt>
      <trkpt lat="47.02168" lon="8.97583">
        <ele>853</ele>
        <time>2021-08-02T10:29:24.471Z</time>
      </trkpt>
      <trkpt lat="47.02167" lon="8.97582">
        <ele>853</ele>
        <time>2021-08-02T10:29:25.471Z</time>
      </trkpt>
      <trkpt lat="47.02166" lon="8.9758">
        <ele>853</ele>
        <time>2021-08-02T10:29:26.472Z</time>
      </trkpt>
      <trkpt lat="47.02164" lon="8.97579">
        <ele>853</ele>
        <time>2021-08-02T10:29:27.471Z</time>
      </trkpt>
      <trkpt lat="47.02164" lon="8.97578">
        <ele>853</ele>
        <time>2021-08-02T10:29:28.471Z</time>
      </trkpt>
      <trkpt lat="47.02164" lon="8.97579">
        <ele>853</ele>
        <time>2021-08-02T10:29:29.472Z</time>
      </trkpt>
      <trkpt lat="47.02165" lon="8.9758">
        <ele>853</ele>
        <time>2021-08-02T10:29:30.472Z</time>
      </trkpt>
      <trkpt lat="47.02165" lon="8.9758">
        <ele>853</ele>
        <time>2021-08-02T10:29:31.473Z</time>
      </trkpt>
      <trkpt lat="47.02165" lon="8.97579">
        <ele>853</ele>
        <time>2021-08-02T10:29:32.472Z</time>
      </trkpt>
      <trkpt lat="47.02164" lon="8.97578">
        <ele>853</ele>
        <time>2021-08-02T10:29:33.472Z</time>
      </trkpt>
      <trkpt lat="47.02164" lon="8.97578">
        <ele>852</ele>
        <time>2021-08-02T10:29:34.472Z</time>
      </trkpt>
      <trkpt lat="47.02163" lon="8.97577">
        <ele>852</ele>
        <time>2021-08-02T10:29:35.472Z</time>
      </trkpt>
      <trkpt lat="47.02163" lon="8.97577">
        <ele>852</ele>
        <time>2021-08-02T10:29:36.473Z</time>
      </trkpt>
      <trkpt lat="47.02162" lon="8.97577">
        <ele>852</ele>
        <time>2021-08-02T10:29:37.472Z</time>
      </trkpt>
      <trkpt lat="47.02161" lon="8.97577">
        <ele>851</ele>
        <time>2021-08-02T10:29:38.472Z</time>
      </trkpt>
      <trkpt lat="47.0216" lon="8.97577">
        <ele>851</ele>
        <time>2021-08-02T10:29:39.473Z</time>
      </trkpt>
      <trkpt lat="47.0216" lon="8.97577">
        <ele>851</ele>
        <time>2021-08-02T10:29:40.472Z</time>
      </trkpt>
      <trkpt lat="47.02158" lon="8.97577">
        <ele>850</ele>
        <time>2021-08-02T10:29:41.473Z</time>
      </trkpt>
      <trkpt lat="47.02157" lon="8.97577">
        <ele>850</ele>
        <time>2021-08-02T10:29:42.472Z</time>
      </trkpt>
      <trkpt lat="47.02157" lon="8.97577">
        <ele>850</ele>
        <time>2021-08-02T10:29:43.472Z</time>
      </trkpt>
      <trkpt lat="47.02157" lon="8.97575">
        <ele>850</ele>
        <time>2021-08-02T10:29:44.472Z</time>
      </trkpt>
      <trkpt lat="47.02157" lon="8.97571">
        <ele>850</ele>
        <time>2021-08-02T10:29:45.473Z</time>
      </trkpt>
      <trkpt lat="47.02156" lon="8.97571">
        <ele>850</ele>
        <time>2021-08-02T10:29:46.473Z</time>
      </trkpt>
      <trkpt lat="47.02156" lon="8.9757">
        <ele>850</ele>
        <time>2021-08-02T10:29:47.473Z</time>
      </trkpt>
      <trkpt lat="47.02155" lon="8.97569">
        <ele>850</ele>
        <time>2021-08-02T10:29:48.473Z</time>
      </trkpt>
      <trkpt lat="47.02154" lon="8.97569">
        <ele>850</ele>
        <time>2021-08-02T10:29:49.473Z</time>
      </trkpt>
      <trkpt lat="47.02153" lon="8.97569">
        <ele>850</ele>
        <time>2021-08-02T10:29:50.472Z</time>
      </trkpt>
      <trkpt lat="47.02152" lon="8.97569">
        <ele>851</ele>
        <time>2021-08-02T10:29:51.473Z</time>
      </trkpt>
      <trkpt lat="47.02151" lon="8.97569">
        <ele>851</ele>
        <time>2021-08-02T10:29:52.473Z</time>
      </trkpt>
      <trkpt lat="47.02151" lon="8.97569">
        <ele>851</ele>
        <time>2021-08-02T10:29:53.472Z</time>
      </trkpt>
      <trkpt lat="47.0215" lon="8.97569">
        <ele>850</ele>
        <time>2021-08-02T10:29:54.473Z</time>
      </trkpt>
      <trkpt lat="47.02148" lon="8.97569">
        <ele>850</ele>
        <time>2021-08-02T10:29:55.472Z</time>
      </trkpt>
      <trkpt lat="47.02146" lon="8.97569">
        <ele>850</ele>
        <time>2021-08-02T10:29:56.473Z</time>
      </trkpt>
      <trkpt lat="47.02145" lon="8.97569">
        <ele>850</ele>
        <time>2021-08-02T10:29:57.473Z</time>
      </trkpt>
      <trkpt lat="47.02144" lon="8.97568">
        <ele>849</ele>
        <time>2021-08-02T10:29:58.473Z</time>
      </trkpt>
      <trkpt lat="47.02142" lon="8.97567">
        <ele>849</ele>
        <time>2021-08-02T10:29:59.473Z</time>
      </trkpt>
      <trkpt lat="47.02141" lon="8.97566">
        <ele>849</ele>
        <time>2021-08-02T10:30:00.472Z</time>
      </trkpt>
      <trkpt lat="47.0214" lon="8.97565">
        <ele>849</ele>
        <time>2021-08-02T10:30:01.472Z</time>
      </trkpt>
      <trkpt lat="47.02139" lon="8.97565">
        <ele>848</ele>
        <time>2021-08-02T10:30:02.473Z</time>
      </trkpt>
      <trkpt lat="47.02138" lon="8.97564">
        <ele>848</ele>
        <time>2021-08-02T10:30:03.473Z</time>
      </trkpt>
      <trkpt lat="47.02137" lon="8.97562">
        <ele>848</ele>
        <time>2021-08-02T10:30:04.472Z</time>
      </trkpt>
      <trkpt lat="47.02136" lon="8.97561">
        <ele>848</ele>
        <time>2021-08-02T10:30:05.473Z</time>
      </trkpt>
      <trkpt lat="47.02135" lon="8.9756">
        <ele>848</ele>
        <time>2021-08-02T10:30:06.472Z</time>
      </trkpt>
      <trkpt lat="47.02134" lon="8.9756">
        <ele>849</ele>
        <time>2021-08-02T10:30:07.472Z</time>
      </trkpt>
      <trkpt lat="47.02134" lon="8.97559">
        <ele>849</ele>
        <time>2021-08-02T10:30:08.472Z</time>
      </trkpt>
      <trkpt lat="47.02133" lon="8.97558">
        <ele>849</ele>
        <time>2021-08-02T10:30:09.473Z</time>
      </trkpt>
      <trkpt lat="47.02133" lon="8.97556">
        <ele>849</ele>
        <time>2021-08-02T10:30:10.473Z</time>
      </trkpt>
      <trkpt lat="47.02132" lon="8.97549">
        <ele>849</ele>
        <time>2021-08-02T10:30:11.472Z</time>
      </trkpt>
      <trkpt lat="47.02131" lon="8.97547">
        <ele>849</ele>
        <time>2021-08-02T10:30:12.472Z</time>
      </trkpt>
      <trkpt lat="47.0213" lon="8.97544">
        <ele>850</ele>
        <time>2021-08-02T10:30:13.472Z</time>
      </trkpt>
      <trkpt lat="47.0213" lon="8.97542">
        <ele>850</ele>
        <time>2021-08-02T10:30:14.472Z</time>
      </trkpt>
      <trkpt lat="47.02129" lon="8.97541">
        <ele>850</ele>
        <time>2021-08-02T10:30:15.473Z</time>
      </trkpt>
      <trkpt lat="47.02129" lon="8.97538">
        <ele>850</ele>
        <time>2021-08-02T10:30:16.472Z</time>
      </trkpt>
      <trkpt lat="47.02129" lon="8.97537">
        <ele>851</ele>
        <time>2021-08-02T10:30:17.472Z</time>
      </trkpt>
      <trkpt lat="47.02128" lon="8.97536">
        <ele>851</ele>
        <time>2021-08-02T10:30:18.472Z</time>
      </trkpt>
      <trkpt lat="47.02127" lon="8.97535">
        <ele>851</ele>
        <time>2021-08-02T10:30:19.472Z</time>
      </trkpt>
      <trkpt lat="47.02126" lon="8.97534">
        <ele>851</ele>
        <time>2021-08-02T10:30:20.473Z</time>
      </trkpt>
      <trkpt lat="47.02125" lon="8.97534">
        <ele>852</ele>
        <time>2021-08-02T10:30:21.472Z</time>
      </trkpt>
      <trkpt lat="47.02124" lon="8.97533">
        <ele>852</ele>
        <time>2021-08-02T10:30:22.472Z</time>
      </trkpt>
      <trkpt lat="47.02123" lon="8.97533">
        <ele>852</ele>
        <time>2021-08-02T10:30:23.472Z</time>
      </trkpt>
      <trkpt lat="47.02122" lon="8.97532">
        <ele>852</ele>
        <time>2021-08-02T10:30:24.472Z</time>
      </trkpt>
      <trkpt lat="47.02121" lon="8.97532">
        <ele>853</ele>
        <time>2021-08-02T10:30:25.472Z</time>
      </trkpt>
      <trkpt lat="47.0212" lon="8.97532">
        <ele>853</ele>
        <time>2021-08-02T10:30:26.473Z</time>
      </trkpt>
      <trkpt lat="47.0212" lon="8.97531">
        <ele>853</ele>
        <time>2021-08-02T10:30:27.472Z</time>
      </trkpt>
      <trkpt lat="47.02119" lon="8.97531">
        <ele>853</ele>
        <time>2021-08-02T10:30:28.472Z</time>
      </trkpt>
      <trkpt lat="47.02119" lon="8.9753">
        <ele>853</ele>
        <time>2021-08-02T10:30:29.473Z</time>
      </trkpt>
      <trkpt lat="47.02119" lon="8.97529">
        <ele>853</ele>
        <time>2021-08-02T10:30:30.472Z</time>
      </trkpt>
      <trkpt lat="47.02119" lon="8.97528">
        <ele>853</ele>
        <time>2021-08-02T10:30:31.472Z</time>
      </trkpt>
      <trkpt lat="47.02118" lon="8.97526">
        <ele>853</ele>
        <time>2021-08-02T10:30:32.472Z</time>
      </trkpt>
      <trkpt lat="47.02118" lon="8.97525">
        <ele>853</ele>
        <time>2021-08-02T10:30:33.472Z</time>
      </trkpt>
      <trkpt lat="47.02117" lon="8.97524">
        <ele>853</ele>
        <time>2021-08-02T10:30:34.473Z</time>
      </trkpt>
      <trkpt lat="47.02116" lon="8.97523">
        <ele>853</ele>
        <time>2021-08-02T10:30:35.472Z</time>
      </trkpt>
      <trkpt lat="47.02115" lon="8.97521">
        <ele>853</ele>
        <time>2021-08-02T10:30:36.472Z</time>
      </trkpt>
      <trkpt lat="47.02114" lon="8.9752">
        <ele>853</ele>
        <time>2021-08-02T10:30:37.472Z</time>
      </trkpt>
      <trkpt lat="47.02113" lon="8.97519">
        <ele>853</ele>
        <time>2021-08-02T10:30:38.472Z</time>
      </trkpt>
      <trkpt lat="47.02113" lon="8.97518">
        <ele>852</ele>
        <time>2021-08-02T10:30:39.472Z</time>
      </trkpt>
      <trkpt lat="47.02112" lon="8.97518">
        <ele>852</ele>
        <time>2021-08-02T10:30:40.472Z</time>
      </trkpt>
      <trkpt lat="47.02111" lon="8.97518">
        <ele>851</ele>
        <time>2021-08-02T10:30:41.472Z</time>
      </trkpt>
      <trkpt lat="47.02111" lon="8.97517">
        <ele>851</ele>
        <time>2021-08-02T10:30:42.472Z</time>
      </trkpt>
      <trkpt lat="47.0211" lon="8.97516">
        <ele>851</ele>
        <time>2021-08-02T10:30:43.472Z</time>
      </trkpt>
      <trkpt lat="47.0211" lon="8.97515">
        <ele>851</ele>
        <time>2021-08-02T10:30:44.473Z</time>
      </trkpt>
      <trkpt lat="47.02109" lon="8.97514">
        <ele>851</ele>
        <time>2021-08-02T10:30:45.472Z</time>
      </trkpt>
      <trkpt lat="47.02107" lon="8.97514">
        <ele>851</ele>
        <time>2021-08-02T10:30:46.472Z</time>
      </trkpt>
      <trkpt lat="47.02106" lon="8.97512">
        <ele>851</ele>
        <time>2021-08-02T10:30:47.472Z</time>
      </trkpt>
      <trkpt lat="47.02106" lon="8.9751">
        <ele>851</ele>
        <time>2021-08-02T10:30:48.473Z</time>
      </trkpt>
      <trkpt lat="47.02106" lon="8.97507">
        <ele>851</ele>
        <time>2021-08-02T10:30:49.472Z</time>
      </trkpt>
      <trkpt lat="47.02106" lon="8.97504">
        <ele>851</ele>
        <time>2021-08-02T10:30:50.473Z</time>
      </trkpt>
      <trkpt lat="47.02107" lon="8.975">
        <ele>851</ele>
        <time>2021-08-02T10:30:51.472Z</time>
      </trkpt>
      <trkpt lat="47.02107" lon="8.97497">
        <ele>851</ele>
        <time>2021-08-02T10:30:52.472Z</time>
      </trkpt>
      <trkpt lat="47.02107" lon="8.97495">
        <ele>851</ele>
        <time>2021-08-02T10:30:53.472Z</time>
      </trkpt>
      <trkpt lat="47.02107" lon="8.97491">
        <ele>851</ele>
        <time>2021-08-02T10:30:54.472Z</time>
      </trkpt>
      <trkpt lat="47.02106" lon="8.9749">
        <ele>851</ele>
        <time>2021-08-02T10:30:55.472Z</time>
      </trkpt>
      <trkpt lat="47.02105" lon="8.97488">
        <ele>850</ele>
        <time>2021-08-02T10:30:56.472Z</time>
      </trkpt>
      <trkpt lat="47.02104" lon="8.97486">
        <ele>850</ele>
        <time>2021-08-02T10:30:57.472Z</time>
      </trkpt>
      <trkpt lat="47.02103" lon="8.97485">
        <ele>850</ele>
        <time>2021-08-02T10:30:58.472Z</time>
      </trkpt>
      <trkpt lat="47.02103" lon="8.97483">
        <ele>849</ele>
        <time>2021-08-02T10:30:59.472Z</time>
      </trkpt>
      <trkpt lat="47.02103" lon="8.97482">
        <ele>849</ele>
        <time>2021-08-02T10:31:00.472Z</time>
      </trkpt>
      <trkpt lat="47.02103" lon="8.97479">
        <ele>849</ele>
        <time>2021-08-02T10:31:01.473Z</time>
      </trkpt>
      <trkpt lat="47.02104" lon="8.97478">
        <ele>849</ele>
        <time>2021-08-02T10:31:02.472Z</time>
      </trkpt>
      <trkpt lat="47.02103" lon="8.97476">
        <ele>849</ele>
        <time>2021-08-02T10:31:03.473Z</time>
      </trkpt>
      <trkpt lat="47.02103" lon="8.97474">
        <ele>849</ele>
        <time>2021-08-02T10:31:04.472Z</time>
      </trkpt>
      <trkpt lat="47.02102" lon="8.97473">
        <ele>849</ele>
        <time>2021-08-02T10:31:05.472Z</time>
      </trkpt>
      <trkpt lat="47.02101" lon="8.97471">
        <ele>849</ele>
        <time>2021-08-02T10:31:06.473Z</time>
      </trkpt>
      <trkpt lat="47.021" lon="8.9747">
        <ele>849</ele>
        <time>2021-08-02T10:31:07.472Z</time>
      </trkpt>
      <trkpt lat="47.02099" lon="8.97469">
        <ele>849</ele>
        <time>2021-08-02T10:31:08.473Z</time>
      </trkpt>
      <trkpt lat="47.02098" lon="8.97469">
        <ele>849</ele>
        <time>2021-08-02T10:31:09.473Z</time>
      </trkpt>
      <trkpt lat="47.02098" lon="8.97468">
        <ele>849</ele>
        <time>2021-08-02T10:31:10.473Z</time>
      </trkpt>
      <trkpt lat="47.02097" lon="8.97467">
        <ele>849</ele>
        <time>2021-08-02T10:31:11.473Z</time>
      </trkpt>
      <trkpt lat="47.02096" lon="8.97466">
        <ele>849</ele>
        <time>2021-08-02T10:31:12.472Z</time>
      </trkpt>
      <trkpt lat="47.02095" lon="8.97466">
        <ele>849</ele>
        <time>2021-08-02T10:31:13.472Z</time>
      </trkpt>
      <trkpt lat="47.02095" lon="8.97465">
        <ele>849</ele>
        <time>2021-08-02T10:31:14.473Z</time>
      </trkpt>
      <trkpt lat="47.02094" lon="8.97464">
        <ele>850</ele>
        <time>2021-08-02T10:31:15.473Z</time>
      </trkpt>
      <trkpt lat="47.02093" lon="8.97462">
        <ele>850</ele>
        <time>2021-08-02T10:31:16.472Z</time>
      </trkpt>
      <trkpt lat="47.02092" lon="8.97461">
        <ele>850</ele>
        <time>2021-08-02T10:31:17.472Z</time>
      </trkpt>
      <trkpt lat="47.02092" lon="8.97459">
        <ele>850</ele>
        <time>2021-08-02T10:31:18.472Z</time>
      </trkpt>
      <trkpt lat="47.02091" lon="8.97458">
        <ele>850</ele>
        <time>2021-08-02T10:31:19.472Z</time>
      </trkpt>
      <trkpt lat="47.02091" lon="8.97457">
        <ele>850</ele>
        <time>2021-08-02T10:31:21.533Z</time>
      </trkpt>
      <trkpt lat="47.02091" lon="8.97456">
        <ele>850</ele>
        <time>2021-08-02T10:31:22.532Z</time>
      </trkpt>
      <trkpt lat="47.0209" lon="8.97454">
        <ele>850</ele>
        <time>2021-08-02T10:31:23.532Z</time>
      </trkpt>
      <trkpt lat="47.02089" lon="8.97453">
        <ele>850</ele>
        <time>2021-08-02T10:31:24.533Z</time>
      </trkpt>
      <trkpt lat="47.02089" lon="8.97452">
        <ele>850</ele>
        <time>2021-08-02T10:31:25.532Z</time>
      </trkpt>
      <trkpt lat="47.02088" lon="8.9745">
        <ele>851</ele>
        <time>2021-08-02T10:31:26.532Z</time>
      </trkpt>
      <trkpt lat="47.02087" lon="8.97449">
        <ele>851</ele>
        <time>2021-08-02T10:31:27.532Z</time>
      </trkpt>
      <trkpt lat="47.02086" lon="8.97447">
        <ele>851</ele>
        <time>2021-08-02T10:31:28.532Z</time>
      </trkpt>
      <trkpt lat="47.02085" lon="8.97445">
        <ele>851</ele>
        <time>2021-08-02T10:31:29.532Z</time>
      </trkpt>
      <trkpt lat="47.02084" lon="8.97443">
        <ele>852</ele>
        <time>2021-08-02T10:31:30.532Z</time>
      </trkpt>
      <trkpt lat="47.02084" lon="8.97441">
        <ele>852</ele>
        <time>2021-08-02T10:31:31.532Z</time>
      </trkpt>
      <trkpt lat="47.02084" lon="8.97439">
        <ele>852</ele>
        <time>2021-08-02T10:31:32.532Z</time>
      </trkpt>
      <trkpt lat="47.02084" lon="8.97438">
        <ele>852</ele>
        <time>2021-08-02T10:31:33.532Z</time>
      </trkpt>
      <trkpt lat="47.02083" lon="8.97437">
        <ele>852</ele>
        <time>2021-08-02T10:31:34.532Z</time>
      </trkpt>
      <trkpt lat="47.02083" lon="8.97435">
        <ele>852</ele>
        <time>2021-08-02T10:31:35.532Z</time>
      </trkpt>
      <trkpt lat="47.02082" lon="8.97435">
        <ele>852</ele>
        <time>2021-08-02T10:31:36.532Z</time>
      </trkpt>
      <trkpt lat="47.02082" lon="8.97434">
        <ele>853</ele>
        <time>2021-08-02T10:31:37.532Z</time>
      </trkpt>
      <trkpt lat="47.02082" lon="8.97433">
        <ele>852</ele>
        <time>2021-08-02T10:31:38.532Z</time>
      </trkpt>
      <trkpt lat="47.02082" lon="8.97432">
        <ele>852</ele>
        <time>2021-08-02T10:31:39.532Z</time>
      </trkpt>
      <trkpt lat="47.02082" lon="8.97431">
        <ele>852</ele>
        <time>2021-08-02T10:31:40.532Z</time>
      </trkpt>
      <trkpt lat="47.02082" lon="8.9743">
        <ele>852</ele>
        <time>2021-08-02T10:31:41.532Z</time>
      </trkpt>
      <trkpt lat="47.02082" lon="8.97429">
        <ele>853</ele>
        <time>2021-08-02T10:31:42.532Z</time>
      </trkpt>
      <trkpt lat="47.02081" lon="8.97428">
        <ele>853</ele>
        <time>2021-08-02T10:31:43.533Z</time>
      </trkpt>
      <trkpt lat="47.02081" lon="8.97426">
        <ele>854</ele>
        <time>2021-08-02T10:31:44.533Z</time>
      </trkpt>
      <trkpt lat="47.0208" lon="8.97425">
        <ele>854</ele>
        <time>2021-08-02T10:31:45.532Z</time>
      </trkpt>
      <trkpt lat="47.02079" lon="8.97424">
        <ele>855</ele>
        <time>2021-08-02T10:31:46.533Z</time>
      </trkpt>
      <trkpt lat="47.0208" lon="8.97422">
        <ele>855</ele>
        <time>2021-08-02T10:31:50.694Z</time>
      </trkpt>
      <trkpt lat="47.02079" lon="8.97419">
        <ele>855</ele>
        <time>2021-08-02T10:31:51.695Z</time>
      </trkpt>
      <trkpt lat="47.02079" lon="8.97416">
        <ele>855</ele>
        <time>2021-08-02T10:31:52.694Z</time>
      </trkpt>
      <trkpt lat="47.02079" lon="8.97414">
        <ele>855</ele>
        <time>2021-08-02T10:31:53.694Z</time>
      </trkpt>
      <trkpt lat="47.0208" lon="8.97413">
        <ele>855</ele>
        <time>2021-08-02T10:31:54.694Z</time>
      </trkpt>
      <trkpt lat="47.0208" lon="8.97411">
        <ele>855</ele>
        <time>2021-08-02T10:32:13.824Z</time>
      </trkpt>
      <trkpt lat="47.02079" lon="8.97409">
        <ele>854</ele>
        <time>2021-08-02T10:32:15.683Z</time>
      </trkpt>
      <trkpt lat="47.02078" lon="8.97408">
        <ele>854</ele>
        <time>2021-08-02T10:32:34.564Z</time>
      </trkpt>
      <trkpt lat="47.02077" lon="8.97406">
        <ele>854</ele>
        <time>2021-08-02T10:32:35.564Z</time>
      </trkpt>
      <trkpt lat="47.02077" lon="8.97405">
        <ele>854</ele>
        <time>2021-08-02T10:32:36.564Z</time>
      </trkpt>
      <trkpt lat="47.02076" lon="8.97404">
        <ele>854</ele>
        <time>2021-08-02T10:32:37.564Z</time>
      </trkpt>
      <trkpt lat="47.02076" lon="8.97404">
        <ele>854</ele>
        <time>2021-08-02T10:32:38.565Z</time>
      </trkpt>
      <trkpt lat="47.02076" lon="8.97402">
        <ele>854</ele>
        <time>2021-08-02T10:32:39.565Z</time>
      </trkpt>
      <trkpt lat="47.02076" lon="8.974">
        <ele>854</ele>
        <time>2021-08-02T10:32:40.564Z</time>
      </trkpt>
      <trkpt lat="47.02075" lon="8.97397">
        <ele>853</ele>
        <time>2021-08-02T10:32:41.564Z</time>
      </trkpt>
      <trkpt lat="47.02075" lon="8.97395">
        <ele>853</ele>
        <time>2021-08-02T10:32:42.565Z</time>
      </trkpt>
      <trkpt lat="47.02075" lon="8.97394">
        <ele>853</ele>
        <time>2021-08-02T10:32:43.564Z</time>
      </trkpt>
      <trkpt lat="47.02075" lon="8.97394">
        <ele>852</ele>
        <time>2021-08-02T10:32:44.565Z</time>
      </trkpt>
      <trkpt lat="47.02074" lon="8.97393">
        <ele>852</ele>
        <time>2021-08-02T10:32:45.564Z</time>
      </trkpt>
      <trkpt lat="47.02073" lon="8.97392">
        <ele>852</ele>
        <time>2021-08-02T10:32:46.564Z</time>
      </trkpt>
      <trkpt lat="47.02073" lon="8.97391">
        <ele>851</ele>
        <time>2021-08-02T10:32:52.688Z</time>
      </trkpt>
      <trkpt lat="47.02073" lon="8.97389">
        <ele>851</ele>
        <time>2021-08-02T10:32:53.689Z</time>
      </trkpt>
      <trkpt lat="47.02073" lon="8.97388">
        <ele>850</ele>
        <time>2021-08-02T10:32:54.688Z</time>
      </trkpt>
      <trkpt lat="47.02072" lon="8.97387">
        <ele>850</ele>
        <time>2021-08-02T10:32:55.688Z</time>
      </trkpt>
      <trkpt lat="47.02071" lon="8.97385">
        <ele>850</ele>
        <time>2021-08-02T10:32:56.688Z</time>
      </trkpt>
      <trkpt lat="47.02071" lon="8.97383">
        <ele>849</ele>
        <time>2021-08-02T10:32:57.688Z</time>
      </trkpt>
      <trkpt lat="47.0207" lon="8.97381">
        <ele>849</ele>
        <time>2021-08-02T10:32:59.799Z</time>
      </trkpt>
      <trkpt lat="47.02069" lon="8.97379">
        <ele>848</ele>
        <time>2021-08-02T10:33:00.798Z</time>
      </trkpt>
      <trkpt lat="47.02067" lon="8.97377">
        <ele>848</ele>
        <time>2021-08-02T10:33:01.798Z</time>
      </trkpt>
      <trkpt lat="47.02066" lon="8.97375">
        <ele>847</ele>
        <time>2021-08-02T10:33:02.798Z</time>
      </trkpt>
      <trkpt lat="47.02066" lon="8.97374">
        <ele>847</ele>
        <time>2021-08-02T10:33:03.798Z</time>
      </trkpt>
      <trkpt lat="47.02065" lon="8.97373">
        <ele>846</ele>
        <time>2021-08-02T10:33:04.799Z</time>
      </trkpt>
      <trkpt lat="47.02064" lon="8.97372">
        <ele>846</ele>
        <time>2021-08-02T10:33:05.799Z</time>
      </trkpt>
      <trkpt lat="47.02064" lon="8.97371">
        <ele>846</ele>
        <time>2021-08-02T10:33:06.798Z</time>
      </trkpt>
      <trkpt lat="47.02063" lon="8.97369">
        <ele>847</ele>
        <time>2021-08-02T10:33:07.798Z</time>
      </trkpt>
      <trkpt lat="47.02063" lon="8.97367">
        <ele>847</ele>
        <time>2021-08-02T10:33:08.798Z</time>
      </trkpt>
      <trkpt lat="47.02063" lon="8.97366">
        <ele>848</ele>
        <time>2021-08-02T10:33:09.798Z</time>
      </trkpt>
      <trkpt lat="47.02062" lon="8.97364">
        <ele>849</ele>
        <time>2021-08-02T10:33:10.798Z</time>
      </trkpt>
      <trkpt lat="47.02062" lon="8.97362">
        <ele>850</ele>
        <time>2021-08-02T10:33:11.798Z</time>
      </trkpt>
      <trkpt lat="47.02062" lon="8.97359">
        <ele>851</ele>
        <time>2021-08-02T10:33:12.798Z</time>
      </trkpt>
      <trkpt lat="47.02063" lon="8.97357">
        <ele>852</ele>
        <time>2021-08-02T10:33:13.798Z</time>
      </trkpt>
      <trkpt lat="47.02063" lon="8.97355">
        <ele>853</ele>
        <time>2021-08-02T10:33:14.799Z</time>
      </trkpt>
      <trkpt lat="47.02062" lon="8.97353">
        <ele>854</ele>
        <time>2021-08-02T10:33:15.798Z</time>
      </trkpt>
      <trkpt lat="47.02061" lon="8.9735">
        <ele>854</ele>
        <time>2021-08-02T10:33:16.798Z</time>
      </trkpt>
      <trkpt lat="47.0206" lon="8.97349">
        <ele>855</ele>
        <time>2021-08-02T10:33:17.799Z</time>
      </trkpt>
      <trkpt lat="47.0206" lon="8.97348">
        <ele>856</ele>
        <time>2021-08-02T10:33:18.798Z</time>
      </trkpt>
      <trkpt lat="47.02059" lon="8.97347">
        <ele>857</ele>
        <time>2021-08-02T10:33:19.799Z</time>
      </trkpt>
      <trkpt lat="47.02058" lon="8.97346">
        <ele>857</ele>
        <time>2021-08-02T10:33:20.798Z</time>
      </trkpt>
      <trkpt lat="47.02058" lon="8.97344">
        <ele>857</ele>
        <time>2021-08-02T10:33:21.799Z</time>
      </trkpt>
      <trkpt lat="47.02057" lon="8.9734">
        <ele>858</ele>
        <time>2021-08-02T10:33:22.798Z</time>
      </trkpt>
      <trkpt lat="47.02056" lon="8.97337">
        <ele>858</ele>
        <time>2021-08-02T10:33:23.798Z</time>
      </trkpt>
      <trkpt lat="47.02055" lon="8.97335">
        <ele>858</ele>
        <time>2021-08-02T10:33:24.798Z</time>
      </trkpt>
      <trkpt lat="47.02055" lon="8.97334">
        <ele>858</ele>
        <time>2021-08-02T10:33:25.798Z</time>
      </trkpt>
      <trkpt lat="47.02053" lon="8.97335">
        <ele>858</ele>
        <time>2021-08-02T10:33:26.798Z</time>
      </trkpt>
      <trkpt lat="47.02053" lon="8.97334">
        <ele>858</ele>
        <time>2021-08-02T10:33:27.798Z</time>
      </trkpt>
      <trkpt lat="47.02053" lon="8.97333">
        <ele>858</ele>
        <time>2021-08-02T10:33:28.798Z</time>
      </trkpt>
      <trkpt lat="47.02053" lon="8.97331">
        <ele>858</ele>
        <time>2021-08-02T10:33:29.798Z</time>
      </trkpt>
      <trkpt lat="47.02052" lon="8.97331">
        <ele>858</ele>
        <time>2021-08-02T10:33:30.799Z</time>
      </trkpt>
      <trkpt lat="47.02052" lon="8.97329">
        <ele>858</ele>
        <time>2021-08-02T10:33:31.798Z</time>
      </trkpt>
      <trkpt lat="47.02051" lon="8.97328">
        <ele>858</ele>
        <time>2021-08-02T10:33:32.798Z</time>
      </trkpt>
      <trkpt lat="47.02051" lon="8.97326">
        <ele>858</ele>
        <time>2021-08-02T10:33:33.798Z</time>
      </trkpt>
      <trkpt lat="47.0205" lon="8.97325">
        <ele>858</ele>
        <time>2021-08-02T10:33:34.798Z</time>
      </trkpt>
      <trkpt lat="47.0205" lon="8.97323">
        <ele>858</ele>
        <time>2021-08-02T10:33:35.798Z</time>
      </trkpt>
      <trkpt lat="47.0205" lon="8.97322">
        <ele>857</ele>
        <time>2021-08-02T10:33:36.798Z</time>
      </trkpt>
      <trkpt lat="47.02049" lon="8.9732">
        <ele>857</ele>
        <time>2021-08-02T10:33:37.798Z</time>
      </trkpt>
      <trkpt lat="47.02049" lon="8.97318">
        <ele>857</ele>
        <time>2021-08-02T10:33:38.798Z</time>
      </trkpt>
      <trkpt lat="47.02049" lon="8.97317">
        <ele>857</ele>
        <time>2021-08-02T10:33:39.798Z</time>
      </trkpt>
      <trkpt lat="47.02049" lon="8.97316">
        <ele>858</ele>
        <time>2021-08-02T10:33:40.798Z</time>
      </trkpt>
      <trkpt lat="47.02048" lon="8.97315">
        <ele>858</ele>
        <time>2021-08-02T10:33:41.799Z</time>
      </trkpt>
      <trkpt lat="47.02048" lon="8.97314">
        <ele>858</ele>
        <time>2021-08-02T10:33:42.798Z</time>
      </trkpt>
      <trkpt lat="47.02047" lon="8.97313">
        <ele>858</ele>
        <time>2021-08-02T10:33:43.799Z</time>
      </trkpt>
      <trkpt lat="47.02046" lon="8.97312">
        <ele>858</ele>
        <time>2021-08-02T10:33:44.798Z</time>
      </trkpt>
      <trkpt lat="47.02046" lon="8.97311">
        <ele>858</ele>
        <time>2021-08-02T10:33:45.798Z</time>
      </trkpt>
      <trkpt lat="47.02045" lon="8.9731">
        <ele>857</ele>
        <time>2021-08-02T10:33:46.798Z</time>
      </trkpt>
      <trkpt lat="47.02045" lon="8.97309">
        <ele>856</ele>
        <time>2021-08-02T10:33:47.798Z</time>
      </trkpt>
      <trkpt lat="47.02044" lon="8.97308">
        <ele>856</ele>
        <time>2021-08-02T10:33:48.798Z</time>
      </trkpt>
      <trkpt lat="47.02044" lon="8.97307">
        <ele>855</ele>
        <time>2021-08-02T10:33:49.798Z</time>
      </trkpt>
      <trkpt lat="47.02043" lon="8.97307">
        <ele>855</ele>
        <time>2021-08-02T10:33:50.798Z</time>
      </trkpt>
      <trkpt lat="47.02042" lon="8.97306">
        <ele>854</ele>
        <time>2021-08-02T10:33:51.798Z</time>
      </trkpt>
      <trkpt lat="47.02042" lon="8.97305">
        <ele>854</ele>
        <time>2021-08-02T10:33:52.798Z</time>
      </trkpt>
      <trkpt lat="47.02043" lon="8.97303">
        <ele>854</ele>
        <time>2021-08-02T10:33:53.798Z</time>
      </trkpt>
      <trkpt lat="47.02043" lon="8.97303">
        <ele>854</ele>
        <time>2021-08-02T10:33:54.798Z</time>
      </trkpt>
      <trkpt lat="47.02044" lon="8.97302">
        <ele>854</ele>
        <time>2021-08-02T10:33:55.798Z</time>
      </trkpt>
      <trkpt lat="47.02044" lon="8.97301">
        <ele>855</ele>
        <time>2021-08-02T10:33:56.799Z</time>
      </trkpt>
      <trkpt lat="47.02044" lon="8.973">
        <ele>855</ele>
        <time>2021-08-02T10:33:57.798Z</time>
      </trkpt>
      <trkpt lat="47.02045" lon="8.97299">
        <ele>856</ele>
        <time>2021-08-02T10:33:58.798Z</time>
      </trkpt>
      <trkpt lat="47.02045" lon="8.97298">
        <ele>856</ele>
        <time>2021-08-02T10:33:59.798Z</time>
      </trkpt>
      <trkpt lat="47.02046" lon="8.97296">
        <ele>856</ele>
        <time>2021-08-02T10:34:00.799Z</time>
      </trkpt>
      <trkpt lat="47.02046" lon="8.97295">
        <ele>856</ele>
        <time>2021-08-02T10:34:01.798Z</time>
      </trkpt>
      <trkpt lat="47.02046" lon="8.97294">
        <ele>856</ele>
        <time>2021-08-02T10:34:02.798Z</time>
      </trkpt>
      <trkpt lat="47.02046" lon="8.97292">
        <ele>855</ele>
        <time>2021-08-02T10:34:03.798Z</time>
      </trkpt>
      <trkpt lat="47.02047" lon="8.97291">
        <ele>855</ele>
        <time>2021-08-02T10:34:04.798Z</time>
      </trkpt>
      <trkpt lat="47.02047" lon="8.97288">
        <ele>854</ele>
        <time>2021-08-02T10:34:05.799Z</time>
      </trkpt>
      <trkpt lat="47.02047" lon="8.97286">
        <ele>853</ele>
        <time>2021-08-02T10:34:06.798Z</time>
      </trkpt>
      <trkpt lat="47.02046" lon="8.97284">
        <ele>852</ele>
        <time>2021-08-02T10:34:07.798Z</time>
      </trkpt>
      <trkpt lat="47.02045" lon="8.97282">
        <ele>852</ele>
        <time>2021-08-02T10:34:08.798Z</time>
      </trkpt>
      <trkpt lat="47.02045" lon="8.97281">
        <ele>851</ele>
        <time>2021-08-02T10:34:09.798Z</time>
      </trkpt>
      <trkpt lat="47.02044" lon="8.9728">
        <ele>850</ele>
        <time>2021-08-02T10:34:10.798Z</time>
      </trkpt>
      <trkpt lat="47.02044" lon="8.97278">
        <ele>849</ele>
        <time>2021-08-02T10:34:11.798Z</time>
      </trkpt>
      <trkpt lat="47.02045" lon="8.97277">
        <ele>849</ele>
        <time>2021-08-02T10:34:12.798Z</time>
      </trkpt>
      <trkpt lat="47.02045" lon="8.97275">
        <ele>849</ele>
        <time>2021-08-02T10:34:13.798Z</time>
      </trkpt>
      <trkpt lat="47.02045" lon="8.97273">
        <ele>849</ele>
        <time>2021-08-02T10:34:14.798Z</time>
      </trkpt>
      <trkpt lat="47.02045" lon="8.97272">
        <ele>849</ele>
        <time>2021-08-02T10:34:15.798Z</time>
      </trkpt>
      <trkpt lat="47.02045" lon="8.97271">
        <ele>849</ele>
        <time>2021-08-02T10:34:16.798Z</time>
      </trkpt>
      <trkpt lat="47.02045" lon="8.9727">
        <ele>850</ele>
        <time>2021-08-02T10:34:17.798Z</time>
      </trkpt>
      <trkpt lat="47.02045" lon="8.97268">
        <ele>850</ele>
        <time>2021-08-02T10:34:18.798Z</time>
      </trkpt>
      <trkpt lat="47.02045" lon="8.97267">
        <ele>849</ele>
        <time>2021-08-02T10:34:19.798Z</time>
      </trkpt>
      <trkpt lat="47.02045" lon="8.97266">
        <ele>849</ele>
        <time>2021-08-02T10:34:20.799Z</time>
      </trkpt>
      <trkpt lat="47.02046" lon="8.97264">
        <ele>849</ele>
        <time>2021-08-02T10:34:21.798Z</time>
      </trkpt>
      <trkpt lat="47.02046" lon="8.97263">
        <ele>849</ele>
        <time>2021-08-02T10:34:22.799Z</time>
      </trkpt>
      <trkpt lat="47.02047" lon="8.97262">
        <ele>849</ele>
        <time>2021-08-02T10:34:23.798Z</time>
      </trkpt>
      <trkpt lat="47.02047" lon="8.97262">
        <ele>849</ele>
        <time>2021-08-02T10:34:24.799Z</time>
      </trkpt>
      <trkpt lat="47.02048" lon="8.97261">
        <ele>849</ele>
        <time>2021-08-02T10:34:25.798Z</time>
      </trkpt>
      <trkpt lat="47.02049" lon="8.97261">
        <ele>849</ele>
        <time>2021-08-02T10:34:26.798Z</time>
      </trkpt>
      <trkpt lat="47.0205" lon="8.97259">
        <ele>849</ele>
        <time>2021-08-02T10:34:27.798Z</time>
      </trkpt>
      <trkpt lat="47.02051" lon="8.97257">
        <ele>849</ele>
        <time>2021-08-02T10:34:28.799Z</time>
      </trkpt>
      <trkpt lat="47.02052" lon="8.97255">
        <ele>849</ele>
        <time>2021-08-02T10:34:29.798Z</time>
      </trkpt>
      <trkpt lat="47.02052" lon="8.97254">
        <ele>849</ele>
        <time>2021-08-02T10:34:30.798Z</time>
      </trkpt>
      <trkpt lat="47.02052" lon="8.97252">
        <ele>849</ele>
        <time>2021-08-02T10:34:31.798Z</time>
      </trkpt>
      <trkpt lat="47.02053" lon="8.97251">
        <ele>849</ele>
        <time>2021-08-02T10:34:32.798Z</time>
      </trkpt>
      <trkpt lat="47.02053" lon="8.9725">
        <ele>849</ele>
        <time>2021-08-02T10:34:33.798Z</time>
      </trkpt>
      <trkpt lat="47.02053" lon="8.97248">
        <ele>849</ele>
        <time>2021-08-02T10:34:34.798Z</time>
      </trkpt>
      <trkpt lat="47.02052" lon="8.97247">
        <ele>849</ele>
        <time>2021-08-02T10:34:35.798Z</time>
      </trkpt>
      <trkpt lat="47.02053" lon="8.97245">
        <ele>849</ele>
        <time>2021-08-02T10:34:36.798Z</time>
      </trkpt>
      <trkpt lat="47.02053" lon="8.97244">
        <ele>849</ele>
        <time>2021-08-02T10:34:37.798Z</time>
      </trkpt>
      <trkpt lat="47.02053" lon="8.97242">
        <ele>849</ele>
        <time>2021-08-02T10:34:38.798Z</time>
      </trkpt>
      <trkpt lat="47.02054" lon="8.97241">
        <ele>849</ele>
        <time>2021-08-02T10:34:39.798Z</time>
      </trkpt>
      <trkpt lat="47.02054" lon="8.9724">
        <ele>850</ele>
        <time>2021-08-02T10:34:40.799Z</time>
      </trkpt>
      <trkpt lat="47.02054" lon="8.97238">
        <ele>850</ele>
        <time>2021-08-02T10:34:41.798Z</time>
      </trkpt>
      <trkpt lat="47.02054" lon="8.97237">
        <ele>851</ele>
        <time>2021-08-02T10:34:42.798Z</time>
      </trkpt>
      <trkpt lat="47.02054" lon="8.97236">
        <ele>851</ele>
        <time>2021-08-02T10:34:43.799Z</time>
      </trkpt>
      <trkpt lat="47.02053" lon="8.97235">
        <ele>851</ele>
        <time>2021-08-02T10:34:44.798Z</time>
      </trkpt>
      <trkpt lat="47.02053" lon="8.97234">
        <ele>852</ele>
        <time>2021-08-02T10:34:45.798Z</time>
      </trkpt>
      <trkpt lat="47.02052" lon="8.97233">
        <ele>852</ele>
        <time>2021-08-02T10:34:46.799Z</time>
      </trkpt>
      <trkpt lat="47.02052" lon="8.97232">
        <ele>852</ele>
        <time>2021-08-02T10:34:47.798Z</time>
      </trkpt>
      <trkpt lat="47.02052" lon="8.9723">
        <ele>852</ele>
        <time>2021-08-02T10:34:48.798Z</time>
      </trkpt>
      <trkpt lat="47.02051" lon="8.97229">
        <ele>852</ele>
        <time>2021-08-02T10:34:49.798Z</time>
      </trkpt>
      <trkpt lat="47.02052" lon="8.97228">
        <ele>852</ele>
        <time>2021-08-02T10:34:50.798Z</time>
      </trkpt>
      <trkpt lat="47.02053" lon="8.97228">
        <ele>852</ele>
        <time>2021-08-02T10:34:51.798Z</time>
      </trkpt>
      <trkpt lat="47.02053" lon="8.97228">
        <ele>852</ele>
        <time>2021-08-02T10:34:52.799Z</time>
      </trkpt>
      <trkpt lat="47.02054" lon="8.97227">
        <ele>852</ele>
        <time>2021-08-02T10:34:53.798Z</time>
      </trkpt>
      <trkpt lat="47.02055" lon="8.97227">
        <ele>853</ele>
        <time>2021-08-02T10:34:54.798Z</time>
      </trkpt>
      <trkpt lat="47.02055" lon="8.97226">
        <ele>853</ele>
        <time>2021-08-02T10:34:55.798Z</time>
      </trkpt>
      <trkpt lat="47.02056" lon="8.97226">
        <ele>854</ele>
        <time>2021-08-02T10:34:56.798Z</time>
      </trkpt>
      <trkpt lat="47.02057" lon="8.97225">
        <ele>854</ele>
        <time>2021-08-02T10:34:57.798Z</time>
      </trkpt>
      <trkpt lat="47.02058" lon="8.97224">
        <ele>854</ele>
        <time>2021-08-02T10:34:58.798Z</time>
      </trkpt>
      <trkpt lat="47.02058" lon="8.97224">
        <ele>854</ele>
        <time>2021-08-02T10:34:59.798Z</time>
      </trkpt>
      <trkpt lat="47.02058" lon="8.97224">
        <ele>855</ele>
        <time>2021-08-02T10:35:00.798Z</time>
      </trkpt>
      <trkpt lat="47.02059" lon="8.97223">
        <ele>855</ele>
        <time>2021-08-02T10:35:01.798Z</time>
      </trkpt>
      <trkpt lat="47.0206" lon="8.97222">
        <ele>855</ele>
        <time>2021-08-02T10:35:02.798Z</time>
      </trkpt>
      <trkpt lat="47.02061" lon="8.9722">
        <ele>855</ele>
        <time>2021-08-02T10:35:03.799Z</time>
      </trkpt>
      <trkpt lat="47.02062" lon="8.97219">
        <ele>855</ele>
        <time>2021-08-02T10:35:04.798Z</time>
      </trkpt>
      <trkpt lat="47.02063" lon="8.97218">
        <ele>855</ele>
        <time>2021-08-02T10:35:05.798Z</time>
      </trkpt>
      <trkpt lat="47.02063" lon="8.97217">
        <ele>855</ele>
        <time>2021-08-02T10:35:06.798Z</time>
      </trkpt>
      <trkpt lat="47.02064" lon="8.97216">
        <ele>855</ele>
        <time>2021-08-02T10:35:07.798Z</time>
      </trkpt>
      <trkpt lat="47.02066" lon="8.97216">
        <ele>855</ele>
        <time>2021-08-02T10:35:08.799Z</time>
      </trkpt>
      <trkpt lat="47.02068" lon="8.97215">
        <ele>855</ele>
        <time>2021-08-02T10:35:09.798Z</time>
      </trkpt>
      <trkpt lat="47.02068" lon="8.97214">
        <ele>855</ele>
        <time>2021-08-02T10:35:10.798Z</time>
      </trkpt>
      <trkpt lat="47.02069" lon="8.97213">
        <ele>855</ele>
        <time>2021-08-02T10:35:11.798Z</time>
      </trkpt>
      <trkpt lat="47.02069" lon="8.97212">
        <ele>855</ele>
        <time>2021-08-02T10:35:12.798Z</time>
      </trkpt>
      <trkpt lat="47.0207" lon="8.9721">
        <ele>855</ele>
        <time>2021-08-02T10:35:13.798Z</time>
      </trkpt>
      <trkpt lat="47.02071" lon="8.97209">
        <ele>855</ele>
        <time>2021-08-02T10:35:14.798Z</time>
      </trkpt>
      <trkpt lat="47.02072" lon="8.97208">
        <ele>855</ele>
        <time>2021-08-02T10:35:15.798Z</time>
      </trkpt>
      <trkpt lat="47.02072" lon="8.97208">
        <ele>855</ele>
        <time>2021-08-02T10:35:16.798Z</time>
      </trkpt>
      <trkpt lat="47.02072" lon="8.97207">
        <ele>855</ele>
        <time>2021-08-02T10:35:17.799Z</time>
      </trkpt>
      <trkpt lat="47.02072" lon="8.97206">
        <ele>855</ele>
        <time>2021-08-02T10:35:18.799Z</time>
      </trkpt>
      <trkpt lat="47.02072" lon="8.97205">
        <ele>856</ele>
        <time>2021-08-02T10:35:19.798Z</time>
      </trkpt>
      <trkpt lat="47.02071" lon="8.97204">
        <ele>856</ele>
        <time>2021-08-02T10:35:20.798Z</time>
      </trkpt>
      <trkpt lat="47.02071" lon="8.97203">
        <ele>856</ele>
        <time>2021-08-02T10:35:21.799Z</time>
      </trkpt>
      <trkpt lat="47.02071" lon="8.97202">
        <ele>856</ele>
        <time>2021-08-02T10:35:22.798Z</time>
      </trkpt>
      <trkpt lat="47.02071" lon="8.97201">
        <ele>856</ele>
        <time>2021-08-02T10:35:23.798Z</time>
      </trkpt>
      <trkpt lat="47.02071" lon="8.972">
        <ele>856</ele>
        <time>2021-08-02T10:35:24.798Z</time>
      </trkpt>
      <trkpt lat="47.02072" lon="8.97198">
        <ele>856</ele>
        <time>2021-08-02T10:35:25.798Z</time>
      </trkpt>
      <trkpt lat="47.02072" lon="8.97198">
        <ele>857</ele>
        <time>2021-08-02T10:35:26.798Z</time>
      </trkpt>
      <trkpt lat="47.02073" lon="8.97197">
        <ele>857</ele>
        <time>2021-08-02T10:35:27.798Z</time>
      </trkpt>
      <trkpt lat="47.02074" lon="8.97195">
        <ele>857</ele>
        <time>2021-08-02T10:35:28.798Z</time>
      </trkpt>
      <trkpt lat="47.02074" lon="8.97194">
        <ele>857</ele>
        <time>2021-08-02T10:35:29.798Z</time>
      </trkpt>
      <trkpt lat="47.02074" lon="8.97193">
        <ele>857</ele>
        <time>2021-08-02T10:35:30.799Z</time>
      </trkpt>
      <trkpt lat="47.02073" lon="8.97192">
        <ele>857</ele>
        <time>2021-08-02T10:35:31.798Z</time>
      </trkpt>
      <trkpt lat="47.02073" lon="8.97191">
        <ele>857</ele>
        <time>2021-08-02T10:35:32.799Z</time>
      </trkpt>
      <trkpt lat="47.02073" lon="8.9719">
        <ele>857</ele>
        <time>2021-08-02T10:35:33.798Z</time>
      </trkpt>
      <trkpt lat="47.02074" lon="8.97189">
        <ele>857</ele>
        <time>2021-08-02T10:35:34.798Z</time>
      </trkpt>
      <trkpt lat="47.02074" lon="8.97188">
        <ele>857</ele>
        <time>2021-08-02T10:35:35.798Z</time>
      </trkpt>
      <trkpt lat="47.02074" lon="8.97187">
        <ele>857</ele>
        <time>2021-08-02T10:35:36.799Z</time>
      </trkpt>
      <trkpt lat="47.02074" lon="8.97186">
        <ele>857</ele>
        <time>2021-08-02T10:35:37.798Z</time>
      </trkpt>
      <trkpt lat="47.02075" lon="8.97185">
        <ele>857</ele>
        <time>2021-08-02T10:35:38.799Z</time>
      </trkpt>
      <trkpt lat="47.02076" lon="8.97185">
        <ele>858</ele>
        <time>2021-08-02T10:35:39.798Z</time>
      </trkpt>
      <trkpt lat="47.02076" lon="8.97185">
        <ele>858</ele>
        <time>2021-08-02T10:35:40.798Z</time>
      </trkpt>
      <trkpt lat="47.02076" lon="8.97185">
        <ele>858</ele>
        <time>2021-08-02T10:35:41.798Z</time>
      </trkpt>
      <trkpt lat="47.02076" lon="8.97185">
        <ele>858</ele>
        <time>2021-08-02T10:35:42.798Z</time>
      </trkpt>
      <trkpt lat="47.02077" lon="8.97182">
        <ele>858</ele>
        <time>2021-08-02T10:35:43.798Z</time>
      </trkpt>
      <trkpt lat="47.02078" lon="8.9718">
        <ele>857</ele>
        <time>2021-08-02T10:35:44.798Z</time>
      </trkpt>
      <trkpt lat="47.02079" lon="8.97179">
        <ele>857</ele>
        <time>2021-08-02T10:35:45.798Z</time>
      </trkpt>
      <trkpt lat="47.0208" lon="8.97177">
        <ele>857</ele>
        <time>2021-08-02T10:35:46.798Z</time>
      </trkpt>
      <trkpt lat="47.0208" lon="8.97177">
        <ele>857</ele>
        <time>2021-08-02T10:35:47.798Z</time>
      </trkpt>
      <trkpt lat="47.0208" lon="8.97176">
        <ele>857</ele>
        <time>2021-08-02T10:35:48.798Z</time>
      </trkpt>
      <trkpt lat="47.0208" lon="8.97175">
        <ele>857</ele>
        <time>2021-08-02T10:35:49.798Z</time>
      </trkpt>
      <trkpt lat="47.0208" lon="8.97175">
        <ele>857</ele>
        <time>2021-08-02T10:35:50.798Z</time>
      </trkpt>
      <trkpt lat="47.0208" lon="8.97174">
        <ele>856</ele>
        <time>2021-08-02T10:35:51.800Z</time>
      </trkpt>
      <trkpt lat="47.0208" lon="8.97172">
        <ele>856</ele>
        <time>2021-08-02T10:35:52.800Z</time>
      </trkpt>
      <trkpt lat="47.02081" lon="8.97171">
        <ele>856</ele>
        <time>2021-08-02T10:35:53.800Z</time>
      </trkpt>
      <trkpt lat="47.02082" lon="8.9717">
        <ele>856</ele>
        <time>2021-08-02T10:35:54.799Z</time>
      </trkpt>
      <trkpt lat="47.02082" lon="8.97168">
        <ele>856</ele>
        <time>2021-08-02T10:35:55.800Z</time>
      </trkpt>
      <trkpt lat="47.02083" lon="8.97167">
        <ele>855</ele>
        <time>2021-08-02T10:35:56.799Z</time>
      </trkpt>
      <trkpt lat="47.02084" lon="8.97165">
        <ele>854</ele>
        <time>2021-08-02T10:35:57.799Z</time>
      </trkpt>
      <trkpt lat="47.02085" lon="8.97163">
        <ele>854</ele>
        <time>2021-08-02T10:35:58.799Z</time>
      </trkpt>
      <trkpt lat="47.02086" lon="8.97162">
        <ele>853</ele>
        <time>2021-08-02T10:35:59.799Z</time>
      </trkpt>
      <trkpt lat="47.02086" lon="8.9716">
        <ele>853</ele>
        <time>2021-08-02T10:36:00.800Z</time>
      </trkpt>
      <trkpt lat="47.02087" lon="8.97159">
        <ele>853</ele>
        <time>2021-08-02T10:36:01.800Z</time>
      </trkpt>
      <trkpt lat="47.02087" lon="8.97157">
        <ele>853</ele>
        <time>2021-08-02T10:36:02.800Z</time>
      </trkpt>
      <trkpt lat="47.02087" lon="8.97155">
        <ele>853</ele>
        <time>2021-08-02T10:36:03.799Z</time>
      </trkpt>
      <trkpt lat="47.02087" lon="8.97152">
        <ele>854</ele>
        <time>2021-08-02T10:36:04.800Z</time>
      </trkpt>
      <trkpt lat="47.02087" lon="8.9715">
        <ele>853</ele>
        <time>2021-08-02T10:36:05.800Z</time>
      </trkpt>
      <trkpt lat="47.02087" lon="8.97149">
        <ele>853</ele>
        <time>2021-08-02T10:36:06.800Z</time>
      </trkpt>
      <trkpt lat="47.02089" lon="8.97147">
        <ele>853</ele>
        <time>2021-08-02T10:36:07.800Z</time>
      </trkpt>
      <trkpt lat="47.0209" lon="8.97145">
        <ele>853</ele>
        <time>2021-08-02T10:36:08.799Z</time>
      </trkpt>
      <trkpt lat="47.02092" lon="8.97144">
        <ele>853</ele>
        <time>2021-08-02T10:36:09.800Z</time>
      </trkpt>
      <trkpt lat="47.02092" lon="8.97142">
        <ele>853</ele>
        <time>2021-08-02T10:36:10.800Z</time>
      </trkpt>
      <trkpt lat="47.02093" lon="8.97141">
        <ele>853</ele>
        <time>2021-08-02T10:36:11.800Z</time>
      </trkpt>
      <trkpt lat="47.02095" lon="8.97139">
        <ele>853</ele>
        <time>2021-08-02T10:36:12.799Z</time>
      </trkpt>
      <trkpt lat="47.02095" lon="8.97138">
        <ele>853</ele>
        <time>2021-08-02T10:36:13.799Z</time>
      </trkpt>
      <trkpt lat="47.02095" lon="8.97137">
        <ele>853</ele>
        <time>2021-08-02T10:36:14.800Z</time>
      </trkpt>
      <trkpt lat="47.02096" lon="8.97135">
        <ele>854</ele>
        <time>2021-08-02T10:36:15.800Z</time>
      </trkpt>
      <trkpt lat="47.02096" lon="8.97134">
        <ele>854</ele>
        <time>2021-08-02T10:36:16.800Z</time>
      </trkpt>
      <trkpt lat="47.02097" lon="8.97132">
        <ele>855</ele>
        <time>2021-08-02T10:36:17.799Z</time>
      </trkpt>
      <trkpt lat="47.02097" lon="8.97132">
        <ele>855</ele>
        <time>2021-08-02T10:36:18.800Z</time>
      </trkpt>
      <trkpt lat="47.02097" lon="8.97131">
        <ele>856</ele>
        <time>2021-08-02T10:36:19.800Z</time>
      </trkpt>
      <trkpt lat="47.02097" lon="8.9713">
        <ele>857</ele>
        <time>2021-08-02T10:36:20.800Z</time>
      </trkpt>
      <trkpt lat="47.02099" lon="8.97128">
        <ele>857</ele>
        <time>2021-08-02T10:36:21.799Z</time>
      </trkpt>
      <trkpt lat="47.02099" lon="8.97127">
        <ele>857</ele>
        <time>2021-08-02T10:36:22.799Z</time>
      </trkpt>
      <trkpt lat="47.021" lon="8.97125">
        <ele>857</ele>
        <time>2021-08-02T10:36:23.799Z</time>
      </trkpt>
      <trkpt lat="47.02102" lon="8.97123">
        <ele>858</ele>
        <time>2021-08-02T10:36:24.799Z</time>
      </trkpt>
      <trkpt lat="47.02103" lon="8.97122">
        <ele>858</ele>
        <time>2021-08-02T10:36:25.799Z</time>
      </trkpt>
      <trkpt lat="47.02103" lon="8.9712">
        <ele>857</ele>
        <time>2021-08-02T10:36:26.799Z</time>
      </trkpt>
      <trkpt lat="47.02104" lon="8.97118">
        <ele>857</ele>
        <time>2021-08-02T10:36:27.800Z</time>
      </trkpt>
      <trkpt lat="47.02104" lon="8.97117">
        <ele>857</ele>
        <time>2021-08-02T10:36:28.799Z</time>
      </trkpt>
      <trkpt lat="47.02104" lon="8.97116">
        <ele>856</ele>
        <time>2021-08-02T10:36:29.800Z</time>
      </trkpt>
      <trkpt lat="47.02104" lon="8.97114">
        <ele>856</ele>
        <time>2021-08-02T10:36:30.800Z</time>
      </trkpt>
      <trkpt lat="47.02105" lon="8.97112">
        <ele>856</ele>
        <time>2021-08-02T10:36:31.799Z</time>
      </trkpt>
      <trkpt lat="47.02106" lon="8.9711">
        <ele>857</ele>
        <time>2021-08-02T10:36:32.799Z</time>
      </trkpt>
      <trkpt lat="47.02107" lon="8.97108">
        <ele>857</ele>
        <time>2021-08-02T10:36:33.799Z</time>
      </trkpt>
      <trkpt lat="47.02108" lon="8.97107">
        <ele>857</ele>
        <time>2021-08-02T10:36:34.800Z</time>
      </trkpt>
      <trkpt lat="47.02108" lon="8.97105">
        <ele>857</ele>
        <time>2021-08-02T10:36:35.800Z</time>
      </trkpt>
      <trkpt lat="47.02109" lon="8.97104">
        <ele>857</ele>
        <time>2021-08-02T10:36:36.800Z</time>
      </trkpt>
      <trkpt lat="47.0211" lon="8.97103">
        <ele>858</ele>
        <time>2021-08-02T10:36:37.799Z</time>
      </trkpt>
      <trkpt lat="47.0211" lon="8.97101">
        <ele>858</ele>
        <time>2021-08-02T10:36:38.800Z</time>
      </trkpt>
      <trkpt lat="47.02111" lon="8.971">
        <ele>858</ele>
        <time>2021-08-02T10:36:39.800Z</time>
      </trkpt>
      <trkpt lat="47.02111" lon="8.97099">
        <ele>858</ele>
        <time>2021-08-02T10:36:40.799Z</time>
      </trkpt>
      <trkpt lat="47.02112" lon="8.97098">
        <ele>858</ele>
        <time>2021-08-02T10:36:41.799Z</time>
      </trkpt>
      <trkpt lat="47.02112" lon="8.97096">
        <ele>858</ele>
        <time>2021-08-02T10:36:42.800Z</time>
      </trkpt>
      <trkpt lat="47.02113" lon="8.97094">
        <ele>858</ele>
        <time>2021-08-02T10:36:43.799Z</time>
      </trkpt>
      <trkpt lat="47.02113" lon="8.97092">
        <ele>859</ele>
        <time>2021-08-02T10:36:44.800Z</time>
      </trkpt>
      <trkpt lat="47.02113" lon="8.9709">
        <ele>859</ele>
        <time>2021-08-02T10:36:45.800Z</time>
      </trkpt>
      <trkpt lat="47.02113" lon="8.97087">
        <ele>858</ele>
        <time>2021-08-02T10:36:46.799Z</time>
      </trkpt>
      <trkpt lat="47.02114" lon="8.97086">
        <ele>858</ele>
        <time>2021-08-02T10:36:47.800Z</time>
      </trkpt>
      <trkpt lat="47.02114" lon="8.97084">
        <ele>858</ele>
        <time>2021-08-02T10:36:48.800Z</time>
      </trkpt>
      <trkpt lat="47.02114" lon="8.97082">
        <ele>858</ele>
        <time>2021-08-02T10:36:49.800Z</time>
      </trkpt>
      <trkpt lat="47.02114" lon="8.97081">
        <ele>857</ele>
        <time>2021-08-02T10:36:50.800Z</time>
      </trkpt>
      <trkpt lat="47.02114" lon="8.97078">
        <ele>857</ele>
        <time>2021-08-02T10:36:51.799Z</time>
      </trkpt>
      <trkpt lat="47.02113" lon="8.97076">
        <ele>857</ele>
        <time>2021-08-02T10:36:52.800Z</time>
      </trkpt>
      <trkpt lat="47.02113" lon="8.97074">
        <ele>857</ele>
        <time>2021-08-02T10:36:53.800Z</time>
      </trkpt>
      <trkpt lat="47.02113" lon="8.97073">
        <ele>857</ele>
        <time>2021-08-02T10:36:54.799Z</time>
      </trkpt>
      <trkpt lat="47.02113" lon="8.97071">
        <ele>857</ele>
        <time>2021-08-02T10:36:55.800Z</time>
      </trkpt>
      <trkpt lat="47.02114" lon="8.97069">
        <ele>857</ele>
        <time>2021-08-02T10:36:56.800Z</time>
      </trkpt>
      <trkpt lat="47.02114" lon="8.97067">
        <ele>857</ele>
        <time>2021-08-02T10:36:57.800Z</time>
      </trkpt>
      <trkpt lat="47.02114" lon="8.97066">
        <ele>857</ele>
        <time>2021-08-02T10:36:58.800Z</time>
      </trkpt>
      <trkpt lat="47.02113" lon="8.97064">
        <ele>857</ele>
        <time>2021-08-02T10:36:59.800Z</time>
      </trkpt>
      <trkpt lat="47.02113" lon="8.97061">
        <ele>857</ele>
        <time>2021-08-02T10:37:00.800Z</time>
      </trkpt>
      <trkpt lat="47.02113" lon="8.97059">
        <ele>857</ele>
        <time>2021-08-02T10:37:01.799Z</time>
      </trkpt>
      <trkpt lat="47.02112" lon="8.97058">
        <ele>857</ele>
        <time>2021-08-02T10:37:02.799Z</time>
      </trkpt>
      <trkpt lat="47.02113" lon="8.97057">
        <ele>857</ele>
        <time>2021-08-02T10:37:03.799Z</time>
      </trkpt>
      <trkpt lat="47.02112" lon="8.97056">
        <ele>857</ele>
        <time>2021-08-02T10:37:04.799Z</time>
      </trkpt>
      <trkpt lat="47.02112" lon="8.97055">
        <ele>857</ele>
        <time>2021-08-02T10:37:05.800Z</time>
      </trkpt>
      <trkpt lat="47.02112" lon="8.97054">
        <ele>856</ele>
        <time>2021-08-02T10:37:06.799Z</time>
      </trkpt>
      <trkpt lat="47.02112" lon="8.97051">
        <ele>856</ele>
        <time>2021-08-02T10:37:07.800Z</time>
      </trkpt>
      <trkpt lat="47.02112" lon="8.97048">
        <ele>857</ele>
        <time>2021-08-02T10:37:08.799Z</time>
      </trkpt>
      <trkpt lat="47.02112" lon="8.97047">
        <ele>857</ele>
        <time>2021-08-02T10:37:09.799Z</time>
      </trkpt>
      <trkpt lat="47.02113" lon="8.97045">
        <ele>857</ele>
        <time>2021-08-02T10:37:10.800Z</time>
      </trkpt>
      <trkpt lat="47.02114" lon="8.97044">
        <ele>858</ele>
        <time>2021-08-02T10:37:11.800Z</time>
      </trkpt>
      <trkpt lat="47.02114" lon="8.97043">
        <ele>858</ele>
        <time>2021-08-02T10:37:12.800Z</time>
      </trkpt>
      <trkpt lat="47.02114" lon="8.97042">
        <ele>858</ele>
        <time>2021-08-02T10:37:13.800Z</time>
      </trkpt>
      <trkpt lat="47.02114" lon="8.9704">
        <ele>858</ele>
        <time>2021-08-02T10:37:14.799Z</time>
      </trkpt>
      <trkpt lat="47.02114" lon="8.97038">
        <ele>858</ele>
        <time>2021-08-02T10:37:15.800Z</time>
      </trkpt>
      <trkpt lat="47.02114" lon="8.97036">
        <ele>858</ele>
        <time>2021-08-02T10:37:16.800Z</time>
      </trkpt>
      <trkpt lat="47.02114" lon="8.97034">
        <ele>858</ele>
        <time>2021-08-02T10:37:17.800Z</time>
      </trkpt>
      <trkpt lat="47.02115" lon="8.97032">
        <ele>858</ele>
        <time>2021-08-02T10:37:18.799Z</time>
      </trkpt>
      <trkpt lat="47.02115" lon="8.9703">
        <ele>858</ele>
        <time>2021-08-02T10:37:19.800Z</time>
      </trkpt>
      <trkpt lat="47.02115" lon="8.97028">
        <ele>858</ele>
        <time>2021-08-02T10:37:20.799Z</time>
      </trkpt>
      <trkpt lat="47.02114" lon="8.97027">
        <ele>858</ele>
        <time>2021-08-02T10:37:21.800Z</time>
      </trkpt>
      <trkpt lat="47.02114" lon="8.97025">
        <ele>857</ele>
        <time>2021-08-02T10:37:22.800Z</time>
      </trkpt>
      <trkpt lat="47.02114" lon="8.97023">
        <ele>857</ele>
        <time>2021-08-02T10:37:23.800Z</time>
      </trkpt>
      <trkpt lat="47.02114" lon="8.97022">
        <ele>856</ele>
        <time>2021-08-02T10:37:24.799Z</time>
      </trkpt>
      <trkpt lat="47.02115" lon="8.9702">
        <ele>856</ele>
        <time>2021-08-02T10:37:25.800Z</time>
      </trkpt>
      <trkpt lat="47.02115" lon="8.97019">
        <ele>856</ele>
        <time>2021-08-02T10:37:26.800Z</time>
      </trkpt>
      <trkpt lat="47.02115" lon="8.97018">
        <ele>856</ele>
        <time>2021-08-02T10:37:27.800Z</time>
      </trkpt>
      <trkpt lat="47.02115" lon="8.97017">
        <ele>856</ele>
        <time>2021-08-02T10:37:28.800Z</time>
      </trkpt>
      <trkpt lat="47.02114" lon="8.97016">
        <ele>856</ele>
        <time>2021-08-02T10:37:29.799Z</time>
      </trkpt>
      <trkpt lat="47.02113" lon="8.97014">
        <ele>855</ele>
        <time>2021-08-02T10:37:30.800Z</time>
      </trkpt>
      <trkpt lat="47.02113" lon="8.97012">
        <ele>855</ele>
        <time>2021-08-02T10:37:31.800Z</time>
      </trkpt>
      <trkpt lat="47.02112" lon="8.9701">
        <ele>855</ele>
        <time>2021-08-02T10:37:32.799Z</time>
      </trkpt>
      <trkpt lat="47.02112" lon="8.97009">
        <ele>855</ele>
        <time>2021-08-02T10:37:33.800Z</time>
      </trkpt>
      <trkpt lat="47.02112" lon="8.97007">
        <ele>855</ele>
        <time>2021-08-02T10:37:34.800Z</time>
      </trkpt>
      <trkpt lat="47.02112" lon="8.97006">
        <ele>855</ele>
        <time>2021-08-02T10:37:35.800Z</time>
      </trkpt>
      <trkpt lat="47.02112" lon="8.97004">
        <ele>855</ele>
        <time>2021-08-02T10:37:36.800Z</time>
      </trkpt>
      <trkpt lat="47.02113" lon="8.97003">
        <ele>855</ele>
        <time>2021-08-02T10:37:37.800Z</time>
      </trkpt>
      <trkpt lat="47.02113" lon="8.97001">
        <ele>855</ele>
        <time>2021-08-02T10:37:38.799Z</time>
      </trkpt>
      <trkpt lat="47.02113" lon="8.96999">
        <ele>855</ele>
        <time>2021-08-02T10:37:39.800Z</time>
      </trkpt>
      <trkpt lat="47.02113" lon="8.96997">
        <ele>855</ele>
        <time>2021-08-02T10:37:40.799Z</time>
      </trkpt>
      <trkpt lat="47.02113" lon="8.96996">
        <ele>855</ele>
        <time>2021-08-02T10:37:41.800Z</time>
      </trkpt>
      <trkpt lat="47.02113" lon="8.96993">
        <ele>855</ele>
        <time>2021-08-02T10:37:42.800Z</time>
      </trkpt>
      <trkpt lat="47.02113" lon="8.96991">
        <ele>855</ele>
        <time>2021-08-02T10:37:43.799Z</time>
      </trkpt>
      <trkpt lat="47.02114" lon="8.96989">
        <ele>855</ele>
        <time>2021-08-02T10:37:44.800Z</time>
      </trkpt>
      <trkpt lat="47.02114" lon="8.96986">
        <ele>855</ele>
        <time>2021-08-02T10:37:45.800Z</time>
      </trkpt>
      <trkpt lat="47.02114" lon="8.96984">
        <ele>855</ele>
        <time>2021-08-02T10:37:46.799Z</time>
      </trkpt>
      <trkpt lat="47.02114" lon="8.96982">
        <ele>856</ele>
        <time>2021-08-02T10:37:47.800Z</time>
      </trkpt>
      <trkpt lat="47.02114" lon="8.96981">
        <ele>856</ele>
        <time>2021-08-02T10:37:48.799Z</time>
      </trkpt>
      <trkpt lat="47.02113" lon="8.96979">
        <ele>856</ele>
        <time>2021-08-02T10:37:49.800Z</time>
      </trkpt>
      <trkpt lat="47.02113" lon="8.96977">
        <ele>856</ele>
        <time>2021-08-02T10:37:50.800Z</time>
      </trkpt>
      <trkpt lat="47.02113" lon="8.96975">
        <ele>856</ele>
        <time>2021-08-02T10:37:51.799Z</time>
      </trkpt>
      <trkpt lat="47.02113" lon="8.96973">
        <ele>857</ele>
        <time>2021-08-02T10:37:52.800Z</time>
      </trkpt>
      <trkpt lat="47.02113" lon="8.96972">
        <ele>857</ele>
        <time>2021-08-02T10:37:53.799Z</time>
      </trkpt>
      <trkpt lat="47.02112" lon="8.9697">
        <ele>857</ele>
        <time>2021-08-02T10:38:00.907Z</time>
      </trkpt>
      <trkpt lat="47.02111" lon="8.96969">
        <ele>857</ele>
        <time>2021-08-02T10:38:01.907Z</time>
      </trkpt>
      <trkpt lat="47.02111" lon="8.96969">
        <ele>856</ele>
        <time>2021-08-02T10:38:02.906Z</time>
      </trkpt>
      <trkpt lat="47.0211" lon="8.96969">
        <ele>856</ele>
        <time>2021-08-02T10:38:06.977Z</time>
      </trkpt>
      <trkpt lat="47.0211" lon="8.96967">
        <ele>856</ele>
        <time>2021-08-02T10:38:07.976Z</time>
      </trkpt>
      <trkpt lat="47.0211" lon="8.96967">
        <ele>856</ele>
        <time>2021-08-02T10:38:13.818Z</time>
      </trkpt>
      <trkpt lat="47.02111" lon="8.96966">
        <ele>856</ele>
        <time>2021-08-02T10:38:14.817Z</time>
      </trkpt>
      <trkpt lat="47.02112" lon="8.96964">
        <ele>856</ele>
        <time>2021-08-02T10:38:20.680Z</time>
      </trkpt>
      <trkpt lat="47.02112" lon="8.96963">
        <ele>856</ele>
        <time>2021-08-02T10:38:37.543Z</time>
      </trkpt>
      <trkpt lat="47.02112" lon="8.96962">
        <ele>856</ele>
        <time>2021-08-02T10:38:38.542Z</time>
      </trkpt>
      <trkpt lat="47.02113" lon="8.96961">
        <ele>857</ele>
        <time>2021-08-02T10:38:39.543Z</time>
      </trkpt>
      <trkpt lat="47.02114" lon="8.9696">
        <ele>857</ele>
        <time>2021-08-02T10:38:40.543Z</time>
      </trkpt>
      <trkpt lat="47.02114" lon="8.96959">
        <ele>857</ele>
        <time>2021-08-02T10:38:41.543Z</time>
      </trkpt>
      <trkpt lat="47.02115" lon="8.96958">
        <ele>857</ele>
        <time>2021-08-02T10:38:42.543Z</time>
      </trkpt>
      <trkpt lat="47.02116" lon="8.96956">
        <ele>857</ele>
        <time>2021-08-02T10:38:43.543Z</time>
      </trkpt>
      <trkpt lat="47.02117" lon="8.96955">
        <ele>857</ele>
        <time>2021-08-02T10:38:44.542Z</time>
      </trkpt>
      <trkpt lat="47.02117" lon="8.96954">
        <ele>857</ele>
        <time>2021-08-02T10:38:45.542Z</time>
      </trkpt>
      <trkpt lat="47.02118" lon="8.96953">
        <ele>857</ele>
        <time>2021-08-02T10:38:46.543Z</time>
      </trkpt>
      <trkpt lat="47.02118" lon="8.96952">
        <ele>856</ele>
        <time>2021-08-02T10:38:47.542Z</time>
      </trkpt>
      <trkpt lat="47.02119" lon="8.96951">
        <ele>856</ele>
        <time>2021-08-02T10:38:48.543Z</time>
      </trkpt>
      <trkpt lat="47.02121" lon="8.9695">
        <ele>856</ele>
        <time>2021-08-02T10:38:49.543Z</time>
      </trkpt>
      <trkpt lat="47.02122" lon="8.96948">
        <ele>857</ele>
        <time>2021-08-02T10:38:50.543Z</time>
      </trkpt>
      <trkpt lat="47.02124" lon="8.96947">
        <ele>857</ele>
        <time>2021-08-02T10:38:51.542Z</time>
      </trkpt>
      <trkpt lat="47.02124" lon="8.96946">
        <ele>857</ele>
        <time>2021-08-02T10:38:52.542Z</time>
      </trkpt>
      <trkpt lat="47.02125" lon="8.96945">
        <ele>858</ele>
        <time>2021-08-02T10:38:53.542Z</time>
      </trkpt>
      <trkpt lat="47.02125" lon="8.96944">
        <ele>859</ele>
        <time>2021-08-02T10:38:54.543Z</time>
      </trkpt>
      <trkpt lat="47.02125" lon="8.96943">
        <ele>859</ele>
        <time>2021-08-02T10:38:55.542Z</time>
      </trkpt>
      <trkpt lat="47.02126" lon="8.96941">
        <ele>859</ele>
        <time>2021-08-02T10:38:56.543Z</time>
      </trkpt>
      <trkpt lat="47.02126" lon="8.96939">
        <ele>860</ele>
        <time>2021-08-02T10:38:57.542Z</time>
      </trkpt>
      <trkpt lat="47.02127" lon="8.96937">
        <ele>860</ele>
        <time>2021-08-02T10:38:58.542Z</time>
      </trkpt>
      <trkpt lat="47.02128" lon="8.96935">
        <ele>859</ele>
        <time>2021-08-02T10:38:59.542Z</time>
      </trkpt>
      <trkpt lat="47.02128" lon="8.96934">
        <ele>859</ele>
        <time>2021-08-02T10:39:00.542Z</time>
      </trkpt>
      <trkpt lat="47.02128" lon="8.96932">
        <ele>859</ele>
        <time>2021-08-02T10:39:01.542Z</time>
      </trkpt>
      <trkpt lat="47.02128" lon="8.9693">
        <ele>858</ele>
        <time>2021-08-02T10:39:02.543Z</time>
      </trkpt>
      <trkpt lat="47.02128" lon="8.96928">
        <ele>858</ele>
        <time>2021-08-02T10:39:03.542Z</time>
      </trkpt>
      <trkpt lat="47.02128" lon="8.96926">
        <ele>857</ele>
        <time>2021-08-02T10:39:04.542Z</time>
      </trkpt>
      <trkpt lat="47.02128" lon="8.96925">
        <ele>857</ele>
        <time>2021-08-02T10:39:05.542Z</time>
      </trkpt>
      <trkpt lat="47.02128" lon="8.96923">
        <ele>856</ele>
        <time>2021-08-02T10:39:06.543Z</time>
      </trkpt>
      <trkpt lat="47.02128" lon="8.9692">
        <ele>856</ele>
        <time>2021-08-02T10:39:07.542Z</time>
      </trkpt>
      <trkpt lat="47.02128" lon="8.96918">
        <ele>855</ele>
        <time>2021-08-02T10:39:08.542Z</time>
      </trkpt>
      <trkpt lat="47.02127" lon="8.96917">
        <ele>855</ele>
        <time>2021-08-02T10:39:09.542Z</time>
      </trkpt>
      <trkpt lat="47.02127" lon="8.96916">
        <ele>855</ele>
        <time>2021-08-02T10:39:10.542Z</time>
      </trkpt>
      <trkpt lat="47.02127" lon="8.96914">
        <ele>855</ele>
        <time>2021-08-02T10:39:11.542Z</time>
      </trkpt>
      <trkpt lat="47.02128" lon="8.96913">
        <ele>855</ele>
        <time>2021-08-02T10:39:12.542Z</time>
      </trkpt>
      <trkpt lat="47.02127" lon="8.96911">
        <ele>855</ele>
        <time>2021-08-02T10:39:13.542Z</time>
      </trkpt>
      <trkpt lat="47.02126" lon="8.96909">
        <ele>855</ele>
        <time>2021-08-02T10:39:14.542Z</time>
      </trkpt>
      <trkpt lat="47.02125" lon="8.96907">
        <ele>855</ele>
        <time>2021-08-02T10:39:15.542Z</time>
      </trkpt>
      <trkpt lat="47.02124" lon="8.96906">
        <ele>855</ele>
        <time>2021-08-02T10:39:16.542Z</time>
      </trkpt>
      <trkpt lat="47.02124" lon="8.96905">
        <ele>855</ele>
        <time>2021-08-02T10:39:17.542Z</time>
      </trkpt>
      <trkpt lat="47.02124" lon="8.96904">
        <ele>855</ele>
        <time>2021-08-02T10:39:18.543Z</time>
      </trkpt>
      <trkpt lat="47.02123" lon="8.96903">
        <ele>855</ele>
        <time>2021-08-02T10:39:19.543Z</time>
      </trkpt>
      <trkpt lat="47.02123" lon="8.96902">
        <ele>854</ele>
        <time>2021-08-02T10:39:20.542Z</time>
      </trkpt>
      <trkpt lat="47.02123" lon="8.96901">
        <ele>854</ele>
        <time>2021-08-02T10:39:21.543Z</time>
      </trkpt>
      <trkpt lat="47.02122" lon="8.969">
        <ele>855</ele>
        <time>2021-08-02T10:39:22.543Z</time>
      </trkpt>
      <trkpt lat="47.02121" lon="8.969">
        <ele>855</ele>
        <time>2021-08-02T10:39:23.543Z</time>
      </trkpt>
      <trkpt lat="47.02121" lon="8.96899">
        <ele>855</ele>
        <time>2021-08-02T10:39:24.543Z</time>
      </trkpt>
      <trkpt lat="47.02121" lon="8.96898">
        <ele>855</ele>
        <time>2021-08-02T10:39:25.543Z</time>
      </trkpt>
      <trkpt lat="47.02121" lon="8.96897">
        <ele>855</ele>
        <time>2021-08-02T10:39:26.543Z</time>
      </trkpt>
      <trkpt lat="47.02118" lon="8.96892">
        <ele>855</ele>
        <time>2021-08-02T10:39:27.543Z</time>
      </trkpt>
      <trkpt lat="47.02118" lon="8.9689">
        <ele>855</ele>
        <time>2021-08-02T10:39:28.543Z</time>
      </trkpt>
      <trkpt lat="47.02118" lon="8.96889">
        <ele>855</ele>
        <time>2021-08-02T10:39:29.542Z</time>
      </trkpt>
      <trkpt lat="47.02118" lon="8.96888">
        <ele>855</ele>
        <time>2021-08-02T10:39:30.542Z</time>
      </trkpt>
      <trkpt lat="47.02119" lon="8.96887">
        <ele>855</ele>
        <time>2021-08-02T10:39:31.542Z</time>
      </trkpt>
      <trkpt lat="47.02119" lon="8.96888">
        <ele>855</ele>
        <time>2021-08-02T10:39:32.543Z</time>
      </trkpt>
      <trkpt lat="47.02119" lon="8.9689">
        <ele>854</ele>
        <time>2021-08-02T10:39:33.542Z</time>
      </trkpt>
      <trkpt lat="47.02119" lon="8.96892">
        <ele>854</ele>
        <time>2021-08-02T10:39:34.542Z</time>
      </trkpt>
      <trkpt lat="47.02118" lon="8.96894">
        <ele>854</ele>
        <time>2021-08-02T10:39:35.543Z</time>
      </trkpt>
      <trkpt lat="47.02118" lon="8.96894">
        <ele>854</ele>
        <time>2021-08-02T10:39:36.543Z</time>
      </trkpt>
      <trkpt lat="47.02118" lon="8.96894">
        <ele>854</ele>
        <time>2021-08-02T10:39:37.542Z</time>
      </trkpt>
      <trkpt lat="47.02118" lon="8.96894">
        <ele>852</ele>
        <time>2021-08-02T10:39:38.544Z</time>
      </trkpt>
      <trkpt lat="47.02117" lon="8.96893">
        <ele>851</ele>
        <time>2021-08-02T10:39:39.543Z</time>
      </trkpt>
      <trkpt lat="47.02117" lon="8.96893">
        <ele>851</ele>
        <time>2021-08-02T10:39:40.543Z</time>
      </trkpt>
      <trkpt lat="47.02117" lon="8.96892">
        <ele>850</ele>
        <time>2021-08-02T10:39:41.544Z</time>
      </trkpt>
      <trkpt lat="47.02116" lon="8.96891">
        <ele>850</ele>
        <time>2021-08-02T10:39:42.543Z</time>
      </trkpt>
      <trkpt lat="47.02116" lon="8.9689">
        <ele>850</ele>
        <time>2021-08-02T10:39:43.543Z</time>
      </trkpt>
      <trkpt lat="47.02116" lon="8.96888">
        <ele>850</ele>
        <time>2021-08-02T10:39:44.543Z</time>
      </trkpt>
      <trkpt lat="47.02115" lon="8.96887">
        <ele>850</ele>
        <time>2021-08-02T10:39:45.543Z</time>
      </trkpt>
      <trkpt lat="47.02113" lon="8.96886">
        <ele>850</ele>
        <time>2021-08-02T10:39:46.543Z</time>
      </trkpt>
      <trkpt lat="47.02112" lon="8.96885">
        <ele>850</ele>
        <time>2021-08-02T10:39:47.543Z</time>
      </trkpt>
      <trkpt lat="47.02112" lon="8.96883">
        <ele>851</ele>
        <time>2021-08-02T10:39:48.543Z</time>
      </trkpt>
      <trkpt lat="47.02111" lon="8.96881">
        <ele>851</ele>
        <time>2021-08-02T10:39:49.543Z</time>
      </trkpt>
      <trkpt lat="47.02111" lon="8.96879">
        <ele>851</ele>
        <time>2021-08-02T10:39:50.543Z</time>
      </trkpt>
      <trkpt lat="47.0211" lon="8.96877">
        <ele>851</ele>
        <time>2021-08-02T10:39:51.543Z</time>
      </trkpt>
      <trkpt lat="47.0211" lon="8.96875">
        <ele>850</ele>
        <time>2021-08-02T10:39:52.543Z</time>
      </trkpt>
      <trkpt lat="47.02109" lon="8.96874">
        <ele>850</ele>
        <time>2021-08-02T10:39:53.543Z</time>
      </trkpt>
      <trkpt lat="47.02108" lon="8.96872">
        <ele>850</ele>
        <time>2021-08-02T10:39:54.543Z</time>
      </trkpt>
      <trkpt lat="47.02107" lon="8.96872">
        <ele>849</ele>
        <time>2021-08-02T10:39:55.543Z</time>
      </trkpt>
      <trkpt lat="47.02106" lon="8.9687">
        <ele>849</ele>
        <time>2021-08-02T10:39:56.543Z</time>
      </trkpt>
      <trkpt lat="47.02105" lon="8.96869">
        <ele>849</ele>
        <time>2021-08-02T10:39:57.543Z</time>
      </trkpt>
      <trkpt lat="47.02105" lon="8.96868">
        <ele>850</ele>
        <time>2021-08-02T10:39:58.543Z</time>
      </trkpt>
      <trkpt lat="47.02106" lon="8.96867">
        <ele>850</ele>
        <time>2021-08-02T10:39:59.543Z</time>
      </trkpt>
      <trkpt lat="47.02106" lon="8.96866">
        <ele>850</ele>
        <time>2021-08-02T10:40:00.543Z</time>
      </trkpt>
      <trkpt lat="47.02105" lon="8.96864">
        <ele>850</ele>
        <time>2021-08-02T10:40:01.543Z</time>
      </trkpt>
      <trkpt lat="47.02105" lon="8.96862">
        <ele>851</ele>
        <time>2021-08-02T10:40:02.543Z</time>
      </trkpt>
      <trkpt lat="47.02104" lon="8.96861">
        <ele>851</ele>
        <time>2021-08-02T10:40:03.543Z</time>
      </trkpt>
      <trkpt lat="47.02103" lon="8.96859">
        <ele>851</ele>
        <time>2021-08-02T10:40:04.543Z</time>
      </trkpt>
      <trkpt lat="47.02103" lon="8.96858">
        <ele>852</ele>
        <time>2021-08-02T10:40:05.543Z</time>
      </trkpt>
      <trkpt lat="47.02102" lon="8.96853">
        <ele>856</ele>
        <time>2021-08-02T10:40:06.543Z</time>
      </trkpt>
      <trkpt lat="47.02102" lon="8.96852">
        <ele>856</ele>
        <time>2021-08-02T10:40:07.544Z</time>
      </trkpt>
      <trkpt lat="47.02102" lon="8.96851">
        <ele>857</ele>
        <time>2021-08-02T10:40:08.543Z</time>
      </trkpt>
      <trkpt lat="47.02102" lon="8.9685">
        <ele>857</ele>
        <time>2021-08-02T10:40:09.544Z</time>
      </trkpt>
      <trkpt lat="47.02101" lon="8.96849">
        <ele>857</ele>
        <time>2021-08-02T10:40:10.543Z</time>
      </trkpt>
      <trkpt lat="47.021" lon="8.96848">
        <ele>858</ele>
        <time>2021-08-02T10:40:11.544Z</time>
      </trkpt>
      <trkpt lat="47.02099" lon="8.96847">
        <ele>858</ele>
        <time>2021-08-02T10:40:12.543Z</time>
      </trkpt>
      <trkpt lat="47.02098" lon="8.96846">
        <ele>859</ele>
        <time>2021-08-02T10:40:13.543Z</time>
      </trkpt>
      <trkpt lat="47.02097" lon="8.96844">
        <ele>859</ele>
        <time>2021-08-02T10:40:14.543Z</time>
      </trkpt>
      <trkpt lat="47.02098" lon="8.96842">
        <ele>860</ele>
        <time>2021-08-02T10:40:15.544Z</time>
      </trkpt>
      <trkpt lat="47.02098" lon="8.9684">
        <ele>861</ele>
        <time>2021-08-02T10:40:16.543Z</time>
      </trkpt>
      <trkpt lat="47.02098" lon="8.96839">
        <ele>861</ele>
        <time>2021-08-02T10:40:17.543Z</time>
      </trkpt>
      <trkpt lat="47.02097" lon="8.96837">
        <ele>862</ele>
        <time>2021-08-02T10:40:18.544Z</time>
      </trkpt>
      <trkpt lat="47.02097" lon="8.96835">
        <ele>862</ele>
        <time>2021-08-02T10:40:20.652Z</time>
      </trkpt>
      <trkpt lat="47.02097" lon="8.96834">
        <ele>862</ele>
        <time>2021-08-02T10:40:21.653Z</time>
      </trkpt>
      <trkpt lat="47.02097" lon="8.96833">
        <ele>863</ele>
        <time>2021-08-02T10:40:22.652Z</time>
      </trkpt>
      <trkpt lat="47.02096" lon="8.96831">
        <ele>863</ele>
        <time>2021-08-02T10:40:23.653Z</time>
      </trkpt>
      <trkpt lat="47.02096" lon="8.96829">
        <ele>863</ele>
        <time>2021-08-02T10:40:24.652Z</time>
      </trkpt>
      <trkpt lat="47.02096" lon="8.96828">
        <ele>863</ele>
        <time>2021-08-02T10:40:25.653Z</time>
      </trkpt>
      <trkpt lat="47.02095" lon="8.96826">
        <ele>863</ele>
        <time>2021-08-02T10:40:26.653Z</time>
      </trkpt>
      <trkpt lat="47.02094" lon="8.96825">
        <ele>863</ele>
        <time>2021-08-02T10:40:27.652Z</time>
      </trkpt>
      <trkpt lat="47.02093" lon="8.96824">
        <ele>863</ele>
        <time>2021-08-02T10:40:28.653Z</time>
      </trkpt>
      <trkpt lat="47.02093" lon="8.96822">
        <ele>863</ele>
        <time>2021-08-02T10:40:29.653Z</time>
      </trkpt>
      <trkpt lat="47.02093" lon="8.96821">
        <ele>863</ele>
        <time>2021-08-02T10:40:32.637Z</time>
      </trkpt>
      <trkpt lat="47.02093" lon="8.96821">
        <ele>864</ele>
        <time>2021-08-02T10:40:33.638Z</time>
      </trkpt>
      <trkpt lat="47.02093" lon="8.96821">
        <ele>864</ele>
        <time>2021-08-02T10:40:34.638Z</time>
      </trkpt>
      <trkpt lat="47.02093" lon="8.9682">
        <ele>863</ele>
        <time>2021-08-02T10:40:35.637Z</time>
      </trkpt>
      <trkpt lat="47.02093" lon="8.96819">
        <ele>863</ele>
        <time>2021-08-02T10:40:36.638Z</time>
      </trkpt>
      <trkpt lat="47.02093" lon="8.96818">
        <ele>863</ele>
        <time>2021-08-02T10:40:37.638Z</time>
      </trkpt>
      <trkpt lat="47.02093" lon="8.96816">
        <ele>863</ele>
        <time>2021-08-02T10:40:38.638Z</time>
      </trkpt>
      <trkpt lat="47.02092" lon="8.96815">
        <ele>863</ele>
        <time>2021-08-02T10:40:39.638Z</time>
      </trkpt>
      <trkpt lat="47.02092" lon="8.96814">
        <ele>863</ele>
        <time>2021-08-02T10:40:40.638Z</time>
      </trkpt>
      <trkpt lat="47.02091" lon="8.96813">
        <ele>863</ele>
        <time>2021-08-02T10:40:41.638Z</time>
      </trkpt>
      <trkpt lat="47.02091" lon="8.96812">
        <ele>863</ele>
        <time>2021-08-02T10:40:42.638Z</time>
      </trkpt>
      <trkpt lat="47.02091" lon="8.96812">
        <ele>863</ele>
        <time>2021-08-02T10:40:43.638Z</time>
      </trkpt>
      <trkpt lat="47.0209" lon="8.96811">
        <ele>864</ele>
        <time>2021-08-02T10:40:44.637Z</time>
      </trkpt>
      <trkpt lat="47.0209" lon="8.9681">
        <ele>864</ele>
        <time>2021-08-02T10:40:45.638Z</time>
      </trkpt>
      <trkpt lat="47.02089" lon="8.96808">
        <ele>865</ele>
        <time>2021-08-02T10:40:46.637Z</time>
      </trkpt>
      <trkpt lat="47.02088" lon="8.96806">
        <ele>865</ele>
        <time>2021-08-02T10:40:47.638Z</time>
      </trkpt>
      <trkpt lat="47.02088" lon="8.96805">
        <ele>865</ele>
        <time>2021-08-02T10:40:48.638Z</time>
      </trkpt>
      <trkpt lat="47.02088" lon="8.96803">
        <ele>865</ele>
        <time>2021-08-02T10:40:49.637Z</time>
      </trkpt>
      <trkpt lat="47.02087" lon="8.96801">
        <ele>865</ele>
        <time>2021-08-02T10:40:50.638Z</time>
      </trkpt>
      <trkpt lat="47.02086" lon="8.968">
        <ele>866</ele>
        <time>2021-08-02T10:40:51.637Z</time>
      </trkpt>
      <trkpt lat="47.02085" lon="8.96798">
        <ele>866</ele>
        <time>2021-08-02T10:40:52.638Z</time>
      </trkpt>
      <trkpt lat="47.02084" lon="8.96797">
        <ele>866</ele>
        <time>2021-08-02T10:40:53.637Z</time>
      </trkpt>
      <trkpt lat="47.02083" lon="8.96795">
        <ele>866</ele>
        <time>2021-08-02T10:40:54.638Z</time>
      </trkpt>
      <trkpt lat="47.02082" lon="8.96793">
        <ele>866</ele>
        <time>2021-08-02T10:40:55.637Z</time>
      </trkpt>
      <trkpt lat="47.02081" lon="8.96791">
        <ele>866</ele>
        <time>2021-08-02T10:40:56.637Z</time>
      </trkpt>
      <trkpt lat="47.02081" lon="8.96788">
        <ele>866</ele>
        <time>2021-08-02T10:40:57.638Z</time>
      </trkpt>
      <trkpt lat="47.02079" lon="8.96787">
        <ele>866</ele>
        <time>2021-08-02T10:40:58.638Z</time>
      </trkpt>
      <trkpt lat="47.02078" lon="8.96786">
        <ele>866</ele>
        <time>2021-08-02T10:40:59.638Z</time>
      </trkpt>
      <trkpt lat="47.02077" lon="8.96785">
        <ele>867</ele>
        <time>2021-08-02T10:41:00.638Z</time>
      </trkpt>
      <trkpt lat="47.02076" lon="8.96784">
        <ele>867</ele>
        <time>2021-08-02T10:41:01.638Z</time>
      </trkpt>
      <trkpt lat="47.02076" lon="8.96783">
        <ele>867</ele>
        <time>2021-08-02T10:41:02.637Z</time>
      </trkpt>
      <trkpt lat="47.02076" lon="8.96782">
        <ele>867</ele>
        <time>2021-08-02T10:41:03.638Z</time>
      </trkpt>
      <trkpt lat="47.02076" lon="8.9678">
        <ele>867</ele>
        <time>2021-08-02T10:41:04.638Z</time>
      </trkpt>
      <trkpt lat="47.02076" lon="8.96777">
        <ele>867</ele>
        <time>2021-08-02T10:41:05.638Z</time>
      </trkpt>
      <trkpt lat="47.02075" lon="8.96774">
        <ele>867</ele>
        <time>2021-08-02T10:41:06.637Z</time>
      </trkpt>
      <trkpt lat="47.02075" lon="8.96771">
        <ele>867</ele>
        <time>2021-08-02T10:41:07.638Z</time>
      </trkpt>
      <trkpt lat="47.02075" lon="8.96769">
        <ele>867</ele>
        <time>2021-08-02T10:41:08.638Z</time>
      </trkpt>
      <trkpt lat="47.02075" lon="8.96767">
        <ele>867</ele>
        <time>2021-08-02T10:41:09.637Z</time>
      </trkpt>
      <trkpt lat="47.02075" lon="8.96765">
        <ele>868</ele>
        <time>2021-08-02T10:41:10.638Z</time>
      </trkpt>
      <trkpt lat="47.02075" lon="8.96764">
        <ele>868</ele>
        <time>2021-08-02T10:41:11.638Z</time>
      </trkpt>
      <trkpt lat="47.02075" lon="8.96763">
        <ele>868</ele>
        <time>2021-08-02T10:41:12.637Z</time>
      </trkpt>
      <trkpt lat="47.02075" lon="8.96762">
        <ele>868</ele>
        <time>2021-08-02T10:41:13.637Z</time>
      </trkpt>
      <trkpt lat="47.02074" lon="8.9676">
        <ele>868</ele>
        <time>2021-08-02T10:41:14.638Z</time>
      </trkpt>
      <trkpt lat="47.02073" lon="8.96758">
        <ele>868</ele>
        <time>2021-08-02T10:41:15.638Z</time>
      </trkpt>
      <trkpt lat="47.02072" lon="8.96757">
        <ele>868</ele>
        <time>2021-08-02T10:41:16.637Z</time>
      </trkpt>
      <trkpt lat="47.02072" lon="8.96755">
        <ele>868</ele>
        <time>2021-08-02T10:41:17.638Z</time>
      </trkpt>
      <trkpt lat="47.02072" lon="8.96754">
        <ele>867</ele>
        <time>2021-08-02T10:41:18.637Z</time>
      </trkpt>
      <trkpt lat="47.02072" lon="8.96753">
        <ele>866</ele>
        <time>2021-08-02T10:41:19.638Z</time>
      </trkpt>
      <trkpt lat="47.02071" lon="8.96752">
        <ele>866</ele>
        <time>2021-08-02T10:41:20.638Z</time>
      </trkpt>
      <trkpt lat="47.02071" lon="8.96751">
        <ele>866</ele>
        <time>2021-08-02T10:41:21.637Z</time>
      </trkpt>
      <trkpt lat="47.0207" lon="8.9675">
        <ele>865</ele>
        <time>2021-08-02T10:41:22.638Z</time>
      </trkpt>
      <trkpt lat="47.02069" lon="8.9675">
        <ele>865</ele>
        <time>2021-08-02T10:41:23.638Z</time>
      </trkpt>
      <trkpt lat="47.02068" lon="8.96749">
        <ele>864</ele>
        <time>2021-08-02T10:41:24.637Z</time>
      </trkpt>
      <trkpt lat="47.02067" lon="8.96748">
        <ele>863</ele>
        <time>2021-08-02T10:41:25.638Z</time>
      </trkpt>
      <trkpt lat="47.02067" lon="8.96748">
        <ele>862</ele>
        <time>2021-08-02T10:41:26.638Z</time>
      </trkpt>
      <trkpt lat="47.02067" lon="8.96746">
        <ele>862</ele>
        <time>2021-08-02T10:41:27.638Z</time>
      </trkpt>
      <trkpt lat="47.02067" lon="8.96745">
        <ele>861</ele>
        <time>2021-08-02T10:41:28.638Z</time>
      </trkpt>
      <trkpt lat="47.02067" lon="8.96744">
        <ele>860</ele>
        <time>2021-08-02T10:41:29.637Z</time>
      </trkpt>
      <trkpt lat="47.02066" lon="8.96743">
        <ele>860</ele>
        <time>2021-08-02T10:41:30.638Z</time>
      </trkpt>
      <trkpt lat="47.02066" lon="8.96741">
        <ele>860</ele>
        <time>2021-08-02T10:41:31.638Z</time>
      </trkpt>
      <trkpt lat="47.02065" lon="8.9674">
        <ele>860</ele>
        <time>2021-08-02T10:41:32.637Z</time>
      </trkpt>
      <trkpt lat="47.02065" lon="8.96738">
        <ele>860</ele>
        <time>2021-08-02T10:41:33.638Z</time>
      </trkpt>
      <trkpt lat="47.02064" lon="8.96737">
        <ele>860</ele>
        <time>2021-08-02T10:41:34.637Z</time>
      </trkpt>
      <trkpt lat="47.02063" lon="8.96736">
        <ele>860</ele>
        <time>2021-08-02T10:41:35.638Z</time>
      </trkpt>
      <trkpt lat="47.02062" lon="8.96734">
        <ele>860</ele>
        <time>2021-08-02T10:41:36.638Z</time>
      </trkpt>
      <trkpt lat="47.02061" lon="8.96733">
        <ele>860</ele>
        <time>2021-08-02T10:41:37.638Z</time>
      </trkpt>
      <trkpt lat="47.02059" lon="8.96731">
        <ele>860</ele>
        <time>2021-08-02T10:41:38.637Z</time>
      </trkpt>
      <trkpt lat="47.02057" lon="8.9673">
        <ele>860</ele>
        <time>2021-08-02T10:41:39.637Z</time>
      </trkpt>
      <trkpt lat="47.02056" lon="8.96729">
        <ele>860</ele>
        <time>2021-08-02T10:41:40.638Z</time>
      </trkpt>
      <trkpt lat="47.02056" lon="8.96728">
        <ele>860</ele>
        <time>2021-08-02T10:41:41.637Z</time>
      </trkpt>
      <trkpt lat="47.02056" lon="8.96728">
        <ele>860</ele>
        <time>2021-08-02T10:41:42.637Z</time>
      </trkpt>
      <trkpt lat="47.02055" lon="8.96726">
        <ele>860</ele>
        <time>2021-08-02T10:41:43.637Z</time>
      </trkpt>
      <trkpt lat="47.02054" lon="8.96725">
        <ele>860</ele>
        <time>2021-08-02T10:41:44.637Z</time>
      </trkpt>
      <trkpt lat="47.02053" lon="8.96724">
        <ele>860</ele>
        <time>2021-08-02T10:41:45.638Z</time>
      </trkpt>
      <trkpt lat="47.02053" lon="8.96723">
        <ele>860</ele>
        <time>2021-08-02T10:41:46.638Z</time>
      </trkpt>
      <trkpt lat="47.02052" lon="8.96722">
        <ele>860</ele>
        <time>2021-08-02T10:41:47.637Z</time>
      </trkpt>
      <trkpt lat="47.02051" lon="8.96721">
        <ele>860</ele>
        <time>2021-08-02T10:41:48.638Z</time>
      </trkpt>
      <trkpt lat="47.0205" lon="8.9672">
        <ele>860</ele>
        <time>2021-08-02T10:41:49.638Z</time>
      </trkpt>
      <trkpt lat="47.02049" lon="8.96719">
        <ele>861</ele>
        <time>2021-08-02T10:41:50.637Z</time>
      </trkpt>
      <trkpt lat="47.02048" lon="8.96718">
        <ele>861</ele>
        <time>2021-08-02T10:41:51.638Z</time>
      </trkpt>
      <trkpt lat="47.02048" lon="8.96717">
        <ele>861</ele>
        <time>2021-08-02T10:41:52.638Z</time>
      </trkpt>
      <trkpt lat="47.02047" lon="8.96716">
        <ele>862</ele>
        <time>2021-08-02T10:41:53.637Z</time>
      </trkpt>
      <trkpt lat="47.02047" lon="8.96715">
        <ele>862</ele>
        <time>2021-08-02T10:41:54.637Z</time>
      </trkpt>
      <trkpt lat="47.02046" lon="8.96713">
        <ele>863</ele>
        <time>2021-08-02T10:41:55.638Z</time>
      </trkpt>
      <trkpt lat="47.02045" lon="8.96711">
        <ele>863</ele>
        <time>2021-08-02T10:41:56.638Z</time>
      </trkpt>
      <trkpt lat="47.02045" lon="8.96709">
        <ele>864</ele>
        <time>2021-08-02T10:41:57.638Z</time>
      </trkpt>
      <trkpt lat="47.02044" lon="8.96708">
        <ele>865</ele>
        <time>2021-08-02T10:41:58.637Z</time>
      </trkpt>
      <trkpt lat="47.02043" lon="8.96707">
        <ele>865</ele>
        <time>2021-08-02T10:41:59.638Z</time>
      </trkpt>
      <trkpt lat="47.02042" lon="8.96706">
        <ele>865</ele>
        <time>2021-08-02T10:42:00.638Z</time>
      </trkpt>
      <trkpt lat="47.02041" lon="8.96706">
        <ele>866</ele>
        <time>2021-08-02T10:42:05.659Z</time>
      </trkpt>
      <trkpt lat="47.0204" lon="8.96704">
        <ele>867</ele>
        <time>2021-08-02T10:42:08.390Z</time>
      </trkpt>
      <trkpt lat="47.02039" lon="8.96703">
        <ele>867</ele>
        <time>2021-08-02T10:42:17.184Z</time>
      </trkpt>
      <trkpt lat="47.02038" lon="8.96701">
        <ele>868</ele>
        <time>2021-08-02T10:42:18.184Z</time>
      </trkpt>
      <trkpt lat="47.02036" lon="8.96698">
        <ele>868</ele>
        <time>2021-08-02T10:42:19.185Z</time>
      </trkpt>
      <trkpt lat="47.02035" lon="8.96695">
        <ele>868</ele>
        <time>2021-08-02T10:42:20.185Z</time>
      </trkpt>
      <trkpt lat="47.02034" lon="8.96692">
        <ele>868</ele>
        <time>2021-08-02T10:42:35.322Z</time>
      </trkpt>
      <trkpt lat="47.02033" lon="8.9669">
        <ele>869</ele>
        <time>2021-08-02T10:42:36.322Z</time>
      </trkpt>
      <trkpt lat="47.02032" lon="8.96689">
        <ele>869</ele>
        <time>2021-08-02T10:42:37.322Z</time>
      </trkpt>
      <trkpt lat="47.02032" lon="8.96688">
        <ele>869</ele>
        <time>2021-08-02T10:42:38.322Z</time>
      </trkpt>
      <trkpt lat="47.02031" lon="8.96687">
        <ele>870</ele>
        <time>2021-08-02T10:42:39.322Z</time>
      </trkpt>
      <trkpt lat="47.0203" lon="8.96686">
        <ele>870</ele>
        <time>2021-08-02T10:42:40.321Z</time>
      </trkpt>
      <trkpt lat="47.02029" lon="8.96685">
        <ele>870</ele>
        <time>2021-08-02T10:42:41.321Z</time>
      </trkpt>
      <trkpt lat="47.02028" lon="8.96685">
        <ele>870</ele>
        <time>2021-08-02T10:42:42.321Z</time>
      </trkpt>
      <trkpt lat="47.02027" lon="8.96684">
        <ele>869</ele>
        <time>2021-08-02T10:42:43.321Z</time>
      </trkpt>
      <trkpt lat="47.02027" lon="8.96683">
        <ele>869</ele>
        <time>2021-08-02T10:42:44.322Z</time>
      </trkpt>
      <trkpt lat="47.02025" lon="8.96683">
        <ele>869</ele>
        <time>2021-08-02T10:42:46.420Z</time>
      </trkpt>
      <trkpt lat="47.02025" lon="8.96682">
        <ele>869</ele>
        <time>2021-08-02T10:42:47.420Z</time>
      </trkpt>
      <trkpt lat="47.02024" lon="8.96682">
        <ele>868</ele>
        <time>2021-08-02T10:42:48.420Z</time>
      </trkpt>
      <trkpt lat="47.02024" lon="8.96681">
        <ele>868</ele>
        <time>2021-08-02T10:42:49.419Z</time>
      </trkpt>
      <trkpt lat="47.02023" lon="8.96681">
        <ele>867</ele>
        <time>2021-08-02T10:42:50.419Z</time>
      </trkpt>
      <trkpt lat="47.02022" lon="8.96681">
        <ele>867</ele>
        <time>2021-08-02T10:42:51.420Z</time>
      </trkpt>
      <trkpt lat="47.02021" lon="8.96681">
        <ele>867</ele>
        <time>2021-08-02T10:42:52.420Z</time>
      </trkpt>
      <trkpt lat="47.0202" lon="8.9668">
        <ele>866</ele>
        <time>2021-08-02T10:43:26.549Z</time>
      </trkpt>
      <trkpt lat="47.02018" lon="8.96679">
        <ele>866</ele>
        <time>2021-08-02T10:43:27.549Z</time>
      </trkpt>
      <trkpt lat="47.02016" lon="8.96677">
        <ele>866</ele>
        <time>2021-08-02T10:43:29.413Z</time>
      </trkpt>
      <trkpt lat="47.02014" lon="8.96675">
        <ele>866</ele>
        <time>2021-08-02T10:43:30.413Z</time>
      </trkpt>
      <trkpt lat="47.02013" lon="8.96674">
        <ele>865</ele>
        <time>2021-08-02T10:43:31.413Z</time>
      </trkpt>
      <trkpt lat="47.02012" lon="8.96673">
        <ele>865</ele>
        <time>2021-08-02T10:43:32.412Z</time>
      </trkpt>
      <trkpt lat="47.02011" lon="8.96672">
        <ele>865</ele>
        <time>2021-08-02T10:43:33.412Z</time>
      </trkpt>
      <trkpt lat="47.0201" lon="8.96671">
        <ele>864</ele>
        <time>2021-08-02T10:43:34.413Z</time>
      </trkpt>
      <trkpt lat="47.02009" lon="8.9667">
        <ele>864</ele>
        <time>2021-08-02T10:43:35.413Z</time>
      </trkpt>
      <trkpt lat="47.02008" lon="8.96669">
        <ele>863</ele>
        <time>2021-08-02T10:43:36.413Z</time>
      </trkpt>
      <trkpt lat="47.02007" lon="8.96669">
        <ele>863</ele>
        <time>2021-08-02T10:43:37.413Z</time>
      </trkpt>
      <trkpt lat="47.02006" lon="8.96669">
        <ele>862</ele>
        <time>2021-08-02T10:43:38.412Z</time>
      </trkpt>
      <trkpt lat="47.02006" lon="8.96668">
        <ele>862</ele>
        <time>2021-08-02T10:43:39.413Z</time>
      </trkpt>
      <trkpt lat="47.02005" lon="8.96668">
        <ele>861</ele>
        <time>2021-08-02T10:43:40.413Z</time>
      </trkpt>
      <trkpt lat="47.02004" lon="8.96668">
        <ele>861</ele>
        <time>2021-08-02T10:43:41.413Z</time>
      </trkpt>
      <trkpt lat="47.02004" lon="8.96668">
        <ele>861</ele>
        <time>2021-08-02T10:43:42.413Z</time>
      </trkpt>
      <trkpt lat="47.02004" lon="8.96667">
        <ele>861</ele>
        <time>2021-08-02T10:43:43.412Z</time>
      </trkpt>
      <trkpt lat="47.02004" lon="8.96666">
        <ele>861</ele>
        <time>2021-08-02T10:43:44.413Z</time>
      </trkpt>
      <trkpt lat="47.02004" lon="8.96665">
        <ele>860</ele>
        <time>2021-08-02T10:43:45.412Z</time>
      </trkpt>
      <trkpt lat="47.02003" lon="8.96664">
        <ele>860</ele>
        <time>2021-08-02T10:43:46.413Z</time>
      </trkpt>
      <trkpt lat="47.02002" lon="8.96663">
        <ele>860</ele>
        <time>2021-08-02T10:43:47.413Z</time>
      </trkpt>
      <trkpt lat="47.02002" lon="8.96662">
        <ele>861</ele>
        <time>2021-08-02T10:43:48.413Z</time>
      </trkpt>
      <trkpt lat="47.02001" lon="8.9666">
        <ele>861</ele>
        <time>2021-08-02T10:43:49.412Z</time>
      </trkpt>
      <trkpt lat="47.02001" lon="8.96659">
        <ele>861</ele>
        <time>2021-08-02T10:43:50.412Z</time>
      </trkpt>
      <trkpt lat="47.02001" lon="8.96658">
        <ele>862</ele>
        <time>2021-08-02T10:43:51.412Z</time>
      </trkpt>
      <trkpt lat="47.02001" lon="8.96657">
        <ele>863</ele>
        <time>2021-08-02T10:43:52.412Z</time>
      </trkpt>
      <trkpt lat="47.02" lon="8.96656">
        <ele>863</ele>
        <time>2021-08-02T10:43:53.412Z</time>
      </trkpt>
      <trkpt lat="47.02" lon="8.96654">
        <ele>864</ele>
        <time>2021-08-02T10:43:54.413Z</time>
      </trkpt>
      <trkpt lat="47.01999" lon="8.96654">
        <ele>864</ele>
        <time>2021-08-02T10:43:55.412Z</time>
      </trkpt>
      <trkpt lat="47.01998" lon="8.96653">
        <ele>864</ele>
        <time>2021-08-02T10:43:56.413Z</time>
      </trkpt>
      <trkpt lat="47.01997" lon="8.96652">
        <ele>865</ele>
        <time>2021-08-02T10:43:57.413Z</time>
      </trkpt>
      <trkpt lat="47.01996" lon="8.96651">
        <ele>865</ele>
        <time>2021-08-02T10:43:58.413Z</time>
      </trkpt>
      <trkpt lat="47.01994" lon="8.9665">
        <ele>865</ele>
        <time>2021-08-02T10:43:59.412Z</time>
      </trkpt>
      <trkpt lat="47.01994" lon="8.96649">
        <ele>866</ele>
        <time>2021-08-02T10:44:00.413Z</time>
      </trkpt>
      <trkpt lat="47.01993" lon="8.96647">
        <ele>866</ele>
        <time>2021-08-02T10:44:01.412Z</time>
      </trkpt>
      <trkpt lat="47.01992" lon="8.96647">
        <ele>867</ele>
        <time>2021-08-02T10:44:02.413Z</time>
      </trkpt>
      <trkpt lat="47.0199" lon="8.96646">
        <ele>867</ele>
        <time>2021-08-02T10:44:03.413Z</time>
      </trkpt>
      <trkpt lat="47.01989" lon="8.96646">
        <ele>867</ele>
        <time>2021-08-02T10:44:04.413Z</time>
      </trkpt>
      <trkpt lat="47.01988" lon="8.96646">
        <ele>868</ele>
        <time>2021-08-02T10:44:05.413Z</time>
      </trkpt>
      <trkpt lat="47.01987" lon="8.96646">
        <ele>868</ele>
        <time>2021-08-02T10:44:06.413Z</time>
      </trkpt>
      <trkpt lat="47.01986" lon="8.96646">
        <ele>868</ele>
        <time>2021-08-02T10:44:07.413Z</time>
      </trkpt>
      <trkpt lat="47.01986" lon="8.96645">
        <ele>868</ele>
        <time>2021-08-02T10:44:08.413Z</time>
      </trkpt>
      <trkpt lat="47.01985" lon="8.96644">
        <ele>868</ele>
        <time>2021-08-02T10:44:09.413Z</time>
      </trkpt>
      <trkpt lat="47.01984" lon="8.96643">
        <ele>868</ele>
        <time>2021-08-02T10:44:10.413Z</time>
      </trkpt>
      <trkpt lat="47.01983" lon="8.96643">
        <ele>868</ele>
        <time>2021-08-02T10:44:11.413Z</time>
      </trkpt>
      <trkpt lat="47.01982" lon="8.96642">
        <ele>868</ele>
        <time>2021-08-02T10:44:12.413Z</time>
      </trkpt>
      <trkpt lat="47.0198" lon="8.96641">
        <ele>868</ele>
        <time>2021-08-02T10:44:13.413Z</time>
      </trkpt>
      <trkpt lat="47.01978" lon="8.96641">
        <ele>868</ele>
        <time>2021-08-02T10:44:14.413Z</time>
      </trkpt>
      <trkpt lat="47.01977" lon="8.96639">
        <ele>868</ele>
        <time>2021-08-02T10:44:15.413Z</time>
      </trkpt>
      <trkpt lat="47.01976" lon="8.96639">
        <ele>867</ele>
        <time>2021-08-02T10:44:16.413Z</time>
      </trkpt>
      <trkpt lat="47.01975" lon="8.96638">
        <ele>867</ele>
        <time>2021-08-02T10:44:17.413Z</time>
      </trkpt>
      <trkpt lat="47.01974" lon="8.96638">
        <ele>867</ele>
        <time>2021-08-02T10:44:18.413Z</time>
      </trkpt>
      <trkpt lat="47.01974" lon="8.96637">
        <ele>867</ele>
        <time>2021-08-02T10:44:19.413Z</time>
      </trkpt>
      <trkpt lat="47.01973" lon="8.96638">
        <ele>867</ele>
        <time>2021-08-02T10:44:20.413Z</time>
      </trkpt>
      <trkpt lat="47.01973" lon="8.96638">
        <ele>867</ele>
        <time>2021-08-02T10:44:21.413Z</time>
      </trkpt>
      <trkpt lat="47.01973" lon="8.96638">
        <ele>867</ele>
        <time>2021-08-02T10:44:22.412Z</time>
      </trkpt>
      <trkpt lat="47.01973" lon="8.96638">
        <ele>867</ele>
        <time>2021-08-02T10:44:23.412Z</time>
      </trkpt>
      <trkpt lat="47.01972" lon="8.96639">
        <ele>867</ele>
        <time>2021-08-02T10:44:24.412Z</time>
      </trkpt>
      <trkpt lat="47.01971" lon="8.9664">
        <ele>867</ele>
        <time>2021-08-02T10:44:25.412Z</time>
      </trkpt>
      <trkpt lat="47.01971" lon="8.9664">
        <ele>867</ele>
        <time>2021-08-02T10:44:26.412Z</time>
      </trkpt>
      <trkpt lat="47.0197" lon="8.96641">
        <ele>867</ele>
        <time>2021-08-02T10:44:27.412Z</time>
      </trkpt>
      <trkpt lat="47.01969" lon="8.96641">
        <ele>863</ele>
        <time>2021-08-02T10:44:28.413Z</time>
      </trkpt>
      <trkpt lat="47.01969" lon="8.96641">
        <ele>863</ele>
        <time>2021-08-02T10:44:29.412Z</time>
      </trkpt>
      <trkpt lat="47.01969" lon="8.9664">
        <ele>862</ele>
        <time>2021-08-02T10:44:30.412Z</time>
      </trkpt>
      <trkpt lat="47.01969" lon="8.9664">
        <ele>861</ele>
        <time>2021-08-02T10:44:31.412Z</time>
      </trkpt>
      <trkpt lat="47.01968" lon="8.9664">
        <ele>861</ele>
        <time>2021-08-02T10:44:32.413Z</time>
      </trkpt>
      <trkpt lat="47.01968" lon="8.96639">
        <ele>860</ele>
        <time>2021-08-02T10:44:33.413Z</time>
      </trkpt>
      <trkpt lat="47.01967" lon="8.96639">
        <ele>860</ele>
        <time>2021-08-02T10:44:34.412Z</time>
      </trkpt>
      <trkpt lat="47.01966" lon="8.96638">
        <ele>859</ele>
        <time>2021-08-02T10:44:35.413Z</time>
      </trkpt>
      <trkpt lat="47.01966" lon="8.96638">
        <ele>859</ele>
        <time>2021-08-02T10:44:36.413Z</time>
      </trkpt>
      <trkpt lat="47.01965" lon="8.96638">
        <ele>858</ele>
        <time>2021-08-02T10:44:37.413Z</time>
      </trkpt>
      <trkpt lat="47.01964" lon="8.96637">
        <ele>858</ele>
        <time>2021-08-02T10:44:38.413Z</time>
      </trkpt>
      <trkpt lat="47.01963" lon="8.96637">
        <ele>858</ele>
        <time>2021-08-02T10:44:39.413Z</time>
      </trkpt>
      <trkpt lat="47.01963" lon="8.96637">
        <ele>858</ele>
        <time>2021-08-02T10:44:40.413Z</time>
      </trkpt>
      <trkpt lat="47.01962" lon="8.96637">
        <ele>858</ele>
        <time>2021-08-02T10:44:41.412Z</time>
      </trkpt>
      <trkpt lat="47.01962" lon="8.96636">
        <ele>858</ele>
        <time>2021-08-02T10:44:42.413Z</time>
      </trkpt>
      <trkpt lat="47.01961" lon="8.96635">
        <ele>859</ele>
        <time>2021-08-02T10:44:43.413Z</time>
      </trkpt>
      <trkpt lat="47.01961" lon="8.96635">
        <ele>859</ele>
        <time>2021-08-02T10:44:44.413Z</time>
      </trkpt>
      <trkpt lat="47.0196" lon="8.96634">
        <ele>859</ele>
        <time>2021-08-02T10:44:45.412Z</time>
      </trkpt>
      <trkpt lat="47.01959" lon="8.96633">
        <ele>860</ele>
        <time>2021-08-02T10:44:46.412Z</time>
      </trkpt>
      <trkpt lat="47.01957" lon="8.96632">
        <ele>860</ele>
        <time>2021-08-02T10:44:47.413Z</time>
      </trkpt>
      <trkpt lat="47.01956" lon="8.96631">
        <ele>860</ele>
        <time>2021-08-02T10:44:48.413Z</time>
      </trkpt>
      <trkpt lat="47.01955" lon="8.96631">
        <ele>860</ele>
        <time>2021-08-02T10:44:49.413Z</time>
      </trkpt>
      <trkpt lat="47.01953" lon="8.96631">
        <ele>861</ele>
        <time>2021-08-02T10:44:50.412Z</time>
      </trkpt>
      <trkpt lat="47.01951" lon="8.9663">
        <ele>861</ele>
        <time>2021-08-02T10:44:51.413Z</time>
      </trkpt>
      <trkpt lat="47.0195" lon="8.9663">
        <ele>861</ele>
        <time>2021-08-02T10:44:52.413Z</time>
      </trkpt>
      <trkpt lat="47.01949" lon="8.96629">
        <ele>862</ele>
        <time>2021-08-02T10:44:53.413Z</time>
      </trkpt>
      <trkpt lat="47.01948" lon="8.96627">
        <ele>862</ele>
        <time>2021-08-02T10:44:54.413Z</time>
      </trkpt>
      <trkpt lat="47.01947" lon="8.96626">
        <ele>862</ele>
        <time>2021-08-02T10:44:55.412Z</time>
      </trkpt>
      <trkpt lat="47.01946" lon="8.96627">
        <ele>862</ele>
        <time>2021-08-02T10:44:56.413Z</time>
      </trkpt>
      <trkpt lat="47.01945" lon="8.96628">
        <ele>862</ele>
        <time>2021-08-02T10:44:57.412Z</time>
      </trkpt>
      <trkpt lat="47.01944" lon="8.96628">
        <ele>862</ele>
        <time>2021-08-02T10:44:58.413Z</time>
      </trkpt>
      <trkpt lat="47.01943" lon="8.96628">
        <ele>862</ele>
        <time>2021-08-02T10:44:59.412Z</time>
      </trkpt>
      <trkpt lat="47.01942" lon="8.96627">
        <ele>861</ele>
        <time>2021-08-02T10:45:00.412Z</time>
      </trkpt>
      <trkpt lat="47.01941" lon="8.96626">
        <ele>861</ele>
        <time>2021-08-02T10:45:01.412Z</time>
      </trkpt>
      <trkpt lat="47.0194" lon="8.96626">
        <ele>861</ele>
        <time>2021-08-02T10:45:02.412Z</time>
      </trkpt>
      <trkpt lat="47.0194" lon="8.96625">
        <ele>861</ele>
        <time>2021-08-02T10:45:03.413Z</time>
      </trkpt>
      <trkpt lat="47.01939" lon="8.96625">
        <ele>860</ele>
        <time>2021-08-02T10:45:04.413Z</time>
      </trkpt>
      <trkpt lat="47.01938" lon="8.96624">
        <ele>860</ele>
        <time>2021-08-02T10:45:05.413Z</time>
      </trkpt>
      <trkpt lat="47.01937" lon="8.96624">
        <ele>860</ele>
        <time>2021-08-02T10:45:06.413Z</time>
      </trkpt>
      <trkpt lat="47.01937" lon="8.96624">
        <ele>859</ele>
        <time>2021-08-02T10:45:07.413Z</time>
      </trkpt>
      <trkpt lat="47.01936" lon="8.96624">
        <ele>859</ele>
        <time>2021-08-02T10:45:08.413Z</time>
      </trkpt>
      <trkpt lat="47.01935" lon="8.96624">
        <ele>859</ele>
        <time>2021-08-02T10:45:09.413Z</time>
      </trkpt>
      <trkpt lat="47.01934" lon="8.96622">
        <ele>858</ele>
        <time>2021-08-02T10:45:10.413Z</time>
      </trkpt>
      <trkpt lat="47.01933" lon="8.96621">
        <ele>858</ele>
        <time>2021-08-02T10:45:11.412Z</time>
      </trkpt>
      <trkpt lat="47.01933" lon="8.9662">
        <ele>858</ele>
        <time>2021-08-02T10:45:12.413Z</time>
      </trkpt>
      <trkpt lat="47.01933" lon="8.9662">
        <ele>858</ele>
        <time>2021-08-02T10:45:13.412Z</time>
      </trkpt>
      <trkpt lat="47.01932" lon="8.96619">
        <ele>857</ele>
        <time>2021-08-02T10:45:14.412Z</time>
      </trkpt>
      <trkpt lat="47.0193" lon="8.96619">
        <ele>857</ele>
        <time>2021-08-02T10:45:15.413Z</time>
      </trkpt>
      <trkpt lat="47.01929" lon="8.96618">
        <ele>857</ele>
        <time>2021-08-02T10:45:16.413Z</time>
      </trkpt>
      <trkpt lat="47.01929" lon="8.96618">
        <ele>857</ele>
        <time>2021-08-02T10:45:17.412Z</time>
      </trkpt>
      <trkpt lat="47.01929" lon="8.96617">
        <ele>857</ele>
        <time>2021-08-02T10:45:18.412Z</time>
      </trkpt>
      <trkpt lat="47.01928" lon="8.96615">
        <ele>857</ele>
        <time>2021-08-02T10:45:19.413Z</time>
      </trkpt>
      <trkpt lat="47.01928" lon="8.96614">
        <ele>857</ele>
        <time>2021-08-02T10:45:20.412Z</time>
      </trkpt>
      <trkpt lat="47.01927" lon="8.96614">
        <ele>857</ele>
        <time>2021-08-02T10:45:21.412Z</time>
      </trkpt>
      <trkpt lat="47.01927" lon="8.96613">
        <ele>857</ele>
        <time>2021-08-02T10:45:22.413Z</time>
      </trkpt>
      <trkpt lat="47.01926" lon="8.96613">
        <ele>858</ele>
        <time>2021-08-02T10:45:23.412Z</time>
      </trkpt>
      <trkpt lat="47.01925" lon="8.96612">
        <ele>858</ele>
        <time>2021-08-02T10:45:24.413Z</time>
      </trkpt>
      <trkpt lat="47.01924" lon="8.96612">
        <ele>858</ele>
        <time>2021-08-02T10:45:25.413Z</time>
      </trkpt>
      <trkpt lat="47.01924" lon="8.96611">
        <ele>859</ele>
        <time>2021-08-02T10:45:26.413Z</time>
      </trkpt>
      <trkpt lat="47.01924" lon="8.9661">
        <ele>859</ele>
        <time>2021-08-02T10:45:27.413Z</time>
      </trkpt>
      <trkpt lat="47.01924" lon="8.96611">
        <ele>860</ele>
        <time>2021-08-02T10:45:28.413Z</time>
      </trkpt>
      <trkpt lat="47.01924" lon="8.9661">
        <ele>861</ele>
        <time>2021-08-02T10:45:29.413Z</time>
      </trkpt>
      <trkpt lat="47.01925" lon="8.9661">
        <ele>861</ele>
        <time>2021-08-02T10:45:30.413Z</time>
      </trkpt>
      <trkpt lat="47.01924" lon="8.96608">
        <ele>863</ele>
        <time>2021-08-02T10:45:31.414Z</time>
      </trkpt>
      <trkpt lat="47.01924" lon="8.96608">
        <ele>863</ele>
        <time>2021-08-02T10:45:32.414Z</time>
      </trkpt>
      <trkpt lat="47.01923" lon="8.96608">
        <ele>864</ele>
        <time>2021-08-02T10:45:33.413Z</time>
      </trkpt>
      <trkpt lat="47.01922" lon="8.96608">
        <ele>864</ele>
        <time>2021-08-02T10:45:34.414Z</time>
      </trkpt>
      <trkpt lat="47.01922" lon="8.96607">
        <ele>865</ele>
        <time>2021-08-02T10:45:35.413Z</time>
      </trkpt>
      <trkpt lat="47.01921" lon="8.96606">
        <ele>865</ele>
        <time>2021-08-02T10:45:36.414Z</time>
      </trkpt>
      <trkpt lat="47.0192" lon="8.96605">
        <ele>866</ele>
        <time>2021-08-02T10:45:37.413Z</time>
      </trkpt>
      <trkpt lat="47.0192" lon="8.96604">
        <ele>866</ele>
        <time>2021-08-02T10:45:38.414Z</time>
      </trkpt>
      <trkpt lat="47.0192" lon="8.96603">
        <ele>866</ele>
        <time>2021-08-02T10:45:39.414Z</time>
      </trkpt>
      <trkpt lat="47.0192" lon="8.96603">
        <ele>866</ele>
        <time>2021-08-02T10:45:40.413Z</time>
      </trkpt>
      <trkpt lat="47.01919" lon="8.96602">
        <ele>866</ele>
        <time>2021-08-02T10:45:41.413Z</time>
      </trkpt>
      <trkpt lat="47.01918" lon="8.96602">
        <ele>866</ele>
        <time>2021-08-02T10:45:42.413Z</time>
      </trkpt>
      <trkpt lat="47.01917" lon="8.96602">
        <ele>866</ele>
        <time>2021-08-02T10:45:43.413Z</time>
      </trkpt>
      <trkpt lat="47.01918" lon="8.96602">
        <ele>866</ele>
        <time>2021-08-02T10:45:44.413Z</time>
      </trkpt>
      <trkpt lat="47.01918" lon="8.96603">
        <ele>866</ele>
        <time>2021-08-02T10:45:45.413Z</time>
      </trkpt>
      <trkpt lat="47.01917" lon="8.96604">
        <ele>866</ele>
        <time>2021-08-02T10:45:46.413Z</time>
      </trkpt>
      <trkpt lat="47.01917" lon="8.96605">
        <ele>866</ele>
        <time>2021-08-02T10:45:47.414Z</time>
      </trkpt>
      <trkpt lat="47.01917" lon="8.96605">
        <ele>867</ele>
        <time>2021-08-02T10:45:48.414Z</time>
      </trkpt>
      <trkpt lat="47.01918" lon="8.96605">
        <ele>868</ele>
        <time>2021-08-02T10:45:49.414Z</time>
      </trkpt>
      <trkpt lat="47.01919" lon="8.96606">
        <ele>868</ele>
        <time>2021-08-02T10:45:50.414Z</time>
      </trkpt>
      <trkpt lat="47.01919" lon="8.96605">
        <ele>869</ele>
        <time>2021-08-02T10:45:51.413Z</time>
      </trkpt>
      <trkpt lat="47.01918" lon="8.96605">
        <ele>870</ele>
        <time>2021-08-02T10:45:52.414Z</time>
      </trkpt>
      <trkpt lat="47.01918" lon="8.96604">
        <ele>870</ele>
        <time>2021-08-02T10:45:53.414Z</time>
      </trkpt>
      <trkpt lat="47.01917" lon="8.96604">
        <ele>871</ele>
        <time>2021-08-02T10:45:54.414Z</time>
      </trkpt>
      <trkpt lat="47.01917" lon="8.96604">
        <ele>871</ele>
        <time>2021-08-02T10:45:55.413Z</time>
      </trkpt>
      <trkpt lat="47.01915" lon="8.96603">
        <ele>871</ele>
        <time>2021-08-02T10:45:56.414Z</time>
      </trkpt>
      <trkpt lat="47.01915" lon="8.96602">
        <ele>871</ele>
        <time>2021-08-02T10:45:57.413Z</time>
      </trkpt>
      <trkpt lat="47.01914" lon="8.96602">
        <ele>872</ele>
        <time>2021-08-02T10:45:58.414Z</time>
      </trkpt>
      <trkpt lat="47.01913" lon="8.96601">
        <ele>872</ele>
        <time>2021-08-02T10:45:59.414Z</time>
      </trkpt>
      <trkpt lat="47.01912" lon="8.96601">
        <ele>872</ele>
        <time>2021-08-02T10:46:00.414Z</time>
      </trkpt>
      <trkpt lat="47.01911" lon="8.96601">
        <ele>872</ele>
        <time>2021-08-02T10:46:01.414Z</time>
      </trkpt>
      <trkpt lat="47.0191" lon="8.96601">
        <ele>872</ele>
        <time>2021-08-02T10:46:02.414Z</time>
      </trkpt>
      <trkpt lat="47.01909" lon="8.96601">
        <ele>872</ele>
        <time>2021-08-02T10:46:03.414Z</time>
      </trkpt>
      <trkpt lat="47.01908" lon="8.966">
        <ele>872</ele>
        <time>2021-08-02T10:46:04.414Z</time>
      </trkpt>
      <trkpt lat="47.01907" lon="8.966">
        <ele>872</ele>
        <time>2021-08-02T10:46:05.414Z</time>
      </trkpt>
      <trkpt lat="47.01907" lon="8.96599">
        <ele>871</ele>
        <time>2021-08-02T10:46:06.414Z</time>
      </trkpt>
      <trkpt lat="47.01907" lon="8.96598">
        <ele>871</ele>
        <time>2021-08-02T10:46:07.414Z</time>
      </trkpt>
      <trkpt lat="47.01907" lon="8.96598">
        <ele>870</ele>
        <time>2021-08-02T10:46:08.413Z</time>
      </trkpt>
      <trkpt lat="47.01906" lon="8.96596">
        <ele>869</ele>
        <time>2021-08-02T10:46:09.414Z</time>
      </trkpt>
      <trkpt lat="47.01906" lon="8.96595">
        <ele>869</ele>
        <time>2021-08-02T10:46:10.413Z</time>
      </trkpt>
      <trkpt lat="47.01906" lon="8.96593">
        <ele>868</ele>
        <time>2021-08-02T10:46:11.414Z</time>
      </trkpt>
      <trkpt lat="47.01905" lon="8.96592">
        <ele>868</ele>
        <time>2021-08-02T10:46:12.414Z</time>
      </trkpt>
      <trkpt lat="47.01905" lon="8.96591">
        <ele>867</ele>
        <time>2021-08-02T10:46:13.413Z</time>
      </trkpt>
      <trkpt lat="47.01903" lon="8.96588">
        <ele>867</ele>
        <time>2021-08-02T10:46:14.414Z</time>
      </trkpt>
      <trkpt lat="47.01902" lon="8.96585">
        <ele>867</ele>
        <time>2021-08-02T10:46:15.414Z</time>
      </trkpt>
      <trkpt lat="47.01902" lon="8.96582">
        <ele>866</ele>
        <time>2021-08-02T10:46:16.414Z</time>
      </trkpt>
      <trkpt lat="47.01901" lon="8.9658">
        <ele>866</ele>
        <time>2021-08-02T10:46:17.413Z</time>
      </trkpt>
      <trkpt lat="47.019" lon="8.96577">
        <ele>866</ele>
        <time>2021-08-02T10:46:18.414Z</time>
      </trkpt>
      <trkpt lat="47.01899" lon="8.96575">
        <ele>866</ele>
        <time>2021-08-02T10:46:19.414Z</time>
      </trkpt>
      <trkpt lat="47.01899" lon="8.96573">
        <ele>866</ele>
        <time>2021-08-02T10:46:20.414Z</time>
      </trkpt>
      <trkpt lat="47.01899" lon="8.96572">
        <ele>866</ele>
        <time>2021-08-02T10:46:21.413Z</time>
      </trkpt>
      <trkpt lat="47.019" lon="8.96571">
        <ele>866</ele>
        <time>2021-08-02T10:46:22.414Z</time>
      </trkpt>
      <trkpt lat="47.01899" lon="8.96571">
        <ele>866</ele>
        <time>2021-08-02T10:46:23.414Z</time>
      </trkpt>
      <trkpt lat="47.01899" lon="8.9657">
        <ele>865</ele>
        <time>2021-08-02T10:46:24.413Z</time>
      </trkpt>
      <trkpt lat="47.01898" lon="8.96569">
        <ele>865</ele>
        <time>2021-08-02T10:46:25.413Z</time>
      </trkpt>
      <trkpt lat="47.01896" lon="8.96568">
        <ele>865</ele>
        <time>2021-08-02T10:46:26.414Z</time>
      </trkpt>
      <trkpt lat="47.01894" lon="8.96567">
        <ele>865</ele>
        <time>2021-08-02T10:46:27.413Z</time>
      </trkpt>
      <trkpt lat="47.01893" lon="8.96566">
        <ele>865</ele>
        <time>2021-08-02T10:46:28.414Z</time>
      </trkpt>
      <trkpt lat="47.01892" lon="8.96565">
        <ele>864</ele>
        <time>2021-08-02T10:46:29.413Z</time>
      </trkpt>
      <trkpt lat="47.01891" lon="8.96563">
        <ele>864</ele>
        <time>2021-08-02T10:46:30.414Z</time>
      </trkpt>
      <trkpt lat="47.01891" lon="8.96562">
        <ele>864</ele>
        <time>2021-08-02T10:46:31.413Z</time>
      </trkpt>
      <trkpt lat="47.01891" lon="8.96561">
        <ele>863</ele>
        <time>2021-08-02T10:46:32.414Z</time>
      </trkpt>
      <trkpt lat="47.01891" lon="8.96559">
        <ele>863</ele>
        <time>2021-08-02T10:46:33.413Z</time>
      </trkpt>
      <trkpt lat="47.01891" lon="8.96558">
        <ele>863</ele>
        <time>2021-08-02T10:46:34.414Z</time>
      </trkpt>
      <trkpt lat="47.0189" lon="8.96556">
        <ele>863</ele>
        <time>2021-08-02T10:46:35.414Z</time>
      </trkpt>
      <trkpt lat="47.0189" lon="8.96554">
        <ele>863</ele>
        <time>2021-08-02T10:46:36.414Z</time>
      </trkpt>
      <trkpt lat="47.01889" lon="8.96552">
        <ele>863</ele>
        <time>2021-08-02T10:46:37.414Z</time>
      </trkpt>
      <trkpt lat="47.01888" lon="8.9655">
        <ele>863</ele>
        <time>2021-08-02T10:46:38.414Z</time>
      </trkpt>
      <trkpt lat="47.01886" lon="8.96549">
        <ele>863</ele>
        <time>2021-08-02T10:46:39.414Z</time>
      </trkpt>
      <trkpt lat="47.01885" lon="8.96548">
        <ele>863</ele>
        <time>2021-08-02T10:46:40.414Z</time>
      </trkpt>
      <trkpt lat="47.01884" lon="8.96547">
        <ele>863</ele>
        <time>2021-08-02T10:46:41.414Z</time>
      </trkpt>
      <trkpt lat="47.01885" lon="8.96545">
        <ele>863</ele>
        <time>2021-08-02T10:46:42.414Z</time>
      </trkpt>
      <trkpt lat="47.01886" lon="8.96544">
        <ele>863</ele>
        <time>2021-08-02T10:46:43.414Z</time>
      </trkpt>
      <trkpt lat="47.01887" lon="8.96542">
        <ele>862</ele>
        <time>2021-08-02T10:46:44.414Z</time>
      </trkpt>
      <trkpt lat="47.01888" lon="8.96541">
        <ele>862</ele>
        <time>2021-08-02T10:46:45.414Z</time>
      </trkpt>
      <trkpt lat="47.01889" lon="8.9654">
        <ele>862</ele>
        <time>2021-08-02T10:46:46.413Z</time>
      </trkpt>
      <trkpt lat="47.01888" lon="8.96538">
        <ele>861</ele>
        <time>2021-08-02T10:46:47.414Z</time>
      </trkpt>
      <trkpt lat="47.01888" lon="8.96537">
        <ele>861</ele>
        <time>2021-08-02T10:46:48.413Z</time>
      </trkpt>
      <trkpt lat="47.01887" lon="8.96536">
        <ele>861</ele>
        <time>2021-08-02T10:46:49.414Z</time>
      </trkpt>
      <trkpt lat="47.01886" lon="8.96535">
        <ele>860</ele>
        <time>2021-08-02T10:46:50.414Z</time>
      </trkpt>
      <trkpt lat="47.01885" lon="8.96534">
        <ele>859</ele>
        <time>2021-08-02T10:46:51.414Z</time>
      </trkpt>
      <trkpt lat="47.01885" lon="8.96533">
        <ele>859</ele>
        <time>2021-08-02T10:46:52.413Z</time>
      </trkpt>
      <trkpt lat="47.01886" lon="8.96531">
        <ele>858</ele>
        <time>2021-08-02T10:46:53.414Z</time>
      </trkpt>
      <trkpt lat="47.01886" lon="8.9653">
        <ele>858</ele>
        <time>2021-08-02T10:46:54.413Z</time>
      </trkpt>
      <trkpt lat="47.01885" lon="8.96529">
        <ele>858</ele>
        <time>2021-08-02T10:46:55.414Z</time>
      </trkpt>
      <trkpt lat="47.01885" lon="8.96529">
        <ele>857</ele>
        <time>2021-08-02T10:46:56.413Z</time>
      </trkpt>
      <trkpt lat="47.01885" lon="8.96529">
        <ele>857</ele>
        <time>2021-08-02T10:46:57.414Z</time>
      </trkpt>
      <trkpt lat="47.01885" lon="8.96529">
        <ele>857</ele>
        <time>2021-08-02T10:46:58.414Z</time>
      </trkpt>
      <trkpt lat="47.01886" lon="8.96528">
        <ele>859</ele>
        <time>2021-08-02T10:46:59.413Z</time>
      </trkpt>
      <trkpt lat="47.01886" lon="8.96527">
        <ele>860</ele>
        <time>2021-08-02T10:47:00.414Z</time>
      </trkpt>
      <trkpt lat="47.01886" lon="8.96526">
        <ele>860</ele>
        <time>2021-08-02T10:47:01.413Z</time>
      </trkpt>
      <trkpt lat="47.01886" lon="8.96525">
        <ele>861</ele>
        <time>2021-08-02T10:47:02.413Z</time>
      </trkpt>
      <trkpt lat="47.01886" lon="8.96524">
        <ele>861</ele>
        <time>2021-08-02T10:47:03.413Z</time>
      </trkpt>
      <trkpt lat="47.01885" lon="8.96522">
        <ele>861</ele>
        <time>2021-08-02T10:47:04.414Z</time>
      </trkpt>
      <trkpt lat="47.01884" lon="8.96521">
        <ele>861</ele>
        <time>2021-08-02T10:47:05.413Z</time>
      </trkpt>
      <trkpt lat="47.01884" lon="8.96519">
        <ele>861</ele>
        <time>2021-08-02T10:47:06.414Z</time>
      </trkpt>
      <trkpt lat="47.01883" lon="8.96517">
        <ele>861</ele>
        <time>2021-08-02T10:47:07.413Z</time>
      </trkpt>
      <trkpt lat="47.01883" lon="8.96515">
        <ele>861</ele>
        <time>2021-08-02T10:47:08.413Z</time>
      </trkpt>
      <trkpt lat="47.01883" lon="8.96513">
        <ele>861</ele>
        <time>2021-08-02T10:47:09.413Z</time>
      </trkpt>
      <trkpt lat="47.01883" lon="8.96511">
        <ele>860</ele>
        <time>2021-08-02T10:47:10.414Z</time>
      </trkpt>
      <trkpt lat="47.01883" lon="8.96509">
        <ele>860</ele>
        <time>2021-08-02T10:47:11.414Z</time>
      </trkpt>
      <trkpt lat="47.01884" lon="8.96507">
        <ele>859</ele>
        <time>2021-08-02T10:47:12.414Z</time>
      </trkpt>
      <trkpt lat="47.01885" lon="8.96505">
        <ele>859</ele>
        <time>2021-08-02T10:47:13.414Z</time>
      </trkpt>
      <trkpt lat="47.01885" lon="8.96502">
        <ele>858</ele>
        <time>2021-08-02T10:47:14.414Z</time>
      </trkpt>
      <trkpt lat="47.01886" lon="8.965">
        <ele>858</ele>
        <time>2021-08-02T10:47:15.414Z</time>
      </trkpt>
      <trkpt lat="47.01886" lon="8.96498">
        <ele>858</ele>
        <time>2021-08-02T10:47:16.413Z</time>
      </trkpt>
      <trkpt lat="47.01886" lon="8.96496">
        <ele>857</ele>
        <time>2021-08-02T10:47:17.413Z</time>
      </trkpt>
      <trkpt lat="47.01886" lon="8.96495">
        <ele>857</ele>
        <time>2021-08-02T10:47:18.413Z</time>
      </trkpt>
      <trkpt lat="47.01887" lon="8.96494">
        <ele>857</ele>
        <time>2021-08-02T10:47:19.414Z</time>
      </trkpt>
      <trkpt lat="47.0189" lon="8.96491">
        <ele>856</ele>
        <time>2021-08-02T10:47:20.413Z</time>
      </trkpt>
      <trkpt lat="47.0189" lon="8.9649">
        <ele>856</ele>
        <time>2021-08-02T10:47:21.414Z</time>
      </trkpt>
      <trkpt lat="47.01889" lon="8.9649">
        <ele>856</ele>
        <time>2021-08-02T10:47:22.413Z</time>
      </trkpt>
      <trkpt lat="47.0189" lon="8.96489">
        <ele>856</ele>
        <time>2021-08-02T10:47:23.414Z</time>
      </trkpt>
      <trkpt lat="47.0189" lon="8.96487">
        <ele>856</ele>
        <time>2021-08-02T10:47:24.414Z</time>
      </trkpt>
      <trkpt lat="47.0189" lon="8.96486">
        <ele>856</ele>
        <time>2021-08-02T10:47:25.414Z</time>
      </trkpt>
      <trkpt lat="47.0189" lon="8.96485">
        <ele>856</ele>
        <time>2021-08-02T10:47:26.414Z</time>
      </trkpt>
      <trkpt lat="47.0189" lon="8.96484">
        <ele>856</ele>
        <time>2021-08-02T10:47:27.414Z</time>
      </trkpt>
      <trkpt lat="47.0189" lon="8.96482">
        <ele>856</ele>
        <time>2021-08-02T10:47:28.413Z</time>
      </trkpt>
      <trkpt lat="47.01891" lon="8.96481">
        <ele>856</ele>
        <time>2021-08-02T10:47:29.413Z</time>
      </trkpt>
      <trkpt lat="47.01891" lon="8.96479">
        <ele>856</ele>
        <time>2021-08-02T10:47:30.413Z</time>
      </trkpt>
      <trkpt lat="47.01891" lon="8.96478">
        <ele>856</ele>
        <time>2021-08-02T10:47:31.414Z</time>
      </trkpt>
      <trkpt lat="47.01891" lon="8.96476">
        <ele>856</ele>
        <time>2021-08-02T10:47:32.414Z</time>
      </trkpt>
      <trkpt lat="47.01891" lon="8.96474">
        <ele>855</ele>
        <time>2021-08-02T10:47:33.414Z</time>
      </trkpt>
      <trkpt lat="47.0189" lon="8.96473">
        <ele>855</ele>
        <time>2021-08-02T10:47:34.414Z</time>
      </trkpt>
      <trkpt lat="47.01888" lon="8.96471">
        <ele>855</ele>
        <time>2021-08-02T10:47:35.413Z</time>
      </trkpt>
      <trkpt lat="47.01888" lon="8.9647">
        <ele>854</ele>
        <time>2021-08-02T10:47:36.414Z</time>
      </trkpt>
      <trkpt lat="47.01888" lon="8.96469">
        <ele>855</ele>
        <time>2021-08-02T10:47:37.413Z</time>
      </trkpt>
      <trkpt lat="47.01888" lon="8.96469">
        <ele>855</ele>
        <time>2021-08-02T10:47:38.413Z</time>
      </trkpt>
      <trkpt lat="47.01888" lon="8.96468">
        <ele>855</ele>
        <time>2021-08-02T10:47:39.414Z</time>
      </trkpt>
      <trkpt lat="47.01889" lon="8.96467">
        <ele>856</ele>
        <time>2021-08-02T10:47:40.414Z</time>
      </trkpt>
      <trkpt lat="47.0189" lon="8.96465">
        <ele>856</ele>
        <time>2021-08-02T10:47:41.414Z</time>
      </trkpt>
      <trkpt lat="47.01891" lon="8.96464">
        <ele>856</ele>
        <time>2021-08-02T10:47:42.413Z</time>
      </trkpt>
      <trkpt lat="47.01891" lon="8.96463">
        <ele>856</ele>
        <time>2021-08-02T10:47:43.414Z</time>
      </trkpt>
      <trkpt lat="47.01891" lon="8.96461">
        <ele>856</ele>
        <time>2021-08-02T10:47:44.414Z</time>
      </trkpt>
      <trkpt lat="47.01891" lon="8.9646">
        <ele>856</ele>
        <time>2021-08-02T10:47:45.414Z</time>
      </trkpt>
      <trkpt lat="47.01891" lon="8.96459">
        <ele>856</ele>
        <time>2021-08-02T10:47:46.414Z</time>
      </trkpt>
      <trkpt lat="47.0189" lon="8.96458">
        <ele>855</ele>
        <time>2021-08-02T10:47:47.414Z</time>
      </trkpt>
      <trkpt lat="47.0189" lon="8.96456">
        <ele>854</ele>
        <time>2021-08-02T10:47:48.414Z</time>
      </trkpt>
      <trkpt lat="47.0189" lon="8.96455">
        <ele>854</ele>
        <time>2021-08-02T10:47:49.414Z</time>
      </trkpt>
      <trkpt lat="47.01889" lon="8.96454">
        <ele>853</ele>
        <time>2021-08-02T10:47:50.414Z</time>
      </trkpt>
      <trkpt lat="47.0189" lon="8.96453">
        <ele>853</ele>
        <time>2021-08-02T10:47:51.414Z</time>
      </trkpt>
      <trkpt lat="47.01889" lon="8.96451">
        <ele>852</ele>
        <time>2021-08-02T10:47:52.414Z</time>
      </trkpt>
      <trkpt lat="47.0189" lon="8.9645">
        <ele>852</ele>
        <time>2021-08-02T10:47:53.413Z</time>
      </trkpt>
      <trkpt lat="47.01889" lon="8.96449">
        <ele>851</ele>
        <time>2021-08-02T10:47:54.414Z</time>
      </trkpt>
      <trkpt lat="47.01888" lon="8.96448">
        <ele>851</ele>
        <time>2021-08-02T10:47:55.413Z</time>
      </trkpt>
      <trkpt lat="47.01888" lon="8.96447">
        <ele>850</ele>
        <time>2021-08-02T10:47:56.414Z</time>
      </trkpt>
      <trkpt lat="47.01887" lon="8.96445">
        <ele>849</ele>
        <time>2021-08-02T10:47:57.414Z</time>
      </trkpt>
      <trkpt lat="47.01887" lon="8.96444">
        <ele>849</ele>
        <time>2021-08-02T10:47:58.414Z</time>
      </trkpt>
      <trkpt lat="47.01887" lon="8.96442">
        <ele>849</ele>
        <time>2021-08-02T10:47:59.413Z</time>
      </trkpt>
      <trkpt lat="47.01887" lon="8.96442">
        <ele>849</ele>
        <time>2021-08-02T10:48:00.414Z</time>
      </trkpt>
      <trkpt lat="47.01887" lon="8.96441">
        <ele>850</ele>
        <time>2021-08-02T10:48:01.413Z</time>
      </trkpt>
      <trkpt lat="47.01887" lon="8.9644">
        <ele>850</ele>
        <time>2021-08-02T10:48:02.414Z</time>
      </trkpt>
      <trkpt lat="47.01887" lon="8.96439">
        <ele>851</ele>
        <time>2021-08-02T10:48:03.413Z</time>
      </trkpt>
      <trkpt lat="47.01887" lon="8.96438">
        <ele>851</ele>
        <time>2021-08-02T10:48:04.414Z</time>
      </trkpt>
      <trkpt lat="47.01887" lon="8.96436">
        <ele>851</ele>
        <time>2021-08-02T10:48:05.414Z</time>
      </trkpt>
      <trkpt lat="47.01888" lon="8.96435">
        <ele>851</ele>
        <time>2021-08-02T10:48:06.414Z</time>
      </trkpt>
      <trkpt lat="47.01888" lon="8.96433">
        <ele>852</ele>
        <time>2021-08-02T10:48:07.413Z</time>
      </trkpt>
      <trkpt lat="47.01889" lon="8.96432">
        <ele>852</ele>
        <time>2021-08-02T10:48:08.413Z</time>
      </trkpt>
      <trkpt lat="47.01888" lon="8.9643">
        <ele>852</ele>
        <time>2021-08-02T10:48:09.414Z</time>
      </trkpt>
      <trkpt lat="47.01888" lon="8.96429">
        <ele>852</ele>
        <time>2021-08-02T10:48:10.414Z</time>
      </trkpt>
      <trkpt lat="47.01887" lon="8.96428">
        <ele>851</ele>
        <time>2021-08-02T10:48:11.414Z</time>
      </trkpt>
      <trkpt lat="47.01887" lon="8.96426">
        <ele>851</ele>
        <time>2021-08-02T10:48:12.414Z</time>
      </trkpt>
      <trkpt lat="47.01886" lon="8.96424">
        <ele>851</ele>
        <time>2021-08-02T10:48:13.413Z</time>
      </trkpt>
      <trkpt lat="47.01885" lon="8.96422">
        <ele>850</ele>
        <time>2021-08-02T10:48:14.414Z</time>
      </trkpt>
      <trkpt lat="47.01887" lon="8.96421">
        <ele>850</ele>
        <time>2021-08-02T10:48:15.414Z</time>
      </trkpt>
      <trkpt lat="47.01887" lon="8.96419">
        <ele>850</ele>
        <time>2021-08-02T10:48:16.413Z</time>
      </trkpt>
      <trkpt lat="47.01887" lon="8.96418">
        <ele>850</ele>
        <time>2021-08-02T10:48:17.413Z</time>
      </trkpt>
      <trkpt lat="47.01887" lon="8.96416">
        <ele>849</ele>
        <time>2021-08-02T10:48:18.414Z</time>
      </trkpt>
      <trkpt lat="47.01887" lon="8.96414">
        <ele>849</ele>
        <time>2021-08-02T10:48:19.414Z</time>
      </trkpt>
      <trkpt lat="47.01887" lon="8.96413">
        <ele>849</ele>
        <time>2021-08-02T10:48:20.413Z</time>
      </trkpt>
      <trkpt lat="47.01887" lon="8.96411">
        <ele>849</ele>
        <time>2021-08-02T10:48:21.414Z</time>
      </trkpt>
      <trkpt lat="47.01888" lon="8.9641">
        <ele>849</ele>
        <time>2021-08-02T10:48:22.414Z</time>
      </trkpt>
      <trkpt lat="47.01887" lon="8.96409">
        <ele>849</ele>
        <time>2021-08-02T10:48:23.413Z</time>
      </trkpt>
      <trkpt lat="47.01887" lon="8.96408">
        <ele>849</ele>
        <time>2021-08-02T10:48:24.414Z</time>
      </trkpt>
      <trkpt lat="47.01887" lon="8.96406">
        <ele>848</ele>
        <time>2021-08-02T10:48:25.414Z</time>
      </trkpt>
      <trkpt lat="47.01888" lon="8.96404">
        <ele>848</ele>
        <time>2021-08-02T10:48:26.414Z</time>
      </trkpt>
      <trkpt lat="47.01888" lon="8.96401">
        <ele>848</ele>
        <time>2021-08-02T10:48:27.413Z</time>
      </trkpt>
      <trkpt lat="47.01889" lon="8.964">
        <ele>848</ele>
        <time>2021-08-02T10:48:28.413Z</time>
      </trkpt>
      <trkpt lat="47.01888" lon="8.96398">
        <ele>848</ele>
        <time>2021-08-02T10:48:29.414Z</time>
      </trkpt>
      <trkpt lat="47.01888" lon="8.96397">
        <ele>848</ele>
        <time>2021-08-02T10:48:30.413Z</time>
      </trkpt>
      <trkpt lat="47.01887" lon="8.96396">
        <ele>847</ele>
        <time>2021-08-02T10:48:31.414Z</time>
      </trkpt>
      <trkpt lat="47.01887" lon="8.96394">
        <ele>847</ele>
        <time>2021-08-02T10:48:32.413Z</time>
      </trkpt>
      <trkpt lat="47.01887" lon="8.96393">
        <ele>847</ele>
        <time>2021-08-02T10:48:33.414Z</time>
      </trkpt>
      <trkpt lat="47.01886" lon="8.96392">
        <ele>847</ele>
        <time>2021-08-02T10:48:34.414Z</time>
      </trkpt>
      <trkpt lat="47.01886" lon="8.9639">
        <ele>847</ele>
        <time>2021-08-02T10:48:35.414Z</time>
      </trkpt>
      <trkpt lat="47.01886" lon="8.96389">
        <ele>847</ele>
        <time>2021-08-02T10:48:36.414Z</time>
      </trkpt>
      <trkpt lat="47.01885" lon="8.96387">
        <ele>846</ele>
        <time>2021-08-02T10:48:37.414Z</time>
      </trkpt>
      <trkpt lat="47.01885" lon="8.96386">
        <ele>846</ele>
        <time>2021-08-02T10:48:38.414Z</time>
      </trkpt>
      <trkpt lat="47.01886" lon="8.96385">
        <ele>846</ele>
        <time>2021-08-02T10:48:39.413Z</time>
      </trkpt>
      <trkpt lat="47.01886" lon="8.96383">
        <ele>846</ele>
        <time>2021-08-02T10:48:40.413Z</time>
      </trkpt>
      <trkpt lat="47.01887" lon="8.96381">
        <ele>846</ele>
        <time>2021-08-02T10:48:41.414Z</time>
      </trkpt>
      <trkpt lat="47.01887" lon="8.9638">
        <ele>846</ele>
        <time>2021-08-02T10:48:42.414Z</time>
      </trkpt>
      <trkpt lat="47.01887" lon="8.96379">
        <ele>846</ele>
        <time>2021-08-02T10:48:43.414Z</time>
      </trkpt>
      <trkpt lat="47.01888" lon="8.96377">
        <ele>846</ele>
        <time>2021-08-02T10:48:44.414Z</time>
      </trkpt>
      <trkpt lat="47.01888" lon="8.96375">
        <ele>847</ele>
        <time>2021-08-02T10:48:45.414Z</time>
      </trkpt>
      <trkpt lat="47.01889" lon="8.96374">
        <ele>847</ele>
        <time>2021-08-02T10:48:47.524Z</time>
      </trkpt>
      <trkpt lat="47.01889" lon="8.96373">
        <ele>848</ele>
        <time>2021-08-02T10:48:48.523Z</time>
      </trkpt>
      <trkpt lat="47.0189" lon="8.96372">
        <ele>848</ele>
        <time>2021-08-02T10:48:49.524Z</time>
      </trkpt>
      <trkpt lat="47.0189" lon="8.96371">
        <ele>849</ele>
        <time>2021-08-02T10:48:50.524Z</time>
      </trkpt>
      <trkpt lat="47.0189" lon="8.96369">
        <ele>849</ele>
        <time>2021-08-02T10:48:51.524Z</time>
      </trkpt>
      <trkpt lat="47.0189" lon="8.96368">
        <ele>850</ele>
        <time>2021-08-02T10:48:52.524Z</time>
      </trkpt>
      <trkpt lat="47.0189" lon="8.96366">
        <ele>850</ele>
        <time>2021-08-02T10:48:53.524Z</time>
      </trkpt>
      <trkpt lat="47.01889" lon="8.96365">
        <ele>850</ele>
        <time>2021-08-02T10:48:54.523Z</time>
      </trkpt>
      <trkpt lat="47.0189" lon="8.96363">
        <ele>850</ele>
        <time>2021-08-02T10:48:55.524Z</time>
      </trkpt>
      <trkpt lat="47.0189" lon="8.96362">
        <ele>850</ele>
        <time>2021-08-02T10:48:56.524Z</time>
      </trkpt>
      <trkpt lat="47.0189" lon="8.9636">
        <ele>850</ele>
        <time>2021-08-02T10:48:57.523Z</time>
      </trkpt>
      <trkpt lat="47.01888" lon="8.96358">
        <ele>850</ele>
        <time>2021-08-02T10:48:58.524Z</time>
      </trkpt>
      <trkpt lat="47.01886" lon="8.96356">
        <ele>849</ele>
        <time>2021-08-02T10:48:59.524Z</time>
      </trkpt>
      <trkpt lat="47.01885" lon="8.96355">
        <ele>849</ele>
        <time>2021-08-02T10:49:00.524Z</time>
      </trkpt>
      <trkpt lat="47.01884" lon="8.96353">
        <ele>848</ele>
        <time>2021-08-02T10:49:01.524Z</time>
      </trkpt>
      <trkpt lat="47.01884" lon="8.96351">
        <ele>848</ele>
        <time>2021-08-02T10:49:02.524Z</time>
      </trkpt>
      <trkpt lat="47.01884" lon="8.9635">
        <ele>847</ele>
        <time>2021-08-02T10:49:03.523Z</time>
      </trkpt>
      <trkpt lat="47.01883" lon="8.96348">
        <ele>847</ele>
        <time>2021-08-02T10:49:04.523Z</time>
      </trkpt>
      <trkpt lat="47.01883" lon="8.96347">
        <ele>847</ele>
        <time>2021-08-02T10:49:05.524Z</time>
      </trkpt>
      <trkpt lat="47.01883" lon="8.96345">
        <ele>847</ele>
        <time>2021-08-02T10:49:06.523Z</time>
      </trkpt>
      <trkpt lat="47.01884" lon="8.96344">
        <ele>847</ele>
        <time>2021-08-02T10:49:07.524Z</time>
      </trkpt>
      <trkpt lat="47.01884" lon="8.96343">
        <ele>847</ele>
        <time>2021-08-02T10:49:11.576Z</time>
      </trkpt>
      <trkpt lat="47.01885" lon="8.96342">
        <ele>847</ele>
        <time>2021-08-02T10:49:12.576Z</time>
      </trkpt>
      <trkpt lat="47.01886" lon="8.96341">
        <ele>847</ele>
        <time>2021-08-02T10:49:14.403Z</time>
      </trkpt>
      <trkpt lat="47.01887" lon="8.9634">
        <ele>847</ele>
        <time>2021-08-02T10:49:15.404Z</time>
      </trkpt>
      <trkpt lat="47.01888" lon="8.96338">
        <ele>847</ele>
        <time>2021-08-02T10:49:16.404Z</time>
      </trkpt>
      <trkpt lat="47.01889" lon="8.96337">
        <ele>847</ele>
        <time>2021-08-02T10:49:17.403Z</time>
      </trkpt>
      <trkpt lat="47.01889" lon="8.96336">
        <ele>847</ele>
        <time>2021-08-02T10:49:18.404Z</time>
      </trkpt>
      <trkpt lat="47.01889" lon="8.96335">
        <ele>847</ele>
        <time>2021-08-02T10:49:19.404Z</time>
      </trkpt>
      <trkpt lat="47.0189" lon="8.96333">
        <ele>847</ele>
        <time>2021-08-02T10:49:20.404Z</time>
      </trkpt>
      <trkpt lat="47.0189" lon="8.96332">
        <ele>847</ele>
        <time>2021-08-02T10:49:21.404Z</time>
      </trkpt>
      <trkpt lat="47.0189" lon="8.96331">
        <ele>848</ele>
        <time>2021-08-02T10:49:22.404Z</time>
      </trkpt>
      <trkpt lat="47.01889" lon="8.96328">
        <ele>848</ele>
        <time>2021-08-02T10:49:23.404Z</time>
      </trkpt>
      <trkpt lat="47.0189" lon="8.96327">
        <ele>848</ele>
        <time>2021-08-02T10:49:24.403Z</time>
      </trkpt>
      <trkpt lat="47.0189" lon="8.96325">
        <ele>849</ele>
        <time>2021-08-02T10:49:25.404Z</time>
      </trkpt>
      <trkpt lat="47.01891" lon="8.96324">
        <ele>849</ele>
        <time>2021-08-02T10:49:26.403Z</time>
      </trkpt>
      <trkpt lat="47.01891" lon="8.96322">
        <ele>850</ele>
        <time>2021-08-02T10:49:27.404Z</time>
      </trkpt>
      <trkpt lat="47.0189" lon="8.96321">
        <ele>850</ele>
        <time>2021-08-02T10:49:28.404Z</time>
      </trkpt>
      <trkpt lat="47.01889" lon="8.96319">
        <ele>850</ele>
        <time>2021-08-02T10:49:29.404Z</time>
      </trkpt>
      <trkpt lat="47.01888" lon="8.96318">
        <ele>850</ele>
        <time>2021-08-02T10:49:30.404Z</time>
      </trkpt>
      <trkpt lat="47.01887" lon="8.96317">
        <ele>850</ele>
        <time>2021-08-02T10:49:31.404Z</time>
      </trkpt>
      <trkpt lat="47.01888" lon="8.96316">
        <ele>850</ele>
        <time>2021-08-02T10:49:32.404Z</time>
      </trkpt>
      <trkpt lat="47.01888" lon="8.96315">
        <ele>850</ele>
        <time>2021-08-02T10:49:33.404Z</time>
      </trkpt>
      <trkpt lat="47.01889" lon="8.96314">
        <ele>850</ele>
        <time>2021-08-02T10:49:34.404Z</time>
      </trkpt>
      <trkpt lat="47.01889" lon="8.96313">
        <ele>850</ele>
        <time>2021-08-02T10:49:35.404Z</time>
      </trkpt>
      <trkpt lat="47.01889" lon="8.96311">
        <ele>850</ele>
        <time>2021-08-02T10:49:36.404Z</time>
      </trkpt>
      <trkpt lat="47.01889" lon="8.9631">
        <ele>850</ele>
        <time>2021-08-02T10:49:37.404Z</time>
      </trkpt>
      <trkpt lat="47.01889" lon="8.96309">
        <ele>850</ele>
        <time>2021-08-02T10:49:38.404Z</time>
      </trkpt>
      <trkpt lat="47.01889" lon="8.96308">
        <ele>850</ele>
        <time>2021-08-02T10:49:39.403Z</time>
      </trkpt>
      <trkpt lat="47.01888" lon="8.96306">
        <ele>849</ele>
        <time>2021-08-02T10:49:40.404Z</time>
      </trkpt>
      <trkpt lat="47.01887" lon="8.96305">
        <ele>848</ele>
        <time>2021-08-02T10:49:41.403Z</time>
      </trkpt>
      <trkpt lat="47.01886" lon="8.96303">
        <ele>848</ele>
        <time>2021-08-02T10:49:42.404Z</time>
      </trkpt>
      <trkpt lat="47.01886" lon="8.96302">
        <ele>847</ele>
        <time>2021-08-02T10:49:43.403Z</time>
      </trkpt>
      <trkpt lat="47.01886" lon="8.963">
        <ele>846</ele>
        <time>2021-08-02T10:49:44.404Z</time>
      </trkpt>
      <trkpt lat="47.01885" lon="8.96299">
        <ele>846</ele>
        <time>2021-08-02T10:49:45.404Z</time>
      </trkpt>
      <trkpt lat="47.01886" lon="8.96298">
        <ele>845</ele>
        <time>2021-08-02T10:49:46.404Z</time>
      </trkpt>
      <trkpt lat="47.01886" lon="8.96297">
        <ele>845</ele>
        <time>2021-08-02T10:49:47.403Z</time>
      </trkpt>
      <trkpt lat="47.01886" lon="8.96295">
        <ele>846</ele>
        <time>2021-08-02T10:49:48.404Z</time>
      </trkpt>
      <trkpt lat="47.01885" lon="8.96294">
        <ele>845</ele>
        <time>2021-08-02T10:49:49.403Z</time>
      </trkpt>
      <trkpt lat="47.01885" lon="8.96293">
        <ele>845</ele>
        <time>2021-08-02T10:49:50.404Z</time>
      </trkpt>
      <trkpt lat="47.01885" lon="8.96291">
        <ele>845</ele>
        <time>2021-08-02T10:49:51.404Z</time>
      </trkpt>
      <trkpt lat="47.01885" lon="8.9629">
        <ele>846</ele>
        <time>2021-08-02T10:49:52.404Z</time>
      </trkpt>
      <trkpt lat="47.01885" lon="8.96289">
        <ele>846</ele>
        <time>2021-08-02T10:49:53.404Z</time>
      </trkpt>
      <trkpt lat="47.01886" lon="8.96287">
        <ele>846</ele>
        <time>2021-08-02T10:49:54.403Z</time>
      </trkpt>
      <trkpt lat="47.01885" lon="8.96286">
        <ele>846</ele>
        <time>2021-08-02T10:49:55.404Z</time>
      </trkpt>
      <trkpt lat="47.01885" lon="8.96284">
        <ele>846</ele>
        <time>2021-08-02T10:49:56.404Z</time>
      </trkpt>
      <trkpt lat="47.01886" lon="8.96283">
        <ele>846</ele>
        <time>2021-08-02T10:49:57.404Z</time>
      </trkpt>
      <trkpt lat="47.01886" lon="8.96281">
        <ele>846</ele>
        <time>2021-08-02T10:49:58.404Z</time>
      </trkpt>
      <trkpt lat="47.01886" lon="8.9628">
        <ele>846</ele>
        <time>2021-08-02T10:49:59.403Z</time>
      </trkpt>
      <trkpt lat="47.01886" lon="8.96278">
        <ele>847</ele>
        <time>2021-08-02T10:50:00.404Z</time>
      </trkpt>
      <trkpt lat="47.01885" lon="8.96277">
        <ele>847</ele>
        <time>2021-08-02T10:50:01.404Z</time>
      </trkpt>
      <trkpt lat="47.01885" lon="8.96276">
        <ele>847</ele>
        <time>2021-08-02T10:50:02.404Z</time>
      </trkpt>
      <trkpt lat="47.01886" lon="8.96275">
        <ele>847</ele>
        <time>2021-08-02T10:50:03.404Z</time>
      </trkpt>
      <trkpt lat="47.01887" lon="8.96274">
        <ele>846</ele>
        <time>2021-08-02T10:50:04.403Z</time>
      </trkpt>
      <trkpt lat="47.01888" lon="8.96272">
        <ele>846</ele>
        <time>2021-08-02T10:50:05.403Z</time>
      </trkpt>
      <trkpt lat="47.01888" lon="8.9627">
        <ele>846</ele>
        <time>2021-08-02T10:50:06.403Z</time>
      </trkpt>
      <trkpt lat="47.01888" lon="8.96268">
        <ele>846</ele>
        <time>2021-08-02T10:50:07.404Z</time>
      </trkpt>
      <trkpt lat="47.01888" lon="8.96267">
        <ele>846</ele>
        <time>2021-08-02T10:50:08.403Z</time>
      </trkpt>
      <trkpt lat="47.01888" lon="8.96265">
        <ele>845</ele>
        <time>2021-08-02T10:50:09.404Z</time>
      </trkpt>
      <trkpt lat="47.01888" lon="8.96264">
        <ele>845</ele>
        <time>2021-08-02T10:50:10.404Z</time>
      </trkpt>
      <trkpt lat="47.01887" lon="8.96263">
        <ele>845</ele>
        <time>2021-08-02T10:50:11.403Z</time>
      </trkpt>
      <trkpt lat="47.01887" lon="8.96261">
        <ele>845</ele>
        <time>2021-08-02T10:50:12.403Z</time>
      </trkpt>
      <trkpt lat="47.01888" lon="8.9626">
        <ele>845</ele>
        <time>2021-08-02T10:50:13.404Z</time>
      </trkpt>
      <trkpt lat="47.01888" lon="8.96259">
        <ele>845</ele>
        <time>2021-08-02T10:50:14.403Z</time>
      </trkpt>
      <trkpt lat="47.01888" lon="8.96257">
        <ele>845</ele>
        <time>2021-08-02T10:50:15.403Z</time>
      </trkpt>
      <trkpt lat="47.01889" lon="8.96256">
        <ele>845</ele>
        <time>2021-08-02T10:50:16.403Z</time>
      </trkpt>
      <trkpt lat="47.01889" lon="8.96255">
        <ele>845</ele>
        <time>2021-08-02T10:50:17.404Z</time>
      </trkpt>
      <trkpt lat="47.0189" lon="8.96255">
        <ele>845</ele>
        <time>2021-08-02T10:50:18.404Z</time>
      </trkpt>
      <trkpt lat="47.0189" lon="8.96254">
        <ele>845</ele>
        <time>2021-08-02T10:50:19.403Z</time>
      </trkpt>
      <trkpt lat="47.01891" lon="8.96253">
        <ele>845</ele>
        <time>2021-08-02T10:50:20.404Z</time>
      </trkpt>
      <trkpt lat="47.01893" lon="8.96253">
        <ele>845</ele>
        <time>2021-08-02T10:50:21.403Z</time>
      </trkpt>
      <trkpt lat="47.01895" lon="8.96252">
        <ele>846</ele>
        <time>2021-08-02T10:50:22.403Z</time>
      </trkpt>
      <trkpt lat="47.01897" lon="8.96251">
        <ele>846</ele>
        <time>2021-08-02T10:50:23.404Z</time>
      </trkpt>
      <trkpt lat="47.01899" lon="8.96251">
        <ele>846</ele>
        <time>2021-08-02T10:50:24.404Z</time>
      </trkpt>
      <trkpt lat="47.019" lon="8.96249">
        <ele>847</ele>
        <time>2021-08-02T10:50:25.404Z</time>
      </trkpt>
      <trkpt lat="47.01901" lon="8.96248">
        <ele>847</ele>
        <time>2021-08-02T10:50:26.404Z</time>
      </trkpt>
      <trkpt lat="47.01902" lon="8.96247">
        <ele>847</ele>
        <time>2021-08-02T10:50:27.403Z</time>
      </trkpt>
      <trkpt lat="47.01903" lon="8.96246">
        <ele>847</ele>
        <time>2021-08-02T10:50:28.404Z</time>
      </trkpt>
      <trkpt lat="47.01903" lon="8.96245">
        <ele>848</ele>
        <time>2021-08-02T10:50:29.404Z</time>
      </trkpt>
      <trkpt lat="47.01902" lon="8.96245">
        <ele>848</ele>
        <time>2021-08-02T10:50:30.403Z</time>
      </trkpt>
      <trkpt lat="47.01903" lon="8.96245">
        <ele>848</ele>
        <time>2021-08-02T10:50:31.403Z</time>
      </trkpt>
      <trkpt lat="47.01903" lon="8.96244">
        <ele>848</ele>
        <time>2021-08-02T10:50:32.404Z</time>
      </trkpt>
      <trkpt lat="47.01903" lon="8.96244">
        <ele>847</ele>
        <time>2021-08-02T10:50:33.404Z</time>
      </trkpt>
      <trkpt lat="47.01903" lon="8.96241">
        <ele>845</ele>
        <time>2021-08-02T10:50:34.405Z</time>
      </trkpt>
      <trkpt lat="47.01904" lon="8.96241">
        <ele>845</ele>
        <time>2021-08-02T10:50:35.404Z</time>
      </trkpt>
      <trkpt lat="47.01904" lon="8.96241">
        <ele>845</ele>
        <time>2021-08-02T10:50:36.404Z</time>
      </trkpt>
      <trkpt lat="47.01907" lon="8.96244">
        <ele>853</ele>
        <time>2021-08-02T10:50:37.405Z</time>
      </trkpt>
      <trkpt lat="47.01908" lon="8.96244">
        <ele>855</ele>
        <time>2021-08-02T10:50:38.404Z</time>
      </trkpt>
      <trkpt lat="47.01909" lon="8.96243">
        <ele>856</ele>
        <time>2021-08-02T10:50:39.405Z</time>
      </trkpt>
      <trkpt lat="47.0191" lon="8.96243">
        <ele>856</ele>
        <time>2021-08-02T10:50:40.405Z</time>
      </trkpt>
      <trkpt lat="47.01911" lon="8.96242">
        <ele>857</ele>
        <time>2021-08-02T10:50:41.404Z</time>
      </trkpt>
      <trkpt lat="47.01911" lon="8.9624">
        <ele>857</ele>
        <time>2021-08-02T10:50:42.404Z</time>
      </trkpt>
      <trkpt lat="47.0191" lon="8.96239">
        <ele>856</ele>
        <time>2021-08-02T10:50:51.430Z</time>
      </trkpt>
      <trkpt lat="47.0191" lon="8.96238">
        <ele>856</ele>
        <time>2021-08-02T10:50:52.431Z</time>
      </trkpt>
      <trkpt lat="47.0191" lon="8.96237">
        <ele>856</ele>
        <time>2021-08-02T10:50:57.337Z</time>
      </trkpt>
      <trkpt lat="47.0191" lon="8.96236">
        <ele>855</ele>
        <time>2021-08-02T10:50:58.336Z</time>
      </trkpt>
      <trkpt lat="47.0191" lon="8.96236">
        <ele>855</ele>
        <time>2021-08-02T10:51:06.172Z</time>
      </trkpt>
      <trkpt lat="47.0191" lon="8.96236">
        <ele>855</ele>
        <time>2021-08-02T10:51:07.172Z</time>
      </trkpt>
      <trkpt lat="47.01911" lon="8.96235">
        <ele>854</ele>
        <time>2021-08-02T10:51:08.172Z</time>
      </trkpt>
      <trkpt lat="47.01911" lon="8.96235">
        <ele>854</ele>
        <time>2021-08-02T10:51:27.208Z</time>
      </trkpt>
      <trkpt lat="47.01911" lon="8.96234">
        <ele>853</ele>
        <time>2021-08-02T10:51:28.208Z</time>
      </trkpt>
      <trkpt lat="47.01911" lon="8.96233">
        <ele>853</ele>
        <time>2021-08-02T10:51:30.053Z</time>
      </trkpt>
      <trkpt lat="47.01911" lon="8.96232">
        <ele>852</ele>
        <time>2021-08-02T10:51:31.053Z</time>
      </trkpt>
      <trkpt lat="47.0191" lon="8.96231">
        <ele>852</ele>
        <time>2021-08-02T10:51:32.054Z</time>
      </trkpt>
      <trkpt lat="47.0191" lon="8.9623">
        <ele>852</ele>
        <time>2021-08-02T10:51:33.054Z</time>
      </trkpt>
      <trkpt lat="47.01911" lon="8.96228">
        <ele>852</ele>
        <time>2021-08-02T10:51:34.053Z</time>
      </trkpt>
      <trkpt lat="47.01911" lon="8.96226">
        <ele>851</ele>
        <time>2021-08-02T10:51:35.053Z</time>
      </trkpt>
      <trkpt lat="47.0191" lon="8.96224">
        <ele>850</ele>
        <time>2021-08-02T10:51:36.053Z</time>
      </trkpt>
      <trkpt lat="47.01911" lon="8.96223">
        <ele>850</ele>
        <time>2021-08-02T10:51:37.053Z</time>
      </trkpt>
      <trkpt lat="47.01911" lon="8.96222">
        <ele>850</ele>
        <time>2021-08-02T10:51:38.053Z</time>
      </trkpt>
      <trkpt lat="47.0191" lon="8.96221">
        <ele>850</ele>
        <time>2021-08-02T10:51:39.054Z</time>
      </trkpt>
      <trkpt lat="47.01911" lon="8.96219">
        <ele>850</ele>
        <time>2021-08-02T10:51:40.054Z</time>
      </trkpt>
      <trkpt lat="47.0191" lon="8.96218">
        <ele>849</ele>
        <time>2021-08-02T10:51:41.054Z</time>
      </trkpt>
      <trkpt lat="47.01909" lon="8.96217">
        <ele>849</ele>
        <time>2021-08-02T10:51:42.054Z</time>
      </trkpt>
      <trkpt lat="47.01908" lon="8.96215">
        <ele>849</ele>
        <time>2021-08-02T10:51:43.054Z</time>
      </trkpt>
      <trkpt lat="47.01908" lon="8.96214">
        <ele>848</ele>
        <time>2021-08-02T10:51:44.053Z</time>
      </trkpt>
      <trkpt lat="47.01907" lon="8.96212">
        <ele>848</ele>
        <time>2021-08-02T10:51:52.070Z</time>
      </trkpt>
      <trkpt lat="47.01907" lon="8.9621">
        <ele>848</ele>
        <time>2021-08-02T10:51:53.071Z</time>
      </trkpt>
      <trkpt lat="47.01906" lon="8.96209">
        <ele>847</ele>
        <time>2021-08-02T10:51:54.071Z</time>
      </trkpt>
      <trkpt lat="47.01906" lon="8.96208">
        <ele>847</ele>
        <time>2021-08-02T10:51:55.071Z</time>
      </trkpt>
      <trkpt lat="47.01907" lon="8.96207">
        <ele>847</ele>
        <time>2021-08-02T10:52:09.065Z</time>
      </trkpt>
      <trkpt lat="47.01907" lon="8.96207">
        <ele>847</ele>
        <time>2021-08-02T10:52:10.065Z</time>
      </trkpt>
      <trkpt lat="47.01907" lon="8.96206">
        <ele>847</ele>
        <time>2021-08-02T10:52:11.065Z</time>
      </trkpt>
      <trkpt lat="47.01906" lon="8.96207">
        <ele>848</ele>
        <time>2021-08-02T10:52:12.065Z</time>
      </trkpt>
      <trkpt lat="47.01906" lon="8.96207">
        <ele>848</ele>
        <time>2021-08-02T10:52:13.065Z</time>
      </trkpt>
      <trkpt lat="47.01908" lon="8.96206">
        <ele>848</ele>
        <time>2021-08-02T10:52:14.065Z</time>
      </trkpt>
      <trkpt lat="47.0191" lon="8.96205">
        <ele>849</ele>
        <time>2021-08-02T10:52:15.065Z</time>
      </trkpt>
      <trkpt lat="47.01911" lon="8.96204">
        <ele>849</ele>
        <time>2021-08-02T10:52:22.063Z</time>
      </trkpt>
      <trkpt lat="47.01911" lon="8.96202">
        <ele>850</ele>
        <time>2021-08-02T10:52:23.062Z</time>
      </trkpt>
      <trkpt lat="47.01911" lon="8.96201">
        <ele>850</ele>
        <time>2021-08-02T10:52:24.063Z</time>
      </trkpt>
      <trkpt lat="47.0191" lon="8.96199">
        <ele>851</ele>
        <time>2021-08-02T10:52:25.063Z</time>
      </trkpt>
      <trkpt lat="47.0191" lon="8.96198">
        <ele>851</ele>
        <time>2021-08-02T10:52:26.063Z</time>
      </trkpt>
      <trkpt lat="47.01911" lon="8.96197">
        <ele>852</ele>
        <time>2021-08-02T10:52:27.062Z</time>
      </trkpt>
      <trkpt lat="47.01911" lon="8.96197">
        <ele>852</ele>
        <time>2021-08-02T10:52:28.063Z</time>
      </trkpt>
      <trkpt lat="47.01911" lon="8.96196">
        <ele>852</ele>
        <time>2021-08-02T10:52:29.063Z</time>
      </trkpt>
      <trkpt lat="47.01911" lon="8.96196">
        <ele>852</ele>
        <time>2021-08-02T10:52:33.103Z</time>
      </trkpt>
      <trkpt lat="47.01912" lon="8.96196">
        <ele>852</ele>
        <time>2021-08-02T10:52:34.103Z</time>
      </trkpt>
      <trkpt lat="47.01912" lon="8.96195">
        <ele>852</ele>
        <time>2021-08-02T10:52:35.104Z</time>
      </trkpt>
      <trkpt lat="47.01912" lon="8.96194">
        <ele>851</ele>
        <time>2021-08-02T10:52:36.103Z</time>
      </trkpt>
      <trkpt lat="47.01912" lon="8.96194">
        <ele>851</ele>
        <time>2021-08-02T10:52:37.103Z</time>
      </trkpt>
      <trkpt lat="47.01909" lon="8.96191">
        <ele>851</ele>
        <time>2021-08-02T10:52:38.103Z</time>
      </trkpt>
      <trkpt lat="47.01908" lon="8.96192">
        <ele>851</ele>
        <time>2021-08-02T10:52:39.103Z</time>
      </trkpt>
      <trkpt lat="47.01908" lon="8.96192">
        <ele>851</ele>
        <time>2021-08-02T10:52:40.103Z</time>
      </trkpt>
      <trkpt lat="47.01908" lon="8.96191">
        <ele>853</ele>
        <time>2021-08-02T10:52:41.103Z</time>
      </trkpt>
      <trkpt lat="47.01906" lon="8.96197">
        <ele>852</ele>
        <time>2021-08-02T10:52:42.103Z</time>
      </trkpt>
      <trkpt lat="47.01906" lon="8.96198">
        <ele>852</ele>
        <time>2021-08-02T10:52:43.103Z</time>
      </trkpt>
      <trkpt lat="47.01907" lon="8.962">
        <ele>850</ele>
        <time>2021-08-02T10:52:44.103Z</time>
      </trkpt>
      <trkpt lat="47.01908" lon="8.96201">
        <ele>849</ele>
        <time>2021-08-02T10:52:45.103Z</time>
      </trkpt>
      <trkpt lat="47.01908" lon="8.96201">
        <ele>848</ele>
        <time>2021-08-02T10:52:46.104Z</time>
      </trkpt>
      <trkpt lat="47.01909" lon="8.96202">
        <ele>847</ele>
        <time>2021-08-02T10:52:47.103Z</time>
      </trkpt>
      <trkpt lat="47.0191" lon="8.96201">
        <ele>846</ele>
        <time>2021-08-02T10:52:53.062Z</time>
      </trkpt>
      <trkpt lat="47.01912" lon="8.962">
        <ele>846</ele>
        <time>2021-08-02T10:52:54.062Z</time>
      </trkpt>
      <trkpt lat="47.01912" lon="8.96199">
        <ele>846</ele>
        <time>2021-08-02T10:52:55.063Z</time>
      </trkpt>
      <trkpt lat="47.01913" lon="8.96197">
        <ele>846</ele>
        <time>2021-08-02T10:52:56.062Z</time>
      </trkpt>
      <trkpt lat="47.01914" lon="8.96196">
        <ele>846</ele>
        <time>2021-08-02T10:52:57.062Z</time>
      </trkpt>
      <trkpt lat="47.01914" lon="8.96195">
        <ele>845</ele>
        <time>2021-08-02T10:52:58.062Z</time>
      </trkpt>
      <trkpt lat="47.01914" lon="8.96193">
        <ele>845</ele>
        <time>2021-08-02T10:52:59.062Z</time>
      </trkpt>
      <trkpt lat="47.01914" lon="8.96192">
        <ele>845</ele>
        <time>2021-08-02T10:53:00.062Z</time>
      </trkpt>
      <trkpt lat="47.01915" lon="8.96191">
        <ele>845</ele>
        <time>2021-08-02T10:53:01.062Z</time>
      </trkpt>
      <trkpt lat="47.01915" lon="8.96189">
        <ele>845</ele>
        <time>2021-08-02T10:53:02.062Z</time>
      </trkpt>
      <trkpt lat="47.01915" lon="8.96188">
        <ele>845</ele>
        <time>2021-08-02T10:53:03.062Z</time>
      </trkpt>
      <trkpt lat="47.01915" lon="8.96188">
        <ele>845</ele>
        <time>2021-08-02T10:53:04.062Z</time>
      </trkpt>
      <trkpt lat="47.01915" lon="8.96185">
        <ele>846</ele>
        <time>2021-08-02T10:53:05.062Z</time>
      </trkpt>
      <trkpt lat="47.01915" lon="8.96184">
        <ele>846</ele>
        <time>2021-08-02T10:53:06.062Z</time>
      </trkpt>
      <trkpt lat="47.01915" lon="8.96182">
        <ele>846</ele>
        <time>2021-08-02T10:53:07.062Z</time>
      </trkpt>
      <trkpt lat="47.01915" lon="8.96181">
        <ele>847</ele>
        <time>2021-08-02T10:53:11.053Z</time>
      </trkpt>
      <trkpt lat="47.01915" lon="8.9618">
        <ele>847</ele>
        <time>2021-08-02T10:53:12.053Z</time>
      </trkpt>
      <trkpt lat="47.01914" lon="8.96178">
        <ele>847</ele>
        <time>2021-08-02T10:53:13.053Z</time>
      </trkpt>
      <trkpt lat="47.01914" lon="8.96178">
        <ele>848</ele>
        <time>2021-08-02T10:53:16.955Z</time>
      </trkpt>
      <trkpt lat="47.01914" lon="8.96177">
        <ele>848</ele>
        <time>2021-08-02T10:53:17.955Z</time>
      </trkpt>
      <trkpt lat="47.01914" lon="8.96176">
        <ele>849</ele>
        <time>2021-08-02T10:53:18.955Z</time>
      </trkpt>
      <trkpt lat="47.01915" lon="8.96176">
        <ele>850</ele>
        <time>2021-08-02T10:53:23.931Z</time>
      </trkpt>
      <trkpt lat="47.01915" lon="8.96176">
        <ele>850</ele>
        <time>2021-08-02T10:53:24.931Z</time>
      </trkpt>
      <trkpt lat="47.01916" lon="8.96176">
        <ele>851</ele>
        <time>2021-08-02T10:53:25.931Z</time>
      </trkpt>
      <trkpt lat="47.01915" lon="8.96174">
        <ele>851</ele>
        <time>2021-08-02T10:53:30.789Z</time>
      </trkpt>
      <trkpt lat="47.01914" lon="8.96171">
        <ele>851</ele>
        <time>2021-08-02T10:53:31.789Z</time>
      </trkpt>
      <trkpt lat="47.01914" lon="8.96164">
        <ele>852</ele>
        <time>2021-08-02T10:53:32.789Z</time>
      </trkpt>
      <trkpt lat="47.01914" lon="8.96164">
        <ele>853</ele>
        <time>2021-08-02T10:54:04.795Z</time>
      </trkpt>
      <trkpt lat="47.01914" lon="8.96165">
        <ele>853</ele>
        <time>2021-08-02T10:54:05.795Z</time>
      </trkpt>
      <trkpt lat="47.01914" lon="8.96166">
        <ele>853</ele>
        <time>2021-08-02T10:54:06.796Z</time>
      </trkpt>
      <trkpt lat="47.01914" lon="8.96166">
        <ele>853</ele>
        <time>2021-08-02T10:54:07.796Z</time>
      </trkpt>
      <trkpt lat="47.01914" lon="8.96166">
        <ele>853</ele>
        <time>2021-08-02T10:54:08.796Z</time>
      </trkpt>
      <trkpt lat="47.01913" lon="8.96166">
        <ele>852</ele>
        <time>2021-08-02T10:54:09.797Z</time>
      </trkpt>
      <trkpt lat="47.01913" lon="8.96166">
        <ele>853</ele>
        <time>2021-08-02T10:54:10.672Z</time>
      </trkpt>
      <trkpt lat="47.01912" lon="8.96165">
        <ele>853</ele>
        <time>2021-08-02T10:54:13.787Z</time>
      </trkpt>
      <trkpt lat="47.01911" lon="8.96164">
        <ele>853</ele>
        <time>2021-08-02T10:54:15.395Z</time>
      </trkpt>
      <trkpt lat="47.01912" lon="8.96164">
        <ele>854</ele>
        <time>2021-08-02T10:54:16.395Z</time>
      </trkpt>
      <trkpt lat="47.01914" lon="8.96165">
        <ele>856</ele>
        <time>2021-08-02T10:54:17.395Z</time>
      </trkpt>
      <trkpt lat="47.01915" lon="8.96164">
        <ele>857</ele>
        <time>2021-08-02T10:54:18.395Z</time>
      </trkpt>
      <trkpt lat="47.01915" lon="8.96164">
        <ele>857</ele>
        <time>2021-08-02T10:54:19.395Z</time>
      </trkpt>
      <trkpt lat="47.01916" lon="8.96163">
        <ele>857</ele>
        <time>2021-08-02T10:54:20.395Z</time>
      </trkpt>
      <trkpt lat="47.01916" lon="8.96162">
        <ele>858</ele>
        <time>2021-08-02T10:54:21.395Z</time>
      </trkpt>
      <trkpt lat="47.01916" lon="8.96162">
        <ele>858</ele>
        <time>2021-08-02T10:54:22.395Z</time>
      </trkpt>
      <trkpt lat="47.01916" lon="8.96161">
        <ele>859</ele>
        <time>2021-08-02T10:54:23.395Z</time>
      </trkpt>
      <trkpt lat="47.01916" lon="8.9616">
        <ele>859</ele>
        <time>2021-08-02T10:54:24.395Z</time>
      </trkpt>
      <trkpt lat="47.01915" lon="8.9616">
        <ele>859</ele>
        <time>2021-08-02T10:54:44.316Z</time>
      </trkpt>
      <trkpt lat="47.01915" lon="8.96159">
        <ele>859</ele>
        <time>2021-08-02T10:54:45.316Z</time>
      </trkpt>
      <trkpt lat="47.01915" lon="8.96158">
        <ele>859</ele>
        <time>2021-08-02T10:54:46.316Z</time>
      </trkpt>
      <trkpt lat="47.01916" lon="8.96157">
        <ele>859</ele>
        <time>2021-08-02T10:54:47.316Z</time>
      </trkpt>
      <trkpt lat="47.01917" lon="8.96156">
        <ele>859</ele>
        <time>2021-08-02T10:54:50.277Z</time>
      </trkpt>
      <trkpt lat="47.01919" lon="8.96155">
        <ele>859</ele>
        <time>2021-08-02T10:54:51.277Z</time>
      </trkpt>
      <trkpt lat="47.01919" lon="8.96155">
        <ele>858</ele>
        <time>2021-08-02T10:54:52.277Z</time>
      </trkpt>
      <trkpt lat="47.0192" lon="8.96154">
        <ele>858</ele>
        <time>2021-08-02T10:54:53.277Z</time>
      </trkpt>
      <trkpt lat="47.01921" lon="8.96153">
        <ele>858</ele>
        <time>2021-08-02T10:55:18.185Z</time>
      </trkpt>
      <trkpt lat="47.01921" lon="8.96152">
        <ele>858</ele>
        <time>2021-08-02T10:55:19.185Z</time>
      </trkpt>
      <trkpt lat="47.01921" lon="8.96151">
        <ele>858</ele>
        <time>2021-08-02T10:55:20.185Z</time>
      </trkpt>
      <trkpt lat="47.01921" lon="8.96149">
        <ele>858</ele>
        <time>2021-08-02T10:55:21.185Z</time>
      </trkpt>
      <trkpt lat="47.01921" lon="8.96148">
        <ele>858</ele>
        <time>2021-08-02T10:55:22.185Z</time>
      </trkpt>
      <trkpt lat="47.01921" lon="8.96147">
        <ele>858</ele>
        <time>2021-08-02T10:55:23.185Z</time>
      </trkpt>
      <trkpt lat="47.0192" lon="8.96147">
        <ele>858</ele>
        <time>2021-08-02T10:55:24.185Z</time>
      </trkpt>
      <trkpt lat="47.0192" lon="8.96146">
        <ele>858</ele>
        <time>2021-08-02T10:55:25.185Z</time>
      </trkpt>
      <trkpt lat="47.0192" lon="8.96145">
        <ele>858</ele>
        <time>2021-08-02T10:55:35.174Z</time>
      </trkpt>
      <trkpt lat="47.01919" lon="8.96143">
        <ele>858</ele>
        <time>2021-08-02T10:55:36.174Z</time>
      </trkpt>
      <trkpt lat="47.01919" lon="8.96141">
        <ele>858</ele>
        <time>2021-08-02T10:55:37.174Z</time>
      </trkpt>
      <trkpt lat="47.01919" lon="8.9614">
        <ele>858</ele>
        <time>2021-08-02T10:55:43.277Z</time>
      </trkpt>
      <trkpt lat="47.01919" lon="8.96138">
        <ele>858</ele>
        <time>2021-08-02T10:55:44.277Z</time>
      </trkpt>
      <trkpt lat="47.01919" lon="8.96136">
        <ele>858</ele>
        <time>2021-08-02T10:55:53.067Z</time>
      </trkpt>
      <trkpt lat="47.01918" lon="8.96135">
        <ele>858</ele>
        <time>2021-08-02T10:55:54.067Z</time>
      </trkpt>
      <trkpt lat="47.01918" lon="8.96134">
        <ele>857</ele>
        <time>2021-08-02T10:55:55.910Z</time>
      </trkpt>
      <trkpt lat="47.01918" lon="8.96133">
        <ele>857</ele>
        <time>2021-08-02T10:56:12.682Z</time>
      </trkpt>
      <trkpt lat="47.01918" lon="8.96132">
        <ele>857</ele>
        <time>2021-08-02T10:56:28.541Z</time>
      </trkpt>
      <trkpt lat="47.01917" lon="8.9613">
        <ele>857</ele>
        <time>2021-08-02T10:56:29.541Z</time>
      </trkpt>
      <trkpt lat="47.01916" lon="8.96129">
        <ele>857</ele>
        <time>2021-08-02T10:56:30.541Z</time>
      </trkpt>
      <trkpt lat="47.01916" lon="8.96128">
        <ele>857</ele>
        <time>2021-08-02T10:56:31.541Z</time>
      </trkpt>
      <trkpt lat="47.01915" lon="8.96126">
        <ele>857</ele>
        <time>2021-08-02T10:56:32.541Z</time>
      </trkpt>
      <trkpt lat="47.01915" lon="8.96126">
        <ele>857</ele>
        <time>2021-08-02T10:56:33.541Z</time>
      </trkpt>
      <trkpt lat="47.01915" lon="8.96124">
        <ele>857</ele>
        <time>2021-08-02T10:56:34.541Z</time>
      </trkpt>
      <trkpt lat="47.01914" lon="8.96124">
        <ele>857</ele>
        <time>2021-08-02T10:56:35.541Z</time>
      </trkpt>
      <trkpt lat="47.01913" lon="8.96123">
        <ele>857</ele>
        <time>2021-08-02T10:56:36.541Z</time>
      </trkpt>
      <trkpt lat="47.01913" lon="8.96122">
        <ele>858</ele>
        <time>2021-08-02T10:56:37.541Z</time>
      </trkpt>
      <trkpt lat="47.01912" lon="8.9612">
        <ele>858</ele>
        <time>2021-08-02T10:56:38.541Z</time>
      </trkpt>
      <trkpt lat="47.0191" lon="8.96118">
        <ele>858</ele>
        <time>2021-08-02T10:56:39.541Z</time>
      </trkpt>
      <trkpt lat="47.0191" lon="8.96116">
        <ele>858</ele>
        <time>2021-08-02T10:56:51.457Z</time>
      </trkpt>
      <trkpt lat="47.0191" lon="8.96114">
        <ele>858</ele>
        <time>2021-08-02T10:56:52.457Z</time>
      </trkpt>
      <trkpt lat="47.01909" lon="8.96111">
        <ele>858</ele>
        <time>2021-08-02T10:56:53.457Z</time>
      </trkpt>
      <trkpt lat="47.01908" lon="8.9611">
        <ele>859</ele>
        <time>2021-08-02T10:56:54.457Z</time>
      </trkpt>
      <trkpt lat="47.01908" lon="8.96109">
        <ele>859</ele>
        <time>2021-08-02T10:56:55.457Z</time>
      </trkpt>
      <trkpt lat="47.01907" lon="8.96108">
        <ele>859</ele>
        <time>2021-08-02T10:56:56.457Z</time>
      </trkpt>
      <trkpt lat="47.01906" lon="8.96107">
        <ele>859</ele>
        <time>2021-08-02T10:56:57.457Z</time>
      </trkpt>
      <trkpt lat="47.01905" lon="8.96106">
        <ele>859</ele>
        <time>2021-08-02T10:56:58.457Z</time>
      </trkpt>
      <trkpt lat="47.01905" lon="8.96106">
        <ele>859</ele>
        <time>2021-08-02T10:56:59.457Z</time>
      </trkpt>
      <trkpt lat="47.01905" lon="8.96106">
        <ele>859</ele>
        <time>2021-08-02T10:57:00.457Z</time>
      </trkpt>
      <trkpt lat="47.01906" lon="8.96105">
        <ele>859</ele>
        <time>2021-08-02T10:57:01.457Z</time>
      </trkpt>
      <trkpt lat="47.01907" lon="8.96104">
        <ele>859</ele>
        <time>2021-08-02T10:57:02.457Z</time>
      </trkpt>
      <trkpt lat="47.01907" lon="8.96103">
        <ele>859</ele>
        <time>2021-08-02T10:57:03.457Z</time>
      </trkpt>
      <trkpt lat="47.01907" lon="8.96102">
        <ele>859</ele>
        <time>2021-08-02T10:57:04.457Z</time>
      </trkpt>
      <trkpt lat="47.01908" lon="8.961">
        <ele>858</ele>
        <time>2021-08-02T10:57:05.457Z</time>
      </trkpt>
      <trkpt lat="47.01909" lon="8.96099">
        <ele>858</ele>
        <time>2021-08-02T10:57:08.328Z</time>
      </trkpt>
      <trkpt lat="47.01909" lon="8.96097">
        <ele>858</ele>
        <time>2021-08-02T10:57:24.224Z</time>
      </trkpt>
      <trkpt lat="47.0191" lon="8.96095">
        <ele>858</ele>
        <time>2021-08-02T10:57:25.224Z</time>
      </trkpt>
      <trkpt lat="47.0191" lon="8.96094">
        <ele>857</ele>
        <time>2021-08-02T10:57:26.224Z</time>
      </trkpt>
      <trkpt lat="47.0191" lon="8.96091">
        <ele>857</ele>
        <time>2021-08-02T10:57:27.224Z</time>
      </trkpt>
      <trkpt lat="47.01909" lon="8.96089">
        <ele>857</ele>
        <time>2021-08-02T10:57:31.206Z</time>
      </trkpt>
      <trkpt lat="47.01909" lon="8.96087">
        <ele>857</ele>
        <time>2021-08-02T10:57:32.206Z</time>
      </trkpt>
      <trkpt lat="47.0191" lon="8.96085">
        <ele>857</ele>
        <time>2021-08-02T10:57:33.206Z</time>
      </trkpt>
      <trkpt lat="47.01911" lon="8.96084">
        <ele>856</ele>
        <time>2021-08-02T10:57:53.341Z</time>
      </trkpt>
      <trkpt lat="47.01912" lon="8.96082">
        <ele>856</ele>
        <time>2021-08-02T10:57:54.341Z</time>
      </trkpt>
      <trkpt lat="47.01912" lon="8.9608">
        <ele>856</ele>
        <time>2021-08-02T10:58:03.161Z</time>
      </trkpt>
      <trkpt lat="47.01914" lon="8.96079">
        <ele>856</ele>
        <time>2021-08-02T10:58:04.161Z</time>
      </trkpt>
      <trkpt lat="47.01914" lon="8.96077">
        <ele>856</ele>
        <time>2021-08-02T10:58:05.161Z</time>
      </trkpt>
      <trkpt lat="47.01914" lon="8.96075">
        <ele>856</ele>
        <time>2021-08-02T10:58:21.911Z</time>
      </trkpt>
      <trkpt lat="47.01915" lon="8.96075">
        <ele>856</ele>
        <time>2021-08-02T10:58:22.911Z</time>
      </trkpt>
      <trkpt lat="47.01915" lon="8.96075">
        <ele>856</ele>
        <time>2021-08-02T10:58:39.020Z</time>
      </trkpt>
      <trkpt lat="47.01914" lon="8.96075">
        <ele>856</ele>
        <time>2021-08-02T10:58:40.021Z</time>
      </trkpt>
      <trkpt lat="47.01914" lon="8.96075">
        <ele>856</ele>
        <time>2021-08-02T10:58:41.022Z</time>
      </trkpt>
      <trkpt lat="47.01915" lon="8.96075">
        <ele>856</ele>
        <time>2021-08-02T10:58:52.765Z</time>
      </trkpt>
      <trkpt lat="47.01914" lon="8.96075">
        <ele>856</ele>
        <time>2021-08-02T10:58:53.766Z</time>
      </trkpt>
      <trkpt lat="47.01914" lon="8.96076">
        <ele>856</ele>
        <time>2021-08-02T10:58:58.522Z</time>
      </trkpt>
      <trkpt lat="47.01915" lon="8.96076">
        <ele>856</ele>
        <time>2021-08-02T10:58:59.522Z</time>
      </trkpt>
      <trkpt lat="47.01915" lon="8.96076">
        <ele>856</ele>
        <time>2021-08-02T10:59:00.523Z</time>
      </trkpt>
      <trkpt lat="47.01915" lon="8.96076">
        <ele>856</ele>
        <time>2021-08-02T10:59:01.522Z</time>
      </trkpt>
      <trkpt lat="47.01916" lon="8.96076">
        <ele>856</ele>
        <time>2021-08-02T10:59:02.522Z</time>
      </trkpt>
      <trkpt lat="47.01917" lon="8.96076">
        <ele>856</ele>
        <time>2021-08-02T10:59:03.523Z</time>
      </trkpt>
      <trkpt lat="47.01917" lon="8.96076">
        <ele>856</ele>
        <time>2021-08-02T10:59:04.523Z</time>
      </trkpt>
      <trkpt lat="47.01917" lon="8.96076">
        <ele>856</ele>
        <time>2021-08-02T10:59:09.529Z</time>
      </trkpt>
      <trkpt lat="47.01918" lon="8.96076">
        <ele>855</ele>
        <time>2021-08-02T10:59:10.530Z</time>
      </trkpt>
      <trkpt lat="47.01917" lon="8.96075">
        <ele>855</ele>
        <time>2021-08-02T10:59:11.530Z</time>
      </trkpt>
      <trkpt lat="47.01917" lon="8.96075">
        <ele>855</ele>
        <time>2021-08-02T10:59:12.529Z</time>
      </trkpt>
      <trkpt lat="47.01917" lon="8.96074">
        <ele>854</ele>
        <time>2021-08-02T10:59:20.653Z</time>
      </trkpt>
      <trkpt lat="47.01917" lon="8.96073">
        <ele>854</ele>
        <time>2021-08-02T10:59:21.653Z</time>
      </trkpt>
      <trkpt lat="47.01917" lon="8.96072">
        <ele>854</ele>
        <time>2021-08-02T10:59:29.393Z</time>
      </trkpt>
      <trkpt lat="47.01917" lon="8.9607">
        <ele>854</ele>
        <time>2021-08-02T10:59:32.136Z</time>
      </trkpt>
      <trkpt lat="47.01917" lon="8.96069">
        <ele>854</ele>
        <time>2021-08-02T10:59:33.135Z</time>
      </trkpt>
      <trkpt lat="47.01917" lon="8.96067">
        <ele>854</ele>
        <time>2021-08-02T10:59:34.909Z</time>
      </trkpt>
      <trkpt lat="47.01917" lon="8.96066">
        <ele>854</ele>
        <time>2021-08-02T10:59:35.910Z</time>
      </trkpt>
      <trkpt lat="47.01918" lon="8.96065">
        <ele>855</ele>
        <time>2021-08-02T10:59:38.033Z</time>
      </trkpt>
      <trkpt lat="47.01917" lon="8.96065">
        <ele>855</ele>
        <time>2021-08-02T10:59:39.034Z</time>
      </trkpt>
      <trkpt lat="47.01917" lon="8.96065">
        <ele>855</ele>
        <time>2021-08-02T10:59:40.034Z</time>
      </trkpt>
      <trkpt lat="47.01918" lon="8.96066">
        <ele>856</ele>
        <time>2021-08-02T10:59:41.034Z</time>
      </trkpt>
      <trkpt lat="47.01918" lon="8.96066">
        <ele>856</ele>
        <time>2021-08-02T10:59:42.035Z</time>
      </trkpt>
      <trkpt lat="47.01918" lon="8.96066">
        <ele>856</ele>
        <time>2021-08-02T10:59:52.033Z</time>
      </trkpt>
      <trkpt lat="47.01918" lon="8.96064">
        <ele>857</ele>
        <time>2021-08-02T10:59:53.034Z</time>
      </trkpt>
      <trkpt lat="47.01918" lon="8.96062">
        <ele>857</ele>
        <time>2021-08-02T10:59:54.034Z</time>
      </trkpt>
      <trkpt lat="47.01917" lon="8.96061">
        <ele>856</ele>
        <time>2021-08-02T11:00:07.197Z</time>
      </trkpt>
      <trkpt lat="47.01917" lon="8.9606">
        <ele>856</ele>
        <time>2021-08-02T11:00:08.197Z</time>
      </trkpt>
      <trkpt lat="47.01917" lon="8.9606">
        <ele>856</ele>
        <time>2021-08-02T11:00:09.197Z</time>
      </trkpt>
      <trkpt lat="47.01916" lon="8.96059">
        <ele>856</ele>
        <time>2021-08-02T11:00:10.198Z</time>
      </trkpt>
      <trkpt lat="47.01916" lon="8.96059">
        <ele>856</ele>
        <time>2021-08-02T11:00:11.198Z</time>
      </trkpt>
      <trkpt lat="47.01916" lon="8.9606">
        <ele>856</ele>
        <time>2021-08-02T11:00:12.197Z</time>
      </trkpt>
      <trkpt lat="47.01916" lon="8.96058">
        <ele>856</ele>
        <time>2021-08-02T11:00:13.199Z</time>
      </trkpt>
      <trkpt lat="47.01916" lon="8.96057">
        <ele>856</ele>
        <time>2021-08-02T11:00:14.199Z</time>
      </trkpt>
      <trkpt lat="47.01915" lon="8.96056">
        <ele>856</ele>
        <time>2021-08-02T11:00:21.278Z</time>
      </trkpt>
      <trkpt lat="47.01915" lon="8.96056">
        <ele>855</ele>
        <time>2021-08-02T11:00:38.165Z</time>
      </trkpt>
      <trkpt lat="47.01914" lon="8.96056">
        <ele>855</ele>
        <time>2021-08-02T11:00:52.050Z</time>
      </trkpt>
      <trkpt lat="47.01914" lon="8.96056">
        <ele>855</ele>
        <time>2021-08-02T11:00:53.050Z</time>
      </trkpt>
      <trkpt lat="47.01912" lon="8.96056">
        <ele>855</ele>
        <time>2021-08-02T11:00:54.051Z</time>
      </trkpt>
      <trkpt lat="47.01911" lon="8.96056">
        <ele>855</ele>
        <time>2021-08-02T11:00:55.051Z</time>
      </trkpt>
      <trkpt lat="47.01911" lon="8.96057">
        <ele>855</ele>
        <time>2021-08-02T11:01:11.173Z</time>
      </trkpt>
      <trkpt lat="47.0191" lon="8.96057">
        <ele>855</ele>
        <time>2021-08-02T11:01:12.174Z</time>
      </trkpt>
      <trkpt lat="47.0191" lon="8.96057">
        <ele>855</ele>
        <time>2021-08-02T11:01:13.173Z</time>
      </trkpt>
      <trkpt lat="47.01908" lon="8.96056">
        <ele>855</ele>
        <time>2021-08-02T11:01:14.174Z</time>
      </trkpt>
      <trkpt lat="47.01907" lon="8.96055">
        <ele>855</ele>
        <time>2021-08-02T11:01:20.296Z</time>
      </trkpt>
      <trkpt lat="47.01903" lon="8.96053">
        <ele>854</ele>
        <time>2021-08-02T11:01:21.296Z</time>
      </trkpt>
      <trkpt lat="47.01902" lon="8.96053">
        <ele>854</ele>
        <time>2021-08-02T11:01:22.296Z</time>
      </trkpt>
      <trkpt lat="47.01902" lon="8.96053">
        <ele>854</ele>
        <time>2021-08-02T11:01:23.297Z</time>
      </trkpt>
      <trkpt lat="47.01901" lon="8.96052">
        <ele>854</ele>
        <time>2021-08-02T11:01:24.297Z</time>
      </trkpt>
      <trkpt lat="47.01902" lon="8.96052">
        <ele>854</ele>
        <time>2021-08-02T11:01:25.297Z</time>
      </trkpt>
      <trkpt lat="47.01902" lon="8.96051">
        <ele>854</ele>
        <time>2021-08-02T11:01:26.297Z</time>
      </trkpt>
      <trkpt lat="47.01902" lon="8.9605">
        <ele>854</ele>
        <time>2021-08-02T11:01:27.297Z</time>
      </trkpt>
      <trkpt lat="47.01902" lon="8.96049">
        <ele>853</ele>
        <time>2021-08-02T11:01:28.297Z</time>
      </trkpt>
      <trkpt lat="47.01902" lon="8.96048">
        <ele>853</ele>
        <time>2021-08-02T11:01:29.297Z</time>
      </trkpt>
      <trkpt lat="47.01902" lon="8.96047">
        <ele>852</ele>
        <time>2021-08-02T11:01:33.387Z</time>
      </trkpt>
      <trkpt lat="47.01902" lon="8.96045">
        <ele>852</ele>
        <time>2021-08-02T11:01:46.137Z</time>
      </trkpt>
      <trkpt lat="47.01903" lon="8.96044">
        <ele>852</ele>
        <time>2021-08-02T11:01:47.137Z</time>
      </trkpt>
      <trkpt lat="47.01903" lon="8.96043">
        <ele>851</ele>
        <time>2021-08-02T11:01:48.137Z</time>
      </trkpt>
      <trkpt lat="47.01903" lon="8.96041">
        <ele>851</ele>
        <time>2021-08-02T11:01:49.137Z</time>
      </trkpt>
      <trkpt lat="47.01903" lon="8.9604">
        <ele>851</ele>
        <time>2021-08-02T11:01:50.137Z</time>
      </trkpt>
      <trkpt lat="47.01904" lon="8.96039">
        <ele>851</ele>
        <time>2021-08-02T11:01:51.137Z</time>
      </trkpt>
      <trkpt lat="47.01904" lon="8.96038">
        <ele>850</ele>
        <time>2021-08-02T11:02:33.175Z</time>
      </trkpt>
      <trkpt lat="47.01905" lon="8.96038">
        <ele>850</ele>
        <time>2021-08-02T11:02:34.175Z</time>
      </trkpt>
      <trkpt lat="47.01906" lon="8.96037">
        <ele>850</ele>
        <time>2021-08-02T11:02:44.024Z</time>
      </trkpt>
      <trkpt lat="47.01907" lon="8.96036">
        <ele>850</ele>
        <time>2021-08-02T11:02:45.025Z</time>
      </trkpt>
      <trkpt lat="47.01906" lon="8.96034">
        <ele>850</ele>
        <time>2021-08-02T11:02:46.024Z</time>
      </trkpt>
      <trkpt lat="47.01905" lon="8.96032">
        <ele>850</ele>
        <time>2021-08-02T11:02:57.011Z</time>
      </trkpt>
      <trkpt lat="47.01904" lon="8.96031">
        <ele>850</ele>
        <time>2021-08-02T11:02:58.011Z</time>
      </trkpt>
      <trkpt lat="47.01905" lon="8.96029">
        <ele>849</ele>
        <time>2021-08-02T11:02:59.011Z</time>
      </trkpt>
      <trkpt lat="47.01905" lon="8.96028">
        <ele>849</ele>
        <time>2021-08-02T11:03:00.011Z</time>
      </trkpt>
      <trkpt lat="47.01906" lon="8.96026">
        <ele>849</ele>
        <time>2021-08-02T11:03:01.011Z</time>
      </trkpt>
      <trkpt lat="47.01906" lon="8.96024">
        <ele>849</ele>
        <time>2021-08-02T11:03:07.065Z</time>
      </trkpt>
      <trkpt lat="47.01906" lon="8.96022">
        <ele>849</ele>
        <time>2021-08-02T11:03:08.066Z</time>
      </trkpt>
      <trkpt lat="47.01906" lon="8.9602">
        <ele>849</ele>
        <time>2021-08-02T11:03:09.065Z</time>
      </trkpt>
      <trkpt lat="47.01906" lon="8.96019">
        <ele>849</ele>
        <time>2021-08-02T11:03:12.138Z</time>
      </trkpt>
      <trkpt lat="47.01906" lon="8.96017">
        <ele>849</ele>
        <time>2021-08-02T11:03:13.138Z</time>
      </trkpt>
      <trkpt lat="47.01906" lon="8.96016">
        <ele>849</ele>
        <time>2021-08-02T11:03:14.137Z</time>
      </trkpt>
      <trkpt lat="47.01905" lon="8.96015">
        <ele>849</ele>
        <time>2021-08-02T11:03:18.899Z</time>
      </trkpt>
      <trkpt lat="47.01905" lon="8.96013">
        <ele>848</ele>
        <time>2021-08-02T11:03:21.627Z</time>
      </trkpt>
      <trkpt lat="47.01905" lon="8.96011">
        <ele>848</ele>
        <time>2021-08-02T11:03:22.628Z</time>
      </trkpt>
      <trkpt lat="47.01905" lon="8.9601">
        <ele>848</ele>
        <time>2021-08-02T11:03:23.627Z</time>
      </trkpt>
      <trkpt lat="47.01904" lon="8.96009">
        <ele>848</ele>
        <time>2021-08-02T11:03:25.632Z</time>
      </trkpt>
      <trkpt lat="47.01905" lon="8.96007">
        <ele>848</ele>
        <time>2021-08-02T11:03:26.631Z</time>
      </trkpt>
      <trkpt lat="47.01905" lon="8.96005">
        <ele>848</ele>
        <time>2021-08-02T11:03:38.507Z</time>
      </trkpt>
      <trkpt lat="47.01905" lon="8.96004">
        <ele>848</ele>
        <time>2021-08-02T11:03:39.507Z</time>
      </trkpt>
      <trkpt lat="47.01905" lon="8.96002">
        <ele>847</ele>
        <time>2021-08-02T11:03:40.507Z</time>
      </trkpt>
      <trkpt lat="47.01906" lon="8.96">
        <ele>847</ele>
        <time>2021-08-02T11:03:41.507Z</time>
      </trkpt>
      <trkpt lat="47.01906" lon="8.95999">
        <ele>847</ele>
        <time>2021-08-02T11:03:44.491Z</time>
      </trkpt>
      <trkpt lat="47.01907" lon="8.95997">
        <ele>847</ele>
        <time>2021-08-02T11:03:45.491Z</time>
      </trkpt>
      <trkpt lat="47.01907" lon="8.95996">
        <ele>846</ele>
        <time>2021-08-02T11:03:46.491Z</time>
      </trkpt>
      <trkpt lat="47.01906" lon="8.95994">
        <ele>847</ele>
        <time>2021-08-02T11:03:47.491Z</time>
      </trkpt>
      <trkpt lat="47.01906" lon="8.95993">
        <ele>847</ele>
        <time>2021-08-02T11:03:48.491Z</time>
      </trkpt>
      <trkpt lat="47.01907" lon="8.95991">
        <ele>847</ele>
        <time>2021-08-02T11:03:49.491Z</time>
      </trkpt>
      <trkpt lat="47.01907" lon="8.95989">
        <ele>847</ele>
        <time>2021-08-02T11:03:50.491Z</time>
      </trkpt>
      <trkpt lat="47.01907" lon="8.95988">
        <ele>847</ele>
        <time>2021-08-02T11:03:51.491Z</time>
      </trkpt>
      <trkpt lat="47.01907" lon="8.95986">
        <ele>848</ele>
        <time>2021-08-02T11:03:52.492Z</time>
      </trkpt>
      <trkpt lat="47.01906" lon="8.95984">
        <ele>848</ele>
        <time>2021-08-02T11:03:55.490Z</time>
      </trkpt>
      <trkpt lat="47.01907" lon="8.95982">
        <ele>848</ele>
        <time>2021-08-02T11:04:09.260Z</time>
      </trkpt>
      <trkpt lat="47.01907" lon="8.9598">
        <ele>848</ele>
        <time>2021-08-02T11:04:14.132Z</time>
      </trkpt>
      <trkpt lat="47.01906" lon="8.95978">
        <ele>848</ele>
        <time>2021-08-02T11:04:18.050Z</time>
      </trkpt>
      <trkpt lat="47.01907" lon="8.95976">
        <ele>848</ele>
        <time>2021-08-02T11:04:19.050Z</time>
      </trkpt>
      <trkpt lat="47.01907" lon="8.95975">
        <ele>848</ele>
        <time>2021-08-02T11:04:20.050Z</time>
      </trkpt>
      <trkpt lat="47.01905" lon="8.95972">
        <ele>848</ele>
        <time>2021-08-02T11:04:22.168Z</time>
      </trkpt>
      <trkpt lat="47.01905" lon="8.9597">
        <ele>848</ele>
        <time>2021-08-02T11:04:23.167Z</time>
      </trkpt>
      <trkpt lat="47.01905" lon="8.95969">
        <ele>849</ele>
        <time>2021-08-02T11:04:24.168Z</time>
      </trkpt>
      <trkpt lat="47.01908" lon="8.95967">
        <ele>849</ele>
        <time>2021-08-02T11:04:25.167Z</time>
      </trkpt>
      <trkpt lat="47.01909" lon="8.95966">
        <ele>849</ele>
        <time>2021-08-02T11:04:27.253Z</time>
      </trkpt>
      <trkpt lat="47.0191" lon="8.95964">
        <ele>849</ele>
        <time>2021-08-02T11:04:41.020Z</time>
      </trkpt>
      <trkpt lat="47.0191" lon="8.95963">
        <ele>849</ele>
        <time>2021-08-02T11:04:42.021Z</time>
      </trkpt>
      <trkpt lat="47.0191" lon="8.95961">
        <ele>850</ele>
        <time>2021-08-02T11:04:43.020Z</time>
      </trkpt>
      <trkpt lat="47.01911" lon="8.9596">
        <ele>850</ele>
        <time>2021-08-02T11:04:53.063Z</time>
      </trkpt>
      <trkpt lat="47.01911" lon="8.95958">
        <ele>850</ele>
        <time>2021-08-02T11:04:54.062Z</time>
      </trkpt>
      <trkpt lat="47.01911" lon="8.95957">
        <ele>850</ele>
        <time>2021-08-02T11:04:55.063Z</time>
      </trkpt>
      <trkpt lat="47.01911" lon="8.95956">
        <ele>850</ele>
        <time>2021-08-02T11:05:16.922Z</time>
      </trkpt>
      <trkpt lat="47.01911" lon="8.95954">
        <ele>850</ele>
        <time>2021-08-02T11:05:23.806Z</time>
      </trkpt>
      <trkpt lat="47.01911" lon="8.95953">
        <ele>850</ele>
        <time>2021-08-02T11:05:24.807Z</time>
      </trkpt>
      <trkpt lat="47.01911" lon="8.95951">
        <ele>850</ele>
        <time>2021-08-02T11:05:25.807Z</time>
      </trkpt>
      <trkpt lat="47.01909" lon="8.95949">
        <ele>850</ele>
        <time>2021-08-02T11:05:26.806Z</time>
      </trkpt>
      <trkpt lat="47.01909" lon="8.95947">
        <ele>850</ele>
        <time>2021-08-02T11:05:27.807Z</time>
      </trkpt>
      <trkpt lat="47.01908" lon="8.95945">
        <ele>850</ele>
        <time>2021-08-02T11:05:33.938Z</time>
      </trkpt>
      <trkpt lat="47.01908" lon="8.95943">
        <ele>850</ele>
        <time>2021-08-02T11:05:34.937Z</time>
      </trkpt>
      <trkpt lat="47.01907" lon="8.95942">
        <ele>849</ele>
        <time>2021-08-02T11:05:35.938Z</time>
      </trkpt>
      <trkpt lat="47.01907" lon="8.95941">
        <ele>849</ele>
        <time>2021-08-02T11:05:36.938Z</time>
      </trkpt>
      <trkpt lat="47.01907" lon="8.9594">
        <ele>849</ele>
        <time>2021-08-02T11:05:37.938Z</time>
      </trkpt>
      <trkpt lat="47.01908" lon="8.95938">
        <ele>849</ele>
        <time>2021-08-02T11:05:38.938Z</time>
      </trkpt>
      <trkpt lat="47.01907" lon="8.95936">
        <ele>849</ele>
        <time>2021-08-02T11:05:39.938Z</time>
      </trkpt>
      <trkpt lat="47.01905" lon="8.95933">
        <ele>849</ele>
        <time>2021-08-02T11:05:40.938Z</time>
      </trkpt>
      <trkpt lat="47.01904" lon="8.95932">
        <ele>850</ele>
        <time>2021-08-02T11:05:41.938Z</time>
      </trkpt>
      <trkpt lat="47.01903" lon="8.9593">
        <ele>849</ele>
        <time>2021-08-02T11:05:42.937Z</time>
      </trkpt>
      <trkpt lat="47.01903" lon="8.95928">
        <ele>849</ele>
        <time>2021-08-02T11:05:43.938Z</time>
      </trkpt>
      <trkpt lat="47.01904" lon="8.95927">
        <ele>849</ele>
        <time>2021-08-02T11:05:50.027Z</time>
      </trkpt>
      <trkpt lat="47.01903" lon="8.95925">
        <ele>849</ele>
        <time>2021-08-02T11:05:51.026Z</time>
      </trkpt>
      <trkpt lat="47.01904" lon="8.95924">
        <ele>849</ele>
        <time>2021-08-02T11:05:52.026Z</time>
      </trkpt>
      <trkpt lat="47.01905" lon="8.95922">
        <ele>849</ele>
        <time>2021-08-02T11:06:04.918Z</time>
      </trkpt>
      <trkpt lat="47.01905" lon="8.95921">
        <ele>849</ele>
        <time>2021-08-02T11:06:05.918Z</time>
      </trkpt>
      <trkpt lat="47.01905" lon="8.9592">
        <ele>850</ele>
        <time>2021-08-02T11:06:06.918Z</time>
      </trkpt>
      <trkpt lat="47.01905" lon="8.95919">
        <ele>850</ele>
        <time>2021-08-02T11:06:07.918Z</time>
      </trkpt>
      <trkpt lat="47.01904" lon="8.95918">
        <ele>850</ele>
        <time>2021-08-02T11:06:15.021Z</time>
      </trkpt>
      <trkpt lat="47.01904" lon="8.95917">
        <ele>850</ele>
        <time>2021-08-02T11:06:16.021Z</time>
      </trkpt>
      <trkpt lat="47.01905" lon="8.95916">
        <ele>850</ele>
        <time>2021-08-02T11:06:17.021Z</time>
      </trkpt>
      <trkpt lat="47.01906" lon="8.95915">
        <ele>850</ele>
        <time>2021-08-02T11:06:18.020Z</time>
      </trkpt>
      <trkpt lat="47.01906" lon="8.95913">
        <ele>850</ele>
        <time>2021-08-02T11:06:19.020Z</time>
      </trkpt>
      <trkpt lat="47.01907" lon="8.95912">
        <ele>850</ele>
        <time>2021-08-02T11:06:20.020Z</time>
      </trkpt>
      <trkpt lat="47.01907" lon="8.95911">
        <ele>850</ele>
        <time>2021-08-02T11:06:21.020Z</time>
      </trkpt>
      <trkpt lat="47.01907" lon="8.95909">
        <ele>850</ele>
        <time>2021-08-02T11:06:22.021Z</time>
      </trkpt>
      <trkpt lat="47.01908" lon="8.95908">
        <ele>850</ele>
        <time>2021-08-02T11:06:23.021Z</time>
      </trkpt>
      <trkpt lat="47.01909" lon="8.95906">
        <ele>850</ele>
        <time>2021-08-02T11:06:24.021Z</time>
      </trkpt>
      <trkpt lat="47.0191" lon="8.95905">
        <ele>850</ele>
        <time>2021-08-02T11:06:25.021Z</time>
      </trkpt>
      <trkpt lat="47.0191" lon="8.95903">
        <ele>850</ele>
        <time>2021-08-02T11:06:26.021Z</time>
      </trkpt>
      <trkpt lat="47.01911" lon="8.95902">
        <ele>849</ele>
        <time>2021-08-02T11:06:27.021Z</time>
      </trkpt>
      <trkpt lat="47.01911" lon="8.959">
        <ele>849</ele>
        <time>2021-08-02T11:06:28.020Z</time>
      </trkpt>
      <trkpt lat="47.01911" lon="8.95899">
        <ele>849</ele>
        <time>2021-08-02T11:06:29.020Z</time>
      </trkpt>
      <trkpt lat="47.01911" lon="8.95898">
        <ele>849</ele>
        <time>2021-08-02T11:06:30.020Z</time>
      </trkpt>
      <trkpt lat="47.01911" lon="8.95897">
        <ele>849</ele>
        <time>2021-08-02T11:06:31.020Z</time>
      </trkpt>
      <trkpt lat="47.01912" lon="8.95896">
        <ele>849</ele>
        <time>2021-08-02T11:06:32.020Z</time>
      </trkpt>
      <trkpt lat="47.01912" lon="8.95895">
        <ele>849</ele>
        <time>2021-08-02T11:06:33.021Z</time>
      </trkpt>
      <trkpt lat="47.01912" lon="8.95893">
        <ele>849</ele>
        <time>2021-08-02T11:06:34.020Z</time>
      </trkpt>
      <trkpt lat="47.01913" lon="8.95891">
        <ele>849</ele>
        <time>2021-08-02T11:06:35.020Z</time>
      </trkpt>
      <trkpt lat="47.01913" lon="8.95889">
        <ele>849</ele>
        <time>2021-08-02T11:06:36.020Z</time>
      </trkpt>
      <trkpt lat="47.01913" lon="8.95887">
        <ele>849</ele>
        <time>2021-08-02T11:06:37.021Z</time>
      </trkpt>
      <trkpt lat="47.01912" lon="8.95886">
        <ele>849</ele>
        <time>2021-08-02T11:06:38.021Z</time>
      </trkpt>
      <trkpt lat="47.01912" lon="8.95884">
        <ele>849</ele>
        <time>2021-08-02T11:06:39.020Z</time>
      </trkpt>
      <trkpt lat="47.01911" lon="8.95882">
        <ele>849</ele>
        <time>2021-08-02T11:06:40.021Z</time>
      </trkpt>
      <trkpt lat="47.0191" lon="8.9588">
        <ele>849</ele>
        <time>2021-08-02T11:06:41.021Z</time>
      </trkpt>
      <trkpt lat="47.01909" lon="8.95878">
        <ele>849</ele>
        <time>2021-08-02T11:06:42.020Z</time>
      </trkpt>
      <trkpt lat="47.01909" lon="8.95876">
        <ele>849</ele>
        <time>2021-08-02T11:06:43.021Z</time>
      </trkpt>
      <trkpt lat="47.01908" lon="8.95874">
        <ele>849</ele>
        <time>2021-08-02T11:06:44.021Z</time>
      </trkpt>
      <trkpt lat="47.01908" lon="8.95872">
        <ele>849</ele>
        <time>2021-08-02T11:06:45.021Z</time>
      </trkpt>
      <trkpt lat="47.01908" lon="8.95871">
        <ele>849</ele>
        <time>2021-08-02T11:06:46.020Z</time>
      </trkpt>
      <trkpt lat="47.01909" lon="8.9587">
        <ele>848</ele>
        <time>2021-08-02T11:06:49.046Z</time>
      </trkpt>
      <trkpt lat="47.0191" lon="8.95868">
        <ele>848</ele>
        <time>2021-08-02T11:06:50.046Z</time>
      </trkpt>
      <trkpt lat="47.01911" lon="8.95867">
        <ele>848</ele>
        <time>2021-08-02T11:06:51.046Z</time>
      </trkpt>
      <trkpt lat="47.01912" lon="8.95865">
        <ele>848</ele>
        <time>2021-08-02T11:06:52.045Z</time>
      </trkpt>
      <trkpt lat="47.01913" lon="8.95863">
        <ele>848</ele>
        <time>2021-08-02T11:06:53.045Z</time>
      </trkpt>
      <trkpt lat="47.01913" lon="8.95862">
        <ele>848</ele>
        <time>2021-08-02T11:06:54.046Z</time>
      </trkpt>
      <trkpt lat="47.01913" lon="8.9586">
        <ele>848</ele>
        <time>2021-08-02T11:06:55.045Z</time>
      </trkpt>
      <trkpt lat="47.01914" lon="8.95859">
        <ele>848</ele>
        <time>2021-08-02T11:06:56.046Z</time>
      </trkpt>
      <trkpt lat="47.01914" lon="8.95857">
        <ele>848</ele>
        <time>2021-08-02T11:06:57.045Z</time>
      </trkpt>
      <trkpt lat="47.01915" lon="8.95856">
        <ele>848</ele>
        <time>2021-08-02T11:06:58.046Z</time>
      </trkpt>
      <trkpt lat="47.01915" lon="8.95854">
        <ele>848</ele>
        <time>2021-08-02T11:06:59.046Z</time>
      </trkpt>
      <trkpt lat="47.01915" lon="8.95853">
        <ele>849</ele>
        <time>2021-08-02T11:07:00.046Z</time>
      </trkpt>
      <trkpt lat="47.01916" lon="8.95851">
        <ele>849</ele>
        <time>2021-08-02T11:07:01.045Z</time>
      </trkpt>
      <trkpt lat="47.01915" lon="8.9585">
        <ele>849</ele>
        <time>2021-08-02T11:07:02.046Z</time>
      </trkpt>
      <trkpt lat="47.01914" lon="8.95848">
        <ele>849</ele>
        <time>2021-08-02T11:07:03.046Z</time>
      </trkpt>
      <trkpt lat="47.01914" lon="8.95846">
        <ele>849</ele>
        <time>2021-08-02T11:07:04.046Z</time>
      </trkpt>
      <trkpt lat="47.01915" lon="8.95845">
        <ele>849</ele>
        <time>2021-08-02T11:07:05.045Z</time>
      </trkpt>
      <trkpt lat="47.01915" lon="8.95843">
        <ele>849</ele>
        <time>2021-08-02T11:07:06.046Z</time>
      </trkpt>
      <trkpt lat="47.01915" lon="8.95841">
        <ele>849</ele>
        <time>2021-08-02T11:07:07.046Z</time>
      </trkpt>
      <trkpt lat="47.01914" lon="8.95839">
        <ele>849</ele>
        <time>2021-08-02T11:07:08.046Z</time>
      </trkpt>
      <trkpt lat="47.01914" lon="8.95837">
        <ele>849</ele>
        <time>2021-08-02T11:07:09.046Z</time>
      </trkpt>
      <trkpt lat="47.01914" lon="8.95835">
        <ele>849</ele>
        <time>2021-08-02T11:07:10.045Z</time>
      </trkpt>
      <trkpt lat="47.01914" lon="8.95834">
        <ele>849</ele>
        <time>2021-08-02T11:07:11.046Z</time>
      </trkpt>
      <trkpt lat="47.01913" lon="8.95833">
        <ele>850</ele>
        <time>2021-08-02T11:07:12.045Z</time>
      </trkpt>
      <trkpt lat="47.01912" lon="8.95831">
        <ele>850</ele>
        <time>2021-08-02T11:07:13.046Z</time>
      </trkpt>
      <trkpt lat="47.01912" lon="8.95829">
        <ele>850</ele>
        <time>2021-08-02T11:07:14.045Z</time>
      </trkpt>
      <trkpt lat="47.01912" lon="8.95828">
        <ele>851</ele>
        <time>2021-08-02T11:07:15.045Z</time>
      </trkpt>
      <trkpt lat="47.01912" lon="8.95826">
        <ele>851</ele>
        <time>2021-08-02T11:07:16.046Z</time>
      </trkpt>
      <trkpt lat="47.01911" lon="8.95824">
        <ele>851</ele>
        <time>2021-08-02T11:07:17.045Z</time>
      </trkpt>
      <trkpt lat="47.01911" lon="8.95822">
        <ele>851</ele>
        <time>2021-08-02T11:07:18.045Z</time>
      </trkpt>
      <trkpt lat="47.0191" lon="8.9582">
        <ele>851</ele>
        <time>2021-08-02T11:07:19.046Z</time>
      </trkpt>
      <trkpt lat="47.01909" lon="8.95818">
        <ele>851</ele>
        <time>2021-08-02T11:07:20.045Z</time>
      </trkpt>
      <trkpt lat="47.01909" lon="8.95817">
        <ele>851</ele>
        <time>2021-08-02T11:07:21.046Z</time>
      </trkpt>
      <trkpt lat="47.01907" lon="8.95816">
        <ele>852</ele>
        <time>2021-08-02T11:07:22.046Z</time>
      </trkpt>
      <trkpt lat="47.01906" lon="8.95814">
        <ele>852</ele>
        <time>2021-08-02T11:07:23.046Z</time>
      </trkpt>
      <trkpt lat="47.01906" lon="8.95813">
        <ele>852</ele>
        <time>2021-08-02T11:07:24.046Z</time>
      </trkpt>
      <trkpt lat="47.01906" lon="8.95812">
        <ele>851</ele>
        <time>2021-08-02T11:07:25.046Z</time>
      </trkpt>
      <trkpt lat="47.01906" lon="8.95811">
        <ele>851</ele>
        <time>2021-08-02T11:07:26.045Z</time>
      </trkpt>
      <trkpt lat="47.01905" lon="8.95809">
        <ele>851</ele>
        <time>2021-08-02T11:07:27.045Z</time>
      </trkpt>
      <trkpt lat="47.01907" lon="8.95808">
        <ele>851</ele>
        <time>2021-08-02T11:07:28.045Z</time>
      </trkpt>
      <trkpt lat="47.01907" lon="8.95806">
        <ele>851</ele>
        <time>2021-08-02T11:07:29.045Z</time>
      </trkpt>
      <trkpt lat="47.01909" lon="8.95805">
        <ele>851</ele>
        <time>2021-08-02T11:07:30.046Z</time>
      </trkpt>
      <trkpt lat="47.0191" lon="8.95804">
        <ele>851</ele>
        <time>2021-08-02T11:07:31.045Z</time>
      </trkpt>
      <trkpt lat="47.01909" lon="8.95802">
        <ele>850</ele>
        <time>2021-08-02T11:07:32.046Z</time>
      </trkpt>
      <trkpt lat="47.01908" lon="8.95801">
        <ele>850</ele>
        <time>2021-08-02T11:07:33.046Z</time>
      </trkpt>
      <trkpt lat="47.01908" lon="8.958">
        <ele>850</ele>
        <time>2021-08-02T11:07:34.046Z</time>
      </trkpt>
      <trkpt lat="47.01908" lon="8.95798">
        <ele>850</ele>
        <time>2021-08-02T11:07:38.160Z</time>
      </trkpt>
      <trkpt lat="47.01908" lon="8.95797">
        <ele>850</ele>
        <time>2021-08-02T11:07:39.160Z</time>
      </trkpt>
      <trkpt lat="47.01907" lon="8.95795">
        <ele>851</ele>
        <time>2021-08-02T11:07:40.160Z</time>
      </trkpt>
      <trkpt lat="47.01906" lon="8.95794">
        <ele>851</ele>
        <time>2021-08-02T11:07:41.159Z</time>
      </trkpt>
      <trkpt lat="47.01906" lon="8.95793">
        <ele>851</ele>
        <time>2021-08-02T11:07:42.160Z</time>
      </trkpt>
      <trkpt lat="47.01906" lon="8.95791">
        <ele>851</ele>
        <time>2021-08-02T11:07:43.160Z</time>
      </trkpt>
      <trkpt lat="47.01905" lon="8.9579">
        <ele>851</ele>
        <time>2021-08-02T11:07:44.160Z</time>
      </trkpt>
      <trkpt lat="47.01903" lon="8.95788">
        <ele>851</ele>
        <time>2021-08-02T11:07:45.160Z</time>
      </trkpt>
      <trkpt lat="47.01902" lon="8.95787">
        <ele>851</ele>
        <time>2021-08-02T11:07:46.160Z</time>
      </trkpt>
      <trkpt lat="47.01902" lon="8.95785">
        <ele>850</ele>
        <time>2021-08-02T11:07:47.159Z</time>
      </trkpt>
      <trkpt lat="47.01903" lon="8.95783">
        <ele>850</ele>
        <time>2021-08-02T11:07:48.160Z</time>
      </trkpt>
      <trkpt lat="47.01903" lon="8.95782">
        <ele>850</ele>
        <time>2021-08-02T11:07:49.160Z</time>
      </trkpt>
      <trkpt lat="47.01904" lon="8.9578">
        <ele>850</ele>
        <time>2021-08-02T11:07:50.159Z</time>
      </trkpt>
      <trkpt lat="47.01904" lon="8.95779">
        <ele>850</ele>
        <time>2021-08-02T11:07:51.160Z</time>
      </trkpt>
      <trkpt lat="47.01904" lon="8.95777">
        <ele>850</ele>
        <time>2021-08-02T11:07:52.160Z</time>
      </trkpt>
      <trkpt lat="47.01904" lon="8.95775">
        <ele>850</ele>
        <time>2021-08-02T11:07:53.160Z</time>
      </trkpt>
      <trkpt lat="47.01903" lon="8.95773">
        <ele>851</ele>
        <time>2021-08-02T11:07:54.160Z</time>
      </trkpt>
      <trkpt lat="47.01902" lon="8.95772">
        <ele>851</ele>
        <time>2021-08-02T11:07:55.160Z</time>
      </trkpt>
      <trkpt lat="47.01901" lon="8.95771">
        <ele>851</ele>
        <time>2021-08-02T11:07:56.160Z</time>
      </trkpt>
      <trkpt lat="47.019" lon="8.9577">
        <ele>852</ele>
        <time>2021-08-02T11:07:57.160Z</time>
      </trkpt>
      <trkpt lat="47.019" lon="8.95768">
        <ele>852</ele>
        <time>2021-08-02T11:07:58.159Z</time>
      </trkpt>
      <trkpt lat="47.019" lon="8.95768">
        <ele>852</ele>
        <time>2021-08-02T11:07:59.159Z</time>
      </trkpt>
      <trkpt lat="47.01899" lon="8.95766">
        <ele>852</ele>
        <time>2021-08-02T11:08:00.160Z</time>
      </trkpt>
      <trkpt lat="47.01899" lon="8.95765">
        <ele>853</ele>
        <time>2021-08-02T11:08:01.160Z</time>
      </trkpt>
      <trkpt lat="47.01898" lon="8.95765">
        <ele>853</ele>
        <time>2021-08-02T11:08:02.159Z</time>
      </trkpt>
      <trkpt lat="47.01897" lon="8.95764">
        <ele>852</ele>
        <time>2021-08-02T11:08:03.160Z</time>
      </trkpt>
      <trkpt lat="47.01897" lon="8.95763">
        <ele>852</ele>
        <time>2021-08-02T11:08:04.160Z</time>
      </trkpt>
      <trkpt lat="47.01896" lon="8.95762">
        <ele>851</ele>
        <time>2021-08-02T11:08:05.160Z</time>
      </trkpt>
      <trkpt lat="47.01896" lon="8.95761">
        <ele>850</ele>
        <time>2021-08-02T11:08:06.160Z</time>
      </trkpt>
      <trkpt lat="47.01896" lon="8.9576">
        <ele>850</ele>
        <time>2021-08-02T11:08:07.159Z</time>
      </trkpt>
      <trkpt lat="47.01897" lon="8.95759">
        <ele>849</ele>
        <time>2021-08-02T11:08:08.159Z</time>
      </trkpt>
      <trkpt lat="47.01898" lon="8.95758">
        <ele>849</ele>
        <time>2021-08-02T11:08:09.160Z</time>
      </trkpt>
      <trkpt lat="47.01898" lon="8.95757">
        <ele>849</ele>
        <time>2021-08-02T11:08:10.160Z</time>
      </trkpt>
      <trkpt lat="47.01899" lon="8.95756">
        <ele>848</ele>
        <time>2021-08-02T11:08:11.159Z</time>
      </trkpt>
      <trkpt lat="47.01899" lon="8.95755">
        <ele>848</ele>
        <time>2021-08-02T11:08:12.160Z</time>
      </trkpt>
      <trkpt lat="47.019" lon="8.95753">
        <ele>848</ele>
        <time>2021-08-02T11:08:13.160Z</time>
      </trkpt>
      <trkpt lat="47.019" lon="8.95752">
        <ele>848</ele>
        <time>2021-08-02T11:08:14.160Z</time>
      </trkpt>
      <trkpt lat="47.019" lon="8.95751">
        <ele>848</ele>
        <time>2021-08-02T11:08:15.160Z</time>
      </trkpt>
      <trkpt lat="47.019" lon="8.9575">
        <ele>848</ele>
        <time>2021-08-02T11:08:16.160Z</time>
      </trkpt>
      <trkpt lat="47.01901" lon="8.95749">
        <ele>848</ele>
        <time>2021-08-02T11:08:17.159Z</time>
      </trkpt>
      <trkpt lat="47.01901" lon="8.95748">
        <ele>848</ele>
        <time>2021-08-02T11:08:18.160Z</time>
      </trkpt>
      <trkpt lat="47.01902" lon="8.95747">
        <ele>848</ele>
        <time>2021-08-02T11:08:19.159Z</time>
      </trkpt>
      <trkpt lat="47.01902" lon="8.95746">
        <ele>849</ele>
        <time>2021-08-02T11:08:20.159Z</time>
      </trkpt>
      <trkpt lat="47.01902" lon="8.95745">
        <ele>849</ele>
        <time>2021-08-02T11:08:21.160Z</time>
      </trkpt>
      <trkpt lat="47.019" lon="8.95744">
        <ele>849</ele>
        <time>2021-08-02T11:08:22.159Z</time>
      </trkpt>
      <trkpt lat="47.01899" lon="8.95742">
        <ele>849</ele>
        <time>2021-08-02T11:08:23.160Z</time>
      </trkpt>
      <trkpt lat="47.01898" lon="8.95741">
        <ele>849</ele>
        <time>2021-08-02T11:08:24.160Z</time>
      </trkpt>
      <trkpt lat="47.01898" lon="8.95739">
        <ele>850</ele>
        <time>2021-08-02T11:08:25.160Z</time>
      </trkpt>
      <trkpt lat="47.01898" lon="8.95737">
        <ele>850</ele>
        <time>2021-08-02T11:08:26.160Z</time>
      </trkpt>
      <trkpt lat="47.01899" lon="8.95736">
        <ele>850</ele>
        <time>2021-08-02T11:08:27.160Z</time>
      </trkpt>
      <trkpt lat="47.01899" lon="8.95734">
        <ele>850</ele>
        <time>2021-08-02T11:08:28.160Z</time>
      </trkpt>
      <trkpt lat="47.01901" lon="8.95732">
        <ele>850</ele>
        <time>2021-08-02T11:08:29.160Z</time>
      </trkpt>
      <trkpt lat="47.01901" lon="8.95731">
        <ele>851</ele>
        <time>2021-08-02T11:08:30.160Z</time>
      </trkpt>
      <trkpt lat="47.01902" lon="8.95729">
        <ele>851</ele>
        <time>2021-08-02T11:08:31.160Z</time>
      </trkpt>
      <trkpt lat="47.01902" lon="8.95728">
        <ele>851</ele>
        <time>2021-08-02T11:08:32.160Z</time>
      </trkpt>
      <trkpt lat="47.01902" lon="8.95726">
        <ele>851</ele>
        <time>2021-08-02T11:08:33.159Z</time>
      </trkpt>
      <trkpt lat="47.01903" lon="8.95724">
        <ele>851</ele>
        <time>2021-08-02T11:08:34.160Z</time>
      </trkpt>
      <trkpt lat="47.01903" lon="8.95722">
        <ele>851</ele>
        <time>2021-08-02T11:08:35.160Z</time>
      </trkpt>
      <trkpt lat="47.01903" lon="8.95721">
        <ele>851</ele>
        <time>2021-08-02T11:08:36.160Z</time>
      </trkpt>
      <trkpt lat="47.01903" lon="8.9572">
        <ele>851</ele>
        <time>2021-08-02T11:08:37.160Z</time>
      </trkpt>
      <trkpt lat="47.01903" lon="8.95719">
        <ele>851</ele>
        <time>2021-08-02T11:08:38.160Z</time>
      </trkpt>
      <trkpt lat="47.01903" lon="8.95717">
        <ele>851</ele>
        <time>2021-08-02T11:08:39.160Z</time>
      </trkpt>
      <trkpt lat="47.01903" lon="8.95715">
        <ele>851</ele>
        <time>2021-08-02T11:08:40.159Z</time>
      </trkpt>
      <trkpt lat="47.01903" lon="8.95713">
        <ele>850</ele>
        <time>2021-08-02T11:08:41.159Z</time>
      </trkpt>
      <trkpt lat="47.01904" lon="8.95711">
        <ele>850</ele>
        <time>2021-08-02T11:08:42.160Z</time>
      </trkpt>
      <trkpt lat="47.01905" lon="8.9571">
        <ele>850</ele>
        <time>2021-08-02T11:08:43.160Z</time>
      </trkpt>
      <trkpt lat="47.01904" lon="8.95708">
        <ele>849</ele>
        <time>2021-08-02T11:08:44.159Z</time>
      </trkpt>
      <trkpt lat="47.01904" lon="8.95707">
        <ele>849</ele>
        <time>2021-08-02T11:08:45.160Z</time>
      </trkpt>
      <trkpt lat="47.01904" lon="8.95706">
        <ele>848</ele>
        <time>2021-08-02T11:08:46.159Z</time>
      </trkpt>
      <trkpt lat="47.01904" lon="8.95705">
        <ele>848</ele>
        <time>2021-08-02T11:08:47.160Z</time>
      </trkpt>
      <trkpt lat="47.01903" lon="8.95703">
        <ele>848</ele>
        <time>2021-08-02T11:08:48.160Z</time>
      </trkpt>
      <trkpt lat="47.01903" lon="8.95702">
        <ele>847</ele>
        <time>2021-08-02T11:08:49.160Z</time>
      </trkpt>
      <trkpt lat="47.01903" lon="8.957">
        <ele>847</ele>
        <time>2021-08-02T11:08:50.159Z</time>
      </trkpt>
      <trkpt lat="47.01903" lon="8.95699">
        <ele>847</ele>
        <time>2021-08-02T11:08:51.159Z</time>
      </trkpt>
      <trkpt lat="47.01902" lon="8.95698">
        <ele>847</ele>
        <time>2021-08-02T11:08:52.160Z</time>
      </trkpt>
      <trkpt lat="47.01901" lon="8.95696">
        <ele>848</ele>
        <time>2021-08-02T11:08:53.160Z</time>
      </trkpt>
      <trkpt lat="47.019" lon="8.95695">
        <ele>848</ele>
        <time>2021-08-02T11:08:54.160Z</time>
      </trkpt>
      <trkpt lat="47.01899" lon="8.95694">
        <ele>848</ele>
        <time>2021-08-02T11:08:55.160Z</time>
      </trkpt>
      <trkpt lat="47.01899" lon="8.95693">
        <ele>848</ele>
        <time>2021-08-02T11:08:56.160Z</time>
      </trkpt>
      <trkpt lat="47.019" lon="8.95691">
        <ele>848</ele>
        <time>2021-08-02T11:08:57.160Z</time>
      </trkpt>
      <trkpt lat="47.019" lon="8.9569">
        <ele>848</ele>
        <time>2021-08-02T11:08:58.159Z</time>
      </trkpt>
      <trkpt lat="47.01902" lon="8.95688">
        <ele>848</ele>
        <time>2021-08-02T11:08:59.160Z</time>
      </trkpt>
      <trkpt lat="47.01903" lon="8.95687">
        <ele>848</ele>
        <time>2021-08-02T11:09:00.159Z</time>
      </trkpt>
      <trkpt lat="47.01903" lon="8.95685">
        <ele>848</ele>
        <time>2021-08-02T11:09:01.160Z</time>
      </trkpt>
      <trkpt lat="47.01904" lon="8.95684">
        <ele>848</ele>
        <time>2021-08-02T11:09:02.159Z</time>
      </trkpt>
      <trkpt lat="47.01904" lon="8.95683">
        <ele>848</ele>
        <time>2021-08-02T11:09:03.160Z</time>
      </trkpt>
      <trkpt lat="47.01905" lon="8.95681">
        <ele>848</ele>
        <time>2021-08-02T11:09:04.160Z</time>
      </trkpt>
      <trkpt lat="47.01905" lon="8.95679">
        <ele>848</ele>
        <time>2021-08-02T11:09:05.159Z</time>
      </trkpt>
      <trkpt lat="47.01906" lon="8.95678">
        <ele>848</ele>
        <time>2021-08-02T11:09:06.160Z</time>
      </trkpt>
      <trkpt lat="47.01906" lon="8.95677">
        <ele>848</ele>
        <time>2021-08-02T11:09:07.160Z</time>
      </trkpt>
      <trkpt lat="47.01905" lon="8.95675">
        <ele>848</ele>
        <time>2021-08-02T11:09:08.160Z</time>
      </trkpt>
      <trkpt lat="47.01903" lon="8.95674">
        <ele>848</ele>
        <time>2021-08-02T11:09:09.159Z</time>
      </trkpt>
      <trkpt lat="47.01903" lon="8.95673">
        <ele>847</ele>
        <time>2021-08-02T11:09:10.159Z</time>
      </trkpt>
      <trkpt lat="47.01902" lon="8.95672">
        <ele>847</ele>
        <time>2021-08-02T11:09:11.160Z</time>
      </trkpt>
      <trkpt lat="47.01902" lon="8.95671">
        <ele>847</ele>
        <time>2021-08-02T11:09:12.159Z</time>
      </trkpt>
      <trkpt lat="47.01903" lon="8.9567">
        <ele>846</ele>
        <time>2021-08-02T11:09:13.159Z</time>
      </trkpt>
      <trkpt lat="47.01903" lon="8.95669">
        <ele>846</ele>
        <time>2021-08-02T11:09:14.159Z</time>
      </trkpt>
      <trkpt lat="47.01905" lon="8.95668">
        <ele>846</ele>
        <time>2021-08-02T11:09:15.160Z</time>
      </trkpt>
      <trkpt lat="47.01905" lon="8.95667">
        <ele>846</ele>
        <time>2021-08-02T11:09:16.160Z</time>
      </trkpt>
      <trkpt lat="47.01905" lon="8.95666">
        <ele>846</ele>
        <time>2021-08-02T11:09:17.160Z</time>
      </trkpt>
      <trkpt lat="47.01905" lon="8.95665">
        <ele>845</ele>
        <time>2021-08-02T11:09:18.160Z</time>
      </trkpt>
      <trkpt lat="47.01905" lon="8.95664">
        <ele>845</ele>
        <time>2021-08-02T11:09:19.160Z</time>
      </trkpt>
      <trkpt lat="47.01906" lon="8.95662">
        <ele>845</ele>
        <time>2021-08-02T11:09:20.160Z</time>
      </trkpt>
      <trkpt lat="47.01906" lon="8.95661">
        <ele>844</ele>
        <time>2021-08-02T11:09:21.160Z</time>
      </trkpt>
      <trkpt lat="47.01907" lon="8.95659">
        <ele>844</ele>
        <time>2021-08-02T11:09:22.160Z</time>
      </trkpt>
      <trkpt lat="47.01908" lon="8.95658">
        <ele>844</ele>
        <time>2021-08-02T11:09:23.160Z</time>
      </trkpt>
      <trkpt lat="47.01909" lon="8.95656">
        <ele>845</ele>
        <time>2021-08-02T11:09:24.160Z</time>
      </trkpt>
      <trkpt lat="47.01909" lon="8.95655">
        <ele>845</ele>
        <time>2021-08-02T11:09:25.159Z</time>
      </trkpt>
      <trkpt lat="47.0191" lon="8.95654">
        <ele>845</ele>
        <time>2021-08-02T11:09:26.160Z</time>
      </trkpt>
      <trkpt lat="47.01911" lon="8.95652">
        <ele>845</ele>
        <time>2021-08-02T11:09:27.159Z</time>
      </trkpt>
      <trkpt lat="47.01911" lon="8.95651">
        <ele>845</ele>
        <time>2021-08-02T11:09:28.160Z</time>
      </trkpt>
      <trkpt lat="47.01912" lon="8.95649">
        <ele>845</ele>
        <time>2021-08-02T11:09:29.160Z</time>
      </trkpt>
      <trkpt lat="47.01912" lon="8.95648">
        <ele>846</ele>
        <time>2021-08-02T11:09:30.160Z</time>
      </trkpt>
      <trkpt lat="47.01913" lon="8.95646">
        <ele>846</ele>
        <time>2021-08-02T11:09:31.160Z</time>
      </trkpt>
      <trkpt lat="47.01913" lon="8.95645">
        <ele>846</ele>
        <time>2021-08-02T11:09:32.160Z</time>
      </trkpt>
      <trkpt lat="47.01913" lon="8.95643">
        <ele>846</ele>
        <time>2021-08-02T11:09:33.159Z</time>
      </trkpt>
      <trkpt lat="47.01914" lon="8.95642">
        <ele>846</ele>
        <time>2021-08-02T11:09:34.160Z</time>
      </trkpt>
      <trkpt lat="47.01914" lon="8.9564">
        <ele>846</ele>
        <time>2021-08-02T11:09:35.160Z</time>
      </trkpt>
      <trkpt lat="47.01916" lon="8.95639">
        <ele>847</ele>
        <time>2021-08-02T11:09:36.160Z</time>
      </trkpt>
      <trkpt lat="47.01917" lon="8.95638">
        <ele>848</ele>
        <time>2021-08-02T11:09:37.159Z</time>
      </trkpt>
      <trkpt lat="47.01918" lon="8.95635">
        <ele>848</ele>
        <time>2021-08-02T11:09:38.160Z</time>
      </trkpt>
      <trkpt lat="47.01919" lon="8.95634">
        <ele>849</ele>
        <time>2021-08-02T11:09:39.159Z</time>
      </trkpt>
      <trkpt lat="47.01919" lon="8.95631">
        <ele>849</ele>
        <time>2021-08-02T11:09:40.160Z</time>
      </trkpt>
      <trkpt lat="47.01919" lon="8.9563">
        <ele>849</ele>
        <time>2021-08-02T11:09:41.159Z</time>
      </trkpt>
      <trkpt lat="47.01919" lon="8.95628">
        <ele>850</ele>
        <time>2021-08-02T11:09:42.160Z</time>
      </trkpt>
      <trkpt lat="47.01919" lon="8.95627">
        <ele>850</ele>
        <time>2021-08-02T11:09:43.159Z</time>
      </trkpt>
      <trkpt lat="47.01919" lon="8.95626">
        <ele>850</ele>
        <time>2021-08-02T11:09:44.160Z</time>
      </trkpt>
      <trkpt lat="47.01918" lon="8.95624">
        <ele>850</ele>
        <time>2021-08-02T11:09:45.159Z</time>
      </trkpt>
      <trkpt lat="47.01918" lon="8.95623">
        <ele>850</ele>
        <time>2021-08-02T11:09:46.160Z</time>
      </trkpt>
      <trkpt lat="47.01918" lon="8.95621">
        <ele>850</ele>
        <time>2021-08-02T11:09:47.159Z</time>
      </trkpt>
      <trkpt lat="47.01918" lon="8.9562">
        <ele>850</ele>
        <time>2021-08-02T11:09:48.159Z</time>
      </trkpt>
      <trkpt lat="47.01918" lon="8.95618">
        <ele>849</ele>
        <time>2021-08-02T11:09:49.160Z</time>
      </trkpt>
      <trkpt lat="47.01918" lon="8.95617">
        <ele>849</ele>
        <time>2021-08-02T11:09:50.159Z</time>
      </trkpt>
      <trkpt lat="47.01918" lon="8.95615">
        <ele>849</ele>
        <time>2021-08-02T11:09:51.159Z</time>
      </trkpt>
      <trkpt lat="47.01919" lon="8.95614">
        <ele>849</ele>
        <time>2021-08-02T11:09:52.160Z</time>
      </trkpt>
      <trkpt lat="47.0192" lon="8.95612">
        <ele>848</ele>
        <time>2021-08-02T11:09:53.159Z</time>
      </trkpt>
      <trkpt lat="47.01922" lon="8.9561">
        <ele>848</ele>
        <time>2021-08-02T11:09:54.159Z</time>
      </trkpt>
      <trkpt lat="47.01923" lon="8.95609">
        <ele>848</ele>
        <time>2021-08-02T11:09:58.267Z</time>
      </trkpt>
      <trkpt lat="47.01924" lon="8.95607">
        <ele>848</ele>
        <time>2021-08-02T11:09:59.267Z</time>
      </trkpt>
      <trkpt lat="47.01925" lon="8.95606">
        <ele>848</ele>
        <time>2021-08-02T11:10:00.267Z</time>
      </trkpt>
      <trkpt lat="47.01926" lon="8.95604">
        <ele>847</ele>
        <time>2021-08-02T11:10:01.267Z</time>
      </trkpt>
      <trkpt lat="47.01925" lon="8.95602">
        <ele>847</ele>
        <time>2021-08-02T11:10:02.268Z</time>
      </trkpt>
      <trkpt lat="47.01925" lon="8.956">
        <ele>847</ele>
        <time>2021-08-02T11:10:03.267Z</time>
      </trkpt>
      <trkpt lat="47.01926" lon="8.95599">
        <ele>847</ele>
        <time>2021-08-02T11:10:04.267Z</time>
      </trkpt>
      <trkpt lat="47.01925" lon="8.95597">
        <ele>847</ele>
        <time>2021-08-02T11:10:05.267Z</time>
      </trkpt>
      <trkpt lat="47.01924" lon="8.95595">
        <ele>847</ele>
        <time>2021-08-02T11:10:06.268Z</time>
      </trkpt>
      <trkpt lat="47.01924" lon="8.95593">
        <ele>847</ele>
        <time>2021-08-02T11:10:07.267Z</time>
      </trkpt>
      <trkpt lat="47.01924" lon="8.95592">
        <ele>847</ele>
        <time>2021-08-02T11:10:08.267Z</time>
      </trkpt>
      <trkpt lat="47.01924" lon="8.9559">
        <ele>847</ele>
        <time>2021-08-02T11:10:09.267Z</time>
      </trkpt>
      <trkpt lat="47.01925" lon="8.95589">
        <ele>847</ele>
        <time>2021-08-02T11:10:10.267Z</time>
      </trkpt>
      <trkpt lat="47.01925" lon="8.95587">
        <ele>847</ele>
        <time>2021-08-02T11:10:11.267Z</time>
      </trkpt>
      <trkpt lat="47.01924" lon="8.95585">
        <ele>847</ele>
        <time>2021-08-02T11:10:12.267Z</time>
      </trkpt>
      <trkpt lat="47.01926" lon="8.95584">
        <ele>847</ele>
        <time>2021-08-02T11:10:13.267Z</time>
      </trkpt>
      <trkpt lat="47.01927" lon="8.95583">
        <ele>848</ele>
        <time>2021-08-02T11:10:14.267Z</time>
      </trkpt>
      <trkpt lat="47.01927" lon="8.95581">
        <ele>848</ele>
        <time>2021-08-02T11:10:15.267Z</time>
      </trkpt>
      <trkpt lat="47.01926" lon="8.95579">
        <ele>848</ele>
        <time>2021-08-02T11:10:16.267Z</time>
      </trkpt>
      <trkpt lat="47.01925" lon="8.95578">
        <ele>848</ele>
        <time>2021-08-02T11:10:17.268Z</time>
      </trkpt>
      <trkpt lat="47.01926" lon="8.95577">
        <ele>848</ele>
        <time>2021-08-02T11:10:18.267Z</time>
      </trkpt>
      <trkpt lat="47.01926" lon="8.95575">
        <ele>848</ele>
        <time>2021-08-02T11:10:19.267Z</time>
      </trkpt>
      <trkpt lat="47.01925" lon="8.95574">
        <ele>848</ele>
        <time>2021-08-02T11:10:20.267Z</time>
      </trkpt>
      <trkpt lat="47.01926" lon="8.95572">
        <ele>848</ele>
        <time>2021-08-02T11:10:21.267Z</time>
      </trkpt>
      <trkpt lat="47.01926" lon="8.95571">
        <ele>848</ele>
        <time>2021-08-02T11:10:22.267Z</time>
      </trkpt>
      <trkpt lat="47.01927" lon="8.9557">
        <ele>849</ele>
        <time>2021-08-02T11:10:23.267Z</time>
      </trkpt>
      <trkpt lat="47.01927" lon="8.95568">
        <ele>849</ele>
        <time>2021-08-02T11:10:24.268Z</time>
      </trkpt>
      <trkpt lat="47.01928" lon="8.95567">
        <ele>849</ele>
        <time>2021-08-02T11:10:25.268Z</time>
      </trkpt>
      <trkpt lat="47.01928" lon="8.95566">
        <ele>849</ele>
        <time>2021-08-02T11:10:26.268Z</time>
      </trkpt>
      <trkpt lat="47.01929" lon="8.95565">
        <ele>849</ele>
        <time>2021-08-02T11:10:27.267Z</time>
      </trkpt>
      <trkpt lat="47.0193" lon="8.95564">
        <ele>848</ele>
        <time>2021-08-02T11:10:28.268Z</time>
      </trkpt>
      <trkpt lat="47.0193" lon="8.95562">
        <ele>848</ele>
        <time>2021-08-02T11:10:29.268Z</time>
      </trkpt>
      <trkpt lat="47.0193" lon="8.95561">
        <ele>848</ele>
        <time>2021-08-02T11:10:30.267Z</time>
      </trkpt>
      <trkpt lat="47.01931" lon="8.9556">
        <ele>848</ele>
        <time>2021-08-02T11:10:31.267Z</time>
      </trkpt>
      <trkpt lat="47.01932" lon="8.95559">
        <ele>848</ele>
        <time>2021-08-02T11:10:32.267Z</time>
      </trkpt>
      <trkpt lat="47.01934" lon="8.95559">
        <ele>848</ele>
        <time>2021-08-02T11:10:33.268Z</time>
      </trkpt>
      <trkpt lat="47.01936" lon="8.95559">
        <ele>848</ele>
        <time>2021-08-02T11:10:34.267Z</time>
      </trkpt>
      <trkpt lat="47.01937" lon="8.95558">
        <ele>848</ele>
        <time>2021-08-02T11:10:35.268Z</time>
      </trkpt>
      <trkpt lat="47.01938" lon="8.95557">
        <ele>848</ele>
        <time>2021-08-02T11:10:36.267Z</time>
      </trkpt>
      <trkpt lat="47.01939" lon="8.95556">
        <ele>848</ele>
        <time>2021-08-02T11:10:37.267Z</time>
      </trkpt>
      <trkpt lat="47.0194" lon="8.95555">
        <ele>848</ele>
        <time>2021-08-02T11:10:38.267Z</time>
      </trkpt>
      <trkpt lat="47.0194" lon="8.95555">
        <ele>848</ele>
        <time>2021-08-02T11:10:39.268Z</time>
      </trkpt>
      <trkpt lat="47.01941" lon="8.95554">
        <ele>847</ele>
        <time>2021-08-02T11:10:40.267Z</time>
      </trkpt>
      <trkpt lat="47.01942" lon="8.95553">
        <ele>847</ele>
        <time>2021-08-02T11:10:41.267Z</time>
      </trkpt>
      <trkpt lat="47.01943" lon="8.95553">
        <ele>847</ele>
        <time>2021-08-02T11:10:42.268Z</time>
      </trkpt>
      <trkpt lat="47.01945" lon="8.95552">
        <ele>847</ele>
        <time>2021-08-02T11:10:43.267Z</time>
      </trkpt>
      <trkpt lat="47.01946" lon="8.95551">
        <ele>848</ele>
        <time>2021-08-02T11:10:44.268Z</time>
      </trkpt>
      <trkpt lat="47.01947" lon="8.9555">
        <ele>848</ele>
        <time>2021-08-02T11:10:45.268Z</time>
      </trkpt>
      <trkpt lat="47.01948" lon="8.95549">
        <ele>848</ele>
        <time>2021-08-02T11:10:46.268Z</time>
      </trkpt>
      <trkpt lat="47.01948" lon="8.95547">
        <ele>848</ele>
        <time>2021-08-02T11:10:47.268Z</time>
      </trkpt>
      <trkpt lat="47.01948" lon="8.95546">
        <ele>849</ele>
        <time>2021-08-02T11:10:48.268Z</time>
      </trkpt>
      <trkpt lat="47.01948" lon="8.95545">
        <ele>849</ele>
        <time>2021-08-02T11:10:49.268Z</time>
      </trkpt>
      <trkpt lat="47.01949" lon="8.95544">
        <ele>850</ele>
        <time>2021-08-02T11:10:50.268Z</time>
      </trkpt>
      <trkpt lat="47.0195" lon="8.95543">
        <ele>851</ele>
        <time>2021-08-02T11:10:51.268Z</time>
      </trkpt>
      <trkpt lat="47.01951" lon="8.95542">
        <ele>851</ele>
        <time>2021-08-02T11:10:52.268Z</time>
      </trkpt>
      <trkpt lat="47.01953" lon="8.95541">
        <ele>852</ele>
        <time>2021-08-02T11:10:53.268Z</time>
      </trkpt>
      <trkpt lat="47.01954" lon="8.9554">
        <ele>852</ele>
        <time>2021-08-02T11:10:54.268Z</time>
      </trkpt>
      <trkpt lat="47.01954" lon="8.95538">
        <ele>852</ele>
        <time>2021-08-02T11:10:55.267Z</time>
      </trkpt>
      <trkpt lat="47.01954" lon="8.95537">
        <ele>852</ele>
        <time>2021-08-02T11:10:56.268Z</time>
      </trkpt>
      <trkpt lat="47.01955" lon="8.95535">
        <ele>851</ele>
        <time>2021-08-02T11:10:57.267Z</time>
      </trkpt>
      <trkpt lat="47.01956" lon="8.95534">
        <ele>851</ele>
        <time>2021-08-02T11:10:58.268Z</time>
      </trkpt>
      <trkpt lat="47.01956" lon="8.95532">
        <ele>851</ele>
        <time>2021-08-02T11:10:59.267Z</time>
      </trkpt>
      <trkpt lat="47.01956" lon="8.95531">
        <ele>851</ele>
        <time>2021-08-02T11:11:00.267Z</time>
      </trkpt>
      <trkpt lat="47.01957" lon="8.9553">
        <ele>851</ele>
        <time>2021-08-02T11:11:01.268Z</time>
      </trkpt>
      <trkpt lat="47.01958" lon="8.95529">
        <ele>851</ele>
        <time>2021-08-02T11:11:02.268Z</time>
      </trkpt>
      <trkpt lat="47.01959" lon="8.95528">
        <ele>851</ele>
        <time>2021-08-02T11:11:03.268Z</time>
      </trkpt>
      <trkpt lat="47.0196" lon="8.95526">
        <ele>852</ele>
        <time>2021-08-02T11:11:04.267Z</time>
      </trkpt>
      <trkpt lat="47.01962" lon="8.95525">
        <ele>852</ele>
        <time>2021-08-02T11:11:05.267Z</time>
      </trkpt>
      <trkpt lat="47.01962" lon="8.95524">
        <ele>853</ele>
        <time>2021-08-02T11:11:06.267Z</time>
      </trkpt>
      <trkpt lat="47.01963" lon="8.95523">
        <ele>853</ele>
        <time>2021-08-02T11:11:07.267Z</time>
      </trkpt>
      <trkpt lat="47.01964" lon="8.95521">
        <ele>854</ele>
        <time>2021-08-02T11:11:08.267Z</time>
      </trkpt>
      <trkpt lat="47.01965" lon="8.9552">
        <ele>855</ele>
        <time>2021-08-02T11:11:09.268Z</time>
      </trkpt>
      <trkpt lat="47.01967" lon="8.95519">
        <ele>855</ele>
        <time>2021-08-02T11:11:10.268Z</time>
      </trkpt>
      <trkpt lat="47.01968" lon="8.95517">
        <ele>855</ele>
        <time>2021-08-02T11:11:11.268Z</time>
      </trkpt>
      <trkpt lat="47.01968" lon="8.95516">
        <ele>855</ele>
        <time>2021-08-02T11:11:12.267Z</time>
      </trkpt>
      <trkpt lat="47.01969" lon="8.95514">
        <ele>855</ele>
        <time>2021-08-02T11:11:13.267Z</time>
      </trkpt>
      <trkpt lat="47.0197" lon="8.95513">
        <ele>855</ele>
        <time>2021-08-02T11:11:14.268Z</time>
      </trkpt>
      <trkpt lat="47.0197" lon="8.95512">
        <ele>856</ele>
        <time>2021-08-02T11:11:15.268Z</time>
      </trkpt>
      <trkpt lat="47.01971" lon="8.95509">
        <ele>856</ele>
        <time>2021-08-02T11:11:16.268Z</time>
      </trkpt>
      <trkpt lat="47.01973" lon="8.95507">
        <ele>857</ele>
        <time>2021-08-02T11:11:17.268Z</time>
      </trkpt>
      <trkpt lat="47.01974" lon="8.95504">
        <ele>857</ele>
        <time>2021-08-02T11:11:18.268Z</time>
      </trkpt>
      <trkpt lat="47.01974" lon="8.95503">
        <ele>858</ele>
        <time>2021-08-02T11:11:19.267Z</time>
      </trkpt>
      <trkpt lat="47.01974" lon="8.955">
        <ele>858</ele>
        <time>2021-08-02T11:11:20.268Z</time>
      </trkpt>
      <trkpt lat="47.01974" lon="8.95498">
        <ele>859</ele>
        <time>2021-08-02T11:11:21.268Z</time>
      </trkpt>
      <trkpt lat="47.01973" lon="8.95495">
        <ele>859</ele>
        <time>2021-08-02T11:11:22.268Z</time>
      </trkpt>
      <trkpt lat="47.01973" lon="8.95493">
        <ele>860</ele>
        <time>2021-08-02T11:11:23.268Z</time>
      </trkpt>
      <trkpt lat="47.01973" lon="8.95491">
        <ele>861</ele>
        <time>2021-08-02T11:11:24.268Z</time>
      </trkpt>
      <trkpt lat="47.01972" lon="8.95489">
        <ele>861</ele>
        <time>2021-08-02T11:11:25.268Z</time>
      </trkpt>
      <trkpt lat="47.01972" lon="8.95488">
        <ele>862</ele>
        <time>2021-08-02T11:11:26.268Z</time>
      </trkpt>
      <trkpt lat="47.01971" lon="8.95487">
        <ele>862</ele>
        <time>2021-08-02T11:11:27.268Z</time>
      </trkpt>
      <trkpt lat="47.01972" lon="8.95486">
        <ele>862</ele>
        <time>2021-08-02T11:11:28.267Z</time>
      </trkpt>
      <trkpt lat="47.01972" lon="8.95485">
        <ele>862</ele>
        <time>2021-08-02T11:11:29.268Z</time>
      </trkpt>
      <trkpt lat="47.01972" lon="8.95484">
        <ele>862</ele>
        <time>2021-08-02T11:11:30.267Z</time>
      </trkpt>
      <trkpt lat="47.01972" lon="8.95483">
        <ele>863</ele>
        <time>2021-08-02T11:11:31.267Z</time>
      </trkpt>
      <trkpt lat="47.01973" lon="8.95481">
        <ele>863</ele>
        <time>2021-08-02T11:11:32.267Z</time>
      </trkpt>
      <trkpt lat="47.01974" lon="8.9548">
        <ele>863</ele>
        <time>2021-08-02T11:11:33.268Z</time>
      </trkpt>
      <trkpt lat="47.01974" lon="8.95478">
        <ele>864</ele>
        <time>2021-08-02T11:11:34.268Z</time>
      </trkpt>
      <trkpt lat="47.01975" lon="8.95477">
        <ele>864</ele>
        <time>2021-08-02T11:11:35.267Z</time>
      </trkpt>
      <trkpt lat="47.01975" lon="8.95475">
        <ele>864</ele>
        <time>2021-08-02T11:11:36.268Z</time>
      </trkpt>
      <trkpt lat="47.01976" lon="8.95474">
        <ele>864</ele>
        <time>2021-08-02T11:11:37.268Z</time>
      </trkpt>
      <trkpt lat="47.01977" lon="8.95473">
        <ele>864</ele>
        <time>2021-08-02T11:11:38.267Z</time>
      </trkpt>
      <trkpt lat="47.01978" lon="8.95471">
        <ele>864</ele>
        <time>2021-08-02T11:11:39.268Z</time>
      </trkpt>
      <trkpt lat="47.01978" lon="8.9547">
        <ele>864</ele>
        <time>2021-08-02T11:11:40.267Z</time>
      </trkpt>
      <trkpt lat="47.01979" lon="8.95469">
        <ele>864</ele>
        <time>2021-08-02T11:11:41.267Z</time>
      </trkpt>
      <trkpt lat="47.01979" lon="8.95467">
        <ele>864</ele>
        <time>2021-08-02T11:11:42.268Z</time>
      </trkpt>
      <trkpt lat="47.0198" lon="8.95466">
        <ele>865</ele>
        <time>2021-08-02T11:11:43.267Z</time>
      </trkpt>
      <trkpt lat="47.01981" lon="8.95466">
        <ele>865</ele>
        <time>2021-08-02T11:11:44.268Z</time>
      </trkpt>
      <trkpt lat="47.01982" lon="8.95465">
        <ele>865</ele>
        <time>2021-08-02T11:11:45.270Z</time>
      </trkpt>
      <trkpt lat="47.01982" lon="8.95464">
        <ele>865</ele>
        <time>2021-08-02T11:11:46.270Z</time>
      </trkpt>
      <trkpt lat="47.01983" lon="8.95463">
        <ele>865</ele>
        <time>2021-08-02T11:11:47.270Z</time>
      </trkpt>
      <trkpt lat="47.01983" lon="8.95462">
        <ele>864</ele>
        <time>2021-08-02T11:11:48.269Z</time>
      </trkpt>
      <trkpt lat="47.01983" lon="8.95461">
        <ele>864</ele>
        <time>2021-08-02T11:11:49.270Z</time>
      </trkpt>
      <trkpt lat="47.01983" lon="8.9546">
        <ele>864</ele>
        <time>2021-08-02T11:11:50.270Z</time>
      </trkpt>
      <trkpt lat="47.01983" lon="8.95459">
        <ele>863</ele>
        <time>2021-08-02T11:11:51.270Z</time>
      </trkpt>
      <trkpt lat="47.01984" lon="8.95457">
        <ele>863</ele>
        <time>2021-08-02T11:11:52.270Z</time>
      </trkpt>
      <trkpt lat="47.01985" lon="8.95456">
        <ele>863</ele>
        <time>2021-08-02T11:11:53.269Z</time>
      </trkpt>
      <trkpt lat="47.01985" lon="8.95455">
        <ele>862</ele>
        <time>2021-08-02T11:11:54.270Z</time>
      </trkpt>
      <trkpt lat="47.01986" lon="8.95454">
        <ele>862</ele>
        <time>2021-08-02T11:11:55.269Z</time>
      </trkpt>
      <trkpt lat="47.01987" lon="8.95454">
        <ele>862</ele>
        <time>2021-08-02T11:11:56.269Z</time>
      </trkpt>
      <trkpt lat="47.01988" lon="8.95453">
        <ele>862</ele>
        <time>2021-08-02T11:11:57.270Z</time>
      </trkpt>
      <trkpt lat="47.01989" lon="8.95453">
        <ele>861</ele>
        <time>2021-08-02T11:11:58.270Z</time>
      </trkpt>
      <trkpt lat="47.0199" lon="8.95453">
        <ele>861</ele>
        <time>2021-08-02T11:11:59.270Z</time>
      </trkpt>
      <trkpt lat="47.01991" lon="8.95453">
        <ele>861</ele>
        <time>2021-08-02T11:12:00.270Z</time>
      </trkpt>
      <trkpt lat="47.01992" lon="8.95452">
        <ele>860</ele>
        <time>2021-08-02T11:12:01.269Z</time>
      </trkpt>
      <trkpt lat="47.01992" lon="8.95452">
        <ele>860</ele>
        <time>2021-08-02T11:12:02.270Z</time>
      </trkpt>
      <trkpt lat="47.01993" lon="8.95452">
        <ele>859</ele>
        <time>2021-08-02T11:12:03.269Z</time>
      </trkpt>
      <trkpt lat="47.01993" lon="8.95451">
        <ele>859</ele>
        <time>2021-08-02T11:12:04.270Z</time>
      </trkpt>
      <trkpt lat="47.01994" lon="8.95451">
        <ele>858</ele>
        <time>2021-08-02T11:12:05.270Z</time>
      </trkpt>
      <trkpt lat="47.01996" lon="8.95451">
        <ele>858</ele>
        <time>2021-08-02T11:12:06.269Z</time>
      </trkpt>
      <trkpt lat="47.01997" lon="8.95452">
        <ele>857</ele>
        <time>2021-08-02T11:12:07.270Z</time>
      </trkpt>
      <trkpt lat="47.01998" lon="8.95452">
        <ele>857</ele>
        <time>2021-08-02T11:12:08.269Z</time>
      </trkpt>
      <trkpt lat="47.01998" lon="8.95452">
        <ele>856</ele>
        <time>2021-08-02T11:12:09.270Z</time>
      </trkpt>
      <trkpt lat="47.01999" lon="8.95451">
        <ele>856</ele>
        <time>2021-08-02T11:12:10.270Z</time>
      </trkpt>
      <trkpt lat="47.02" lon="8.95451">
        <ele>856</ele>
        <time>2021-08-02T11:12:11.270Z</time>
      </trkpt>
      <trkpt lat="47.02" lon="8.95451">
        <ele>856</ele>
        <time>2021-08-02T11:12:12.269Z</time>
      </trkpt>
      <trkpt lat="47.02001" lon="8.9545">
        <ele>855</ele>
        <time>2021-08-02T11:12:13.270Z</time>
      </trkpt>
      <trkpt lat="47.02002" lon="8.9545">
        <ele>855</ele>
        <time>2021-08-02T11:12:14.270Z</time>
      </trkpt>
      <trkpt lat="47.02003" lon="8.9545">
        <ele>854</ele>
        <time>2021-08-02T11:12:15.269Z</time>
      </trkpt>
      <trkpt lat="47.02005" lon="8.9545">
        <ele>854</ele>
        <time>2021-08-02T11:12:16.269Z</time>
      </trkpt>
      <trkpt lat="47.02005" lon="8.9545">
        <ele>854</ele>
        <time>2021-08-02T11:12:17.270Z</time>
      </trkpt>
      <trkpt lat="47.02006" lon="8.9545">
        <ele>854</ele>
        <time>2021-08-02T11:12:18.269Z</time>
      </trkpt>
      <trkpt lat="47.02006" lon="8.9545">
        <ele>854</ele>
        <time>2021-08-02T11:12:19.270Z</time>
      </trkpt>
      <trkpt lat="47.02007" lon="8.9545">
        <ele>854</ele>
        <time>2021-08-02T11:12:20.270Z</time>
      </trkpt>
      <trkpt lat="47.02008" lon="8.95449">
        <ele>854</ele>
        <time>2021-08-02T11:12:21.270Z</time>
      </trkpt>
      <trkpt lat="47.02009" lon="8.95448">
        <ele>854</ele>
        <time>2021-08-02T11:12:22.270Z</time>
      </trkpt>
      <trkpt lat="47.0201" lon="8.95447">
        <ele>854</ele>
        <time>2021-08-02T11:12:23.269Z</time>
      </trkpt>
      <trkpt lat="47.02011" lon="8.95446">
        <ele>854</ele>
        <time>2021-08-02T11:12:24.270Z</time>
      </trkpt>
      <trkpt lat="47.02011" lon="8.95446">
        <ele>854</ele>
        <time>2021-08-02T11:12:25.269Z</time>
      </trkpt>
      <trkpt lat="47.02012" lon="8.95445">
        <ele>854</ele>
        <time>2021-08-02T11:12:26.270Z</time>
      </trkpt>
      <trkpt lat="47.02013" lon="8.95444">
        <ele>854</ele>
        <time>2021-08-02T11:12:27.269Z</time>
      </trkpt>
      <trkpt lat="47.02014" lon="8.95444">
        <ele>854</ele>
        <time>2021-08-02T11:12:28.270Z</time>
      </trkpt>
      <trkpt lat="47.02015" lon="8.95443">
        <ele>854</ele>
        <time>2021-08-02T11:12:29.269Z</time>
      </trkpt>
      <trkpt lat="47.02015" lon="8.95442">
        <ele>855</ele>
        <time>2021-08-02T11:12:30.270Z</time>
      </trkpt>
      <trkpt lat="47.02018" lon="8.95441">
        <ele>856</ele>
        <time>2021-08-02T11:12:31.270Z</time>
      </trkpt>
      <trkpt lat="47.02019" lon="8.95439">
        <ele>856</ele>
        <time>2021-08-02T11:12:32.269Z</time>
      </trkpt>
      <trkpt lat="47.0202" lon="8.95437">
        <ele>857</ele>
        <time>2021-08-02T11:12:33.270Z</time>
      </trkpt>
      <trkpt lat="47.02021" lon="8.95436">
        <ele>857</ele>
        <time>2021-08-02T11:12:34.270Z</time>
      </trkpt>
      <trkpt lat="47.02022" lon="8.95435">
        <ele>858</ele>
        <time>2021-08-02T11:12:35.269Z</time>
      </trkpt>
      <trkpt lat="47.02023" lon="8.95433">
        <ele>858</ele>
        <time>2021-08-02T11:12:36.270Z</time>
      </trkpt>
      <trkpt lat="47.02024" lon="8.95431">
        <ele>859</ele>
        <time>2021-08-02T11:12:37.270Z</time>
      </trkpt>
      <trkpt lat="47.02026" lon="8.95431">
        <ele>859</ele>
        <time>2021-08-02T11:12:38.270Z</time>
      </trkpt>
      <trkpt lat="47.02027" lon="8.95429">
        <ele>859</ele>
        <time>2021-08-02T11:12:39.270Z</time>
      </trkpt>
      <trkpt lat="47.02028" lon="8.95428">
        <ele>859</ele>
        <time>2021-08-02T11:12:40.270Z</time>
      </trkpt>
      <trkpt lat="47.02029" lon="8.95427">
        <ele>859</ele>
        <time>2021-08-02T11:12:41.270Z</time>
      </trkpt>
      <trkpt lat="47.02029" lon="8.95426">
        <ele>859</ele>
        <time>2021-08-02T11:12:42.269Z</time>
      </trkpt>
      <trkpt lat="47.0203" lon="8.95424">
        <ele>859</ele>
        <time>2021-08-02T11:12:43.270Z</time>
      </trkpt>
      <trkpt lat="47.02031" lon="8.95423">
        <ele>859</ele>
        <time>2021-08-02T11:12:44.269Z</time>
      </trkpt>
      <trkpt lat="47.02031" lon="8.95422">
        <ele>859</ele>
        <time>2021-08-02T11:12:45.270Z</time>
      </trkpt>
      <trkpt lat="47.02032" lon="8.95421">
        <ele>860</ele>
        <time>2021-08-02T11:12:46.270Z</time>
      </trkpt>
      <trkpt lat="47.02032" lon="8.9542">
        <ele>860</ele>
        <time>2021-08-02T11:12:47.270Z</time>
      </trkpt>
      <trkpt lat="47.02033" lon="8.95418">
        <ele>860</ele>
        <time>2021-08-02T11:12:48.270Z</time>
      </trkpt>
      <trkpt lat="47.02034" lon="8.95417">
        <ele>860</ele>
        <time>2021-08-02T11:12:49.269Z</time>
      </trkpt>
      <trkpt lat="47.02035" lon="8.95416">
        <ele>860</ele>
        <time>2021-08-02T11:12:50.270Z</time>
      </trkpt>
      <trkpt lat="47.02035" lon="8.95414">
        <ele>860</ele>
        <time>2021-08-02T11:12:51.269Z</time>
      </trkpt>
      <trkpt lat="47.02035" lon="8.95412">
        <ele>860</ele>
        <time>2021-08-02T11:12:52.270Z</time>
      </trkpt>
      <trkpt lat="47.02036" lon="8.95411">
        <ele>860</ele>
        <time>2021-08-02T11:12:53.270Z</time>
      </trkpt>
      <trkpt lat="47.02036" lon="8.95409">
        <ele>860</ele>
        <time>2021-08-02T11:12:54.270Z</time>
      </trkpt>
      <trkpt lat="47.02036" lon="8.95408">
        <ele>860</ele>
        <time>2021-08-02T11:12:55.270Z</time>
      </trkpt>
      <trkpt lat="47.02037" lon="8.95406">
        <ele>860</ele>
        <time>2021-08-02T11:12:56.270Z</time>
      </trkpt>
      <trkpt lat="47.02037" lon="8.95405">
        <ele>860</ele>
        <time>2021-08-02T11:12:57.270Z</time>
      </trkpt>
      <trkpt lat="47.02037" lon="8.95403">
        <ele>860</ele>
        <time>2021-08-02T11:12:58.270Z</time>
      </trkpt>
      <trkpt lat="47.02038" lon="8.95401">
        <ele>860</ele>
        <time>2021-08-02T11:12:59.269Z</time>
      </trkpt>
      <trkpt lat="47.02038" lon="8.954">
        <ele>860</ele>
        <time>2021-08-02T11:13:00.270Z</time>
      </trkpt>
      <trkpt lat="47.02039" lon="8.95398">
        <ele>860</ele>
        <time>2021-08-02T11:13:01.270Z</time>
      </trkpt>
      <trkpt lat="47.02039" lon="8.95397">
        <ele>860</ele>
        <time>2021-08-02T11:13:02.270Z</time>
      </trkpt>
      <trkpt lat="47.0204" lon="8.95395">
        <ele>860</ele>
        <time>2021-08-02T11:13:03.270Z</time>
      </trkpt>
      <trkpt lat="47.0204" lon="8.95394">
        <ele>860</ele>
        <time>2021-08-02T11:13:04.270Z</time>
      </trkpt>
      <trkpt lat="47.02041" lon="8.95394">
        <ele>860</ele>
        <time>2021-08-02T11:13:05.270Z</time>
      </trkpt>
      <trkpt lat="47.02041" lon="8.95392">
        <ele>859</ele>
        <time>2021-08-02T11:13:06.270Z</time>
      </trkpt>
      <trkpt lat="47.02041" lon="8.95391">
        <ele>859</ele>
        <time>2021-08-02T11:13:07.270Z</time>
      </trkpt>
      <trkpt lat="47.02042" lon="8.95389">
        <ele>859</ele>
        <time>2021-08-02T11:13:08.270Z</time>
      </trkpt>
      <trkpt lat="47.02042" lon="8.95387">
        <ele>859</ele>
        <time>2021-08-02T11:13:09.270Z</time>
      </trkpt>
      <trkpt lat="47.02042" lon="8.95386">
        <ele>859</ele>
        <time>2021-08-02T11:13:10.270Z</time>
      </trkpt>
      <trkpt lat="47.02042" lon="8.95384">
        <ele>858</ele>
        <time>2021-08-02T11:13:11.270Z</time>
      </trkpt>
      <trkpt lat="47.02043" lon="8.95383">
        <ele>858</ele>
        <time>2021-08-02T11:13:12.269Z</time>
      </trkpt>
      <trkpt lat="47.02043" lon="8.95382">
        <ele>858</ele>
        <time>2021-08-02T11:13:13.270Z</time>
      </trkpt>
      <trkpt lat="47.02043" lon="8.9538">
        <ele>858</ele>
        <time>2021-08-02T11:13:14.270Z</time>
      </trkpt>
      <trkpt lat="47.02044" lon="8.95378">
        <ele>857</ele>
        <time>2021-08-02T11:13:15.270Z</time>
      </trkpt>
      <trkpt lat="47.02044" lon="8.95376">
        <ele>857</ele>
        <time>2021-08-02T11:13:16.270Z</time>
      </trkpt>
      <trkpt lat="47.02045" lon="8.95374">
        <ele>857</ele>
        <time>2021-08-02T11:13:17.270Z</time>
      </trkpt>
      <trkpt lat="47.02045" lon="8.95372">
        <ele>857</ele>
        <time>2021-08-02T11:13:18.270Z</time>
      </trkpt>
      <trkpt lat="47.02045" lon="8.95371">
        <ele>857</ele>
        <time>2021-08-02T11:13:19.270Z</time>
      </trkpt>
      <trkpt lat="47.02045" lon="8.9537">
        <ele>857</ele>
        <time>2021-08-02T11:13:20.270Z</time>
      </trkpt>
      <trkpt lat="47.02045" lon="8.95369">
        <ele>856</ele>
        <time>2021-08-02T11:13:21.269Z</time>
      </trkpt>
      <trkpt lat="47.02045" lon="8.95367">
        <ele>856</ele>
        <time>2021-08-02T11:13:22.270Z</time>
      </trkpt>
      <trkpt lat="47.02046" lon="8.95365">
        <ele>856</ele>
        <time>2021-08-02T11:13:23.270Z</time>
      </trkpt>
      <trkpt lat="47.02046" lon="8.95363">
        <ele>856</ele>
        <time>2021-08-02T11:13:24.270Z</time>
      </trkpt>
      <trkpt lat="47.02046" lon="8.95361">
        <ele>857</ele>
        <time>2021-08-02T11:13:25.269Z</time>
      </trkpt>
      <trkpt lat="47.02047" lon="8.95359">
        <ele>857</ele>
        <time>2021-08-02T11:13:26.269Z</time>
      </trkpt>
      <trkpt lat="47.02047" lon="8.95357">
        <ele>857</ele>
        <time>2021-08-02T11:13:27.269Z</time>
      </trkpt>
      <trkpt lat="47.02046" lon="8.95354">
        <ele>857</ele>
        <time>2021-08-02T11:13:28.270Z</time>
      </trkpt>
      <trkpt lat="47.02045" lon="8.95351">
        <ele>856</ele>
        <time>2021-08-02T11:13:29.269Z</time>
      </trkpt>
      <trkpt lat="47.02045" lon="8.95349">
        <ele>855</ele>
        <time>2021-08-02T11:13:30.270Z</time>
      </trkpt>
      <trkpt lat="47.02044" lon="8.95347">
        <ele>854</ele>
        <time>2021-08-02T11:13:31.270Z</time>
      </trkpt>
      <trkpt lat="47.02044" lon="8.95346">
        <ele>854</ele>
        <time>2021-08-02T11:13:32.270Z</time>
      </trkpt>
      <trkpt lat="47.02045" lon="8.95344">
        <ele>854</ele>
        <time>2021-08-02T11:13:33.270Z</time>
      </trkpt>
      <trkpt lat="47.02045" lon="8.95342">
        <ele>854</ele>
        <time>2021-08-02T11:13:34.270Z</time>
      </trkpt>
      <trkpt lat="47.02046" lon="8.95341">
        <ele>854</ele>
        <time>2021-08-02T11:13:35.270Z</time>
      </trkpt>
      <trkpt lat="47.02046" lon="8.95339">
        <ele>854</ele>
        <time>2021-08-02T11:13:36.270Z</time>
      </trkpt>
      <trkpt lat="47.02046" lon="8.95337">
        <ele>854</ele>
        <time>2021-08-02T11:13:37.270Z</time>
      </trkpt>
      <trkpt lat="47.02047" lon="8.95336">
        <ele>854</ele>
        <time>2021-08-02T11:13:38.269Z</time>
      </trkpt>
      <trkpt lat="47.02047" lon="8.95334">
        <ele>854</ele>
        <time>2021-08-02T11:13:39.270Z</time>
      </trkpt>
      <trkpt lat="47.02047" lon="8.95332">
        <ele>854</ele>
        <time>2021-08-02T11:13:40.270Z</time>
      </trkpt>
      <trkpt lat="47.02048" lon="8.9533">
        <ele>854</ele>
        <time>2021-08-02T11:13:41.269Z</time>
      </trkpt>
      <trkpt lat="47.02048" lon="8.95329">
        <ele>854</ele>
        <time>2021-08-02T11:13:42.270Z</time>
      </trkpt>
      <trkpt lat="47.02048" lon="8.95327">
        <ele>854</ele>
        <time>2021-08-02T11:13:43.270Z</time>
      </trkpt>
      <trkpt lat="47.02047" lon="8.95325">
        <ele>854</ele>
        <time>2021-08-02T11:13:44.269Z</time>
      </trkpt>
      <trkpt lat="47.02047" lon="8.95322">
        <ele>853</ele>
        <time>2021-08-02T11:13:45.270Z</time>
      </trkpt>
      <trkpt lat="47.02047" lon="8.95319">
        <ele>853</ele>
        <time>2021-08-02T11:13:46.270Z</time>
      </trkpt>
      <trkpt lat="47.02047" lon="8.95318">
        <ele>853</ele>
        <time>2021-08-02T11:13:47.269Z</time>
      </trkpt>
      <trkpt lat="47.02047" lon="8.95316">
        <ele>853</ele>
        <time>2021-08-02T11:13:48.270Z</time>
      </trkpt>
      <trkpt lat="47.02047" lon="8.95315">
        <ele>853</ele>
        <time>2021-08-02T11:13:49.270Z</time>
      </trkpt>
      <trkpt lat="47.02047" lon="8.95314">
        <ele>853</ele>
        <time>2021-08-02T11:13:50.270Z</time>
      </trkpt>
      <trkpt lat="47.02047" lon="8.95312">
        <ele>853</ele>
        <time>2021-08-02T11:13:51.270Z</time>
      </trkpt>
      <trkpt lat="47.02047" lon="8.9531">
        <ele>853</ele>
        <time>2021-08-02T11:13:52.270Z</time>
      </trkpt>
      <trkpt lat="47.02047" lon="8.95309">
        <ele>853</ele>
        <time>2021-08-02T11:13:53.269Z</time>
      </trkpt>
      <trkpt lat="47.02047" lon="8.95308">
        <ele>853</ele>
        <time>2021-08-02T11:13:54.270Z</time>
      </trkpt>
      <trkpt lat="47.02047" lon="8.95307">
        <ele>853</ele>
        <time>2021-08-02T11:13:55.269Z</time>
      </trkpt>
      <trkpt lat="47.02047" lon="8.95306">
        <ele>853</ele>
        <time>2021-08-02T11:13:56.270Z</time>
      </trkpt>
      <trkpt lat="47.02046" lon="8.95305">
        <ele>854</ele>
        <time>2021-08-02T11:13:57.269Z</time>
      </trkpt>
      <trkpt lat="47.02046" lon="8.95303">
        <ele>854</ele>
        <time>2021-08-02T11:13:58.270Z</time>
      </trkpt>
      <trkpt lat="47.02046" lon="8.95302">
        <ele>855</ele>
        <time>2021-08-02T11:13:59.270Z</time>
      </trkpt>
      <trkpt lat="47.02046" lon="8.953">
        <ele>855</ele>
        <time>2021-08-02T11:14:00.270Z</time>
      </trkpt>
      <trkpt lat="47.02046" lon="8.95299">
        <ele>855</ele>
        <time>2021-08-02T11:14:01.270Z</time>
      </trkpt>
      <trkpt lat="47.02045" lon="8.95298">
        <ele>855</ele>
        <time>2021-08-02T11:14:02.269Z</time>
      </trkpt>
      <trkpt lat="47.02045" lon="8.95296">
        <ele>855</ele>
        <time>2021-08-02T11:14:03.270Z</time>
      </trkpt>
      <trkpt lat="47.02045" lon="8.95295">
        <ele>855</ele>
        <time>2021-08-02T11:14:04.269Z</time>
      </trkpt>
      <trkpt lat="47.02045" lon="8.95293">
        <ele>855</ele>
        <time>2021-08-02T11:14:05.270Z</time>
      </trkpt>
      <trkpt lat="47.02045" lon="8.95291">
        <ele>855</ele>
        <time>2021-08-02T11:14:06.270Z</time>
      </trkpt>
      <trkpt lat="47.02045" lon="8.9529">
        <ele>855</ele>
        <time>2021-08-02T11:14:07.270Z</time>
      </trkpt>
      <trkpt lat="47.02045" lon="8.95288">
        <ele>855</ele>
        <time>2021-08-02T11:14:08.270Z</time>
      </trkpt>
      <trkpt lat="47.02044" lon="8.95286">
        <ele>855</ele>
        <time>2021-08-02T11:14:09.269Z</time>
      </trkpt>
      <trkpt lat="47.02044" lon="8.95284">
        <ele>855</ele>
        <time>2021-08-02T11:14:10.270Z</time>
      </trkpt>
      <trkpt lat="47.02044" lon="8.95283">
        <ele>854</ele>
        <time>2021-08-02T11:14:11.269Z</time>
      </trkpt>
      <trkpt lat="47.02044" lon="8.95281">
        <ele>854</ele>
        <time>2021-08-02T11:14:12.270Z</time>
      </trkpt>
      <trkpt lat="47.02044" lon="8.95279">
        <ele>854</ele>
        <time>2021-08-02T11:14:13.270Z</time>
      </trkpt>
      <trkpt lat="47.02044" lon="8.95277">
        <ele>854</ele>
        <time>2021-08-02T11:14:14.270Z</time>
      </trkpt>
      <trkpt lat="47.02044" lon="8.95276">
        <ele>855</ele>
        <time>2021-08-02T11:14:15.270Z</time>
      </trkpt>
      <trkpt lat="47.02044" lon="8.95275">
        <ele>855</ele>
        <time>2021-08-02T11:14:16.270Z</time>
      </trkpt>
      <trkpt lat="47.02044" lon="8.95273">
        <ele>855</ele>
        <time>2021-08-02T11:14:17.270Z</time>
      </trkpt>
      <trkpt lat="47.02044" lon="8.95271">
        <ele>856</ele>
        <time>2021-08-02T11:14:18.269Z</time>
      </trkpt>
      <trkpt lat="47.02044" lon="8.9527">
        <ele>856</ele>
        <time>2021-08-02T11:14:19.270Z</time>
      </trkpt>
      <trkpt lat="47.02044" lon="8.95269">
        <ele>856</ele>
        <time>2021-08-02T11:14:20.270Z</time>
      </trkpt>
      <trkpt lat="47.02044" lon="8.95267">
        <ele>856</ele>
        <time>2021-08-02T11:14:21.270Z</time>
      </trkpt>
      <trkpt lat="47.02044" lon="8.95266">
        <ele>855</ele>
        <time>2021-08-02T11:14:22.270Z</time>
      </trkpt>
      <trkpt lat="47.02044" lon="8.95265">
        <ele>855</ele>
        <time>2021-08-02T11:14:23.270Z</time>
      </trkpt>
      <trkpt lat="47.02045" lon="8.95263">
        <ele>855</ele>
        <time>2021-08-02T11:14:24.270Z</time>
      </trkpt>
      <trkpt lat="47.02045" lon="8.95262">
        <ele>855</ele>
        <time>2021-08-02T11:14:25.269Z</time>
      </trkpt>
      <trkpt lat="47.02045" lon="8.9526">
        <ele>855</ele>
        <time>2021-08-02T11:14:26.270Z</time>
      </trkpt>
      <trkpt lat="47.02044" lon="8.95258">
        <ele>855</ele>
        <time>2021-08-02T11:14:27.270Z</time>
      </trkpt>
      <trkpt lat="47.02043" lon="8.95256">
        <ele>855</ele>
        <time>2021-08-02T11:14:28.269Z</time>
      </trkpt>
      <trkpt lat="47.02042" lon="8.95255">
        <ele>855</ele>
        <time>2021-08-02T11:14:29.270Z</time>
      </trkpt>
      <trkpt lat="47.02041" lon="8.95253">
        <ele>855</ele>
        <time>2021-08-02T11:14:30.269Z</time>
      </trkpt>
      <trkpt lat="47.0204" lon="8.95251">
        <ele>855</ele>
        <time>2021-08-02T11:14:31.269Z</time>
      </trkpt>
      <trkpt lat="47.0204" lon="8.95249">
        <ele>855</ele>
        <time>2021-08-02T11:14:32.269Z</time>
      </trkpt>
      <trkpt lat="47.0204" lon="8.95248">
        <ele>855</ele>
        <time>2021-08-02T11:14:33.270Z</time>
      </trkpt>
      <trkpt lat="47.02039" lon="8.95247">
        <ele>855</ele>
        <time>2021-08-02T11:14:34.270Z</time>
      </trkpt>
      <trkpt lat="47.02038" lon="8.95246">
        <ele>855</ele>
        <time>2021-08-02T11:14:35.270Z</time>
      </trkpt>
      <trkpt lat="47.02037" lon="8.95245">
        <ele>855</ele>
        <time>2021-08-02T11:14:36.270Z</time>
      </trkpt>
      <trkpt lat="47.02036" lon="8.95244">
        <ele>856</ele>
        <time>2021-08-02T11:14:37.270Z</time>
      </trkpt>
      <trkpt lat="47.02035" lon="8.95243">
        <ele>856</ele>
        <time>2021-08-02T11:14:38.269Z</time>
      </trkpt>
      <trkpt lat="47.02034" lon="8.95242">
        <ele>857</ele>
        <time>2021-08-02T11:14:39.269Z</time>
      </trkpt>
      <trkpt lat="47.02032" lon="8.9524">
        <ele>857</ele>
        <time>2021-08-02T11:14:40.270Z</time>
      </trkpt>
      <trkpt lat="47.02031" lon="8.95239">
        <ele>857</ele>
        <time>2021-08-02T11:14:41.270Z</time>
      </trkpt>
      <trkpt lat="47.0203" lon="8.95237">
        <ele>858</ele>
        <time>2021-08-02T11:14:42.269Z</time>
      </trkpt>
      <trkpt lat="47.02029" lon="8.95236">
        <ele>859</ele>
        <time>2021-08-02T11:14:43.269Z</time>
      </trkpt>
      <trkpt lat="47.02029" lon="8.95236">
        <ele>860</ele>
        <time>2021-08-02T11:14:44.269Z</time>
      </trkpt>
      <trkpt lat="47.02028" lon="8.95235">
        <ele>860</ele>
        <time>2021-08-02T11:14:45.269Z</time>
      </trkpt>
      <trkpt lat="47.02028" lon="8.95233">
        <ele>861</ele>
        <time>2021-08-02T11:14:46.269Z</time>
      </trkpt>
      <trkpt lat="47.02028" lon="8.95231">
        <ele>861</ele>
        <time>2021-08-02T11:14:47.269Z</time>
      </trkpt>
      <trkpt lat="47.02027" lon="8.9523">
        <ele>862</ele>
        <time>2021-08-02T11:14:48.270Z</time>
      </trkpt>
      <trkpt lat="47.02027" lon="8.95229">
        <ele>862</ele>
        <time>2021-08-02T11:14:49.270Z</time>
      </trkpt>
      <trkpt lat="47.02026" lon="8.95229">
        <ele>863</ele>
        <time>2021-08-02T11:14:50.270Z</time>
      </trkpt>
      <trkpt lat="47.02026" lon="8.95228">
        <ele>863</ele>
        <time>2021-08-02T11:14:51.270Z</time>
      </trkpt>
      <trkpt lat="47.02025" lon="8.95228">
        <ele>864</ele>
        <time>2021-08-02T11:14:52.269Z</time>
      </trkpt>
      <trkpt lat="47.02025" lon="8.95227">
        <ele>864</ele>
        <time>2021-08-02T11:14:53.270Z</time>
      </trkpt>
      <trkpt lat="47.02025" lon="8.95226">
        <ele>864</ele>
        <time>2021-08-02T11:14:54.269Z</time>
      </trkpt>
      <trkpt lat="47.02025" lon="8.95226">
        <ele>864</ele>
        <time>2021-08-02T11:14:55.269Z</time>
      </trkpt>
      <trkpt lat="47.02024" lon="8.95226">
        <ele>864</ele>
        <time>2021-08-02T11:14:56.269Z</time>
      </trkpt>
      <trkpt lat="47.02025" lon="8.95226">
        <ele>864</ele>
        <time>2021-08-02T11:14:57.270Z</time>
      </trkpt>
      <trkpt lat="47.02026" lon="8.95226">
        <ele>864</ele>
        <time>2021-08-02T11:14:58.269Z</time>
      </trkpt>
      <trkpt lat="47.02027" lon="8.95226">
        <ele>864</ele>
        <time>2021-08-02T11:14:59.269Z</time>
      </trkpt>
      <trkpt lat="47.02028" lon="8.95225">
        <ele>863</ele>
        <time>2021-08-02T11:15:00.270Z</time>
      </trkpt>
      <trkpt lat="47.02028" lon="8.95224">
        <ele>863</ele>
        <time>2021-08-02T11:15:01.269Z</time>
      </trkpt>
      <trkpt lat="47.02029" lon="8.95223">
        <ele>863</ele>
        <time>2021-08-02T11:15:02.270Z</time>
      </trkpt>
      <trkpt lat="47.02029" lon="8.95223">
        <ele>863</ele>
        <time>2021-08-02T11:15:03.270Z</time>
      </trkpt>
      <trkpt lat="47.0203" lon="8.95221">
        <ele>863</ele>
        <time>2021-08-02T11:15:04.270Z</time>
      </trkpt>
      <trkpt lat="47.02031" lon="8.9522">
        <ele>863</ele>
        <time>2021-08-02T11:15:05.270Z</time>
      </trkpt>
      <trkpt lat="47.02031" lon="8.95218">
        <ele>862</ele>
        <time>2021-08-02T11:15:06.270Z</time>
      </trkpt>
      <trkpt lat="47.02032" lon="8.95217">
        <ele>862</ele>
        <time>2021-08-02T11:15:07.270Z</time>
      </trkpt>
      <trkpt lat="47.02033" lon="8.95216">
        <ele>861</ele>
        <time>2021-08-02T11:15:08.269Z</time>
      </trkpt>
      <trkpt lat="47.02034" lon="8.95215">
        <ele>861</ele>
        <time>2021-08-02T11:15:09.270Z</time>
      </trkpt>
      <trkpt lat="47.02034" lon="8.95214">
        <ele>861</ele>
        <time>2021-08-02T11:15:10.269Z</time>
      </trkpt>
      <trkpt lat="47.02034" lon="8.95213">
        <ele>860</ele>
        <time>2021-08-02T11:15:11.270Z</time>
      </trkpt>
      <trkpt lat="47.02034" lon="8.95211">
        <ele>860</ele>
        <time>2021-08-02T11:15:12.270Z</time>
      </trkpt>
      <trkpt lat="47.02035" lon="8.9521">
        <ele>860</ele>
        <time>2021-08-02T11:15:13.270Z</time>
      </trkpt>
      <trkpt lat="47.02036" lon="8.95209">
        <ele>860</ele>
        <time>2021-08-02T11:15:14.270Z</time>
      </trkpt>
      <trkpt lat="47.02036" lon="8.95207">
        <ele>860</ele>
        <time>2021-08-02T11:15:15.270Z</time>
      </trkpt>
      <trkpt lat="47.02037" lon="8.95206">
        <ele>860</ele>
        <time>2021-08-02T11:15:16.270Z</time>
      </trkpt>
      <trkpt lat="47.02037" lon="8.95204">
        <ele>860</ele>
        <time>2021-08-02T11:15:17.269Z</time>
      </trkpt>
      <trkpt lat="47.02038" lon="8.95203">
        <ele>860</ele>
        <time>2021-08-02T11:15:18.270Z</time>
      </trkpt>
      <trkpt lat="47.02039" lon="8.95202">
        <ele>860</ele>
        <time>2021-08-02T11:15:19.270Z</time>
      </trkpt>
      <trkpt lat="47.02038" lon="8.952">
        <ele>860</ele>
        <time>2021-08-02T11:15:20.270Z</time>
      </trkpt>
      <trkpt lat="47.02039" lon="8.95199">
        <ele>860</ele>
        <time>2021-08-02T11:15:21.270Z</time>
      </trkpt>
      <trkpt lat="47.02039" lon="8.95197">
        <ele>860</ele>
        <time>2021-08-02T11:15:22.270Z</time>
      </trkpt>
      <trkpt lat="47.0204" lon="8.95196">
        <ele>860</ele>
        <time>2021-08-02T11:15:23.269Z</time>
      </trkpt>
      <trkpt lat="47.0204" lon="8.95195">
        <ele>861</ele>
        <time>2021-08-02T11:15:24.270Z</time>
      </trkpt>
      <trkpt lat="47.02041" lon="8.95193">
        <ele>861</ele>
        <time>2021-08-02T11:15:25.269Z</time>
      </trkpt>
      <trkpt lat="47.02042" lon="8.95192">
        <ele>860</ele>
        <time>2021-08-02T11:15:26.270Z</time>
      </trkpt>
      <trkpt lat="47.02041" lon="8.9519">
        <ele>860</ele>
        <time>2021-08-02T11:15:27.270Z</time>
      </trkpt>
      <trkpt lat="47.02041" lon="8.9519">
        <ele>860</ele>
        <time>2021-08-02T11:15:28.270Z</time>
      </trkpt>
      <trkpt lat="47.02041" lon="8.95189">
        <ele>860</ele>
        <time>2021-08-02T11:15:29.270Z</time>
      </trkpt>
      <trkpt lat="47.02041" lon="8.95187">
        <ele>860</ele>
        <time>2021-08-02T11:15:30.269Z</time>
      </trkpt>
      <trkpt lat="47.02041" lon="8.95186">
        <ele>860</ele>
        <time>2021-08-02T11:15:31.270Z</time>
      </trkpt>
      <trkpt lat="47.0204" lon="8.95184">
        <ele>861</ele>
        <time>2021-08-02T11:15:32.269Z</time>
      </trkpt>
      <trkpt lat="47.0204" lon="8.95183">
        <ele>861</ele>
        <time>2021-08-02T11:15:33.269Z</time>
      </trkpt>
      <trkpt lat="47.02039" lon="8.95182">
        <ele>862</ele>
        <time>2021-08-02T11:15:34.270Z</time>
      </trkpt>
      <trkpt lat="47.02039" lon="8.9518">
        <ele>862</ele>
        <time>2021-08-02T11:15:35.270Z</time>
      </trkpt>
      <trkpt lat="47.02038" lon="8.95178">
        <ele>862</ele>
        <time>2021-08-02T11:15:36.269Z</time>
      </trkpt>
      <trkpt lat="47.02038" lon="8.95177">
        <ele>862</ele>
        <time>2021-08-02T11:15:37.269Z</time>
      </trkpt>
      <trkpt lat="47.02038" lon="8.95175">
        <ele>861</ele>
        <time>2021-08-02T11:15:38.269Z</time>
      </trkpt>
      <trkpt lat="47.02038" lon="8.95173">
        <ele>861</ele>
        <time>2021-08-02T11:15:39.270Z</time>
      </trkpt>
      <trkpt lat="47.02038" lon="8.95172">
        <ele>861</ele>
        <time>2021-08-02T11:15:40.270Z</time>
      </trkpt>
      <trkpt lat="47.02038" lon="8.95171">
        <ele>860</ele>
        <time>2021-08-02T11:15:41.270Z</time>
      </trkpt>
      <trkpt lat="47.02038" lon="8.95171">
        <ele>860</ele>
        <time>2021-08-02T11:15:42.270Z</time>
      </trkpt>
      <trkpt lat="47.02038" lon="8.9517">
        <ele>859</ele>
        <time>2021-08-02T11:15:43.270Z</time>
      </trkpt>
      <trkpt lat="47.02038" lon="8.95169">
        <ele>859</ele>
        <time>2021-08-02T11:15:44.270Z</time>
      </trkpt>
      <trkpt lat="47.02039" lon="8.95168">
        <ele>858</ele>
        <time>2021-08-02T11:15:45.270Z</time>
      </trkpt>
      <trkpt lat="47.0204" lon="8.95167">
        <ele>858</ele>
        <time>2021-08-02T11:15:46.269Z</time>
      </trkpt>
      <trkpt lat="47.02041" lon="8.95165">
        <ele>857</ele>
        <time>2021-08-02T11:15:47.270Z</time>
      </trkpt>
      <trkpt lat="47.02042" lon="8.95164">
        <ele>857</ele>
        <time>2021-08-02T11:15:48.270Z</time>
      </trkpt>
      <trkpt lat="47.02042" lon="8.95163">
        <ele>856</ele>
        <time>2021-08-02T11:15:49.270Z</time>
      </trkpt>
      <trkpt lat="47.02043" lon="8.95162">
        <ele>856</ele>
        <time>2021-08-02T11:15:50.269Z</time>
      </trkpt>
      <trkpt lat="47.02043" lon="8.95161">
        <ele>855</ele>
        <time>2021-08-02T11:15:51.270Z</time>
      </trkpt>
      <trkpt lat="47.02043" lon="8.9516">
        <ele>855</ele>
        <time>2021-08-02T11:15:52.270Z</time>
      </trkpt>
      <trkpt lat="47.02044" lon="8.95159">
        <ele>855</ele>
        <time>2021-08-02T11:15:53.270Z</time>
      </trkpt>
      <trkpt lat="47.02044" lon="8.95158">
        <ele>855</ele>
        <time>2021-08-02T11:15:54.270Z</time>
      </trkpt>
      <trkpt lat="47.02044" lon="8.95156">
        <ele>855</ele>
        <time>2021-08-02T11:15:55.270Z</time>
      </trkpt>
      <trkpt lat="47.02044" lon="8.95155">
        <ele>856</ele>
        <time>2021-08-02T11:15:56.269Z</time>
      </trkpt>
      <trkpt lat="47.02043" lon="8.95153">
        <ele>856</ele>
        <time>2021-08-02T11:15:57.270Z</time>
      </trkpt>
      <trkpt lat="47.02041" lon="8.95151">
        <ele>856</ele>
        <time>2021-08-02T11:15:58.269Z</time>
      </trkpt>
      <trkpt lat="47.0204" lon="8.9515">
        <ele>855</ele>
        <time>2021-08-02T11:15:59.269Z</time>
      </trkpt>
      <trkpt lat="47.0204" lon="8.95148">
        <ele>855</ele>
        <time>2021-08-02T11:16:08.406Z</time>
      </trkpt>
      <trkpt lat="47.02041" lon="8.95148">
        <ele>855</ele>
        <time>2021-08-02T11:16:12.136Z</time>
      </trkpt>
      <trkpt lat="47.02041" lon="8.95147">
        <ele>855</ele>
        <time>2021-08-02T11:16:13.136Z</time>
      </trkpt>
      <trkpt lat="47.02042" lon="8.95146">
        <ele>855</ele>
        <time>2021-08-02T11:16:14.137Z</time>
      </trkpt>
      <trkpt lat="47.02042" lon="8.95145">
        <ele>855</ele>
        <time>2021-08-02T11:16:28.166Z</time>
      </trkpt>
      <trkpt lat="47.02042" lon="8.95144">
        <ele>854</ele>
        <time>2021-08-02T11:16:29.165Z</time>
      </trkpt>
      <trkpt lat="47.02043" lon="8.95143">
        <ele>853</ele>
        <time>2021-08-02T11:16:30.166Z</time>
      </trkpt>
      <trkpt lat="47.02043" lon="8.95142">
        <ele>853</ele>
        <time>2021-08-02T11:16:31.166Z</time>
      </trkpt>
      <trkpt lat="47.02044" lon="8.95141">
        <ele>852</ele>
        <time>2021-08-02T11:16:32.166Z</time>
      </trkpt>
      <trkpt lat="47.02046" lon="8.9514">
        <ele>852</ele>
        <time>2021-08-02T11:16:33.166Z</time>
      </trkpt>
      <trkpt lat="47.02047" lon="8.95139">
        <ele>851</ele>
        <time>2021-08-02T11:16:34.166Z</time>
      </trkpt>
      <trkpt lat="47.02047" lon="8.95138">
        <ele>851</ele>
        <time>2021-08-02T11:16:35.166Z</time>
      </trkpt>
      <trkpt lat="47.02048" lon="8.95136">
        <ele>850</ele>
        <time>2021-08-02T11:16:36.166Z</time>
      </trkpt>
      <trkpt lat="47.02048" lon="8.95135">
        <ele>850</ele>
        <time>2021-08-02T11:16:37.166Z</time>
      </trkpt>
      <trkpt lat="47.02049" lon="8.95133">
        <ele>850</ele>
        <time>2021-08-02T11:16:38.165Z</time>
      </trkpt>
      <trkpt lat="47.0205" lon="8.95132">
        <ele>850</ele>
        <time>2021-08-02T11:16:39.166Z</time>
      </trkpt>
      <trkpt lat="47.0205" lon="8.9513">
        <ele>850</ele>
        <time>2021-08-02T11:16:40.165Z</time>
      </trkpt>
      <trkpt lat="47.0205" lon="8.95128">
        <ele>850</ele>
        <time>2021-08-02T11:16:41.166Z</time>
      </trkpt>
      <trkpt lat="47.0205" lon="8.95126">
        <ele>850</ele>
        <time>2021-08-02T11:16:42.166Z</time>
      </trkpt>
      <trkpt lat="47.0205" lon="8.95124">
        <ele>850</ele>
        <time>2021-08-02T11:16:43.166Z</time>
      </trkpt>
      <trkpt lat="47.0205" lon="8.95122">
        <ele>850</ele>
        <time>2021-08-02T11:16:44.165Z</time>
      </trkpt>
      <trkpt lat="47.0205" lon="8.9512">
        <ele>850</ele>
        <time>2021-08-02T11:16:45.165Z</time>
      </trkpt>
      <trkpt lat="47.0205" lon="8.95119">
        <ele>850</ele>
        <time>2021-08-02T11:16:46.166Z</time>
      </trkpt>
      <trkpt lat="47.0205" lon="8.95117">
        <ele>850</ele>
        <time>2021-08-02T11:16:47.166Z</time>
      </trkpt>
      <trkpt lat="47.0205" lon="8.95116">
        <ele>850</ele>
        <time>2021-08-02T11:16:48.166Z</time>
      </trkpt>
      <trkpt lat="47.02049" lon="8.95114">
        <ele>850</ele>
        <time>2021-08-02T11:16:49.166Z</time>
      </trkpt>
      <trkpt lat="47.02048" lon="8.95113">
        <ele>850</ele>
        <time>2021-08-02T11:16:50.165Z</time>
      </trkpt>
      <trkpt lat="47.02047" lon="8.95111">
        <ele>850</ele>
        <time>2021-08-02T11:16:51.166Z</time>
      </trkpt>
      <trkpt lat="47.02048" lon="8.9511">
        <ele>850</ele>
        <time>2021-08-02T11:16:52.166Z</time>
      </trkpt>
      <trkpt lat="47.02047" lon="8.95108">
        <ele>850</ele>
        <time>2021-08-02T11:16:53.166Z</time>
      </trkpt>
      <trkpt lat="47.02046" lon="8.95107">
        <ele>850</ele>
        <time>2021-08-02T11:16:54.166Z</time>
      </trkpt>
      <trkpt lat="47.02046" lon="8.95105">
        <ele>850</ele>
        <time>2021-08-02T11:16:55.166Z</time>
      </trkpt>
      <trkpt lat="47.02045" lon="8.95104">
        <ele>849</ele>
        <time>2021-08-02T11:16:56.166Z</time>
      </trkpt>
      <trkpt lat="47.02045" lon="8.95102">
        <ele>849</ele>
        <time>2021-08-02T11:16:57.166Z</time>
      </trkpt>
      <trkpt lat="47.02045" lon="8.95101">
        <ele>849</ele>
        <time>2021-08-02T11:16:58.166Z</time>
      </trkpt>
      <trkpt lat="47.02045" lon="8.95099">
        <ele>849</ele>
        <time>2021-08-02T11:16:59.165Z</time>
      </trkpt>
      <trkpt lat="47.02046" lon="8.95097">
        <ele>849</ele>
        <time>2021-08-02T11:17:00.166Z</time>
      </trkpt>
      <trkpt lat="47.02046" lon="8.95096">
        <ele>848</ele>
        <time>2021-08-02T11:17:01.165Z</time>
      </trkpt>
      <trkpt lat="47.02045" lon="8.95095">
        <ele>849</ele>
        <time>2021-08-02T11:17:02.166Z</time>
      </trkpt>
      <trkpt lat="47.02045" lon="8.95094">
        <ele>849</ele>
        <time>2021-08-02T11:17:03.166Z</time>
      </trkpt>
      <trkpt lat="47.02046" lon="8.95093">
        <ele>849</ele>
        <time>2021-08-02T11:17:04.166Z</time>
      </trkpt>
      <trkpt lat="47.02046" lon="8.95092">
        <ele>849</ele>
        <time>2021-08-02T11:17:05.166Z</time>
      </trkpt>
      <trkpt lat="47.02046" lon="8.95091">
        <ele>849</ele>
        <time>2021-08-02T11:17:06.166Z</time>
      </trkpt>
      <trkpt lat="47.02046" lon="8.9509">
        <ele>849</ele>
        <time>2021-08-02T11:17:07.166Z</time>
      </trkpt>
      <trkpt lat="47.02047" lon="8.95088">
        <ele>849</ele>
        <time>2021-08-02T11:17:08.165Z</time>
      </trkpt>
      <trkpt lat="47.02048" lon="8.95086">
        <ele>848</ele>
        <time>2021-08-02T11:17:09.166Z</time>
      </trkpt>
      <trkpt lat="47.02051" lon="8.95085">
        <ele>848</ele>
        <time>2021-08-02T11:17:10.165Z</time>
      </trkpt>
      <trkpt lat="47.02053" lon="8.95083">
        <ele>848</ele>
        <time>2021-08-02T11:17:11.165Z</time>
      </trkpt>
      <trkpt lat="47.02054" lon="8.95083">
        <ele>848</ele>
        <time>2021-08-02T11:17:12.165Z</time>
      </trkpt>
      <trkpt lat="47.02055" lon="8.95083">
        <ele>847</ele>
        <time>2021-08-02T11:17:13.166Z</time>
      </trkpt>
      <trkpt lat="47.02057" lon="8.95082">
        <ele>847</ele>
        <time>2021-08-02T11:17:14.166Z</time>
      </trkpt>
      <trkpt lat="47.02058" lon="8.95082">
        <ele>847</ele>
        <time>2021-08-02T11:17:15.166Z</time>
      </trkpt>
      <trkpt lat="47.02059" lon="8.95081">
        <ele>847</ele>
        <time>2021-08-02T11:17:16.165Z</time>
      </trkpt>
      <trkpt lat="47.02059" lon="8.9508">
        <ele>848</ele>
        <time>2021-08-02T11:17:17.165Z</time>
      </trkpt>
      <trkpt lat="47.0206" lon="8.95079">
        <ele>848</ele>
        <time>2021-08-02T11:17:18.165Z</time>
      </trkpt>
      <trkpt lat="47.02061" lon="8.95078">
        <ele>848</ele>
        <time>2021-08-02T11:17:19.165Z</time>
      </trkpt>
      <trkpt lat="47.02062" lon="8.95077">
        <ele>848</ele>
        <time>2021-08-02T11:17:20.166Z</time>
      </trkpt>
      <trkpt lat="47.02062" lon="8.95076">
        <ele>849</ele>
        <time>2021-08-02T11:17:21.166Z</time>
      </trkpt>
      <trkpt lat="47.02062" lon="8.95075">
        <ele>849</ele>
        <time>2021-08-02T11:17:22.166Z</time>
      </trkpt>
      <trkpt lat="47.02062" lon="8.95074">
        <ele>849</ele>
        <time>2021-08-02T11:17:23.166Z</time>
      </trkpt>
      <trkpt lat="47.02063" lon="8.95072">
        <ele>849</ele>
        <time>2021-08-02T11:17:24.166Z</time>
      </trkpt>
      <trkpt lat="47.02063" lon="8.95071">
        <ele>849</ele>
        <time>2021-08-02T11:17:25.166Z</time>
      </trkpt>
      <trkpt lat="47.02064" lon="8.95069">
        <ele>849</ele>
        <time>2021-08-02T11:17:26.166Z</time>
      </trkpt>
      <trkpt lat="47.02064" lon="8.95068">
        <ele>849</ele>
        <time>2021-08-02T11:17:27.165Z</time>
      </trkpt>
      <trkpt lat="47.02063" lon="8.95067">
        <ele>849</ele>
        <time>2021-08-02T11:17:28.165Z</time>
      </trkpt>
      <trkpt lat="47.02064" lon="8.95066">
        <ele>849</ele>
        <time>2021-08-02T11:17:29.166Z</time>
      </trkpt>
      <trkpt lat="47.02064" lon="8.95066">
        <ele>848</ele>
        <time>2021-08-02T11:17:30.166Z</time>
      </trkpt>
      <trkpt lat="47.02064" lon="8.95065">
        <ele>848</ele>
        <time>2021-08-02T11:17:31.166Z</time>
      </trkpt>
      <trkpt lat="47.02065" lon="8.95064">
        <ele>848</ele>
        <time>2021-08-02T11:17:32.166Z</time>
      </trkpt>
      <trkpt lat="47.02066" lon="8.95064">
        <ele>848</ele>
        <time>2021-08-02T11:17:33.165Z</time>
      </trkpt>
      <trkpt lat="47.02067" lon="8.95063">
        <ele>848</ele>
        <time>2021-08-02T11:17:34.166Z</time>
      </trkpt>
      <trkpt lat="47.02068" lon="8.95062">
        <ele>849</ele>
        <time>2021-08-02T11:17:35.166Z</time>
      </trkpt>
      <trkpt lat="47.02069" lon="8.95061">
        <ele>849</ele>
        <time>2021-08-02T11:17:36.165Z</time>
      </trkpt>
      <trkpt lat="47.02071" lon="8.9506">
        <ele>849</ele>
        <time>2021-08-02T11:17:37.166Z</time>
      </trkpt>
      <trkpt lat="47.02073" lon="8.95059">
        <ele>849</ele>
        <time>2021-08-02T11:17:38.165Z</time>
      </trkpt>
      <trkpt lat="47.02074" lon="8.95058">
        <ele>849</ele>
        <time>2021-08-02T11:17:39.166Z</time>
      </trkpt>
      <trkpt lat="47.02074" lon="8.95057">
        <ele>849</ele>
        <time>2021-08-02T11:17:40.165Z</time>
      </trkpt>
      <trkpt lat="47.02075" lon="8.95055">
        <ele>849</ele>
        <time>2021-08-02T11:17:41.165Z</time>
      </trkpt>
      <trkpt lat="47.02075" lon="8.95053">
        <ele>850</ele>
        <time>2021-08-02T11:17:42.166Z</time>
      </trkpt>
      <trkpt lat="47.02075" lon="8.95051">
        <ele>850</ele>
        <time>2021-08-02T11:17:43.166Z</time>
      </trkpt>
      <trkpt lat="47.02076" lon="8.95049">
        <ele>850</ele>
        <time>2021-08-02T11:17:44.166Z</time>
      </trkpt>
      <trkpt lat="47.02076" lon="8.95048">
        <ele>850</ele>
        <time>2021-08-02T11:17:45.166Z</time>
      </trkpt>
      <trkpt lat="47.02077" lon="8.95046">
        <ele>850</ele>
        <time>2021-08-02T11:17:46.166Z</time>
      </trkpt>
      <trkpt lat="47.02078" lon="8.95045">
        <ele>850</ele>
        <time>2021-08-02T11:17:47.166Z</time>
      </trkpt>
      <trkpt lat="47.02079" lon="8.95043">
        <ele>850</ele>
        <time>2021-08-02T11:17:48.165Z</time>
      </trkpt>
      <trkpt lat="47.0208" lon="8.95042">
        <ele>850</ele>
        <time>2021-08-02T11:17:49.166Z</time>
      </trkpt>
      <trkpt lat="47.02081" lon="8.95041">
        <ele>850</ele>
        <time>2021-08-02T11:17:50.166Z</time>
      </trkpt>
      <trkpt lat="47.0208" lon="8.9504">
        <ele>849</ele>
        <time>2021-08-02T11:17:51.166Z</time>
      </trkpt>
      <trkpt lat="47.0208" lon="8.95039">
        <ele>849</ele>
        <time>2021-08-02T11:17:52.165Z</time>
      </trkpt>
      <trkpt lat="47.02079" lon="8.95037">
        <ele>849</ele>
        <time>2021-08-02T11:17:53.166Z</time>
      </trkpt>
      <trkpt lat="47.0208" lon="8.95035">
        <ele>849</ele>
        <time>2021-08-02T11:17:54.166Z</time>
      </trkpt>
      <trkpt lat="47.02081" lon="8.95033">
        <ele>848</ele>
        <time>2021-08-02T11:17:55.166Z</time>
      </trkpt>
      <trkpt lat="47.02081" lon="8.95032">
        <ele>848</ele>
        <time>2021-08-02T11:17:56.166Z</time>
      </trkpt>
      <trkpt lat="47.02081" lon="8.95032">
        <ele>848</ele>
        <time>2021-08-02T11:17:57.165Z</time>
      </trkpt>
      <trkpt lat="47.02081" lon="8.95031">
        <ele>847</ele>
        <time>2021-08-02T11:17:58.166Z</time>
      </trkpt>
      <trkpt lat="47.02081" lon="8.95031">
        <ele>847</ele>
        <time>2021-08-02T11:17:59.166Z</time>
      </trkpt>
      <trkpt lat="47.02082" lon="8.9503">
        <ele>847</ele>
        <time>2021-08-02T11:18:00.166Z</time>
      </trkpt>
      <trkpt lat="47.02082" lon="8.95029">
        <ele>847</ele>
        <time>2021-08-02T11:18:01.166Z</time>
      </trkpt>
      <trkpt lat="47.02083" lon="8.95029">
        <ele>847</ele>
        <time>2021-08-02T11:18:02.166Z</time>
      </trkpt>
      <trkpt lat="47.02083" lon="8.95029">
        <ele>847</ele>
        <time>2021-08-02T11:18:03.166Z</time>
      </trkpt>
      <trkpt lat="47.02084" lon="8.95029">
        <ele>848</ele>
        <time>2021-08-02T11:18:04.166Z</time>
      </trkpt>
      <trkpt lat="47.02085" lon="8.95028">
        <ele>848</ele>
        <time>2021-08-02T11:18:05.166Z</time>
      </trkpt>
      <trkpt lat="47.02086" lon="8.95028">
        <ele>848</ele>
        <time>2021-08-02T11:18:06.166Z</time>
      </trkpt>
      <trkpt lat="47.02087" lon="8.95027">
        <ele>848</ele>
        <time>2021-08-02T11:18:07.166Z</time>
      </trkpt>
      <trkpt lat="47.02089" lon="8.95027">
        <ele>849</ele>
        <time>2021-08-02T11:18:08.166Z</time>
      </trkpt>
      <trkpt lat="47.0209" lon="8.95027">
        <ele>849</ele>
        <time>2021-08-02T11:18:09.166Z</time>
      </trkpt>
      <trkpt lat="47.02092" lon="8.95027">
        <ele>849</ele>
        <time>2021-08-02T11:18:10.166Z</time>
      </trkpt>
      <trkpt lat="47.02094" lon="8.95026">
        <ele>850</ele>
        <time>2021-08-02T11:18:11.165Z</time>
      </trkpt>
      <trkpt lat="47.02095" lon="8.95025">
        <ele>850</ele>
        <time>2021-08-02T11:18:12.166Z</time>
      </trkpt>
      <trkpt lat="47.02097" lon="8.95024">
        <ele>850</ele>
        <time>2021-08-02T11:18:13.165Z</time>
      </trkpt>
      <trkpt lat="47.02098" lon="8.95023">
        <ele>851</ele>
        <time>2021-08-02T11:18:14.166Z</time>
      </trkpt>
      <trkpt lat="47.021" lon="8.95023">
        <ele>851</ele>
        <time>2021-08-02T11:18:15.165Z</time>
      </trkpt>
      <trkpt lat="47.02101" lon="8.95023">
        <ele>852</ele>
        <time>2021-08-02T11:18:16.166Z</time>
      </trkpt>
      <trkpt lat="47.02102" lon="8.95022">
        <ele>852</ele>
        <time>2021-08-02T11:18:17.166Z</time>
      </trkpt>
      <trkpt lat="47.02103" lon="8.95022">
        <ele>853</ele>
        <time>2021-08-02T11:18:18.166Z</time>
      </trkpt>
      <trkpt lat="47.02104" lon="8.95021">
        <ele>854</ele>
        <time>2021-08-02T11:18:19.166Z</time>
      </trkpt>
      <trkpt lat="47.02105" lon="8.95021">
        <ele>855</ele>
        <time>2021-08-02T11:18:20.165Z</time>
      </trkpt>
      <trkpt lat="47.02106" lon="8.9502">
        <ele>856</ele>
        <time>2021-08-02T11:18:21.166Z</time>
      </trkpt>
      <trkpt lat="47.02107" lon="8.9502">
        <ele>856</ele>
        <time>2021-08-02T11:18:22.165Z</time>
      </trkpt>
      <trkpt lat="47.02108" lon="8.95019">
        <ele>856</ele>
        <time>2021-08-02T11:18:23.166Z</time>
      </trkpt>
      <trkpt lat="47.02109" lon="8.95018">
        <ele>857</ele>
        <time>2021-08-02T11:18:24.165Z</time>
      </trkpt>
      <trkpt lat="47.02109" lon="8.95017">
        <ele>857</ele>
        <time>2021-08-02T11:18:25.166Z</time>
      </trkpt>
      <trkpt lat="47.0211" lon="8.95016">
        <ele>857</ele>
        <time>2021-08-02T11:18:26.165Z</time>
      </trkpt>
      <trkpt lat="47.02111" lon="8.95015">
        <ele>858</ele>
        <time>2021-08-02T11:18:27.166Z</time>
      </trkpt>
      <trkpt lat="47.02112" lon="8.95014">
        <ele>858</ele>
        <time>2021-08-02T11:18:28.166Z</time>
      </trkpt>
      <trkpt lat="47.02113" lon="8.95014">
        <ele>858</ele>
        <time>2021-08-02T11:18:29.166Z</time>
      </trkpt>
      <trkpt lat="47.02116" lon="8.95013">
        <ele>859</ele>
        <time>2021-08-02T11:18:30.166Z</time>
      </trkpt>
      <trkpt lat="47.02118" lon="8.95012">
        <ele>859</ele>
        <time>2021-08-02T11:18:31.165Z</time>
      </trkpt>
      <trkpt lat="47.02119" lon="8.9501">
        <ele>858</ele>
        <time>2021-08-02T11:18:32.166Z</time>
      </trkpt>
      <trkpt lat="47.0212" lon="8.95009">
        <ele>858</ele>
        <time>2021-08-02T11:18:33.166Z</time>
      </trkpt>
      <trkpt lat="47.02121" lon="8.95009">
        <ele>858</ele>
        <time>2021-08-02T11:18:34.166Z</time>
      </trkpt>
      <trkpt lat="47.02123" lon="8.95008">
        <ele>858</ele>
        <time>2021-08-02T11:18:35.165Z</time>
      </trkpt>
      <trkpt lat="47.02124" lon="8.95008">
        <ele>857</ele>
        <time>2021-08-02T11:18:36.166Z</time>
      </trkpt>
      <trkpt lat="47.02125" lon="8.95007">
        <ele>857</ele>
        <time>2021-08-02T11:18:37.166Z</time>
      </trkpt>
      <trkpt lat="47.02125" lon="8.95006">
        <ele>856</ele>
        <time>2021-08-02T11:18:38.166Z</time>
      </trkpt>
      <trkpt lat="47.02126" lon="8.95006">
        <ele>856</ele>
        <time>2021-08-02T11:18:39.166Z</time>
      </trkpt>
      <trkpt lat="47.02127" lon="8.95004">
        <ele>856</ele>
        <time>2021-08-02T11:18:40.165Z</time>
      </trkpt>
      <trkpt lat="47.02128" lon="8.95003">
        <ele>856</ele>
        <time>2021-08-02T11:18:41.165Z</time>
      </trkpt>
      <trkpt lat="47.02129" lon="8.95002">
        <ele>856</ele>
        <time>2021-08-02T11:18:42.165Z</time>
      </trkpt>
      <trkpt lat="47.02129" lon="8.95002">
        <ele>855</ele>
        <time>2021-08-02T11:18:43.165Z</time>
      </trkpt>
      <trkpt lat="47.0213" lon="8.95002">
        <ele>855</ele>
        <time>2021-08-02T11:18:44.165Z</time>
      </trkpt>
      <trkpt lat="47.0213" lon="8.95002">
        <ele>855</ele>
        <time>2021-08-02T11:18:45.165Z</time>
      </trkpt>
      <trkpt lat="47.02131" lon="8.95001">
        <ele>855</ele>
        <time>2021-08-02T11:18:46.166Z</time>
      </trkpt>
      <trkpt lat="47.02133" lon="8.94999">
        <ele>855</ele>
        <time>2021-08-02T11:18:47.165Z</time>
      </trkpt>
      <trkpt lat="47.02133" lon="8.94999">
        <ele>855</ele>
        <time>2021-08-02T11:18:48.166Z</time>
      </trkpt>
      <trkpt lat="47.02134" lon="8.94998">
        <ele>855</ele>
        <time>2021-08-02T11:18:49.166Z</time>
      </trkpt>
      <trkpt lat="47.02134" lon="8.94998">
        <ele>855</ele>
        <time>2021-08-02T11:18:50.165Z</time>
      </trkpt>
      <trkpt lat="47.02134" lon="8.94997">
        <ele>855</ele>
        <time>2021-08-02T11:18:51.166Z</time>
      </trkpt>
      <trkpt lat="47.02134" lon="8.94995">
        <ele>855</ele>
        <time>2021-08-02T11:18:52.165Z</time>
      </trkpt>
      <trkpt lat="47.02134" lon="8.94995">
        <ele>855</ele>
        <time>2021-08-02T11:18:53.166Z</time>
      </trkpt>
      <trkpt lat="47.02135" lon="8.94994">
        <ele>855</ele>
        <time>2021-08-02T11:18:54.165Z</time>
      </trkpt>
      <trkpt lat="47.02135" lon="8.94994">
        <ele>855</ele>
        <time>2021-08-02T11:18:55.165Z</time>
      </trkpt>
      <trkpt lat="47.02136" lon="8.94993">
        <ele>856</ele>
        <time>2021-08-02T11:18:56.166Z</time>
      </trkpt>
      <trkpt lat="47.02137" lon="8.94993">
        <ele>856</ele>
        <time>2021-08-02T11:18:57.166Z</time>
      </trkpt>
      <trkpt lat="47.02137" lon="8.94991">
        <ele>856</ele>
        <time>2021-08-02T11:18:58.166Z</time>
      </trkpt>
      <trkpt lat="47.02138" lon="8.94991">
        <ele>856</ele>
        <time>2021-08-02T11:18:59.166Z</time>
      </trkpt>
      <trkpt lat="47.02138" lon="8.94991">
        <ele>856</ele>
        <time>2021-08-02T11:19:00.165Z</time>
      </trkpt>
      <trkpt lat="47.02139" lon="8.9499">
        <ele>856</ele>
        <time>2021-08-02T11:19:01.166Z</time>
      </trkpt>
      <trkpt lat="47.02139" lon="8.9499">
        <ele>855</ele>
        <time>2021-08-02T11:19:02.165Z</time>
      </trkpt>
      <trkpt lat="47.0214" lon="8.94991">
        <ele>855</ele>
        <time>2021-08-02T11:19:03.166Z</time>
      </trkpt>
      <trkpt lat="47.02141" lon="8.9499">
        <ele>854</ele>
        <time>2021-08-02T11:19:04.166Z</time>
      </trkpt>
      <trkpt lat="47.02141" lon="8.9499">
        <ele>854</ele>
        <time>2021-08-02T11:19:05.165Z</time>
      </trkpt>
      <trkpt lat="47.02142" lon="8.94989">
        <ele>854</ele>
        <time>2021-08-02T11:19:06.166Z</time>
      </trkpt>
      <trkpt lat="47.02144" lon="8.94988">
        <ele>853</ele>
        <time>2021-08-02T11:19:07.165Z</time>
      </trkpt>
      <trkpt lat="47.02145" lon="8.94987">
        <ele>853</ele>
        <time>2021-08-02T11:19:08.165Z</time>
      </trkpt>
      <trkpt lat="47.02146" lon="8.94986">
        <ele>852</ele>
        <time>2021-08-02T11:19:09.166Z</time>
      </trkpt>
      <trkpt lat="47.02146" lon="8.94985">
        <ele>852</ele>
        <time>2021-08-02T11:19:10.166Z</time>
      </trkpt>
      <trkpt lat="47.02147" lon="8.94984">
        <ele>851</ele>
        <time>2021-08-02T11:19:11.166Z</time>
      </trkpt>
      <trkpt lat="47.02147" lon="8.94983">
        <ele>851</ele>
        <time>2021-08-02T11:19:12.165Z</time>
      </trkpt>
      <trkpt lat="47.02148" lon="8.94982">
        <ele>851</ele>
        <time>2021-08-02T11:19:13.166Z</time>
      </trkpt>
      <trkpt lat="47.02149" lon="8.94981">
        <ele>851</ele>
        <time>2021-08-02T11:19:14.166Z</time>
      </trkpt>
      <trkpt lat="47.02149" lon="8.9498">
        <ele>851</ele>
        <time>2021-08-02T11:19:15.165Z</time>
      </trkpt>
      <trkpt lat="47.0215" lon="8.94979">
        <ele>851</ele>
        <time>2021-08-02T11:19:16.166Z</time>
      </trkpt>
      <trkpt lat="47.02151" lon="8.94979">
        <ele>851</ele>
        <time>2021-08-02T11:19:17.165Z</time>
      </trkpt>
      <trkpt lat="47.02151" lon="8.94979">
        <ele>851</ele>
        <time>2021-08-02T11:19:18.166Z</time>
      </trkpt>
      <trkpt lat="47.02152" lon="8.94977">
        <ele>851</ele>
        <time>2021-08-02T11:19:19.165Z</time>
      </trkpt>
      <trkpt lat="47.02154" lon="8.94976">
        <ele>851</ele>
        <time>2021-08-02T11:19:20.166Z</time>
      </trkpt>
      <trkpt lat="47.02155" lon="8.94974">
        <ele>852</ele>
        <time>2021-08-02T11:19:21.166Z</time>
      </trkpt>
      <trkpt lat="47.02156" lon="8.94973">
        <ele>852</ele>
        <time>2021-08-02T11:19:22.166Z</time>
      </trkpt>
      <trkpt lat="47.02157" lon="8.94972">
        <ele>852</ele>
        <time>2021-08-02T11:19:23.166Z</time>
      </trkpt>
      <trkpt lat="47.02157" lon="8.94971">
        <ele>851</ele>
        <time>2021-08-02T11:19:24.165Z</time>
      </trkpt>
      <trkpt lat="47.02158" lon="8.9497">
        <ele>851</ele>
        <time>2021-08-02T11:19:25.165Z</time>
      </trkpt>
      <trkpt lat="47.02159" lon="8.94969">
        <ele>851</ele>
        <time>2021-08-02T11:19:26.166Z</time>
      </trkpt>
      <trkpt lat="47.02159" lon="8.94968">
        <ele>851</ele>
        <time>2021-08-02T11:19:27.166Z</time>
      </trkpt>
      <trkpt lat="47.0216" lon="8.94967">
        <ele>851</ele>
        <time>2021-08-02T11:19:28.165Z</time>
      </trkpt>
      <trkpt lat="47.0216" lon="8.94966">
        <ele>851</ele>
        <time>2021-08-02T11:19:29.165Z</time>
      </trkpt>
      <trkpt lat="47.0216" lon="8.94964">
        <ele>851</ele>
        <time>2021-08-02T11:19:30.166Z</time>
      </trkpt>
      <trkpt lat="47.02161" lon="8.94962">
        <ele>851</ele>
        <time>2021-08-02T11:19:31.166Z</time>
      </trkpt>
      <trkpt lat="47.02161" lon="8.94961">
        <ele>851</ele>
        <time>2021-08-02T11:19:32.165Z</time>
      </trkpt>
      <trkpt lat="47.02162" lon="8.94959">
        <ele>851</ele>
        <time>2021-08-02T11:19:33.166Z</time>
      </trkpt>
      <trkpt lat="47.02162" lon="8.94957">
        <ele>852</ele>
        <time>2021-08-02T11:19:34.166Z</time>
      </trkpt>
      <trkpt lat="47.02163" lon="8.94956">
        <ele>852</ele>
        <time>2021-08-02T11:19:35.166Z</time>
      </trkpt>
      <trkpt lat="47.02163" lon="8.94954">
        <ele>852</ele>
        <time>2021-08-02T11:19:36.166Z</time>
      </trkpt>
      <trkpt lat="47.02163" lon="8.94953">
        <ele>852</ele>
        <time>2021-08-02T11:19:37.166Z</time>
      </trkpt>
      <trkpt lat="47.02164" lon="8.94953">
        <ele>853</ele>
        <time>2021-08-02T11:19:38.166Z</time>
      </trkpt>
      <trkpt lat="47.02164" lon="8.94951">
        <ele>853</ele>
        <time>2021-08-02T11:19:42.295Z</time>
      </trkpt>
      <trkpt lat="47.02165" lon="8.94951">
        <ele>853</ele>
        <time>2021-08-02T11:19:43.294Z</time>
      </trkpt>
      <trkpt lat="47.02165" lon="8.9495">
        <ele>853</ele>
        <time>2021-08-02T11:19:44.295Z</time>
      </trkpt>
      <trkpt lat="47.02165" lon="8.94948">
        <ele>853</ele>
        <time>2021-08-02T11:19:45.295Z</time>
      </trkpt>
      <trkpt lat="47.02166" lon="8.94947">
        <ele>853</ele>
        <time>2021-08-02T11:19:53.396Z</time>
      </trkpt>
      <trkpt lat="47.02167" lon="8.94946">
        <ele>854</ele>
        <time>2021-08-02T11:19:54.397Z</time>
      </trkpt>
      <trkpt lat="47.02168" lon="8.94945">
        <ele>854</ele>
        <time>2021-08-02T11:19:55.396Z</time>
      </trkpt>
      <trkpt lat="47.02168" lon="8.94943">
        <ele>854</ele>
        <time>2021-08-02T11:19:56.397Z</time>
      </trkpt>
      <trkpt lat="47.02168" lon="8.94942">
        <ele>854</ele>
        <time>2021-08-02T11:19:57.397Z</time>
      </trkpt>
      <trkpt lat="47.02169" lon="8.94941">
        <ele>854</ele>
        <time>2021-08-02T11:19:58.396Z</time>
      </trkpt>
      <trkpt lat="47.02169" lon="8.9494">
        <ele>855</ele>
        <time>2021-08-02T11:19:59.397Z</time>
      </trkpt>
      <trkpt lat="47.0217" lon="8.94939">
        <ele>855</ele>
        <time>2021-08-02T11:20:00.397Z</time>
      </trkpt>
      <trkpt lat="47.0217" lon="8.94937">
        <ele>855</ele>
        <time>2021-08-02T11:20:01.397Z</time>
      </trkpt>
      <trkpt lat="47.0217" lon="8.94936">
        <ele>855</ele>
        <time>2021-08-02T11:20:02.397Z</time>
      </trkpt>
      <trkpt lat="47.02171" lon="8.94932">
        <ele>855</ele>
        <time>2021-08-02T11:20:03.397Z</time>
      </trkpt>
      <trkpt lat="47.02172" lon="8.94931">
        <ele>855</ele>
        <time>2021-08-02T11:20:04.397Z</time>
      </trkpt>
      <trkpt lat="47.02173" lon="8.94929">
        <ele>855</ele>
        <time>2021-08-02T11:20:05.396Z</time>
      </trkpt>
      <trkpt lat="47.02173" lon="8.94927">
        <ele>855</ele>
        <time>2021-08-02T11:20:06.397Z</time>
      </trkpt>
      <trkpt lat="47.02172" lon="8.94926">
        <ele>855</ele>
        <time>2021-08-02T11:20:07.397Z</time>
      </trkpt>
      <trkpt lat="47.02173" lon="8.94925">
        <ele>855</ele>
        <time>2021-08-02T11:20:08.397Z</time>
      </trkpt>
      <trkpt lat="47.02173" lon="8.94923">
        <ele>855</ele>
        <time>2021-08-02T11:20:09.396Z</time>
      </trkpt>
      <trkpt lat="47.02173" lon="8.94922">
        <ele>855</ele>
        <time>2021-08-02T11:20:10.397Z</time>
      </trkpt>
      <trkpt lat="47.02172" lon="8.9492">
        <ele>854</ele>
        <time>2021-08-02T11:20:11.397Z</time>
      </trkpt>
      <trkpt lat="47.02173" lon="8.94919">
        <ele>854</ele>
        <time>2021-08-02T11:20:12.397Z</time>
      </trkpt>
      <trkpt lat="47.02173" lon="8.94918">
        <ele>854</ele>
        <time>2021-08-02T11:20:13.397Z</time>
      </trkpt>
      <trkpt lat="47.02174" lon="8.94915">
        <ele>854</ele>
        <time>2021-08-02T11:20:14.397Z</time>
      </trkpt>
      <trkpt lat="47.02174" lon="8.94913">
        <ele>855</ele>
        <time>2021-08-02T11:20:15.397Z</time>
      </trkpt>
      <trkpt lat="47.02174" lon="8.94911">
        <ele>855</ele>
        <time>2021-08-02T11:20:16.397Z</time>
      </trkpt>
      <trkpt lat="47.02175" lon="8.9491">
        <ele>855</ele>
        <time>2021-08-02T11:20:17.396Z</time>
      </trkpt>
      <trkpt lat="47.02176" lon="8.94909">
        <ele>856</ele>
        <time>2021-08-02T11:20:18.397Z</time>
      </trkpt>
      <trkpt lat="47.02176" lon="8.94907">
        <ele>856</ele>
        <time>2021-08-02T11:20:19.397Z</time>
      </trkpt>
      <trkpt lat="47.02176" lon="8.94906">
        <ele>856</ele>
        <time>2021-08-02T11:20:20.397Z</time>
      </trkpt>
      <trkpt lat="47.02176" lon="8.94905">
        <ele>855</ele>
        <time>2021-08-02T11:20:22.526Z</time>
      </trkpt>
      <trkpt lat="47.02176" lon="8.94903">
        <ele>855</ele>
        <time>2021-08-02T11:20:27.418Z</time>
      </trkpt>
      <trkpt lat="47.02176" lon="8.94902">
        <ele>854</ele>
        <time>2021-08-02T11:20:28.418Z</time>
      </trkpt>
      <trkpt lat="47.02176" lon="8.94901">
        <ele>854</ele>
        <time>2021-08-02T11:20:29.417Z</time>
      </trkpt>
      <trkpt lat="47.02177" lon="8.94899">
        <ele>854</ele>
        <time>2021-08-02T11:20:33.518Z</time>
      </trkpt>
      <trkpt lat="47.02178" lon="8.94897">
        <ele>854</ele>
        <time>2021-08-02T11:20:39.392Z</time>
      </trkpt>
      <trkpt lat="47.02179" lon="8.94895">
        <ele>854</ele>
        <time>2021-08-02T11:20:40.392Z</time>
      </trkpt>
      <trkpt lat="47.02179" lon="8.94893">
        <ele>855</ele>
        <time>2021-08-02T11:20:47.289Z</time>
      </trkpt>
      <trkpt lat="47.02179" lon="8.94891">
        <ele>855</ele>
        <time>2021-08-02T11:20:48.290Z</time>
      </trkpt>
      <trkpt lat="47.02179" lon="8.9489">
        <ele>856</ele>
        <time>2021-08-02T11:20:49.290Z</time>
      </trkpt>
      <trkpt lat="47.02179" lon="8.94888">
        <ele>856</ele>
        <time>2021-08-02T11:20:50.290Z</time>
      </trkpt>
      <trkpt lat="47.0218" lon="8.94887">
        <ele>857</ele>
        <time>2021-08-02T11:20:51.289Z</time>
      </trkpt>
      <trkpt lat="47.0218" lon="8.94885">
        <ele>858</ele>
        <time>2021-08-02T11:20:52.289Z</time>
      </trkpt>
      <trkpt lat="47.0218" lon="8.94884">
        <ele>858</ele>
        <time>2021-08-02T11:20:55.413Z</time>
      </trkpt>
      <trkpt lat="47.0218" lon="8.94882">
        <ele>859</ele>
        <time>2021-08-02T11:20:56.414Z</time>
      </trkpt>
      <trkpt lat="47.0218" lon="8.94881">
        <ele>859</ele>
        <time>2021-08-02T11:20:57.413Z</time>
      </trkpt>
      <trkpt lat="47.0218" lon="8.9488">
        <ele>859</ele>
        <time>2021-08-02T11:20:59.557Z</time>
      </trkpt>
      <trkpt lat="47.0218" lon="8.94878">
        <ele>859</ele>
        <time>2021-08-02T11:21:00.558Z</time>
      </trkpt>
      <trkpt lat="47.0218" lon="8.94876">
        <ele>860</ele>
        <time>2021-08-02T11:21:01.558Z</time>
      </trkpt>
      <trkpt lat="47.02181" lon="8.94874">
        <ele>860</ele>
        <time>2021-08-02T11:21:02.557Z</time>
      </trkpt>
      <trkpt lat="47.02182" lon="8.94872">
        <ele>861</ele>
        <time>2021-08-02T11:21:03.558Z</time>
      </trkpt>
      <trkpt lat="47.02182" lon="8.9487">
        <ele>861</ele>
        <time>2021-08-02T11:21:04.557Z</time>
      </trkpt>
      <trkpt lat="47.02182" lon="8.94869">
        <ele>861</ele>
        <time>2021-08-02T11:21:05.557Z</time>
      </trkpt>
      <trkpt lat="47.02183" lon="8.94867">
        <ele>861</ele>
        <time>2021-08-02T11:21:06.558Z</time>
      </trkpt>
      <trkpt lat="47.02183" lon="8.94865">
        <ele>861</ele>
        <time>2021-08-02T11:21:07.557Z</time>
      </trkpt>
      <trkpt lat="47.02183" lon="8.94862">
        <ele>862</ele>
        <time>2021-08-02T11:21:08.558Z</time>
      </trkpt>
      <trkpt lat="47.02183" lon="8.9486">
        <ele>862</ele>
        <time>2021-08-02T11:21:09.557Z</time>
      </trkpt>
      <trkpt lat="47.02183" lon="8.94859">
        <ele>862</ele>
        <time>2021-08-02T11:21:10.558Z</time>
      </trkpt>
      <trkpt lat="47.02183" lon="8.94859">
        <ele>862</ele>
        <time>2021-08-02T11:21:11.558Z</time>
      </trkpt>
      <trkpt lat="47.02183" lon="8.94855">
        <ele>860</ele>
        <time>2021-08-02T11:21:12.559Z</time>
      </trkpt>
      <trkpt lat="47.02183" lon="8.94854">
        <ele>860</ele>
        <time>2021-08-02T11:21:13.558Z</time>
      </trkpt>
      <trkpt lat="47.02182" lon="8.94852">
        <ele>860</ele>
        <time>2021-08-02T11:21:14.559Z</time>
      </trkpt>
      <trkpt lat="47.02182" lon="8.94851">
        <ele>860</ele>
        <time>2021-08-02T11:21:15.558Z</time>
      </trkpt>
      <trkpt lat="47.02183" lon="8.9485">
        <ele>860</ele>
        <time>2021-08-02T11:21:16.558Z</time>
      </trkpt>
      <trkpt lat="47.02183" lon="8.94848">
        <ele>860</ele>
        <time>2021-08-02T11:21:17.558Z</time>
      </trkpt>
      <trkpt lat="47.02183" lon="8.94847">
        <ele>860</ele>
        <time>2021-08-02T11:21:18.558Z</time>
      </trkpt>
      <trkpt lat="47.02183" lon="8.94846">
        <ele>859</ele>
        <time>2021-08-02T11:21:19.558Z</time>
      </trkpt>
      <trkpt lat="47.02183" lon="8.94844">
        <ele>859</ele>
        <time>2021-08-02T11:21:20.558Z</time>
      </trkpt>
      <trkpt lat="47.02182" lon="8.94843">
        <ele>860</ele>
        <time>2021-08-02T11:21:21.558Z</time>
      </trkpt>
      <trkpt lat="47.02182" lon="8.94842">
        <ele>859</ele>
        <time>2021-08-02T11:21:22.558Z</time>
      </trkpt>
      <trkpt lat="47.02182" lon="8.9484">
        <ele>859</ele>
        <time>2021-08-02T11:21:24.636Z</time>
      </trkpt>
      <trkpt lat="47.02182" lon="8.94838">
        <ele>859</ele>
        <time>2021-08-02T11:21:25.636Z</time>
      </trkpt>
      <trkpt lat="47.02182" lon="8.94836">
        <ele>860</ele>
        <time>2021-08-02T11:21:26.636Z</time>
      </trkpt>
      <trkpt lat="47.02182" lon="8.94833">
        <ele>859</ele>
        <time>2021-08-02T11:21:27.636Z</time>
      </trkpt>
      <trkpt lat="47.02182" lon="8.94832">
        <ele>859</ele>
        <time>2021-08-02T11:21:28.636Z</time>
      </trkpt>
      <trkpt lat="47.02182" lon="8.9483">
        <ele>859</ele>
        <time>2021-08-02T11:21:29.636Z</time>
      </trkpt>
      <trkpt lat="47.02182" lon="8.94829">
        <ele>859</ele>
        <time>2021-08-02T11:21:30.636Z</time>
      </trkpt>
      <trkpt lat="47.02182" lon="8.94827">
        <ele>859</ele>
        <time>2021-08-02T11:21:31.636Z</time>
      </trkpt>
      <trkpt lat="47.02182" lon="8.94826">
        <ele>859</ele>
        <time>2021-08-02T11:21:32.636Z</time>
      </trkpt>
      <trkpt lat="47.02183" lon="8.94825">
        <ele>859</ele>
        <time>2021-08-02T11:21:33.636Z</time>
      </trkpt>
      <trkpt lat="47.02183" lon="8.94824">
        <ele>859</ele>
        <time>2021-08-02T11:21:34.636Z</time>
      </trkpt>
      <trkpt lat="47.02183" lon="8.94822">
        <ele>859</ele>
        <time>2021-08-02T11:21:35.637Z</time>
      </trkpt>
      <trkpt lat="47.02184" lon="8.9482">
        <ele>859</ele>
        <time>2021-08-02T11:21:36.637Z</time>
      </trkpt>
      <trkpt lat="47.02183" lon="8.94818">
        <ele>859</ele>
        <time>2021-08-02T11:21:37.636Z</time>
      </trkpt>
      <trkpt lat="47.02183" lon="8.94816">
        <ele>859</ele>
        <time>2021-08-02T11:21:38.636Z</time>
      </trkpt>
      <trkpt lat="47.02183" lon="8.94815">
        <ele>859</ele>
        <time>2021-08-02T11:21:39.636Z</time>
      </trkpt>
      <trkpt lat="47.02184" lon="8.94812">
        <ele>859</ele>
        <time>2021-08-02T11:21:40.636Z</time>
      </trkpt>
      <trkpt lat="47.02184" lon="8.94809">
        <ele>859</ele>
        <time>2021-08-02T11:21:41.636Z</time>
      </trkpt>
      <trkpt lat="47.02185" lon="8.94807">
        <ele>859</ele>
        <time>2021-08-02T11:21:42.636Z</time>
      </trkpt>
      <trkpt lat="47.02186" lon="8.94804">
        <ele>859</ele>
        <time>2021-08-02T11:21:43.636Z</time>
      </trkpt>
      <trkpt lat="47.02186" lon="8.94802">
        <ele>859</ele>
        <time>2021-08-02T11:21:44.637Z</time>
      </trkpt>
      <trkpt lat="47.02186" lon="8.948">
        <ele>859</ele>
        <time>2021-08-02T11:21:45.637Z</time>
      </trkpt>
      <trkpt lat="47.02186" lon="8.94799">
        <ele>859</ele>
        <time>2021-08-02T11:21:46.636Z</time>
      </trkpt>
      <trkpt lat="47.02187" lon="8.94798">
        <ele>859</ele>
        <time>2021-08-02T11:21:47.637Z</time>
      </trkpt>
      <trkpt lat="47.02187" lon="8.94797">
        <ele>859</ele>
        <time>2021-08-02T11:21:48.636Z</time>
      </trkpt>
      <trkpt lat="47.02186" lon="8.94795">
        <ele>859</ele>
        <time>2021-08-02T11:21:49.637Z</time>
      </trkpt>
      <trkpt lat="47.02186" lon="8.94794">
        <ele>860</ele>
        <time>2021-08-02T11:21:50.636Z</time>
      </trkpt>
      <trkpt lat="47.02187" lon="8.94792">
        <ele>860</ele>
        <time>2021-08-02T11:21:51.637Z</time>
      </trkpt>
      <trkpt lat="47.02187" lon="8.9479">
        <ele>860</ele>
        <time>2021-08-02T11:21:52.636Z</time>
      </trkpt>
      <trkpt lat="47.02187" lon="8.94788">
        <ele>861</ele>
        <time>2021-08-02T11:21:53.637Z</time>
      </trkpt>
      <trkpt lat="47.02187" lon="8.94787">
        <ele>861</ele>
        <time>2021-08-02T11:21:54.636Z</time>
      </trkpt>
      <trkpt lat="47.02187" lon="8.94786">
        <ele>861</ele>
        <time>2021-08-02T11:21:55.637Z</time>
      </trkpt>
      <trkpt lat="47.02187" lon="8.94785">
        <ele>861</ele>
        <time>2021-08-02T11:21:56.636Z</time>
      </trkpt>
      <trkpt lat="47.02187" lon="8.94783">
        <ele>861</ele>
        <time>2021-08-02T11:21:57.637Z</time>
      </trkpt>
      <trkpt lat="47.02187" lon="8.94781">
        <ele>861</ele>
        <time>2021-08-02T11:21:58.636Z</time>
      </trkpt>
      <trkpt lat="47.02187" lon="8.94779">
        <ele>861</ele>
        <time>2021-08-02T11:22:01.766Z</time>
      </trkpt>
      <trkpt lat="47.02188" lon="8.94777">
        <ele>861</ele>
        <time>2021-08-02T11:22:02.766Z</time>
      </trkpt>
      <trkpt lat="47.02189" lon="8.94776">
        <ele>861</ele>
        <time>2021-08-02T11:22:03.766Z</time>
      </trkpt>
      <trkpt lat="47.02189" lon="8.94774">
        <ele>861</ele>
        <time>2021-08-02T11:22:04.766Z</time>
      </trkpt>
      <trkpt lat="47.02189" lon="8.94773">
        <ele>861</ele>
        <time>2021-08-02T11:22:05.766Z</time>
      </trkpt>
      <trkpt lat="47.02189" lon="8.94771">
        <ele>861</ele>
        <time>2021-08-02T11:22:06.766Z</time>
      </trkpt>
      <trkpt lat="47.02189" lon="8.9477">
        <ele>861</ele>
        <time>2021-08-02T11:22:07.766Z</time>
      </trkpt>
      <trkpt lat="47.02189" lon="8.94768">
        <ele>860</ele>
        <time>2021-08-02T11:22:08.766Z</time>
      </trkpt>
      <trkpt lat="47.02189" lon="8.94766">
        <ele>860</ele>
        <time>2021-08-02T11:22:09.766Z</time>
      </trkpt>
      <trkpt lat="47.02189" lon="8.94764">
        <ele>859</ele>
        <time>2021-08-02T11:22:10.766Z</time>
      </trkpt>
      <trkpt lat="47.0219" lon="8.94762">
        <ele>859</ele>
        <time>2021-08-02T11:22:11.766Z</time>
      </trkpt>
      <trkpt lat="47.0219" lon="8.94761">
        <ele>858</ele>
        <time>2021-08-02T11:22:12.766Z</time>
      </trkpt>
      <trkpt lat="47.02189" lon="8.94759">
        <ele>858</ele>
        <time>2021-08-02T11:22:13.766Z</time>
      </trkpt>
      <trkpt lat="47.02188" lon="8.94758">
        <ele>858</ele>
        <time>2021-08-02T11:22:14.766Z</time>
      </trkpt>
      <trkpt lat="47.02188" lon="8.94757">
        <ele>858</ele>
        <time>2021-08-02T11:22:15.766Z</time>
      </trkpt>
      <trkpt lat="47.02187" lon="8.94754">
        <ele>858</ele>
        <time>2021-08-02T11:22:17.768Z</time>
      </trkpt>
      <trkpt lat="47.02187" lon="8.94752">
        <ele>858</ele>
        <time>2021-08-02T11:22:18.768Z</time>
      </trkpt>
      <trkpt lat="47.02186" lon="8.9475">
        <ele>858</ele>
        <time>2021-08-02T11:22:19.768Z</time>
      </trkpt>
      <trkpt lat="47.02185" lon="8.94747">
        <ele>858</ele>
        <time>2021-08-02T11:22:20.768Z</time>
      </trkpt>
      <trkpt lat="47.02184" lon="8.94746">
        <ele>858</ele>
        <time>2021-08-02T11:22:21.768Z</time>
      </trkpt>
      <trkpt lat="47.02183" lon="8.94745">
        <ele>858</ele>
        <time>2021-08-02T11:22:22.768Z</time>
      </trkpt>
      <trkpt lat="47.02182" lon="8.94744">
        <ele>858</ele>
        <time>2021-08-02T11:22:23.768Z</time>
      </trkpt>
      <trkpt lat="47.02181" lon="8.94743">
        <ele>858</ele>
        <time>2021-08-02T11:22:24.769Z</time>
      </trkpt>
      <trkpt lat="47.02181" lon="8.94741">
        <ele>858</ele>
        <time>2021-08-02T11:22:25.768Z</time>
      </trkpt>
      <trkpt lat="47.0218" lon="8.9474">
        <ele>858</ele>
        <time>2021-08-02T11:22:26.768Z</time>
      </trkpt>
      <trkpt lat="47.0218" lon="8.94738">
        <ele>857</ele>
        <time>2021-08-02T11:22:27.768Z</time>
      </trkpt>
      <trkpt lat="47.02179" lon="8.94736">
        <ele>857</ele>
        <time>2021-08-02T11:22:28.768Z</time>
      </trkpt>
      <trkpt lat="47.02179" lon="8.94735">
        <ele>857</ele>
        <time>2021-08-02T11:22:29.768Z</time>
      </trkpt>
      <trkpt lat="47.02179" lon="8.94734">
        <ele>857</ele>
        <time>2021-08-02T11:22:30.768Z</time>
      </trkpt>
      <trkpt lat="47.02177" lon="8.94731">
        <ele>857</ele>
        <time>2021-08-02T11:22:31.768Z</time>
      </trkpt>
      <trkpt lat="47.02176" lon="8.94729">
        <ele>857</ele>
        <time>2021-08-02T11:22:32.769Z</time>
      </trkpt>
      <trkpt lat="47.02175" lon="8.94727">
        <ele>857</ele>
        <time>2021-08-02T11:22:33.769Z</time>
      </trkpt>
      <trkpt lat="47.02174" lon="8.94725">
        <ele>856</ele>
        <time>2021-08-02T11:22:34.768Z</time>
      </trkpt>
      <trkpt lat="47.02173" lon="8.94723">
        <ele>856</ele>
        <time>2021-08-02T11:22:35.768Z</time>
      </trkpt>
      <trkpt lat="47.02171" lon="8.94721">
        <ele>856</ele>
        <time>2021-08-02T11:22:36.768Z</time>
      </trkpt>
      <trkpt lat="47.0217" lon="8.9472">
        <ele>856</ele>
        <time>2021-08-02T11:22:37.768Z</time>
      </trkpt>
      <trkpt lat="47.0217" lon="8.94719">
        <ele>856</ele>
        <time>2021-08-02T11:22:38.768Z</time>
      </trkpt>
      <trkpt lat="47.02169" lon="8.94717">
        <ele>856</ele>
        <time>2021-08-02T11:22:39.768Z</time>
      </trkpt>
      <trkpt lat="47.02168" lon="8.94716">
        <ele>857</ele>
        <time>2021-08-02T11:22:40.768Z</time>
      </trkpt>
      <trkpt lat="47.02168" lon="8.94714">
        <ele>857</ele>
        <time>2021-08-02T11:22:41.768Z</time>
      </trkpt>
      <trkpt lat="47.02168" lon="8.94713">
        <ele>857</ele>
        <time>2021-08-02T11:22:42.768Z</time>
      </trkpt>
      <trkpt lat="47.02168" lon="8.94712">
        <ele>857</ele>
        <time>2021-08-02T11:22:43.768Z</time>
      </trkpt>
      <trkpt lat="47.02168" lon="8.94711">
        <ele>858</ele>
        <time>2021-08-02T11:22:44.768Z</time>
      </trkpt>
      <trkpt lat="47.02167" lon="8.9471">
        <ele>858</ele>
        <time>2021-08-02T11:22:45.768Z</time>
      </trkpt>
      <trkpt lat="47.02166" lon="8.94706">
        <ele>858</ele>
        <time>2021-08-02T11:22:46.768Z</time>
      </trkpt>
      <trkpt lat="47.02166" lon="8.94702">
        <ele>859</ele>
        <time>2021-08-02T11:22:47.768Z</time>
      </trkpt>
      <trkpt lat="47.02165" lon="8.947">
        <ele>859</ele>
        <time>2021-08-02T11:22:48.768Z</time>
      </trkpt>
      <trkpt lat="47.02165" lon="8.94698">
        <ele>859</ele>
        <time>2021-08-02T11:22:49.768Z</time>
      </trkpt>
      <trkpt lat="47.02164" lon="8.94696">
        <ele>859</ele>
        <time>2021-08-02T11:22:50.768Z</time>
      </trkpt>
      <trkpt lat="47.02163" lon="8.94695">
        <ele>859</ele>
        <time>2021-08-02T11:22:51.768Z</time>
      </trkpt>
      <trkpt lat="47.02162" lon="8.94693">
        <ele>859</ele>
        <time>2021-08-02T11:22:52.769Z</time>
      </trkpt>
      <trkpt lat="47.02161" lon="8.94692">
        <ele>860</ele>
        <time>2021-08-02T11:22:53.768Z</time>
      </trkpt>
      <trkpt lat="47.02161" lon="8.94691">
        <ele>859</ele>
        <time>2021-08-02T11:22:54.769Z</time>
      </trkpt>
      <trkpt lat="47.0216" lon="8.9469">
        <ele>859</ele>
        <time>2021-08-02T11:22:55.768Z</time>
      </trkpt>
      <trkpt lat="47.02161" lon="8.94688">
        <ele>859</ele>
        <time>2021-08-02T11:22:56.768Z</time>
      </trkpt>
      <trkpt lat="47.02161" lon="8.94687">
        <ele>859</ele>
        <time>2021-08-02T11:22:57.768Z</time>
      </trkpt>
      <trkpt lat="47.0216" lon="8.94686">
        <ele>859</ele>
        <time>2021-08-02T11:22:58.768Z</time>
      </trkpt>
      <trkpt lat="47.0216" lon="8.94684">
        <ele>859</ele>
        <time>2021-08-02T11:22:59.769Z</time>
      </trkpt>
      <trkpt lat="47.02159" lon="8.94682">
        <ele>860</ele>
        <time>2021-08-02T11:23:00.768Z</time>
      </trkpt>
      <trkpt lat="47.02159" lon="8.9468">
        <ele>860</ele>
        <time>2021-08-02T11:23:01.768Z</time>
      </trkpt>
      <trkpt lat="47.02158" lon="8.94679">
        <ele>860</ele>
        <time>2021-08-02T11:23:02.768Z</time>
      </trkpt>
      <trkpt lat="47.02158" lon="8.94677">
        <ele>860</ele>
        <time>2021-08-02T11:23:03.768Z</time>
      </trkpt>
      <trkpt lat="47.02158" lon="8.94675">
        <ele>860</ele>
        <time>2021-08-02T11:23:04.768Z</time>
      </trkpt>
      <trkpt lat="47.02158" lon="8.94674">
        <ele>860</ele>
        <time>2021-08-02T11:23:05.769Z</time>
      </trkpt>
      <trkpt lat="47.02158" lon="8.94672">
        <ele>860</ele>
        <time>2021-08-02T11:23:06.768Z</time>
      </trkpt>
      <trkpt lat="47.02158" lon="8.94671">
        <ele>860</ele>
        <time>2021-08-02T11:23:07.768Z</time>
      </trkpt>
      <trkpt lat="47.02157" lon="8.94669">
        <ele>860</ele>
        <time>2021-08-02T11:23:08.769Z</time>
      </trkpt>
      <trkpt lat="47.02157" lon="8.94667">
        <ele>861</ele>
        <time>2021-08-02T11:23:09.768Z</time>
      </trkpt>
      <trkpt lat="47.02156" lon="8.94665">
        <ele>861</ele>
        <time>2021-08-02T11:23:10.768Z</time>
      </trkpt>
      <trkpt lat="47.02156" lon="8.94663">
        <ele>861</ele>
        <time>2021-08-02T11:23:11.768Z</time>
      </trkpt>
      <trkpt lat="47.02156" lon="8.94662">
        <ele>862</ele>
        <time>2021-08-02T11:23:12.768Z</time>
      </trkpt>
      <trkpt lat="47.02156" lon="8.94661">
        <ele>862</ele>
        <time>2021-08-02T11:23:13.768Z</time>
      </trkpt>
      <trkpt lat="47.02156" lon="8.94659">
        <ele>863</ele>
        <time>2021-08-02T11:23:14.768Z</time>
      </trkpt>
      <trkpt lat="47.02156" lon="8.94657">
        <ele>864</ele>
        <time>2021-08-02T11:23:15.768Z</time>
      </trkpt>
      <trkpt lat="47.02155" lon="8.94656">
        <ele>864</ele>
        <time>2021-08-02T11:23:16.768Z</time>
      </trkpt>
      <trkpt lat="47.02154" lon="8.94655">
        <ele>865</ele>
        <time>2021-08-02T11:23:17.768Z</time>
      </trkpt>
      <trkpt lat="47.02154" lon="8.94654">
        <ele>865</ele>
        <time>2021-08-02T11:23:18.769Z</time>
      </trkpt>
      <trkpt lat="47.02153" lon="8.94652">
        <ele>865</ele>
        <time>2021-08-02T11:23:19.768Z</time>
      </trkpt>
      <trkpt lat="47.02152" lon="8.94651">
        <ele>865</ele>
        <time>2021-08-02T11:23:20.768Z</time>
      </trkpt>
      <trkpt lat="47.02151" lon="8.94651">
        <ele>866</ele>
        <time>2021-08-02T11:23:21.768Z</time>
      </trkpt>
      <trkpt lat="47.02151" lon="8.9465">
        <ele>866</ele>
        <time>2021-08-02T11:23:22.769Z</time>
      </trkpt>
      <trkpt lat="47.02149" lon="8.94648">
        <ele>866</ele>
        <time>2021-08-02T11:23:23.769Z</time>
      </trkpt>
      <trkpt lat="47.02148" lon="8.94646">
        <ele>866</ele>
        <time>2021-08-02T11:23:24.768Z</time>
      </trkpt>
      <trkpt lat="47.02147" lon="8.94645">
        <ele>866</ele>
        <time>2021-08-02T11:23:25.768Z</time>
      </trkpt>
      <trkpt lat="47.02145" lon="8.94643">
        <ele>866</ele>
        <time>2021-08-02T11:23:26.768Z</time>
      </trkpt>
      <trkpt lat="47.02144" lon="8.94641">
        <ele>866</ele>
        <time>2021-08-02T11:23:27.768Z</time>
      </trkpt>
      <trkpt lat="47.02141" lon="8.9464">
        <ele>866</ele>
        <time>2021-08-02T11:23:28.769Z</time>
      </trkpt>
      <trkpt lat="47.02139" lon="8.94639">
        <ele>866</ele>
        <time>2021-08-02T11:23:29.768Z</time>
      </trkpt>
      <trkpt lat="47.02138" lon="8.94639">
        <ele>866</ele>
        <time>2021-08-02T11:23:30.769Z</time>
      </trkpt>
      <trkpt lat="47.02138" lon="8.94639">
        <ele>866</ele>
        <time>2021-08-02T11:23:31.768Z</time>
      </trkpt>
      <trkpt lat="47.02136" lon="8.94638">
        <ele>866</ele>
        <time>2021-08-02T11:23:32.768Z</time>
      </trkpt>
      <trkpt lat="47.02135" lon="8.94636">
        <ele>866</ele>
        <time>2021-08-02T11:23:33.768Z</time>
      </trkpt>
      <trkpt lat="47.02134" lon="8.94635">
        <ele>866</ele>
        <time>2021-08-02T11:23:34.768Z</time>
      </trkpt>
      <trkpt lat="47.02133" lon="8.94634">
        <ele>866</ele>
        <time>2021-08-02T11:23:35.768Z</time>
      </trkpt>
      <trkpt lat="47.02133" lon="8.94633">
        <ele>866</ele>
        <time>2021-08-02T11:23:36.768Z</time>
      </trkpt>
      <trkpt lat="47.02132" lon="8.94633">
        <ele>866</ele>
        <time>2021-08-02T11:23:37.768Z</time>
      </trkpt>
      <trkpt lat="47.02132" lon="8.94633">
        <ele>865</ele>
        <time>2021-08-02T11:23:38.769Z</time>
      </trkpt>
      <trkpt lat="47.02131" lon="8.94633">
        <ele>865</ele>
        <time>2021-08-02T11:23:39.769Z</time>
      </trkpt>
      <trkpt lat="47.0213" lon="8.94632">
        <ele>865</ele>
        <time>2021-08-02T11:23:40.769Z</time>
      </trkpt>
      <trkpt lat="47.02128" lon="8.9463">
        <ele>864</ele>
        <time>2021-08-02T11:23:41.768Z</time>
      </trkpt>
      <trkpt lat="47.02127" lon="8.94628">
        <ele>864</ele>
        <time>2021-08-02T11:23:42.769Z</time>
      </trkpt>
      <trkpt lat="47.02126" lon="8.94625">
        <ele>864</ele>
        <time>2021-08-02T11:23:43.768Z</time>
      </trkpt>
      <trkpt lat="47.02126" lon="8.94623">
        <ele>863</ele>
        <time>2021-08-02T11:23:44.768Z</time>
      </trkpt>
      <trkpt lat="47.02126" lon="8.94621">
        <ele>863</ele>
        <time>2021-08-02T11:23:45.769Z</time>
      </trkpt>
      <trkpt lat="47.02124" lon="8.9462">
        <ele>863</ele>
        <time>2021-08-02T11:23:46.768Z</time>
      </trkpt>
      <trkpt lat="47.02122" lon="8.94619">
        <ele>862</ele>
        <time>2021-08-02T11:23:47.769Z</time>
      </trkpt>
      <trkpt lat="47.0212" lon="8.9462">
        <ele>862</ele>
        <time>2021-08-02T11:23:48.769Z</time>
      </trkpt>
      <trkpt lat="47.02118" lon="8.9462">
        <ele>862</ele>
        <time>2021-08-02T11:23:49.769Z</time>
      </trkpt>
      <trkpt lat="47.02117" lon="8.94619">
        <ele>861</ele>
        <time>2021-08-02T11:23:50.769Z</time>
      </trkpt>
      <trkpt lat="47.02117" lon="8.94619">
        <ele>861</ele>
        <time>2021-08-02T11:23:51.769Z</time>
      </trkpt>
      <trkpt lat="47.02116" lon="8.94619">
        <ele>860</ele>
        <time>2021-08-02T11:23:52.769Z</time>
      </trkpt>
      <trkpt lat="47.02116" lon="8.94619">
        <ele>860</ele>
        <time>2021-08-02T11:23:53.768Z</time>
      </trkpt>
      <trkpt lat="47.02115" lon="8.94618">
        <ele>859</ele>
        <time>2021-08-02T11:23:54.768Z</time>
      </trkpt>
      <trkpt lat="47.02114" lon="8.94617">
        <ele>859</ele>
        <time>2021-08-02T11:23:55.768Z</time>
      </trkpt>
      <trkpt lat="47.02114" lon="8.94617">
        <ele>859</ele>
        <time>2021-08-02T11:23:56.768Z</time>
      </trkpt>
      <trkpt lat="47.02113" lon="8.94615">
        <ele>859</ele>
        <time>2021-08-02T11:23:57.768Z</time>
      </trkpt>
      <trkpt lat="47.02112" lon="8.94614">
        <ele>859</ele>
        <time>2021-08-02T11:23:58.768Z</time>
      </trkpt>
      <trkpt lat="47.02111" lon="8.94613">
        <ele>859</ele>
        <time>2021-08-02T11:23:59.768Z</time>
      </trkpt>
      <trkpt lat="47.0211" lon="8.94611">
        <ele>859</ele>
        <time>2021-08-02T11:24:00.769Z</time>
      </trkpt>
      <trkpt lat="47.0211" lon="8.94609">
        <ele>858</ele>
        <time>2021-08-02T11:24:01.769Z</time>
      </trkpt>
      <trkpt lat="47.02109" lon="8.94608">
        <ele>858</ele>
        <time>2021-08-02T11:24:02.769Z</time>
      </trkpt>
      <trkpt lat="47.02108" lon="8.94606">
        <ele>858</ele>
        <time>2021-08-02T11:24:03.768Z</time>
      </trkpt>
      <trkpt lat="47.02108" lon="8.94604">
        <ele>858</ele>
        <time>2021-08-02T11:24:04.768Z</time>
      </trkpt>
      <trkpt lat="47.02107" lon="8.94602">
        <ele>858</ele>
        <time>2021-08-02T11:24:05.769Z</time>
      </trkpt>
      <trkpt lat="47.02105" lon="8.946">
        <ele>858</ele>
        <time>2021-08-02T11:24:06.768Z</time>
      </trkpt>
      <trkpt lat="47.02104" lon="8.94598">
        <ele>858</ele>
        <time>2021-08-02T11:24:07.769Z</time>
      </trkpt>
      <trkpt lat="47.02103" lon="8.94596">
        <ele>858</ele>
        <time>2021-08-02T11:24:08.768Z</time>
      </trkpt>
      <trkpt lat="47.02102" lon="8.94594">
        <ele>858</ele>
        <time>2021-08-02T11:24:09.769Z</time>
      </trkpt>
      <trkpt lat="47.02103" lon="8.94593">
        <ele>858</ele>
        <time>2021-08-02T11:24:10.768Z</time>
      </trkpt>
      <trkpt lat="47.02101" lon="8.94591">
        <ele>858</ele>
        <time>2021-08-02T11:24:13.882Z</time>
      </trkpt>
      <trkpt lat="47.021" lon="8.94589">
        <ele>858</ele>
        <time>2021-08-02T11:24:14.882Z</time>
      </trkpt>
      <trkpt lat="47.02099" lon="8.94586">
        <ele>858</ele>
        <time>2021-08-02T11:24:15.883Z</time>
      </trkpt>
      <trkpt lat="47.02098" lon="8.94584">
        <ele>858</ele>
        <time>2021-08-02T11:24:16.882Z</time>
      </trkpt>
      <trkpt lat="47.02097" lon="8.94582">
        <ele>858</ele>
        <time>2021-08-02T11:24:30.043Z</time>
      </trkpt>
      <trkpt lat="47.02096" lon="8.9458">
        <ele>858</ele>
        <time>2021-08-02T11:24:31.042Z</time>
      </trkpt>
      <trkpt lat="47.02096" lon="8.94579">
        <ele>858</ele>
        <time>2021-08-02T11:24:32.042Z</time>
      </trkpt>
      <trkpt lat="47.02096" lon="8.94577">
        <ele>859</ele>
        <time>2021-08-02T11:24:33.043Z</time>
      </trkpt>
      <trkpt lat="47.02096" lon="8.94575">
        <ele>859</ele>
        <time>2021-08-02T11:24:34.043Z</time>
      </trkpt>
      <trkpt lat="47.02096" lon="8.94573">
        <ele>859</ele>
        <time>2021-08-02T11:24:35.043Z</time>
      </trkpt>
      <trkpt lat="47.02095" lon="8.94571">
        <ele>859</ele>
        <time>2021-08-02T11:24:36.042Z</time>
      </trkpt>
      <trkpt lat="47.02094" lon="8.9457">
        <ele>859</ele>
        <time>2021-08-02T11:24:37.042Z</time>
      </trkpt>
      <trkpt lat="47.02094" lon="8.94568">
        <ele>859</ele>
        <time>2021-08-02T11:25:09.145Z</time>
      </trkpt>
      <trkpt lat="47.02093" lon="8.94566">
        <ele>859</ele>
        <time>2021-08-02T11:25:10.145Z</time>
      </trkpt>
      <trkpt lat="47.02093" lon="8.94565">
        <ele>858</ele>
        <time>2021-08-02T11:25:11.146Z</time>
      </trkpt>
      <trkpt lat="47.02092" lon="8.94563">
        <ele>858</ele>
        <time>2021-08-02T11:25:17.268Z</time>
      </trkpt>
      <trkpt lat="47.02093" lon="8.94561">
        <ele>858</ele>
        <time>2021-08-02T11:25:18.267Z</time>
      </trkpt>
      <trkpt lat="47.02094" lon="8.94559">
        <ele>857</ele>
        <time>2021-08-02T11:25:20.135Z</time>
      </trkpt>
      <trkpt lat="47.02095" lon="8.94558">
        <ele>857</ele>
        <time>2021-08-02T11:25:21.136Z</time>
      </trkpt>
      <trkpt lat="47.02096" lon="8.94556">
        <ele>857</ele>
        <time>2021-08-02T11:25:22.136Z</time>
      </trkpt>
      <trkpt lat="47.02097" lon="8.94554">
        <ele>856</ele>
        <time>2021-08-02T11:25:23.135Z</time>
      </trkpt>
      <trkpt lat="47.02095" lon="8.94552">
        <ele>856</ele>
        <time>2021-08-02T11:25:24.135Z</time>
      </trkpt>
      <trkpt lat="47.02094" lon="8.94551">
        <ele>856</ele>
        <time>2021-08-02T11:25:25.135Z</time>
      </trkpt>
      <trkpt lat="47.02095" lon="8.94549">
        <ele>855</ele>
        <time>2021-08-02T11:25:29.285Z</time>
      </trkpt>
      <trkpt lat="47.02097" lon="8.94546">
        <ele>855</ele>
        <time>2021-08-02T11:25:30.285Z</time>
      </trkpt>
      <trkpt lat="47.02098" lon="8.94543">
        <ele>855</ele>
        <time>2021-08-02T11:25:31.285Z</time>
      </trkpt>
      <trkpt lat="47.021" lon="8.94542">
        <ele>855</ele>
        <time>2021-08-02T11:25:32.286Z</time>
      </trkpt>
      <trkpt lat="47.021" lon="8.9454">
        <ele>855</ele>
        <time>2021-08-02T11:25:33.286Z</time>
      </trkpt>
      <trkpt lat="47.02101" lon="8.94539">
        <ele>855</ele>
        <time>2021-08-02T11:25:34.286Z</time>
      </trkpt>
      <trkpt lat="47.02101" lon="8.94538">
        <ele>855</ele>
        <time>2021-08-02T11:25:35.285Z</time>
      </trkpt>
      <trkpt lat="47.02101" lon="8.94537">
        <ele>856</ele>
        <time>2021-08-02T11:25:36.285Z</time>
      </trkpt>
      <trkpt lat="47.02102" lon="8.94535">
        <ele>856</ele>
        <time>2021-08-02T11:25:37.285Z</time>
      </trkpt>
      <trkpt lat="47.02103" lon="8.94534">
        <ele>856</ele>
        <time>2021-08-02T11:25:38.286Z</time>
      </trkpt>
      <trkpt lat="47.02104" lon="8.94533">
        <ele>856</ele>
        <time>2021-08-02T11:25:39.285Z</time>
      </trkpt>
      <trkpt lat="47.02104" lon="8.94531">
        <ele>856</ele>
        <time>2021-08-02T11:25:40.285Z</time>
      </trkpt>
      <trkpt lat="47.02105" lon="8.9453">
        <ele>856</ele>
        <time>2021-08-02T11:25:41.285Z</time>
      </trkpt>
      <trkpt lat="47.02105" lon="8.94528">
        <ele>856</ele>
        <time>2021-08-02T11:25:42.286Z</time>
      </trkpt>
      <trkpt lat="47.02106" lon="8.94526">
        <ele>855</ele>
        <time>2021-08-02T11:25:43.285Z</time>
      </trkpt>
      <trkpt lat="47.02106" lon="8.94524">
        <ele>855</ele>
        <time>2021-08-02T11:25:44.286Z</time>
      </trkpt>
      <trkpt lat="47.02108" lon="8.94522">
        <ele>854</ele>
        <time>2021-08-02T11:25:45.285Z</time>
      </trkpt>
      <trkpt lat="47.0211" lon="8.9452">
        <ele>854</ele>
        <time>2021-08-02T11:25:46.285Z</time>
      </trkpt>
      <trkpt lat="47.02111" lon="8.94519">
        <ele>853</ele>
        <time>2021-08-02T11:25:47.285Z</time>
      </trkpt>
      <trkpt lat="47.02114" lon="8.94517">
        <ele>853</ele>
        <time>2021-08-02T11:25:48.286Z</time>
      </trkpt>
      <trkpt lat="47.02116" lon="8.94515">
        <ele>852</ele>
        <time>2021-08-02T11:25:49.285Z</time>
      </trkpt>
      <trkpt lat="47.02117" lon="8.94512">
        <ele>852</ele>
        <time>2021-08-02T11:25:50.285Z</time>
      </trkpt>
      <trkpt lat="47.02119" lon="8.9451">
        <ele>852</ele>
        <time>2021-08-02T11:25:51.285Z</time>
      </trkpt>
      <trkpt lat="47.02121" lon="8.94508">
        <ele>852</ele>
        <time>2021-08-02T11:25:52.286Z</time>
      </trkpt>
      <trkpt lat="47.02122" lon="8.94506">
        <ele>852</ele>
        <time>2021-08-02T11:25:53.285Z</time>
      </trkpt>
      <trkpt lat="47.02123" lon="8.94505">
        <ele>852</ele>
        <time>2021-08-02T11:25:54.285Z</time>
      </trkpt>
      <trkpt lat="47.02123" lon="8.94504">
        <ele>852</ele>
        <time>2021-08-02T11:25:55.286Z</time>
      </trkpt>
      <trkpt lat="47.02124" lon="8.94503">
        <ele>852</ele>
        <time>2021-08-02T11:25:56.285Z</time>
      </trkpt>
      <trkpt lat="47.02125" lon="8.94501">
        <ele>852</ele>
        <time>2021-08-02T11:25:57.286Z</time>
      </trkpt>
      <trkpt lat="47.02127" lon="8.945">
        <ele>851</ele>
        <time>2021-08-02T11:25:58.286Z</time>
      </trkpt>
      <trkpt lat="47.02128" lon="8.94499">
        <ele>851</ele>
        <time>2021-08-02T11:25:59.285Z</time>
      </trkpt>
      <trkpt lat="47.02129" lon="8.94498">
        <ele>851</ele>
        <time>2021-08-02T11:26:00.285Z</time>
      </trkpt>
      <trkpt lat="47.02129" lon="8.94496">
        <ele>850</ele>
        <time>2021-08-02T11:26:01.286Z</time>
      </trkpt>
      <trkpt lat="47.0213" lon="8.94495">
        <ele>850</ele>
        <time>2021-08-02T11:26:02.285Z</time>
      </trkpt>
      <trkpt lat="47.0213" lon="8.94493">
        <ele>850</ele>
        <time>2021-08-02T11:26:03.286Z</time>
      </trkpt>
      <trkpt lat="47.02132" lon="8.94492">
        <ele>849</ele>
        <time>2021-08-02T11:26:04.285Z</time>
      </trkpt>
      <trkpt lat="47.02133" lon="8.9449">
        <ele>849</ele>
        <time>2021-08-02T11:26:05.285Z</time>
      </trkpt>
      <trkpt lat="47.02134" lon="8.94488">
        <ele>849</ele>
        <time>2021-08-02T11:26:06.286Z</time>
      </trkpt>
      <trkpt lat="47.02136" lon="8.94487">
        <ele>849</ele>
        <time>2021-08-02T11:26:07.286Z</time>
      </trkpt>
      <trkpt lat="47.02137" lon="8.94485">
        <ele>849</ele>
        <time>2021-08-02T11:26:08.285Z</time>
      </trkpt>
      <trkpt lat="47.02137" lon="8.94483">
        <ele>849</ele>
        <time>2021-08-02T11:26:09.285Z</time>
      </trkpt>
      <trkpt lat="47.02137" lon="8.94482">
        <ele>849</ele>
        <time>2021-08-02T11:26:10.286Z</time>
      </trkpt>
      <trkpt lat="47.02138" lon="8.9448">
        <ele>848</ele>
        <time>2021-08-02T11:26:11.285Z</time>
      </trkpt>
      <trkpt lat="47.0214" lon="8.94479">
        <ele>848</ele>
        <time>2021-08-02T11:26:12.286Z</time>
      </trkpt>
      <trkpt lat="47.02142" lon="8.94477">
        <ele>849</ele>
        <time>2021-08-02T11:26:13.285Z</time>
      </trkpt>
      <trkpt lat="47.02144" lon="8.94475">
        <ele>849</ele>
        <time>2021-08-02T11:26:14.285Z</time>
      </trkpt>
      <trkpt lat="47.02146" lon="8.94474">
        <ele>850</ele>
        <time>2021-08-02T11:26:15.285Z</time>
      </trkpt>
      <trkpt lat="47.02148" lon="8.94472">
        <ele>851</ele>
        <time>2021-08-02T11:26:16.285Z</time>
      </trkpt>
      <trkpt lat="47.02149" lon="8.94471">
        <ele>852</ele>
        <time>2021-08-02T11:26:17.285Z</time>
      </trkpt>
      <trkpt lat="47.0215" lon="8.94469">
        <ele>852</ele>
        <time>2021-08-02T11:26:18.285Z</time>
      </trkpt>
      <trkpt lat="47.02152" lon="8.94468">
        <ele>853</ele>
        <time>2021-08-02T11:26:19.285Z</time>
      </trkpt>
      <trkpt lat="47.02153" lon="8.94466">
        <ele>854</ele>
        <time>2021-08-02T11:26:20.285Z</time>
      </trkpt>
      <trkpt lat="47.02154" lon="8.94464">
        <ele>854</ele>
        <time>2021-08-02T11:26:21.285Z</time>
      </trkpt>
      <trkpt lat="47.02153" lon="8.94463">
        <ele>855</ele>
        <time>2021-08-02T11:26:22.286Z</time>
      </trkpt>
      <trkpt lat="47.02153" lon="8.94461">
        <ele>855</ele>
        <time>2021-08-02T11:26:23.285Z</time>
      </trkpt>
      <trkpt lat="47.02154" lon="8.94459">
        <ele>855</ele>
        <time>2021-08-02T11:26:24.285Z</time>
      </trkpt>
      <trkpt lat="47.02154" lon="8.94458">
        <ele>856</ele>
        <time>2021-08-02T11:26:25.285Z</time>
      </trkpt>
      <trkpt lat="47.02154" lon="8.94456">
        <ele>857</ele>
        <time>2021-08-02T11:26:26.285Z</time>
      </trkpt>
      <trkpt lat="47.02155" lon="8.94454">
        <ele>857</ele>
        <time>2021-08-02T11:26:27.285Z</time>
      </trkpt>
      <trkpt lat="47.02156" lon="8.94452">
        <ele>857</ele>
        <time>2021-08-02T11:26:28.285Z</time>
      </trkpt>
      <trkpt lat="47.02158" lon="8.9445">
        <ele>857</ele>
        <time>2021-08-02T11:26:29.285Z</time>
      </trkpt>
      <trkpt lat="47.02159" lon="8.94448">
        <ele>857</ele>
        <time>2021-08-02T11:26:30.285Z</time>
      </trkpt>
      <trkpt lat="47.0216" lon="8.94445">
        <ele>857</ele>
        <time>2021-08-02T11:26:31.285Z</time>
      </trkpt>
      <trkpt lat="47.0216" lon="8.94443">
        <ele>858</ele>
        <time>2021-08-02T11:26:32.285Z</time>
      </trkpt>
      <trkpt lat="47.02161" lon="8.9444">
        <ele>858</ele>
        <time>2021-08-02T11:26:33.286Z</time>
      </trkpt>
      <trkpt lat="47.02163" lon="8.94439">
        <ele>858</ele>
        <time>2021-08-02T11:26:34.285Z</time>
      </trkpt>
      <trkpt lat="47.02163" lon="8.94438">
        <ele>858</ele>
        <time>2021-08-02T11:26:35.286Z</time>
      </trkpt>
      <trkpt lat="47.02164" lon="8.94437">
        <ele>858</ele>
        <time>2021-08-02T11:26:36.285Z</time>
      </trkpt>
      <trkpt lat="47.02164" lon="8.94435">
        <ele>858</ele>
        <time>2021-08-02T11:26:37.285Z</time>
      </trkpt>
      <trkpt lat="47.02164" lon="8.94434">
        <ele>858</ele>
        <time>2021-08-02T11:26:38.285Z</time>
      </trkpt>
      <trkpt lat="47.02164" lon="8.94432">
        <ele>858</ele>
        <time>2021-08-02T11:26:39.286Z</time>
      </trkpt>
      <trkpt lat="47.02165" lon="8.94431">
        <ele>859</ele>
        <time>2021-08-02T11:26:40.285Z</time>
      </trkpt>
      <trkpt lat="47.02164" lon="8.94429">
        <ele>859</ele>
        <time>2021-08-02T11:26:41.285Z</time>
      </trkpt>
      <trkpt lat="47.02164" lon="8.94428">
        <ele>859</ele>
        <time>2021-08-02T11:26:42.285Z</time>
      </trkpt>
      <trkpt lat="47.02163" lon="8.94426">
        <ele>858</ele>
        <time>2021-08-02T11:26:43.286Z</time>
      </trkpt>
      <trkpt lat="47.02163" lon="8.94423">
        <ele>858</ele>
        <time>2021-08-02T11:26:44.286Z</time>
      </trkpt>
      <trkpt lat="47.02164" lon="8.94421">
        <ele>857</ele>
        <time>2021-08-02T11:26:45.285Z</time>
      </trkpt>
      <trkpt lat="47.02164" lon="8.94418">
        <ele>857</ele>
        <time>2021-08-02T11:26:46.285Z</time>
      </trkpt>
      <trkpt lat="47.02164" lon="8.94416">
        <ele>857</ele>
        <time>2021-08-02T11:26:47.286Z</time>
      </trkpt>
      <trkpt lat="47.02165" lon="8.94415">
        <ele>856</ele>
        <time>2021-08-02T11:26:48.285Z</time>
      </trkpt>
      <trkpt lat="47.02165" lon="8.94413">
        <ele>856</ele>
        <time>2021-08-02T11:26:49.285Z</time>
      </trkpt>
      <trkpt lat="47.02166" lon="8.94411">
        <ele>856</ele>
        <time>2021-08-02T11:26:50.285Z</time>
      </trkpt>
      <trkpt lat="47.02165" lon="8.94409">
        <ele>856</ele>
        <time>2021-08-02T11:26:51.285Z</time>
      </trkpt>
      <trkpt lat="47.02164" lon="8.94407">
        <ele>856</ele>
        <time>2021-08-02T11:26:52.285Z</time>
      </trkpt>
      <trkpt lat="47.02164" lon="8.94405">
        <ele>856</ele>
        <time>2021-08-02T11:26:53.286Z</time>
      </trkpt>
      <trkpt lat="47.02164" lon="8.94403">
        <ele>856</ele>
        <time>2021-08-02T11:26:54.285Z</time>
      </trkpt>
      <trkpt lat="47.02164" lon="8.94401">
        <ele>856</ele>
        <time>2021-08-02T11:26:55.286Z</time>
      </trkpt>
      <trkpt lat="47.02164" lon="8.944">
        <ele>856</ele>
        <time>2021-08-02T11:26:56.285Z</time>
      </trkpt>
      <trkpt lat="47.02164" lon="8.94398">
        <ele>856</ele>
        <time>2021-08-02T11:26:57.286Z</time>
      </trkpt>
      <trkpt lat="47.02164" lon="8.94397">
        <ele>856</ele>
        <time>2021-08-02T11:26:58.285Z</time>
      </trkpt>
      <trkpt lat="47.02164" lon="8.94395">
        <ele>857</ele>
        <time>2021-08-02T11:26:59.285Z</time>
      </trkpt>
      <trkpt lat="47.02164" lon="8.94394">
        <ele>857</ele>
        <time>2021-08-02T11:27:00.285Z</time>
      </trkpt>
      <trkpt lat="47.02164" lon="8.94392">
        <ele>857</ele>
        <time>2021-08-02T11:27:01.285Z</time>
      </trkpt>
      <trkpt lat="47.02165" lon="8.94391">
        <ele>857</ele>
        <time>2021-08-02T11:27:02.285Z</time>
      </trkpt>
      <trkpt lat="47.02165" lon="8.94389">
        <ele>857</ele>
        <time>2021-08-02T11:27:03.286Z</time>
      </trkpt>
      <trkpt lat="47.02166" lon="8.94388">
        <ele>857</ele>
        <time>2021-08-02T11:27:04.285Z</time>
      </trkpt>
      <trkpt lat="47.02166" lon="8.94387">
        <ele>857</ele>
        <time>2021-08-02T11:27:05.286Z</time>
      </trkpt>
      <trkpt lat="47.02165" lon="8.94387">
        <ele>857</ele>
        <time>2021-08-02T11:27:06.285Z</time>
      </trkpt>
      <trkpt lat="47.02165" lon="8.94386">
        <ele>857</ele>
        <time>2021-08-02T11:27:07.286Z</time>
      </trkpt>
      <trkpt lat="47.02165" lon="8.94385">
        <ele>856</ele>
        <time>2021-08-02T11:27:08.286Z</time>
      </trkpt>
      <trkpt lat="47.02165" lon="8.94384">
        <ele>856</ele>
        <time>2021-08-02T11:27:09.285Z</time>
      </trkpt>
      <trkpt lat="47.02165" lon="8.94381">
        <ele>856</ele>
        <time>2021-08-02T11:27:10.285Z</time>
      </trkpt>
      <trkpt lat="47.02166" lon="8.9438">
        <ele>856</ele>
        <time>2021-08-02T11:27:11.285Z</time>
      </trkpt>
      <trkpt lat="47.02167" lon="8.94379">
        <ele>856</ele>
        <time>2021-08-02T11:27:12.285Z</time>
      </trkpt>
      <trkpt lat="47.02167" lon="8.94377">
        <ele>855</ele>
        <time>2021-08-02T11:27:13.285Z</time>
      </trkpt>
      <trkpt lat="47.02167" lon="8.94375">
        <ele>855</ele>
        <time>2021-08-02T11:27:14.285Z</time>
      </trkpt>
      <trkpt lat="47.02167" lon="8.94373">
        <ele>855</ele>
        <time>2021-08-02T11:27:15.285Z</time>
      </trkpt>
      <trkpt lat="47.02168" lon="8.94371">
        <ele>855</ele>
        <time>2021-08-02T11:27:16.286Z</time>
      </trkpt>
      <trkpt lat="47.02167" lon="8.94369">
        <ele>855</ele>
        <time>2021-08-02T11:27:17.285Z</time>
      </trkpt>
      <trkpt lat="47.02168" lon="8.94367">
        <ele>855</ele>
        <time>2021-08-02T11:27:18.286Z</time>
      </trkpt>
      <trkpt lat="47.02169" lon="8.94366">
        <ele>855</ele>
        <time>2021-08-02T11:27:19.285Z</time>
      </trkpt>
      <trkpt lat="47.0217" lon="8.94364">
        <ele>855</ele>
        <time>2021-08-02T11:27:20.286Z</time>
      </trkpt>
      <trkpt lat="47.0217" lon="8.94363">
        <ele>855</ele>
        <time>2021-08-02T11:27:21.285Z</time>
      </trkpt>
      <trkpt lat="47.0217" lon="8.94362">
        <ele>855</ele>
        <time>2021-08-02T11:27:22.285Z</time>
      </trkpt>
      <trkpt lat="47.0217" lon="8.9436">
        <ele>855</ele>
        <time>2021-08-02T11:27:23.285Z</time>
      </trkpt>
      <trkpt lat="47.0217" lon="8.94359">
        <ele>855</ele>
        <time>2021-08-02T11:27:24.285Z</time>
      </trkpt>
      <trkpt lat="47.02171" lon="8.94358">
        <ele>855</ele>
        <time>2021-08-02T11:27:25.286Z</time>
      </trkpt>
      <trkpt lat="47.02171" lon="8.94356">
        <ele>854</ele>
        <time>2021-08-02T11:27:26.285Z</time>
      </trkpt>
      <trkpt lat="47.0217" lon="8.94354">
        <ele>854</ele>
        <time>2021-08-02T11:27:27.286Z</time>
      </trkpt>
      <trkpt lat="47.0217" lon="8.94353">
        <ele>854</ele>
        <time>2021-08-02T11:27:28.286Z</time>
      </trkpt>
      <trkpt lat="47.0217" lon="8.94351">
        <ele>854</ele>
        <time>2021-08-02T11:27:29.285Z</time>
      </trkpt>
      <trkpt lat="47.0217" lon="8.94349">
        <ele>854</ele>
        <time>2021-08-02T11:27:30.285Z</time>
      </trkpt>
      <trkpt lat="47.0217" lon="8.94348">
        <ele>854</ele>
        <time>2021-08-02T11:27:31.285Z</time>
      </trkpt>
      <trkpt lat="47.0217" lon="8.94346">
        <ele>854</ele>
        <time>2021-08-02T11:27:32.285Z</time>
      </trkpt>
      <trkpt lat="47.0217" lon="8.94345">
        <ele>854</ele>
        <time>2021-08-02T11:27:33.285Z</time>
      </trkpt>
      <trkpt lat="47.0217" lon="8.94344">
        <ele>855</ele>
        <time>2021-08-02T11:27:34.286Z</time>
      </trkpt>
      <trkpt lat="47.0217" lon="8.94343">
        <ele>856</ele>
        <time>2021-08-02T11:27:35.286Z</time>
      </trkpt>
      <trkpt lat="47.0217" lon="8.94343">
        <ele>856</ele>
        <time>2021-08-02T11:27:36.285Z</time>
      </trkpt>
      <trkpt lat="47.0217" lon="8.94342">
        <ele>857</ele>
        <time>2021-08-02T11:27:37.285Z</time>
      </trkpt>
      <trkpt lat="47.0217" lon="8.94341">
        <ele>857</ele>
        <time>2021-08-02T11:27:38.285Z</time>
      </trkpt>
      <trkpt lat="47.02171" lon="8.94339">
        <ele>858</ele>
        <time>2021-08-02T11:27:39.285Z</time>
      </trkpt>
      <trkpt lat="47.02171" lon="8.94337">
        <ele>859</ele>
        <time>2021-08-02T11:27:40.285Z</time>
      </trkpt>
      <trkpt lat="47.0217" lon="8.94335">
        <ele>859</ele>
        <time>2021-08-02T11:27:41.285Z</time>
      </trkpt>
      <trkpt lat="47.02169" lon="8.94333">
        <ele>860</ele>
        <time>2021-08-02T11:27:42.285Z</time>
      </trkpt>
      <trkpt lat="47.02168" lon="8.94331">
        <ele>860</ele>
        <time>2021-08-02T11:27:43.286Z</time>
      </trkpt>
      <trkpt lat="47.02167" lon="8.94329">
        <ele>860</ele>
        <time>2021-08-02T11:27:44.285Z</time>
      </trkpt>
      <trkpt lat="47.02167" lon="8.94327">
        <ele>861</ele>
        <time>2021-08-02T11:27:45.285Z</time>
      </trkpt>
      <trkpt lat="47.02168" lon="8.94325">
        <ele>861</ele>
        <time>2021-08-02T11:27:46.285Z</time>
      </trkpt>
      <trkpt lat="47.02167" lon="8.94322">
        <ele>861</ele>
        <time>2021-08-02T11:27:47.286Z</time>
      </trkpt>
      <trkpt lat="47.02167" lon="8.9432">
        <ele>861</ele>
        <time>2021-08-02T11:27:48.285Z</time>
      </trkpt>
      <trkpt lat="47.02166" lon="8.94318">
        <ele>861</ele>
        <time>2021-08-02T11:27:49.285Z</time>
      </trkpt>
      <trkpt lat="47.02165" lon="8.94315">
        <ele>861</ele>
        <time>2021-08-02T11:27:50.285Z</time>
      </trkpt>
      <trkpt lat="47.02164" lon="8.94312">
        <ele>861</ele>
        <time>2021-08-02T11:27:51.285Z</time>
      </trkpt>
      <trkpt lat="47.02164" lon="8.9431">
        <ele>861</ele>
        <time>2021-08-02T11:27:52.286Z</time>
      </trkpt>
      <trkpt lat="47.02164" lon="8.94308">
        <ele>861</ele>
        <time>2021-08-02T11:27:53.285Z</time>
      </trkpt>
      <trkpt lat="47.02164" lon="8.94306">
        <ele>861</ele>
        <time>2021-08-02T11:27:54.286Z</time>
      </trkpt>
      <trkpt lat="47.02164" lon="8.94304">
        <ele>861</ele>
        <time>2021-08-02T11:27:55.285Z</time>
      </trkpt>
      <trkpt lat="47.02164" lon="8.94302">
        <ele>861</ele>
        <time>2021-08-02T11:27:56.285Z</time>
      </trkpt>
      <trkpt lat="47.02165" lon="8.94301">
        <ele>862</ele>
        <time>2021-08-02T11:27:57.285Z</time>
      </trkpt>
      <trkpt lat="47.02165" lon="8.943">
        <ele>862</ele>
        <time>2021-08-02T11:27:58.286Z</time>
      </trkpt>
      <trkpt lat="47.02166" lon="8.94298">
        <ele>862</ele>
        <time>2021-08-02T11:27:59.285Z</time>
      </trkpt>
      <trkpt lat="47.02166" lon="8.94297">
        <ele>862</ele>
        <time>2021-08-02T11:28:00.285Z</time>
      </trkpt>
      <trkpt lat="47.02166" lon="8.94295">
        <ele>862</ele>
        <time>2021-08-02T11:28:01.285Z</time>
      </trkpt>
      <trkpt lat="47.02166" lon="8.94293">
        <ele>862</ele>
        <time>2021-08-02T11:28:02.285Z</time>
      </trkpt>
      <trkpt lat="47.02166" lon="8.94292">
        <ele>862</ele>
        <time>2021-08-02T11:28:03.285Z</time>
      </trkpt>
      <trkpt lat="47.02166" lon="8.94291">
        <ele>862</ele>
        <time>2021-08-02T11:28:04.285Z</time>
      </trkpt>
      <trkpt lat="47.02165" lon="8.94288">
        <ele>861</ele>
        <time>2021-08-02T11:28:05.285Z</time>
      </trkpt>
      <trkpt lat="47.02164" lon="8.94286">
        <ele>861</ele>
        <time>2021-08-02T11:28:06.285Z</time>
      </trkpt>
      <trkpt lat="47.02164" lon="8.94284">
        <ele>861</ele>
        <time>2021-08-02T11:28:07.286Z</time>
      </trkpt>
      <trkpt lat="47.02163" lon="8.94283">
        <ele>861</ele>
        <time>2021-08-02T11:28:08.285Z</time>
      </trkpt>
      <trkpt lat="47.02163" lon="8.94282">
        <ele>861</ele>
        <time>2021-08-02T11:28:09.286Z</time>
      </trkpt>
      <trkpt lat="47.02163" lon="8.94281">
        <ele>861</ele>
        <time>2021-08-02T11:28:10.285Z</time>
      </trkpt>
      <trkpt lat="47.02163" lon="8.9428">
        <ele>861</ele>
        <time>2021-08-02T11:28:11.286Z</time>
      </trkpt>
      <trkpt lat="47.02163" lon="8.94279">
        <ele>861</ele>
        <time>2021-08-02T11:28:12.286Z</time>
      </trkpt>
      <trkpt lat="47.02162" lon="8.94278">
        <ele>861</ele>
        <time>2021-08-02T11:28:13.286Z</time>
      </trkpt>
      <trkpt lat="47.02161" lon="8.94278">
        <ele>861</ele>
        <time>2021-08-02T11:28:14.286Z</time>
      </trkpt>
      <trkpt lat="47.02161" lon="8.94276">
        <ele>861</ele>
        <time>2021-08-02T11:28:15.285Z</time>
      </trkpt>
      <trkpt lat="47.0216" lon="8.94275">
        <ele>861</ele>
        <time>2021-08-02T11:28:16.285Z</time>
      </trkpt>
      <trkpt lat="47.0216" lon="8.94274">
        <ele>861</ele>
        <time>2021-08-02T11:28:17.285Z</time>
      </trkpt>
      <trkpt lat="47.02159" lon="8.94272">
        <ele>861</ele>
        <time>2021-08-02T11:28:18.286Z</time>
      </trkpt>
      <trkpt lat="47.02159" lon="8.9427">
        <ele>861</ele>
        <time>2021-08-02T11:28:19.285Z</time>
      </trkpt>
      <trkpt lat="47.02159" lon="8.94268">
        <ele>862</ele>
        <time>2021-08-02T11:28:20.285Z</time>
      </trkpt>
      <trkpt lat="47.02159" lon="8.94266">
        <ele>862</ele>
        <time>2021-08-02T11:28:21.285Z</time>
      </trkpt>
      <trkpt lat="47.02158" lon="8.94264">
        <ele>862</ele>
        <time>2021-08-02T11:28:22.286Z</time>
      </trkpt>
      <trkpt lat="47.02158" lon="8.94262">
        <ele>862</ele>
        <time>2021-08-02T11:28:23.286Z</time>
      </trkpt>
      <trkpt lat="47.02158" lon="8.9426">
        <ele>862</ele>
        <time>2021-08-02T11:28:24.285Z</time>
      </trkpt>
      <trkpt lat="47.02157" lon="8.94257">
        <ele>862</ele>
        <time>2021-08-02T11:28:25.285Z</time>
      </trkpt>
      <trkpt lat="47.02156" lon="8.94255">
        <ele>862</ele>
        <time>2021-08-02T11:28:26.285Z</time>
      </trkpt>
      <trkpt lat="47.02155" lon="8.94254">
        <ele>862</ele>
        <time>2021-08-02T11:28:27.285Z</time>
      </trkpt>
      <trkpt lat="47.02155" lon="8.94251">
        <ele>862</ele>
        <time>2021-08-02T11:28:28.285Z</time>
      </trkpt>
      <trkpt lat="47.02154" lon="8.94249">
        <ele>863</ele>
        <time>2021-08-02T11:28:29.286Z</time>
      </trkpt>
      <trkpt lat="47.02154" lon="8.94247">
        <ele>863</ele>
        <time>2021-08-02T11:28:30.285Z</time>
      </trkpt>
      <trkpt lat="47.02153" lon="8.94245">
        <ele>864</ele>
        <time>2021-08-02T11:28:31.286Z</time>
      </trkpt>
      <trkpt lat="47.02152" lon="8.94243">
        <ele>865</ele>
        <time>2021-08-02T11:28:32.285Z</time>
      </trkpt>
      <trkpt lat="47.02152" lon="8.94241">
        <ele>865</ele>
        <time>2021-08-02T11:28:33.285Z</time>
      </trkpt>
      <trkpt lat="47.02151" lon="8.9424">
        <ele>866</ele>
        <time>2021-08-02T11:28:34.285Z</time>
      </trkpt>
      <trkpt lat="47.02151" lon="8.94239">
        <ele>866</ele>
        <time>2021-08-02T11:28:35.286Z</time>
      </trkpt>
      <trkpt lat="47.0215" lon="8.94237">
        <ele>867</ele>
        <time>2021-08-02T11:28:36.285Z</time>
      </trkpt>
      <trkpt lat="47.0215" lon="8.94235">
        <ele>867</ele>
        <time>2021-08-02T11:28:37.285Z</time>
      </trkpt>
      <trkpt lat="47.0215" lon="8.94233">
        <ele>868</ele>
        <time>2021-08-02T11:28:38.286Z</time>
      </trkpt>
      <trkpt lat="47.02151" lon="8.94231">
        <ele>868</ele>
        <time>2021-08-02T11:28:39.285Z</time>
      </trkpt>
      <trkpt lat="47.02152" lon="8.9423">
        <ele>869</ele>
        <time>2021-08-02T11:28:40.285Z</time>
      </trkpt>
      <trkpt lat="47.02152" lon="8.94228">
        <ele>869</ele>
        <time>2021-08-02T11:28:41.285Z</time>
      </trkpt>
      <trkpt lat="47.02151" lon="8.94227">
        <ele>870</ele>
        <time>2021-08-02T11:28:42.286Z</time>
      </trkpt>
      <trkpt lat="47.02151" lon="8.94226">
        <ele>870</ele>
        <time>2021-08-02T11:28:43.285Z</time>
      </trkpt>
      <trkpt lat="47.0215" lon="8.94225">
        <ele>871</ele>
        <time>2021-08-02T11:28:44.286Z</time>
      </trkpt>
      <trkpt lat="47.0215" lon="8.94224">
        <ele>871</ele>
        <time>2021-08-02T11:28:45.285Z</time>
      </trkpt>
      <trkpt lat="47.0215" lon="8.94222">
        <ele>871</ele>
        <time>2021-08-02T11:28:46.285Z</time>
      </trkpt>
      <trkpt lat="47.0215" lon="8.94221">
        <ele>872</ele>
        <time>2021-08-02T11:28:47.285Z</time>
      </trkpt>
      <trkpt lat="47.0215" lon="8.94219">
        <ele>872</ele>
        <time>2021-08-02T11:28:48.285Z</time>
      </trkpt>
      <trkpt lat="47.0215" lon="8.94218">
        <ele>872</ele>
        <time>2021-08-02T11:28:49.285Z</time>
      </trkpt>
      <trkpt lat="47.0215" lon="8.94217">
        <ele>873</ele>
        <time>2021-08-02T11:28:50.285Z</time>
      </trkpt>
      <trkpt lat="47.0215" lon="8.94215">
        <ele>873</ele>
        <time>2021-08-02T11:28:51.286Z</time>
      </trkpt>
      <trkpt lat="47.02149" lon="8.94214">
        <ele>873</ele>
        <time>2021-08-02T11:28:52.286Z</time>
      </trkpt>
      <trkpt lat="47.02149" lon="8.94213">
        <ele>874</ele>
        <time>2021-08-02T11:28:53.286Z</time>
      </trkpt>
      <trkpt lat="47.02149" lon="8.94212">
        <ele>873</ele>
        <time>2021-08-02T11:28:54.285Z</time>
      </trkpt>
      <trkpt lat="47.02148" lon="8.94211">
        <ele>873</ele>
        <time>2021-08-02T11:28:55.285Z</time>
      </trkpt>
      <trkpt lat="47.02148" lon="8.9421">
        <ele>873</ele>
        <time>2021-08-02T11:28:56.285Z</time>
      </trkpt>
      <trkpt lat="47.02148" lon="8.94209">
        <ele>874</ele>
        <time>2021-08-02T11:28:57.286Z</time>
      </trkpt>
      <trkpt lat="47.02148" lon="8.94208">
        <ele>874</ele>
        <time>2021-08-02T11:28:58.285Z</time>
      </trkpt>
      <trkpt lat="47.02147" lon="8.94207">
        <ele>874</ele>
        <time>2021-08-02T11:28:59.285Z</time>
      </trkpt>
      <trkpt lat="47.02148" lon="8.94205">
        <ele>874</ele>
        <time>2021-08-02T11:29:00.285Z</time>
      </trkpt>
      <trkpt lat="47.02148" lon="8.94204">
        <ele>874</ele>
        <time>2021-08-02T11:29:01.285Z</time>
      </trkpt>
      <trkpt lat="47.02148" lon="8.94203">
        <ele>874</ele>
        <time>2021-08-02T11:29:02.285Z</time>
      </trkpt>
      <trkpt lat="47.02148" lon="8.94202">
        <ele>873</ele>
        <time>2021-08-02T11:29:03.285Z</time>
      </trkpt>
      <trkpt lat="47.02148" lon="8.94201">
        <ele>873</ele>
        <time>2021-08-02T11:29:04.285Z</time>
      </trkpt>
      <trkpt lat="47.02149" lon="8.94199">
        <ele>873</ele>
        <time>2021-08-02T11:29:05.286Z</time>
      </trkpt>
      <trkpt lat="47.02149" lon="8.94198">
        <ele>872</ele>
        <time>2021-08-02T11:29:06.285Z</time>
      </trkpt>
      <trkpt lat="47.0215" lon="8.94197">
        <ele>872</ele>
        <time>2021-08-02T11:29:07.285Z</time>
      </trkpt>
      <trkpt lat="47.0215" lon="8.94196">
        <ele>872</ele>
        <time>2021-08-02T11:29:08.286Z</time>
      </trkpt>
      <trkpt lat="47.02151" lon="8.94195">
        <ele>872</ele>
        <time>2021-08-02T11:29:09.286Z</time>
      </trkpt>
      <trkpt lat="47.02151" lon="8.94194">
        <ele>872</ele>
        <time>2021-08-02T11:29:10.286Z</time>
      </trkpt>
      <trkpt lat="47.02152" lon="8.94193">
        <ele>872</ele>
        <time>2021-08-02T11:29:11.285Z</time>
      </trkpt>
      <trkpt lat="47.02153" lon="8.94192">
        <ele>872</ele>
        <time>2021-08-02T11:29:12.285Z</time>
      </trkpt>
      <trkpt lat="47.02153" lon="8.9419">
        <ele>872</ele>
        <time>2021-08-02T11:29:13.286Z</time>
      </trkpt>
      <trkpt lat="47.02154" lon="8.94189">
        <ele>872</ele>
        <time>2021-08-02T11:29:14.285Z</time>
      </trkpt>
      <trkpt lat="47.02156" lon="8.94187">
        <ele>871</ele>
        <time>2021-08-02T11:29:15.285Z</time>
      </trkpt>
      <trkpt lat="47.02157" lon="8.94186">
        <ele>871</ele>
        <time>2021-08-02T11:29:16.285Z</time>
      </trkpt>
      <trkpt lat="47.02159" lon="8.94185">
        <ele>871</ele>
        <time>2021-08-02T11:29:17.286Z</time>
      </trkpt>
      <trkpt lat="47.02159" lon="8.94184">
        <ele>872</ele>
        <time>2021-08-02T11:29:18.286Z</time>
      </trkpt>
      <trkpt lat="47.0216" lon="8.94183">
        <ele>872</ele>
        <time>2021-08-02T11:29:19.286Z</time>
      </trkpt>
      <trkpt lat="47.02159" lon="8.94183">
        <ele>872</ele>
        <time>2021-08-02T11:29:20.285Z</time>
      </trkpt>
      <trkpt lat="47.02159" lon="8.94182">
        <ele>873</ele>
        <time>2021-08-02T11:29:21.286Z</time>
      </trkpt>
      <trkpt lat="47.02159" lon="8.94181">
        <ele>873</ele>
        <time>2021-08-02T11:29:22.285Z</time>
      </trkpt>
      <trkpt lat="47.02159" lon="8.94179">
        <ele>873</ele>
        <time>2021-08-02T11:29:23.286Z</time>
      </trkpt>
      <trkpt lat="47.02161" lon="8.94178">
        <ele>873</ele>
        <time>2021-08-02T11:29:24.286Z</time>
      </trkpt>
      <trkpt lat="47.02161" lon="8.94177">
        <ele>874</ele>
        <time>2021-08-02T11:29:25.286Z</time>
      </trkpt>
      <trkpt lat="47.02162" lon="8.94176">
        <ele>874</ele>
        <time>2021-08-02T11:29:26.285Z</time>
      </trkpt>
      <trkpt lat="47.02163" lon="8.94175">
        <ele>874</ele>
        <time>2021-08-02T11:29:27.286Z</time>
      </trkpt>
      <trkpt lat="47.02163" lon="8.94174">
        <ele>874</ele>
        <time>2021-08-02T11:29:28.286Z</time>
      </trkpt>
      <trkpt lat="47.02164" lon="8.94173">
        <ele>874</ele>
        <time>2021-08-02T11:29:29.286Z</time>
      </trkpt>
      <trkpt lat="47.02164" lon="8.94171">
        <ele>875</ele>
        <time>2021-08-02T11:29:30.285Z</time>
      </trkpt>
      <trkpt lat="47.02165" lon="8.94171">
        <ele>875</ele>
        <time>2021-08-02T11:29:31.285Z</time>
      </trkpt>
      <trkpt lat="47.02164" lon="8.9417">
        <ele>875</ele>
        <time>2021-08-02T11:29:32.285Z</time>
      </trkpt>
      <trkpt lat="47.02164" lon="8.94169">
        <ele>876</ele>
        <time>2021-08-02T11:29:33.285Z</time>
      </trkpt>
      <trkpt lat="47.02163" lon="8.94168">
        <ele>876</ele>
        <time>2021-08-02T11:29:34.285Z</time>
      </trkpt>
      <trkpt lat="47.02163" lon="8.94167">
        <ele>876</ele>
        <time>2021-08-02T11:29:35.285Z</time>
      </trkpt>
      <trkpt lat="47.02163" lon="8.94165">
        <ele>876</ele>
        <time>2021-08-02T11:29:36.285Z</time>
      </trkpt>
      <trkpt lat="47.02163" lon="8.94164">
        <ele>876</ele>
        <time>2021-08-02T11:29:37.286Z</time>
      </trkpt>
      <trkpt lat="47.02164" lon="8.94163">
        <ele>876</ele>
        <time>2021-08-02T11:29:38.285Z</time>
      </trkpt>
      <trkpt lat="47.02164" lon="8.94161">
        <ele>876</ele>
        <time>2021-08-02T11:29:39.285Z</time>
      </trkpt>
      <trkpt lat="47.02165" lon="8.9416">
        <ele>876</ele>
        <time>2021-08-02T11:29:40.285Z</time>
      </trkpt>
      <trkpt lat="47.02165" lon="8.94158">
        <ele>876</ele>
        <time>2021-08-02T11:29:41.286Z</time>
      </trkpt>
      <trkpt lat="47.02166" lon="8.94156">
        <ele>876</ele>
        <time>2021-08-02T11:29:42.285Z</time>
      </trkpt>
      <trkpt lat="47.02166" lon="8.94154">
        <ele>875</ele>
        <time>2021-08-02T11:29:43.286Z</time>
      </trkpt>
      <trkpt lat="47.02166" lon="8.94153">
        <ele>875</ele>
        <time>2021-08-02T11:29:44.285Z</time>
      </trkpt>
      <trkpt lat="47.02166" lon="8.94152">
        <ele>875</ele>
        <time>2021-08-02T11:29:45.285Z</time>
      </trkpt>
      <trkpt lat="47.02166" lon="8.94151">
        <ele>875</ele>
        <time>2021-08-02T11:29:46.285Z</time>
      </trkpt>
      <trkpt lat="47.02167" lon="8.94145">
        <ele>874</ele>
        <time>2021-08-02T11:29:47.285Z</time>
      </trkpt>
      <trkpt lat="47.02166" lon="8.94144">
        <ele>874</ele>
        <time>2021-08-02T11:29:48.285Z</time>
      </trkpt>
      <trkpt lat="47.02166" lon="8.94142">
        <ele>874</ele>
        <time>2021-08-02T11:29:49.285Z</time>
      </trkpt>
      <trkpt lat="47.02166" lon="8.94141">
        <ele>874</ele>
        <time>2021-08-02T11:29:50.285Z</time>
      </trkpt>
      <trkpt lat="47.02166" lon="8.94138">
        <ele>873</ele>
        <time>2021-08-02T11:29:51.285Z</time>
      </trkpt>
      <trkpt lat="47.02167" lon="8.94137">
        <ele>873</ele>
        <time>2021-08-02T11:29:52.285Z</time>
      </trkpt>
      <trkpt lat="47.02167" lon="8.94136">
        <ele>873</ele>
        <time>2021-08-02T11:29:53.285Z</time>
      </trkpt>
      <trkpt lat="47.02167" lon="8.94134">
        <ele>873</ele>
        <time>2021-08-02T11:29:54.285Z</time>
      </trkpt>
      <trkpt lat="47.02168" lon="8.94133">
        <ele>872</ele>
        <time>2021-08-02T11:29:55.285Z</time>
      </trkpt>
      <trkpt lat="47.02168" lon="8.94131">
        <ele>872</ele>
        <time>2021-08-02T11:29:56.285Z</time>
      </trkpt>
      <trkpt lat="47.02168" lon="8.9413">
        <ele>872</ele>
        <time>2021-08-02T11:29:57.285Z</time>
      </trkpt>
      <trkpt lat="47.02167" lon="8.94126">
        <ele>872</ele>
        <time>2021-08-02T11:29:58.285Z</time>
      </trkpt>
      <trkpt lat="47.02165" lon="8.94123">
        <ele>872</ele>
        <time>2021-08-02T11:29:59.285Z</time>
      </trkpt>
      <trkpt lat="47.02166" lon="8.94121">
        <ele>871</ele>
        <time>2021-08-02T11:30:00.285Z</time>
      </trkpt>
      <trkpt lat="47.02165" lon="8.94119">
        <ele>871</ele>
        <time>2021-08-02T11:30:01.285Z</time>
      </trkpt>
      <trkpt lat="47.02165" lon="8.94117">
        <ele>870</ele>
        <time>2021-08-02T11:30:02.285Z</time>
      </trkpt>
      <trkpt lat="47.02165" lon="8.94115">
        <ele>870</ele>
        <time>2021-08-02T11:30:03.285Z</time>
      </trkpt>
      <trkpt lat="47.02166" lon="8.94113">
        <ele>870</ele>
        <time>2021-08-02T11:30:04.285Z</time>
      </trkpt>
      <trkpt lat="47.02165" lon="8.94111">
        <ele>870</ele>
        <time>2021-08-02T11:30:05.285Z</time>
      </trkpt>
      <trkpt lat="47.02165" lon="8.9411">
        <ele>870</ele>
        <time>2021-08-02T11:30:06.285Z</time>
      </trkpt>
      <trkpt lat="47.02165" lon="8.94108">
        <ele>870</ele>
        <time>2021-08-02T11:30:07.285Z</time>
      </trkpt>
      <trkpt lat="47.02165" lon="8.94106">
        <ele>871</ele>
        <time>2021-08-02T11:30:08.285Z</time>
      </trkpt>
      <trkpt lat="47.02164" lon="8.94105">
        <ele>871</ele>
        <time>2021-08-02T11:30:09.285Z</time>
      </trkpt>
      <trkpt lat="47.02164" lon="8.94104">
        <ele>870</ele>
        <time>2021-08-02T11:30:10.285Z</time>
      </trkpt>
      <trkpt lat="47.02164" lon="8.94103">
        <ele>870</ele>
        <time>2021-08-02T11:30:11.285Z</time>
      </trkpt>
      <trkpt lat="47.02164" lon="8.94101">
        <ele>870</ele>
        <time>2021-08-02T11:30:12.285Z</time>
      </trkpt>
      <trkpt lat="47.02163" lon="8.941">
        <ele>869</ele>
        <time>2021-08-02T11:30:13.285Z</time>
      </trkpt>
      <trkpt lat="47.02163" lon="8.94099">
        <ele>868</ele>
        <time>2021-08-02T11:30:14.285Z</time>
      </trkpt>
      <trkpt lat="47.02162" lon="8.94098">
        <ele>867</ele>
        <time>2021-08-02T11:30:15.285Z</time>
      </trkpt>
      <trkpt lat="47.02162" lon="8.94097">
        <ele>867</ele>
        <time>2021-08-02T11:30:16.285Z</time>
      </trkpt>
      <trkpt lat="47.02162" lon="8.94095">
        <ele>866</ele>
        <time>2021-08-02T11:30:17.285Z</time>
      </trkpt>
      <trkpt lat="47.02162" lon="8.94093">
        <ele>865</ele>
        <time>2021-08-02T11:30:18.285Z</time>
      </trkpt>
      <trkpt lat="47.02162" lon="8.94091">
        <ele>865</ele>
        <time>2021-08-02T11:30:19.285Z</time>
      </trkpt>
      <trkpt lat="47.02163" lon="8.9409">
        <ele>864</ele>
        <time>2021-08-02T11:30:20.285Z</time>
      </trkpt>
      <trkpt lat="47.02163" lon="8.94088">
        <ele>864</ele>
        <time>2021-08-02T11:30:21.285Z</time>
      </trkpt>
      <trkpt lat="47.02164" lon="8.94086">
        <ele>864</ele>
        <time>2021-08-02T11:30:22.285Z</time>
      </trkpt>
      <trkpt lat="47.02165" lon="8.94085">
        <ele>864</ele>
        <time>2021-08-02T11:30:23.285Z</time>
      </trkpt>
      <trkpt lat="47.02165" lon="8.94084">
        <ele>864</ele>
        <time>2021-08-02T11:30:24.285Z</time>
      </trkpt>
      <trkpt lat="47.02165" lon="8.94082">
        <ele>864</ele>
        <time>2021-08-02T11:30:25.285Z</time>
      </trkpt>
      <trkpt lat="47.02164" lon="8.9408">
        <ele>864</ele>
        <time>2021-08-02T11:30:26.285Z</time>
      </trkpt>
      <trkpt lat="47.02164" lon="8.94079">
        <ele>863</ele>
        <time>2021-08-02T11:30:27.285Z</time>
      </trkpt>
      <trkpt lat="47.02165" lon="8.94077">
        <ele>863</ele>
        <time>2021-08-02T11:30:28.285Z</time>
      </trkpt>
      <trkpt lat="47.02165" lon="8.94075">
        <ele>864</ele>
        <time>2021-08-02T11:30:29.285Z</time>
      </trkpt>
      <trkpt lat="47.02166" lon="8.94072">
        <ele>864</ele>
        <time>2021-08-02T11:30:30.285Z</time>
      </trkpt>
      <trkpt lat="47.02166" lon="8.9407">
        <ele>864</ele>
        <time>2021-08-02T11:30:31.285Z</time>
      </trkpt>
      <trkpt lat="47.02165" lon="8.94069">
        <ele>864</ele>
        <time>2021-08-02T11:30:32.285Z</time>
      </trkpt>
      <trkpt lat="47.02164" lon="8.94067">
        <ele>865</ele>
        <time>2021-08-02T11:30:33.285Z</time>
      </trkpt>
      <trkpt lat="47.02165" lon="8.94065">
        <ele>865</ele>
        <time>2021-08-02T11:30:34.285Z</time>
      </trkpt>
      <trkpt lat="47.02166" lon="8.94064">
        <ele>866</ele>
        <time>2021-08-02T11:30:35.285Z</time>
      </trkpt>
      <trkpt lat="47.02168" lon="8.94061">
        <ele>866</ele>
        <time>2021-08-02T11:30:36.285Z</time>
      </trkpt>
      <trkpt lat="47.02169" lon="8.94058">
        <ele>866</ele>
        <time>2021-08-02T11:30:37.285Z</time>
      </trkpt>
      <trkpt lat="47.0217" lon="8.94056">
        <ele>866</ele>
        <time>2021-08-02T11:30:38.285Z</time>
      </trkpt>
      <trkpt lat="47.0217" lon="8.94055">
        <ele>866</ele>
        <time>2021-08-02T11:30:39.285Z</time>
      </trkpt>
      <trkpt lat="47.02169" lon="8.94053">
        <ele>866</ele>
        <time>2021-08-02T11:30:40.285Z</time>
      </trkpt>
      <trkpt lat="47.0217" lon="8.94052">
        <ele>866</ele>
        <time>2021-08-02T11:30:41.285Z</time>
      </trkpt>
      <trkpt lat="47.0217" lon="8.94051">
        <ele>866</ele>
        <time>2021-08-02T11:30:42.285Z</time>
      </trkpt>
      <trkpt lat="47.0217" lon="8.9405">
        <ele>865</ele>
        <time>2021-08-02T11:30:43.285Z</time>
      </trkpt>
      <trkpt lat="47.0217" lon="8.94048">
        <ele>864</ele>
        <time>2021-08-02T11:30:44.285Z</time>
      </trkpt>
      <trkpt lat="47.0217" lon="8.94047">
        <ele>864</ele>
        <time>2021-08-02T11:30:45.285Z</time>
      </trkpt>
      <trkpt lat="47.02171" lon="8.94045">
        <ele>863</ele>
        <time>2021-08-02T11:30:46.285Z</time>
      </trkpt>
      <trkpt lat="47.02171" lon="8.94044">
        <ele>863</ele>
        <time>2021-08-02T11:30:47.285Z</time>
      </trkpt>
      <trkpt lat="47.02172" lon="8.94043">
        <ele>863</ele>
        <time>2021-08-02T11:30:48.285Z</time>
      </trkpt>
      <trkpt lat="47.02172" lon="8.94042">
        <ele>862</ele>
        <time>2021-08-02T11:30:49.285Z</time>
      </trkpt>
      <trkpt lat="47.02173" lon="8.94041">
        <ele>862</ele>
        <time>2021-08-02T11:30:50.285Z</time>
      </trkpt>
      <trkpt lat="47.02173" lon="8.9404">
        <ele>862</ele>
        <time>2021-08-02T11:30:51.285Z</time>
      </trkpt>
      <trkpt lat="47.02174" lon="8.94039">
        <ele>861</ele>
        <time>2021-08-02T11:30:52.285Z</time>
      </trkpt>
      <trkpt lat="47.02174" lon="8.94038">
        <ele>861</ele>
        <time>2021-08-02T11:30:53.285Z</time>
      </trkpt>
      <trkpt lat="47.02174" lon="8.94037">
        <ele>860</ele>
        <time>2021-08-02T11:30:54.285Z</time>
      </trkpt>
      <trkpt lat="47.02174" lon="8.94035">
        <ele>860</ele>
        <time>2021-08-02T11:30:55.285Z</time>
      </trkpt>
      <trkpt lat="47.02175" lon="8.94035">
        <ele>859</ele>
        <time>2021-08-02T11:30:56.285Z</time>
      </trkpt>
      <trkpt lat="47.02175" lon="8.94034">
        <ele>858</ele>
        <time>2021-08-02T11:30:57.285Z</time>
      </trkpt>
      <trkpt lat="47.02174" lon="8.94033">
        <ele>858</ele>
        <time>2021-08-02T11:30:58.285Z</time>
      </trkpt>
      <trkpt lat="47.02174" lon="8.94032">
        <ele>857</ele>
        <time>2021-08-02T11:30:59.285Z</time>
      </trkpt>
      <trkpt lat="47.02175" lon="8.94031">
        <ele>858</ele>
        <time>2021-08-02T11:31:00.285Z</time>
      </trkpt>
      <trkpt lat="47.02175" lon="8.9403">
        <ele>858</ele>
        <time>2021-08-02T11:31:01.285Z</time>
      </trkpt>
      <trkpt lat="47.02175" lon="8.94028">
        <ele>858</ele>
        <time>2021-08-02T11:31:02.285Z</time>
      </trkpt>
      <trkpt lat="47.02175" lon="8.94027">
        <ele>858</ele>
        <time>2021-08-02T11:31:03.285Z</time>
      </trkpt>
      <trkpt lat="47.02175" lon="8.94025">
        <ele>858</ele>
        <time>2021-08-02T11:31:04.285Z</time>
      </trkpt>
      <trkpt lat="47.02174" lon="8.94023">
        <ele>859</ele>
        <time>2021-08-02T11:31:05.285Z</time>
      </trkpt>
      <trkpt lat="47.02174" lon="8.94021">
        <ele>859</ele>
        <time>2021-08-02T11:31:06.285Z</time>
      </trkpt>
      <trkpt lat="47.02174" lon="8.94018">
        <ele>859</ele>
        <time>2021-08-02T11:31:07.285Z</time>
      </trkpt>
      <trkpt lat="47.02174" lon="8.94015">
        <ele>859</ele>
        <time>2021-08-02T11:31:08.285Z</time>
      </trkpt>
      <trkpt lat="47.02174" lon="8.94013">
        <ele>859</ele>
        <time>2021-08-02T11:31:09.285Z</time>
      </trkpt>
      <trkpt lat="47.02175" lon="8.9401">
        <ele>860</ele>
        <time>2021-08-02T11:31:10.285Z</time>
      </trkpt>
      <trkpt lat="47.02175" lon="8.94008">
        <ele>860</ele>
        <time>2021-08-02T11:31:11.285Z</time>
      </trkpt>
      <trkpt lat="47.02174" lon="8.94006">
        <ele>860</ele>
        <time>2021-08-02T11:31:12.285Z</time>
      </trkpt>
      <trkpt lat="47.02174" lon="8.94004">
        <ele>860</ele>
        <time>2021-08-02T11:31:13.285Z</time>
      </trkpt>
      <trkpt lat="47.02174" lon="8.94001">
        <ele>861</ele>
        <time>2021-08-02T11:31:14.285Z</time>
      </trkpt>
      <trkpt lat="47.02174" lon="8.93998">
        <ele>861</ele>
        <time>2021-08-02T11:31:15.285Z</time>
      </trkpt>
      <trkpt lat="47.02174" lon="8.93997">
        <ele>861</ele>
        <time>2021-08-02T11:31:16.285Z</time>
      </trkpt>
      <trkpt lat="47.02174" lon="8.93994">
        <ele>861</ele>
        <time>2021-08-02T11:31:17.285Z</time>
      </trkpt>
      <trkpt lat="47.02173" lon="8.93992">
        <ele>861</ele>
        <time>2021-08-02T11:31:18.285Z</time>
      </trkpt>
      <trkpt lat="47.02172" lon="8.93989">
        <ele>862</ele>
        <time>2021-08-02T11:31:19.285Z</time>
      </trkpt>
      <trkpt lat="47.0217" lon="8.93987">
        <ele>862</ele>
        <time>2021-08-02T11:31:20.285Z</time>
      </trkpt>
      <trkpt lat="47.02169" lon="8.93985">
        <ele>862</ele>
        <time>2021-08-02T11:31:21.285Z</time>
      </trkpt>
      <trkpt lat="47.02168" lon="8.93984">
        <ele>862</ele>
        <time>2021-08-02T11:31:22.285Z</time>
      </trkpt>
      <trkpt lat="47.02167" lon="8.93983">
        <ele>862</ele>
        <time>2021-08-02T11:31:23.285Z</time>
      </trkpt>
      <trkpt lat="47.02166" lon="8.93981">
        <ele>861</ele>
        <time>2021-08-02T11:31:24.285Z</time>
      </trkpt>
      <trkpt lat="47.02165" lon="8.9398">
        <ele>861</ele>
        <time>2021-08-02T11:31:25.285Z</time>
      </trkpt>
      <trkpt lat="47.02165" lon="8.93979">
        <ele>861</ele>
        <time>2021-08-02T11:31:26.285Z</time>
      </trkpt>
      <trkpt lat="47.02164" lon="8.93978">
        <ele>861</ele>
        <time>2021-08-02T11:31:27.285Z</time>
      </trkpt>
      <trkpt lat="47.02163" lon="8.93977">
        <ele>860</ele>
        <time>2021-08-02T11:31:28.285Z</time>
      </trkpt>
      <trkpt lat="47.02162" lon="8.93975">
        <ele>860</ele>
        <time>2021-08-02T11:31:29.285Z</time>
      </trkpt>
      <trkpt lat="47.02162" lon="8.93974">
        <ele>859</ele>
        <time>2021-08-02T11:31:30.285Z</time>
      </trkpt>
      <trkpt lat="47.02162" lon="8.93972">
        <ele>859</ele>
        <time>2021-08-02T11:31:31.285Z</time>
      </trkpt>
      <trkpt lat="47.02163" lon="8.9397">
        <ele>858</ele>
        <time>2021-08-02T11:31:32.285Z</time>
      </trkpt>
      <trkpt lat="47.02165" lon="8.93969">
        <ele>858</ele>
        <time>2021-08-02T11:31:33.285Z</time>
      </trkpt>
      <trkpt lat="47.02167" lon="8.93968">
        <ele>858</ele>
        <time>2021-08-02T11:31:34.285Z</time>
      </trkpt>
      <trkpt lat="47.02168" lon="8.93966">
        <ele>857</ele>
        <time>2021-08-02T11:31:35.285Z</time>
      </trkpt>
      <trkpt lat="47.02169" lon="8.93966">
        <ele>857</ele>
        <time>2021-08-02T11:31:36.285Z</time>
      </trkpt>
      <trkpt lat="47.02171" lon="8.93965">
        <ele>857</ele>
        <time>2021-08-02T11:31:37.285Z</time>
      </trkpt>
      <trkpt lat="47.02172" lon="8.93965">
        <ele>857</ele>
        <time>2021-08-02T11:31:38.285Z</time>
      </trkpt>
      <trkpt lat="47.02172" lon="8.93965">
        <ele>857</ele>
        <time>2021-08-02T11:31:39.285Z</time>
      </trkpt>
      <trkpt lat="47.02173" lon="8.93965">
        <ele>857</ele>
        <time>2021-08-02T11:31:40.285Z</time>
      </trkpt>
      <trkpt lat="47.02174" lon="8.93964">
        <ele>857</ele>
        <time>2021-08-02T11:31:41.285Z</time>
      </trkpt>
      <trkpt lat="47.02175" lon="8.93963">
        <ele>856</ele>
        <time>2021-08-02T11:31:42.285Z</time>
      </trkpt>
      <trkpt lat="47.02176" lon="8.93962">
        <ele>856</ele>
        <time>2021-08-02T11:31:43.285Z</time>
      </trkpt>
      <trkpt lat="47.02177" lon="8.93961">
        <ele>856</ele>
        <time>2021-08-02T11:31:44.285Z</time>
      </trkpt>
      <trkpt lat="47.02178" lon="8.9396">
        <ele>856</ele>
        <time>2021-08-02T11:31:45.285Z</time>
      </trkpt>
      <trkpt lat="47.02179" lon="8.93959">
        <ele>856</ele>
        <time>2021-08-02T11:31:46.285Z</time>
      </trkpt>
      <trkpt lat="47.0218" lon="8.93958">
        <ele>855</ele>
        <time>2021-08-02T11:31:47.285Z</time>
      </trkpt>
      <trkpt lat="47.02181" lon="8.93957">
        <ele>855</ele>
        <time>2021-08-02T11:31:48.285Z</time>
      </trkpt>
      <trkpt lat="47.02182" lon="8.93957">
        <ele>855</ele>
        <time>2021-08-02T11:31:49.285Z</time>
      </trkpt>
      <trkpt lat="47.02183" lon="8.93956">
        <ele>855</ele>
        <time>2021-08-02T11:31:50.285Z</time>
      </trkpt>
      <trkpt lat="47.02185" lon="8.93955">
        <ele>854</ele>
        <time>2021-08-02T11:31:51.285Z</time>
      </trkpt>
      <trkpt lat="47.02186" lon="8.93953">
        <ele>854</ele>
        <time>2021-08-02T11:31:52.285Z</time>
      </trkpt>
      <trkpt lat="47.02188" lon="8.93952">
        <ele>854</ele>
        <time>2021-08-02T11:31:53.285Z</time>
      </trkpt>
      <trkpt lat="47.02188" lon="8.93951">
        <ele>854</ele>
        <time>2021-08-02T11:31:54.285Z</time>
      </trkpt>
      <trkpt lat="47.02189" lon="8.93949">
        <ele>854</ele>
        <time>2021-08-02T11:31:55.285Z</time>
      </trkpt>
      <trkpt lat="47.02191" lon="8.93948">
        <ele>853</ele>
        <time>2021-08-02T11:31:56.285Z</time>
      </trkpt>
      <trkpt lat="47.02193" lon="8.93946">
        <ele>853</ele>
        <time>2021-08-02T11:31:57.285Z</time>
      </trkpt>
      <trkpt lat="47.02194" lon="8.93944">
        <ele>853</ele>
        <time>2021-08-02T11:31:58.285Z</time>
      </trkpt>
      <trkpt lat="47.02196" lon="8.93944">
        <ele>853</ele>
        <time>2021-08-02T11:31:59.285Z</time>
      </trkpt>
      <trkpt lat="47.02198" lon="8.93942">
        <ele>853</ele>
        <time>2021-08-02T11:32:00.285Z</time>
      </trkpt>
      <trkpt lat="47.02199" lon="8.93942">
        <ele>852</ele>
        <time>2021-08-02T11:32:01.285Z</time>
      </trkpt>
      <trkpt lat="47.022" lon="8.93942">
        <ele>852</ele>
        <time>2021-08-02T11:32:02.285Z</time>
      </trkpt>
      <trkpt lat="47.02201" lon="8.93942">
        <ele>852</ele>
        <time>2021-08-02T11:32:03.285Z</time>
      </trkpt>
      <trkpt lat="47.02201" lon="8.93942">
        <ele>852</ele>
        <time>2021-08-02T11:32:04.285Z</time>
      </trkpt>
      <trkpt lat="47.02202" lon="8.93942">
        <ele>852</ele>
        <time>2021-08-02T11:32:05.285Z</time>
      </trkpt>
      <trkpt lat="47.02203" lon="8.93941">
        <ele>852</ele>
        <time>2021-08-02T11:32:06.285Z</time>
      </trkpt>
      <trkpt lat="47.02203" lon="8.9394">
        <ele>852</ele>
        <time>2021-08-02T11:32:07.285Z</time>
      </trkpt>
      <trkpt lat="47.02204" lon="8.9394">
        <ele>852</ele>
        <time>2021-08-02T11:32:08.285Z</time>
      </trkpt>
      <trkpt lat="47.02205" lon="8.93939">
        <ele>852</ele>
        <time>2021-08-02T11:32:09.285Z</time>
      </trkpt>
      <trkpt lat="47.02207" lon="8.93938">
        <ele>852</ele>
        <time>2021-08-02T11:32:10.285Z</time>
      </trkpt>
      <trkpt lat="47.02208" lon="8.93937">
        <ele>853</ele>
        <time>2021-08-02T11:32:11.285Z</time>
      </trkpt>
      <trkpt lat="47.02209" lon="8.93936">
        <ele>852</ele>
        <time>2021-08-02T11:32:12.285Z</time>
      </trkpt>
      <trkpt lat="47.0221" lon="8.93936">
        <ele>852</ele>
        <time>2021-08-02T11:32:13.285Z</time>
      </trkpt>
      <trkpt lat="47.02211" lon="8.93935">
        <ele>852</ele>
        <time>2021-08-02T11:32:14.285Z</time>
      </trkpt>
      <trkpt lat="47.02212" lon="8.93935">
        <ele>852</ele>
        <time>2021-08-02T11:32:15.285Z</time>
      </trkpt>
      <trkpt lat="47.02214" lon="8.93934">
        <ele>852</ele>
        <time>2021-08-02T11:32:16.285Z</time>
      </trkpt>
      <trkpt lat="47.02216" lon="8.93933">
        <ele>852</ele>
        <time>2021-08-02T11:32:17.285Z</time>
      </trkpt>
      <trkpt lat="47.02216" lon="8.93932">
        <ele>853</ele>
        <time>2021-08-02T11:32:18.285Z</time>
      </trkpt>
      <trkpt lat="47.02218" lon="8.93931">
        <ele>853</ele>
        <time>2021-08-02T11:32:19.285Z</time>
      </trkpt>
      <trkpt lat="47.02218" lon="8.9393">
        <ele>853</ele>
        <time>2021-08-02T11:32:20.285Z</time>
      </trkpt>
      <trkpt lat="47.02219" lon="8.93929">
        <ele>853</ele>
        <time>2021-08-02T11:32:21.285Z</time>
      </trkpt>
      <trkpt lat="47.02221" lon="8.93928">
        <ele>852</ele>
        <time>2021-08-02T11:32:22.285Z</time>
      </trkpt>
      <trkpt lat="47.02222" lon="8.93927">
        <ele>852</ele>
        <time>2021-08-02T11:32:23.285Z</time>
      </trkpt>
      <trkpt lat="47.02223" lon="8.93926">
        <ele>852</ele>
        <time>2021-08-02T11:32:24.285Z</time>
      </trkpt>
      <trkpt lat="47.02225" lon="8.93925">
        <ele>852</ele>
        <time>2021-08-02T11:32:25.285Z</time>
      </trkpt>
      <trkpt lat="47.02227" lon="8.93924">
        <ele>852</ele>
        <time>2021-08-02T11:32:26.285Z</time>
      </trkpt>
      <trkpt lat="47.02228" lon="8.93923">
        <ele>852</ele>
        <time>2021-08-02T11:32:27.285Z</time>
      </trkpt>
      <trkpt lat="47.0223" lon="8.93923">
        <ele>852</ele>
        <time>2021-08-02T11:32:28.285Z</time>
      </trkpt>
      <trkpt lat="47.02231" lon="8.93922">
        <ele>852</ele>
        <time>2021-08-02T11:32:29.285Z</time>
      </trkpt>
      <trkpt lat="47.02233" lon="8.93921">
        <ele>852</ele>
        <time>2021-08-02T11:32:30.285Z</time>
      </trkpt>
      <trkpt lat="47.02234" lon="8.93921">
        <ele>852</ele>
        <time>2021-08-02T11:32:31.285Z</time>
      </trkpt>
      <trkpt lat="47.02235" lon="8.9392">
        <ele>852</ele>
        <time>2021-08-02T11:32:32.285Z</time>
      </trkpt>
      <trkpt lat="47.02236" lon="8.9392">
        <ele>852</ele>
        <time>2021-08-02T11:32:33.285Z</time>
      </trkpt>
      <trkpt lat="47.02237" lon="8.9392">
        <ele>852</ele>
        <time>2021-08-02T11:32:34.285Z</time>
      </trkpt>
      <trkpt lat="47.02239" lon="8.93919">
        <ele>853</ele>
        <time>2021-08-02T11:32:35.285Z</time>
      </trkpt>
      <trkpt lat="47.02241" lon="8.93918">
        <ele>853</ele>
        <time>2021-08-02T11:32:36.285Z</time>
      </trkpt>
      <trkpt lat="47.02242" lon="8.93917">
        <ele>854</ele>
        <time>2021-08-02T11:32:37.285Z</time>
      </trkpt>
      <trkpt lat="47.02243" lon="8.93916">
        <ele>854</ele>
        <time>2021-08-02T11:32:38.285Z</time>
      </trkpt>
      <trkpt lat="47.02245" lon="8.93915">
        <ele>854</ele>
        <time>2021-08-02T11:32:39.285Z</time>
      </trkpt>
      <trkpt lat="47.02245" lon="8.93914">
        <ele>855</ele>
        <time>2021-08-02T11:32:40.285Z</time>
      </trkpt>
      <trkpt lat="47.02246" lon="8.93914">
        <ele>855</ele>
        <time>2021-08-02T11:32:41.285Z</time>
      </trkpt>
      <trkpt lat="47.02248" lon="8.93913">
        <ele>856</ele>
        <time>2021-08-02T11:32:42.285Z</time>
      </trkpt>
      <trkpt lat="47.02249" lon="8.93912">
        <ele>856</ele>
        <time>2021-08-02T11:32:43.285Z</time>
      </trkpt>
      <trkpt lat="47.0225" lon="8.93911">
        <ele>857</ele>
        <time>2021-08-02T11:32:44.285Z</time>
      </trkpt>
      <trkpt lat="47.02251" lon="8.9391">
        <ele>857</ele>
        <time>2021-08-02T11:32:45.285Z</time>
      </trkpt>
      <trkpt lat="47.02252" lon="8.93909">
        <ele>857</ele>
        <time>2021-08-02T11:32:46.285Z</time>
      </trkpt>
      <trkpt lat="47.02254" lon="8.93909">
        <ele>857</ele>
        <time>2021-08-02T11:32:47.285Z</time>
      </trkpt>
      <trkpt lat="47.02255" lon="8.93908">
        <ele>856</ele>
        <time>2021-08-02T11:32:48.285Z</time>
      </trkpt>
      <trkpt lat="47.02256" lon="8.93907">
        <ele>856</ele>
        <time>2021-08-02T11:32:49.285Z</time>
      </trkpt>
      <trkpt lat="47.02257" lon="8.93906">
        <ele>856</ele>
        <time>2021-08-02T11:32:50.285Z</time>
      </trkpt>
      <trkpt lat="47.02259" lon="8.93905">
        <ele>856</ele>
        <time>2021-08-02T11:32:51.285Z</time>
      </trkpt>
      <trkpt lat="47.02261" lon="8.93904">
        <ele>856</ele>
        <time>2021-08-02T11:32:52.285Z</time>
      </trkpt>
      <trkpt lat="47.02262" lon="8.93904">
        <ele>856</ele>
        <time>2021-08-02T11:32:53.285Z</time>
      </trkpt>
      <trkpt lat="47.02263" lon="8.93902">
        <ele>856</ele>
        <time>2021-08-02T11:32:54.285Z</time>
      </trkpt>
      <trkpt lat="47.02264" lon="8.93901">
        <ele>856</ele>
        <time>2021-08-02T11:32:55.285Z</time>
      </trkpt>
      <trkpt lat="47.02265" lon="8.93901">
        <ele>856</ele>
        <time>2021-08-02T11:32:56.285Z</time>
      </trkpt>
      <trkpt lat="47.02266" lon="8.939">
        <ele>855</ele>
        <time>2021-08-02T11:32:57.285Z</time>
      </trkpt>
      <trkpt lat="47.02267" lon="8.93898">
        <ele>855</ele>
        <time>2021-08-02T11:32:58.285Z</time>
      </trkpt>
      <trkpt lat="47.02268" lon="8.93897">
        <ele>855</ele>
        <time>2021-08-02T11:32:59.285Z</time>
      </trkpt>
      <trkpt lat="47.02269" lon="8.93896">
        <ele>854</ele>
        <time>2021-08-02T11:33:00.285Z</time>
      </trkpt>
      <trkpt lat="47.0227" lon="8.93894">
        <ele>854</ele>
        <time>2021-08-02T11:33:01.285Z</time>
      </trkpt>
      <trkpt lat="47.02271" lon="8.93893">
        <ele>854</ele>
        <time>2021-08-02T11:33:02.285Z</time>
      </trkpt>
      <trkpt lat="47.02273" lon="8.93893">
        <ele>854</ele>
        <time>2021-08-02T11:33:03.285Z</time>
      </trkpt>
      <trkpt lat="47.02274" lon="8.93891">
        <ele>853</ele>
        <time>2021-08-02T11:33:04.285Z</time>
      </trkpt>
      <trkpt lat="47.02275" lon="8.93891">
        <ele>853</ele>
        <time>2021-08-02T11:33:05.285Z</time>
      </trkpt>
      <trkpt lat="47.02276" lon="8.9389">
        <ele>853</ele>
        <time>2021-08-02T11:33:06.285Z</time>
      </trkpt>
      <trkpt lat="47.02277" lon="8.93888">
        <ele>852</ele>
        <time>2021-08-02T11:33:07.285Z</time>
      </trkpt>
      <trkpt lat="47.02278" lon="8.93887">
        <ele>851</ele>
        <time>2021-08-02T11:33:08.285Z</time>
      </trkpt>
      <trkpt lat="47.02279" lon="8.93886">
        <ele>851</ele>
        <time>2021-08-02T11:33:09.285Z</time>
      </trkpt>
      <trkpt lat="47.0228" lon="8.93884">
        <ele>850</ele>
        <time>2021-08-02T11:33:10.285Z</time>
      </trkpt>
      <trkpt lat="47.0228" lon="8.93883">
        <ele>850</ele>
        <time>2021-08-02T11:33:11.285Z</time>
      </trkpt>
      <trkpt lat="47.0228" lon="8.93882">
        <ele>850</ele>
        <time>2021-08-02T11:33:12.285Z</time>
      </trkpt>
      <trkpt lat="47.02281" lon="8.93881">
        <ele>850</ele>
        <time>2021-08-02T11:33:14.276Z</time>
      </trkpt>
      <trkpt lat="47.02282" lon="8.9388">
        <ele>850</ele>
        <time>2021-08-02T11:33:15.276Z</time>
      </trkpt>
      <trkpt lat="47.02282" lon="8.93879">
        <ele>850</ele>
        <time>2021-08-02T11:33:16.276Z</time>
      </trkpt>
      <trkpt lat="47.02283" lon="8.93877">
        <ele>849</ele>
        <time>2021-08-02T11:33:17.276Z</time>
      </trkpt>
      <trkpt lat="47.02284" lon="8.93876">
        <ele>849</ele>
        <time>2021-08-02T11:33:18.276Z</time>
      </trkpt>
      <trkpt lat="47.02285" lon="8.93874">
        <ele>849</ele>
        <time>2021-08-02T11:33:19.276Z</time>
      </trkpt>
      <trkpt lat="47.02286" lon="8.93873">
        <ele>848</ele>
        <time>2021-08-02T11:33:20.276Z</time>
      </trkpt>
      <trkpt lat="47.02287" lon="8.93872">
        <ele>848</ele>
        <time>2021-08-02T11:33:21.276Z</time>
      </trkpt>
      <trkpt lat="47.02288" lon="8.93871">
        <ele>848</ele>
        <time>2021-08-02T11:33:22.276Z</time>
      </trkpt>
      <trkpt lat="47.0229" lon="8.9387">
        <ele>848</ele>
        <time>2021-08-02T11:33:23.276Z</time>
      </trkpt>
      <trkpt lat="47.02291" lon="8.93869">
        <ele>848</ele>
        <time>2021-08-02T11:33:24.276Z</time>
      </trkpt>
      <trkpt lat="47.02291" lon="8.93868">
        <ele>848</ele>
        <time>2021-08-02T11:33:25.276Z</time>
      </trkpt>
      <trkpt lat="47.02292" lon="8.93866">
        <ele>848</ele>
        <time>2021-08-02T11:33:26.276Z</time>
      </trkpt>
      <trkpt lat="47.02293" lon="8.93865">
        <ele>847</ele>
        <time>2021-08-02T11:33:27.276Z</time>
      </trkpt>
      <trkpt lat="47.02293" lon="8.93864">
        <ele>847</ele>
        <time>2021-08-02T11:33:28.276Z</time>
      </trkpt>
      <trkpt lat="47.02294" lon="8.93864">
        <ele>847</ele>
        <time>2021-08-02T11:33:29.276Z</time>
      </trkpt>
      <trkpt lat="47.02296" lon="8.93862">
        <ele>847</ele>
        <time>2021-08-02T11:33:30.276Z</time>
      </trkpt>
      <trkpt lat="47.02297" lon="8.9386">
        <ele>847</ele>
        <time>2021-08-02T11:33:31.276Z</time>
      </trkpt>
      <trkpt lat="47.02298" lon="8.93859">
        <ele>846</ele>
        <time>2021-08-02T11:33:32.276Z</time>
      </trkpt>
      <trkpt lat="47.02299" lon="8.93858">
        <ele>846</ele>
        <time>2021-08-02T11:33:33.276Z</time>
      </trkpt>
      <trkpt lat="47.023" lon="8.93858">
        <ele>846</ele>
        <time>2021-08-02T11:33:34.276Z</time>
      </trkpt>
      <trkpt lat="47.02301" lon="8.93857">
        <ele>846</ele>
        <time>2021-08-02T11:33:35.276Z</time>
      </trkpt>
      <trkpt lat="47.02301" lon="8.93857">
        <ele>846</ele>
        <time>2021-08-02T11:33:36.276Z</time>
      </trkpt>
      <trkpt lat="47.02302" lon="8.93856">
        <ele>846</ele>
        <time>2021-08-02T11:33:37.276Z</time>
      </trkpt>
      <trkpt lat="47.02303" lon="8.93856">
        <ele>847</ele>
        <time>2021-08-02T11:33:38.276Z</time>
      </trkpt>
      <trkpt lat="47.02303" lon="8.93855">
        <ele>847</ele>
        <time>2021-08-02T11:33:39.276Z</time>
      </trkpt>
      <trkpt lat="47.02304" lon="8.93854">
        <ele>848</ele>
        <time>2021-08-02T11:33:40.276Z</time>
      </trkpt>
      <trkpt lat="47.02305" lon="8.93854">
        <ele>848</ele>
        <time>2021-08-02T11:33:41.276Z</time>
      </trkpt>
      <trkpt lat="47.02307" lon="8.93853">
        <ele>849</ele>
        <time>2021-08-02T11:33:42.276Z</time>
      </trkpt>
      <trkpt lat="47.02307" lon="8.93853">
        <ele>849</ele>
        <time>2021-08-02T11:33:43.276Z</time>
      </trkpt>
      <trkpt lat="47.02308" lon="8.93853">
        <ele>849</ele>
        <time>2021-08-02T11:33:44.276Z</time>
      </trkpt>
      <trkpt lat="47.02309" lon="8.93853">
        <ele>850</ele>
        <time>2021-08-02T11:33:45.276Z</time>
      </trkpt>
      <trkpt lat="47.0231" lon="8.93853">
        <ele>850</ele>
        <time>2021-08-02T11:33:46.276Z</time>
      </trkpt>
      <trkpt lat="47.02311" lon="8.93853">
        <ele>851</ele>
        <time>2021-08-02T11:33:47.276Z</time>
      </trkpt>
      <trkpt lat="47.02312" lon="8.93853">
        <ele>851</ele>
        <time>2021-08-02T11:33:48.276Z</time>
      </trkpt>
      <trkpt lat="47.02313" lon="8.93853">
        <ele>851</ele>
        <time>2021-08-02T11:33:49.276Z</time>
      </trkpt>
      <trkpt lat="47.02314" lon="8.93853">
        <ele>852</ele>
        <time>2021-08-02T11:33:50.276Z</time>
      </trkpt>
      <trkpt lat="47.02316" lon="8.93853">
        <ele>852</ele>
        <time>2021-08-02T11:33:51.276Z</time>
      </trkpt>
      <trkpt lat="47.02317" lon="8.93852">
        <ele>852</ele>
        <time>2021-08-02T11:33:52.276Z</time>
      </trkpt>
      <trkpt lat="47.02317" lon="8.93852">
        <ele>852</ele>
        <time>2021-08-02T11:33:53.276Z</time>
      </trkpt>
      <trkpt lat="47.02318" lon="8.93853">
        <ele>852</ele>
        <time>2021-08-02T11:33:54.276Z</time>
      </trkpt>
      <trkpt lat="47.02318" lon="8.93854">
        <ele>852</ele>
        <time>2021-08-02T11:33:55.276Z</time>
      </trkpt>
      <trkpt lat="47.02319" lon="8.93856">
        <ele>852</ele>
        <time>2021-08-02T11:34:06.395Z</time>
      </trkpt>
      <trkpt lat="47.02319" lon="8.93857">
        <ele>852</ele>
        <time>2021-08-02T11:34:07.395Z</time>
      </trkpt>
      <trkpt lat="47.02319" lon="8.93859">
        <ele>853</ele>
        <time>2021-08-02T11:34:08.395Z</time>
      </trkpt>
      <trkpt lat="47.0232" lon="8.9386">
        <ele>853</ele>
        <time>2021-08-02T11:34:12.394Z</time>
      </trkpt>
      <trkpt lat="47.02321" lon="8.93861">
        <ele>853</ele>
        <time>2021-08-02T11:34:13.394Z</time>
      </trkpt>
      <trkpt lat="47.02321" lon="8.93862">
        <ele>854</ele>
        <time>2021-08-02T11:34:14.394Z</time>
      </trkpt>
      <trkpt lat="47.02322" lon="8.93863">
        <ele>854</ele>
        <time>2021-08-02T11:34:15.394Z</time>
      </trkpt>
      <trkpt lat="47.02323" lon="8.93864">
        <ele>855</ele>
        <time>2021-08-02T11:34:17.533Z</time>
      </trkpt>
      <trkpt lat="47.02323" lon="8.93866">
        <ele>855</ele>
        <time>2021-08-02T11:34:18.533Z</time>
      </trkpt>
      <trkpt lat="47.02324" lon="8.93867">
        <ele>856</ele>
        <time>2021-08-02T11:34:19.533Z</time>
      </trkpt>
      <trkpt lat="47.02324" lon="8.93869">
        <ele>856</ele>
        <time>2021-08-02T11:34:20.533Z</time>
      </trkpt>
      <trkpt lat="47.02325" lon="8.93871">
        <ele>857</ele>
        <time>2021-08-02T11:34:21.533Z</time>
      </trkpt>
      <trkpt lat="47.02326" lon="8.93873">
        <ele>857</ele>
        <time>2021-08-02T11:34:22.533Z</time>
      </trkpt>
      <trkpt lat="47.02326" lon="8.93875">
        <ele>858</ele>
        <time>2021-08-02T11:34:23.533Z</time>
      </trkpt>
      <trkpt lat="47.02326" lon="8.93877">
        <ele>858</ele>
        <time>2021-08-02T11:34:37.642Z</time>
      </trkpt>
      <trkpt lat="47.02327" lon="8.93879">
        <ele>858</ele>
        <time>2021-08-02T11:34:38.642Z</time>
      </trkpt>
      <trkpt lat="47.02327" lon="8.93881">
        <ele>858</ele>
        <time>2021-08-02T11:34:39.642Z</time>
      </trkpt>
      <trkpt lat="47.02327" lon="8.93884">
        <ele>858</ele>
        <time>2021-08-02T11:34:40.642Z</time>
      </trkpt>
      <trkpt lat="47.02328" lon="8.93886">
        <ele>858</ele>
        <time>2021-08-02T11:34:41.642Z</time>
      </trkpt>
      <trkpt lat="47.02328" lon="8.93887">
        <ele>858</ele>
        <time>2021-08-02T11:34:42.642Z</time>
      </trkpt>
      <trkpt lat="47.02329" lon="8.93889">
        <ele>858</ele>
        <time>2021-08-02T11:34:43.642Z</time>
      </trkpt>
      <trkpt lat="47.02329" lon="8.93891">
        <ele>858</ele>
        <time>2021-08-02T11:34:44.642Z</time>
      </trkpt>
      <trkpt lat="47.02328" lon="8.93892">
        <ele>858</ele>
        <time>2021-08-02T11:34:45.642Z</time>
      </trkpt>
      <trkpt lat="47.02329" lon="8.93892">
        <ele>858</ele>
        <time>2021-08-02T11:34:46.642Z</time>
      </trkpt>
      <trkpt lat="47.02329" lon="8.93894">
        <ele>858</ele>
        <time>2021-08-02T11:34:47.642Z</time>
      </trkpt>
      <trkpt lat="47.0233" lon="8.93896">
        <ele>858</ele>
        <time>2021-08-02T11:34:48.642Z</time>
      </trkpt>
      <trkpt lat="47.0233" lon="8.93898">
        <ele>858</ele>
        <time>2021-08-02T11:34:59.647Z</time>
      </trkpt>
      <trkpt lat="47.0233" lon="8.93899">
        <ele>858</ele>
        <time>2021-08-02T11:35:00.647Z</time>
      </trkpt>
      <trkpt lat="47.02331" lon="8.93901">
        <ele>858</ele>
        <time>2021-08-02T11:35:06.375Z</time>
      </trkpt>
      <trkpt lat="47.02331" lon="8.93902">
        <ele>858</ele>
        <time>2021-08-02T11:35:07.375Z</time>
      </trkpt>
      <trkpt lat="47.02332" lon="8.93904">
        <ele>858</ele>
        <time>2021-08-02T11:35:08.375Z</time>
      </trkpt>
      <trkpt lat="47.02332" lon="8.93906">
        <ele>858</ele>
        <time>2021-08-02T11:35:09.375Z</time>
      </trkpt>
      <trkpt lat="47.02332" lon="8.93908">
        <ele>858</ele>
        <time>2021-08-02T11:35:10.375Z</time>
      </trkpt>
      <trkpt lat="47.02332" lon="8.93908">
        <ele>858</ele>
        <time>2021-08-02T11:35:11.375Z</time>
      </trkpt>
      <trkpt lat="47.02332" lon="8.9391">
        <ele>858</ele>
        <time>2021-08-02T11:35:12.375Z</time>
      </trkpt>
      <trkpt lat="47.02333" lon="8.93912">
        <ele>857</ele>
        <time>2021-08-02T11:35:13.375Z</time>
      </trkpt>
      <trkpt lat="47.02334" lon="8.93914">
        <ele>857</ele>
        <time>2021-08-02T11:35:14.375Z</time>
      </trkpt>
      <trkpt lat="47.02335" lon="8.93917">
        <ele>857</ele>
        <time>2021-08-02T11:35:15.375Z</time>
      </trkpt>
      <trkpt lat="47.02335" lon="8.93918">
        <ele>858</ele>
        <time>2021-08-02T11:35:21.379Z</time>
      </trkpt>
      <trkpt lat="47.02335" lon="8.9392">
        <ele>858</ele>
        <time>2021-08-02T11:35:22.379Z</time>
      </trkpt>
      <trkpt lat="47.02336" lon="8.93921">
        <ele>858</ele>
        <time>2021-08-02T11:35:23.379Z</time>
      </trkpt>
      <trkpt lat="47.02336" lon="8.93922">
        <ele>858</ele>
        <time>2021-08-02T11:35:24.379Z</time>
      </trkpt>
      <trkpt lat="47.02336" lon="8.93924">
        <ele>858</ele>
        <time>2021-08-02T11:35:25.379Z</time>
      </trkpt>
      <trkpt lat="47.02337" lon="8.93925">
        <ele>858</ele>
        <time>2021-08-02T11:35:26.379Z</time>
      </trkpt>
      <trkpt lat="47.02338" lon="8.93926">
        <ele>858</ele>
        <time>2021-08-02T11:35:27.379Z</time>
      </trkpt>
      <trkpt lat="47.02339" lon="8.93929">
        <ele>858</ele>
        <time>2021-08-02T11:35:28.379Z</time>
      </trkpt>
      <trkpt lat="47.02339" lon="8.93931">
        <ele>858</ele>
        <time>2021-08-02T11:35:29.379Z</time>
      </trkpt>
      <trkpt lat="47.02341" lon="8.93934">
        <ele>858</ele>
        <time>2021-08-02T11:35:30.379Z</time>
      </trkpt>
      <trkpt lat="47.02342" lon="8.93936">
        <ele>858</ele>
        <time>2021-08-02T11:35:31.379Z</time>
      </trkpt>
      <trkpt lat="47.02344" lon="8.93937">
        <ele>858</ele>
        <time>2021-08-02T11:35:32.379Z</time>
      </trkpt>
      <trkpt lat="47.02345" lon="8.93938">
        <ele>858</ele>
        <time>2021-08-02T11:35:33.379Z</time>
      </trkpt>
      <trkpt lat="47.02347" lon="8.9394">
        <ele>858</ele>
        <time>2021-08-02T11:35:34.379Z</time>
      </trkpt>
      <trkpt lat="47.02347" lon="8.93941">
        <ele>858</ele>
        <time>2021-08-02T11:35:35.379Z</time>
      </trkpt>
      <trkpt lat="47.02347" lon="8.93943">
        <ele>858</ele>
        <time>2021-08-02T11:35:36.379Z</time>
      </trkpt>
      <trkpt lat="47.02348" lon="8.93945">
        <ele>857</ele>
        <time>2021-08-02T11:35:37.379Z</time>
      </trkpt>
      <trkpt lat="47.02348" lon="8.93946">
        <ele>857</ele>
        <time>2021-08-02T11:35:38.379Z</time>
      </trkpt>
      <trkpt lat="47.02349" lon="8.93947">
        <ele>856</ele>
        <time>2021-08-02T11:35:39.379Z</time>
      </trkpt>
      <trkpt lat="47.02349" lon="8.93948">
        <ele>856</ele>
        <time>2021-08-02T11:35:42.372Z</time>
      </trkpt>
      <trkpt lat="47.0235" lon="8.93949">
        <ele>855</ele>
        <time>2021-08-02T11:35:43.372Z</time>
      </trkpt>
      <trkpt lat="47.02351" lon="8.9395">
        <ele>854</ele>
        <time>2021-08-02T11:35:44.372Z</time>
      </trkpt>
      <trkpt lat="47.02351" lon="8.93951">
        <ele>853</ele>
        <time>2021-08-02T11:35:45.372Z</time>
      </trkpt>
      <trkpt lat="47.02352" lon="8.93952">
        <ele>853</ele>
        <time>2021-08-02T11:35:46.372Z</time>
      </trkpt>
      <trkpt lat="47.02352" lon="8.93953">
        <ele>852</ele>
        <time>2021-08-02T11:35:47.372Z</time>
      </trkpt>
      <trkpt lat="47.02353" lon="8.93955">
        <ele>851</ele>
        <time>2021-08-02T11:35:48.372Z</time>
      </trkpt>
      <trkpt lat="47.02353" lon="8.93956">
        <ele>850</ele>
        <time>2021-08-02T11:35:49.372Z</time>
      </trkpt>
      <trkpt lat="47.02353" lon="8.93957">
        <ele>849</ele>
        <time>2021-08-02T11:35:50.372Z</time>
      </trkpt>
      <trkpt lat="47.02354" lon="8.93958">
        <ele>848</ele>
        <time>2021-08-02T11:35:51.372Z</time>
      </trkpt>
      <trkpt lat="47.02355" lon="8.9396">
        <ele>848</ele>
        <time>2021-08-02T11:35:52.372Z</time>
      </trkpt>
      <trkpt lat="47.02356" lon="8.93961">
        <ele>847</ele>
        <time>2021-08-02T11:35:53.372Z</time>
      </trkpt>
      <trkpt lat="47.02356" lon="8.93963">
        <ele>847</ele>
        <time>2021-08-02T11:35:54.372Z</time>
      </trkpt>
      <trkpt lat="47.02357" lon="8.93964">
        <ele>847</ele>
        <time>2021-08-02T11:35:55.372Z</time>
      </trkpt>
      <trkpt lat="47.02359" lon="8.93966">
        <ele>847</ele>
        <time>2021-08-02T11:35:56.372Z</time>
      </trkpt>
      <trkpt lat="47.0236" lon="8.93968">
        <ele>847</ele>
        <time>2021-08-02T11:35:57.372Z</time>
      </trkpt>
      <trkpt lat="47.02361" lon="8.93969">
        <ele>847</ele>
        <time>2021-08-02T11:35:58.372Z</time>
      </trkpt>
      <trkpt lat="47.02362" lon="8.9397">
        <ele>847</ele>
        <time>2021-08-02T11:35:59.372Z</time>
      </trkpt>
      <trkpt lat="47.02363" lon="8.93971">
        <ele>847</ele>
        <time>2021-08-02T11:36:00.372Z</time>
      </trkpt>
      <trkpt lat="47.02364" lon="8.93971">
        <ele>847</ele>
        <time>2021-08-02T11:36:01.372Z</time>
      </trkpt>
      <trkpt lat="47.02364" lon="8.93972">
        <ele>847</ele>
        <time>2021-08-02T11:36:02.372Z</time>
      </trkpt>
      <trkpt lat="47.02365" lon="8.93974">
        <ele>847</ele>
        <time>2021-08-02T11:36:03.372Z</time>
      </trkpt>
      <trkpt lat="47.02366" lon="8.93976">
        <ele>847</ele>
        <time>2021-08-02T11:36:04.372Z</time>
      </trkpt>
      <trkpt lat="47.02367" lon="8.93977">
        <ele>848</ele>
        <time>2021-08-02T11:36:05.372Z</time>
      </trkpt>
      <trkpt lat="47.02368" lon="8.93978">
        <ele>848</ele>
        <time>2021-08-02T11:36:06.372Z</time>
      </trkpt>
      <trkpt lat="47.02369" lon="8.93979">
        <ele>848</ele>
        <time>2021-08-02T11:36:07.372Z</time>
      </trkpt>
      <trkpt lat="47.0237" lon="8.93981">
        <ele>849</ele>
        <time>2021-08-02T11:36:08.372Z</time>
      </trkpt>
      <trkpt lat="47.0237" lon="8.93982">
        <ele>849</ele>
        <time>2021-08-02T11:36:09.372Z</time>
      </trkpt>
      <trkpt lat="47.02371" lon="8.93985">
        <ele>849</ele>
        <time>2021-08-02T11:36:10.372Z</time>
      </trkpt>
      <trkpt lat="47.02371" lon="8.93988">
        <ele>850</ele>
        <time>2021-08-02T11:36:11.372Z</time>
      </trkpt>
      <trkpt lat="47.02372" lon="8.93988">
        <ele>850</ele>
        <time>2021-08-02T11:36:12.372Z</time>
      </trkpt>
      <trkpt lat="47.02373" lon="8.93989">
        <ele>850</ele>
        <time>2021-08-02T11:36:13.372Z</time>
      </trkpt>
      <trkpt lat="47.02374" lon="8.9399">
        <ele>849</ele>
        <time>2021-08-02T11:36:14.372Z</time>
      </trkpt>
      <trkpt lat="47.02375" lon="8.93991">
        <ele>849</ele>
        <time>2021-08-02T11:36:15.372Z</time>
      </trkpt>
      <trkpt lat="47.02376" lon="8.93992">
        <ele>849</ele>
        <time>2021-08-02T11:36:16.372Z</time>
      </trkpt>
      <trkpt lat="47.02377" lon="8.93993">
        <ele>848</ele>
        <time>2021-08-02T11:36:17.372Z</time>
      </trkpt>
      <trkpt lat="47.02377" lon="8.93994">
        <ele>848</ele>
        <time>2021-08-02T11:36:18.372Z</time>
      </trkpt>
      <trkpt lat="47.02378" lon="8.93995">
        <ele>848</ele>
        <time>2021-08-02T11:36:19.372Z</time>
      </trkpt>
      <trkpt lat="47.02379" lon="8.93996">
        <ele>848</ele>
        <time>2021-08-02T11:36:20.372Z</time>
      </trkpt>
      <trkpt lat="47.0238" lon="8.93997">
        <ele>849</ele>
        <time>2021-08-02T11:36:21.372Z</time>
      </trkpt>
      <trkpt lat="47.0238" lon="8.93998">
        <ele>849</ele>
        <time>2021-08-02T11:36:22.372Z</time>
      </trkpt>
      <trkpt lat="47.02381" lon="8.94">
        <ele>849</ele>
        <time>2021-08-02T11:36:23.372Z</time>
      </trkpt>
      <trkpt lat="47.02381" lon="8.94002">
        <ele>849</ele>
        <time>2021-08-02T11:36:24.372Z</time>
      </trkpt>
      <trkpt lat="47.02382" lon="8.94004">
        <ele>849</ele>
        <time>2021-08-02T11:36:25.372Z</time>
      </trkpt>
      <trkpt lat="47.02383" lon="8.94005">
        <ele>849</ele>
        <time>2021-08-02T11:36:26.372Z</time>
      </trkpt>
      <trkpt lat="47.02384" lon="8.94006">
        <ele>850</ele>
        <time>2021-08-02T11:36:27.372Z</time>
      </trkpt>
      <trkpt lat="47.02386" lon="8.94007">
        <ele>850</ele>
        <time>2021-08-02T11:36:28.372Z</time>
      </trkpt>
      <trkpt lat="47.02387" lon="8.94008">
        <ele>850</ele>
        <time>2021-08-02T11:36:29.372Z</time>
      </trkpt>
      <trkpt lat="47.02388" lon="8.94009">
        <ele>851</ele>
        <time>2021-08-02T11:36:30.372Z</time>
      </trkpt>
      <trkpt lat="47.02389" lon="8.9401">
        <ele>852</ele>
        <time>2021-08-02T11:36:31.372Z</time>
      </trkpt>
      <trkpt lat="47.02389" lon="8.94012">
        <ele>852</ele>
        <time>2021-08-02T11:36:32.372Z</time>
      </trkpt>
      <trkpt lat="47.0239" lon="8.94014">
        <ele>853</ele>
        <time>2021-08-02T11:36:33.372Z</time>
      </trkpt>
      <trkpt lat="47.0239" lon="8.94016">
        <ele>854</ele>
        <time>2021-08-02T11:36:34.372Z</time>
      </trkpt>
      <trkpt lat="47.02391" lon="8.94018">
        <ele>854</ele>
        <time>2021-08-02T11:36:35.372Z</time>
      </trkpt>
      <trkpt lat="47.02391" lon="8.9402">
        <ele>854</ele>
        <time>2021-08-02T11:36:36.372Z</time>
      </trkpt>
      <trkpt lat="47.02391" lon="8.94022">
        <ele>855</ele>
        <time>2021-08-02T11:36:37.372Z</time>
      </trkpt>
      <trkpt lat="47.0239" lon="8.94024">
        <ele>855</ele>
        <time>2021-08-02T11:36:38.372Z</time>
      </trkpt>
      <trkpt lat="47.02389" lon="8.94025">
        <ele>855</ele>
        <time>2021-08-02T11:36:39.372Z</time>
      </trkpt>
      <trkpt lat="47.0239" lon="8.94027">
        <ele>856</ele>
        <time>2021-08-02T11:36:40.372Z</time>
      </trkpt>
      <trkpt lat="47.0239" lon="8.94029">
        <ele>856</ele>
        <time>2021-08-02T11:36:41.372Z</time>
      </trkpt>
      <trkpt lat="47.0239" lon="8.94031">
        <ele>857</ele>
        <time>2021-08-02T11:36:42.372Z</time>
      </trkpt>
      <trkpt lat="47.02391" lon="8.94032">
        <ele>857</ele>
        <time>2021-08-02T11:36:43.372Z</time>
      </trkpt>
      <trkpt lat="47.02391" lon="8.94033">
        <ele>857</ele>
        <time>2021-08-02T11:36:44.372Z</time>
      </trkpt>
      <trkpt lat="47.02391" lon="8.94035">
        <ele>858</ele>
        <time>2021-08-02T11:36:45.372Z</time>
      </trkpt>
      <trkpt lat="47.02391" lon="8.94036">
        <ele>858</ele>
        <time>2021-08-02T11:36:46.372Z</time>
      </trkpt>
      <trkpt lat="47.02391" lon="8.94038">
        <ele>859</ele>
        <time>2021-08-02T11:36:47.372Z</time>
      </trkpt>
      <trkpt lat="47.02391" lon="8.9404">
        <ele>860</ele>
        <time>2021-08-02T11:36:48.372Z</time>
      </trkpt>
      <trkpt lat="47.02391" lon="8.94042">
        <ele>860</ele>
        <time>2021-08-02T11:36:49.372Z</time>
      </trkpt>
      <trkpt lat="47.02391" lon="8.94044">
        <ele>861</ele>
        <time>2021-08-02T11:36:50.372Z</time>
      </trkpt>
      <trkpt lat="47.02392" lon="8.94047">
        <ele>862</ele>
        <time>2021-08-02T11:36:51.372Z</time>
      </trkpt>
      <trkpt lat="47.02393" lon="8.9405">
        <ele>862</ele>
        <time>2021-08-02T11:36:52.372Z</time>
      </trkpt>
      <trkpt lat="47.02393" lon="8.94053">
        <ele>863</ele>
        <time>2021-08-02T11:36:53.372Z</time>
      </trkpt>
      <trkpt lat="47.02394" lon="8.94055">
        <ele>864</ele>
        <time>2021-08-02T11:36:54.372Z</time>
      </trkpt>
      <trkpt lat="47.02394" lon="8.94057">
        <ele>864</ele>
        <time>2021-08-02T11:36:55.372Z</time>
      </trkpt>
      <trkpt lat="47.02394" lon="8.94058">
        <ele>865</ele>
        <time>2021-08-02T11:36:56.372Z</time>
      </trkpt>
      <trkpt lat="47.02395" lon="8.94058">
        <ele>865</ele>
        <time>2021-08-02T11:36:57.372Z</time>
      </trkpt>
      <trkpt lat="47.02396" lon="8.94059">
        <ele>865</ele>
        <time>2021-08-02T11:36:58.372Z</time>
      </trkpt>
      <trkpt lat="47.02396" lon="8.9406">
        <ele>865</ele>
        <time>2021-08-02T11:36:59.372Z</time>
      </trkpt>
      <trkpt lat="47.02397" lon="8.94061">
        <ele>865</ele>
        <time>2021-08-02T11:37:00.372Z</time>
      </trkpt>
      <trkpt lat="47.02399" lon="8.94062">
        <ele>865</ele>
        <time>2021-08-02T11:37:01.372Z</time>
      </trkpt>
      <trkpt lat="47.02401" lon="8.94063">
        <ele>865</ele>
        <time>2021-08-02T11:37:02.372Z</time>
      </trkpt>
      <trkpt lat="47.02402" lon="8.94063">
        <ele>864</ele>
        <time>2021-08-02T11:37:03.372Z</time>
      </trkpt>
      <trkpt lat="47.02404" lon="8.94063">
        <ele>864</ele>
        <time>2021-08-02T11:37:04.372Z</time>
      </trkpt>
      <trkpt lat="47.02405" lon="8.94063">
        <ele>864</ele>
        <time>2021-08-02T11:37:05.372Z</time>
      </trkpt>
      <trkpt lat="47.02406" lon="8.94064">
        <ele>863</ele>
        <time>2021-08-02T11:37:06.372Z</time>
      </trkpt>
      <trkpt lat="47.02406" lon="8.94064">
        <ele>863</ele>
        <time>2021-08-02T11:37:07.372Z</time>
      </trkpt>
      <trkpt lat="47.02407" lon="8.94064">
        <ele>863</ele>
        <time>2021-08-02T11:37:08.372Z</time>
      </trkpt>
      <trkpt lat="47.02407" lon="8.94064">
        <ele>863</ele>
        <time>2021-08-02T11:37:09.372Z</time>
      </trkpt>
      <trkpt lat="47.02404" lon="8.94065">
        <ele>860</ele>
        <time>2021-08-02T11:37:10.373Z</time>
      </trkpt>
      <trkpt lat="47.02404" lon="8.94066">
        <ele>860</ele>
        <time>2021-08-02T11:37:11.372Z</time>
      </trkpt>
      <trkpt lat="47.02403" lon="8.94066">
        <ele>860</ele>
        <time>2021-08-02T11:37:12.372Z</time>
      </trkpt>
      <trkpt lat="47.02403" lon="8.94068">
        <ele>859</ele>
        <time>2021-08-02T11:37:13.373Z</time>
      </trkpt>
      <trkpt lat="47.02403" lon="8.94069">
        <ele>859</ele>
        <time>2021-08-02T11:37:14.372Z</time>
      </trkpt>
      <trkpt lat="47.02403" lon="8.94071">
        <ele>859</ele>
        <time>2021-08-02T11:37:15.372Z</time>
      </trkpt>
      <trkpt lat="47.02403" lon="8.94073">
        <ele>858</ele>
        <time>2021-08-02T11:37:16.372Z</time>
      </trkpt>
      <trkpt lat="47.02404" lon="8.94075">
        <ele>858</ele>
        <time>2021-08-02T11:37:17.373Z</time>
      </trkpt>
      <trkpt lat="47.02404" lon="8.94076">
        <ele>857</ele>
        <time>2021-08-02T11:37:18.372Z</time>
      </trkpt>
      <trkpt lat="47.02404" lon="8.94078">
        <ele>856</ele>
        <time>2021-08-02T11:37:19.372Z</time>
      </trkpt>
      <trkpt lat="47.02405" lon="8.9408">
        <ele>855</ele>
        <time>2021-08-02T11:37:20.372Z</time>
      </trkpt>
      <trkpt lat="47.02405" lon="8.94082">
        <ele>854</ele>
        <time>2021-08-02T11:37:21.372Z</time>
      </trkpt>
      <trkpt lat="47.02406" lon="8.94084">
        <ele>854</ele>
        <time>2021-08-02T11:37:22.372Z</time>
      </trkpt>
      <trkpt lat="47.02407" lon="8.94085">
        <ele>854</ele>
        <time>2021-08-02T11:37:23.372Z</time>
      </trkpt>
      <trkpt lat="47.02407" lon="8.94087">
        <ele>854</ele>
        <time>2021-08-02T11:37:24.372Z</time>
      </trkpt>
      <trkpt lat="47.02408" lon="8.94089">
        <ele>854</ele>
        <time>2021-08-02T11:37:25.372Z</time>
      </trkpt>
      <trkpt lat="47.02408" lon="8.94092">
        <ele>854</ele>
        <time>2021-08-02T11:37:26.372Z</time>
      </trkpt>
      <trkpt lat="47.02409" lon="8.94094">
        <ele>854</ele>
        <time>2021-08-02T11:37:27.372Z</time>
      </trkpt>
      <trkpt lat="47.02409" lon="8.94096">
        <ele>855</ele>
        <time>2021-08-02T11:37:28.372Z</time>
      </trkpt>
      <trkpt lat="47.02409" lon="8.94098">
        <ele>855</ele>
        <time>2021-08-02T11:37:29.373Z</time>
      </trkpt>
      <trkpt lat="47.0241" lon="8.94099">
        <ele>856</ele>
        <time>2021-08-02T11:37:30.372Z</time>
      </trkpt>
      <trkpt lat="47.0241" lon="8.941">
        <ele>856</ele>
        <time>2021-08-02T11:37:31.373Z</time>
      </trkpt>
      <trkpt lat="47.02411" lon="8.94102">
        <ele>856</ele>
        <time>2021-08-02T11:37:32.373Z</time>
      </trkpt>
      <trkpt lat="47.02411" lon="8.94104">
        <ele>856</ele>
        <time>2021-08-02T11:37:33.373Z</time>
      </trkpt>
      <trkpt lat="47.02412" lon="8.94106">
        <ele>855</ele>
        <time>2021-08-02T11:37:34.372Z</time>
      </trkpt>
      <trkpt lat="47.02412" lon="8.94107">
        <ele>856</ele>
        <time>2021-08-02T11:37:35.373Z</time>
      </trkpt>
      <trkpt lat="47.02412" lon="8.94109">
        <ele>856</ele>
        <time>2021-08-02T11:37:36.372Z</time>
      </trkpt>
      <trkpt lat="47.02413" lon="8.94111">
        <ele>856</ele>
        <time>2021-08-02T11:37:37.372Z</time>
      </trkpt>
      <trkpt lat="47.02413" lon="8.94113">
        <ele>856</ele>
        <time>2021-08-02T11:37:38.372Z</time>
      </trkpt>
      <trkpt lat="47.02413" lon="8.94115">
        <ele>856</ele>
        <time>2021-08-02T11:37:39.372Z</time>
      </trkpt>
      <trkpt lat="47.02413" lon="8.94117">
        <ele>856</ele>
        <time>2021-08-02T11:37:40.372Z</time>
      </trkpt>
      <trkpt lat="47.02414" lon="8.94118">
        <ele>856</ele>
        <time>2021-08-02T11:37:41.372Z</time>
      </trkpt>
      <trkpt lat="47.02414" lon="8.9412">
        <ele>856</ele>
        <time>2021-08-02T11:37:42.372Z</time>
      </trkpt>
      <trkpt lat="47.02414" lon="8.94122">
        <ele>856</ele>
        <time>2021-08-02T11:37:43.373Z</time>
      </trkpt>
      <trkpt lat="47.02414" lon="8.94123">
        <ele>856</ele>
        <time>2021-08-02T11:37:44.373Z</time>
      </trkpt>
      <trkpt lat="47.02415" lon="8.94125">
        <ele>856</ele>
        <time>2021-08-02T11:37:45.373Z</time>
      </trkpt>
      <trkpt lat="47.02416" lon="8.94127">
        <ele>856</ele>
        <time>2021-08-02T11:37:46.372Z</time>
      </trkpt>
      <trkpt lat="47.02416" lon="8.94129">
        <ele>857</ele>
        <time>2021-08-02T11:37:47.372Z</time>
      </trkpt>
      <trkpt lat="47.02416" lon="8.94131">
        <ele>857</ele>
        <time>2021-08-02T11:37:48.372Z</time>
      </trkpt>
      <trkpt lat="47.02416" lon="8.94133">
        <ele>857</ele>
        <time>2021-08-02T11:37:49.372Z</time>
      </trkpt>
      <trkpt lat="47.02417" lon="8.94134">
        <ele>857</ele>
        <time>2021-08-02T11:37:50.372Z</time>
      </trkpt>
      <trkpt lat="47.02417" lon="8.94136">
        <ele>857</ele>
        <time>2021-08-02T11:37:51.373Z</time>
      </trkpt>
      <trkpt lat="47.02418" lon="8.94138">
        <ele>856</ele>
        <time>2021-08-02T11:37:52.373Z</time>
      </trkpt>
      <trkpt lat="47.02418" lon="8.9414">
        <ele>856</ele>
        <time>2021-08-02T11:37:53.373Z</time>
      </trkpt>
      <trkpt lat="47.02419" lon="8.94142">
        <ele>855</ele>
        <time>2021-08-02T11:37:54.372Z</time>
      </trkpt>
      <trkpt lat="47.02419" lon="8.94144">
        <ele>855</ele>
        <time>2021-08-02T11:37:55.372Z</time>
      </trkpt>
      <trkpt lat="47.02419" lon="8.94145">
        <ele>854</ele>
        <time>2021-08-02T11:37:56.373Z</time>
      </trkpt>
      <trkpt lat="47.0242" lon="8.94147">
        <ele>854</ele>
        <time>2021-08-02T11:37:57.372Z</time>
      </trkpt>
      <trkpt lat="47.0242" lon="8.94149">
        <ele>853</ele>
        <time>2021-08-02T11:37:58.372Z</time>
      </trkpt>
      <trkpt lat="47.02421" lon="8.9415">
        <ele>852</ele>
        <time>2021-08-02T11:37:59.372Z</time>
      </trkpt>
      <trkpt lat="47.02421" lon="8.94152">
        <ele>851</ele>
        <time>2021-08-02T11:38:00.372Z</time>
      </trkpt>
      <trkpt lat="47.02422" lon="8.94153">
        <ele>851</ele>
        <time>2021-08-02T11:38:01.372Z</time>
      </trkpt>
      <trkpt lat="47.02422" lon="8.94155">
        <ele>850</ele>
        <time>2021-08-02T11:38:02.373Z</time>
      </trkpt>
      <trkpt lat="47.02423" lon="8.94157">
        <ele>850</ele>
        <time>2021-08-02T11:38:03.372Z</time>
      </trkpt>
      <trkpt lat="47.02423" lon="8.94158">
        <ele>850</ele>
        <time>2021-08-02T11:38:04.372Z</time>
      </trkpt>
      <trkpt lat="47.02424" lon="8.9416">
        <ele>850</ele>
        <time>2021-08-02T11:38:05.372Z</time>
      </trkpt>
      <trkpt lat="47.02424" lon="8.94161">
        <ele>851</ele>
        <time>2021-08-02T11:38:06.372Z</time>
      </trkpt>
      <trkpt lat="47.02425" lon="8.94163">
        <ele>852</ele>
        <time>2021-08-02T11:38:07.372Z</time>
      </trkpt>
      <trkpt lat="47.02425" lon="8.94164">
        <ele>852</ele>
        <time>2021-08-02T11:38:08.373Z</time>
      </trkpt>
      <trkpt lat="47.02426" lon="8.94166">
        <ele>853</ele>
        <time>2021-08-02T11:38:09.372Z</time>
      </trkpt>
      <trkpt lat="47.02427" lon="8.94167">
        <ele>853</ele>
        <time>2021-08-02T11:38:10.373Z</time>
      </trkpt>
      <trkpt lat="47.02427" lon="8.94168">
        <ele>853</ele>
        <time>2021-08-02T11:38:11.372Z</time>
      </trkpt>
      <trkpt lat="47.02428" lon="8.9417">
        <ele>853</ele>
        <time>2021-08-02T11:38:12.373Z</time>
      </trkpt>
      <trkpt lat="47.02428" lon="8.94172">
        <ele>853</ele>
        <time>2021-08-02T11:38:13.372Z</time>
      </trkpt>
      <trkpt lat="47.02429" lon="8.94173">
        <ele>853</ele>
        <time>2021-08-02T11:38:14.372Z</time>
      </trkpt>
      <trkpt lat="47.0243" lon="8.94175">
        <ele>853</ele>
        <time>2021-08-02T11:38:15.372Z</time>
      </trkpt>
      <trkpt lat="47.02431" lon="8.94177">
        <ele>853</ele>
        <time>2021-08-02T11:38:16.373Z</time>
      </trkpt>
      <trkpt lat="47.02431" lon="8.94178">
        <ele>853</ele>
        <time>2021-08-02T11:38:17.372Z</time>
      </trkpt>
      <trkpt lat="47.02432" lon="8.9418">
        <ele>854</ele>
        <time>2021-08-02T11:38:18.372Z</time>
      </trkpt>
      <trkpt lat="47.02432" lon="8.94181">
        <ele>854</ele>
        <time>2021-08-02T11:38:19.372Z</time>
      </trkpt>
      <trkpt lat="47.02433" lon="8.94182">
        <ele>854</ele>
        <time>2021-08-02T11:38:20.372Z</time>
      </trkpt>
      <trkpt lat="47.02434" lon="8.94184">
        <ele>854</ele>
        <time>2021-08-02T11:38:21.372Z</time>
      </trkpt>
      <trkpt lat="47.02434" lon="8.94186">
        <ele>855</ele>
        <time>2021-08-02T11:38:22.373Z</time>
      </trkpt>
      <trkpt lat="47.02435" lon="8.94188">
        <ele>855</ele>
        <time>2021-08-02T11:38:23.373Z</time>
      </trkpt>
      <trkpt lat="47.02435" lon="8.94189">
        <ele>855</ele>
        <time>2021-08-02T11:38:24.372Z</time>
      </trkpt>
      <trkpt lat="47.02436" lon="8.94191">
        <ele>856</ele>
        <time>2021-08-02T11:38:25.372Z</time>
      </trkpt>
      <trkpt lat="47.02436" lon="8.94193">
        <ele>856</ele>
        <time>2021-08-02T11:38:26.372Z</time>
      </trkpt>
      <trkpt lat="47.02437" lon="8.94194">
        <ele>856</ele>
        <time>2021-08-02T11:38:27.373Z</time>
      </trkpt>
      <trkpt lat="47.02438" lon="8.94196">
        <ele>856</ele>
        <time>2021-08-02T11:38:28.372Z</time>
      </trkpt>
      <trkpt lat="47.02438" lon="8.94198">
        <ele>856</ele>
        <time>2021-08-02T11:38:29.373Z</time>
      </trkpt>
      <trkpt lat="47.02438" lon="8.942">
        <ele>856</ele>
        <time>2021-08-02T11:38:30.372Z</time>
      </trkpt>
      <trkpt lat="47.02439" lon="8.94202">
        <ele>856</ele>
        <time>2021-08-02T11:38:31.373Z</time>
      </trkpt>
      <trkpt lat="47.02439" lon="8.94204">
        <ele>856</ele>
        <time>2021-08-02T11:38:32.372Z</time>
      </trkpt>
      <trkpt lat="47.0244" lon="8.94205">
        <ele>856</ele>
        <time>2021-08-02T11:38:33.373Z</time>
      </trkpt>
      <trkpt lat="47.02441" lon="8.94207">
        <ele>856</ele>
        <time>2021-08-02T11:38:34.373Z</time>
      </trkpt>
      <trkpt lat="47.02441" lon="8.94209">
        <ele>856</ele>
        <time>2021-08-02T11:38:35.372Z</time>
      </trkpt>
      <trkpt lat="47.02442" lon="8.94211">
        <ele>856</ele>
        <time>2021-08-02T11:38:36.372Z</time>
      </trkpt>
      <trkpt lat="47.02442" lon="8.94212">
        <ele>856</ele>
        <time>2021-08-02T11:38:37.373Z</time>
      </trkpt>
      <trkpt lat="47.02443" lon="8.94214">
        <ele>856</ele>
        <time>2021-08-02T11:38:38.373Z</time>
      </trkpt>
      <trkpt lat="47.02444" lon="8.94216">
        <ele>856</ele>
        <time>2021-08-02T11:38:39.372Z</time>
      </trkpt>
      <trkpt lat="47.02444" lon="8.94217">
        <ele>856</ele>
        <time>2021-08-02T11:38:40.372Z</time>
      </trkpt>
      <trkpt lat="47.02444" lon="8.94219">
        <ele>856</ele>
        <time>2021-08-02T11:38:41.372Z</time>
      </trkpt>
      <trkpt lat="47.02445" lon="8.94221">
        <ele>856</ele>
        <time>2021-08-02T11:38:42.372Z</time>
      </trkpt>
      <trkpt lat="47.02445" lon="8.94223">
        <ele>856</ele>
        <time>2021-08-02T11:38:43.373Z</time>
      </trkpt>
      <trkpt lat="47.02445" lon="8.94225">
        <ele>855</ele>
        <time>2021-08-02T11:38:44.372Z</time>
      </trkpt>
      <trkpt lat="47.02445" lon="8.94227">
        <ele>854</ele>
        <time>2021-08-02T11:38:45.372Z</time>
      </trkpt>
      <trkpt lat="47.02446" lon="8.94228">
        <ele>853</ele>
        <time>2021-08-02T11:38:46.373Z</time>
      </trkpt>
      <trkpt lat="47.02446" lon="8.9423">
        <ele>852</ele>
        <time>2021-08-02T11:38:47.373Z</time>
      </trkpt>
      <trkpt lat="47.02446" lon="8.94231">
        <ele>852</ele>
        <time>2021-08-02T11:38:48.372Z</time>
      </trkpt>
      <trkpt lat="47.02447" lon="8.94233">
        <ele>851</ele>
        <time>2021-08-02T11:38:49.373Z</time>
      </trkpt>
      <trkpt lat="47.02447" lon="8.94235">
        <ele>851</ele>
        <time>2021-08-02T11:38:50.372Z</time>
      </trkpt>
      <trkpt lat="47.02448" lon="8.94236">
        <ele>850</ele>
        <time>2021-08-02T11:38:51.372Z</time>
      </trkpt>
      <trkpt lat="47.02448" lon="8.94238">
        <ele>850</ele>
        <time>2021-08-02T11:38:52.373Z</time>
      </trkpt>
      <trkpt lat="47.02449" lon="8.94239">
        <ele>849</ele>
        <time>2021-08-02T11:38:53.372Z</time>
      </trkpt>
      <trkpt lat="47.0245" lon="8.94241">
        <ele>849</ele>
        <time>2021-08-02T11:38:54.373Z</time>
      </trkpt>
      <trkpt lat="47.0245" lon="8.94243">
        <ele>849</ele>
        <time>2021-08-02T11:38:55.373Z</time>
      </trkpt>
      <trkpt lat="47.0245" lon="8.94245">
        <ele>848</ele>
        <time>2021-08-02T11:38:56.373Z</time>
      </trkpt>
      <trkpt lat="47.0245" lon="8.94246">
        <ele>848</ele>
        <time>2021-08-02T11:38:57.373Z</time>
      </trkpt>
      <trkpt lat="47.02451" lon="8.94249">
        <ele>848</ele>
        <time>2021-08-02T11:38:58.373Z</time>
      </trkpt>
      <trkpt lat="47.02451" lon="8.9425">
        <ele>848</ele>
        <time>2021-08-02T11:38:59.373Z</time>
      </trkpt>
      <trkpt lat="47.02452" lon="8.94251">
        <ele>848</ele>
        <time>2021-08-02T11:39:00.372Z</time>
      </trkpt>
      <trkpt lat="47.02453" lon="8.94252">
        <ele>847</ele>
        <time>2021-08-02T11:39:01.373Z</time>
      </trkpt>
      <trkpt lat="47.02453" lon="8.94253">
        <ele>847</ele>
        <time>2021-08-02T11:39:02.373Z</time>
      </trkpt>
      <trkpt lat="47.02454" lon="8.94255">
        <ele>848</ele>
        <time>2021-08-02T11:39:03.372Z</time>
      </trkpt>
      <trkpt lat="47.02455" lon="8.94256">
        <ele>848</ele>
        <time>2021-08-02T11:39:04.372Z</time>
      </trkpt>
      <trkpt lat="47.02455" lon="8.94257">
        <ele>849</ele>
        <time>2021-08-02T11:39:05.372Z</time>
      </trkpt>
      <trkpt lat="47.02456" lon="8.94258">
        <ele>849</ele>
        <time>2021-08-02T11:39:06.373Z</time>
      </trkpt>
      <trkpt lat="47.02457" lon="8.9426">
        <ele>849</ele>
        <time>2021-08-02T11:39:07.372Z</time>
      </trkpt>
      <trkpt lat="47.02457" lon="8.94261">
        <ele>850</ele>
        <time>2021-08-02T11:39:08.373Z</time>
      </trkpt>
      <trkpt lat="47.02458" lon="8.94262">
        <ele>851</ele>
        <time>2021-08-02T11:39:09.372Z</time>
      </trkpt>
      <trkpt lat="47.02459" lon="8.94263">
        <ele>851</ele>
        <time>2021-08-02T11:39:10.373Z</time>
      </trkpt>
      <trkpt lat="47.02459" lon="8.94264">
        <ele>852</ele>
        <time>2021-08-02T11:39:11.373Z</time>
      </trkpt>
      <trkpt lat="47.0246" lon="8.94264">
        <ele>852</ele>
        <time>2021-08-02T11:39:12.373Z</time>
      </trkpt>
      <trkpt lat="47.02461" lon="8.94266">
        <ele>853</ele>
        <time>2021-08-02T11:39:13.372Z</time>
      </trkpt>
      <trkpt lat="47.02462" lon="8.94266">
        <ele>853</ele>
        <time>2021-08-02T11:39:14.372Z</time>
      </trkpt>
      <trkpt lat="47.02463" lon="8.94268">
        <ele>853</ele>
        <time>2021-08-02T11:39:15.372Z</time>
      </trkpt>
      <trkpt lat="47.02464" lon="8.9427">
        <ele>853</ele>
        <time>2021-08-02T11:39:16.372Z</time>
      </trkpt>
      <trkpt lat="47.02464" lon="8.94272">
        <ele>853</ele>
        <time>2021-08-02T11:39:17.372Z</time>
      </trkpt>
      <trkpt lat="47.02465" lon="8.94274">
        <ele>854</ele>
        <time>2021-08-02T11:39:18.372Z</time>
      </trkpt>
      <trkpt lat="47.02465" lon="8.94277">
        <ele>854</ele>
        <time>2021-08-02T11:39:19.372Z</time>
      </trkpt>
      <trkpt lat="47.02466" lon="8.94279">
        <ele>854</ele>
        <time>2021-08-02T11:39:20.372Z</time>
      </trkpt>
      <trkpt lat="47.02467" lon="8.94281">
        <ele>853</ele>
        <time>2021-08-02T11:39:21.372Z</time>
      </trkpt>
      <trkpt lat="47.02468" lon="8.94281">
        <ele>853</ele>
        <time>2021-08-02T11:39:22.373Z</time>
      </trkpt>
      <trkpt lat="47.02469" lon="8.94282">
        <ele>853</ele>
        <time>2021-08-02T11:39:23.373Z</time>
      </trkpt>
      <trkpt lat="47.0247" lon="8.94283">
        <ele>852</ele>
        <time>2021-08-02T11:39:24.373Z</time>
      </trkpt>
      <trkpt lat="47.0247" lon="8.94284">
        <ele>852</ele>
        <time>2021-08-02T11:39:25.372Z</time>
      </trkpt>
      <trkpt lat="47.0247" lon="8.94286">
        <ele>853</ele>
        <time>2021-08-02T11:39:26.373Z</time>
      </trkpt>
      <trkpt lat="47.02471" lon="8.94288">
        <ele>853</ele>
        <time>2021-08-02T11:39:27.372Z</time>
      </trkpt>
      <trkpt lat="47.02471" lon="8.94289">
        <ele>852</ele>
        <time>2021-08-02T11:39:28.373Z</time>
      </trkpt>
      <trkpt lat="47.02472" lon="8.94291">
        <ele>852</ele>
        <time>2021-08-02T11:39:29.372Z</time>
      </trkpt>
      <trkpt lat="47.02473" lon="8.94292">
        <ele>852</ele>
        <time>2021-08-02T11:39:30.373Z</time>
      </trkpt>
      <trkpt lat="47.02474" lon="8.94293">
        <ele>852</ele>
        <time>2021-08-02T11:39:31.372Z</time>
      </trkpt>
      <trkpt lat="47.02475" lon="8.94295">
        <ele>852</ele>
        <time>2021-08-02T11:39:32.372Z</time>
      </trkpt>
      <trkpt lat="47.02475" lon="8.94296">
        <ele>852</ele>
        <time>2021-08-02T11:39:33.373Z</time>
      </trkpt>
      <trkpt lat="47.02476" lon="8.94297">
        <ele>852</ele>
        <time>2021-08-02T11:39:34.373Z</time>
      </trkpt>
      <trkpt lat="47.02477" lon="8.94299">
        <ele>851</ele>
        <time>2021-08-02T11:39:35.372Z</time>
      </trkpt>
      <trkpt lat="47.02478" lon="8.943">
        <ele>851</ele>
        <time>2021-08-02T11:39:36.373Z</time>
      </trkpt>
      <trkpt lat="47.02478" lon="8.94301">
        <ele>851</ele>
        <time>2021-08-02T11:39:37.373Z</time>
      </trkpt>
      <trkpt lat="47.02479" lon="8.94303">
        <ele>851</ele>
        <time>2021-08-02T11:39:38.372Z</time>
      </trkpt>
      <trkpt lat="47.02479" lon="8.94304">
        <ele>851</ele>
        <time>2021-08-02T11:39:39.373Z</time>
      </trkpt>
      <trkpt lat="47.0248" lon="8.94306">
        <ele>851</ele>
        <time>2021-08-02T11:39:40.373Z</time>
      </trkpt>
      <trkpt lat="47.02481" lon="8.94308">
        <ele>851</ele>
        <time>2021-08-02T11:39:41.372Z</time>
      </trkpt>
      <trkpt lat="47.02482" lon="8.94309">
        <ele>851</ele>
        <time>2021-08-02T11:39:42.372Z</time>
      </trkpt>
      <trkpt lat="47.02482" lon="8.94311">
        <ele>851</ele>
        <time>2021-08-02T11:39:43.372Z</time>
      </trkpt>
      <trkpt lat="47.02482" lon="8.94313">
        <ele>851</ele>
        <time>2021-08-02T11:39:44.372Z</time>
      </trkpt>
      <trkpt lat="47.02483" lon="8.94314">
        <ele>851</ele>
        <time>2021-08-02T11:39:45.373Z</time>
      </trkpt>
      <trkpt lat="47.02484" lon="8.94316">
        <ele>851</ele>
        <time>2021-08-02T11:39:46.372Z</time>
      </trkpt>
      <trkpt lat="47.02484" lon="8.94317">
        <ele>851</ele>
        <time>2021-08-02T11:39:47.373Z</time>
      </trkpt>
      <trkpt lat="47.02485" lon="8.94319">
        <ele>851</ele>
        <time>2021-08-02T11:39:48.372Z</time>
      </trkpt>
      <trkpt lat="47.02486" lon="8.9432">
        <ele>851</ele>
        <time>2021-08-02T11:39:49.373Z</time>
      </trkpt>
      <trkpt lat="47.02486" lon="8.94321">
        <ele>852</ele>
        <time>2021-08-02T11:39:50.372Z</time>
      </trkpt>
      <trkpt lat="47.02487" lon="8.94322">
        <ele>852</ele>
        <time>2021-08-02T11:39:51.372Z</time>
      </trkpt>
      <trkpt lat="47.02488" lon="8.94324">
        <ele>852</ele>
        <time>2021-08-02T11:39:52.372Z</time>
      </trkpt>
      <trkpt lat="47.02488" lon="8.94325">
        <ele>853</ele>
        <time>2021-08-02T11:39:53.372Z</time>
      </trkpt>
      <trkpt lat="47.02489" lon="8.94327">
        <ele>853</ele>
        <time>2021-08-02T11:39:54.372Z</time>
      </trkpt>
      <trkpt lat="47.0249" lon="8.94329">
        <ele>853</ele>
        <time>2021-08-02T11:39:55.372Z</time>
      </trkpt>
      <trkpt lat="47.0249" lon="8.94331">
        <ele>853</ele>
        <time>2021-08-02T11:39:59.410Z</time>
      </trkpt>
      <trkpt lat="47.0249" lon="8.94333">
        <ele>853</ele>
        <time>2021-08-02T11:40:00.410Z</time>
      </trkpt>
      <trkpt lat="47.0249" lon="8.94335">
        <ele>854</ele>
        <time>2021-08-02T11:40:01.411Z</time>
      </trkpt>
      <trkpt lat="47.02491" lon="8.94337">
        <ele>854</ele>
        <time>2021-08-02T11:40:02.410Z</time>
      </trkpt>
      <trkpt lat="47.02492" lon="8.94338">
        <ele>854</ele>
        <time>2021-08-02T11:40:03.410Z</time>
      </trkpt>
      <trkpt lat="47.02493" lon="8.9434">
        <ele>854</ele>
        <time>2021-08-02T11:40:04.410Z</time>
      </trkpt>
      <trkpt lat="47.02493" lon="8.94341">
        <ele>854</ele>
        <time>2021-08-02T11:40:05.411Z</time>
      </trkpt>
      <trkpt lat="47.02495" lon="8.94343">
        <ele>854</ele>
        <time>2021-08-02T11:40:06.410Z</time>
      </trkpt>
      <trkpt lat="47.02496" lon="8.94344">
        <ele>854</ele>
        <time>2021-08-02T11:40:07.410Z</time>
      </trkpt>
      <trkpt lat="47.02496" lon="8.94346">
        <ele>854</ele>
        <time>2021-08-02T11:40:08.411Z</time>
      </trkpt>
      <trkpt lat="47.02497" lon="8.94347">
        <ele>855</ele>
        <time>2021-08-02T11:40:09.410Z</time>
      </trkpt>
      <trkpt lat="47.02498" lon="8.94349">
        <ele>855</ele>
        <time>2021-08-02T11:40:10.410Z</time>
      </trkpt>
      <trkpt lat="47.02499" lon="8.94351">
        <ele>855</ele>
        <time>2021-08-02T11:40:11.411Z</time>
      </trkpt>
      <trkpt lat="47.02499" lon="8.94353">
        <ele>855</ele>
        <time>2021-08-02T11:40:12.410Z</time>
      </trkpt>
      <trkpt lat="47.02499" lon="8.94354">
        <ele>855</ele>
        <time>2021-08-02T11:40:13.410Z</time>
      </trkpt>
      <trkpt lat="47.025" lon="8.94356">
        <ele>855</ele>
        <time>2021-08-02T11:40:14.410Z</time>
      </trkpt>
      <trkpt lat="47.025" lon="8.94358">
        <ele>855</ele>
        <time>2021-08-02T11:40:15.411Z</time>
      </trkpt>
      <trkpt lat="47.02501" lon="8.9436">
        <ele>855</ele>
        <time>2021-08-02T11:40:16.410Z</time>
      </trkpt>
      <trkpt lat="47.02501" lon="8.94362">
        <ele>855</ele>
        <time>2021-08-02T11:40:17.410Z</time>
      </trkpt>
      <trkpt lat="47.02502" lon="8.94363">
        <ele>855</ele>
        <time>2021-08-02T11:40:18.410Z</time>
      </trkpt>
      <trkpt lat="47.02503" lon="8.94365">
        <ele>854</ele>
        <time>2021-08-02T11:40:19.411Z</time>
      </trkpt>
      <trkpt lat="47.02503" lon="8.94367">
        <ele>855</ele>
        <time>2021-08-02T11:40:20.410Z</time>
      </trkpt>
      <trkpt lat="47.02504" lon="8.94369">
        <ele>855</ele>
        <time>2021-08-02T11:40:21.411Z</time>
      </trkpt>
      <trkpt lat="47.02504" lon="8.94371">
        <ele>855</ele>
        <time>2021-08-02T11:40:22.410Z</time>
      </trkpt>
      <trkpt lat="47.02505" lon="8.94372">
        <ele>855</ele>
        <time>2021-08-02T11:40:23.410Z</time>
      </trkpt>
      <trkpt lat="47.02506" lon="8.94374">
        <ele>855</ele>
        <time>2021-08-02T11:40:24.410Z</time>
      </trkpt>
      <trkpt lat="47.02507" lon="8.94376">
        <ele>855</ele>
        <time>2021-08-02T11:40:25.410Z</time>
      </trkpt>
      <trkpt lat="47.02507" lon="8.94378">
        <ele>855</ele>
        <time>2021-08-02T11:40:26.411Z</time>
      </trkpt>
      <trkpt lat="47.02508" lon="8.94379">
        <ele>855</ele>
        <time>2021-08-02T11:40:27.410Z</time>
      </trkpt>
      <trkpt lat="47.02509" lon="8.94381">
        <ele>855</ele>
        <time>2021-08-02T11:40:28.411Z</time>
      </trkpt>
      <trkpt lat="47.02509" lon="8.94383">
        <ele>856</ele>
        <time>2021-08-02T11:40:29.411Z</time>
      </trkpt>
      <trkpt lat="47.0251" lon="8.94385">
        <ele>856</ele>
        <time>2021-08-02T11:40:30.410Z</time>
      </trkpt>
      <trkpt lat="47.02511" lon="8.94386">
        <ele>856</ele>
        <time>2021-08-02T11:40:31.410Z</time>
      </trkpt>
      <trkpt lat="47.02511" lon="8.94387">
        <ele>856</ele>
        <time>2021-08-02T11:40:32.410Z</time>
      </trkpt>
      <trkpt lat="47.02511" lon="8.94388">
        <ele>856</ele>
        <time>2021-08-02T11:40:33.410Z</time>
      </trkpt>
      <trkpt lat="47.02512" lon="8.94389">
        <ele>855</ele>
        <time>2021-08-02T11:40:34.410Z</time>
      </trkpt>
      <trkpt lat="47.02512" lon="8.9439">
        <ele>855</ele>
        <time>2021-08-02T11:40:35.410Z</time>
      </trkpt>
      <trkpt lat="47.02513" lon="8.94392">
        <ele>855</ele>
        <time>2021-08-02T11:40:36.410Z</time>
      </trkpt>
      <trkpt lat="47.02513" lon="8.94394">
        <ele>855</ele>
        <time>2021-08-02T11:40:37.410Z</time>
      </trkpt>
      <trkpt lat="47.02514" lon="8.94395">
        <ele>854</ele>
        <time>2021-08-02T11:40:38.411Z</time>
      </trkpt>
      <trkpt lat="47.02514" lon="8.94397">
        <ele>854</ele>
        <time>2021-08-02T11:40:39.410Z</time>
      </trkpt>
      <trkpt lat="47.02514" lon="8.94399">
        <ele>853</ele>
        <time>2021-08-02T11:40:40.410Z</time>
      </trkpt>
      <trkpt lat="47.02515" lon="8.94401">
        <ele>853</ele>
        <time>2021-08-02T11:40:41.410Z</time>
      </trkpt>
      <trkpt lat="47.02516" lon="8.94403">
        <ele>853</ele>
        <time>2021-08-02T11:40:42.410Z</time>
      </trkpt>
      <trkpt lat="47.02516" lon="8.94404">
        <ele>852</ele>
        <time>2021-08-02T11:40:43.410Z</time>
      </trkpt>
      <trkpt lat="47.02517" lon="8.94406">
        <ele>852</ele>
        <time>2021-08-02T11:40:44.410Z</time>
      </trkpt>
      <trkpt lat="47.02518" lon="8.94407">
        <ele>851</ele>
        <time>2021-08-02T11:40:45.410Z</time>
      </trkpt>
      <trkpt lat="47.02519" lon="8.94408">
        <ele>851</ele>
        <time>2021-08-02T11:40:46.410Z</time>
      </trkpt>
      <trkpt lat="47.02519" lon="8.94411">
        <ele>852</ele>
        <time>2021-08-02T11:40:47.410Z</time>
      </trkpt>
      <trkpt lat="47.0252" lon="8.94413">
        <ele>852</ele>
        <time>2021-08-02T11:40:48.411Z</time>
      </trkpt>
      <trkpt lat="47.02521" lon="8.94415">
        <ele>853</ele>
        <time>2021-08-02T11:40:49.410Z</time>
      </trkpt>
      <trkpt lat="47.02522" lon="8.94417">
        <ele>854</ele>
        <time>2021-08-02T11:40:50.411Z</time>
      </trkpt>
      <trkpt lat="47.02522" lon="8.94418">
        <ele>854</ele>
        <time>2021-08-02T11:40:51.410Z</time>
      </trkpt>
      <trkpt lat="47.02523" lon="8.9442">
        <ele>854</ele>
        <time>2021-08-02T11:40:52.411Z</time>
      </trkpt>
      <trkpt lat="47.02523" lon="8.94421">
        <ele>855</ele>
        <time>2021-08-02T11:40:53.411Z</time>
      </trkpt>
      <trkpt lat="47.02523" lon="8.94423">
        <ele>855</ele>
        <time>2021-08-02T11:40:54.410Z</time>
      </trkpt>
      <trkpt lat="47.02524" lon="8.94424">
        <ele>855</ele>
        <time>2021-08-02T11:40:55.410Z</time>
      </trkpt>
      <trkpt lat="47.02524" lon="8.94425">
        <ele>856</ele>
        <time>2021-08-02T11:40:56.411Z</time>
      </trkpt>
      <trkpt lat="47.02524" lon="8.94427">
        <ele>856</ele>
        <time>2021-08-02T11:40:57.410Z</time>
      </trkpt>
      <trkpt lat="47.02523" lon="8.94428">
        <ele>855</ele>
        <time>2021-08-02T11:40:58.411Z</time>
      </trkpt>
      <trkpt lat="47.02523" lon="8.94429">
        <ele>855</ele>
        <time>2021-08-02T11:40:59.410Z</time>
      </trkpt>
      <trkpt lat="47.02522" lon="8.94431">
        <ele>855</ele>
        <time>2021-08-02T11:41:00.410Z</time>
      </trkpt>
      <trkpt lat="47.02521" lon="8.94432">
        <ele>854</ele>
        <time>2021-08-02T11:41:01.410Z</time>
      </trkpt>
      <trkpt lat="47.0252" lon="8.94433">
        <ele>854</ele>
        <time>2021-08-02T11:41:02.411Z</time>
      </trkpt>
      <trkpt lat="47.02519" lon="8.94434">
        <ele>854</ele>
        <time>2021-08-02T11:41:03.410Z</time>
      </trkpt>
      <trkpt lat="47.02519" lon="8.94436">
        <ele>853</ele>
        <time>2021-08-02T11:41:04.410Z</time>
      </trkpt>
      <trkpt lat="47.02518" lon="8.94437">
        <ele>853</ele>
        <time>2021-08-02T11:41:05.411Z</time>
      </trkpt>
      <trkpt lat="47.02517" lon="8.94438">
        <ele>853</ele>
        <time>2021-08-02T11:41:06.411Z</time>
      </trkpt>
      <trkpt lat="47.02516" lon="8.9444">
        <ele>854</ele>
        <time>2021-08-02T11:41:07.411Z</time>
      </trkpt>
      <trkpt lat="47.02515" lon="8.94441">
        <ele>854</ele>
        <time>2021-08-02T11:41:08.411Z</time>
      </trkpt>
      <trkpt lat="47.02515" lon="8.94443">
        <ele>854</ele>
        <time>2021-08-02T11:41:11.486Z</time>
      </trkpt>
      <trkpt lat="47.02514" lon="8.94444">
        <ele>854</ele>
        <time>2021-08-02T11:41:12.487Z</time>
      </trkpt>
      <trkpt lat="47.02514" lon="8.94446">
        <ele>854</ele>
        <time>2021-08-02T11:41:13.487Z</time>
      </trkpt>
      <trkpt lat="47.02513" lon="8.94447">
        <ele>853</ele>
        <time>2021-08-02T11:41:14.487Z</time>
      </trkpt>
      <trkpt lat="47.02513" lon="8.94448">
        <ele>853</ele>
        <time>2021-08-02T11:41:23.688Z</time>
      </trkpt>
      <trkpt lat="47.02512" lon="8.94449">
        <ele>854</ele>
        <time>2021-08-02T11:41:24.688Z</time>
      </trkpt>
      <trkpt lat="47.02512" lon="8.94451">
        <ele>854</ele>
        <time>2021-08-02T11:41:25.687Z</time>
      </trkpt>
      <trkpt lat="47.02511" lon="8.94453">
        <ele>854</ele>
        <time>2021-08-02T11:41:26.687Z</time>
      </trkpt>
      <trkpt lat="47.02511" lon="8.94454">
        <ele>854</ele>
        <time>2021-08-02T11:41:27.687Z</time>
      </trkpt>
      <trkpt lat="47.0251" lon="8.94455">
        <ele>853</ele>
        <time>2021-08-02T11:41:28.688Z</time>
      </trkpt>
      <trkpt lat="47.02511" lon="8.94457">
        <ele>853</ele>
        <time>2021-08-02T11:41:29.688Z</time>
      </trkpt>
      <trkpt lat="47.02511" lon="8.94459">
        <ele>853</ele>
        <time>2021-08-02T11:41:30.687Z</time>
      </trkpt>
      <trkpt lat="47.02511" lon="8.9446">
        <ele>853</ele>
        <time>2021-08-02T11:41:31.687Z</time>
      </trkpt>
      <trkpt lat="47.02512" lon="8.94461">
        <ele>853</ele>
        <time>2021-08-02T11:41:32.688Z</time>
      </trkpt>
      <trkpt lat="47.02513" lon="8.94462">
        <ele>853</ele>
        <time>2021-08-02T11:41:33.687Z</time>
      </trkpt>
      <trkpt lat="47.02514" lon="8.94463">
        <ele>853</ele>
        <time>2021-08-02T11:41:34.687Z</time>
      </trkpt>
      <trkpt lat="47.02514" lon="8.94464">
        <ele>853</ele>
        <time>2021-08-02T11:41:35.687Z</time>
      </trkpt>
      <trkpt lat="47.02514" lon="8.94466">
        <ele>852</ele>
        <time>2021-08-02T11:41:38.776Z</time>
      </trkpt>
      <trkpt lat="47.02514" lon="8.94467">
        <ele>852</ele>
        <time>2021-08-02T11:41:39.776Z</time>
      </trkpt>
      <trkpt lat="47.02515" lon="8.94468">
        <ele>852</ele>
        <time>2021-08-02T11:41:40.776Z</time>
      </trkpt>
      <trkpt lat="47.02517" lon="8.94471">
        <ele>851</ele>
        <time>2021-08-02T11:41:46.881Z</time>
      </trkpt>
      <trkpt lat="47.02518" lon="8.94473">
        <ele>851</ele>
        <time>2021-08-02T11:41:50.777Z</time>
      </trkpt>
      <trkpt lat="47.02519" lon="8.94473">
        <ele>851</ele>
        <time>2021-08-02T11:42:01.667Z</time>
      </trkpt>
      <trkpt lat="47.02519" lon="8.94474">
        <ele>851</ele>
        <time>2021-08-02T11:42:02.666Z</time>
      </trkpt>
      <trkpt lat="47.02518" lon="8.94474">
        <ele>851</ele>
        <time>2021-08-02T11:42:03.667Z</time>
      </trkpt>
      <trkpt lat="47.02518" lon="8.94474">
        <ele>851</ele>
        <time>2021-08-02T11:42:04.666Z</time>
      </trkpt>
      <trkpt lat="47.02519" lon="8.94474">
        <ele>852</ele>
        <time>2021-08-02T11:42:05.666Z</time>
      </trkpt>
      <trkpt lat="47.02519" lon="8.94475">
        <ele>853</ele>
        <time>2021-08-02T11:42:06.667Z</time>
      </trkpt>
      <trkpt lat="47.02519" lon="8.94476">
        <ele>853</ele>
        <time>2021-08-02T11:42:07.667Z</time>
      </trkpt>
      <trkpt lat="47.02519" lon="8.94477">
        <ele>854</ele>
        <time>2021-08-02T11:42:23.790Z</time>
      </trkpt>
      <trkpt lat="47.02519" lon="8.94479">
        <ele>854</ele>
        <time>2021-08-02T11:42:24.791Z</time>
      </trkpt>
      <trkpt lat="47.02519" lon="8.9448">
        <ele>854</ele>
        <time>2021-08-02T11:42:25.790Z</time>
      </trkpt>
      <trkpt lat="47.02519" lon="8.94479">
        <ele>855</ele>
        <time>2021-08-02T11:42:52.894Z</time>
      </trkpt>
      <trkpt lat="47.02519" lon="8.94478">
        <ele>855</ele>
        <time>2021-08-02T11:42:53.893Z</time>
      </trkpt>
      <trkpt lat="47.02519" lon="8.94477">
        <ele>856</ele>
        <time>2021-08-02T11:42:54.893Z</time>
      </trkpt>
      <trkpt lat="47.02519" lon="8.94476">
        <ele>856</ele>
        <time>2021-08-02T11:42:55.894Z</time>
      </trkpt>
      <trkpt lat="47.02519" lon="8.94476">
        <ele>856</ele>
        <time>2021-08-02T11:42:56.894Z</time>
      </trkpt>
      <trkpt lat="47.02519" lon="8.94475">
        <ele>857</ele>
        <time>2021-08-02T11:42:57.894Z</time>
      </trkpt>
      <trkpt lat="47.02519" lon="8.94475">
        <ele>857</ele>
        <time>2021-08-02T11:42:58.894Z</time>
      </trkpt>
      <trkpt lat="47.02518" lon="8.94475">
        <ele>860</ele>
        <time>2021-08-02T11:43:03.906Z</time>
      </trkpt>
      <trkpt lat="47.02517" lon="8.94475">
        <ele>860</ele>
        <time>2021-08-02T11:43:15.787Z</time>
      </trkpt>
      <trkpt lat="47.02514" lon="8.94471">
        <ele>866</ele>
        <time>2021-08-02T11:43:16.787Z</time>
      </trkpt>
      <trkpt lat="47.02514" lon="8.94471">
        <ele>866</ele>
        <time>2021-08-02T11:43:17.787Z</time>
      </trkpt>
      <trkpt lat="47.02514" lon="8.94472">
        <ele>866</ele>
        <time>2021-08-02T11:43:18.786Z</time>
      </trkpt>
      <trkpt lat="47.02514" lon="8.94473">
        <ele>865</ele>
        <time>2021-08-02T11:43:21.886Z</time>
      </trkpt>
      <trkpt lat="47.02513" lon="8.94473">
        <ele>864</ele>
        <time>2021-08-02T11:43:28.755Z</time>
      </trkpt>
      <trkpt lat="47.02513" lon="8.94473">
        <ele>864</ele>
        <time>2021-08-02T11:43:32.646Z</time>
      </trkpt>
      <trkpt lat="47.02512" lon="8.94473">
        <ele>863</ele>
        <time>2021-08-02T11:43:33.646Z</time>
      </trkpt>
      <trkpt lat="47.02512" lon="8.94474">
        <ele>863</ele>
        <time>2021-08-02T11:43:34.646Z</time>
      </trkpt>
      <trkpt lat="47.02512" lon="8.94475">
        <ele>863</ele>
        <time>2021-08-02T11:43:35.646Z</time>
      </trkpt>
      <trkpt lat="47.02512" lon="8.94476">
        <ele>863</ele>
        <time>2021-08-02T11:43:36.647Z</time>
      </trkpt>
      <trkpt lat="47.02511" lon="8.94476">
        <ele>862</ele>
        <time>2021-08-02T11:43:37.646Z</time>
      </trkpt>
      <trkpt lat="47.02511" lon="8.94476">
        <ele>862</ele>
        <time>2021-08-02T11:43:38.647Z</time>
      </trkpt>
      <trkpt lat="47.02511" lon="8.94477">
        <ele>862</ele>
        <time>2021-08-02T11:43:39.646Z</time>
      </trkpt>
      <trkpt lat="47.02512" lon="8.94476">
        <ele>861</ele>
        <time>2021-08-02T11:43:46.770Z</time>
      </trkpt>
      <trkpt lat="47.02513" lon="8.94476">
        <ele>861</ele>
        <time>2021-08-02T11:43:47.770Z</time>
      </trkpt>
      <trkpt lat="47.02514" lon="8.94476">
        <ele>860</ele>
        <time>2021-08-02T11:43:48.770Z</time>
      </trkpt>
      <trkpt lat="47.02514" lon="8.94476">
        <ele>860</ele>
        <time>2021-08-02T11:43:54.906Z</time>
      </trkpt>
      <trkpt lat="47.02514" lon="8.94477">
        <ele>859</ele>
        <time>2021-08-02T11:43:55.907Z</time>
      </trkpt>
      <trkpt lat="47.02514" lon="8.94477">
        <ele>859</ele>
        <time>2021-08-02T11:43:56.906Z</time>
      </trkpt>
      <trkpt lat="47.02519" lon="8.94471">
        <ele>856</ele>
        <time>2021-08-02T11:43:57.907Z</time>
      </trkpt>
      <trkpt lat="47.02519" lon="8.9447">
        <ele>856</ele>
        <time>2021-08-02T11:43:58.906Z</time>
      </trkpt>
      <trkpt lat="47.02519" lon="8.94469">
        <ele>856</ele>
        <time>2021-08-02T11:43:59.906Z</time>
      </trkpt>
      <trkpt lat="47.02519" lon="8.94468">
        <ele>856</ele>
        <time>2021-08-02T11:44:00.906Z</time>
      </trkpt>
      <trkpt lat="47.02518" lon="8.94468">
        <ele>856</ele>
        <time>2021-08-02T11:44:01.907Z</time>
      </trkpt>
      <trkpt lat="47.02518" lon="8.94467">
        <ele>855</ele>
        <time>2021-08-02T11:44:02.907Z</time>
      </trkpt>
      <trkpt lat="47.02519" lon="8.94467">
        <ele>855</ele>
        <time>2021-08-02T11:44:03.907Z</time>
      </trkpt>
      <trkpt lat="47.02519" lon="8.94468">
        <ele>854</ele>
        <time>2021-08-02T11:44:04.906Z</time>
      </trkpt>
      <trkpt lat="47.02519" lon="8.94469">
        <ele>854</ele>
        <time>2021-08-02T11:44:05.906Z</time>
      </trkpt>
      <trkpt lat="47.0252" lon="8.9447">
        <ele>854</ele>
        <time>2021-08-02T11:44:06.906Z</time>
      </trkpt>
      <trkpt lat="47.0252" lon="8.94471">
        <ele>853</ele>
        <time>2021-08-02T11:44:07.906Z</time>
      </trkpt>
      <trkpt lat="47.02514" lon="8.94471">
        <ele>853</ele>
        <time>2021-08-02T11:46:04.906Z</time>
      </trkpt>
      <trkpt lat="47.0251" lon="8.94477">
        <ele>853</ele>
        <time>2021-08-02T11:46:05.907Z</time>
      </trkpt>
      <trkpt lat="47.02507" lon="8.94482">
        <ele>853</ele>
        <time>2021-08-02T11:46:06.906Z</time>
      </trkpt>
      <trkpt lat="47.02516" lon="8.94477">
        <ele>853</ele>
        <time>2021-08-02T11:46:13.907Z</time>
      </trkpt>
      <trkpt lat="47.02516" lon="8.94476">
        <ele>853</ele>
        <time>2021-08-02T11:46:14.907Z</time>
      </trkpt>
      <trkpt lat="47.02517" lon="8.94475">
        <ele>853</ele>
        <time>2021-08-02T11:46:15.906Z</time>
      </trkpt>
      <trkpt lat="47.02517" lon="8.94475">
        <ele>852</ele>
        <time>2021-08-02T11:46:17.907Z</time>
      </trkpt>
      <trkpt lat="47.02517" lon="8.94477">
        <ele>852</ele>
        <time>2021-08-02T11:46:18.906Z</time>
      </trkpt>
      <trkpt lat="47.02518" lon="8.94478">
        <ele>851</ele>
        <time>2021-08-02T11:46:19.906Z</time>
      </trkpt>
      <trkpt lat="47.02518" lon="8.94479">
        <ele>851</ele>
        <time>2021-08-02T11:46:20.906Z</time>
      </trkpt>
      <trkpt lat="47.02518" lon="8.94482">
        <ele>851</ele>
        <time>2021-08-02T11:46:21.907Z</time>
      </trkpt>
      <trkpt lat="47.02519" lon="8.94481">
        <ele>850</ele>
        <time>2021-08-02T11:46:22.906Z</time>
      </trkpt>
      <trkpt lat="47.02519" lon="8.94481">
        <ele>850</ele>
        <time>2021-08-02T11:46:23.906Z</time>
      </trkpt>
      <trkpt lat="47.02519" lon="8.94481">
        <ele>850</ele>
        <time>2021-08-02T11:46:24.906Z</time>
      </trkpt>
      <trkpt lat="47.02518" lon="8.94483">
        <ele>850</ele>
        <time>2021-08-02T11:46:25.906Z</time>
      </trkpt>
      <trkpt lat="47.02516" lon="8.94485">
        <ele>850</ele>
        <time>2021-08-02T11:46:26.906Z</time>
      </trkpt>
      <trkpt lat="47.02515" lon="8.94486">
        <ele>850</ele>
        <time>2021-08-02T11:46:27.907Z</time>
      </trkpt>
      <trkpt lat="47.02514" lon="8.94489">
        <ele>850</ele>
        <time>2021-08-02T11:46:28.907Z</time>
      </trkpt>
      <trkpt lat="47.02512" lon="8.94491">
        <ele>850</ele>
        <time>2021-08-02T11:46:29.906Z</time>
      </trkpt>
      <trkpt lat="47.02511" lon="8.94494">
        <ele>850</ele>
        <time>2021-08-02T11:46:30.906Z</time>
      </trkpt>
      <trkpt lat="47.0251" lon="8.94495">
        <ele>850</ele>
        <time>2021-08-02T11:46:31.907Z</time>
      </trkpt>
      <trkpt lat="47.02509" lon="8.94496">
        <ele>850</ele>
        <time>2021-08-02T11:46:32.907Z</time>
      </trkpt>
      <trkpt lat="47.0251" lon="8.94495">
        <ele>850</ele>
        <time>2021-08-02T11:46:33.907Z</time>
      </trkpt>
      <trkpt lat="47.02511" lon="8.94492">
        <ele>850</ele>
        <time>2021-08-02T11:46:37.907Z</time>
      </trkpt>
      <trkpt lat="47.02512" lon="8.94493">
        <ele>850</ele>
        <time>2021-08-02T11:46:38.907Z</time>
      </trkpt>
      <trkpt lat="47.02512" lon="8.94493">
        <ele>850</ele>
        <time>2021-08-02T11:46:39.906Z</time>
      </trkpt>
      <trkpt lat="47.02512" lon="8.94493">
        <ele>850</ele>
        <time>2021-08-02T11:46:40.907Z</time>
      </trkpt>
      <trkpt lat="47.02512" lon="8.94494">
        <ele>849</ele>
        <time>2021-08-02T11:46:41.907Z</time>
      </trkpt>
      <trkpt lat="47.02512" lon="8.94495">
        <ele>849</ele>
        <time>2021-08-02T11:46:42.907Z</time>
      </trkpt>
      <trkpt lat="47.02512" lon="8.94495">
        <ele>849</ele>
        <time>2021-08-02T11:46:43.906Z</time>
      </trkpt>
      <trkpt lat="47.02512" lon="8.94495">
        <ele>849</ele>
        <time>2021-08-02T11:46:44.906Z</time>
      </trkpt>
      <trkpt lat="47.02511" lon="8.94499">
        <ele>849</ele>
        <time>2021-08-02T11:46:59.032Z</time>
      </trkpt>
      <trkpt lat="47.02511" lon="8.94499">
        <ele>849</ele>
        <time>2021-08-02T11:47:00.032Z</time>
      </trkpt>
      <trkpt lat="47.02511" lon="8.94499">
        <ele>849</ele>
        <time>2021-08-02T11:47:01.032Z</time>
      </trkpt>
      <trkpt lat="47.02511" lon="8.945">
        <ele>849</ele>
        <time>2021-08-02T11:47:02.032Z</time>
      </trkpt>
      <trkpt lat="47.0251" lon="8.945">
        <ele>849</ele>
        <time>2021-08-02T11:47:03.031Z</time>
      </trkpt>
      <trkpt lat="47.02511" lon="8.945">
        <ele>849</ele>
        <time>2021-08-02T11:47:04.032Z</time>
      </trkpt>
      <trkpt lat="47.02511" lon="8.945">
        <ele>849</ele>
        <time>2021-08-02T11:47:05.032Z</time>
      </trkpt>
      <trkpt lat="47.02511" lon="8.945">
        <ele>849</ele>
        <time>2021-08-02T11:47:06.032Z</time>
      </trkpt>
      <trkpt lat="47.02511" lon="8.945">
        <ele>849</ele>
        <time>2021-08-02T11:47:07.032Z</time>
      </trkpt>
      <trkpt lat="47.02511" lon="8.94499">
        <ele>848</ele>
        <time>2021-08-02T11:47:08.032Z</time>
      </trkpt>
      <trkpt lat="47.02512" lon="8.94497">
        <ele>848</ele>
        <time>2021-08-02T11:47:09.032Z</time>
      </trkpt>
      <trkpt lat="47.02512" lon="8.94495">
        <ele>848</ele>
        <time>2021-08-02T11:47:10.031Z</time>
      </trkpt>
      <trkpt lat="47.02513" lon="8.94492">
        <ele>848</ele>
        <time>2021-08-02T11:47:12.032Z</time>
      </trkpt>
      <trkpt lat="47.02513" lon="8.94492">
        <ele>848</ele>
        <time>2021-08-02T11:47:14.031Z</time>
      </trkpt>
      <trkpt lat="47.02513" lon="8.94493">
        <ele>848</ele>
        <time>2021-08-02T11:47:15.032Z</time>
      </trkpt>
      <trkpt lat="47.02513" lon="8.94493">
        <ele>847</ele>
        <time>2021-08-02T11:47:16.032Z</time>
      </trkpt>
      <trkpt lat="47.02516" lon="8.9449">
        <ele>847</ele>
        <time>2021-08-02T11:47:17.031Z</time>
      </trkpt>
      <trkpt lat="47.02517" lon="8.94487">
        <ele>847</ele>
        <time>2021-08-02T11:47:18.032Z</time>
      </trkpt>
      <trkpt lat="47.02518" lon="8.94485">
        <ele>847</ele>
        <time>2021-08-02T11:47:19.031Z</time>
      </trkpt>
      <trkpt lat="47.02518" lon="8.94485">
        <ele>847</ele>
        <time>2021-08-02T11:47:20.031Z</time>
      </trkpt>
      <trkpt lat="47.0252" lon="8.94483">
        <ele>846</ele>
        <time>2021-08-02T11:47:21.032Z</time>
      </trkpt>
      <trkpt lat="47.02521" lon="8.94482">
        <ele>846</ele>
        <time>2021-08-02T11:47:23.031Z</time>
      </trkpt>
      <trkpt lat="47.0252" lon="8.94485">
        <ele>846</ele>
        <time>2021-08-02T11:47:24.031Z</time>
      </trkpt>
      <trkpt lat="47.0252" lon="8.94486">
        <ele>846</ele>
        <time>2021-08-02T11:47:25.031Z</time>
      </trkpt>
      <trkpt lat="47.0252" lon="8.94486">
        <ele>846</ele>
        <time>2021-08-02T11:47:26.031Z</time>
      </trkpt>
      <trkpt lat="47.0252" lon="8.94484">
        <ele>845</ele>
        <time>2021-08-02T11:47:27.031Z</time>
      </trkpt>
      <trkpt lat="47.0252" lon="8.94482">
        <ele>845</ele>
        <time>2021-08-02T11:47:28.032Z</time>
      </trkpt>
      <trkpt lat="47.0252" lon="8.94479">
        <ele>844</ele>
        <time>2021-08-02T11:47:29.032Z</time>
      </trkpt>
      <trkpt lat="47.0252" lon="8.94476">
        <ele>844</ele>
        <time>2021-08-02T11:47:30.032Z</time>
      </trkpt>
      <trkpt lat="47.0252" lon="8.94472">
        <ele>844</ele>
        <time>2021-08-02T11:47:31.032Z</time>
      </trkpt>
      <trkpt lat="47.02521" lon="8.94469">
        <ele>843</ele>
        <time>2021-08-02T11:47:32.031Z</time>
      </trkpt>
      <trkpt lat="47.02522" lon="8.94466">
        <ele>843</ele>
        <time>2021-08-02T11:47:33.031Z</time>
      </trkpt>
      <trkpt lat="47.02523" lon="8.94465">
        <ele>842</ele>
        <time>2021-08-02T11:47:34.032Z</time>
      </trkpt>
      <trkpt lat="47.02523" lon="8.94465">
        <ele>842</ele>
        <time>2021-08-02T11:47:35.032Z</time>
      </trkpt>
      <trkpt lat="47.02523" lon="8.94464">
        <ele>842</ele>
        <time>2021-08-02T11:47:36.031Z</time>
      </trkpt>
      <trkpt lat="47.02521" lon="8.94471">
        <ele>840</ele>
        <time>2021-08-02T11:47:46.031Z</time>
      </trkpt>
      <trkpt lat="47.02521" lon="8.94471">
        <ele>839</ele>
        <time>2021-08-02T11:47:47.032Z</time>
      </trkpt>
      <trkpt lat="47.02521" lon="8.94471">
        <ele>839</ele>
        <time>2021-08-02T11:47:48.032Z</time>
      </trkpt>
      <trkpt lat="47.02521" lon="8.9447">
        <ele>839</ele>
        <time>2021-08-02T11:47:49.032Z</time>
      </trkpt>
      <trkpt lat="47.02522" lon="8.94471">
        <ele>839</ele>
        <time>2021-08-02T11:47:50.032Z</time>
      </trkpt>
      <trkpt lat="47.02522" lon="8.94468">
        <ele>839</ele>
        <time>2021-08-02T11:47:51.032Z</time>
      </trkpt>
      <trkpt lat="47.02523" lon="8.94465">
        <ele>839</ele>
        <time>2021-08-02T11:47:52.032Z</time>
      </trkpt>
      <trkpt lat="47.02524" lon="8.94465">
        <ele>839</ele>
        <time>2021-08-02T11:47:53.032Z</time>
      </trkpt>
      <trkpt lat="47.02525" lon="8.94463">
        <ele>839</ele>
        <time>2021-08-02T11:47:54.031Z</time>
      </trkpt>
      <trkpt lat="47.02526" lon="8.94462">
        <ele>839</ele>
        <time>2021-08-02T11:47:55.032Z</time>
      </trkpt>
      <trkpt lat="47.02526" lon="8.94462">
        <ele>839</ele>
        <time>2021-08-02T11:47:56.032Z</time>
      </trkpt>
      <trkpt lat="47.02526" lon="8.94463">
        <ele>839</ele>
        <time>2021-08-02T11:47:57.031Z</time>
      </trkpt>
      <trkpt lat="47.02526" lon="8.94465">
        <ele>839</ele>
        <time>2021-08-02T11:48:00.032Z</time>
      </trkpt>
      <trkpt lat="47.02527" lon="8.94464">
        <ele>839</ele>
        <time>2021-08-02T11:48:01.031Z</time>
      </trkpt>
      <trkpt lat="47.02526" lon="8.94464">
        <ele>839</ele>
        <time>2021-08-02T11:48:04.031Z</time>
      </trkpt>
      <trkpt lat="47.02525" lon="8.9446">
        <ele>839</ele>
        <time>2021-08-02T11:48:09.031Z</time>
      </trkpt>
      <trkpt lat="47.02538" lon="8.94436">
        <ele>838</ele>
        <time>2021-08-02T11:48:49.148Z</time>
      </trkpt>
      <trkpt lat="47.02538" lon="8.94436">
        <ele>838</ele>
        <time>2021-08-02T11:48:50.148Z</time>
      </trkpt>
      <trkpt lat="47.02538" lon="8.94432">
        <ele>838</ele>
        <time>2021-08-02T11:48:52.149Z</time>
      </trkpt>
      <trkpt lat="47.02538" lon="8.94433">
        <ele>838</ele>
        <time>2021-08-02T11:48:53.149Z</time>
      </trkpt>
      <trkpt lat="47.02537" lon="8.94432">
        <ele>837</ele>
        <time>2021-08-02T11:48:58.149Z</time>
      </trkpt>
      <trkpt lat="47.02535" lon="8.94427">
        <ele>836</ele>
        <time>2021-08-02T11:49:18.148Z</time>
      </trkpt>
      <trkpt lat="47.02535" lon="8.94427">
        <ele>837</ele>
        <time>2021-08-02T11:49:19.148Z</time>
      </trkpt>
      <trkpt lat="47.02535" lon="8.94428">
        <ele>837</ele>
        <time>2021-08-02T11:49:20.148Z</time>
      </trkpt>
      <trkpt lat="47.02534" lon="8.94429">
        <ele>837</ele>
        <time>2021-08-02T11:49:21.149Z</time>
      </trkpt>
      <trkpt lat="47.02534" lon="8.94429">
        <ele>837</ele>
        <time>2021-08-02T11:49:22.148Z</time>
      </trkpt>
      <trkpt lat="47.02534" lon="8.9443">
        <ele>837</ele>
        <time>2021-08-02T11:49:23.148Z</time>
      </trkpt>
      <trkpt lat="47.02534" lon="8.94431">
        <ele>837</ele>
        <time>2021-08-02T11:49:24.149Z</time>
      </trkpt>
      <trkpt lat="47.02533" lon="8.94432">
        <ele>837</ele>
        <time>2021-08-02T11:49:25.149Z</time>
      </trkpt>
      <trkpt lat="47.02533" lon="8.94433">
        <ele>837</ele>
        <time>2021-08-02T11:49:26.149Z</time>
      </trkpt>
      <trkpt lat="47.02533" lon="8.94434">
        <ele>837</ele>
        <time>2021-08-02T11:49:27.149Z</time>
      </trkpt>
      <trkpt lat="47.02533" lon="8.94435">
        <ele>837</ele>
        <time>2021-08-02T11:49:28.149Z</time>
      </trkpt>
      <trkpt lat="47.02532" lon="8.94436">
        <ele>837</ele>
        <time>2021-08-02T11:49:29.149Z</time>
      </trkpt>
      <trkpt lat="47.02531" lon="8.94443">
        <ele>837</ele>
        <time>2021-08-02T11:49:30.149Z</time>
      </trkpt>
      <trkpt lat="47.02531" lon="8.9445">
        <ele>837</ele>
        <time>2021-08-02T11:49:31.149Z</time>
      </trkpt>
      <trkpt lat="47.02529" lon="8.94457">
        <ele>837</ele>
        <time>2021-08-02T11:49:32.149Z</time>
      </trkpt>
      <trkpt lat="47.0253" lon="8.94462">
        <ele>837</ele>
        <time>2021-08-02T11:49:33.148Z</time>
      </trkpt>
      <trkpt lat="47.02528" lon="8.94468">
        <ele>836</ele>
        <time>2021-08-02T11:49:34.149Z</time>
      </trkpt>
      <trkpt lat="47.02527" lon="8.94471">
        <ele>836</ele>
        <time>2021-08-02T11:49:35.149Z</time>
      </trkpt>
      <trkpt lat="47.02525" lon="8.94473">
        <ele>836</ele>
        <time>2021-08-02T11:49:36.148Z</time>
      </trkpt>
      <trkpt lat="47.02526" lon="8.94475">
        <ele>836</ele>
        <time>2021-08-02T11:49:37.149Z</time>
      </trkpt>
      <trkpt lat="47.02527" lon="8.94478">
        <ele>836</ele>
        <time>2021-08-02T11:49:38.149Z</time>
      </trkpt>
      <trkpt lat="47.02527" lon="8.94479">
        <ele>837</ele>
        <time>2021-08-02T11:49:40.148Z</time>
      </trkpt>
      <trkpt lat="47.02527" lon="8.9448">
        <ele>837</ele>
        <time>2021-08-02T11:49:41.148Z</time>
      </trkpt>
      <trkpt lat="47.02521" lon="8.94495">
        <ele>839</ele>
        <time>2021-08-02T11:53:24.060Z</time>
      </trkpt>
      <trkpt lat="47.0252" lon="8.94489">
        <ele>841</ele>
        <time>2021-08-02T11:53:25.060Z</time>
      </trkpt>
      <trkpt lat="47.02522" lon="8.94492">
        <ele>843</ele>
        <time>2021-08-02T11:53:26.060Z</time>
      </trkpt>
      <trkpt lat="47.0253" lon="8.94491">
        <ele>846</ele>
        <time>2021-08-02T11:53:28.060Z</time>
      </trkpt>
      <trkpt lat="47.02532" lon="8.94489">
        <ele>848</ele>
        <time>2021-08-02T11:53:29.060Z</time>
      </trkpt>
      <trkpt lat="47.02532" lon="8.94487">
        <ele>849</ele>
        <time>2021-08-02T11:53:30.060Z</time>
      </trkpt>
      <trkpt lat="47.02532" lon="8.94483">
        <ele>850</ele>
        <time>2021-08-02T11:53:31.060Z</time>
      </trkpt>
      <trkpt lat="47.02533" lon="8.9448">
        <ele>852</ele>
        <time>2021-08-02T11:53:32.060Z</time>
      </trkpt>
      <trkpt lat="47.02531" lon="8.94477">
        <ele>852</ele>
        <time>2021-08-02T11:53:33.060Z</time>
      </trkpt>
      <trkpt lat="47.0253" lon="8.94475">
        <ele>853</ele>
        <time>2021-08-02T11:53:34.060Z</time>
      </trkpt>
      <trkpt lat="47.02527" lon="8.94475">
        <ele>854</ele>
        <time>2021-08-02T11:53:35.060Z</time>
      </trkpt>
      <trkpt lat="47.02523" lon="8.94475">
        <ele>854</ele>
        <time>2021-08-02T11:53:36.060Z</time>
      </trkpt>
      <trkpt lat="47.02519" lon="8.94478">
        <ele>855</ele>
        <time>2021-08-02T11:53:37.060Z</time>
      </trkpt>
      <trkpt lat="47.02516" lon="8.94479">
        <ele>856</ele>
        <time>2021-08-02T11:53:38.059Z</time>
      </trkpt>
      <trkpt lat="47.02513" lon="8.94481">
        <ele>856</ele>
        <time>2021-08-02T11:53:39.059Z</time>
      </trkpt>
      <trkpt lat="47.02513" lon="8.94482">
        <ele>856</ele>
        <time>2021-08-02T11:53:40.060Z</time>
      </trkpt>
      <trkpt lat="47.02512" lon="8.94483">
        <ele>856</ele>
        <time>2021-08-02T11:53:41.059Z</time>
      </trkpt>
      <trkpt lat="47.02511" lon="8.94484">
        <ele>856</ele>
        <time>2021-08-02T11:53:42.060Z</time>
      </trkpt>
      <trkpt lat="47.02511" lon="8.94485">
        <ele>856</ele>
        <time>2021-08-02T11:53:43.059Z</time>
      </trkpt>
      <trkpt lat="47.0251" lon="8.94485">
        <ele>856</ele>
        <time>2021-08-02T11:53:44.059Z</time>
      </trkpt>
      <trkpt lat="47.02511" lon="8.94485">
        <ele>856</ele>
        <time>2021-08-02T11:53:47.144Z</time>
      </trkpt>
      <trkpt lat="47.02511" lon="8.94485">
        <ele>856</ele>
        <time>2021-08-02T11:53:48.144Z</time>
      </trkpt>
      <trkpt lat="47.02511" lon="8.94485">
        <ele>856</ele>
        <time>2021-08-02T11:53:49.144Z</time>
      </trkpt>
      <trkpt lat="47.02512" lon="8.94485">
        <ele>856</ele>
        <time>2021-08-02T11:53:50.145Z</time>
      </trkpt>
      <trkpt lat="47.02522" lon="8.94472">
        <ele>854</ele>
        <time>2021-08-02T11:53:51.147Z</time>
      </trkpt>
      <trkpt lat="47.02522" lon="8.94472">
        <ele>854</ele>
        <time>2021-08-02T11:53:52.147Z</time>
      </trkpt>
      <trkpt lat="47.02521" lon="8.94471">
        <ele>854</ele>
        <time>2021-08-02T11:53:53.146Z</time>
      </trkpt>
      <trkpt lat="47.02519" lon="8.94472">
        <ele>852</ele>
        <time>2021-08-02T11:53:54.147Z</time>
      </trkpt>
      <trkpt lat="47.02518" lon="8.94472">
        <ele>851</ele>
        <time>2021-08-02T11:53:55.146Z</time>
      </trkpt>
      <trkpt lat="47.02517" lon="8.94473">
        <ele>851</ele>
        <time>2021-08-02T11:53:56.146Z</time>
      </trkpt>
      <trkpt lat="47.02517" lon="8.94473">
        <ele>850</ele>
        <time>2021-08-02T11:53:57.146Z</time>
      </trkpt>
      <trkpt lat="47.02517" lon="8.94473">
        <ele>850</ele>
        <time>2021-08-02T11:53:58.146Z</time>
      </trkpt>
      <trkpt lat="47.02517" lon="8.94473">
        <ele>850</ele>
        <time>2021-08-02T11:53:59.146Z</time>
      </trkpt>
      <trkpt lat="47.02518" lon="8.94472">
        <ele>849</ele>
        <time>2021-08-02T11:54:00.147Z</time>
      </trkpt>
      <trkpt lat="47.02518" lon="8.94472">
        <ele>848</ele>
        <time>2021-08-02T11:54:01.146Z</time>
      </trkpt>
      <trkpt lat="47.02518" lon="8.94472">
        <ele>848</ele>
        <time>2021-08-02T11:54:02.147Z</time>
      </trkpt>
      <trkpt lat="47.02518" lon="8.94472">
        <ele>848</ele>
        <time>2021-08-02T11:54:03.146Z</time>
      </trkpt>
      <trkpt lat="47.02519" lon="8.94472">
        <ele>848</ele>
        <time>2021-08-02T11:54:04.146Z</time>
      </trkpt>
      <trkpt lat="47.02519" lon="8.94471">
        <ele>848</ele>
        <time>2021-08-02T11:54:05.147Z</time>
      </trkpt>
      <trkpt lat="47.02519" lon="8.94472">
        <ele>848</ele>
        <time>2021-08-02T11:54:06.147Z</time>
      </trkpt>
      <trkpt lat="47.0252" lon="8.94477">
        <ele>852</ele>
        <time>2021-08-02T11:54:07.148Z</time>
      </trkpt>
      <trkpt lat="47.0252" lon="8.94478">
        <ele>852</ele>
        <time>2021-08-02T11:54:08.148Z</time>
      </trkpt>
      <trkpt lat="47.02521" lon="8.94478">
        <ele>852</ele>
        <time>2021-08-02T11:54:09.147Z</time>
      </trkpt>
      <trkpt lat="47.02521" lon="8.94476">
        <ele>852</ele>
        <time>2021-08-02T11:54:10.148Z</time>
      </trkpt>
      <trkpt lat="47.02521" lon="8.94475">
        <ele>852</ele>
        <time>2021-08-02T11:54:11.147Z</time>
      </trkpt>
      <trkpt lat="47.02521" lon="8.94473">
        <ele>852</ele>
        <time>2021-08-02T11:54:12.148Z</time>
      </trkpt>
      <trkpt lat="47.02522" lon="8.94472">
        <ele>852</ele>
        <time>2021-08-02T11:54:13.148Z</time>
      </trkpt>
      <trkpt lat="47.02522" lon="8.94471">
        <ele>852</ele>
        <time>2021-08-02T11:54:14.148Z</time>
      </trkpt>
      <trkpt lat="47.02522" lon="8.9447">
        <ele>852</ele>
        <time>2021-08-02T11:54:15.147Z</time>
      </trkpt>
      <trkpt lat="47.02522" lon="8.9447">
        <ele>851</ele>
        <time>2021-08-02T11:54:16.148Z</time>
      </trkpt>
      <trkpt lat="47.02521" lon="8.94469">
        <ele>851</ele>
        <time>2021-08-02T11:54:17.148Z</time>
      </trkpt>
      <trkpt lat="47.0252" lon="8.94468">
        <ele>850</ele>
        <time>2021-08-02T11:54:18.147Z</time>
      </trkpt>
      <trkpt lat="47.02519" lon="8.94467">
        <ele>850</ele>
        <time>2021-08-02T11:54:19.148Z</time>
      </trkpt>
      <trkpt lat="47.02519" lon="8.94466">
        <ele>850</ele>
        <time>2021-08-02T11:54:20.147Z</time>
      </trkpt>
      <trkpt lat="47.02518" lon="8.94465">
        <ele>850</ele>
        <time>2021-08-02T11:54:21.148Z</time>
      </trkpt>
      <trkpt lat="47.02518" lon="8.94463">
        <ele>850</ele>
        <time>2021-08-02T11:54:22.147Z</time>
      </trkpt>
      <trkpt lat="47.02517" lon="8.94462">
        <ele>850</ele>
        <time>2021-08-02T11:54:23.147Z</time>
      </trkpt>
      <trkpt lat="47.02516" lon="8.94462">
        <ele>850</ele>
        <time>2021-08-02T11:54:24.148Z</time>
      </trkpt>
      <trkpt lat="47.02515" lon="8.94461">
        <ele>850</ele>
        <time>2021-08-02T11:54:25.148Z</time>
      </trkpt>
      <trkpt lat="47.02515" lon="8.9446">
        <ele>850</ele>
        <time>2021-08-02T11:54:26.147Z</time>
      </trkpt>
      <trkpt lat="47.02514" lon="8.94459">
        <ele>850</ele>
        <time>2021-08-02T11:54:27.148Z</time>
      </trkpt>
      <trkpt lat="47.02513" lon="8.94458">
        <ele>849</ele>
        <time>2021-08-02T11:54:28.147Z</time>
      </trkpt>
      <trkpt lat="47.02513" lon="8.94456">
        <ele>849</ele>
        <time>2021-08-02T11:54:29.147Z</time>
      </trkpt>
      <trkpt lat="47.02512" lon="8.94456">
        <ele>848</ele>
        <time>2021-08-02T11:54:30.148Z</time>
      </trkpt>
      <trkpt lat="47.02511" lon="8.94455">
        <ele>848</ele>
        <time>2021-08-02T11:54:31.147Z</time>
      </trkpt>
      <trkpt lat="47.02511" lon="8.94454">
        <ele>847</ele>
        <time>2021-08-02T11:54:32.148Z</time>
      </trkpt>
      <trkpt lat="47.02511" lon="8.94452">
        <ele>847</ele>
        <time>2021-08-02T11:54:33.147Z</time>
      </trkpt>
      <trkpt lat="47.02511" lon="8.94451">
        <ele>847</ele>
        <time>2021-08-02T11:54:34.148Z</time>
      </trkpt>
      <trkpt lat="47.02511" lon="8.9445">
        <ele>847</ele>
        <time>2021-08-02T11:54:35.148Z</time>
      </trkpt>
      <trkpt lat="47.02511" lon="8.94449">
        <ele>848</ele>
        <time>2021-08-02T11:54:36.147Z</time>
      </trkpt>
      <trkpt lat="47.02511" lon="8.94449">
        <ele>848</ele>
        <time>2021-08-02T11:54:37.148Z</time>
      </trkpt>
      <trkpt lat="47.02511" lon="8.94449">
        <ele>848</ele>
        <time>2021-08-02T11:54:38.148Z</time>
      </trkpt>
      <trkpt lat="47.02511" lon="8.94451">
        <ele>847</ele>
        <time>2021-08-02T11:54:39.148Z</time>
      </trkpt>
      <trkpt lat="47.02511" lon="8.94453">
        <ele>847</ele>
        <time>2021-08-02T11:54:40.147Z</time>
      </trkpt>
      <trkpt lat="47.02511" lon="8.94454">
        <ele>847</ele>
        <time>2021-08-02T11:54:41.148Z</time>
      </trkpt>
      <trkpt lat="47.02511" lon="8.94455">
        <ele>846</ele>
        <time>2021-08-02T11:54:42.148Z</time>
      </trkpt>
      <trkpt lat="47.02511" lon="8.94456">
        <ele>846</ele>
        <time>2021-08-02T11:54:43.148Z</time>
      </trkpt>
      <trkpt lat="47.02511" lon="8.94457">
        <ele>845</ele>
        <time>2021-08-02T11:54:44.147Z</time>
      </trkpt>
      <trkpt lat="47.02511" lon="8.94459">
        <ele>845</ele>
        <time>2021-08-02T11:54:45.148Z</time>
      </trkpt>
      <trkpt lat="47.0251" lon="8.9446">
        <ele>844</ele>
        <time>2021-08-02T11:54:46.147Z</time>
      </trkpt>
      <trkpt lat="47.02509" lon="8.94461">
        <ele>844</ele>
        <time>2021-08-02T11:54:47.147Z</time>
      </trkpt>
      <trkpt lat="47.02509" lon="8.94463">
        <ele>844</ele>
        <time>2021-08-02T11:54:48.148Z</time>
      </trkpt>
      <trkpt lat="47.02508" lon="8.94464">
        <ele>844</ele>
        <time>2021-08-02T11:54:49.148Z</time>
      </trkpt>
      <trkpt lat="47.02508" lon="8.94465">
        <ele>844</ele>
        <time>2021-08-02T11:54:50.147Z</time>
      </trkpt>
      <trkpt lat="47.02507" lon="8.94467">
        <ele>844</ele>
        <time>2021-08-02T11:54:51.148Z</time>
      </trkpt>
      <trkpt lat="47.02507" lon="8.94468">
        <ele>844</ele>
        <time>2021-08-02T11:54:52.148Z</time>
      </trkpt>
      <trkpt lat="47.02506" lon="8.94469">
        <ele>844</ele>
        <time>2021-08-02T11:54:53.148Z</time>
      </trkpt>
      <trkpt lat="47.02506" lon="8.94469">
        <ele>844</ele>
        <time>2021-08-02T11:54:54.147Z</time>
      </trkpt>
      <trkpt lat="47.02505" lon="8.94471">
        <ele>844</ele>
        <time>2021-08-02T11:54:55.147Z</time>
      </trkpt>
      <trkpt lat="47.02504" lon="8.94474">
        <ele>845</ele>
        <time>2021-08-02T11:54:56.147Z</time>
      </trkpt>
      <trkpt lat="47.02502" lon="8.94477">
        <ele>845</ele>
        <time>2021-08-02T11:54:57.148Z</time>
      </trkpt>
      <trkpt lat="47.02501" lon="8.94478">
        <ele>846</ele>
        <time>2021-08-02T11:54:58.148Z</time>
      </trkpt>
      <trkpt lat="47.02502" lon="8.94479">
        <ele>847</ele>
        <time>2021-08-02T11:54:59.147Z</time>
      </trkpt>
      <trkpt lat="47.02502" lon="8.9448">
        <ele>847</ele>
        <time>2021-08-02T11:55:00.147Z</time>
      </trkpt>
      <trkpt lat="47.02501" lon="8.94481">
        <ele>848</ele>
        <time>2021-08-02T11:55:01.147Z</time>
      </trkpt>
      <trkpt lat="47.025" lon="8.94483">
        <ele>848</ele>
        <time>2021-08-02T11:55:02.147Z</time>
      </trkpt>
      <trkpt lat="47.02499" lon="8.94484">
        <ele>848</ele>
        <time>2021-08-02T11:55:03.148Z</time>
      </trkpt>
      <trkpt lat="47.02498" lon="8.94486">
        <ele>849</ele>
        <time>2021-08-02T11:55:04.147Z</time>
      </trkpt>
      <trkpt lat="47.02498" lon="8.94487">
        <ele>849</ele>
        <time>2021-08-02T11:55:05.147Z</time>
      </trkpt>
      <trkpt lat="47.02498" lon="8.94487">
        <ele>850</ele>
        <time>2021-08-02T11:55:06.147Z</time>
      </trkpt>
      <trkpt lat="47.02497" lon="8.94488">
        <ele>850</ele>
        <time>2021-08-02T11:55:07.148Z</time>
      </trkpt>
      <trkpt lat="47.02496" lon="8.94488">
        <ele>850</ele>
        <time>2021-08-02T11:55:08.147Z</time>
      </trkpt>
      <trkpt lat="47.02495" lon="8.94489">
        <ele>851</ele>
        <time>2021-08-02T11:55:09.147Z</time>
      </trkpt>
      <trkpt lat="47.02494" lon="8.9449">
        <ele>851</ele>
        <time>2021-08-02T11:55:10.147Z</time>
      </trkpt>
      <trkpt lat="47.02493" lon="8.9449">
        <ele>851</ele>
        <time>2021-08-02T11:55:11.147Z</time>
      </trkpt>
      <trkpt lat="47.02492" lon="8.94491">
        <ele>851</ele>
        <time>2021-08-02T11:55:12.147Z</time>
      </trkpt>
      <trkpt lat="47.02491" lon="8.94491">
        <ele>851</ele>
        <time>2021-08-02T11:55:13.148Z</time>
      </trkpt>
      <trkpt lat="47.0249" lon="8.94492">
        <ele>852</ele>
        <time>2021-08-02T11:55:14.147Z</time>
      </trkpt>
      <trkpt lat="47.02489" lon="8.94493">
        <ele>851</ele>
        <time>2021-08-02T11:55:15.148Z</time>
      </trkpt>
      <trkpt lat="47.02488" lon="8.94494">
        <ele>851</ele>
        <time>2021-08-02T11:55:16.147Z</time>
      </trkpt>
      <trkpt lat="47.02487" lon="8.94496">
        <ele>851</ele>
        <time>2021-08-02T11:55:17.148Z</time>
      </trkpt>
      <trkpt lat="47.02486" lon="8.94496">
        <ele>850</ele>
        <time>2021-08-02T11:55:18.148Z</time>
      </trkpt>
      <trkpt lat="47.02486" lon="8.94496">
        <ele>850</ele>
        <time>2021-08-02T11:55:19.147Z</time>
      </trkpt>
      <trkpt lat="47.02486" lon="8.94496">
        <ele>850</ele>
        <time>2021-08-02T11:55:20.147Z</time>
      </trkpt>
      <trkpt lat="47.02485" lon="8.94497">
        <ele>849</ele>
        <time>2021-08-02T11:55:21.147Z</time>
      </trkpt>
      <trkpt lat="47.02485" lon="8.94497">
        <ele>849</ele>
        <time>2021-08-02T11:55:22.148Z</time>
      </trkpt>
      <trkpt lat="47.02484" lon="8.94498">
        <ele>849</ele>
        <time>2021-08-02T11:55:23.147Z</time>
      </trkpt>
      <trkpt lat="47.02483" lon="8.94499">
        <ele>849</ele>
        <time>2021-08-02T11:55:24.147Z</time>
      </trkpt>
      <trkpt lat="47.02482" lon="8.945">
        <ele>849</ele>
        <time>2021-08-02T11:55:25.147Z</time>
      </trkpt>
      <trkpt lat="47.02481" lon="8.945">
        <ele>850</ele>
        <time>2021-08-02T11:55:26.148Z</time>
      </trkpt>
      <trkpt lat="47.0248" lon="8.94501">
        <ele>850</ele>
        <time>2021-08-02T11:55:27.147Z</time>
      </trkpt>
      <trkpt lat="47.02479" lon="8.94502">
        <ele>850</ele>
        <time>2021-08-02T11:55:28.148Z</time>
      </trkpt>
      <trkpt lat="47.02478" lon="8.94502">
        <ele>850</ele>
        <time>2021-08-02T11:55:29.147Z</time>
      </trkpt>
      <trkpt lat="47.02477" lon="8.94503">
        <ele>851</ele>
        <time>2021-08-02T11:55:30.148Z</time>
      </trkpt>
      <trkpt lat="47.02476" lon="8.94504">
        <ele>851</ele>
        <time>2021-08-02T11:55:31.147Z</time>
      </trkpt>
      <trkpt lat="47.02475" lon="8.94504">
        <ele>851</ele>
        <time>2021-08-02T11:55:32.148Z</time>
      </trkpt>
      <trkpt lat="47.02474" lon="8.94505">
        <ele>851</ele>
        <time>2021-08-02T11:55:33.148Z</time>
      </trkpt>
      <trkpt lat="47.02474" lon="8.94505">
        <ele>851</ele>
        <time>2021-08-02T11:55:34.147Z</time>
      </trkpt>
      <trkpt lat="47.02472" lon="8.94505">
        <ele>851</ele>
        <time>2021-08-02T11:55:35.147Z</time>
      </trkpt>
      <trkpt lat="47.02471" lon="8.94506">
        <ele>851</ele>
        <time>2021-08-02T11:55:36.147Z</time>
      </trkpt>
      <trkpt lat="47.0247" lon="8.94507">
        <ele>851</ele>
        <time>2021-08-02T11:55:37.148Z</time>
      </trkpt>
      <trkpt lat="47.02469" lon="8.94508">
        <ele>851</ele>
        <time>2021-08-02T11:55:38.148Z</time>
      </trkpt>
      <trkpt lat="47.02467" lon="8.94509">
        <ele>851</ele>
        <time>2021-08-02T11:55:39.148Z</time>
      </trkpt>
      <trkpt lat="47.02466" lon="8.94509">
        <ele>851</ele>
        <time>2021-08-02T11:55:40.147Z</time>
      </trkpt>
      <trkpt lat="47.02465" lon="8.9451">
        <ele>852</ele>
        <time>2021-08-02T11:55:41.147Z</time>
      </trkpt>
      <trkpt lat="47.02464" lon="8.94511">
        <ele>852</ele>
        <time>2021-08-02T11:55:42.147Z</time>
      </trkpt>
      <trkpt lat="47.02463" lon="8.94511">
        <ele>853</ele>
        <time>2021-08-02T11:55:43.148Z</time>
      </trkpt>
      <trkpt lat="47.02462" lon="8.94512">
        <ele>853</ele>
        <time>2021-08-02T11:55:44.147Z</time>
      </trkpt>
      <trkpt lat="47.0246" lon="8.94513">
        <ele>854</ele>
        <time>2021-08-02T11:55:45.147Z</time>
      </trkpt>
      <trkpt lat="47.02459" lon="8.94513">
        <ele>854</ele>
        <time>2021-08-02T11:55:46.147Z</time>
      </trkpt>
      <trkpt lat="47.02458" lon="8.94514">
        <ele>855</ele>
        <time>2021-08-02T11:55:47.148Z</time>
      </trkpt>
      <trkpt lat="47.02457" lon="8.94515">
        <ele>855</ele>
        <time>2021-08-02T11:55:48.147Z</time>
      </trkpt>
      <trkpt lat="47.02456" lon="8.94515">
        <ele>855</ele>
        <time>2021-08-02T11:55:49.147Z</time>
      </trkpt>
      <trkpt lat="47.02455" lon="8.94516">
        <ele>855</ele>
        <time>2021-08-02T11:55:50.147Z</time>
      </trkpt>
      <trkpt lat="47.02452" lon="8.94519">
        <ele>855</ele>
        <time>2021-08-02T11:55:51.147Z</time>
      </trkpt>
      <trkpt lat="47.0245" lon="8.94521">
        <ele>855</ele>
        <time>2021-08-02T11:55:52.148Z</time>
      </trkpt>
      <trkpt lat="47.02448" lon="8.94522">
        <ele>855</ele>
        <time>2021-08-02T11:55:53.147Z</time>
      </trkpt>
      <trkpt lat="47.02447" lon="8.94524">
        <ele>855</ele>
        <time>2021-08-02T11:55:54.147Z</time>
      </trkpt>
      <trkpt lat="47.02445" lon="8.94526">
        <ele>856</ele>
        <time>2021-08-02T11:55:55.147Z</time>
      </trkpt>
      <trkpt lat="47.02443" lon="8.94527">
        <ele>856</ele>
        <time>2021-08-02T11:55:56.147Z</time>
      </trkpt>
      <trkpt lat="47.02442" lon="8.94528">
        <ele>856</ele>
        <time>2021-08-02T11:55:57.147Z</time>
      </trkpt>
      <trkpt lat="47.0244" lon="8.94529">
        <ele>856</ele>
        <time>2021-08-02T11:55:58.147Z</time>
      </trkpt>
      <trkpt lat="47.02439" lon="8.9453">
        <ele>857</ele>
        <time>2021-08-02T11:55:59.147Z</time>
      </trkpt>
      <trkpt lat="47.02438" lon="8.94531">
        <ele>857</ele>
        <time>2021-08-02T11:56:00.147Z</time>
      </trkpt>
      <trkpt lat="47.02436" lon="8.94531">
        <ele>857</ele>
        <time>2021-08-02T11:56:01.147Z</time>
      </trkpt>
      <trkpt lat="47.02436" lon="8.9453">
        <ele>857</ele>
        <time>2021-08-02T11:56:02.147Z</time>
      </trkpt>
      <trkpt lat="47.02435" lon="8.94529">
        <ele>857</ele>
        <time>2021-08-02T11:56:03.147Z</time>
      </trkpt>
      <trkpt lat="47.02434" lon="8.94529">
        <ele>857</ele>
        <time>2021-08-02T11:56:04.147Z</time>
      </trkpt>
      <trkpt lat="47.02432" lon="8.9453">
        <ele>857</ele>
        <time>2021-08-02T11:56:05.147Z</time>
      </trkpt>
      <trkpt lat="47.02431" lon="8.9453">
        <ele>857</ele>
        <time>2021-08-02T11:56:06.147Z</time>
      </trkpt>
      <trkpt lat="47.0243" lon="8.9453">
        <ele>858</ele>
        <time>2021-08-02T11:56:07.147Z</time>
      </trkpt>
      <trkpt lat="47.02429" lon="8.94529">
        <ele>858</ele>
        <time>2021-08-02T11:56:08.148Z</time>
      </trkpt>
      <trkpt lat="47.02428" lon="8.94529">
        <ele>858</ele>
        <time>2021-08-02T11:56:09.147Z</time>
      </trkpt>
      <trkpt lat="47.02426" lon="8.94529">
        <ele>858</ele>
        <time>2021-08-02T11:56:10.148Z</time>
      </trkpt>
      <trkpt lat="47.02425" lon="8.94528">
        <ele>858</ele>
        <time>2021-08-02T11:56:11.147Z</time>
      </trkpt>
      <trkpt lat="47.02424" lon="8.94529">
        <ele>858</ele>
        <time>2021-08-02T11:56:12.148Z</time>
      </trkpt>
      <trkpt lat="47.02422" lon="8.94529">
        <ele>858</ele>
        <time>2021-08-02T11:56:13.148Z</time>
      </trkpt>
      <trkpt lat="47.02422" lon="8.94528">
        <ele>858</ele>
        <time>2021-08-02T11:56:14.148Z</time>
      </trkpt>
      <trkpt lat="47.02421" lon="8.94528">
        <ele>858</ele>
        <time>2021-08-02T11:56:15.148Z</time>
      </trkpt>
      <trkpt lat="47.0242" lon="8.94528">
        <ele>858</ele>
        <time>2021-08-02T11:56:16.148Z</time>
      </trkpt>
      <trkpt lat="47.02419" lon="8.94528">
        <ele>858</ele>
        <time>2021-08-02T11:56:17.148Z</time>
      </trkpt>
      <trkpt lat="47.02419" lon="8.94528">
        <ele>858</ele>
        <time>2021-08-02T11:56:18.147Z</time>
      </trkpt>
      <trkpt lat="47.02418" lon="8.94528">
        <ele>858</ele>
        <time>2021-08-02T11:56:19.148Z</time>
      </trkpt>
      <trkpt lat="47.02417" lon="8.94528">
        <ele>858</ele>
        <time>2021-08-02T11:56:20.148Z</time>
      </trkpt>
      <trkpt lat="47.02416" lon="8.94528">
        <ele>859</ele>
        <time>2021-08-02T11:56:21.147Z</time>
      </trkpt>
      <trkpt lat="47.02415" lon="8.94529">
        <ele>859</ele>
        <time>2021-08-02T11:56:22.148Z</time>
      </trkpt>
      <trkpt lat="47.02414" lon="8.94528">
        <ele>859</ele>
        <time>2021-08-02T11:56:23.147Z</time>
      </trkpt>
      <trkpt lat="47.02412" lon="8.94527">
        <ele>859</ele>
        <time>2021-08-02T11:56:24.147Z</time>
      </trkpt>
      <trkpt lat="47.02411" lon="8.94527">
        <ele>859</ele>
        <time>2021-08-02T11:56:25.147Z</time>
      </trkpt>
      <trkpt lat="47.0241" lon="8.94527">
        <ele>859</ele>
        <time>2021-08-02T11:56:26.148Z</time>
      </trkpt>
      <trkpt lat="47.02409" lon="8.94528">
        <ele>859</ele>
        <time>2021-08-02T11:56:27.148Z</time>
      </trkpt>
      <trkpt lat="47.02408" lon="8.94528">
        <ele>859</ele>
        <time>2021-08-02T11:56:28.148Z</time>
      </trkpt>
      <trkpt lat="47.02407" lon="8.94528">
        <ele>859</ele>
        <time>2021-08-02T11:56:29.147Z</time>
      </trkpt>
      <trkpt lat="47.02406" lon="8.94527">
        <ele>859</ele>
        <time>2021-08-02T11:56:30.147Z</time>
      </trkpt>
      <trkpt lat="47.02406" lon="8.94526">
        <ele>860</ele>
        <time>2021-08-02T11:56:31.148Z</time>
      </trkpt>
      <trkpt lat="47.02404" lon="8.94525">
        <ele>860</ele>
        <time>2021-08-02T11:56:32.148Z</time>
      </trkpt>
      <trkpt lat="47.02403" lon="8.94525">
        <ele>860</ele>
        <time>2021-08-02T11:56:33.147Z</time>
      </trkpt>
      <trkpt lat="47.02402" lon="8.94523">
        <ele>861</ele>
        <time>2021-08-02T11:56:34.148Z</time>
      </trkpt>
      <trkpt lat="47.02401" lon="8.94522">
        <ele>861</ele>
        <time>2021-08-02T11:56:35.147Z</time>
      </trkpt>
      <trkpt lat="47.02399" lon="8.94521">
        <ele>861</ele>
        <time>2021-08-02T11:56:36.147Z</time>
      </trkpt>
      <trkpt lat="47.02398" lon="8.9452">
        <ele>862</ele>
        <time>2021-08-02T11:56:37.147Z</time>
      </trkpt>
      <trkpt lat="47.02397" lon="8.94519">
        <ele>862</ele>
        <time>2021-08-02T11:56:38.148Z</time>
      </trkpt>
      <trkpt lat="47.02396" lon="8.94519">
        <ele>862</ele>
        <time>2021-08-02T11:56:39.147Z</time>
      </trkpt>
      <trkpt lat="47.02395" lon="8.94518">
        <ele>862</ele>
        <time>2021-08-02T11:56:40.147Z</time>
      </trkpt>
      <trkpt lat="47.02395" lon="8.94518">
        <ele>862</ele>
        <time>2021-08-02T11:56:41.147Z</time>
      </trkpt>
      <trkpt lat="47.02393" lon="8.94518">
        <ele>862</ele>
        <time>2021-08-02T11:56:42.148Z</time>
      </trkpt>
      <trkpt lat="47.02392" lon="8.94518">
        <ele>862</ele>
        <time>2021-08-02T11:56:43.148Z</time>
      </trkpt>
      <trkpt lat="47.0239" lon="8.94518">
        <ele>862</ele>
        <time>2021-08-02T11:56:44.147Z</time>
      </trkpt>
      <trkpt lat="47.02389" lon="8.94518">
        <ele>862</ele>
        <time>2021-08-02T11:56:45.148Z</time>
      </trkpt>
      <trkpt lat="47.02388" lon="8.94518">
        <ele>861</ele>
        <time>2021-08-02T11:56:46.147Z</time>
      </trkpt>
      <trkpt lat="47.02387" lon="8.94519">
        <ele>861</ele>
        <time>2021-08-02T11:56:47.147Z</time>
      </trkpt>
      <trkpt lat="47.02385" lon="8.9452">
        <ele>861</ele>
        <time>2021-08-02T11:56:50.269Z</time>
      </trkpt>
      <trkpt lat="47.02384" lon="8.94521">
        <ele>860</ele>
        <time>2021-08-02T11:56:51.269Z</time>
      </trkpt>
      <trkpt lat="47.02383" lon="8.94522">
        <ele>860</ele>
        <time>2021-08-02T11:56:52.269Z</time>
      </trkpt>
      <trkpt lat="47.02382" lon="8.94523">
        <ele>860</ele>
        <time>2021-08-02T11:56:53.269Z</time>
      </trkpt>
      <trkpt lat="47.02381" lon="8.94524">
        <ele>860</ele>
        <time>2021-08-02T11:56:54.269Z</time>
      </trkpt>
      <trkpt lat="47.0238" lon="8.94525">
        <ele>859</ele>
        <time>2021-08-02T11:56:55.269Z</time>
      </trkpt>
      <trkpt lat="47.02379" lon="8.94527">
        <ele>859</ele>
        <time>2021-08-02T11:56:56.269Z</time>
      </trkpt>
      <trkpt lat="47.02377" lon="8.94528">
        <ele>858</ele>
        <time>2021-08-02T11:56:57.270Z</time>
      </trkpt>
      <trkpt lat="47.02376" lon="8.94529">
        <ele>858</ele>
        <time>2021-08-02T11:57:10.293Z</time>
      </trkpt>
      <trkpt lat="47.02375" lon="8.94531">
        <ele>858</ele>
        <time>2021-08-02T11:57:11.293Z</time>
      </trkpt>
      <trkpt lat="47.02375" lon="8.94532">
        <ele>857</ele>
        <time>2021-08-02T11:57:12.293Z</time>
      </trkpt>
      <trkpt lat="47.02374" lon="8.94533">
        <ele>857</ele>
        <time>2021-08-02T11:57:14.413Z</time>
      </trkpt>
      <trkpt lat="47.02374" lon="8.94534">
        <ele>856</ele>
        <time>2021-08-02T11:57:15.413Z</time>
      </trkpt>
      <trkpt lat="47.02374" lon="8.94535">
        <ele>856</ele>
        <time>2021-08-02T11:57:16.413Z</time>
      </trkpt>
      <trkpt lat="47.02373" lon="8.94536">
        <ele>855</ele>
        <time>2021-08-02T11:57:17.413Z</time>
      </trkpt>
      <trkpt lat="47.02372" lon="8.94537">
        <ele>854</ele>
        <time>2021-08-02T11:57:18.413Z</time>
      </trkpt>
      <trkpt lat="47.02372" lon="8.94538">
        <ele>854</ele>
        <time>2021-08-02T11:57:19.413Z</time>
      </trkpt>
      <trkpt lat="47.02371" lon="8.9454">
        <ele>853</ele>
        <time>2021-08-02T11:57:20.413Z</time>
      </trkpt>
      <trkpt lat="47.02371" lon="8.94542">
        <ele>853</ele>
        <time>2021-08-02T11:57:22.501Z</time>
      </trkpt>
      <trkpt lat="47.0237" lon="8.94543">
        <ele>852</ele>
        <time>2021-08-02T11:57:24.252Z</time>
      </trkpt>
      <trkpt lat="47.02369" lon="8.94545">
        <ele>852</ele>
        <time>2021-08-02T11:57:25.251Z</time>
      </trkpt>
      <trkpt lat="47.02369" lon="8.94546">
        <ele>852</ele>
        <time>2021-08-02T11:57:26.251Z</time>
      </trkpt>
      <trkpt lat="47.02369" lon="8.94548">
        <ele>852</ele>
        <time>2021-08-02T11:57:27.251Z</time>
      </trkpt>
      <trkpt lat="47.02368" lon="8.94549">
        <ele>851</ele>
        <time>2021-08-02T11:57:28.252Z</time>
      </trkpt>
      <trkpt lat="47.02368" lon="8.9455">
        <ele>851</ele>
        <time>2021-08-02T11:57:29.252Z</time>
      </trkpt>
      <trkpt lat="47.02366" lon="8.94552">
        <ele>852</ele>
        <time>2021-08-02T11:57:30.251Z</time>
      </trkpt>
      <trkpt lat="47.02365" lon="8.94554">
        <ele>852</ele>
        <time>2021-08-02T11:57:31.252Z</time>
      </trkpt>
      <trkpt lat="47.02365" lon="8.94556">
        <ele>852</ele>
        <time>2021-08-02T11:57:32.251Z</time>
      </trkpt>
      <trkpt lat="47.02365" lon="8.94558">
        <ele>852</ele>
        <time>2021-08-02T11:57:33.252Z</time>
      </trkpt>
      <trkpt lat="47.02365" lon="8.9456">
        <ele>853</ele>
        <time>2021-08-02T11:57:34.251Z</time>
      </trkpt>
      <trkpt lat="47.02364" lon="8.94562">
        <ele>853</ele>
        <time>2021-08-02T11:57:35.252Z</time>
      </trkpt>
      <trkpt lat="47.02363" lon="8.94563">
        <ele>853</ele>
        <time>2021-08-02T11:57:36.251Z</time>
      </trkpt>
      <trkpt lat="47.02362" lon="8.94564">
        <ele>854</ele>
        <time>2021-08-02T11:57:37.252Z</time>
      </trkpt>
      <trkpt lat="47.02361" lon="8.94564">
        <ele>854</ele>
        <time>2021-08-02T11:57:43.426Z</time>
      </trkpt>
      <trkpt lat="47.0236" lon="8.94566">
        <ele>854</ele>
        <time>2021-08-02T11:57:47.273Z</time>
      </trkpt>
      <trkpt lat="47.02359" lon="8.94567">
        <ele>854</ele>
        <time>2021-08-02T11:58:05.035Z</time>
      </trkpt>
      <trkpt lat="47.02358" lon="8.94568">
        <ele>855</ele>
        <time>2021-08-02T11:58:06.035Z</time>
      </trkpt>
      <trkpt lat="47.02358" lon="8.94569">
        <ele>855</ele>
        <time>2021-08-02T11:58:07.035Z</time>
      </trkpt>
      <trkpt lat="47.02357" lon="8.94571">
        <ele>855</ele>
        <time>2021-08-02T11:58:08.035Z</time>
      </trkpt>
      <trkpt lat="47.02356" lon="8.94573">
        <ele>855</ele>
        <time>2021-08-02T11:58:09.035Z</time>
      </trkpt>
      <trkpt lat="47.02355" lon="8.94574">
        <ele>855</ele>
        <time>2021-08-02T11:58:10.034Z</time>
      </trkpt>
      <trkpt lat="47.02355" lon="8.94575">
        <ele>855</ele>
        <time>2021-08-02T11:58:11.035Z</time>
      </trkpt>
      <trkpt lat="47.02354" lon="8.94577">
        <ele>855</ele>
        <time>2021-08-02T11:58:12.035Z</time>
      </trkpt>
      <trkpt lat="47.02353" lon="8.9458">
        <ele>855</ele>
        <time>2021-08-02T11:58:13.035Z</time>
      </trkpt>
      <trkpt lat="47.02353" lon="8.94583">
        <ele>855</ele>
        <time>2021-08-02T11:58:14.035Z</time>
      </trkpt>
      <trkpt lat="47.02352" lon="8.94585">
        <ele>855</ele>
        <time>2021-08-02T11:58:15.035Z</time>
      </trkpt>
      <trkpt lat="47.02352" lon="8.94586">
        <ele>855</ele>
        <time>2021-08-02T11:58:27.145Z</time>
      </trkpt>
      <trkpt lat="47.02352" lon="8.94587">
        <ele>854</ele>
        <time>2021-08-02T11:58:28.145Z</time>
      </trkpt>
      <trkpt lat="47.02352" lon="8.94588">
        <ele>854</ele>
        <time>2021-08-02T11:58:29.145Z</time>
      </trkpt>
      <trkpt lat="47.02352" lon="8.94589">
        <ele>853</ele>
        <time>2021-08-02T11:58:30.144Z</time>
      </trkpt>
      <trkpt lat="47.02352" lon="8.94589">
        <ele>852</ele>
        <time>2021-08-02T11:58:31.145Z</time>
      </trkpt>
      <trkpt lat="47.02352" lon="8.9459">
        <ele>852</ele>
        <time>2021-08-02T11:58:32.145Z</time>
      </trkpt>
      <trkpt lat="47.02352" lon="8.94591">
        <ele>852</ele>
        <time>2021-08-02T11:58:33.145Z</time>
      </trkpt>
      <trkpt lat="47.02351" lon="8.94591">
        <ele>852</ele>
        <time>2021-08-02T11:58:34.145Z</time>
      </trkpt>
      <trkpt lat="47.02351" lon="8.94592">
        <ele>852</ele>
        <time>2021-08-02T11:58:35.145Z</time>
      </trkpt>
      <trkpt lat="47.0235" lon="8.94592">
        <ele>852</ele>
        <time>2021-08-02T11:58:36.145Z</time>
      </trkpt>
      <trkpt lat="47.02349" lon="8.94593">
        <ele>852</ele>
        <time>2021-08-02T11:58:37.144Z</time>
      </trkpt>
      <trkpt lat="47.02348" lon="8.94594">
        <ele>852</ele>
        <time>2021-08-02T11:58:38.144Z</time>
      </trkpt>
      <trkpt lat="47.02347" lon="8.94595">
        <ele>852</ele>
        <time>2021-08-02T11:58:39.144Z</time>
      </trkpt>
      <trkpt lat="47.02347" lon="8.94596">
        <ele>852</ele>
        <time>2021-08-02T11:58:40.144Z</time>
      </trkpt>
      <trkpt lat="47.02346" lon="8.94597">
        <ele>851</ele>
        <time>2021-08-02T11:58:41.144Z</time>
      </trkpt>
      <trkpt lat="47.02346" lon="8.94598">
        <ele>850</ele>
        <time>2021-08-02T11:58:42.144Z</time>
      </trkpt>
      <trkpt lat="47.02345" lon="8.94599">
        <ele>850</ele>
        <time>2021-08-02T11:58:43.144Z</time>
      </trkpt>
      <trkpt lat="47.02345" lon="8.946">
        <ele>849</ele>
        <time>2021-08-02T11:58:44.144Z</time>
      </trkpt>
      <trkpt lat="47.02344" lon="8.94601">
        <ele>849</ele>
        <time>2021-08-02T11:58:45.144Z</time>
      </trkpt>
      <trkpt lat="47.02344" lon="8.94602">
        <ele>849</ele>
        <time>2021-08-02T11:58:46.145Z</time>
      </trkpt>
      <trkpt lat="47.02344" lon="8.94603">
        <ele>849</ele>
        <time>2021-08-02T11:58:47.145Z</time>
      </trkpt>
      <trkpt lat="47.02344" lon="8.94604">
        <ele>849</ele>
        <time>2021-08-02T11:58:48.145Z</time>
      </trkpt>
      <trkpt lat="47.02345" lon="8.94604">
        <ele>848</ele>
        <time>2021-08-02T11:58:49.145Z</time>
      </trkpt>
      <trkpt lat="47.02346" lon="8.94605">
        <ele>848</ele>
        <time>2021-08-02T11:58:50.144Z</time>
      </trkpt>
      <trkpt lat="47.02349" lon="8.94602">
        <ele>850</ele>
        <time>2021-08-02T11:58:51.145Z</time>
      </trkpt>
      <trkpt lat="47.0235" lon="8.94601">
        <ele>851</ele>
        <time>2021-08-02T11:58:52.145Z</time>
      </trkpt>
      <trkpt lat="47.0235" lon="8.946">
        <ele>851</ele>
        <time>2021-08-02T11:58:53.144Z</time>
      </trkpt>
      <trkpt lat="47.0235" lon="8.94599">
        <ele>851</ele>
        <time>2021-08-02T11:58:54.144Z</time>
      </trkpt>
      <trkpt lat="47.02351" lon="8.94599">
        <ele>851</ele>
        <time>2021-08-02T11:58:55.145Z</time>
      </trkpt>
      <trkpt lat="47.02351" lon="8.94598">
        <ele>850</ele>
        <time>2021-08-02T11:58:56.145Z</time>
      </trkpt>
      <trkpt lat="47.02351" lon="8.94598">
        <ele>850</ele>
        <time>2021-08-02T11:58:57.145Z</time>
      </trkpt>
      <trkpt lat="47.02349" lon="8.94597">
        <ele>847</ele>
        <time>2021-08-02T11:58:58.145Z</time>
      </trkpt>
      <trkpt lat="47.02349" lon="8.94598">
        <ele>848</ele>
        <time>2021-08-02T11:58:59.145Z</time>
      </trkpt>
      <trkpt lat="47.02349" lon="8.94598">
        <ele>848</ele>
        <time>2021-08-02T11:59:00.145Z</time>
      </trkpt>
      <trkpt lat="47.02349" lon="8.94599">
        <ele>848</ele>
        <time>2021-08-02T11:59:01.144Z</time>
      </trkpt>
      <trkpt lat="47.02348" lon="8.946">
        <ele>848</ele>
        <time>2021-08-02T11:59:02.145Z</time>
      </trkpt>
      <trkpt lat="47.02347" lon="8.94603">
        <ele>849</ele>
        <time>2021-08-02T11:59:03.145Z</time>
      </trkpt>
      <trkpt lat="47.02348" lon="8.94602">
        <ele>850</ele>
        <time>2021-08-02T11:59:04.144Z</time>
      </trkpt>
      <trkpt lat="47.0235" lon="8.946">
        <ele>853</ele>
        <time>2021-08-02T11:59:05.144Z</time>
      </trkpt>
      <trkpt lat="47.02351" lon="8.94599">
        <ele>854</ele>
        <time>2021-08-02T11:59:06.145Z</time>
      </trkpt>
      <trkpt lat="47.02351" lon="8.94599">
        <ele>855</ele>
        <time>2021-08-02T11:59:07.144Z</time>
      </trkpt>
      <trkpt lat="47.02352" lon="8.94598">
        <ele>855</ele>
        <time>2021-08-02T11:59:08.144Z</time>
      </trkpt>
      <trkpt lat="47.02352" lon="8.94598">
        <ele>855</ele>
        <time>2021-08-02T11:59:09.145Z</time>
      </trkpt>
      <trkpt lat="47.02353" lon="8.94598">
        <ele>855</ele>
        <time>2021-08-02T11:59:10.145Z</time>
      </trkpt>
      <trkpt lat="47.02354" lon="8.94599">
        <ele>856</ele>
        <time>2021-08-02T11:59:11.145Z</time>
      </trkpt>
      <trkpt lat="47.02356" lon="8.94599">
        <ele>856</ele>
        <time>2021-08-02T11:59:12.144Z</time>
      </trkpt>
      <trkpt lat="47.02358" lon="8.94598">
        <ele>856</ele>
        <time>2021-08-02T11:59:13.144Z</time>
      </trkpt>
      <trkpt lat="47.0236" lon="8.94598">
        <ele>856</ele>
        <time>2021-08-02T11:59:14.145Z</time>
      </trkpt>
      <trkpt lat="47.02361" lon="8.94597">
        <ele>856</ele>
        <time>2021-08-02T11:59:15.145Z</time>
      </trkpt>
      <trkpt lat="47.02361" lon="8.94597">
        <ele>857</ele>
        <time>2021-08-02T11:59:16.145Z</time>
      </trkpt>
      <trkpt lat="47.02362" lon="8.94598">
        <ele>857</ele>
        <time>2021-08-02T11:59:17.145Z</time>
      </trkpt>
      <trkpt lat="47.02365" lon="8.94599">
        <ele>863</ele>
        <time>2021-08-02T11:59:18.146Z</time>
      </trkpt>
      <trkpt lat="47.02367" lon="8.94599">
        <ele>864</ele>
        <time>2021-08-02T11:59:19.146Z</time>
      </trkpt>
      <trkpt lat="47.02367" lon="8.946">
        <ele>865</ele>
        <time>2021-08-02T11:59:20.146Z</time>
      </trkpt>
      <trkpt lat="47.02367" lon="8.946">
        <ele>865</ele>
        <time>2021-08-02T11:59:21.146Z</time>
      </trkpt>
      <trkpt lat="47.02367" lon="8.94601">
        <ele>866</ele>
        <time>2021-08-02T11:59:22.146Z</time>
      </trkpt>
      <trkpt lat="47.02367" lon="8.94602">
        <ele>867</ele>
        <time>2021-08-02T11:59:23.146Z</time>
      </trkpt>
      <trkpt lat="47.02366" lon="8.94602">
        <ele>867</ele>
        <time>2021-08-02T11:59:24.145Z</time>
      </trkpt>
      <trkpt lat="47.02366" lon="8.94603">
        <ele>866</ele>
        <time>2021-08-02T11:59:25.146Z</time>
      </trkpt>
      <trkpt lat="47.02366" lon="8.94604">
        <ele>864</ele>
        <time>2021-08-02T11:59:26.147Z</time>
      </trkpt>
      <trkpt lat="47.02365" lon="8.94604">
        <ele>863</ele>
        <time>2021-08-02T11:59:27.147Z</time>
      </trkpt>
      <trkpt lat="47.02361" lon="8.94605">
        <ele>855</ele>
        <time>2021-08-02T11:59:28.147Z</time>
      </trkpt>
      <trkpt lat="47.0236" lon="8.94603">
        <ele>854</ele>
        <time>2021-08-02T11:59:29.147Z</time>
      </trkpt>
      <trkpt lat="47.0236" lon="8.94601">
        <ele>854</ele>
        <time>2021-08-02T11:59:30.147Z</time>
      </trkpt>
      <trkpt lat="47.02362" lon="8.94598">
        <ele>854</ele>
        <time>2021-08-02T11:59:31.147Z</time>
      </trkpt>
      <trkpt lat="47.02362" lon="8.94596">
        <ele>853</ele>
        <time>2021-08-02T11:59:32.147Z</time>
      </trkpt>
      <trkpt lat="47.02362" lon="8.94594">
        <ele>853</ele>
        <time>2021-08-02T11:59:33.147Z</time>
      </trkpt>
      <trkpt lat="47.02362" lon="8.94593">
        <ele>852</ele>
        <time>2021-08-02T11:59:34.147Z</time>
      </trkpt>
      <trkpt lat="47.02362" lon="8.94592">
        <ele>852</ele>
        <time>2021-08-02T11:59:35.147Z</time>
      </trkpt>
      <trkpt lat="47.02363" lon="8.9459">
        <ele>851</ele>
        <time>2021-08-02T11:59:36.147Z</time>
      </trkpt>
      <trkpt lat="47.02363" lon="8.94589">
        <ele>851</ele>
        <time>2021-08-02T11:59:37.146Z</time>
      </trkpt>
      <trkpt lat="47.02362" lon="8.9459">
        <ele>851</ele>
        <time>2021-08-02T11:59:38.147Z</time>
      </trkpt>
      <trkpt lat="47.02361" lon="8.9459">
        <ele>850</ele>
        <time>2021-08-02T11:59:39.147Z</time>
      </trkpt>
      <trkpt lat="47.0236" lon="8.94591">
        <ele>850</ele>
        <time>2021-08-02T11:59:40.147Z</time>
      </trkpt>
      <trkpt lat="47.0236" lon="8.9459">
        <ele>850</ele>
        <time>2021-08-02T11:59:41.147Z</time>
      </trkpt>
      <trkpt lat="47.02359" lon="8.94591">
        <ele>849</ele>
        <time>2021-08-02T11:59:42.147Z</time>
      </trkpt>
      <trkpt lat="47.02358" lon="8.94591">
        <ele>849</ele>
        <time>2021-08-02T11:59:43.147Z</time>
      </trkpt>
      <trkpt lat="47.02358" lon="8.94591">
        <ele>849</ele>
        <time>2021-08-02T11:59:44.146Z</time>
      </trkpt>
      <trkpt lat="47.02357" lon="8.94591">
        <ele>848</ele>
        <time>2021-08-02T11:59:45.146Z</time>
      </trkpt>
      <trkpt lat="47.02356" lon="8.94592">
        <ele>848</ele>
        <time>2021-08-02T11:59:46.147Z</time>
      </trkpt>
      <trkpt lat="47.02356" lon="8.94592">
        <ele>848</ele>
        <time>2021-08-02T11:59:47.147Z</time>
      </trkpt>
      <trkpt lat="47.02357" lon="8.94592">
        <ele>847</ele>
        <time>2021-08-02T11:59:48.147Z</time>
      </trkpt>
      <trkpt lat="47.02358" lon="8.94592">
        <ele>848</ele>
        <time>2021-08-02T11:59:49.146Z</time>
      </trkpt>
      <trkpt lat="47.02357" lon="8.94592">
        <ele>849</ele>
        <time>2021-08-02T11:59:50.148Z</time>
      </trkpt>
      <trkpt lat="47.02358" lon="8.94592">
        <ele>850</ele>
        <time>2021-08-02T11:59:51.147Z</time>
      </trkpt>
      <trkpt lat="47.02357" lon="8.94592">
        <ele>851</ele>
        <time>2021-08-02T11:59:52.148Z</time>
      </trkpt>
      <trkpt lat="47.02357" lon="8.94592">
        <ele>852</ele>
        <time>2021-08-02T11:59:53.148Z</time>
      </trkpt>
      <trkpt lat="47.02356" lon="8.94592">
        <ele>852</ele>
        <time>2021-08-02T11:59:54.147Z</time>
      </trkpt>
      <trkpt lat="47.02355" lon="8.94592">
        <ele>853</ele>
        <time>2021-08-02T11:59:55.148Z</time>
      </trkpt>
      <trkpt lat="47.02355" lon="8.94592">
        <ele>853</ele>
        <time>2021-08-02T11:59:56.148Z</time>
      </trkpt>
      <trkpt lat="47.02354" lon="8.94592">
        <ele>853</ele>
        <time>2021-08-02T11:59:57.148Z</time>
      </trkpt>
      <trkpt lat="47.02354" lon="8.94593">
        <ele>853</ele>
        <time>2021-08-02T11:59:58.148Z</time>
      </trkpt>
      <trkpt lat="47.02354" lon="8.94593">
        <ele>853</ele>
        <time>2021-08-02T11:59:59.148Z</time>
      </trkpt>
      <trkpt lat="47.02354" lon="8.94592">
        <ele>853</ele>
        <time>2021-08-02T12:00:00.148Z</time>
      </trkpt>
      <trkpt lat="47.02354" lon="8.94592">
        <ele>853</ele>
        <time>2021-08-02T12:00:01.148Z</time>
      </trkpt>
      <trkpt lat="47.02354" lon="8.94591">
        <ele>853</ele>
        <time>2021-08-02T12:00:02.148Z</time>
      </trkpt>
      <trkpt lat="47.02356" lon="8.94588">
        <ele>847</ele>
        <time>2021-08-02T12:00:03.149Z</time>
      </trkpt>
      <trkpt lat="47.02356" lon="8.94588">
        <ele>848</ele>
        <time>2021-08-02T12:00:04.148Z</time>
      </trkpt>
      <trkpt lat="47.02356" lon="8.94588">
        <ele>850</ele>
        <time>2021-08-02T12:00:05.149Z</time>
      </trkpt>
      <trkpt lat="47.02356" lon="8.94588">
        <ele>850</ele>
        <time>2021-08-02T12:00:06.149Z</time>
      </trkpt>
      <trkpt lat="47.02356" lon="8.94588">
        <ele>851</ele>
        <time>2021-08-02T12:00:07.148Z</time>
      </trkpt>
      <trkpt lat="47.02356" lon="8.94588">
        <ele>852</ele>
        <time>2021-08-02T12:00:08.149Z</time>
      </trkpt>
      <trkpt lat="47.02356" lon="8.94588">
        <ele>853</ele>
        <time>2021-08-02T12:00:09.148Z</time>
      </trkpt>
      <trkpt lat="47.02356" lon="8.94588">
        <ele>853</ele>
        <time>2021-08-02T12:00:10.148Z</time>
      </trkpt>
      <trkpt lat="47.02357" lon="8.94588">
        <ele>854</ele>
        <time>2021-08-02T12:00:11.149Z</time>
      </trkpt>
      <trkpt lat="47.02357" lon="8.94587">
        <ele>854</ele>
        <time>2021-08-02T12:00:12.149Z</time>
      </trkpt>
      <trkpt lat="47.02348" lon="8.94596">
        <ele>843</ele>
        <time>2021-08-02T12:00:13.149Z</time>
      </trkpt>
      <trkpt lat="47.02345" lon="8.94598">
        <ele>844</ele>
        <time>2021-08-02T12:00:14.151Z</time>
      </trkpt>
      <trkpt lat="47.02343" lon="8.94599">
        <ele>844</ele>
        <time>2021-08-02T12:00:15.151Z</time>
      </trkpt>
      <trkpt lat="47.02342" lon="8.94599">
        <ele>845</ele>
        <time>2021-08-02T12:00:16.150Z</time>
      </trkpt>
      <trkpt lat="47.02341" lon="8.946">
        <ele>845</ele>
        <time>2021-08-02T12:00:17.151Z</time>
      </trkpt>
      <trkpt lat="47.02341" lon="8.946">
        <ele>846</ele>
        <time>2021-08-02T12:00:18.151Z</time>
      </trkpt>
      <trkpt lat="47.02341" lon="8.94601">
        <ele>846</ele>
        <time>2021-08-02T12:00:19.150Z</time>
      </trkpt>
      <trkpt lat="47.02343" lon="8.946">
        <ele>846</ele>
        <time>2021-08-02T12:00:20.151Z</time>
      </trkpt>
      <trkpt lat="47.02342" lon="8.94601">
        <ele>847</ele>
        <time>2021-08-02T12:00:21.152Z</time>
      </trkpt>
      <trkpt lat="47.02341" lon="8.94601">
        <ele>847</ele>
        <time>2021-08-02T12:00:22.152Z</time>
      </trkpt>
      <trkpt lat="47.02341" lon="8.94601">
        <ele>848</ele>
        <time>2021-08-02T12:00:23.151Z</time>
      </trkpt>
      <trkpt lat="47.02341" lon="8.94601">
        <ele>848</ele>
        <time>2021-08-02T12:00:24.152Z</time>
      </trkpt>
      <trkpt lat="47.02341" lon="8.94601">
        <ele>848</ele>
        <time>2021-08-02T12:00:25.152Z</time>
      </trkpt>
      <trkpt lat="47.02342" lon="8.94601">
        <ele>848</ele>
        <time>2021-08-02T12:00:26.152Z</time>
      </trkpt>
      <trkpt lat="47.02343" lon="8.94601">
        <ele>847</ele>
        <time>2021-08-02T12:00:27.152Z</time>
      </trkpt>
      <trkpt lat="47.02343" lon="8.946">
        <ele>847</ele>
        <time>2021-08-02T12:00:28.151Z</time>
      </trkpt>
      <trkpt lat="47.02343" lon="8.946">
        <ele>846</ele>
        <time>2021-08-02T12:00:29.151Z</time>
      </trkpt>
      <trkpt lat="47.02343" lon="8.94599">
        <ele>846</ele>
        <time>2021-08-02T12:00:30.152Z</time>
      </trkpt>
      <trkpt lat="47.02344" lon="8.94599">
        <ele>846</ele>
        <time>2021-08-02T12:00:31.152Z</time>
      </trkpt>
      <trkpt lat="47.02344" lon="8.94598">
        <ele>845</ele>
        <time>2021-08-02T12:00:32.151Z</time>
      </trkpt>
      <trkpt lat="47.02344" lon="8.94599">
        <ele>845</ele>
        <time>2021-08-02T12:00:33.152Z</time>
      </trkpt>
      <trkpt lat="47.02343" lon="8.94599">
        <ele>845</ele>
        <time>2021-08-02T12:00:34.152Z</time>
      </trkpt>
      <trkpt lat="47.02344" lon="8.94598">
        <ele>841</ele>
        <time>2021-08-02T12:00:35.151Z</time>
      </trkpt>
      <trkpt lat="47.02345" lon="8.94598">
        <ele>841</ele>
        <time>2021-08-02T12:00:36.151Z</time>
      </trkpt>
      <trkpt lat="47.02345" lon="8.94598">
        <ele>840</ele>
        <time>2021-08-02T12:00:37.151Z</time>
      </trkpt>
      <trkpt lat="47.02345" lon="8.94598">
        <ele>840</ele>
        <time>2021-08-02T12:00:38.152Z</time>
      </trkpt>
      <trkpt lat="47.02346" lon="8.94598">
        <ele>840</ele>
        <time>2021-08-02T12:00:39.151Z</time>
      </trkpt>
      <trkpt lat="47.02347" lon="8.94597">
        <ele>841</ele>
        <time>2021-08-02T12:00:40.151Z</time>
      </trkpt>
      <trkpt lat="47.02347" lon="8.94597">
        <ele>841</ele>
        <time>2021-08-02T12:00:41.151Z</time>
      </trkpt>
      <trkpt lat="47.02348" lon="8.94597">
        <ele>842</ele>
        <time>2021-08-02T12:00:42.151Z</time>
      </trkpt>
      <trkpt lat="47.02348" lon="8.94597">
        <ele>842</ele>
        <time>2021-08-02T12:00:43.151Z</time>
      </trkpt>
      <trkpt lat="47.02348" lon="8.94596">
        <ele>843</ele>
        <time>2021-08-02T12:00:44.151Z</time>
      </trkpt>
      <trkpt lat="47.02348" lon="8.94596">
        <ele>843</ele>
        <time>2021-08-02T12:00:45.151Z</time>
      </trkpt>
      <trkpt lat="47.02349" lon="8.94596">
        <ele>844</ele>
        <time>2021-08-02T12:00:46.151Z</time>
      </trkpt>
      <trkpt lat="47.02352" lon="8.94596">
        <ele>849</ele>
        <time>2021-08-02T12:00:47.151Z</time>
      </trkpt>
      <trkpt lat="47.02353" lon="8.94595">
        <ele>850</ele>
        <time>2021-08-02T12:00:48.152Z</time>
      </trkpt>
      <trkpt lat="47.02353" lon="8.94594">
        <ele>852</ele>
        <time>2021-08-02T12:00:49.151Z</time>
      </trkpt>
      <trkpt lat="47.02353" lon="8.94594">
        <ele>852</ele>
        <time>2021-08-02T12:00:50.152Z</time>
      </trkpt>
      <trkpt lat="47.02354" lon="8.94594">
        <ele>853</ele>
        <time>2021-08-02T12:00:51.152Z</time>
      </trkpt>
      <trkpt lat="47.02354" lon="8.94593">
        <ele>854</ele>
        <time>2021-08-02T12:00:52.151Z</time>
      </trkpt>
      <trkpt lat="47.02355" lon="8.94593">
        <ele>855</ele>
        <time>2021-08-02T12:00:53.152Z</time>
      </trkpt>
      <trkpt lat="47.02357" lon="8.94591">
        <ele>855</ele>
        <time>2021-08-02T12:00:54.151Z</time>
      </trkpt>
      <trkpt lat="47.02358" lon="8.9459">
        <ele>856</ele>
        <time>2021-08-02T12:00:55.151Z</time>
      </trkpt>
      <trkpt lat="47.02358" lon="8.9459">
        <ele>855</ele>
        <time>2021-08-02T12:00:56.152Z</time>
      </trkpt>
      <trkpt lat="47.02358" lon="8.94589">
        <ele>855</ele>
        <time>2021-08-02T12:00:57.152Z</time>
      </trkpt>
      <trkpt lat="47.02358" lon="8.94589">
        <ele>854</ele>
        <time>2021-08-02T12:00:58.152Z</time>
      </trkpt>
      <trkpt lat="47.02358" lon="8.94585">
        <ele>846</ele>
        <time>2021-08-02T12:00:59.152Z</time>
      </trkpt>
      <trkpt lat="47.02359" lon="8.94586">
        <ele>845</ele>
        <time>2021-08-02T12:01:00.152Z</time>
      </trkpt>
      <trkpt lat="47.02358" lon="8.94587">
        <ele>847</ele>
        <time>2021-08-02T12:01:01.152Z</time>
      </trkpt>
      <trkpt lat="47.02357" lon="8.94587">
        <ele>848</ele>
        <time>2021-08-02T12:01:02.153Z</time>
      </trkpt>
      <trkpt lat="47.02361" lon="8.94588">
        <ele>855</ele>
        <time>2021-08-02T12:01:03.153Z</time>
      </trkpt>
      <trkpt lat="47.02361" lon="8.94588">
        <ele>856</ele>
        <time>2021-08-02T12:01:04.153Z</time>
      </trkpt>
      <trkpt lat="47.02362" lon="8.94589">
        <ele>857</ele>
        <time>2021-08-02T12:01:05.152Z</time>
      </trkpt>
      <trkpt lat="47.0236" lon="8.94584">
        <ele>850</ele>
        <time>2021-08-02T12:01:06.153Z</time>
      </trkpt>
      <trkpt lat="47.0236" lon="8.94584">
        <ele>850</ele>
        <time>2021-08-02T12:01:07.153Z</time>
      </trkpt>
      <trkpt lat="47.02359" lon="8.94584">
        <ele>849</ele>
        <time>2021-08-02T12:01:08.154Z</time>
      </trkpt>
      <trkpt lat="47.02359" lon="8.94585">
        <ele>848</ele>
        <time>2021-08-02T12:01:09.155Z</time>
      </trkpt>
      <trkpt lat="47.02358" lon="8.94586">
        <ele>847</ele>
        <time>2021-08-02T12:01:10.155Z</time>
      </trkpt>
      <trkpt lat="47.02358" lon="8.94586">
        <ele>847</ele>
        <time>2021-08-02T12:01:11.155Z</time>
      </trkpt>
      <trkpt lat="47.02358" lon="8.94586">
        <ele>847</ele>
        <time>2021-08-02T12:01:12.155Z</time>
      </trkpt>
      <trkpt lat="47.02358" lon="8.94586">
        <ele>847</ele>
        <time>2021-08-02T12:01:13.155Z</time>
      </trkpt>
      <trkpt lat="47.02358" lon="8.94586">
        <ele>847</ele>
        <time>2021-08-02T12:01:14.154Z</time>
      </trkpt>
      <trkpt lat="47.02361" lon="8.94584">
        <ele>849</ele>
        <time>2021-08-02T12:01:15.156Z</time>
      </trkpt>
      <trkpt lat="47.0236" lon="8.94586">
        <ele>852</ele>
        <time>2021-08-02T12:01:16.158Z</time>
      </trkpt>
      <trkpt lat="47.02359" lon="8.94586">
        <ele>853</ele>
        <time>2021-08-02T12:01:17.158Z</time>
      </trkpt>
      <trkpt lat="47.02359" lon="8.94586">
        <ele>854</ele>
        <time>2021-08-02T12:01:18.157Z</time>
      </trkpt>
      <trkpt lat="47.02359" lon="8.94586">
        <ele>854</ele>
        <time>2021-08-02T12:01:19.158Z</time>
      </trkpt>
      <trkpt lat="47.02358" lon="8.94585">
        <ele>855</ele>
        <time>2021-08-02T12:01:20.158Z</time>
      </trkpt>
      <trkpt lat="47.02358" lon="8.94586">
        <ele>856</ele>
        <time>2021-08-02T12:01:21.158Z</time>
      </trkpt>
      <trkpt lat="47.02358" lon="8.94586">
        <ele>856</ele>
        <time>2021-08-02T12:01:22.158Z</time>
      </trkpt>
      <trkpt lat="47.02358" lon="8.94586">
        <ele>857</ele>
        <time>2021-08-02T12:01:23.159Z</time>
      </trkpt>
      <trkpt lat="47.02359" lon="8.94585">
        <ele>857</ele>
        <time>2021-08-02T12:01:24.158Z</time>
      </trkpt>
      <trkpt lat="47.02361" lon="8.94586">
        <ele>854</ele>
        <time>2021-08-02T12:01:25.159Z</time>
      </trkpt>
      <trkpt lat="47.0236" lon="8.94585">
        <ele>853</ele>
        <time>2021-08-02T12:01:26.160Z</time>
      </trkpt>
      <trkpt lat="47.0236" lon="8.94584">
        <ele>853</ele>
        <time>2021-08-02T12:01:27.159Z</time>
      </trkpt>
      <trkpt lat="47.0236" lon="8.94583">
        <ele>853</ele>
        <time>2021-08-02T12:01:28.160Z</time>
      </trkpt>
      <trkpt lat="47.02359" lon="8.94582">
        <ele>853</ele>
        <time>2021-08-02T12:01:29.159Z</time>
      </trkpt>
      <trkpt lat="47.02359" lon="8.94582">
        <ele>853</ele>
        <time>2021-08-02T12:01:30.160Z</time>
      </trkpt>
      <trkpt lat="47.02358" lon="8.94582">
        <ele>853</ele>
        <time>2021-08-02T12:01:31.160Z</time>
      </trkpt>
      <trkpt lat="47.02358" lon="8.94583">
        <ele>853</ele>
        <time>2021-08-02T12:01:32.159Z</time>
      </trkpt>
      <trkpt lat="47.02358" lon="8.94583">
        <ele>853</ele>
        <time>2021-08-02T12:01:33.160Z</time>
      </trkpt>
      <trkpt lat="47.02359" lon="8.94583">
        <ele>853</ele>
        <time>2021-08-02T12:01:34.160Z</time>
      </trkpt>
      <trkpt lat="47.0236" lon="8.94582">
        <ele>852</ele>
        <time>2021-08-02T12:01:35.159Z</time>
      </trkpt>
      <trkpt lat="47.02359" lon="8.94583">
        <ele>852</ele>
        <time>2021-08-02T12:01:36.160Z</time>
      </trkpt>
      <trkpt lat="47.02359" lon="8.94583">
        <ele>852</ele>
        <time>2021-08-02T12:01:37.160Z</time>
      </trkpt>
      <trkpt lat="47.02358" lon="8.94583">
        <ele>851</ele>
        <time>2021-08-02T12:01:38.159Z</time>
      </trkpt>
      <trkpt lat="47.02358" lon="8.94583">
        <ele>851</ele>
        <time>2021-08-02T12:01:39.159Z</time>
      </trkpt>
      <trkpt lat="47.02359" lon="8.94582">
        <ele>851</ele>
        <time>2021-08-02T12:01:40.159Z</time>
      </trkpt>
      <trkpt lat="47.02359" lon="8.94582">
        <ele>850</ele>
        <time>2021-08-02T12:01:41.159Z</time>
      </trkpt>
      <trkpt lat="47.0236" lon="8.94582">
        <ele>850</ele>
        <time>2021-08-02T12:01:42.159Z</time>
      </trkpt>
      <trkpt lat="47.0236" lon="8.94582">
        <ele>850</ele>
        <time>2021-08-02T12:01:43.159Z</time>
      </trkpt>
      <trkpt lat="47.0236" lon="8.94582">
        <ele>850</ele>
        <time>2021-08-02T12:01:44.160Z</time>
      </trkpt>
      <trkpt lat="47.0236" lon="8.94582">
        <ele>850</ele>
        <time>2021-08-02T12:01:45.161Z</time>
      </trkpt>
      <trkpt lat="47.0236" lon="8.94582">
        <ele>850</ele>
        <time>2021-08-02T12:01:46.160Z</time>
      </trkpt>
      <trkpt lat="47.02359" lon="8.94583">
        <ele>848</ele>
        <time>2021-08-02T12:01:47.161Z</time>
      </trkpt>
      <trkpt lat="47.02358" lon="8.94583">
        <ele>847</ele>
        <time>2021-08-02T12:01:48.160Z</time>
      </trkpt>
      <trkpt lat="47.02358" lon="8.94583">
        <ele>847</ele>
        <time>2021-08-02T12:01:49.160Z</time>
      </trkpt>
      <trkpt lat="47.0236" lon="8.94584">
        <ele>849</ele>
        <time>2021-08-02T12:01:50.161Z</time>
      </trkpt>
      <trkpt lat="47.0236" lon="8.94584">
        <ele>849</ele>
        <time>2021-08-02T12:01:51.160Z</time>
      </trkpt>
      <trkpt lat="47.02361" lon="8.94585">
        <ele>849</ele>
        <time>2021-08-02T12:01:52.161Z</time>
      </trkpt>
      <trkpt lat="47.02362" lon="8.94584">
        <ele>849</ele>
        <time>2021-08-02T12:01:53.161Z</time>
      </trkpt>
      <trkpt lat="47.02364" lon="8.94583">
        <ele>849</ele>
        <time>2021-08-02T12:01:54.161Z</time>
      </trkpt>
      <trkpt lat="47.02366" lon="8.94582">
        <ele>849</ele>
        <time>2021-08-02T12:01:55.160Z</time>
      </trkpt>
      <trkpt lat="47.02366" lon="8.94582">
        <ele>849</ele>
        <time>2021-08-02T12:01:56.160Z</time>
      </trkpt>
      <trkpt lat="47.02366" lon="8.94581">
        <ele>849</ele>
        <time>2021-08-02T12:01:57.161Z</time>
      </trkpt>
      <trkpt lat="47.02365" lon="8.94581">
        <ele>849</ele>
        <time>2021-08-02T12:01:58.160Z</time>
      </trkpt>
      <trkpt lat="47.02365" lon="8.94581">
        <ele>849</ele>
        <time>2021-08-02T12:01:59.161Z</time>
      </trkpt>
      <trkpt lat="47.02365" lon="8.94582">
        <ele>849</ele>
        <time>2021-08-02T12:02:00.161Z</time>
      </trkpt>
      <trkpt lat="47.02359" lon="8.94584">
        <ele>847</ele>
        <time>2021-08-02T12:02:01.161Z</time>
      </trkpt>
      <trkpt lat="47.02359" lon="8.94583">
        <ele>846</ele>
        <time>2021-08-02T12:02:02.161Z</time>
      </trkpt>
      <trkpt lat="47.02359" lon="8.94583">
        <ele>846</ele>
        <time>2021-08-02T12:02:03.160Z</time>
      </trkpt>
      <trkpt lat="47.02358" lon="8.94583">
        <ele>846</ele>
        <time>2021-08-02T12:02:04.161Z</time>
      </trkpt>
      <trkpt lat="47.02358" lon="8.94583">
        <ele>846</ele>
        <time>2021-08-02T12:02:05.161Z</time>
      </trkpt>
      <trkpt lat="47.02358" lon="8.94582">
        <ele>846</ele>
        <time>2021-08-02T12:02:06.161Z</time>
      </trkpt>
      <trkpt lat="47.02358" lon="8.94584">
        <ele>842</ele>
        <time>2021-08-02T12:02:07.161Z</time>
      </trkpt>
      <trkpt lat="47.02357" lon="8.94584">
        <ele>841</ele>
        <time>2021-08-02T12:02:08.161Z</time>
      </trkpt>
      <trkpt lat="47.02357" lon="8.94583">
        <ele>841</ele>
        <time>2021-08-02T12:02:09.160Z</time>
      </trkpt>
      <trkpt lat="47.02357" lon="8.94578">
        <ele>838</ele>
        <time>2021-08-02T12:02:10.161Z</time>
      </trkpt>
      <trkpt lat="47.02357" lon="8.94578">
        <ele>839</ele>
        <time>2021-08-02T12:02:11.161Z</time>
      </trkpt>
      <trkpt lat="47.02356" lon="8.94586">
        <ele>846</ele>
        <time>2021-08-02T12:02:12.161Z</time>
      </trkpt>
      <trkpt lat="47.02356" lon="8.94586">
        <ele>846</ele>
        <time>2021-08-02T12:02:13.161Z</time>
      </trkpt>
      <trkpt lat="47.02356" lon="8.94585">
        <ele>847</ele>
        <time>2021-08-02T12:02:14.160Z</time>
      </trkpt>
      <trkpt lat="47.02355" lon="8.94587">
        <ele>849</ele>
        <time>2021-08-02T12:02:15.161Z</time>
      </trkpt>
      <trkpt lat="47.02355" lon="8.94587">
        <ele>849</ele>
        <time>2021-08-02T12:02:16.160Z</time>
      </trkpt>
      <trkpt lat="47.02356" lon="8.94587">
        <ele>850</ele>
        <time>2021-08-02T12:02:17.160Z</time>
      </trkpt>
      <trkpt lat="47.02354" lon="8.94586">
        <ele>852</ele>
        <time>2021-08-02T12:02:18.161Z</time>
      </trkpt>
      <trkpt lat="47.02355" lon="8.94586">
        <ele>852</ele>
        <time>2021-08-02T12:02:19.160Z</time>
      </trkpt>
      <trkpt lat="47.02355" lon="8.94585">
        <ele>852</ele>
        <time>2021-08-02T12:02:20.161Z</time>
      </trkpt>
      <trkpt lat="47.02355" lon="8.94585">
        <ele>852</ele>
        <time>2021-08-02T12:02:21.161Z</time>
      </trkpt>
      <trkpt lat="47.02355" lon="8.94584">
        <ele>851</ele>
        <time>2021-08-02T12:02:22.162Z</time>
      </trkpt>
      <trkpt lat="47.02355" lon="8.94584">
        <ele>852</ele>
        <time>2021-08-02T12:02:23.161Z</time>
      </trkpt>
      <trkpt lat="47.02355" lon="8.94584">
        <ele>852</ele>
        <time>2021-08-02T12:02:24.161Z</time>
      </trkpt>
      <trkpt lat="47.02354" lon="8.94584">
        <ele>852</ele>
        <time>2021-08-02T12:02:25.161Z</time>
      </trkpt>
      <trkpt lat="47.02354" lon="8.94579">
        <ele>851</ele>
        <time>2021-08-02T12:02:26.161Z</time>
      </trkpt>
      <trkpt lat="47.02354" lon="8.9458">
        <ele>852</ele>
        <time>2021-08-02T12:02:27.162Z</time>
      </trkpt>
      <trkpt lat="47.02354" lon="8.94582">
        <ele>852</ele>
        <time>2021-08-02T12:02:28.161Z</time>
      </trkpt>
      <trkpt lat="47.02354" lon="8.94582">
        <ele>852</ele>
        <time>2021-08-02T12:02:29.162Z</time>
      </trkpt>
      <trkpt lat="47.02354" lon="8.94582">
        <ele>852</ele>
        <time>2021-08-02T12:02:30.162Z</time>
      </trkpt>
      <trkpt lat="47.02354" lon="8.94582">
        <ele>852</ele>
        <time>2021-08-02T12:02:31.161Z</time>
      </trkpt>
      <trkpt lat="47.02355" lon="8.94583">
        <ele>851</ele>
        <time>2021-08-02T12:02:32.162Z</time>
      </trkpt>
      <trkpt lat="47.02355" lon="8.94582">
        <ele>851</ele>
        <time>2021-08-02T12:02:33.161Z</time>
      </trkpt>
      <trkpt lat="47.02356" lon="8.94582">
        <ele>850</ele>
        <time>2021-08-02T12:02:34.162Z</time>
      </trkpt>
      <trkpt lat="47.02355" lon="8.9458">
        <ele>849</ele>
        <time>2021-08-02T12:02:35.162Z</time>
      </trkpt>
      <trkpt lat="47.02354" lon="8.94579">
        <ele>849</ele>
        <time>2021-08-02T12:02:36.162Z</time>
      </trkpt>
      <trkpt lat="47.02354" lon="8.94579">
        <ele>848</ele>
        <time>2021-08-02T12:02:37.161Z</time>
      </trkpt>
      <trkpt lat="47.02354" lon="8.94579">
        <ele>847</ele>
        <time>2021-08-02T12:02:38.162Z</time>
      </trkpt>
      <trkpt lat="47.02353" lon="8.94579">
        <ele>846</ele>
        <time>2021-08-02T12:02:39.162Z</time>
      </trkpt>
      <trkpt lat="47.02353" lon="8.9458">
        <ele>845</ele>
        <time>2021-08-02T12:02:40.162Z</time>
      </trkpt>
      <trkpt lat="47.02352" lon="8.9458">
        <ele>844</ele>
        <time>2021-08-02T12:02:41.162Z</time>
      </trkpt>
      <trkpt lat="47.02353" lon="8.9458">
        <ele>844</ele>
        <time>2021-08-02T12:02:42.162Z</time>
      </trkpt>
      <trkpt lat="47.02353" lon="8.9458">
        <ele>844</ele>
        <time>2021-08-02T12:02:43.162Z</time>
      </trkpt>
      <trkpt lat="47.02353" lon="8.94582">
        <ele>844</ele>
        <time>2021-08-02T12:02:44.162Z</time>
      </trkpt>
      <trkpt lat="47.02353" lon="8.94582">
        <ele>844</ele>
        <time>2021-08-02T12:02:45.161Z</time>
      </trkpt>
      <trkpt lat="47.02352" lon="8.94583">
        <ele>847</ele>
        <time>2021-08-02T12:02:46.162Z</time>
      </trkpt>
      <trkpt lat="47.02351" lon="8.94584">
        <ele>848</ele>
        <time>2021-08-02T12:02:47.162Z</time>
      </trkpt>
      <trkpt lat="47.02352" lon="8.94583">
        <ele>845</ele>
        <time>2021-08-02T12:02:48.163Z</time>
      </trkpt>
      <trkpt lat="47.02352" lon="8.94582">
        <ele>846</ele>
        <time>2021-08-02T12:02:49.162Z</time>
      </trkpt>
      <trkpt lat="47.02352" lon="8.94582">
        <ele>847</ele>
        <time>2021-08-02T12:02:50.163Z</time>
      </trkpt>
      <trkpt lat="47.02352" lon="8.94583">
        <ele>847</ele>
        <time>2021-08-02T12:02:51.164Z</time>
      </trkpt>
      <trkpt lat="47.02352" lon="8.94583">
        <ele>845</ele>
        <time>2021-08-02T12:02:52.164Z</time>
      </trkpt>
      <trkpt lat="47.02352" lon="8.94583">
        <ele>845</ele>
        <time>2021-08-02T12:02:53.165Z</time>
      </trkpt>
      <trkpt lat="47.02352" lon="8.94582">
        <ele>844</ele>
        <time>2021-08-02T12:02:54.164Z</time>
      </trkpt>
      <trkpt lat="47.02351" lon="8.94581">
        <ele>844</ele>
        <time>2021-08-02T12:02:55.165Z</time>
      </trkpt>
      <trkpt lat="47.0235" lon="8.94581">
        <ele>844</ele>
        <time>2021-08-02T12:02:56.165Z</time>
      </trkpt>
      <trkpt lat="47.0235" lon="8.94583">
        <ele>844</ele>
        <time>2021-08-02T12:02:57.164Z</time>
      </trkpt>
      <trkpt lat="47.0235" lon="8.94584">
        <ele>843</ele>
        <time>2021-08-02T12:02:58.164Z</time>
      </trkpt>
      <trkpt lat="47.02349" lon="8.94585">
        <ele>843</ele>
        <time>2021-08-02T12:02:59.164Z</time>
      </trkpt>
      <trkpt lat="47.02349" lon="8.94585">
        <ele>843</ele>
        <time>2021-08-02T12:03:00.164Z</time>
      </trkpt>
      <trkpt lat="47.02349" lon="8.94586">
        <ele>844</ele>
        <time>2021-08-02T12:03:01.165Z</time>
      </trkpt>
      <trkpt lat="47.02351" lon="8.94587">
        <ele>844</ele>
        <time>2021-08-02T12:03:02.164Z</time>
      </trkpt>
      <trkpt lat="47.02351" lon="8.94587">
        <ele>844</ele>
        <time>2021-08-02T12:03:03.165Z</time>
      </trkpt>
      <trkpt lat="47.02351" lon="8.94587">
        <ele>843</ele>
        <time>2021-08-02T12:03:04.164Z</time>
      </trkpt>
      <trkpt lat="47.0235" lon="8.94588">
        <ele>843</ele>
        <time>2021-08-02T12:03:05.165Z</time>
      </trkpt>
      <trkpt lat="47.02351" lon="8.94589">
        <ele>845</ele>
        <time>2021-08-02T12:03:06.165Z</time>
      </trkpt>
      <trkpt lat="47.0235" lon="8.94587">
        <ele>845</ele>
        <time>2021-08-02T12:03:07.165Z</time>
      </trkpt>
      <trkpt lat="47.0235" lon="8.94587">
        <ele>845</ele>
        <time>2021-08-02T12:03:08.164Z</time>
      </trkpt>
      <trkpt lat="47.0235" lon="8.94587">
        <ele>845</ele>
        <time>2021-08-02T12:03:09.165Z</time>
      </trkpt>
      <trkpt lat="47.0235" lon="8.94588">
        <ele>845</ele>
        <time>2021-08-02T12:03:10.165Z</time>
      </trkpt>
      <trkpt lat="47.02351" lon="8.94589">
        <ele>845</ele>
        <time>2021-08-02T12:03:11.164Z</time>
      </trkpt>
      <trkpt lat="47.02352" lon="8.94589">
        <ele>845</ele>
        <time>2021-08-02T12:03:12.164Z</time>
      </trkpt>
      <trkpt lat="47.02353" lon="8.94589">
        <ele>845</ele>
        <time>2021-08-02T12:03:13.165Z</time>
      </trkpt>
      <trkpt lat="47.02353" lon="8.94589">
        <ele>846</ele>
        <time>2021-08-02T12:03:14.165Z</time>
      </trkpt>
      <trkpt lat="47.02354" lon="8.94589">
        <ele>847</ele>
        <time>2021-08-02T12:03:15.165Z</time>
      </trkpt>
      <trkpt lat="47.02355" lon="8.94589">
        <ele>847</ele>
        <time>2021-08-02T12:03:16.165Z</time>
      </trkpt>
      <trkpt lat="47.02355" lon="8.94589">
        <ele>848</ele>
        <time>2021-08-02T12:03:17.165Z</time>
      </trkpt>
      <trkpt lat="47.02355" lon="8.94589">
        <ele>849</ele>
        <time>2021-08-02T12:03:18.164Z</time>
      </trkpt>
      <trkpt lat="47.02355" lon="8.94589">
        <ele>849</ele>
        <time>2021-08-02T12:03:19.165Z</time>
      </trkpt>
      <trkpt lat="47.02356" lon="8.94589">
        <ele>850</ele>
        <time>2021-08-02T12:03:20.165Z</time>
      </trkpt>
      <trkpt lat="47.02356" lon="8.94589">
        <ele>850</ele>
        <time>2021-08-02T12:03:21.165Z</time>
      </trkpt>
      <trkpt lat="47.02356" lon="8.94589">
        <ele>850</ele>
        <time>2021-08-02T12:03:22.164Z</time>
      </trkpt>
      <trkpt lat="47.02362" lon="8.9459">
        <ele>853</ele>
        <time>2021-08-02T12:03:23.164Z</time>
      </trkpt>
      <trkpt lat="47.02363" lon="8.94589">
        <ele>854</ele>
        <time>2021-08-02T12:03:24.165Z</time>
      </trkpt>
      <trkpt lat="47.02362" lon="8.94588">
        <ele>854</ele>
        <time>2021-08-02T12:03:25.164Z</time>
      </trkpt>
      <trkpt lat="47.02362" lon="8.94588">
        <ele>855</ele>
        <time>2021-08-02T12:03:26.164Z</time>
      </trkpt>
      <trkpt lat="47.02361" lon="8.94587">
        <ele>855</ele>
        <time>2021-08-02T12:03:27.165Z</time>
      </trkpt>
      <trkpt lat="47.02362" lon="8.94586">
        <ele>856</ele>
        <time>2021-08-02T12:03:28.165Z</time>
      </trkpt>
      <trkpt lat="47.02362" lon="8.94586">
        <ele>856</ele>
        <time>2021-08-02T12:03:29.165Z</time>
      </trkpt>
      <trkpt lat="47.02361" lon="8.94584">
        <ele>856</ele>
        <time>2021-08-02T12:03:30.165Z</time>
      </trkpt>
      <trkpt lat="47.02359" lon="8.94585">
        <ele>849</ele>
        <time>2021-08-02T12:03:31.164Z</time>
      </trkpt>
      <trkpt lat="47.02358" lon="8.94586">
        <ele>849</ele>
        <time>2021-08-02T12:03:32.165Z</time>
      </trkpt>
      <trkpt lat="47.02358" lon="8.94586">
        <ele>848</ele>
        <time>2021-08-02T12:03:33.164Z</time>
      </trkpt>
      <trkpt lat="47.02358" lon="8.94586">
        <ele>847</ele>
        <time>2021-08-02T12:03:34.165Z</time>
      </trkpt>
      <trkpt lat="47.02354" lon="8.94585">
        <ele>840</ele>
        <time>2021-08-02T12:03:35.164Z</time>
      </trkpt>
      <trkpt lat="47.02353" lon="8.94584">
        <ele>840</ele>
        <time>2021-08-02T12:03:36.165Z</time>
      </trkpt>
      <trkpt lat="47.02353" lon="8.94584">
        <ele>840</ele>
        <time>2021-08-02T12:03:37.164Z</time>
      </trkpt>
      <trkpt lat="47.02353" lon="8.94583">
        <ele>840</ele>
        <time>2021-08-02T12:03:38.165Z</time>
      </trkpt>
      <trkpt lat="47.02353" lon="8.94583">
        <ele>840</ele>
        <time>2021-08-02T12:03:39.164Z</time>
      </trkpt>
      <trkpt lat="47.02353" lon="8.94583">
        <ele>841</ele>
        <time>2021-08-02T12:03:40.164Z</time>
      </trkpt>
      <trkpt lat="47.02351" lon="8.94586">
        <ele>846</ele>
        <time>2021-08-02T12:03:41.164Z</time>
      </trkpt>
      <trkpt lat="47.02351" lon="8.94587">
        <ele>847</ele>
        <time>2021-08-02T12:03:42.164Z</time>
      </trkpt>
      <trkpt lat="47.02352" lon="8.94588">
        <ele>847</ele>
        <time>2021-08-02T12:03:43.164Z</time>
      </trkpt>
      <trkpt lat="47.02353" lon="8.94588">
        <ele>848</ele>
        <time>2021-08-02T12:03:44.165Z</time>
      </trkpt>
      <trkpt lat="47.02354" lon="8.94587">
        <ele>848</ele>
        <time>2021-08-02T12:03:45.165Z</time>
      </trkpt>
      <trkpt lat="47.02354" lon="8.94586">
        <ele>848</ele>
        <time>2021-08-02T12:03:46.164Z</time>
      </trkpt>
      <trkpt lat="47.02353" lon="8.94586">
        <ele>847</ele>
        <time>2021-08-02T12:03:47.165Z</time>
      </trkpt>
      <trkpt lat="47.02353" lon="8.94585">
        <ele>847</ele>
        <time>2021-08-02T12:03:48.165Z</time>
      </trkpt>
      <trkpt lat="47.02352" lon="8.94582">
        <ele>848</ele>
        <time>2021-08-02T12:03:49.164Z</time>
      </trkpt>
      <trkpt lat="47.02352" lon="8.94582">
        <ele>848</ele>
        <time>2021-08-02T12:03:50.164Z</time>
      </trkpt>
      <trkpt lat="47.02351" lon="8.94582">
        <ele>848</ele>
        <time>2021-08-02T12:03:51.165Z</time>
      </trkpt>
      <trkpt lat="47.02351" lon="8.94582">
        <ele>848</ele>
        <time>2021-08-02T12:03:52.165Z</time>
      </trkpt>
      <trkpt lat="47.02351" lon="8.94583">
        <ele>848</ele>
        <time>2021-08-02T12:03:53.164Z</time>
      </trkpt>
      <trkpt lat="47.02351" lon="8.94583">
        <ele>848</ele>
        <time>2021-08-02T12:03:54.164Z</time>
      </trkpt>
      <trkpt lat="47.02352" lon="8.94584">
        <ele>850</ele>
        <time>2021-08-02T12:03:55.164Z</time>
      </trkpt>
      <trkpt lat="47.02353" lon="8.94585">
        <ele>850</ele>
        <time>2021-08-02T12:03:56.165Z</time>
      </trkpt>
      <trkpt lat="47.02352" lon="8.94585">
        <ele>850</ele>
        <time>2021-08-02T12:03:57.164Z</time>
      </trkpt>
      <trkpt lat="47.02355" lon="8.94581">
        <ele>851</ele>
        <time>2021-08-02T12:03:58.165Z</time>
      </trkpt>
      <trkpt lat="47.02355" lon="8.9458">
        <ele>851</ele>
        <time>2021-08-02T12:03:59.164Z</time>
      </trkpt>
      <trkpt lat="47.02356" lon="8.94579">
        <ele>851</ele>
        <time>2021-08-02T12:04:00.165Z</time>
      </trkpt>
      <trkpt lat="47.02355" lon="8.9458">
        <ele>851</ele>
        <time>2021-08-02T12:04:01.164Z</time>
      </trkpt>
      <trkpt lat="47.02355" lon="8.9458">
        <ele>851</ele>
        <time>2021-08-02T12:04:02.165Z</time>
      </trkpt>
      <trkpt lat="47.02354" lon="8.94581">
        <ele>850</ele>
        <time>2021-08-02T12:04:03.165Z</time>
      </trkpt>
      <trkpt lat="47.02353" lon="8.94581">
        <ele>850</ele>
        <time>2021-08-02T12:04:04.164Z</time>
      </trkpt>
      <trkpt lat="47.02353" lon="8.94581">
        <ele>850</ele>
        <time>2021-08-02T12:04:05.164Z</time>
      </trkpt>
      <trkpt lat="47.02353" lon="8.94581">
        <ele>850</ele>
        <time>2021-08-02T12:04:06.165Z</time>
      </trkpt>
      <trkpt lat="47.02354" lon="8.9458">
        <ele>850</ele>
        <time>2021-08-02T12:04:07.165Z</time>
      </trkpt>
      <trkpt lat="47.02354" lon="8.94581">
        <ele>850</ele>
        <time>2021-08-02T12:04:08.164Z</time>
      </trkpt>
      <trkpt lat="47.02352" lon="8.94582">
        <ele>846</ele>
        <time>2021-08-02T12:04:09.165Z</time>
      </trkpt>
      <trkpt lat="47.02351" lon="8.94582">
        <ele>845</ele>
        <time>2021-08-02T12:04:10.164Z</time>
      </trkpt>
      <trkpt lat="47.0235" lon="8.94582">
        <ele>845</ele>
        <time>2021-08-02T12:04:11.164Z</time>
      </trkpt>
      <trkpt lat="47.0235" lon="8.94582">
        <ele>844</ele>
        <time>2021-08-02T12:04:12.165Z</time>
      </trkpt>
      <trkpt lat="47.0235" lon="8.94582">
        <ele>844</ele>
        <time>2021-08-02T12:04:13.165Z</time>
      </trkpt>
      <trkpt lat="47.02351" lon="8.94584">
        <ele>846</ele>
        <time>2021-08-02T12:04:14.164Z</time>
      </trkpt>
      <trkpt lat="47.02351" lon="8.94585">
        <ele>846</ele>
        <time>2021-08-02T12:04:15.165Z</time>
      </trkpt>
      <trkpt lat="47.02351" lon="8.94585">
        <ele>846</ele>
        <time>2021-08-02T12:04:16.164Z</time>
      </trkpt>
      <trkpt lat="47.02352" lon="8.94585">
        <ele>847</ele>
        <time>2021-08-02T12:04:17.164Z</time>
      </trkpt>
      <trkpt lat="47.02352" lon="8.94584">
        <ele>847</ele>
        <time>2021-08-02T12:04:18.164Z</time>
      </trkpt>
      <trkpt lat="47.02352" lon="8.94584">
        <ele>848</ele>
        <time>2021-08-02T12:04:19.164Z</time>
      </trkpt>
      <trkpt lat="47.02354" lon="8.94585">
        <ele>851</ele>
        <time>2021-08-02T12:04:20.165Z</time>
      </trkpt>
      <trkpt lat="47.02356" lon="8.94583">
        <ele>854</ele>
        <time>2021-08-02T12:04:21.165Z</time>
      </trkpt>
      <trkpt lat="47.02356" lon="8.94583">
        <ele>854</ele>
        <time>2021-08-02T12:04:22.165Z</time>
      </trkpt>
      <trkpt lat="47.02356" lon="8.94582">
        <ele>855</ele>
        <time>2021-08-02T12:04:23.166Z</time>
      </trkpt>
      <trkpt lat="47.02357" lon="8.94584">
        <ele>852</ele>
        <time>2021-08-02T12:04:24.166Z</time>
      </trkpt>
      <trkpt lat="47.02357" lon="8.94585">
        <ele>853</ele>
        <time>2021-08-02T12:04:25.166Z</time>
      </trkpt>
      <trkpt lat="47.02357" lon="8.94585">
        <ele>853</ele>
        <time>2021-08-02T12:04:26.165Z</time>
      </trkpt>
      <trkpt lat="47.02357" lon="8.94585">
        <ele>853</ele>
        <time>2021-08-02T12:04:27.166Z</time>
      </trkpt>
      <trkpt lat="47.02357" lon="8.94583">
        <ele>856</ele>
        <time>2021-08-02T12:04:28.165Z</time>
      </trkpt>
      <trkpt lat="47.02357" lon="8.94582">
        <ele>857</ele>
        <time>2021-08-02T12:04:29.166Z</time>
      </trkpt>
      <trkpt lat="47.02355" lon="8.94585">
        <ele>856</ele>
        <time>2021-08-02T12:04:30.167Z</time>
      </trkpt>
      <trkpt lat="47.02354" lon="8.94586">
        <ele>849</ele>
        <time>2021-08-02T12:04:31.167Z</time>
      </trkpt>
      <trkpt lat="47.02354" lon="8.94586">
        <ele>848</ele>
        <time>2021-08-02T12:04:32.167Z</time>
      </trkpt>
      <trkpt lat="47.02354" lon="8.94586">
        <ele>847</ele>
        <time>2021-08-02T12:04:33.167Z</time>
      </trkpt>
      <trkpt lat="47.02353" lon="8.94587">
        <ele>846</ele>
        <time>2021-08-02T12:04:34.167Z</time>
      </trkpt>
      <trkpt lat="47.02353" lon="8.94587">
        <ele>845</ele>
        <time>2021-08-02T12:04:35.166Z</time>
      </trkpt>
      <trkpt lat="47.02353" lon="8.94589">
        <ele>846</ele>
        <time>2021-08-02T12:04:36.166Z</time>
      </trkpt>
      <trkpt lat="47.02353" lon="8.94589">
        <ele>846</ele>
        <time>2021-08-02T12:04:37.166Z</time>
      </trkpt>
      <trkpt lat="47.02352" lon="8.94589">
        <ele>846</ele>
        <time>2021-08-02T12:04:38.167Z</time>
      </trkpt>
      <trkpt lat="47.02352" lon="8.94589">
        <ele>845</ele>
        <time>2021-08-02T12:04:39.166Z</time>
      </trkpt>
      <trkpt lat="47.02352" lon="8.94587">
        <ele>843</ele>
        <time>2021-08-02T12:04:40.169Z</time>
      </trkpt>
      <trkpt lat="47.02352" lon="8.94586">
        <ele>843</ele>
        <time>2021-08-02T12:04:41.169Z</time>
      </trkpt>
      <trkpt lat="47.02352" lon="8.94586">
        <ele>842</ele>
        <time>2021-08-02T12:04:42.168Z</time>
      </trkpt>
      <trkpt lat="47.02353" lon="8.94586">
        <ele>842</ele>
        <time>2021-08-02T12:04:43.169Z</time>
      </trkpt>
      <trkpt lat="47.02353" lon="8.94586">
        <ele>842</ele>
        <time>2021-08-02T12:04:44.169Z</time>
      </trkpt>
      <trkpt lat="47.02354" lon="8.94587">
        <ele>842</ele>
        <time>2021-08-02T12:04:45.169Z</time>
      </trkpt>
      <trkpt lat="47.02354" lon="8.94587">
        <ele>842</ele>
        <time>2021-08-02T12:04:46.168Z</time>
      </trkpt>
      <trkpt lat="47.02355" lon="8.94587">
        <ele>842</ele>
        <time>2021-08-02T12:04:47.168Z</time>
      </trkpt>
      <trkpt lat="47.02355" lon="8.94588">
        <ele>844</ele>
        <time>2021-08-02T12:04:48.170Z</time>
      </trkpt>
      <trkpt lat="47.02354" lon="8.94588">
        <ele>844</ele>
        <time>2021-08-02T12:04:49.169Z</time>
      </trkpt>
      <trkpt lat="47.02354" lon="8.94588">
        <ele>844</ele>
        <time>2021-08-02T12:04:50.169Z</time>
      </trkpt>
      <trkpt lat="47.02356" lon="8.94592">
        <ele>847</ele>
        <time>2021-08-02T12:04:51.169Z</time>
      </trkpt>
      <trkpt lat="47.02356" lon="8.94592">
        <ele>848</ele>
        <time>2021-08-02T12:04:52.170Z</time>
      </trkpt>
      <trkpt lat="47.02356" lon="8.94592">
        <ele>849</ele>
        <time>2021-08-02T12:04:53.170Z</time>
      </trkpt>
      <trkpt lat="47.02356" lon="8.94592">
        <ele>850</ele>
        <time>2021-08-02T12:04:54.170Z</time>
      </trkpt>
      <trkpt lat="47.02357" lon="8.94592">
        <ele>851</ele>
        <time>2021-08-02T12:04:55.170Z</time>
      </trkpt>
      <trkpt lat="47.02358" lon="8.94592">
        <ele>852</ele>
        <time>2021-08-02T12:04:56.170Z</time>
      </trkpt>
      <trkpt lat="47.02358" lon="8.94592">
        <ele>853</ele>
        <time>2021-08-02T12:04:57.169Z</time>
      </trkpt>
      <trkpt lat="47.02358" lon="8.94592">
        <ele>854</ele>
        <time>2021-08-02T12:04:58.170Z</time>
      </trkpt>
      <trkpt lat="47.02348" lon="8.9459">
        <ele>839</ele>
        <time>2021-08-02T12:04:59.171Z</time>
      </trkpt>
      <trkpt lat="47.02348" lon="8.9459">
        <ele>839</ele>
        <time>2021-08-02T12:05:00.171Z</time>
      </trkpt>
      <trkpt lat="47.02347" lon="8.94591">
        <ele>839</ele>
        <time>2021-08-02T12:05:01.170Z</time>
      </trkpt>
      <trkpt lat="47.02347" lon="8.94591">
        <ele>839</ele>
        <time>2021-08-02T12:05:02.170Z</time>
      </trkpt>
      <trkpt lat="47.02346" lon="8.9459">
        <ele>839</ele>
        <time>2021-08-02T12:05:03.171Z</time>
      </trkpt>
      <trkpt lat="47.02345" lon="8.9459">
        <ele>839</ele>
        <time>2021-08-02T12:05:04.171Z</time>
      </trkpt>
      <trkpt lat="47.02345" lon="8.94591">
        <ele>839</ele>
        <time>2021-08-02T12:05:05.170Z</time>
      </trkpt>
      <trkpt lat="47.02345" lon="8.94591">
        <ele>838</ele>
        <time>2021-08-02T12:05:06.171Z</time>
      </trkpt>
      <trkpt lat="47.02345" lon="8.94592">
        <ele>838</ele>
        <time>2021-08-02T12:05:07.171Z</time>
      </trkpt>
      <trkpt lat="47.02343" lon="8.94593">
        <ele>835</ele>
        <time>2021-08-02T12:05:10.153Z</time>
      </trkpt>
      <trkpt lat="47.02343" lon="8.94594">
        <ele>834</ele>
        <time>2021-08-02T12:05:11.154Z</time>
      </trkpt>
      <trkpt lat="47.02343" lon="8.94594">
        <ele>834</ele>
        <time>2021-08-02T12:05:12.153Z</time>
      </trkpt>
      <trkpt lat="47.02343" lon="8.94593">
        <ele>833</ele>
        <time>2021-08-02T12:05:13.155Z</time>
      </trkpt>
      <trkpt lat="47.02341" lon="8.94593">
        <ele>833</ele>
        <time>2021-08-02T12:05:31.172Z</time>
      </trkpt>
      <trkpt lat="47.02343" lon="8.94593">
        <ele>834</ele>
        <time>2021-08-02T12:05:32.172Z</time>
      </trkpt>
      <trkpt lat="47.02344" lon="8.94593">
        <ele>836</ele>
        <time>2021-08-02T12:05:33.171Z</time>
      </trkpt>
      <trkpt lat="47.02349" lon="8.94593">
        <ele>847</ele>
        <time>2021-08-02T12:05:43.288Z</time>
      </trkpt>
      <trkpt lat="47.02352" lon="8.94592">
        <ele>848</ele>
        <time>2021-08-02T12:05:44.288Z</time>
      </trkpt>
      <trkpt lat="47.02353" lon="8.94592">
        <ele>848</ele>
        <time>2021-08-02T12:05:45.287Z</time>
      </trkpt>
      <trkpt lat="47.02354" lon="8.94587">
        <ele>847</ele>
        <time>2021-08-02T12:05:46.288Z</time>
      </trkpt>
      <trkpt lat="47.02355" lon="8.94588">
        <ele>847</ele>
        <time>2021-08-02T12:05:47.288Z</time>
      </trkpt>
      <trkpt lat="47.02356" lon="8.94588">
        <ele>848</ele>
        <time>2021-08-02T12:05:48.287Z</time>
      </trkpt>
      <trkpt lat="47.02356" lon="8.94588">
        <ele>848</ele>
        <time>2021-08-02T12:05:49.288Z</time>
      </trkpt>
      <trkpt lat="47.02356" lon="8.94588">
        <ele>849</ele>
        <time>2021-08-02T12:05:50.287Z</time>
      </trkpt>
      <trkpt lat="47.02357" lon="8.94589">
        <ele>849</ele>
        <time>2021-08-02T12:05:51.288Z</time>
      </trkpt>
      <trkpt lat="47.02356" lon="8.94589">
        <ele>849</ele>
        <time>2021-08-02T12:05:52.289Z</time>
      </trkpt>
      <trkpt lat="47.02357" lon="8.94587">
        <ele>850</ele>
        <time>2021-08-02T12:05:53.288Z</time>
      </trkpt>
      <trkpt lat="47.02356" lon="8.94587">
        <ele>850</ele>
        <time>2021-08-02T12:05:54.289Z</time>
      </trkpt>
      <trkpt lat="47.02355" lon="8.94587">
        <ele>849</ele>
        <time>2021-08-02T12:05:55.290Z</time>
      </trkpt>
      <trkpt lat="47.02355" lon="8.94588">
        <ele>849</ele>
        <time>2021-08-02T12:05:56.290Z</time>
      </trkpt>
      <trkpt lat="47.02355" lon="8.94588">
        <ele>849</ele>
        <time>2021-08-02T12:05:57.289Z</time>
      </trkpt>
      <trkpt lat="47.02355" lon="8.94589">
        <ele>850</ele>
        <time>2021-08-02T12:05:58.290Z</time>
      </trkpt>
      <trkpt lat="47.02354" lon="8.94591">
        <ele>850</ele>
        <time>2021-08-02T12:05:59.290Z</time>
      </trkpt>
      <trkpt lat="47.02354" lon="8.94591">
        <ele>850</ele>
        <time>2021-08-02T12:06:00.290Z</time>
      </trkpt>
      <trkpt lat="47.02354" lon="8.94592">
        <ele>849</ele>
        <time>2021-08-02T12:06:01.289Z</time>
      </trkpt>
      <trkpt lat="47.02354" lon="8.94592">
        <ele>849</ele>
        <time>2021-08-02T12:06:02.290Z</time>
      </trkpt>
      <trkpt lat="47.02353" lon="8.94592">
        <ele>849</ele>
        <time>2021-08-02T12:06:03.289Z</time>
      </trkpt>
      <trkpt lat="47.02352" lon="8.94593">
        <ele>849</ele>
        <time>2021-08-02T12:06:04.290Z</time>
      </trkpt>
      <trkpt lat="47.02351" lon="8.94594">
        <ele>848</ele>
        <time>2021-08-02T12:06:05.289Z</time>
      </trkpt>
      <trkpt lat="47.02351" lon="8.94595">
        <ele>847</ele>
        <time>2021-08-02T12:06:06.289Z</time>
      </trkpt>
      <trkpt lat="47.0235" lon="8.94595">
        <ele>847</ele>
        <time>2021-08-02T12:06:07.290Z</time>
      </trkpt>
      <trkpt lat="47.0235" lon="8.94596">
        <ele>847</ele>
        <time>2021-08-02T12:06:08.290Z</time>
      </trkpt>
      <trkpt lat="47.02348" lon="8.94598">
        <ele>845</ele>
        <time>2021-08-02T12:06:09.289Z</time>
      </trkpt>
      <trkpt lat="47.02348" lon="8.94599">
        <ele>844</ele>
        <time>2021-08-02T12:06:10.289Z</time>
      </trkpt>
      <trkpt lat="47.02347" lon="8.94598">
        <ele>844</ele>
        <time>2021-08-02T12:06:11.289Z</time>
      </trkpt>
      <trkpt lat="47.02345" lon="8.94598">
        <ele>842</ele>
        <time>2021-08-02T12:06:12.289Z</time>
      </trkpt>
      <trkpt lat="47.02344" lon="8.94597">
        <ele>841</ele>
        <time>2021-08-02T12:06:13.289Z</time>
      </trkpt>
      <trkpt lat="47.02344" lon="8.94597">
        <ele>840</ele>
        <time>2021-08-02T12:06:14.289Z</time>
      </trkpt>
      <trkpt lat="47.02342" lon="8.94598">
        <ele>838</ele>
        <time>2021-08-02T12:06:15.290Z</time>
      </trkpt>
      <trkpt lat="47.02342" lon="8.94598">
        <ele>838</ele>
        <time>2021-08-02T12:06:16.289Z</time>
      </trkpt>
      <trkpt lat="47.02343" lon="8.94598">
        <ele>838</ele>
        <time>2021-08-02T12:06:17.291Z</time>
      </trkpt>
      <trkpt lat="47.02343" lon="8.94597">
        <ele>838</ele>
        <time>2021-08-02T12:06:18.291Z</time>
      </trkpt>
      <trkpt lat="47.02343" lon="8.94596">
        <ele>838</ele>
        <time>2021-08-02T12:06:19.290Z</time>
      </trkpt>
      <trkpt lat="47.02343" lon="8.94596">
        <ele>838</ele>
        <time>2021-08-02T12:06:20.291Z</time>
      </trkpt>
      <trkpt lat="47.02344" lon="8.94594">
        <ele>839</ele>
        <time>2021-08-02T12:06:21.291Z</time>
      </trkpt>
      <trkpt lat="47.02344" lon="8.94595">
        <ele>840</ele>
        <time>2021-08-02T12:06:22.291Z</time>
      </trkpt>
      <trkpt lat="47.02345" lon="8.94595">
        <ele>840</ele>
        <time>2021-08-02T12:06:23.291Z</time>
      </trkpt>
      <trkpt lat="47.02346" lon="8.94596">
        <ele>841</ele>
        <time>2021-08-02T12:06:24.292Z</time>
      </trkpt>
      <trkpt lat="47.02347" lon="8.94595">
        <ele>842</ele>
        <time>2021-08-02T12:06:25.292Z</time>
      </trkpt>
      <trkpt lat="47.02348" lon="8.94594">
        <ele>842</ele>
        <time>2021-08-02T12:06:26.291Z</time>
      </trkpt>
      <trkpt lat="47.02348" lon="8.94593">
        <ele>841</ele>
        <time>2021-08-02T12:06:27.292Z</time>
      </trkpt>
      <trkpt lat="47.02348" lon="8.94593">
        <ele>841</ele>
        <time>2021-08-02T12:06:28.292Z</time>
      </trkpt>
      <trkpt lat="47.02349" lon="8.94593">
        <ele>841</ele>
        <time>2021-08-02T12:06:29.292Z</time>
      </trkpt>
      <trkpt lat="47.02348" lon="8.94592">
        <ele>841</ele>
        <time>2021-08-02T12:06:30.292Z</time>
      </trkpt>
      <trkpt lat="47.02349" lon="8.94592">
        <ele>841</ele>
        <time>2021-08-02T12:06:31.292Z</time>
      </trkpt>
      <trkpt lat="47.02351" lon="8.9459">
        <ele>840</ele>
        <time>2021-08-02T12:06:32.292Z</time>
      </trkpt>
      <trkpt lat="47.02353" lon="8.94589">
        <ele>840</ele>
        <time>2021-08-02T12:06:33.291Z</time>
      </trkpt>
      <trkpt lat="47.02355" lon="8.94588">
        <ele>840</ele>
        <time>2021-08-02T12:06:34.292Z</time>
      </trkpt>
      <trkpt lat="47.02356" lon="8.94587">
        <ele>841</ele>
        <time>2021-08-02T12:06:35.292Z</time>
      </trkpt>
      <trkpt lat="47.02357" lon="8.94587">
        <ele>841</ele>
        <time>2021-08-02T12:06:36.292Z</time>
      </trkpt>
      <trkpt lat="47.02358" lon="8.94586">
        <ele>841</ele>
        <time>2021-08-02T12:06:37.292Z</time>
      </trkpt>
      <trkpt lat="47.02357" lon="8.94586">
        <ele>841</ele>
        <time>2021-08-02T12:06:38.292Z</time>
      </trkpt>
      <trkpt lat="47.02356" lon="8.94586">
        <ele>841</ele>
        <time>2021-08-02T12:06:39.291Z</time>
      </trkpt>
      <trkpt lat="47.02353" lon="8.94585">
        <ele>836</ele>
        <time>2021-08-02T12:06:40.292Z</time>
      </trkpt>
      <trkpt lat="47.02352" lon="8.94586">
        <ele>836</ele>
        <time>2021-08-02T12:06:41.291Z</time>
      </trkpt>
      <trkpt lat="47.02351" lon="8.94587">
        <ele>837</ele>
        <time>2021-08-02T12:06:42.291Z</time>
      </trkpt>
      <trkpt lat="47.02351" lon="8.94588">
        <ele>837</ele>
        <time>2021-08-02T12:06:43.292Z</time>
      </trkpt>
      <trkpt lat="47.0235" lon="8.94589">
        <ele>838</ele>
        <time>2021-08-02T12:06:44.292Z</time>
      </trkpt>
      <trkpt lat="47.0235" lon="8.94588">
        <ele>838</ele>
        <time>2021-08-02T12:06:45.292Z</time>
      </trkpt>
      <trkpt lat="47.0235" lon="8.94587">
        <ele>839</ele>
        <time>2021-08-02T12:06:46.292Z</time>
      </trkpt>
      <trkpt lat="47.0235" lon="8.94587">
        <ele>839</ele>
        <time>2021-08-02T12:06:47.292Z</time>
      </trkpt>
      <trkpt lat="47.0235" lon="8.94587">
        <ele>840</ele>
        <time>2021-08-02T12:06:48.292Z</time>
      </trkpt>
      <trkpt lat="47.0235" lon="8.9459">
        <ele>841</ele>
        <time>2021-08-02T12:06:49.293Z</time>
      </trkpt>
      <trkpt lat="47.0235" lon="8.94591">
        <ele>841</ele>
        <time>2021-08-02T12:06:50.292Z</time>
      </trkpt>
      <trkpt lat="47.0235" lon="8.94591">
        <ele>842</ele>
        <time>2021-08-02T12:06:51.293Z</time>
      </trkpt>
      <trkpt lat="47.0235" lon="8.9459">
        <ele>842</ele>
        <time>2021-08-02T12:06:52.293Z</time>
      </trkpt>
      <trkpt lat="47.0235" lon="8.9459">
        <ele>843</ele>
        <time>2021-08-02T12:06:53.293Z</time>
      </trkpt>
      <trkpt lat="47.0235" lon="8.9459">
        <ele>843</ele>
        <time>2021-08-02T12:06:54.292Z</time>
      </trkpt>
      <trkpt lat="47.0235" lon="8.9459">
        <ele>846</ele>
        <time>2021-08-02T12:06:55.293Z</time>
      </trkpt>
      <trkpt lat="47.0235" lon="8.9459">
        <ele>847</ele>
        <time>2021-08-02T12:06:56.292Z</time>
      </trkpt>
      <trkpt lat="47.02351" lon="8.94591">
        <ele>847</ele>
        <time>2021-08-02T12:06:57.292Z</time>
      </trkpt>
      <trkpt lat="47.02347" lon="8.94591">
        <ele>847</ele>
        <time>2021-08-02T12:06:58.293Z</time>
      </trkpt>
      <trkpt lat="47.02349" lon="8.94591">
        <ele>847</ele>
        <time>2021-08-02T12:06:59.292Z</time>
      </trkpt>
      <trkpt lat="47.0235" lon="8.9459">
        <ele>847</ele>
        <time>2021-08-02T12:07:00.292Z</time>
      </trkpt>
      <trkpt lat="47.02351" lon="8.9459">
        <ele>848</ele>
        <time>2021-08-02T12:07:01.293Z</time>
      </trkpt>
      <trkpt lat="47.02351" lon="8.94589">
        <ele>848</ele>
        <time>2021-08-02T12:07:02.293Z</time>
      </trkpt>
      <trkpt lat="47.02352" lon="8.94588">
        <ele>849</ele>
        <time>2021-08-02T12:07:03.293Z</time>
      </trkpt>
      <trkpt lat="47.02352" lon="8.94588">
        <ele>849</ele>
        <time>2021-08-02T12:07:04.293Z</time>
      </trkpt>
      <trkpt lat="47.02352" lon="8.94588">
        <ele>849</ele>
        <time>2021-08-02T12:07:05.292Z</time>
      </trkpt>
      <trkpt lat="47.02352" lon="8.94588">
        <ele>849</ele>
        <time>2021-08-02T12:07:06.293Z</time>
      </trkpt>
      <trkpt lat="47.02353" lon="8.94584">
        <ele>850</ele>
        <time>2021-08-02T12:07:10.352Z</time>
      </trkpt>
      <trkpt lat="47.02354" lon="8.94586">
        <ele>850</ele>
        <time>2021-08-02T12:07:11.353Z</time>
      </trkpt>
      <trkpt lat="47.02354" lon="8.94586">
        <ele>849</ele>
        <time>2021-08-02T12:07:12.353Z</time>
      </trkpt>
      <trkpt lat="47.02354" lon="8.94586">
        <ele>849</ele>
        <time>2021-08-02T12:07:13.353Z</time>
      </trkpt>
      <trkpt lat="47.02354" lon="8.94586">
        <ele>849</ele>
        <time>2021-08-02T12:07:14.353Z</time>
      </trkpt>
      <trkpt lat="47.02355" lon="8.94586">
        <ele>849</ele>
        <time>2021-08-02T12:07:15.353Z</time>
      </trkpt>
      <trkpt lat="47.02355" lon="8.94586">
        <ele>848</ele>
        <time>2021-08-02T12:07:16.352Z</time>
      </trkpt>
      <trkpt lat="47.02355" lon="8.94587">
        <ele>848</ele>
        <time>2021-08-02T12:07:17.352Z</time>
      </trkpt>
      <trkpt lat="47.02355" lon="8.94587">
        <ele>848</ele>
        <time>2021-08-02T12:07:18.353Z</time>
      </trkpt>
      <trkpt lat="47.02355" lon="8.94587">
        <ele>849</ele>
        <time>2021-08-02T12:07:19.353Z</time>
      </trkpt>
      <trkpt lat="47.02356" lon="8.94587">
        <ele>849</ele>
        <time>2021-08-02T12:07:20.352Z</time>
      </trkpt>
      <trkpt lat="47.02356" lon="8.94587">
        <ele>849</ele>
        <time>2021-08-02T12:07:21.352Z</time>
      </trkpt>
      <trkpt lat="47.02356" lon="8.94587">
        <ele>848</ele>
        <time>2021-08-02T12:07:22.352Z</time>
      </trkpt>
      <trkpt lat="47.02357" lon="8.94586">
        <ele>846</ele>
        <time>2021-08-02T12:07:23.352Z</time>
      </trkpt>
      <trkpt lat="47.02357" lon="8.94586">
        <ele>846</ele>
        <time>2021-08-02T12:07:24.353Z</time>
      </trkpt>
      <trkpt lat="47.02357" lon="8.94585">
        <ele>847</ele>
        <time>2021-08-02T12:07:25.352Z</time>
      </trkpt>
      <trkpt lat="47.02357" lon="8.94584">
        <ele>847</ele>
        <time>2021-08-02T12:07:26.353Z</time>
      </trkpt>
      <trkpt lat="47.02356" lon="8.94583">
        <ele>848</ele>
        <time>2021-08-02T12:07:27.352Z</time>
      </trkpt>
      <trkpt lat="47.02355" lon="8.94582">
        <ele>848</ele>
        <time>2021-08-02T12:07:28.352Z</time>
      </trkpt>
      <trkpt lat="47.02354" lon="8.94582">
        <ele>849</ele>
        <time>2021-08-02T12:07:29.352Z</time>
      </trkpt>
      <trkpt lat="47.02354" lon="8.94583">
        <ele>849</ele>
        <time>2021-08-02T12:07:30.352Z</time>
      </trkpt>
      <trkpt lat="47.02354" lon="8.94584">
        <ele>850</ele>
        <time>2021-08-02T12:07:31.353Z</time>
      </trkpt>
      <trkpt lat="47.02354" lon="8.94584">
        <ele>850</ele>
        <time>2021-08-02T12:07:32.353Z</time>
      </trkpt>
      <trkpt lat="47.02353" lon="8.94585">
        <ele>851</ele>
        <time>2021-08-02T12:07:33.353Z</time>
      </trkpt>
      <trkpt lat="47.02355" lon="8.94586">
        <ele>852</ele>
        <time>2021-08-02T12:07:34.353Z</time>
      </trkpt>
      <trkpt lat="47.02355" lon="8.94586">
        <ele>852</ele>
        <time>2021-08-02T12:07:35.353Z</time>
      </trkpt>
      <trkpt lat="47.02355" lon="8.94587">
        <ele>849</ele>
        <time>2021-08-02T12:07:36.354Z</time>
      </trkpt>
      <trkpt lat="47.02356" lon="8.94589">
        <ele>849</ele>
        <time>2021-08-02T12:07:37.354Z</time>
      </trkpt>
      <trkpt lat="47.02357" lon="8.94589">
        <ele>849</ele>
        <time>2021-08-02T12:07:38.354Z</time>
      </trkpt>
      <trkpt lat="47.02357" lon="8.94588">
        <ele>849</ele>
        <time>2021-08-02T12:07:39.354Z</time>
      </trkpt>
      <trkpt lat="47.02358" lon="8.94588">
        <ele>849</ele>
        <time>2021-08-02T12:07:40.354Z</time>
      </trkpt>
      <trkpt lat="47.02358" lon="8.94587">
        <ele>849</ele>
        <time>2021-08-02T12:07:41.355Z</time>
      </trkpt>
      <trkpt lat="47.02358" lon="8.94587">
        <ele>849</ele>
        <time>2021-08-02T12:07:42.354Z</time>
      </trkpt>
      <trkpt lat="47.02358" lon="8.94588">
        <ele>849</ele>
        <time>2021-08-02T12:07:43.354Z</time>
      </trkpt>
      <trkpt lat="47.02357" lon="8.94589">
        <ele>849</ele>
        <time>2021-08-02T12:07:44.354Z</time>
      </trkpt>
      <trkpt lat="47.02357" lon="8.94589">
        <ele>849</ele>
        <time>2021-08-02T12:07:45.355Z</time>
      </trkpt>
      <trkpt lat="47.02357" lon="8.94589">
        <ele>849</ele>
        <time>2021-08-02T12:07:46.355Z</time>
      </trkpt>
      <trkpt lat="47.02357" lon="8.9459">
        <ele>849</ele>
        <time>2021-08-02T12:07:47.354Z</time>
      </trkpt>
      <trkpt lat="47.02357" lon="8.9459">
        <ele>849</ele>
        <time>2021-08-02T12:07:48.354Z</time>
      </trkpt>
      <trkpt lat="47.02357" lon="8.9459">
        <ele>849</ele>
        <time>2021-08-02T12:07:49.354Z</time>
      </trkpt>
      <trkpt lat="47.02357" lon="8.9459">
        <ele>849</ele>
        <time>2021-08-02T12:07:54.417Z</time>
      </trkpt>
      <trkpt lat="47.02357" lon="8.9459">
        <ele>849</ele>
        <time>2021-08-02T12:07:55.417Z</time>
      </trkpt>
      <trkpt lat="47.02357" lon="8.94589">
        <ele>848</ele>
        <time>2021-08-02T12:07:56.417Z</time>
      </trkpt>
      <trkpt lat="47.02356" lon="8.94585">
        <ele>850</ele>
        <time>2021-08-02T12:07:57.418Z</time>
      </trkpt>
      <trkpt lat="47.02355" lon="8.94584">
        <ele>850</ele>
        <time>2021-08-02T12:07:58.418Z</time>
      </trkpt>
      <trkpt lat="47.02354" lon="8.94585">
        <ele>851</ele>
        <time>2021-08-02T12:07:59.418Z</time>
      </trkpt>
      <trkpt lat="47.02353" lon="8.94586">
        <ele>851</ele>
        <time>2021-08-02T12:08:00.418Z</time>
      </trkpt>
      <trkpt lat="47.02353" lon="8.94587">
        <ele>851</ele>
        <time>2021-08-02T12:08:01.418Z</time>
      </trkpt>
      <trkpt lat="47.02353" lon="8.94588">
        <ele>852</ele>
        <time>2021-08-02T12:08:02.418Z</time>
      </trkpt>
      <trkpt lat="47.02353" lon="8.94588">
        <ele>852</ele>
        <time>2021-08-02T12:08:03.418Z</time>
      </trkpt>
      <trkpt lat="47.02353" lon="8.94588">
        <ele>852</ele>
        <time>2021-08-02T12:08:04.418Z</time>
      </trkpt>
      <trkpt lat="47.02353" lon="8.94588">
        <ele>852</ele>
        <time>2021-08-02T12:08:05.418Z</time>
      </trkpt>
      <trkpt lat="47.02354" lon="8.94588">
        <ele>852</ele>
        <time>2021-08-02T12:08:06.418Z</time>
      </trkpt>
      <trkpt lat="47.02354" lon="8.94589">
        <ele>852</ele>
        <time>2021-08-02T12:08:07.418Z</time>
      </trkpt>
      <trkpt lat="47.02354" lon="8.94589">
        <ele>852</ele>
        <time>2021-08-02T12:08:08.418Z</time>
      </trkpt>
      <trkpt lat="47.02358" lon="8.94587">
        <ele>847</ele>
        <time>2021-08-02T12:08:09.419Z</time>
      </trkpt>
      <trkpt lat="47.02358" lon="8.94587">
        <ele>846</ele>
        <time>2021-08-02T12:08:10.418Z</time>
      </trkpt>
      <trkpt lat="47.02354" lon="8.9459">
        <ele>846</ele>
        <time>2021-08-02T12:08:11.419Z</time>
      </trkpt>
      <trkpt lat="47.02353" lon="8.94591">
        <ele>846</ele>
        <time>2021-08-02T12:08:12.420Z</time>
      </trkpt>
      <trkpt lat="47.02354" lon="8.94591">
        <ele>846</ele>
        <time>2021-08-02T12:08:13.419Z</time>
      </trkpt>
      <trkpt lat="47.02355" lon="8.94591">
        <ele>846</ele>
        <time>2021-08-02T12:08:14.419Z</time>
      </trkpt>
      <trkpt lat="47.02355" lon="8.9459">
        <ele>846</ele>
        <time>2021-08-02T12:08:15.420Z</time>
      </trkpt>
      <trkpt lat="47.02355" lon="8.9459">
        <ele>846</ele>
        <time>2021-08-02T12:08:16.420Z</time>
      </trkpt>
      <trkpt lat="47.02355" lon="8.9459">
        <ele>846</ele>
        <time>2021-08-02T12:08:17.420Z</time>
      </trkpt>
      <trkpt lat="47.02356" lon="8.9459">
        <ele>845</ele>
        <time>2021-08-02T12:08:18.420Z</time>
      </trkpt>
      <trkpt lat="47.02356" lon="8.94589">
        <ele>845</ele>
        <time>2021-08-02T12:08:19.419Z</time>
      </trkpt>
      <trkpt lat="47.02357" lon="8.94589">
        <ele>843</ele>
        <time>2021-08-02T12:08:20.420Z</time>
      </trkpt>
      <trkpt lat="47.02357" lon="8.94589">
        <ele>843</ele>
        <time>2021-08-02T12:08:21.420Z</time>
      </trkpt>
      <trkpt lat="47.02357" lon="8.94589">
        <ele>843</ele>
        <time>2021-08-02T12:08:22.421Z</time>
      </trkpt>
      <trkpt lat="47.02356" lon="8.94589">
        <ele>843</ele>
        <time>2021-08-02T12:08:23.421Z</time>
      </trkpt>
      <trkpt lat="47.02352" lon="8.94586">
        <ele>839</ele>
        <time>2021-08-02T12:08:24.421Z</time>
      </trkpt>
      <trkpt lat="47.02354" lon="8.94587">
        <ele>842</ele>
        <time>2021-08-02T12:08:25.420Z</time>
      </trkpt>
      <trkpt lat="47.02354" lon="8.94587">
        <ele>842</ele>
        <time>2021-08-02T12:08:26.421Z</time>
      </trkpt>
      <trkpt lat="47.02354" lon="8.94586">
        <ele>843</ele>
        <time>2021-08-02T12:08:27.420Z</time>
      </trkpt>
      <trkpt lat="47.02353" lon="8.94586">
        <ele>843</ele>
        <time>2021-08-02T12:08:28.421Z</time>
      </trkpt>
      <trkpt lat="47.02353" lon="8.94586">
        <ele>844</ele>
        <time>2021-08-02T12:08:29.421Z</time>
      </trkpt>
      <trkpt lat="47.02355" lon="8.94587">
        <ele>849</ele>
        <time>2021-08-02T12:08:30.420Z</time>
      </trkpt>
      <trkpt lat="47.02355" lon="8.94587">
        <ele>849</ele>
        <time>2021-08-02T12:08:31.421Z</time>
      </trkpt>
      <trkpt lat="47.02355" lon="8.94586">
        <ele>850</ele>
        <time>2021-08-02T12:08:32.420Z</time>
      </trkpt>
      <trkpt lat="47.02355" lon="8.94585">
        <ele>849</ele>
        <time>2021-08-02T12:08:33.422Z</time>
      </trkpt>
      <trkpt lat="47.02355" lon="8.94585">
        <ele>849</ele>
        <time>2021-08-02T12:08:34.422Z</time>
      </trkpt>
      <trkpt lat="47.02354" lon="8.94585">
        <ele>848</ele>
        <time>2021-08-02T12:08:35.422Z</time>
      </trkpt>
      <trkpt lat="47.02354" lon="8.94585">
        <ele>848</ele>
        <time>2021-08-02T12:08:36.422Z</time>
      </trkpt>
      <trkpt lat="47.02353" lon="8.94582">
        <ele>847</ele>
        <time>2021-08-02T12:08:37.422Z</time>
      </trkpt>
      <trkpt lat="47.02353" lon="8.94582">
        <ele>847</ele>
        <time>2021-08-02T12:08:38.421Z</time>
      </trkpt>
      <trkpt lat="47.02349" lon="8.94583">
        <ele>845</ele>
        <time>2021-08-02T12:08:39.422Z</time>
      </trkpt>
      <trkpt lat="47.02349" lon="8.94583">
        <ele>845</ele>
        <time>2021-08-02T12:08:40.423Z</time>
      </trkpt>
      <trkpt lat="47.02348" lon="8.94584">
        <ele>845</ele>
        <time>2021-08-02T12:08:41.422Z</time>
      </trkpt>
      <trkpt lat="47.02347" lon="8.94584">
        <ele>845</ele>
        <time>2021-08-02T12:08:42.423Z</time>
      </trkpt>
      <trkpt lat="47.02347" lon="8.94585">
        <ele>845</ele>
        <time>2021-08-02T12:08:43.423Z</time>
      </trkpt>
      <trkpt lat="47.02347" lon="8.94587">
        <ele>844</ele>
        <time>2021-08-02T12:08:44.423Z</time>
      </trkpt>
      <trkpt lat="47.02348" lon="8.94587">
        <ele>844</ele>
        <time>2021-08-02T12:08:45.423Z</time>
      </trkpt>
      <trkpt lat="47.02349" lon="8.94586">
        <ele>844</ele>
        <time>2021-08-02T12:08:46.422Z</time>
      </trkpt>
      <trkpt lat="47.0235" lon="8.94585">
        <ele>844</ele>
        <time>2021-08-02T12:08:47.423Z</time>
      </trkpt>
      <trkpt lat="47.0235" lon="8.94585">
        <ele>844</ele>
        <time>2021-08-02T12:08:48.423Z</time>
      </trkpt>
      <trkpt lat="47.02351" lon="8.94584">
        <ele>844</ele>
        <time>2021-08-02T12:08:49.423Z</time>
      </trkpt>
      <trkpt lat="47.0235" lon="8.94583">
        <ele>844</ele>
        <time>2021-08-02T12:08:50.423Z</time>
      </trkpt>
      <trkpt lat="47.02349" lon="8.94581">
        <ele>845</ele>
        <time>2021-08-02T12:08:51.423Z</time>
      </trkpt>
      <trkpt lat="47.0235" lon="8.94579">
        <ele>846</ele>
        <time>2021-08-02T12:08:52.422Z</time>
      </trkpt>
      <trkpt lat="47.02351" lon="8.94579">
        <ele>846</ele>
        <time>2021-08-02T12:08:53.422Z</time>
      </trkpt>
      <trkpt lat="47.02351" lon="8.94579">
        <ele>847</ele>
        <time>2021-08-02T12:08:54.423Z</time>
      </trkpt>
      <trkpt lat="47.02351" lon="8.94579">
        <ele>848</ele>
        <time>2021-08-02T12:08:55.423Z</time>
      </trkpt>
      <trkpt lat="47.02351" lon="8.94581">
        <ele>849</ele>
        <time>2021-08-02T12:08:56.423Z</time>
      </trkpt>
      <trkpt lat="47.02351" lon="8.94582">
        <ele>849</ele>
        <time>2021-08-02T12:08:57.422Z</time>
      </trkpt>
      <trkpt lat="47.02352" lon="8.94582">
        <ele>850</ele>
        <time>2021-08-02T12:08:58.422Z</time>
      </trkpt>
      <trkpt lat="47.02352" lon="8.94583">
        <ele>850</ele>
        <time>2021-08-02T12:08:59.423Z</time>
      </trkpt>
      <trkpt lat="47.02353" lon="8.94583">
        <ele>851</ele>
        <time>2021-08-02T12:09:00.423Z</time>
      </trkpt>
      <trkpt lat="47.02353" lon="8.94583">
        <ele>851</ele>
        <time>2021-08-02T12:09:01.423Z</time>
      </trkpt>
      <trkpt lat="47.02353" lon="8.94582">
        <ele>851</ele>
        <time>2021-08-02T12:09:02.422Z</time>
      </trkpt>
      <trkpt lat="47.02353" lon="8.94581">
        <ele>850</ele>
        <time>2021-08-02T12:09:03.423Z</time>
      </trkpt>
      <trkpt lat="47.02354" lon="8.9458">
        <ele>850</ele>
        <time>2021-08-02T12:09:04.422Z</time>
      </trkpt>
      <trkpt lat="47.02353" lon="8.94581">
        <ele>850</ele>
        <time>2021-08-02T12:09:05.422Z</time>
      </trkpt>
      <trkpt lat="47.02353" lon="8.94581">
        <ele>849</ele>
        <time>2021-08-02T12:09:06.422Z</time>
      </trkpt>
      <trkpt lat="47.02354" lon="8.94582">
        <ele>849</ele>
        <time>2021-08-02T12:09:07.422Z</time>
      </trkpt>
      <trkpt lat="47.02354" lon="8.94582">
        <ele>849</ele>
        <time>2021-08-02T12:09:08.423Z</time>
      </trkpt>
      <trkpt lat="47.02354" lon="8.94583">
        <ele>849</ele>
        <time>2021-08-02T12:09:09.423Z</time>
      </trkpt>
      <trkpt lat="47.02355" lon="8.94583">
        <ele>849</ele>
        <time>2021-08-02T12:09:10.423Z</time>
      </trkpt>
      <trkpt lat="47.02355" lon="8.94583">
        <ele>849</ele>
        <time>2021-08-02T12:09:11.422Z</time>
      </trkpt>
      <trkpt lat="47.02355" lon="8.94582">
        <ele>849</ele>
        <time>2021-08-02T12:09:12.423Z</time>
      </trkpt>
      <trkpt lat="47.02355" lon="8.94583">
        <ele>849</ele>
        <time>2021-08-02T12:09:13.423Z</time>
      </trkpt>
      <trkpt lat="47.02355" lon="8.94583">
        <ele>849</ele>
        <time>2021-08-02T12:09:14.423Z</time>
      </trkpt>
      <trkpt lat="47.02355" lon="8.94584">
        <ele>847</ele>
        <time>2021-08-02T12:09:15.423Z</time>
      </trkpt>
      <trkpt lat="47.02354" lon="8.94584">
        <ele>846</ele>
        <time>2021-08-02T12:09:16.423Z</time>
      </trkpt>
      <trkpt lat="47.02354" lon="8.94584">
        <ele>846</ele>
        <time>2021-08-02T12:09:17.422Z</time>
      </trkpt>
      <trkpt lat="47.02354" lon="8.94584">
        <ele>846</ele>
        <time>2021-08-02T12:09:18.422Z</time>
      </trkpt>
      <trkpt lat="47.02354" lon="8.94584">
        <ele>846</ele>
        <time>2021-08-02T12:09:19.422Z</time>
      </trkpt>
      <trkpt lat="47.02353" lon="8.94584">
        <ele>845</ele>
        <time>2021-08-02T12:09:20.423Z</time>
      </trkpt>
      <trkpt lat="47.02352" lon="8.94584">
        <ele>845</ele>
        <time>2021-08-02T12:09:21.422Z</time>
      </trkpt>
      <trkpt lat="47.02351" lon="8.94585">
        <ele>844</ele>
        <time>2021-08-02T12:09:22.423Z</time>
      </trkpt>
      <trkpt lat="47.0235" lon="8.94586">
        <ele>844</ele>
        <time>2021-08-02T12:09:23.423Z</time>
      </trkpt>
      <trkpt lat="47.02349" lon="8.94588">
        <ele>844</ele>
        <time>2021-08-02T12:09:24.422Z</time>
      </trkpt>
      <trkpt lat="47.02348" lon="8.94588">
        <ele>843</ele>
        <time>2021-08-02T12:09:25.422Z</time>
      </trkpt>
      <trkpt lat="47.02348" lon="8.94588">
        <ele>843</ele>
        <time>2021-08-02T12:09:26.422Z</time>
      </trkpt>
      <trkpt lat="47.02347" lon="8.94589">
        <ele>843</ele>
        <time>2021-08-02T12:09:27.423Z</time>
      </trkpt>
      <trkpt lat="47.02346" lon="8.94589">
        <ele>843</ele>
        <time>2021-08-02T12:09:28.423Z</time>
      </trkpt>
      <trkpt lat="47.02346" lon="8.9459">
        <ele>842</ele>
        <time>2021-08-02T12:09:29.423Z</time>
      </trkpt>
      <trkpt lat="47.02346" lon="8.9459">
        <ele>842</ele>
        <time>2021-08-02T12:09:30.422Z</time>
      </trkpt>
      <trkpt lat="47.02345" lon="8.9459">
        <ele>842</ele>
        <time>2021-08-02T12:09:31.423Z</time>
      </trkpt>
      <trkpt lat="47.02345" lon="8.9459">
        <ele>841</ele>
        <time>2021-08-02T12:09:32.423Z</time>
      </trkpt>
      <trkpt lat="47.02345" lon="8.94589">
        <ele>841</ele>
        <time>2021-08-02T12:09:33.423Z</time>
      </trkpt>
      <trkpt lat="47.02345" lon="8.94588">
        <ele>841</ele>
        <time>2021-08-02T12:09:34.422Z</time>
      </trkpt>
      <trkpt lat="47.02344" lon="8.94588">
        <ele>840</ele>
        <time>2021-08-02T12:09:35.423Z</time>
      </trkpt>
      <trkpt lat="47.02345" lon="8.94587">
        <ele>841</ele>
        <time>2021-08-02T12:09:39.578Z</time>
      </trkpt>
      <trkpt lat="47.02345" lon="8.94585">
        <ele>841</ele>
        <time>2021-08-02T12:09:40.577Z</time>
      </trkpt>
      <trkpt lat="47.02345" lon="8.94585">
        <ele>841</ele>
        <time>2021-08-02T12:09:41.577Z</time>
      </trkpt>
      <trkpt lat="47.02345" lon="8.94585">
        <ele>847</ele>
        <time>2021-08-02T12:09:42.578Z</time>
      </trkpt>
      <trkpt lat="47.02344" lon="8.94587">
        <ele>847</ele>
        <time>2021-08-02T12:09:43.578Z</time>
      </trkpt>
      <trkpt lat="47.02344" lon="8.94589">
        <ele>847</ele>
        <time>2021-08-02T12:09:44.577Z</time>
      </trkpt>
      <trkpt lat="47.02344" lon="8.94589">
        <ele>848</ele>
        <time>2021-08-02T12:09:45.578Z</time>
      </trkpt>
      <trkpt lat="47.02346" lon="8.94589">
        <ele>849</ele>
        <time>2021-08-02T12:09:46.578Z</time>
      </trkpt>
      <trkpt lat="47.02347" lon="8.94588">
        <ele>849</ele>
        <time>2021-08-02T12:09:47.578Z</time>
      </trkpt>
      <trkpt lat="47.02347" lon="8.94587">
        <ele>850</ele>
        <time>2021-08-02T12:09:48.578Z</time>
      </trkpt>
      <trkpt lat="47.02347" lon="8.94587">
        <ele>850</ele>
        <time>2021-08-02T12:09:49.578Z</time>
      </trkpt>
      <trkpt lat="47.02348" lon="8.94587">
        <ele>851</ele>
        <time>2021-08-02T12:09:50.579Z</time>
      </trkpt>
      <trkpt lat="47.02347" lon="8.94586">
        <ele>852</ele>
        <time>2021-08-02T12:09:51.579Z</time>
      </trkpt>
      <trkpt lat="47.0235" lon="8.94588">
        <ele>852</ele>
        <time>2021-08-02T12:09:52.579Z</time>
      </trkpt>
      <trkpt lat="47.0235" lon="8.94588">
        <ele>853</ele>
        <time>2021-08-02T12:09:53.578Z</time>
      </trkpt>
      <trkpt lat="47.02351" lon="8.94589">
        <ele>853</ele>
        <time>2021-08-02T12:09:54.578Z</time>
      </trkpt>
      <trkpt lat="47.02351" lon="8.94588">
        <ele>853</ele>
        <time>2021-08-02T12:09:55.578Z</time>
      </trkpt>
      <trkpt lat="47.02351" lon="8.94588">
        <ele>854</ele>
        <time>2021-08-02T12:09:56.578Z</time>
      </trkpt>
      <trkpt lat="47.02351" lon="8.94588">
        <ele>854</ele>
        <time>2021-08-02T12:09:57.580Z</time>
      </trkpt>
      <trkpt lat="47.02351" lon="8.94587">
        <ele>854</ele>
        <time>2021-08-02T12:09:58.580Z</time>
      </trkpt>
      <trkpt lat="47.02351" lon="8.94586">
        <ele>854</ele>
        <time>2021-08-02T12:09:59.579Z</time>
      </trkpt>
      <trkpt lat="47.02351" lon="8.94586">
        <ele>855</ele>
        <time>2021-08-02T12:10:00.579Z</time>
      </trkpt>
      <trkpt lat="47.02351" lon="8.94585">
        <ele>855</ele>
        <time>2021-08-02T12:10:01.579Z</time>
      </trkpt>
      <trkpt lat="47.02351" lon="8.94585">
        <ele>855</ele>
        <time>2021-08-02T12:10:02.579Z</time>
      </trkpt>
      <trkpt lat="47.02351" lon="8.94585">
        <ele>856</ele>
        <time>2021-08-02T12:10:03.579Z</time>
      </trkpt>
      <trkpt lat="47.0235" lon="8.94585">
        <ele>856</ele>
        <time>2021-08-02T12:10:04.579Z</time>
      </trkpt>
      <trkpt lat="47.0235" lon="8.94585">
        <ele>857</ele>
        <time>2021-08-02T12:10:05.579Z</time>
      </trkpt>
      <trkpt lat="47.02349" lon="8.94584">
        <ele>857</ele>
        <time>2021-08-02T12:10:06.579Z</time>
      </trkpt>
      <trkpt lat="47.02349" lon="8.94584">
        <ele>857</ele>
        <time>2021-08-02T12:10:08.691Z</time>
      </trkpt>
      <trkpt lat="47.02349" lon="8.94584">
        <ele>857</ele>
        <time>2021-08-02T12:10:09.691Z</time>
      </trkpt>
      <trkpt lat="47.02349" lon="8.94584">
        <ele>857</ele>
        <time>2021-08-02T12:10:10.691Z</time>
      </trkpt>
      <trkpt lat="47.02348" lon="8.94584">
        <ele>857</ele>
        <time>2021-08-02T12:10:11.692Z</time>
      </trkpt>
      <trkpt lat="47.02348" lon="8.94585">
        <ele>857</ele>
        <time>2021-08-02T12:10:12.691Z</time>
      </trkpt>
      <trkpt lat="47.02347" lon="8.94585">
        <ele>859</ele>
        <time>2021-08-02T12:10:13.692Z</time>
      </trkpt>
      <trkpt lat="47.02348" lon="8.94584">
        <ele>857</ele>
        <time>2021-08-02T12:10:14.692Z</time>
      </trkpt>
      <trkpt lat="47.02349" lon="8.94585">
        <ele>856</ele>
        <time>2021-08-02T12:10:15.692Z</time>
      </trkpt>
      <trkpt lat="47.0235" lon="8.94584">
        <ele>856</ele>
        <time>2021-08-02T12:10:16.692Z</time>
      </trkpt>
      <trkpt lat="47.02351" lon="8.94584">
        <ele>856</ele>
        <time>2021-08-02T12:10:17.692Z</time>
      </trkpt>
      <trkpt lat="47.02351" lon="8.94584">
        <ele>855</ele>
        <time>2021-08-02T12:10:18.692Z</time>
      </trkpt>
      <trkpt lat="47.0235" lon="8.94583">
        <ele>855</ele>
        <time>2021-08-02T12:10:19.692Z</time>
      </trkpt>
      <trkpt lat="47.02349" lon="8.94583">
        <ele>855</ele>
        <time>2021-08-02T12:10:20.692Z</time>
      </trkpt>
      <trkpt lat="47.02349" lon="8.94582">
        <ele>856</ele>
        <time>2021-08-02T12:10:21.691Z</time>
      </trkpt>
      <trkpt lat="47.02348" lon="8.94581">
        <ele>856</ele>
        <time>2021-08-02T12:10:22.691Z</time>
      </trkpt>
      <trkpt lat="47.02348" lon="8.94581">
        <ele>856</ele>
        <time>2021-08-02T12:10:23.692Z</time>
      </trkpt>
      <trkpt lat="47.02347" lon="8.9458">
        <ele>857</ele>
        <time>2021-08-02T12:10:24.692Z</time>
      </trkpt>
      <trkpt lat="47.02347" lon="8.94581">
        <ele>857</ele>
        <time>2021-08-02T12:10:25.692Z</time>
      </trkpt>
      <trkpt lat="47.02346" lon="8.94582">
        <ele>857</ele>
        <time>2021-08-02T12:10:26.692Z</time>
      </trkpt>
      <trkpt lat="47.02347" lon="8.94582">
        <ele>857</ele>
        <time>2021-08-02T12:10:27.691Z</time>
      </trkpt>
      <trkpt lat="47.02346" lon="8.94582">
        <ele>857</ele>
        <time>2021-08-02T12:10:28.692Z</time>
      </trkpt>
      <trkpt lat="47.02347" lon="8.94585">
        <ele>850</ele>
        <time>2021-08-02T12:10:29.691Z</time>
      </trkpt>
      <trkpt lat="47.02348" lon="8.94585">
        <ele>849</ele>
        <time>2021-08-02T12:10:30.692Z</time>
      </trkpt>
      <trkpt lat="47.02348" lon="8.94584">
        <ele>849</ele>
        <time>2021-08-02T12:10:31.692Z</time>
      </trkpt>
      <trkpt lat="47.02348" lon="8.94583">
        <ele>849</ele>
        <time>2021-08-02T12:10:32.692Z</time>
      </trkpt>
      <trkpt lat="47.02348" lon="8.94582">
        <ele>849</ele>
        <time>2021-08-02T12:10:33.692Z</time>
      </trkpt>
      <trkpt lat="47.02348" lon="8.94582">
        <ele>848</ele>
        <time>2021-08-02T12:10:34.692Z</time>
      </trkpt>
      <trkpt lat="47.02348" lon="8.94582">
        <ele>848</ele>
        <time>2021-08-02T12:10:35.692Z</time>
      </trkpt>
      <trkpt lat="47.02348" lon="8.94582">
        <ele>842</ele>
        <time>2021-08-02T12:10:36.692Z</time>
      </trkpt>
      <trkpt lat="47.02348" lon="8.94582">
        <ele>842</ele>
        <time>2021-08-02T12:10:37.693Z</time>
      </trkpt>
      <trkpt lat="47.02349" lon="8.94583">
        <ele>842</ele>
        <time>2021-08-02T12:10:38.693Z</time>
      </trkpt>
      <trkpt lat="47.02351" lon="8.94584">
        <ele>843</ele>
        <time>2021-08-02T12:10:39.693Z</time>
      </trkpt>
      <trkpt lat="47.02352" lon="8.94585">
        <ele>844</ele>
        <time>2021-08-02T12:10:40.692Z</time>
      </trkpt>
      <trkpt lat="47.02353" lon="8.94585">
        <ele>845</ele>
        <time>2021-08-02T12:10:41.692Z</time>
      </trkpt>
      <trkpt lat="47.02353" lon="8.94585">
        <ele>846</ele>
        <time>2021-08-02T12:10:42.693Z</time>
      </trkpt>
      <trkpt lat="47.02352" lon="8.94583">
        <ele>849</ele>
        <time>2021-08-02T12:10:43.694Z</time>
      </trkpt>
      <trkpt lat="47.02352" lon="8.94584">
        <ele>849</ele>
        <time>2021-08-02T12:10:44.693Z</time>
      </trkpt>
      <trkpt lat="47.02351" lon="8.94583">
        <ele>849</ele>
        <time>2021-08-02T12:10:45.695Z</time>
      </trkpt>
      <trkpt lat="47.02351" lon="8.94583">
        <ele>849</ele>
        <time>2021-08-02T12:10:52.680Z</time>
      </trkpt>
      <trkpt lat="47.02351" lon="8.94583">
        <ele>849</ele>
        <time>2021-08-02T12:10:53.679Z</time>
      </trkpt>
      <trkpt lat="47.0235" lon="8.94582">
        <ele>846</ele>
        <time>2021-08-02T12:10:54.680Z</time>
      </trkpt>
      <trkpt lat="47.0235" lon="8.94582">
        <ele>842</ele>
        <time>2021-08-02T12:10:55.680Z</time>
      </trkpt>
      <trkpt lat="47.0235" lon="8.94582">
        <ele>842</ele>
        <time>2021-08-02T12:10:56.680Z</time>
      </trkpt>
      <trkpt lat="47.0235" lon="8.94581">
        <ele>842</ele>
        <time>2021-08-02T12:10:57.680Z</time>
      </trkpt>
      <trkpt lat="47.0235" lon="8.94581">
        <ele>843</ele>
        <time>2021-08-02T12:10:58.680Z</time>
      </trkpt>
      <trkpt lat="47.0235" lon="8.9458">
        <ele>844</ele>
        <time>2021-08-02T12:10:59.680Z</time>
      </trkpt>
      <trkpt lat="47.0235" lon="8.9458">
        <ele>845</ele>
        <time>2021-08-02T12:11:00.680Z</time>
      </trkpt>
      <trkpt lat="47.0235" lon="8.9458">
        <ele>844</ele>
        <time>2021-08-02T12:11:01.679Z</time>
      </trkpt>
      <trkpt lat="47.0235" lon="8.9458">
        <ele>844</ele>
        <time>2021-08-02T12:11:02.680Z</time>
      </trkpt>
      <trkpt lat="47.0235" lon="8.9458">
        <ele>844</ele>
        <time>2021-08-02T12:11:03.680Z</time>
      </trkpt>
      <trkpt lat="47.02351" lon="8.94579">
        <ele>844</ele>
        <time>2021-08-02T12:11:04.680Z</time>
      </trkpt>
      <trkpt lat="47.02351" lon="8.94578">
        <ele>845</ele>
        <time>2021-08-02T12:11:05.680Z</time>
      </trkpt>
      <trkpt lat="47.02349" lon="8.94578">
        <ele>846</ele>
        <time>2021-08-02T12:11:06.680Z</time>
      </trkpt>
      <trkpt lat="47.02349" lon="8.94579">
        <ele>845</ele>
        <time>2021-08-02T12:11:07.680Z</time>
      </trkpt>
      <trkpt lat="47.0235" lon="8.94579">
        <ele>845</ele>
        <time>2021-08-02T12:11:08.680Z</time>
      </trkpt>
      <trkpt lat="47.0235" lon="8.9458">
        <ele>845</ele>
        <time>2021-08-02T12:11:09.681Z</time>
      </trkpt>
      <trkpt lat="47.0235" lon="8.94585">
        <ele>849</ele>
        <time>2021-08-02T12:11:10.681Z</time>
      </trkpt>
      <trkpt lat="47.02351" lon="8.94584">
        <ele>849</ele>
        <time>2021-08-02T12:11:11.681Z</time>
      </trkpt>
      <trkpt lat="47.02348" lon="8.94578">
        <ele>845</ele>
        <time>2021-08-02T12:11:12.681Z</time>
      </trkpt>
      <trkpt lat="47.02348" lon="8.94577">
        <ele>845</ele>
        <time>2021-08-02T12:11:13.681Z</time>
      </trkpt>
      <trkpt lat="47.02347" lon="8.94575">
        <ele>845</ele>
        <time>2021-08-02T12:11:14.680Z</time>
      </trkpt>
      <trkpt lat="47.02347" lon="8.94572">
        <ele>847</ele>
        <time>2021-08-02T12:11:15.680Z</time>
      </trkpt>
      <trkpt lat="47.02348" lon="8.94572">
        <ele>847</ele>
        <time>2021-08-02T12:11:16.681Z</time>
      </trkpt>
      <trkpt lat="47.02351" lon="8.94582">
        <ele>848</ele>
        <time>2021-08-02T12:11:20.681Z</time>
      </trkpt>
      <trkpt lat="47.02352" lon="8.94582">
        <ele>847</ele>
        <time>2021-08-02T12:11:21.681Z</time>
      </trkpt>
      <trkpt lat="47.02352" lon="8.94582">
        <ele>847</ele>
        <time>2021-08-02T12:11:22.680Z</time>
      </trkpt>
      <trkpt lat="47.02351" lon="8.94582">
        <ele>847</ele>
        <time>2021-08-02T12:11:23.681Z</time>
      </trkpt>
      <trkpt lat="47.02351" lon="8.94582">
        <ele>846</ele>
        <time>2021-08-02T12:11:24.680Z</time>
      </trkpt>
      <trkpt lat="47.0235" lon="8.94582">
        <ele>846</ele>
        <time>2021-08-02T12:11:25.680Z</time>
      </trkpt>
      <trkpt lat="47.02348" lon="8.94585">
        <ele>845</ele>
        <time>2021-08-02T12:11:26.681Z</time>
      </trkpt>
      <trkpt lat="47.02349" lon="8.94584">
        <ele>845</ele>
        <time>2021-08-02T12:11:27.682Z</time>
      </trkpt>
      <trkpt lat="47.02349" lon="8.94585">
        <ele>846</ele>
        <time>2021-08-02T12:11:28.681Z</time>
      </trkpt>
      <trkpt lat="47.02349" lon="8.94586">
        <ele>846</ele>
        <time>2021-08-02T12:11:29.682Z</time>
      </trkpt>
      <trkpt lat="47.02349" lon="8.94586">
        <ele>847</ele>
        <time>2021-08-02T12:11:30.682Z</time>
      </trkpt>
      <trkpt lat="47.0235" lon="8.94586">
        <ele>847</ele>
        <time>2021-08-02T12:11:31.682Z</time>
      </trkpt>
      <trkpt lat="47.0235" lon="8.94586">
        <ele>848</ele>
        <time>2021-08-02T12:11:32.682Z</time>
      </trkpt>
      <trkpt lat="47.02352" lon="8.94586">
        <ele>849</ele>
        <time>2021-08-02T12:11:33.682Z</time>
      </trkpt>
      <trkpt lat="47.02355" lon="8.94587">
        <ele>854</ele>
        <time>2021-08-02T12:11:37.809Z</time>
      </trkpt>
      <trkpt lat="47.02356" lon="8.94587">
        <ele>854</ele>
        <time>2021-08-02T12:11:47.691Z</time>
      </trkpt>
      <trkpt lat="47.02356" lon="8.94587">
        <ele>854</ele>
        <time>2021-08-02T12:11:51.575Z</time>
      </trkpt>
      <trkpt lat="47.02355" lon="8.94586">
        <ele>853</ele>
        <time>2021-08-02T12:11:52.576Z</time>
      </trkpt>
      <trkpt lat="47.02355" lon="8.94586">
        <ele>852</ele>
        <time>2021-08-02T12:11:53.575Z</time>
      </trkpt>
      <trkpt lat="47.02355" lon="8.94586">
        <ele>852</ele>
        <time>2021-08-02T12:11:54.576Z</time>
      </trkpt>
      <trkpt lat="47.02354" lon="8.94586">
        <ele>851</ele>
        <time>2021-08-02T12:11:55.576Z</time>
      </trkpt>
      <trkpt lat="47.02353" lon="8.94586">
        <ele>850</ele>
        <time>2021-08-02T12:11:56.575Z</time>
      </trkpt>
      <trkpt lat="47.02354" lon="8.94587">
        <ele>848</ele>
        <time>2021-08-02T12:12:06.740Z</time>
      </trkpt>
      <trkpt lat="47.02354" lon="8.94587">
        <ele>848</ele>
        <time>2021-08-02T12:12:07.740Z</time>
      </trkpt>
      <trkpt lat="47.02354" lon="8.94587">
        <ele>848</ele>
        <time>2021-08-02T12:12:15.556Z</time>
      </trkpt>
      <trkpt lat="47.02353" lon="8.94587">
        <ele>847</ele>
        <time>2021-08-02T12:12:16.555Z</time>
      </trkpt>
      <trkpt lat="47.02352" lon="8.94585">
        <ele>846</ele>
        <time>2021-08-02T12:12:28.428Z</time>
      </trkpt>
      <trkpt lat="47.02352" lon="8.94585">
        <ele>846</ele>
        <time>2021-08-02T12:12:29.428Z</time>
      </trkpt>
      <trkpt lat="47.02352" lon="8.94585">
        <ele>846</ele>
        <time>2021-08-02T12:12:30.428Z</time>
      </trkpt>
      <trkpt lat="47.02352" lon="8.94585">
        <ele>846</ele>
        <time>2021-08-02T12:12:31.429Z</time>
      </trkpt>
      <trkpt lat="47.02352" lon="8.94586">
        <ele>845</ele>
        <time>2021-08-02T12:12:32.428Z</time>
      </trkpt>
      <trkpt lat="47.02352" lon="8.94586">
        <ele>845</ele>
        <time>2021-08-02T12:12:33.429Z</time>
      </trkpt>
      <trkpt lat="47.02353" lon="8.94586">
        <ele>847</ele>
        <time>2021-08-02T12:12:38.448Z</time>
      </trkpt>
      <trkpt lat="47.02353" lon="8.94587">
        <ele>847</ele>
        <time>2021-08-02T12:12:40.322Z</time>
      </trkpt>
      <trkpt lat="47.02353" lon="8.94587">
        <ele>847</ele>
        <time>2021-08-02T12:12:41.322Z</time>
      </trkpt>
      <trkpt lat="47.02348" lon="8.94581">
        <ele>859</ele>
        <time>2021-08-02T12:12:51.179Z</time>
      </trkpt>
      <trkpt lat="47.02348" lon="8.94581">
        <ele>859</ele>
        <time>2021-08-02T12:12:52.179Z</time>
      </trkpt>
      <trkpt lat="47.02349" lon="8.94582">
        <ele>855</ele>
        <time>2021-08-02T12:12:53.179Z</time>
      </trkpt>
      <trkpt lat="47.02349" lon="8.94583">
        <ele>855</ele>
        <time>2021-08-02T12:12:58.196Z</time>
      </trkpt>
      <trkpt lat="47.02349" lon="8.94585">
        <ele>855</ele>
        <time>2021-08-02T12:12:59.196Z</time>
      </trkpt>
      <trkpt lat="47.02349" lon="8.94585">
        <ele>855</ele>
        <time>2021-08-02T12:13:00.196Z</time>
      </trkpt>
      <trkpt lat="47.02349" lon="8.94586">
        <ele>855</ele>
        <time>2021-08-02T12:13:08.308Z</time>
      </trkpt>
      <trkpt lat="47.02349" lon="8.94586">
        <ele>855</ele>
        <time>2021-08-02T12:13:09.307Z</time>
      </trkpt>
      <trkpt lat="47.02349" lon="8.94586">
        <ele>855</ele>
        <time>2021-08-02T12:13:10.307Z</time>
      </trkpt>
      <trkpt lat="47.02348" lon="8.94588">
        <ele>850</ele>
        <time>2021-08-02T12:13:11.307Z</time>
      </trkpt>
      <trkpt lat="47.02348" lon="8.94588">
        <ele>850</ele>
        <time>2021-08-02T12:13:12.308Z</time>
      </trkpt>
      <trkpt lat="47.02348" lon="8.94588">
        <ele>850</ele>
        <time>2021-08-02T12:13:13.308Z</time>
      </trkpt>
      <trkpt lat="47.02349" lon="8.94587">
        <ele>850</ele>
        <time>2021-08-02T12:13:14.308Z</time>
      </trkpt>
      <trkpt lat="47.02348" lon="8.94587">
        <ele>850</ele>
        <time>2021-08-02T12:13:15.307Z</time>
      </trkpt>
      <trkpt lat="47.02348" lon="8.94586">
        <ele>850</ele>
        <time>2021-08-02T12:13:16.308Z</time>
      </trkpt>
      <trkpt lat="47.02347" lon="8.94584">
        <ele>850</ele>
        <time>2021-08-02T12:13:17.307Z</time>
      </trkpt>
      <trkpt lat="47.02347" lon="8.94584">
        <ele>850</ele>
        <time>2021-08-02T12:13:18.308Z</time>
      </trkpt>
      <trkpt lat="47.02347" lon="8.94581">
        <ele>852</ele>
        <time>2021-08-02T12:13:19.307Z</time>
      </trkpt>
      <trkpt lat="47.02347" lon="8.9458">
        <ele>853</ele>
        <time>2021-08-02T12:13:21.346Z</time>
      </trkpt>
      <trkpt lat="47.02348" lon="8.94579">
        <ele>853</ele>
        <time>2021-08-02T12:13:22.346Z</time>
      </trkpt>
      <trkpt lat="47.02347" lon="8.94578">
        <ele>853</ele>
        <time>2021-08-02T12:13:23.346Z</time>
      </trkpt>
      <trkpt lat="47.02346" lon="8.94577">
        <ele>853</ele>
        <time>2021-08-02T12:13:26.449Z</time>
      </trkpt>
      <trkpt lat="47.02347" lon="8.94576">
        <ele>853</ele>
        <time>2021-08-02T12:13:27.450Z</time>
      </trkpt>
      <trkpt lat="47.02347" lon="8.94576">
        <ele>853</ele>
        <time>2021-08-02T12:13:28.449Z</time>
      </trkpt>
      <trkpt lat="47.02348" lon="8.94576">
        <ele>853</ele>
        <time>2021-08-02T12:13:29.449Z</time>
      </trkpt>
      <trkpt lat="47.02348" lon="8.94575">
        <ele>853</ele>
        <time>2021-08-02T12:13:30.449Z</time>
      </trkpt>
      <trkpt lat="47.02348" lon="8.94574">
        <ele>853</ele>
        <time>2021-08-02T12:13:32.547Z</time>
      </trkpt>
      <trkpt lat="47.02348" lon="8.94573">
        <ele>853</ele>
        <time>2021-08-02T12:13:33.548Z</time>
      </trkpt>
      <trkpt lat="47.02347" lon="8.94572">
        <ele>853</ele>
        <time>2021-08-02T12:13:41.452Z</time>
      </trkpt>
      <trkpt lat="47.02346" lon="8.94571">
        <ele>853</ele>
        <time>2021-08-02T12:13:42.452Z</time>
      </trkpt>
      <trkpt lat="47.02346" lon="8.94572">
        <ele>853</ele>
        <time>2021-08-02T12:13:43.453Z</time>
      </trkpt>
      <trkpt lat="47.02346" lon="8.94572">
        <ele>853</ele>
        <time>2021-08-02T12:13:51.558Z</time>
      </trkpt>
      <trkpt lat="47.02343" lon="8.94572">
        <ele>854</ele>
        <time>2021-08-02T12:13:52.560Z</time>
      </trkpt>
      <trkpt lat="47.02342" lon="8.94573">
        <ele>854</ele>
        <time>2021-08-02T12:13:53.559Z</time>
      </trkpt>
      <trkpt lat="47.02342" lon="8.94574">
        <ele>854</ele>
        <time>2021-08-02T12:13:54.559Z</time>
      </trkpt>
      <trkpt lat="47.02342" lon="8.94575">
        <ele>855</ele>
        <time>2021-08-02T12:13:55.560Z</time>
      </trkpt>
      <trkpt lat="47.02342" lon="8.94575">
        <ele>855</ele>
        <time>2021-08-02T12:13:56.560Z</time>
      </trkpt>
      <trkpt lat="47.02344" lon="8.94579">
        <ele>853</ele>
        <time>2021-08-02T12:14:01.600Z</time>
      </trkpt>
      <trkpt lat="47.02344" lon="8.94579">
        <ele>853</ele>
        <time>2021-08-02T12:14:02.601Z</time>
      </trkpt>
      <trkpt lat="47.02344" lon="8.9458">
        <ele>852</ele>
        <time>2021-08-02T12:14:03.600Z</time>
      </trkpt>
      <trkpt lat="47.02345" lon="8.94585">
        <ele>848</ele>
        <time>2021-08-02T12:14:04.600Z</time>
      </trkpt>
      <trkpt lat="47.02345" lon="8.94585">
        <ele>849</ele>
        <time>2021-08-02T12:14:05.602Z</time>
      </trkpt>
      <trkpt lat="47.02346" lon="8.94585">
        <ele>849</ele>
        <time>2021-08-02T12:14:06.602Z</time>
      </trkpt>
      <trkpt lat="47.02346" lon="8.94585">
        <ele>849</ele>
        <time>2021-08-02T12:14:07.601Z</time>
      </trkpt>
      <trkpt lat="47.02347" lon="8.94586">
        <ele>850</ele>
        <time>2021-08-02T12:14:08.601Z</time>
      </trkpt>
      <trkpt lat="47.02347" lon="8.94586">
        <ele>850</ele>
        <time>2021-08-02T12:14:09.602Z</time>
      </trkpt>
      <trkpt lat="47.02344" lon="8.94588">
        <ele>854</ele>
        <time>2021-08-02T12:14:10.602Z</time>
      </trkpt>
      <trkpt lat="47.02345" lon="8.94589">
        <ele>855</ele>
        <time>2021-08-02T12:14:11.602Z</time>
      </trkpt>
      <trkpt lat="47.02345" lon="8.94589">
        <ele>856</ele>
        <time>2021-08-02T12:14:12.602Z</time>
      </trkpt>
      <trkpt lat="47.02346" lon="8.94591">
        <ele>858</ele>
        <time>2021-08-02T12:14:13.604Z</time>
      </trkpt>
      <trkpt lat="47.02346" lon="8.94591">
        <ele>859</ele>
        <time>2021-08-02T12:14:17.723Z</time>
      </trkpt>
      <trkpt lat="47.02346" lon="8.94592">
        <ele>860</ele>
        <time>2021-08-02T12:14:18.723Z</time>
      </trkpt>
      <trkpt lat="47.02347" lon="8.94593">
        <ele>860</ele>
        <time>2021-08-02T12:14:19.723Z</time>
      </trkpt>
      <trkpt lat="47.02346" lon="8.94593">
        <ele>860</ele>
        <time>2021-08-02T12:14:20.723Z</time>
      </trkpt>
      <trkpt lat="47.02345" lon="8.94593">
        <ele>861</ele>
        <time>2021-08-02T12:14:21.723Z</time>
      </trkpt>
      <trkpt lat="47.02345" lon="8.94593">
        <ele>861</ele>
        <time>2021-08-02T12:14:22.723Z</time>
      </trkpt>
      <trkpt lat="47.02344" lon="8.94592">
        <ele>861</ele>
        <time>2021-08-02T12:14:23.723Z</time>
      </trkpt>
      <trkpt lat="47.02343" lon="8.94591">
        <ele>861</ele>
        <time>2021-08-02T12:14:24.724Z</time>
      </trkpt>
      <trkpt lat="47.02343" lon="8.9459">
        <ele>861</ele>
        <time>2021-08-02T12:14:25.723Z</time>
      </trkpt>
      <trkpt lat="47.02342" lon="8.9459">
        <ele>861</ele>
        <time>2021-08-02T12:14:26.723Z</time>
      </trkpt>
      <trkpt lat="47.02342" lon="8.9459">
        <ele>861</ele>
        <time>2021-08-02T12:14:27.723Z</time>
      </trkpt>
      <trkpt lat="47.02343" lon="8.94591">
        <ele>861</ele>
        <time>2021-08-02T12:14:28.723Z</time>
      </trkpt>
      <trkpt lat="47.02343" lon="8.9459">
        <ele>854</ele>
        <time>2021-08-02T12:14:31.665Z</time>
      </trkpt>
      <trkpt lat="47.02342" lon="8.9459">
        <ele>853</ele>
        <time>2021-08-02T12:14:32.665Z</time>
      </trkpt>
      <trkpt lat="47.02341" lon="8.9459">
        <ele>853</ele>
        <time>2021-08-02T12:14:33.665Z</time>
      </trkpt>
      <trkpt lat="47.02341" lon="8.9459">
        <ele>852</ele>
        <time>2021-08-02T12:14:34.665Z</time>
      </trkpt>
      <trkpt lat="47.02342" lon="8.9459">
        <ele>852</ele>
        <time>2021-08-02T12:14:35.665Z</time>
      </trkpt>
      <trkpt lat="47.02343" lon="8.9459">
        <ele>852</ele>
        <time>2021-08-02T12:14:36.665Z</time>
      </trkpt>
      <trkpt lat="47.02343" lon="8.9459">
        <ele>851</ele>
        <time>2021-08-02T12:14:40.875Z</time>
      </trkpt>
      <trkpt lat="47.02344" lon="8.94589">
        <ele>851</ele>
        <time>2021-08-02T12:14:41.874Z</time>
      </trkpt>
      <trkpt lat="47.02344" lon="8.94589">
        <ele>852</ele>
        <time>2021-08-02T12:14:42.875Z</time>
      </trkpt>
      <trkpt lat="47.02344" lon="8.9459">
        <ele>852</ele>
        <time>2021-08-02T12:14:43.874Z</time>
      </trkpt>
      <trkpt lat="47.02345" lon="8.9459">
        <ele>852</ele>
        <time>2021-08-02T12:14:44.875Z</time>
      </trkpt>
      <trkpt lat="47.02346" lon="8.9459">
        <ele>852</ele>
        <time>2021-08-02T12:14:45.874Z</time>
      </trkpt>
      <trkpt lat="47.02346" lon="8.9459">
        <ele>852</ele>
        <time>2021-08-02T12:14:46.875Z</time>
      </trkpt>
      <trkpt lat="47.02345" lon="8.9459">
        <ele>852</ele>
        <time>2021-08-02T12:14:47.875Z</time>
      </trkpt>
      <trkpt lat="47.02345" lon="8.94591">
        <ele>851</ele>
        <time>2021-08-02T12:14:48.875Z</time>
      </trkpt>
      <trkpt lat="47.02345" lon="8.9459">
        <ele>851</ele>
        <time>2021-08-02T12:14:49.875Z</time>
      </trkpt>
      <trkpt lat="47.02344" lon="8.94588">
        <ele>851</ele>
        <time>2021-08-02T12:14:50.875Z</time>
      </trkpt>
      <trkpt lat="47.02343" lon="8.94585">
        <ele>851</ele>
        <time>2021-08-02T12:14:51.875Z</time>
      </trkpt>
      <trkpt lat="47.02341" lon="8.94583">
        <ele>851</ele>
        <time>2021-08-02T12:14:52.875Z</time>
      </trkpt>
      <trkpt lat="47.02342" lon="8.94582">
        <ele>851</ele>
        <time>2021-08-02T12:14:53.874Z</time>
      </trkpt>
      <trkpt lat="47.02342" lon="8.94581">
        <ele>851</ele>
        <time>2021-08-02T12:14:54.875Z</time>
      </trkpt>
      <trkpt lat="47.02342" lon="8.9458">
        <ele>851</ele>
        <time>2021-08-02T12:14:55.875Z</time>
      </trkpt>
      <trkpt lat="47.02343" lon="8.9458">
        <ele>851</ele>
        <time>2021-08-02T12:14:56.874Z</time>
      </trkpt>
      <trkpt lat="47.02344" lon="8.94581">
        <ele>851</ele>
        <time>2021-08-02T12:14:57.874Z</time>
      </trkpt>
      <trkpt lat="47.02344" lon="8.94581">
        <ele>851</ele>
        <time>2021-08-02T12:14:58.875Z</time>
      </trkpt>
      <trkpt lat="47.02344" lon="8.94581">
        <ele>852</ele>
        <time>2021-08-02T12:14:59.875Z</time>
      </trkpt>
      <trkpt lat="47.02344" lon="8.9458">
        <ele>852</ele>
        <time>2021-08-02T12:15:00.875Z</time>
      </trkpt>
      <trkpt lat="47.02344" lon="8.9458">
        <ele>852</ele>
        <time>2021-08-02T12:15:01.875Z</time>
      </trkpt>
      <trkpt lat="47.02343" lon="8.9458">
        <ele>852</ele>
        <time>2021-08-02T12:15:02.876Z</time>
      </trkpt>
      <trkpt lat="47.02343" lon="8.94579">
        <ele>852</ele>
        <time>2021-08-02T12:15:03.876Z</time>
      </trkpt>
      <trkpt lat="47.02343" lon="8.9458">
        <ele>852</ele>
        <time>2021-08-02T12:15:04.876Z</time>
      </trkpt>
      <trkpt lat="47.02343" lon="8.94579">
        <ele>852</ele>
        <time>2021-08-02T12:15:05.876Z</time>
      </trkpt>
      <trkpt lat="47.02343" lon="8.94579">
        <ele>852</ele>
        <time>2021-08-02T12:15:06.875Z</time>
      </trkpt>
      <trkpt lat="47.02351" lon="8.94586">
        <ele>855</ele>
        <time>2021-08-02T12:15:07.875Z</time>
      </trkpt>
      <trkpt lat="47.02351" lon="8.94585">
        <ele>856</ele>
        <time>2021-08-02T12:15:08.875Z</time>
      </trkpt>
      <trkpt lat="47.02354" lon="8.94587">
        <ele>857</ele>
        <time>2021-08-02T12:15:09.876Z</time>
      </trkpt>
      <trkpt lat="47.02355" lon="8.94589">
        <ele>858</ele>
        <time>2021-08-02T12:15:10.876Z</time>
      </trkpt>
      <trkpt lat="47.02356" lon="8.94591">
        <ele>858</ele>
        <time>2021-08-02T12:15:11.876Z</time>
      </trkpt>
      <trkpt lat="47.02358" lon="8.94593">
        <ele>859</ele>
        <time>2021-08-02T12:15:12.877Z</time>
      </trkpt>
      <trkpt lat="47.02359" lon="8.94595">
        <ele>861</ele>
        <time>2021-08-02T12:15:13.877Z</time>
      </trkpt>
      <trkpt lat="47.02359" lon="8.94594">
        <ele>861</ele>
        <time>2021-08-02T12:15:14.877Z</time>
      </trkpt>
      <trkpt lat="47.02359" lon="8.94594">
        <ele>862</ele>
        <time>2021-08-02T12:15:15.877Z</time>
      </trkpt>
      <trkpt lat="47.02359" lon="8.94593">
        <ele>862</ele>
        <time>2021-08-02T12:15:16.876Z</time>
      </trkpt>
      <trkpt lat="47.02359" lon="8.94592">
        <ele>862</ele>
        <time>2021-08-02T12:15:17.876Z</time>
      </trkpt>
      <trkpt lat="47.02359" lon="8.94591">
        <ele>862</ele>
        <time>2021-08-02T12:15:18.876Z</time>
      </trkpt>
      <trkpt lat="47.02359" lon="8.9459">
        <ele>861</ele>
        <time>2021-08-02T12:15:20.927Z</time>
      </trkpt>
      <trkpt lat="47.0236" lon="8.94591">
        <ele>861</ele>
        <time>2021-08-02T12:15:21.927Z</time>
      </trkpt>
      <trkpt lat="47.0236" lon="8.94592">
        <ele>861</ele>
        <time>2021-08-02T12:15:22.927Z</time>
      </trkpt>
      <trkpt lat="47.0236" lon="8.94592">
        <ele>861</ele>
        <time>2021-08-02T12:15:23.927Z</time>
      </trkpt>
      <trkpt lat="47.0236" lon="8.94593">
        <ele>860</ele>
        <time>2021-08-02T12:15:24.927Z</time>
      </trkpt>
      <trkpt lat="47.02361" lon="8.94592">
        <ele>859</ele>
        <time>2021-08-02T12:15:25.927Z</time>
      </trkpt>
      <trkpt lat="47.02361" lon="8.94591">
        <ele>858</ele>
        <time>2021-08-02T12:15:30.953Z</time>
      </trkpt>
      <trkpt lat="47.02361" lon="8.94591">
        <ele>858</ele>
        <time>2021-08-02T12:15:31.953Z</time>
      </trkpt>
      <trkpt lat="47.02359" lon="8.9459">
        <ele>858</ele>
        <time>2021-08-02T12:15:32.953Z</time>
      </trkpt>
      <trkpt lat="47.02359" lon="8.94589">
        <ele>858</ele>
        <time>2021-08-02T12:15:33.953Z</time>
      </trkpt>
      <trkpt lat="47.02359" lon="8.94589">
        <ele>858</ele>
        <time>2021-08-02T12:15:38.066Z</time>
      </trkpt>
      <trkpt lat="47.02358" lon="8.94589">
        <ele>858</ele>
        <time>2021-08-02T12:15:39.066Z</time>
      </trkpt>
      <trkpt lat="47.02359" lon="8.94589">
        <ele>859</ele>
        <time>2021-08-02T12:15:40.066Z</time>
      </trkpt>
      <trkpt lat="47.0236" lon="8.9459">
        <ele>859</ele>
        <time>2021-08-02T12:15:42.218Z</time>
      </trkpt>
      <trkpt lat="47.0236" lon="8.9459">
        <ele>859</ele>
        <time>2021-08-02T12:15:43.218Z</time>
      </trkpt>
      <trkpt lat="47.02359" lon="8.94589">
        <ele>860</ele>
        <time>2021-08-02T12:15:44.219Z</time>
      </trkpt>
      <trkpt lat="47.02359" lon="8.94589">
        <ele>860</ele>
        <time>2021-08-02T12:15:45.218Z</time>
      </trkpt>
      <trkpt lat="47.02359" lon="8.94589">
        <ele>860</ele>
        <time>2021-08-02T12:15:46.218Z</time>
      </trkpt>
      <trkpt lat="47.02358" lon="8.94589">
        <ele>860</ele>
        <time>2021-08-02T12:15:47.218Z</time>
      </trkpt>
      <trkpt lat="47.02354" lon="8.94587">
        <ele>854</ele>
        <time>2021-08-02T12:15:51.352Z</time>
      </trkpt>
      <trkpt lat="47.02354" lon="8.94587">
        <ele>854</ele>
        <time>2021-08-02T12:15:52.351Z</time>
      </trkpt>
      <trkpt lat="47.02354" lon="8.94588">
        <ele>854</ele>
        <time>2021-08-02T12:15:53.351Z</time>
      </trkpt>
      <trkpt lat="47.02354" lon="8.94586">
        <ele>851</ele>
        <time>2021-08-02T12:15:54.352Z</time>
      </trkpt>
      <trkpt lat="47.02354" lon="8.94586">
        <ele>851</ele>
        <time>2021-08-02T12:15:55.352Z</time>
      </trkpt>
      <trkpt lat="47.02354" lon="8.94586">
        <ele>853</ele>
        <time>2021-08-02T12:15:56.353Z</time>
      </trkpt>
      <trkpt lat="47.02354" lon="8.94586">
        <ele>854</ele>
        <time>2021-08-02T12:15:57.353Z</time>
      </trkpt>
      <trkpt lat="47.02354" lon="8.94585">
        <ele>854</ele>
        <time>2021-08-02T12:15:58.352Z</time>
      </trkpt>
      <trkpt lat="47.02351" lon="8.94578">
        <ele>856</ele>
        <time>2021-08-02T12:15:59.353Z</time>
      </trkpt>
      <trkpt lat="47.02351" lon="8.94576">
        <ele>856</ele>
        <time>2021-08-02T12:16:00.353Z</time>
      </trkpt>
      <trkpt lat="47.0235" lon="8.94575">
        <ele>856</ele>
        <time>2021-08-02T12:16:01.352Z</time>
      </trkpt>
      <trkpt lat="47.0235" lon="8.94574">
        <ele>857</ele>
        <time>2021-08-02T12:16:02.353Z</time>
      </trkpt>
      <trkpt lat="47.02349" lon="8.94573">
        <ele>854</ele>
        <time>2021-08-02T12:16:03.352Z</time>
      </trkpt>
      <trkpt lat="47.02349" lon="8.94574">
        <ele>854</ele>
        <time>2021-08-02T12:16:04.352Z</time>
      </trkpt>
      <trkpt lat="47.02349" lon="8.94575">
        <ele>854</ele>
        <time>2021-08-02T12:16:05.353Z</time>
      </trkpt>
      <trkpt lat="47.02349" lon="8.94575">
        <ele>855</ele>
        <time>2021-08-02T12:16:06.353Z</time>
      </trkpt>
      <trkpt lat="47.02349" lon="8.94575">
        <ele>855</ele>
        <time>2021-08-02T12:16:07.353Z</time>
      </trkpt>
      <trkpt lat="47.0235" lon="8.94575">
        <ele>855</ele>
        <time>2021-08-02T12:16:08.353Z</time>
      </trkpt>
      <trkpt lat="47.02351" lon="8.94577">
        <ele>855</ele>
        <time>2021-08-02T12:16:09.353Z</time>
      </trkpt>
      <trkpt lat="47.02352" lon="8.94577">
        <ele>856</ele>
        <time>2021-08-02T12:16:10.352Z</time>
      </trkpt>
      <trkpt lat="47.02353" lon="8.94578">
        <ele>856</ele>
        <time>2021-08-02T12:16:11.352Z</time>
      </trkpt>
      <trkpt lat="47.02353" lon="8.94578">
        <ele>856</ele>
        <time>2021-08-02T12:16:12.353Z</time>
      </trkpt>
      <trkpt lat="47.02357" lon="8.94579">
        <ele>859</ele>
        <time>2021-08-02T12:16:13.354Z</time>
      </trkpt>
      <trkpt lat="47.02357" lon="8.94578">
        <ele>859</ele>
        <time>2021-08-02T12:16:14.353Z</time>
      </trkpt>
      <trkpt lat="47.02356" lon="8.94577">
        <ele>860</ele>
        <time>2021-08-02T12:16:15.353Z</time>
      </trkpt>
      <trkpt lat="47.02353" lon="8.94576">
        <ele>866</ele>
        <time>2021-08-02T12:16:16.355Z</time>
      </trkpt>
      <trkpt lat="47.02353" lon="8.94577">
        <ele>866</ele>
        <time>2021-08-02T12:16:17.354Z</time>
      </trkpt>
      <trkpt lat="47.02353" lon="8.94576">
        <ele>867</ele>
        <time>2021-08-02T12:16:18.354Z</time>
      </trkpt>
      <trkpt lat="47.02353" lon="8.94576">
        <ele>868</ele>
        <time>2021-08-02T12:16:19.354Z</time>
      </trkpt>
      <trkpt lat="47.02355" lon="8.94572">
        <ele>873</ele>
        <time>2021-08-02T12:16:20.355Z</time>
      </trkpt>
      <trkpt lat="47.02356" lon="8.94571">
        <ele>874</ele>
        <time>2021-08-02T12:16:21.354Z</time>
      </trkpt>
      <trkpt lat="47.02355" lon="8.94571">
        <ele>875</ele>
        <time>2021-08-02T12:16:24.431Z</time>
      </trkpt>
      <trkpt lat="47.02355" lon="8.94573">
        <ele>875</ele>
        <time>2021-08-02T12:16:25.430Z</time>
      </trkpt>
      <trkpt lat="47.02355" lon="8.94572">
        <ele>876</ele>
        <time>2021-08-02T12:16:26.430Z</time>
      </trkpt>
      <trkpt lat="47.02351" lon="8.94578">
        <ele>876</ele>
        <time>2021-08-02T12:16:27.432Z</time>
      </trkpt>
      <trkpt lat="47.02351" lon="8.94577">
        <ele>876</ele>
        <time>2021-08-02T12:16:28.432Z</time>
      </trkpt>
      <trkpt lat="47.02351" lon="8.94575">
        <ele>876</ele>
        <time>2021-08-02T12:16:29.431Z</time>
      </trkpt>
      <trkpt lat="47.02351" lon="8.9457">
        <ele>871</ele>
        <time>2021-08-02T12:16:30.432Z</time>
      </trkpt>
      <trkpt lat="47.02351" lon="8.9457">
        <ele>871</ele>
        <time>2021-08-02T12:16:31.432Z</time>
      </trkpt>
      <trkpt lat="47.02351" lon="8.9457">
        <ele>870</ele>
        <time>2021-08-02T12:16:32.431Z</time>
      </trkpt>
      <trkpt lat="47.02352" lon="8.9457">
        <ele>870</ele>
        <time>2021-08-02T12:16:33.431Z</time>
      </trkpt>
      <trkpt lat="47.02352" lon="8.94569">
        <ele>869</ele>
        <time>2021-08-02T12:16:34.432Z</time>
      </trkpt>
      <trkpt lat="47.02351" lon="8.94567">
        <ele>869</ele>
        <time>2021-08-02T12:16:35.432Z</time>
      </trkpt>
      <trkpt lat="47.0235" lon="8.94565">
        <ele>869</ele>
        <time>2021-08-02T12:16:36.431Z</time>
      </trkpt>
      <trkpt lat="47.0235" lon="8.94565">
        <ele>869</ele>
        <time>2021-08-02T12:16:37.432Z</time>
      </trkpt>
      <trkpt lat="47.02349" lon="8.94565">
        <ele>869</ele>
        <time>2021-08-02T12:16:38.431Z</time>
      </trkpt>
      <trkpt lat="47.02347" lon="8.94565">
        <ele>868</ele>
        <time>2021-08-02T12:16:39.432Z</time>
      </trkpt>
      <trkpt lat="47.02345" lon="8.94565">
        <ele>868</ele>
        <time>2021-08-02T12:16:40.432Z</time>
      </trkpt>
      <trkpt lat="47.02344" lon="8.94566">
        <ele>868</ele>
        <time>2021-08-02T12:16:41.432Z</time>
      </trkpt>
      <trkpt lat="47.02344" lon="8.94567">
        <ele>867</ele>
        <time>2021-08-02T12:16:42.431Z</time>
      </trkpt>
      <trkpt lat="47.02343" lon="8.94566">
        <ele>867</ele>
        <time>2021-08-02T12:16:43.432Z</time>
      </trkpt>
      <trkpt lat="47.02343" lon="8.94566">
        <ele>867</ele>
        <time>2021-08-02T12:16:44.431Z</time>
      </trkpt>
      <trkpt lat="47.02343" lon="8.94567">
        <ele>866</ele>
        <time>2021-08-02T12:16:45.432Z</time>
      </trkpt>
      <trkpt lat="47.02344" lon="8.94568">
        <ele>866</ele>
        <time>2021-08-02T12:16:46.432Z</time>
      </trkpt>
      <trkpt lat="47.02348" lon="8.94579">
        <ele>860</ele>
        <time>2021-08-02T12:16:47.431Z</time>
      </trkpt>
      <trkpt lat="47.02347" lon="8.9458">
        <ele>860</ele>
        <time>2021-08-02T12:16:48.432Z</time>
      </trkpt>
      <trkpt lat="47.02346" lon="8.9458">
        <ele>860</ele>
        <time>2021-08-02T12:16:49.431Z</time>
      </trkpt>
      <trkpt lat="47.02347" lon="8.94581">
        <ele>861</ele>
        <time>2021-08-02T12:16:50.431Z</time>
      </trkpt>
      <trkpt lat="47.02347" lon="8.94583">
        <ele>861</ele>
        <time>2021-08-02T12:16:51.431Z</time>
      </trkpt>
      <trkpt lat="47.02347" lon="8.94584">
        <ele>862</ele>
        <time>2021-08-02T12:16:52.432Z</time>
      </trkpt>
      <trkpt lat="47.02348" lon="8.94585">
        <ele>862</ele>
        <time>2021-08-02T12:16:53.432Z</time>
      </trkpt>
      <trkpt lat="47.0235" lon="8.94586">
        <ele>862</ele>
        <time>2021-08-02T12:16:54.432Z</time>
      </trkpt>
      <trkpt lat="47.02352" lon="8.94585">
        <ele>862</ele>
        <time>2021-08-02T12:16:55.432Z</time>
      </trkpt>
      <trkpt lat="47.02353" lon="8.94584">
        <ele>863</ele>
        <time>2021-08-02T12:16:56.432Z</time>
      </trkpt>
      <trkpt lat="47.02354" lon="8.94582">
        <ele>863</ele>
        <time>2021-08-02T12:16:57.431Z</time>
      </trkpt>
      <trkpt lat="47.02354" lon="8.9458">
        <ele>864</ele>
        <time>2021-08-02T12:16:58.432Z</time>
      </trkpt>
      <trkpt lat="47.02354" lon="8.94577">
        <ele>867</ele>
        <time>2021-08-02T12:16:59.431Z</time>
      </trkpt>
      <trkpt lat="47.02355" lon="8.94577">
        <ele>867</ele>
        <time>2021-08-02T12:17:00.432Z</time>
      </trkpt>
      <trkpt lat="47.02355" lon="8.94576">
        <ele>867</ele>
        <time>2021-08-02T12:17:01.431Z</time>
      </trkpt>
      <trkpt lat="47.02354" lon="8.94576">
        <ele>866</ele>
        <time>2021-08-02T12:17:02.432Z</time>
      </trkpt>
      <trkpt lat="47.02353" lon="8.94575">
        <ele>867</ele>
        <time>2021-08-02T12:17:03.431Z</time>
      </trkpt>
      <trkpt lat="47.02353" lon="8.94574">
        <ele>867</ele>
        <time>2021-08-02T12:17:04.432Z</time>
      </trkpt>
      <trkpt lat="47.02353" lon="8.94574">
        <ele>867</ele>
        <time>2021-08-02T12:17:05.431Z</time>
      </trkpt>
      <trkpt lat="47.02352" lon="8.94577">
        <ele>865</ele>
        <time>2021-08-02T12:17:06.431Z</time>
      </trkpt>
      <trkpt lat="47.02352" lon="8.94577">
        <ele>864</ele>
        <time>2021-08-02T12:17:07.431Z</time>
      </trkpt>
      <trkpt lat="47.02352" lon="8.94576">
        <ele>864</ele>
        <time>2021-08-02T12:17:08.431Z</time>
      </trkpt>
      <trkpt lat="47.02353" lon="8.94576">
        <ele>864</ele>
        <time>2021-08-02T12:17:09.431Z</time>
      </trkpt>
      <trkpt lat="47.02353" lon="8.94576">
        <ele>864</ele>
        <time>2021-08-02T12:17:10.431Z</time>
      </trkpt>
      <trkpt lat="47.02352" lon="8.94574">
        <ele>862</ele>
        <time>2021-08-02T12:17:11.432Z</time>
      </trkpt>
      <trkpt lat="47.02352" lon="8.94576">
        <ele>862</ele>
        <time>2021-08-02T12:17:12.432Z</time>
      </trkpt>
      <trkpt lat="47.02352" lon="8.94576">
        <ele>863</ele>
        <time>2021-08-02T12:17:13.432Z</time>
      </trkpt>
      <trkpt lat="47.02354" lon="8.94577">
        <ele>869</ele>
        <time>2021-08-02T12:17:14.432Z</time>
      </trkpt>
      <trkpt lat="47.02354" lon="8.94579">
        <ele>869</ele>
        <time>2021-08-02T12:17:15.432Z</time>
      </trkpt>
      <trkpt lat="47.02355" lon="8.94579">
        <ele>869</ele>
        <time>2021-08-02T12:17:16.433Z</time>
      </trkpt>
      <trkpt lat="47.02353" lon="8.94578">
        <ele>868</ele>
        <time>2021-08-02T12:17:17.432Z</time>
      </trkpt>
      <trkpt lat="47.02352" lon="8.94578">
        <ele>868</ele>
        <time>2021-08-02T12:17:18.432Z</time>
      </trkpt>
      <trkpt lat="47.02354" lon="8.94574">
        <ele>869</ele>
        <time>2021-08-02T12:17:19.433Z</time>
      </trkpt>
      <trkpt lat="47.02354" lon="8.94574">
        <ele>869</ele>
        <time>2021-08-02T12:17:20.434Z</time>
      </trkpt>
      <trkpt lat="47.02354" lon="8.94573">
        <ele>869</ele>
        <time>2021-08-02T12:17:21.433Z</time>
      </trkpt>
      <trkpt lat="47.02353" lon="8.94574">
        <ele>869</ele>
        <time>2021-08-02T12:17:22.434Z</time>
      </trkpt>
      <trkpt lat="47.02352" lon="8.94573">
        <ele>869</ele>
        <time>2021-08-02T12:17:23.435Z</time>
      </trkpt>
      <trkpt lat="47.02352" lon="8.94572">
        <ele>867</ele>
        <time>2021-08-02T12:17:24.435Z</time>
      </trkpt>
      <trkpt lat="47.02353" lon="8.94572">
        <ele>867</ele>
        <time>2021-08-02T12:17:25.435Z</time>
      </trkpt>
      <trkpt lat="47.02353" lon="8.94572">
        <ele>867</ele>
        <time>2021-08-02T12:17:26.434Z</time>
      </trkpt>
      <trkpt lat="47.02351" lon="8.94578">
        <ele>851</ele>
        <time>2021-08-02T12:17:27.435Z</time>
      </trkpt>
      <trkpt lat="47.02351" lon="8.94579">
        <ele>850</ele>
        <time>2021-08-02T12:17:28.435Z</time>
      </trkpt>
      <trkpt lat="47.02351" lon="8.94579">
        <ele>850</ele>
        <time>2021-08-02T12:17:29.434Z</time>
      </trkpt>
      <trkpt lat="47.02351" lon="8.94578">
        <ele>850</ele>
        <time>2021-08-02T12:17:30.435Z</time>
      </trkpt>
      <trkpt lat="47.02352" lon="8.94578">
        <ele>849</ele>
        <time>2021-08-02T12:17:31.435Z</time>
      </trkpt>
      <trkpt lat="47.02353" lon="8.94583">
        <ele>848</ele>
        <time>2021-08-02T12:17:32.437Z</time>
      </trkpt>
      <trkpt lat="47.02353" lon="8.94585">
        <ele>848</ele>
        <time>2021-08-02T12:17:33.437Z</time>
      </trkpt>
      <trkpt lat="47.02353" lon="8.94586">
        <ele>848</ele>
        <time>2021-08-02T12:17:34.436Z</time>
      </trkpt>
      <trkpt lat="47.02353" lon="8.94585">
        <ele>848</ele>
        <time>2021-08-02T12:17:35.436Z</time>
      </trkpt>
      <trkpt lat="47.02352" lon="8.94586">
        <ele>848</ele>
        <time>2021-08-02T12:17:36.436Z</time>
      </trkpt>
      <trkpt lat="47.02352" lon="8.94587">
        <ele>849</ele>
        <time>2021-08-02T12:17:37.436Z</time>
      </trkpt>
      <trkpt lat="47.02352" lon="8.94588">
        <ele>849</ele>
        <time>2021-08-02T12:17:38.436Z</time>
      </trkpt>
      <trkpt lat="47.02352" lon="8.9459">
        <ele>850</ele>
        <time>2021-08-02T12:17:39.436Z</time>
      </trkpt>
      <trkpt lat="47.02353" lon="8.94591">
        <ele>850</ele>
        <time>2021-08-02T12:17:40.436Z</time>
      </trkpt>
      <trkpt lat="47.02353" lon="8.94592">
        <ele>850</ele>
        <time>2021-08-02T12:17:41.436Z</time>
      </trkpt>
      <trkpt lat="47.02352" lon="8.9459">
        <ele>850</ele>
        <time>2021-08-02T12:17:42.437Z</time>
      </trkpt>
      <trkpt lat="47.02353" lon="8.9459">
        <ele>850</ele>
        <time>2021-08-02T12:17:43.437Z</time>
      </trkpt>
      <trkpt lat="47.02353" lon="8.9459">
        <ele>850</ele>
        <time>2021-08-02T12:17:44.436Z</time>
      </trkpt>
      <trkpt lat="47.02354" lon="8.9459">
        <ele>850</ele>
        <time>2021-08-02T12:17:45.437Z</time>
      </trkpt>
      <trkpt lat="47.02354" lon="8.94591">
        <ele>850</ele>
        <time>2021-08-02T12:17:46.437Z</time>
      </trkpt>
      <trkpt lat="47.02355" lon="8.94591">
        <ele>850</ele>
        <time>2021-08-02T12:17:47.437Z</time>
      </trkpt>
      <trkpt lat="47.02355" lon="8.94591">
        <ele>850</ele>
        <time>2021-08-02T12:17:48.436Z</time>
      </trkpt>
      <trkpt lat="47.02356" lon="8.94591">
        <ele>851</ele>
        <time>2021-08-02T12:17:49.436Z</time>
      </trkpt>
      <trkpt lat="47.02362" lon="8.9459">
        <ele>868</ele>
        <time>2021-08-02T12:17:50.437Z</time>
      </trkpt>
      <trkpt lat="47.02362" lon="8.94591">
        <ele>869</ele>
        <time>2021-08-02T12:17:51.437Z</time>
      </trkpt>
      <trkpt lat="47.02361" lon="8.94583">
        <ele>874</ele>
        <time>2021-08-02T12:17:52.437Z</time>
      </trkpt>
      <trkpt lat="47.02361" lon="8.94583">
        <ele>874</ele>
        <time>2021-08-02T12:17:53.437Z</time>
      </trkpt>
      <trkpt lat="47.0236" lon="8.94583">
        <ele>875</ele>
        <time>2021-08-02T12:17:54.438Z</time>
      </trkpt>
      <trkpt lat="47.02361" lon="8.94583">
        <ele>875</ele>
        <time>2021-08-02T12:17:55.438Z</time>
      </trkpt>
      <trkpt lat="47.02361" lon="8.94583">
        <ele>876</ele>
        <time>2021-08-02T12:18:02.569Z</time>
      </trkpt>
      <trkpt lat="47.0236" lon="8.94581">
        <ele>878</ele>
        <time>2021-08-02T12:18:03.569Z</time>
      </trkpt>
      <trkpt lat="47.0236" lon="8.9458">
        <ele>879</ele>
        <time>2021-08-02T12:18:04.569Z</time>
      </trkpt>
      <trkpt lat="47.0236" lon="8.9458">
        <ele>879</ele>
        <time>2021-08-02T12:18:05.569Z</time>
      </trkpt>
      <trkpt lat="47.0236" lon="8.9458">
        <ele>880</ele>
        <time>2021-08-02T12:18:06.569Z</time>
      </trkpt>
      <trkpt lat="47.0236" lon="8.94579">
        <ele>880</ele>
        <time>2021-08-02T12:18:07.569Z</time>
      </trkpt>
      <trkpt lat="47.0236" lon="8.94579">
        <ele>880</ele>
        <time>2021-08-02T12:18:08.569Z</time>
      </trkpt>
      <trkpt lat="47.0236" lon="8.94578">
        <ele>881</ele>
        <time>2021-08-02T12:18:09.569Z</time>
      </trkpt>
      <trkpt lat="47.02359" lon="8.94578">
        <ele>881</ele>
        <time>2021-08-02T12:18:10.569Z</time>
      </trkpt>
      <trkpt lat="47.02358" lon="8.94577">
        <ele>882</ele>
        <time>2021-08-02T13:07:33.374Z</time>
      </trkpt>
      <trkpt lat="47.02358" lon="8.94576">
        <ele>883</ele>
        <time>2021-08-02T13:07:34.374Z</time>
      </trkpt>
      <trkpt lat="47.02358" lon="8.94576">
        <ele>883</ele>
        <time>2021-08-02T13:07:35.374Z</time>
      </trkpt>
      <trkpt lat="47.02358" lon="8.94574">
        <ele>884</ele>
        <time>2021-08-02T13:07:36.374Z</time>
      </trkpt>
      <trkpt lat="47.02358" lon="8.94573">
        <ele>885</ele>
        <time>2021-08-02T13:07:37.374Z</time>
      </trkpt>
      <trkpt lat="47.02358" lon="8.94572">
        <ele>885</ele>
        <time>2021-08-02T13:07:38.374Z</time>
      </trkpt>
      <trkpt lat="47.02357" lon="8.94571">
        <ele>886</ele>
        <time>2021-08-02T13:07:39.374Z</time>
      </trkpt>
      <trkpt lat="47.02358" lon="8.9457">
        <ele>886</ele>
        <time>2021-08-02T13:07:40.374Z</time>
      </trkpt>
      <trkpt lat="47.02357" lon="8.94569">
        <ele>887</ele>
        <time>2021-08-02T13:07:41.374Z</time>
      </trkpt>
      <trkpt lat="47.02357" lon="8.94567">
        <ele>887</ele>
        <time>2021-08-02T13:07:42.374Z</time>
      </trkpt>
      <trkpt lat="47.02356" lon="8.94566">
        <ele>888</ele>
        <time>2021-08-02T13:07:43.374Z</time>
      </trkpt>
      <trkpt lat="47.02356" lon="8.94564">
        <ele>888</ele>
        <time>2021-08-02T13:07:44.374Z</time>
      </trkpt>
      <trkpt lat="47.02355" lon="8.94562">
        <ele>889</ele>
        <time>2021-08-02T13:07:45.374Z</time>
      </trkpt>
      <trkpt lat="47.02355" lon="8.94561">
        <ele>889</ele>
        <time>2021-08-02T13:07:46.374Z</time>
      </trkpt>
      <trkpt lat="47.02355" lon="8.9456">
        <ele>890</ele>
        <time>2021-08-02T13:07:47.374Z</time>
      </trkpt>
      <trkpt lat="47.02355" lon="8.94559">
        <ele>890</ele>
        <time>2021-08-02T13:07:48.374Z</time>
      </trkpt>
      <trkpt lat="47.02355" lon="8.94559">
        <ele>891</ele>
        <time>2021-08-02T13:07:49.374Z</time>
      </trkpt>
      <trkpt lat="47.02355" lon="8.94558">
        <ele>893</ele>
        <time>2021-08-02T13:07:50.374Z</time>
      </trkpt>
      <trkpt lat="47.02356" lon="8.94549">
        <ele>901</ele>
        <time>2021-08-02T13:07:51.375Z</time>
      </trkpt>
      <trkpt lat="47.02356" lon="8.94549">
        <ele>901</ele>
        <time>2021-08-02T13:07:52.374Z</time>
      </trkpt>
      <trkpt lat="47.02357" lon="8.94548">
        <ele>901</ele>
        <time>2021-08-02T13:07:53.375Z</time>
      </trkpt>
      <trkpt lat="47.02357" lon="8.94548">
        <ele>901</ele>
        <time>2021-08-02T13:07:54.375Z</time>
      </trkpt>
      <trkpt lat="47.02356" lon="8.94548">
        <ele>901</ele>
        <time>2021-08-02T13:07:55.374Z</time>
      </trkpt>
      <trkpt lat="47.02356" lon="8.94547">
        <ele>901</ele>
        <time>2021-08-02T13:07:56.374Z</time>
      </trkpt>
      <trkpt lat="47.02359" lon="8.94549">
        <ele>902</ele>
        <time>2021-08-02T13:07:57.375Z</time>
      </trkpt>
      <trkpt lat="47.02361" lon="8.9455">
        <ele>903</ele>
        <time>2021-08-02T13:07:58.375Z</time>
      </trkpt>
      <trkpt lat="47.0236" lon="8.94549">
        <ele>904</ele>
        <time>2021-08-02T13:07:59.376Z</time>
      </trkpt>
      <trkpt lat="47.0236" lon="8.94548">
        <ele>904</ele>
        <time>2021-08-02T13:08:00.375Z</time>
      </trkpt>
      <trkpt lat="47.02361" lon="8.94549">
        <ele>904</ele>
        <time>2021-08-02T13:08:01.375Z</time>
      </trkpt>
      <trkpt lat="47.02361" lon="8.94549">
        <ele>904</ele>
        <time>2021-08-02T13:08:02.375Z</time>
      </trkpt>
      <trkpt lat="47.02361" lon="8.94549">
        <ele>904</ele>
        <time>2021-08-02T13:08:03.375Z</time>
      </trkpt>
      <trkpt lat="47.02361" lon="8.94549">
        <ele>905</ele>
        <time>2021-08-02T13:08:04.375Z</time>
      </trkpt>
      <trkpt lat="47.02361" lon="8.94549">
        <ele>905</ele>
        <time>2021-08-02T13:08:05.375Z</time>
      </trkpt>
      <trkpt lat="47.02361" lon="8.94549">
        <ele>906</ele>
        <time>2021-08-02T13:08:06.377Z</time>
      </trkpt>
      <trkpt lat="47.02361" lon="8.94549">
        <ele>907</ele>
        <time>2021-08-02T13:08:07.376Z</time>
      </trkpt>
      <trkpt lat="47.02362" lon="8.94551">
        <ele>907</ele>
        <time>2021-08-02T13:08:10.461Z</time>
      </trkpt>
      <trkpt lat="47.02362" lon="8.94552">
        <ele>906</ele>
        <time>2021-08-02T13:08:11.461Z</time>
      </trkpt>
      <trkpt lat="47.02363" lon="8.94555">
        <ele>902</ele>
        <time>2021-08-02T13:08:12.461Z</time>
      </trkpt>
      <trkpt lat="47.02364" lon="8.94556">
        <ele>901</ele>
        <time>2021-08-02T13:08:20.492Z</time>
      </trkpt>
      <trkpt lat="47.02364" lon="8.94556">
        <ele>900</ele>
        <time>2021-08-02T13:08:21.492Z</time>
      </trkpt>
      <trkpt lat="47.02364" lon="8.94556">
        <ele>899</ele>
        <time>2021-08-02T13:08:22.493Z</time>
      </trkpt>
      <trkpt lat="47.02364" lon="8.94557">
        <ele>898</ele>
        <time>2021-08-02T13:08:23.492Z</time>
      </trkpt>
      <trkpt lat="47.02363" lon="8.94558">
        <ele>896</ele>
        <time>2021-08-02T13:08:24.493Z</time>
      </trkpt>
      <trkpt lat="47.02363" lon="8.94557">
        <ele>895</ele>
        <time>2021-08-02T13:08:25.493Z</time>
      </trkpt>
      <trkpt lat="47.02362" lon="8.94556">
        <ele>895</ele>
        <time>2021-08-02T13:08:29.573Z</time>
      </trkpt>
      <trkpt lat="47.02361" lon="8.94556">
        <ele>894</ele>
        <time>2021-08-02T13:08:30.573Z</time>
      </trkpt>
      <trkpt lat="47.02361" lon="8.94556">
        <ele>894</ele>
        <time>2021-08-02T13:08:31.573Z</time>
      </trkpt>
      <trkpt lat="47.0236" lon="8.94556">
        <ele>893</ele>
        <time>2021-08-02T13:08:32.574Z</time>
      </trkpt>
      <trkpt lat="47.0236" lon="8.9456">
        <ele>893</ele>
        <time>2021-08-02T13:08:33.574Z</time>
      </trkpt>
      <trkpt lat="47.02361" lon="8.94564">
        <ele>893</ele>
        <time>2021-08-02T13:08:34.574Z</time>
      </trkpt>
      <trkpt lat="47.02359" lon="8.94578">
        <ele>890</ele>
        <time>2021-08-02T13:08:35.574Z</time>
      </trkpt>
      <trkpt lat="47.02358" lon="8.94577">
        <ele>889</ele>
        <time>2021-08-02T13:08:36.574Z</time>
      </trkpt>
      <trkpt lat="47.02357" lon="8.94574">
        <ele>888</ele>
        <time>2021-08-02T13:08:37.574Z</time>
      </trkpt>
      <trkpt lat="47.02356" lon="8.94573">
        <ele>887</ele>
        <time>2021-08-02T13:08:38.574Z</time>
      </trkpt>
      <trkpt lat="47.02356" lon="8.94572">
        <ele>885</ele>
        <time>2021-08-02T13:08:39.574Z</time>
      </trkpt>
      <trkpt lat="47.02356" lon="8.94573">
        <ele>880</ele>
        <time>2021-08-02T13:08:40.574Z</time>
      </trkpt>
      <trkpt lat="47.02357" lon="8.94573">
        <ele>872</ele>
        <time>2021-08-02T13:08:41.573Z</time>
      </trkpt>
      <trkpt lat="47.02356" lon="8.94573">
        <ele>872</ele>
        <time>2021-08-02T13:08:42.575Z</time>
      </trkpt>
      <trkpt lat="47.02355" lon="8.94572">
        <ele>872</ele>
        <time>2021-08-02T13:08:43.575Z</time>
      </trkpt>
      <trkpt lat="47.02355" lon="8.94573">
        <ele>872</ele>
        <time>2021-08-02T13:08:44.574Z</time>
      </trkpt>
      <trkpt lat="47.02355" lon="8.94572">
        <ele>872</ele>
        <time>2021-08-02T13:08:45.574Z</time>
      </trkpt>
      <trkpt lat="47.02355" lon="8.94572">
        <ele>872</ele>
        <time>2021-08-02T13:08:46.575Z</time>
      </trkpt>
      <trkpt lat="47.02356" lon="8.94572">
        <ele>872</ele>
        <time>2021-08-02T13:08:47.575Z</time>
      </trkpt>
      <trkpt lat="47.02356" lon="8.94572">
        <ele>872</ele>
        <time>2021-08-02T13:08:48.575Z</time>
      </trkpt>
      <trkpt lat="47.02355" lon="8.9458">
        <ele>855</ele>
        <time>2021-08-02T13:08:49.576Z</time>
      </trkpt>
      <trkpt lat="47.02349" lon="8.94582">
        <ele>850</ele>
        <time>2021-08-02T13:08:50.576Z</time>
      </trkpt>
      <trkpt lat="47.0235" lon="8.94582">
        <ele>851</ele>
        <time>2021-08-02T13:08:51.575Z</time>
      </trkpt>
      <trkpt lat="47.02351" lon="8.9458">
        <ele>851</ele>
        <time>2021-08-02T13:08:52.575Z</time>
      </trkpt>
      <trkpt lat="47.02351" lon="8.94578">
        <ele>852</ele>
        <time>2021-08-02T13:08:53.576Z</time>
      </trkpt>
      <trkpt lat="47.02351" lon="8.94577">
        <ele>853</ele>
        <time>2021-08-02T13:08:58.616Z</time>
      </trkpt>
      <trkpt lat="47.02352" lon="8.94576">
        <ele>854</ele>
        <time>2021-08-02T13:08:59.617Z</time>
      </trkpt>
      <trkpt lat="47.02352" lon="8.94575">
        <ele>855</ele>
        <time>2021-08-02T13:09:00.616Z</time>
      </trkpt>
      <trkpt lat="47.02352" lon="8.94575">
        <ele>856</ele>
        <time>2021-08-02T13:09:01.617Z</time>
      </trkpt>
      <trkpt lat="47.02353" lon="8.94574">
        <ele>857</ele>
        <time>2021-08-02T13:09:02.616Z</time>
      </trkpt>
      <trkpt lat="47.02352" lon="8.94572">
        <ele>857</ele>
        <time>2021-08-02T13:09:03.616Z</time>
      </trkpt>
      <trkpt lat="47.02353" lon="8.94572">
        <ele>858</ele>
        <time>2021-08-02T13:09:04.617Z</time>
      </trkpt>
      <trkpt lat="47.02353" lon="8.94572">
        <ele>859</ele>
        <time>2021-08-02T13:09:05.617Z</time>
      </trkpt>
      <trkpt lat="47.02353" lon="8.94572">
        <ele>859</ele>
        <time>2021-08-02T13:09:06.617Z</time>
      </trkpt>
      <trkpt lat="47.02353" lon="8.94573">
        <ele>860</ele>
        <time>2021-08-02T13:09:07.617Z</time>
      </trkpt>
      <trkpt lat="47.02352" lon="8.94573">
        <ele>861</ele>
        <time>2021-08-02T13:09:08.617Z</time>
      </trkpt>
      <trkpt lat="47.02352" lon="8.94575">
        <ele>860</ele>
        <time>2021-08-02T13:09:09.617Z</time>
      </trkpt>
      <trkpt lat="47.02352" lon="8.94575">
        <ele>860</ele>
        <time>2021-08-02T13:09:10.617Z</time>
      </trkpt>
      <trkpt lat="47.02352" lon="8.94576">
        <ele>860</ele>
        <time>2021-08-02T13:09:11.616Z</time>
      </trkpt>
      <trkpt lat="47.02347" lon="8.94576">
        <ele>859</ele>
        <time>2021-08-02T13:09:12.616Z</time>
      </trkpt>
      <trkpt lat="47.02347" lon="8.94577">
        <ele>859</ele>
        <time>2021-08-02T13:09:13.617Z</time>
      </trkpt>
      <trkpt lat="47.02347" lon="8.94577">
        <ele>859</ele>
        <time>2021-08-02T13:09:14.617Z</time>
      </trkpt>
      <trkpt lat="47.02347" lon="8.94577">
        <ele>859</ele>
        <time>2021-08-02T13:09:15.617Z</time>
      </trkpt>
      <trkpt lat="47.02351" lon="8.94584">
        <ele>863</ele>
        <time>2021-08-02T13:09:16.617Z</time>
      </trkpt>
      <trkpt lat="47.0235" lon="8.94584">
        <ele>863</ele>
        <time>2021-08-02T13:09:17.617Z</time>
      </trkpt>
      <trkpt lat="47.02351" lon="8.94584">
        <ele>863</ele>
        <time>2021-08-02T13:09:18.618Z</time>
      </trkpt>
      <trkpt lat="47.0235" lon="8.9458">
        <ele>861</ele>
        <time>2021-08-02T13:09:19.617Z</time>
      </trkpt>
      <trkpt lat="47.0235" lon="8.9458">
        <ele>860</ele>
        <time>2021-08-02T13:09:20.618Z</time>
      </trkpt>
      <trkpt lat="47.0235" lon="8.9458">
        <ele>859</ele>
        <time>2021-08-02T13:09:21.617Z</time>
      </trkpt>
      <trkpt lat="47.0235" lon="8.94579">
        <ele>859</ele>
        <time>2021-08-02T13:09:22.617Z</time>
      </trkpt>
      <trkpt lat="47.0235" lon="8.94579">
        <ele>859</ele>
        <time>2021-08-02T13:09:23.618Z</time>
      </trkpt>
      <trkpt lat="47.0235" lon="8.9458">
        <ele>858</ele>
        <time>2021-08-02T13:09:24.618Z</time>
      </trkpt>
      <trkpt lat="47.02351" lon="8.9458">
        <ele>857</ele>
        <time>2021-08-02T13:09:35.715Z</time>
      </trkpt>
      <trkpt lat="47.02351" lon="8.94581">
        <ele>856</ele>
        <time>2021-08-02T13:09:36.714Z</time>
      </trkpt>
      <trkpt lat="47.02353" lon="8.94584">
        <ele>852</ele>
        <time>2021-08-02T13:09:58.616Z</time>
      </trkpt>
      <trkpt lat="47.02353" lon="8.94583">
        <ele>852</ele>
        <time>2021-08-02T13:09:59.616Z</time>
      </trkpt>
      <trkpt lat="47.02353" lon="8.94582">
        <ele>853</ele>
        <time>2021-08-02T13:10:00.615Z</time>
      </trkpt>
      <trkpt lat="47.02351" lon="8.94581">
        <ele>853</ele>
        <time>2021-08-02T13:10:01.615Z</time>
      </trkpt>
      <trkpt lat="47.0235" lon="8.94582">
        <ele>853</ele>
        <time>2021-08-02T13:10:02.615Z</time>
      </trkpt>
      <trkpt lat="47.0235" lon="8.94583">
        <ele>853</ele>
        <time>2021-08-02T13:10:03.616Z</time>
      </trkpt>
      <trkpt lat="47.02349" lon="8.94584">
        <ele>853</ele>
        <time>2021-08-02T13:10:04.616Z</time>
      </trkpt>
      <trkpt lat="47.02349" lon="8.94585">
        <ele>853</ele>
        <time>2021-08-02T13:10:05.616Z</time>
      </trkpt>
      <trkpt lat="47.02349" lon="8.94585">
        <ele>854</ele>
        <time>2021-08-02T13:10:06.616Z</time>
      </trkpt>
      <trkpt lat="47.0235" lon="8.94586">
        <ele>854</ele>
        <time>2021-08-02T13:10:07.616Z</time>
      </trkpt>
      <trkpt lat="47.0235" lon="8.94587">
        <ele>854</ele>
        <time>2021-08-02T13:10:08.616Z</time>
      </trkpt>
      <trkpt lat="47.02351" lon="8.94588">
        <ele>854</ele>
        <time>2021-08-02T13:10:09.616Z</time>
      </trkpt>
      <trkpt lat="47.02351" lon="8.94588">
        <ele>855</ele>
        <time>2021-08-02T13:10:10.615Z</time>
      </trkpt>
      <trkpt lat="47.02352" lon="8.94589">
        <ele>855</ele>
        <time>2021-08-02T13:10:11.616Z</time>
      </trkpt>
      <trkpt lat="47.02352" lon="8.94589">
        <ele>855</ele>
        <time>2021-08-02T13:10:12.616Z</time>
      </trkpt>
      <trkpt lat="47.02353" lon="8.94589">
        <ele>856</ele>
        <time>2021-08-02T13:10:13.616Z</time>
      </trkpt>
      <trkpt lat="47.02354" lon="8.94589">
        <ele>860</ele>
        <time>2021-08-02T13:10:14.616Z</time>
      </trkpt>
      <trkpt lat="47.02354" lon="8.94589">
        <ele>860</ele>
        <time>2021-08-02T13:10:15.615Z</time>
      </trkpt>
      <trkpt lat="47.02354" lon="8.94589">
        <ele>861</ele>
        <time>2021-08-02T13:10:16.616Z</time>
      </trkpt>
      <trkpt lat="47.02352" lon="8.94587">
        <ele>861</ele>
        <time>2021-08-02T13:10:17.615Z</time>
      </trkpt>
      <trkpt lat="47.02351" lon="8.94587">
        <ele>862</ele>
        <time>2021-08-02T13:10:18.615Z</time>
      </trkpt>
      <trkpt lat="47.02352" lon="8.94587">
        <ele>862</ele>
        <time>2021-08-02T13:10:19.615Z</time>
      </trkpt>
      <trkpt lat="47.02352" lon="8.94587">
        <ele>862</ele>
        <time>2021-08-02T13:10:20.616Z</time>
      </trkpt>
      <trkpt lat="47.02352" lon="8.94586">
        <ele>863</ele>
        <time>2021-08-02T13:10:21.616Z</time>
      </trkpt>
      <trkpt lat="47.02351" lon="8.94585">
        <ele>864</ele>
        <time>2021-08-02T13:10:22.616Z</time>
      </trkpt>
      <trkpt lat="47.02351" lon="8.94584">
        <ele>865</ele>
        <time>2021-08-02T13:10:23.616Z</time>
      </trkpt>
      <trkpt lat="47.0235" lon="8.94583">
        <ele>866</ele>
        <time>2021-08-02T13:10:24.616Z</time>
      </trkpt>
      <trkpt lat="47.0235" lon="8.94583">
        <ele>867</ele>
        <time>2021-08-02T13:10:25.616Z</time>
      </trkpt>
      <trkpt lat="47.0235" lon="8.94582">
        <ele>867</ele>
        <time>2021-08-02T13:10:26.616Z</time>
      </trkpt>
      <trkpt lat="47.02349" lon="8.9458">
        <ele>869</ele>
        <time>2021-08-02T13:10:27.618Z</time>
      </trkpt>
      <trkpt lat="47.02349" lon="8.94579">
        <ele>869</ele>
        <time>2021-08-02T13:10:28.618Z</time>
      </trkpt>
      <trkpt lat="47.02349" lon="8.94578">
        <ele>870</ele>
        <time>2021-08-02T13:10:29.617Z</time>
      </trkpt>
      <trkpt lat="47.02348" lon="8.94578">
        <ele>871</ele>
        <time>2021-08-02T13:10:30.618Z</time>
      </trkpt>
      <trkpt lat="47.02348" lon="8.94577">
        <ele>872</ele>
        <time>2021-08-02T13:10:31.618Z</time>
      </trkpt>
      <trkpt lat="47.02348" lon="8.94576">
        <ele>872</ele>
        <time>2021-08-02T13:10:32.618Z</time>
      </trkpt>
      <trkpt lat="47.02347" lon="8.94575">
        <ele>873</ele>
        <time>2021-08-02T13:10:33.617Z</time>
      </trkpt>
      <trkpt lat="47.02347" lon="8.94573">
        <ele>873</ele>
        <time>2021-08-02T13:10:34.617Z</time>
      </trkpt>
      <trkpt lat="47.02347" lon="8.94571">
        <ele>874</ele>
        <time>2021-08-02T13:10:35.618Z</time>
      </trkpt>
      <trkpt lat="47.02347" lon="8.9457">
        <ele>874</ele>
        <time>2021-08-02T13:10:36.618Z</time>
      </trkpt>
      <trkpt lat="47.02348" lon="8.94568">
        <ele>874</ele>
        <time>2021-08-02T13:10:37.618Z</time>
      </trkpt>
      <trkpt lat="47.0235" lon="8.94572">
        <ele>873</ele>
        <time>2021-08-02T13:10:38.617Z</time>
      </trkpt>
      <trkpt lat="47.0235" lon="8.94572">
        <ele>872</ele>
        <time>2021-08-02T13:10:39.618Z</time>
      </trkpt>
      <trkpt lat="47.0235" lon="8.94575">
        <ele>861</ele>
        <time>2021-08-02T13:10:40.619Z</time>
      </trkpt>
      <trkpt lat="47.0235" lon="8.94575">
        <ele>860</ele>
        <time>2021-08-02T13:10:41.618Z</time>
      </trkpt>
      <trkpt lat="47.02354" lon="8.94582">
        <ele>858</ele>
        <time>2021-08-02T13:10:42.619Z</time>
      </trkpt>
      <trkpt lat="47.02355" lon="8.94583">
        <ele>858</ele>
        <time>2021-08-02T13:10:43.618Z</time>
      </trkpt>
      <trkpt lat="47.02355" lon="8.94581">
        <ele>857</ele>
        <time>2021-08-02T13:10:44.620Z</time>
      </trkpt>
      <trkpt lat="47.02355" lon="8.9458">
        <ele>857</ele>
        <time>2021-08-02T13:10:45.619Z</time>
      </trkpt>
      <trkpt lat="47.02354" lon="8.9458">
        <ele>857</ele>
        <time>2021-08-02T13:10:46.620Z</time>
      </trkpt>
      <trkpt lat="47.02351" lon="8.94577">
        <ele>866</ele>
        <time>2021-08-02T13:10:54.752Z</time>
      </trkpt>
      <trkpt lat="47.02351" lon="8.94577">
        <ele>866</ele>
        <time>2021-08-02T13:10:55.751Z</time>
      </trkpt>
      <trkpt lat="47.02351" lon="8.94577">
        <ele>866</ele>
        <time>2021-08-02T13:10:56.751Z</time>
      </trkpt>
      <trkpt lat="47.02351" lon="8.94578">
        <ele>865</ele>
        <time>2021-08-02T13:10:57.752Z</time>
      </trkpt>
      <trkpt lat="47.02351" lon="8.94579">
        <ele>864</ele>
        <time>2021-08-02T13:10:58.751Z</time>
      </trkpt>
      <trkpt lat="47.02351" lon="8.94579">
        <ele>864</ele>
        <time>2021-08-02T13:10:59.751Z</time>
      </trkpt>
      <trkpt lat="47.02354" lon="8.94579">
        <ele>866</ele>
        <time>2021-08-02T13:11:00.752Z</time>
      </trkpt>
      <trkpt lat="47.02354" lon="8.94579">
        <ele>867</ele>
        <time>2021-08-02T13:11:01.753Z</time>
      </trkpt>
      <trkpt lat="47.02355" lon="8.94578">
        <ele>869</ele>
        <time>2021-08-02T13:11:02.753Z</time>
      </trkpt>
      <trkpt lat="47.02355" lon="8.94578">
        <ele>870</ele>
        <time>2021-08-02T13:11:03.753Z</time>
      </trkpt>
      <trkpt lat="47.02355" lon="8.94578">
        <ele>870</ele>
        <time>2021-08-02T13:11:04.753Z</time>
      </trkpt>
      <trkpt lat="47.02354" lon="8.94578">
        <ele>870</ele>
        <time>2021-08-02T13:11:05.753Z</time>
      </trkpt>
      <trkpt lat="47.02354" lon="8.94578">
        <ele>871</ele>
        <time>2021-08-02T13:11:06.753Z</time>
      </trkpt>
      <trkpt lat="47.02353" lon="8.94578">
        <ele>871</ele>
        <time>2021-08-02T13:11:07.753Z</time>
      </trkpt>
      <trkpt lat="47.02353" lon="8.94578">
        <ele>871</ele>
        <time>2021-08-02T13:11:08.753Z</time>
      </trkpt>
      <trkpt lat="47.02354" lon="8.94581">
        <ele>869</ele>
        <time>2021-08-02T13:11:10.869Z</time>
      </trkpt>
      <trkpt lat="47.02354" lon="8.94582">
        <ele>867</ele>
        <time>2021-08-02T13:11:11.869Z</time>
      </trkpt>
      <trkpt lat="47.02353" lon="8.94582">
        <ele>867</ele>
        <time>2021-08-02T13:11:12.869Z</time>
      </trkpt>
      <trkpt lat="47.02354" lon="8.94582">
        <ele>866</ele>
        <time>2021-08-02T13:11:13.869Z</time>
      </trkpt>
      <trkpt lat="47.02353" lon="8.94582">
        <ele>866</ele>
        <time>2021-08-02T13:11:14.869Z</time>
      </trkpt>
      <trkpt lat="47.02353" lon="8.94581">
        <ele>865</ele>
        <time>2021-08-02T13:11:15.869Z</time>
      </trkpt>
      <trkpt lat="47.02354" lon="8.94581">
        <ele>865</ele>
        <time>2021-08-02T13:11:16.870Z</time>
      </trkpt>
      <trkpt lat="47.02355" lon="8.94582">
        <ele>864</ele>
        <time>2021-08-02T13:11:17.870Z</time>
      </trkpt>
      <trkpt lat="47.02355" lon="8.94582">
        <ele>864</ele>
        <time>2021-08-02T13:11:18.869Z</time>
      </trkpt>
      <trkpt lat="47.02354" lon="8.9458">
        <ele>864</ele>
        <time>2021-08-02T13:11:19.869Z</time>
      </trkpt>
      <trkpt lat="47.02353" lon="8.9458">
        <ele>864</ele>
        <time>2021-08-02T13:11:20.870Z</time>
      </trkpt>
      <trkpt lat="47.02353" lon="8.94581">
        <ele>863</ele>
        <time>2021-08-02T13:11:21.870Z</time>
      </trkpt>
      <trkpt lat="47.02352" lon="8.94579">
        <ele>861</ele>
        <time>2021-08-02T13:11:22.870Z</time>
      </trkpt>
      <trkpt lat="47.02351" lon="8.94579">
        <ele>860</ele>
        <time>2021-08-02T13:11:23.870Z</time>
      </trkpt>
      <trkpt lat="47.02352" lon="8.9458">
        <ele>860</ele>
        <time>2021-08-02T13:11:24.870Z</time>
      </trkpt>
      <trkpt lat="47.02354" lon="8.9458">
        <ele>855</ele>
        <time>2021-08-02T13:11:25.870Z</time>
      </trkpt>
      <trkpt lat="47.02353" lon="8.94579">
        <ele>854</ele>
        <time>2021-08-02T13:11:26.870Z</time>
      </trkpt>
      <trkpt lat="47.02353" lon="8.94579">
        <ele>853</ele>
        <time>2021-08-02T13:11:27.870Z</time>
      </trkpt>
      <trkpt lat="47.02354" lon="8.94579">
        <ele>852</ele>
        <time>2021-08-02T13:11:28.871Z</time>
      </trkpt>
      <trkpt lat="47.02355" lon="8.9458">
        <ele>851</ele>
        <time>2021-08-02T13:11:29.870Z</time>
      </trkpt>
      <trkpt lat="47.02355" lon="8.9458">
        <ele>850</ele>
        <time>2021-08-02T13:11:30.870Z</time>
      </trkpt>
      <trkpt lat="47.02355" lon="8.94581">
        <ele>850</ele>
        <time>2021-08-02T13:11:31.871Z</time>
      </trkpt>
      <trkpt lat="47.02358" lon="8.94583">
        <ele>847</ele>
        <time>2021-08-02T13:11:32.871Z</time>
      </trkpt>
      <trkpt lat="47.02358" lon="8.94583">
        <ele>847</ele>
        <time>2021-08-02T13:11:33.870Z</time>
      </trkpt>
      <trkpt lat="47.02357" lon="8.94584">
        <ele>846</ele>
        <time>2021-08-02T13:11:34.872Z</time>
      </trkpt>
      <trkpt lat="47.02357" lon="8.94584">
        <ele>846</ele>
        <time>2021-08-02T13:11:35.872Z</time>
      </trkpt>
      <trkpt lat="47.02354" lon="8.94584">
        <ele>846</ele>
        <time>2021-08-02T13:11:36.872Z</time>
      </trkpt>
      <trkpt lat="47.02353" lon="8.94583">
        <ele>846</ele>
        <time>2021-08-02T13:11:37.871Z</time>
      </trkpt>
      <trkpt lat="47.02353" lon="8.94583">
        <ele>846</ele>
        <time>2021-08-02T13:11:38.871Z</time>
      </trkpt>
      <trkpt lat="47.02353" lon="8.94583">
        <ele>846</ele>
        <time>2021-08-02T13:11:39.872Z</time>
      </trkpt>
      <trkpt lat="47.02352" lon="8.94583">
        <ele>846</ele>
        <time>2021-08-02T13:11:40.872Z</time>
      </trkpt>
      <trkpt lat="47.02348" lon="8.94584">
        <ele>853</ele>
        <time>2021-08-02T13:11:41.872Z</time>
      </trkpt>
      <trkpt lat="47.02347" lon="8.94584">
        <ele>854</ele>
        <time>2021-08-02T13:11:42.871Z</time>
      </trkpt>
      <trkpt lat="47.02346" lon="8.94584">
        <ele>855</ele>
        <time>2021-08-02T13:11:43.871Z</time>
      </trkpt>
      <trkpt lat="47.02346" lon="8.94584">
        <ele>855</ele>
        <time>2021-08-02T13:11:44.871Z</time>
      </trkpt>
      <trkpt lat="47.02345" lon="8.94584">
        <ele>854</ele>
        <time>2021-08-02T13:11:45.871Z</time>
      </trkpt>
      <trkpt lat="47.02346" lon="8.94583">
        <ele>854</ele>
        <time>2021-08-02T13:11:46.872Z</time>
      </trkpt>
      <trkpt lat="47.02347" lon="8.94584">
        <ele>854</ele>
        <time>2021-08-02T13:11:47.872Z</time>
      </trkpt>
      <trkpt lat="47.02347" lon="8.94584">
        <ele>854</ele>
        <time>2021-08-02T13:11:48.872Z</time>
      </trkpt>
      <trkpt lat="47.02347" lon="8.94584">
        <ele>854</ele>
        <time>2021-08-02T13:11:49.872Z</time>
      </trkpt>
      <trkpt lat="47.02347" lon="8.94585">
        <ele>853</ele>
        <time>2021-08-02T13:11:50.872Z</time>
      </trkpt>
      <trkpt lat="47.02347" lon="8.94586">
        <ele>853</ele>
        <time>2021-08-02T13:11:51.872Z</time>
      </trkpt>
      <trkpt lat="47.02348" lon="8.94586">
        <ele>852</ele>
        <time>2021-08-02T13:11:52.872Z</time>
      </trkpt>
      <trkpt lat="47.02348" lon="8.94585">
        <ele>850</ele>
        <time>2021-08-02T13:11:53.872Z</time>
      </trkpt>
      <trkpt lat="47.02348" lon="8.94584">
        <ele>850</ele>
        <time>2021-08-02T13:11:54.871Z</time>
      </trkpt>
      <trkpt lat="47.02348" lon="8.94585">
        <ele>850</ele>
        <time>2021-08-02T13:11:55.871Z</time>
      </trkpt>
      <trkpt lat="47.02348" lon="8.94586">
        <ele>849</ele>
        <time>2021-08-02T13:11:56.871Z</time>
      </trkpt>
      <trkpt lat="47.02347" lon="8.94586">
        <ele>849</ele>
        <time>2021-08-02T13:11:57.872Z</time>
      </trkpt>
      <trkpt lat="47.02348" lon="8.94587">
        <ele>849</ele>
        <time>2021-08-02T13:11:58.871Z</time>
      </trkpt>
      <trkpt lat="47.02348" lon="8.94588">
        <ele>849</ele>
        <time>2021-08-02T13:11:59.872Z</time>
      </trkpt>
      <trkpt lat="47.02348" lon="8.94588">
        <ele>849</ele>
        <time>2021-08-02T13:12:00.872Z</time>
      </trkpt>
      <trkpt lat="47.02348" lon="8.94589">
        <ele>849</ele>
        <time>2021-08-02T13:12:01.872Z</time>
      </trkpt>
      <trkpt lat="47.02347" lon="8.94588">
        <ele>849</ele>
        <time>2021-08-02T13:12:02.872Z</time>
      </trkpt>
      <trkpt lat="47.02347" lon="8.94589">
        <ele>849</ele>
        <time>2021-08-02T13:12:03.871Z</time>
      </trkpt>
      <trkpt lat="47.02347" lon="8.94589">
        <ele>849</ele>
        <time>2021-08-02T13:12:04.871Z</time>
      </trkpt>
      <trkpt lat="47.02347" lon="8.94589">
        <ele>849</ele>
        <time>2021-08-02T13:12:05.872Z</time>
      </trkpt>
      <trkpt lat="47.02347" lon="8.94589">
        <ele>848</ele>
        <time>2021-08-02T13:12:06.872Z</time>
      </trkpt>
      <trkpt lat="47.02346" lon="8.94589">
        <ele>848</ele>
        <time>2021-08-02T13:12:07.872Z</time>
      </trkpt>
      <trkpt lat="47.02349" lon="8.94592">
        <ele>842</ele>
        <time>2021-08-02T13:12:08.871Z</time>
      </trkpt>
      <trkpt lat="47.02349" lon="8.94592">
        <ele>842</ele>
        <time>2021-08-02T13:12:09.871Z</time>
      </trkpt>
      <trkpt lat="47.0235" lon="8.94593">
        <ele>842</ele>
        <time>2021-08-02T13:12:10.871Z</time>
      </trkpt>
      <trkpt lat="47.02351" lon="8.94593">
        <ele>842</ele>
        <time>2021-08-02T13:12:11.872Z</time>
      </trkpt>
      <trkpt lat="47.02351" lon="8.94594">
        <ele>842</ele>
        <time>2021-08-02T13:12:12.871Z</time>
      </trkpt>
      <trkpt lat="47.02352" lon="8.94594">
        <ele>843</ele>
        <time>2021-08-02T13:12:13.872Z</time>
      </trkpt>
      <trkpt lat="47.02352" lon="8.94595">
        <ele>843</ele>
        <time>2021-08-02T13:12:14.871Z</time>
      </trkpt>
      <trkpt lat="47.02351" lon="8.94595">
        <ele>843</ele>
        <time>2021-08-02T13:12:15.871Z</time>
      </trkpt>
      <trkpt lat="47.0235" lon="8.94595">
        <ele>844</ele>
        <time>2021-08-02T13:12:16.872Z</time>
      </trkpt>
      <trkpt lat="47.02349" lon="8.94599">
        <ele>850</ele>
        <time>2021-08-02T13:12:17.873Z</time>
      </trkpt>
      <trkpt lat="47.02349" lon="8.94599">
        <ele>851</ele>
        <time>2021-08-02T13:12:18.873Z</time>
      </trkpt>
      <trkpt lat="47.02349" lon="8.94597">
        <ele>851</ele>
        <time>2021-08-02T13:12:19.873Z</time>
      </trkpt>
      <trkpt lat="47.02349" lon="8.94597">
        <ele>851</ele>
        <time>2021-08-02T13:12:20.873Z</time>
      </trkpt>
      <trkpt lat="47.02352" lon="8.94591">
        <ele>853</ele>
        <time>2021-08-02T13:12:21.872Z</time>
      </trkpt>
      <trkpt lat="47.02354" lon="8.94591">
        <ele>853</ele>
        <time>2021-08-02T13:12:22.872Z</time>
      </trkpt>
      <trkpt lat="47.02349" lon="8.94591">
        <ele>854</ele>
        <time>2021-08-02T13:12:23.873Z</time>
      </trkpt>
      <trkpt lat="47.02349" lon="8.94591">
        <ele>854</ele>
        <time>2021-08-02T13:12:24.872Z</time>
      </trkpt>
      <trkpt lat="47.02348" lon="8.94591">
        <ele>854</ele>
        <time>2021-08-02T13:12:25.872Z</time>
      </trkpt>
      <trkpt lat="47.02343" lon="8.94586">
        <ele>850</ele>
        <time>2021-08-02T13:12:26.873Z</time>
      </trkpt>
      <trkpt lat="47.02343" lon="8.94586">
        <ele>850</ele>
        <time>2021-08-02T13:12:27.872Z</time>
      </trkpt>
      <trkpt lat="47.02344" lon="8.94586">
        <ele>850</ele>
        <time>2021-08-02T13:12:28.873Z</time>
      </trkpt>
      <trkpt lat="47.02344" lon="8.94586">
        <ele>850</ele>
        <time>2021-08-02T13:12:29.873Z</time>
      </trkpt>
      <trkpt lat="47.02345" lon="8.94586">
        <ele>849</ele>
        <time>2021-08-02T13:12:30.872Z</time>
      </trkpt>
      <trkpt lat="47.02348" lon="8.94587">
        <ele>848</ele>
        <time>2021-08-02T13:12:31.873Z</time>
      </trkpt>
      <trkpt lat="47.02348" lon="8.94587">
        <ele>848</ele>
        <time>2021-08-02T13:12:32.873Z</time>
      </trkpt>
      <trkpt lat="47.02348" lon="8.94587">
        <ele>848</ele>
        <time>2021-08-02T13:12:33.873Z</time>
      </trkpt>
      <trkpt lat="47.02348" lon="8.94588">
        <ele>847</ele>
        <time>2021-08-02T13:12:34.872Z</time>
      </trkpt>
      <trkpt lat="47.02348" lon="8.94588">
        <ele>847</ele>
        <time>2021-08-02T13:12:35.873Z</time>
      </trkpt>
      <trkpt lat="47.02347" lon="8.94589">
        <ele>841</ele>
        <time>2021-08-02T13:12:36.872Z</time>
      </trkpt>
      <trkpt lat="47.02347" lon="8.94588">
        <ele>841</ele>
        <time>2021-08-02T13:12:37.872Z</time>
      </trkpt>
      <trkpt lat="47.02347" lon="8.94588">
        <ele>841</ele>
        <time>2021-08-02T13:12:38.872Z</time>
      </trkpt>
      <trkpt lat="47.02346" lon="8.94587">
        <ele>841</ele>
        <time>2021-08-02T13:12:39.872Z</time>
      </trkpt>
      <trkpt lat="47.02347" lon="8.94587">
        <ele>841</ele>
        <time>2021-08-02T13:12:40.872Z</time>
      </trkpt>
      <trkpt lat="47.02347" lon="8.94588">
        <ele>841</ele>
        <time>2021-08-02T13:12:41.872Z</time>
      </trkpt>
      <trkpt lat="47.02348" lon="8.94589">
        <ele>841</ele>
        <time>2021-08-02T13:12:42.872Z</time>
      </trkpt>
      <trkpt lat="47.02348" lon="8.94589">
        <ele>841</ele>
        <time>2021-08-02T13:12:43.872Z</time>
      </trkpt>
      <trkpt lat="47.02348" lon="8.94589">
        <ele>841</ele>
        <time>2021-08-02T13:12:44.872Z</time>
      </trkpt>
      <trkpt lat="47.02348" lon="8.94588">
        <ele>841</ele>
        <time>2021-08-02T13:12:45.872Z</time>
      </trkpt>
      <trkpt lat="47.02349" lon="8.94589">
        <ele>841</ele>
        <time>2021-08-02T13:12:46.872Z</time>
      </trkpt>
      <trkpt lat="47.0235" lon="8.9459">
        <ele>842</ele>
        <time>2021-08-02T13:12:47.872Z</time>
      </trkpt>
      <trkpt lat="47.0235" lon="8.94591">
        <ele>842</ele>
        <time>2021-08-02T13:12:48.872Z</time>
      </trkpt>
      <trkpt lat="47.0235" lon="8.94591">
        <ele>842</ele>
        <time>2021-08-02T13:12:49.872Z</time>
      </trkpt>
      <trkpt lat="47.02349" lon="8.9459">
        <ele>843</ele>
        <time>2021-08-02T13:12:50.872Z</time>
      </trkpt>
      <trkpt lat="47.02349" lon="8.9459">
        <ele>843</ele>
        <time>2021-08-02T13:12:51.872Z</time>
      </trkpt>
      <trkpt lat="47.02349" lon="8.94591">
        <ele>843</ele>
        <time>2021-08-02T13:12:52.872Z</time>
      </trkpt>
      <trkpt lat="47.02349" lon="8.94591">
        <ele>843</ele>
        <time>2021-08-02T13:12:53.872Z</time>
      </trkpt>
      <trkpt lat="47.02349" lon="8.9459">
        <ele>843</ele>
        <time>2021-08-02T13:12:54.872Z</time>
      </trkpt>
      <trkpt lat="47.02346" lon="8.94589">
        <ele>851</ele>
        <time>2021-08-02T13:12:55.874Z</time>
      </trkpt>
      <trkpt lat="47.02346" lon="8.94588">
        <ele>851</ele>
        <time>2021-08-02T13:12:56.874Z</time>
      </trkpt>
      <trkpt lat="47.02346" lon="8.94589">
        <ele>851</ele>
        <time>2021-08-02T13:12:57.874Z</time>
      </trkpt>
      <trkpt lat="47.02346" lon="8.94591">
        <ele>851</ele>
        <time>2021-08-02T13:12:58.874Z</time>
      </trkpt>
      <trkpt lat="47.02346" lon="8.9459">
        <ele>852</ele>
        <time>2021-08-02T13:12:59.874Z</time>
      </trkpt>
      <trkpt lat="47.02345" lon="8.94589">
        <ele>852</ele>
        <time>2021-08-02T13:13:00.874Z</time>
      </trkpt>
      <trkpt lat="47.02345" lon="8.94589">
        <ele>851</ele>
        <time>2021-08-02T13:13:01.873Z</time>
      </trkpt>
      <trkpt lat="47.02344" lon="8.94589">
        <ele>851</ele>
        <time>2021-08-02T13:13:02.874Z</time>
      </trkpt>
      <trkpt lat="47.02344" lon="8.94589">
        <ele>851</ele>
        <time>2021-08-02T13:13:03.873Z</time>
      </trkpt>
      <trkpt lat="47.02345" lon="8.9459">
        <ele>851</ele>
        <time>2021-08-02T13:13:04.874Z</time>
      </trkpt>
      <trkpt lat="47.02346" lon="8.94591">
        <ele>851</ele>
        <time>2021-08-02T13:13:05.873Z</time>
      </trkpt>
      <trkpt lat="47.02347" lon="8.94591">
        <ele>852</ele>
        <time>2021-08-02T13:13:06.874Z</time>
      </trkpt>
      <trkpt lat="47.02347" lon="8.9459">
        <ele>852</ele>
        <time>2021-08-02T13:13:07.874Z</time>
      </trkpt>
      <trkpt lat="47.02347" lon="8.9459">
        <ele>852</ele>
        <time>2021-08-02T13:13:08.874Z</time>
      </trkpt>
      <trkpt lat="47.02346" lon="8.94589">
        <ele>852</ele>
        <time>2021-08-02T13:13:09.874Z</time>
      </trkpt>
      <trkpt lat="47.02346" lon="8.9459">
        <ele>851</ele>
        <time>2021-08-02T13:13:10.874Z</time>
      </trkpt>
      <trkpt lat="47.02346" lon="8.94589">
        <ele>851</ele>
        <time>2021-08-02T13:13:11.874Z</time>
      </trkpt>
      <trkpt lat="47.02345" lon="8.94588">
        <ele>851</ele>
        <time>2021-08-02T13:13:12.873Z</time>
      </trkpt>
      <trkpt lat="47.02347" lon="8.94588">
        <ele>845</ele>
        <time>2021-08-02T13:13:13.873Z</time>
      </trkpt>
      <trkpt lat="47.02349" lon="8.9459">
        <ele>845</ele>
        <time>2021-08-02T13:13:14.873Z</time>
      </trkpt>
      <trkpt lat="47.02351" lon="8.94591">
        <ele>845</ele>
        <time>2021-08-02T13:13:15.873Z</time>
      </trkpt>
      <trkpt lat="47.02352" lon="8.94591">
        <ele>845</ele>
        <time>2021-08-02T13:13:16.873Z</time>
      </trkpt>
      <trkpt lat="47.02351" lon="8.9459">
        <ele>845</ele>
        <time>2021-08-02T13:13:17.873Z</time>
      </trkpt>
      <trkpt lat="47.02351" lon="8.9459">
        <ele>845</ele>
        <time>2021-08-02T13:13:18.874Z</time>
      </trkpt>
      <trkpt lat="47.02349" lon="8.9459">
        <ele>851</ele>
        <time>2021-08-02T13:13:19.874Z</time>
      </trkpt>
      <trkpt lat="47.02347" lon="8.94588">
        <ele>854</ele>
        <time>2021-08-02T13:13:20.875Z</time>
      </trkpt>
      <trkpt lat="47.02347" lon="8.94588">
        <ele>854</ele>
        <time>2021-08-02T13:13:21.874Z</time>
      </trkpt>
      <trkpt lat="47.02347" lon="8.94588">
        <ele>853</ele>
        <time>2021-08-02T13:13:22.874Z</time>
      </trkpt>
      <trkpt lat="47.02347" lon="8.94588">
        <ele>852</ele>
        <time>2021-08-02T13:13:23.874Z</time>
      </trkpt>
      <trkpt lat="47.02348" lon="8.94588">
        <ele>852</ele>
        <time>2021-08-02T13:13:24.875Z</time>
      </trkpt>
      <trkpt lat="47.02348" lon="8.94588">
        <ele>851</ele>
        <time>2021-08-02T13:13:25.875Z</time>
      </trkpt>
      <trkpt lat="47.02349" lon="8.94587">
        <ele>855</ele>
        <time>2021-08-02T13:13:26.876Z</time>
      </trkpt>
      <trkpt lat="47.02349" lon="8.94586">
        <ele>855</ele>
        <time>2021-08-02T13:13:27.875Z</time>
      </trkpt>
      <trkpt lat="47.02348" lon="8.94586">
        <ele>856</ele>
        <time>2021-08-02T13:13:28.876Z</time>
      </trkpt>
      <trkpt lat="47.02348" lon="8.94586">
        <ele>856</ele>
        <time>2021-08-02T13:13:29.876Z</time>
      </trkpt>
      <trkpt lat="47.02348" lon="8.94582">
        <ele>856</ele>
        <time>2021-08-02T13:13:30.875Z</time>
      </trkpt>
      <trkpt lat="47.02348" lon="8.94582">
        <ele>856</ele>
        <time>2021-08-02T13:13:31.875Z</time>
      </trkpt>
      <trkpt lat="47.02349" lon="8.94583">
        <ele>856</ele>
        <time>2021-08-02T13:13:32.875Z</time>
      </trkpt>
      <trkpt lat="47.0235" lon="8.94583">
        <ele>856</ele>
        <time>2021-08-02T13:13:33.875Z</time>
      </trkpt>
      <trkpt lat="47.0235" lon="8.94583">
        <ele>856</ele>
        <time>2021-08-02T13:13:34.875Z</time>
      </trkpt>
      <trkpt lat="47.0235" lon="8.94584">
        <ele>856</ele>
        <time>2021-08-02T13:13:35.876Z</time>
      </trkpt>
      <trkpt lat="47.0235" lon="8.94584">
        <ele>856</ele>
        <time>2021-08-02T13:13:36.876Z</time>
      </trkpt>
      <trkpt lat="47.0235" lon="8.94585">
        <ele>855</ele>
        <time>2021-08-02T13:13:37.876Z</time>
      </trkpt>
      <trkpt lat="47.02349" lon="8.94584">
        <ele>855</ele>
        <time>2021-08-02T13:13:38.875Z</time>
      </trkpt>
      <trkpt lat="47.02349" lon="8.94584">
        <ele>855</ele>
        <time>2021-08-02T13:13:39.876Z</time>
      </trkpt>
      <trkpt lat="47.0235" lon="8.94583">
        <ele>853</ele>
        <time>2021-08-02T13:13:40.876Z</time>
      </trkpt>
      <trkpt lat="47.02351" lon="8.94583">
        <ele>853</ele>
        <time>2021-08-02T13:13:41.876Z</time>
      </trkpt>
      <trkpt lat="47.02351" lon="8.94584">
        <ele>853</ele>
        <time>2021-08-02T13:13:42.876Z</time>
      </trkpt>
      <trkpt lat="47.02351" lon="8.94584">
        <ele>853</ele>
        <time>2021-08-02T13:13:43.875Z</time>
      </trkpt>
      <trkpt lat="47.02353" lon="8.94585">
        <ele>853</ele>
        <time>2021-08-02T13:13:44.877Z</time>
      </trkpt>
      <trkpt lat="47.02353" lon="8.94585">
        <ele>853</ele>
        <time>2021-08-02T13:13:45.877Z</time>
      </trkpt>
      <trkpt lat="47.02354" lon="8.94585">
        <ele>854</ele>
        <time>2021-08-02T13:13:46.876Z</time>
      </trkpt>
      <trkpt lat="47.02354" lon="8.94584">
        <ele>854</ele>
        <time>2021-08-02T13:13:47.877Z</time>
      </trkpt>
      <trkpt lat="47.02352" lon="8.94581">
        <ele>852</ele>
        <time>2021-08-02T13:13:48.876Z</time>
      </trkpt>
      <trkpt lat="47.02352" lon="8.94581">
        <ele>852</ele>
        <time>2021-08-02T13:13:49.876Z</time>
      </trkpt>
      <trkpt lat="47.02352" lon="8.94581">
        <ele>852</ele>
        <time>2021-08-02T13:13:50.876Z</time>
      </trkpt>
      <trkpt lat="47.02353" lon="8.9458">
        <ele>852</ele>
        <time>2021-08-02T13:13:51.876Z</time>
      </trkpt>
      <trkpt lat="47.02353" lon="8.9458">
        <ele>852</ele>
        <time>2021-08-02T13:13:52.876Z</time>
      </trkpt>
      <trkpt lat="47.02353" lon="8.9458">
        <ele>852</ele>
        <time>2021-08-02T13:13:53.877Z</time>
      </trkpt>
      <trkpt lat="47.02353" lon="8.9458">
        <ele>852</ele>
        <time>2021-08-02T13:13:54.877Z</time>
      </trkpt>
      <trkpt lat="47.02353" lon="8.9458">
        <ele>851</ele>
        <time>2021-08-02T13:13:55.877Z</time>
      </trkpt>
      <trkpt lat="47.02351" lon="8.9458">
        <ele>849</ele>
        <time>2021-08-02T13:13:56.878Z</time>
      </trkpt>
      <trkpt lat="47.02351" lon="8.9458">
        <ele>849</ele>
        <time>2021-08-02T13:13:57.878Z</time>
      </trkpt>
      <trkpt lat="47.02347" lon="8.9458">
        <ele>848</ele>
        <time>2021-08-02T13:13:58.878Z</time>
      </trkpt>
      <trkpt lat="47.02347" lon="8.94581">
        <ele>848</ele>
        <time>2021-08-02T13:13:59.877Z</time>
      </trkpt>
      <trkpt lat="47.02348" lon="8.94582">
        <ele>849</ele>
        <time>2021-08-02T13:14:00.877Z</time>
      </trkpt>
      <trkpt lat="47.0235" lon="8.94583">
        <ele>849</ele>
        <time>2021-08-02T13:14:01.878Z</time>
      </trkpt>
      <trkpt lat="47.02351" lon="8.94584">
        <ele>849</ele>
        <time>2021-08-02T13:14:02.877Z</time>
      </trkpt>
      <trkpt lat="47.02352" lon="8.94585">
        <ele>850</ele>
        <time>2021-08-02T13:14:03.877Z</time>
      </trkpt>
      <trkpt lat="47.02352" lon="8.94585">
        <ele>851</ele>
        <time>2021-08-02T13:14:04.878Z</time>
      </trkpt>
      <trkpt lat="47.02353" lon="8.94585">
        <ele>851</ele>
        <time>2021-08-02T13:14:05.878Z</time>
      </trkpt>
      <trkpt lat="47.02353" lon="8.94585">
        <ele>852</ele>
        <time>2021-08-02T13:14:06.877Z</time>
      </trkpt>
      <trkpt lat="47.02353" lon="8.94585">
        <ele>853</ele>
        <time>2021-08-02T13:14:07.878Z</time>
      </trkpt>
      <trkpt lat="47.02354" lon="8.94586">
        <ele>854</ele>
        <time>2021-08-02T13:14:08.878Z</time>
      </trkpt>
      <trkpt lat="47.02355" lon="8.94586">
        <ele>855</ele>
        <time>2021-08-02T13:14:09.878Z</time>
      </trkpt>
      <trkpt lat="47.02354" lon="8.94583">
        <ele>855</ele>
        <time>2021-08-02T13:14:10.879Z</time>
      </trkpt>
      <trkpt lat="47.02354" lon="8.94582">
        <ele>855</ele>
        <time>2021-08-02T13:14:11.879Z</time>
      </trkpt>
      <trkpt lat="47.02353" lon="8.94581">
        <ele>855</ele>
        <time>2021-08-02T13:14:12.878Z</time>
      </trkpt>
      <trkpt lat="47.02352" lon="8.9458">
        <ele>855</ele>
        <time>2021-08-02T13:14:13.879Z</time>
      </trkpt>
      <trkpt lat="47.02351" lon="8.94578">
        <ele>855</ele>
        <time>2021-08-02T13:14:14.879Z</time>
      </trkpt>
      <trkpt lat="47.0235" lon="8.94577">
        <ele>856</ele>
        <time>2021-08-02T13:14:15.879Z</time>
      </trkpt>
      <trkpt lat="47.0235" lon="8.94577">
        <ele>856</ele>
        <time>2021-08-02T13:14:16.878Z</time>
      </trkpt>
      <trkpt lat="47.02354" lon="8.9458">
        <ele>852</ele>
        <time>2021-08-02T13:14:17.881Z</time>
      </trkpt>
      <trkpt lat="47.02355" lon="8.9458">
        <ele>851</ele>
        <time>2021-08-02T13:14:18.880Z</time>
      </trkpt>
      <trkpt lat="47.02356" lon="8.94581">
        <ele>851</ele>
        <time>2021-08-02T13:14:19.880Z</time>
      </trkpt>
      <trkpt lat="47.02356" lon="8.94582">
        <ele>850</ele>
        <time>2021-08-02T13:14:20.881Z</time>
      </trkpt>
      <trkpt lat="47.02359" lon="8.94585">
        <ele>847</ele>
        <time>2021-08-02T13:14:21.880Z</time>
      </trkpt>
      <trkpt lat="47.02359" lon="8.94586">
        <ele>846</ele>
        <time>2021-08-02T13:14:22.880Z</time>
      </trkpt>
      <trkpt lat="47.02359" lon="8.94586">
        <ele>845</ele>
        <time>2021-08-02T13:14:23.880Z</time>
      </trkpt>
      <trkpt lat="47.02356" lon="8.94587">
        <ele>843</ele>
        <time>2021-08-02T13:14:24.881Z</time>
      </trkpt>
      <trkpt lat="47.02356" lon="8.94587">
        <ele>843</ele>
        <time>2021-08-02T13:14:25.881Z</time>
      </trkpt>
      <trkpt lat="47.02355" lon="8.94588">
        <ele>844</ele>
        <time>2021-08-02T13:14:26.880Z</time>
      </trkpt>
      <trkpt lat="47.02355" lon="8.94588">
        <ele>844</ele>
        <time>2021-08-02T13:14:27.881Z</time>
      </trkpt>
      <trkpt lat="47.02355" lon="8.94589">
        <ele>844</ele>
        <time>2021-08-02T13:14:28.880Z</time>
      </trkpt>
      <trkpt lat="47.02357" lon="8.94587">
        <ele>845</ele>
        <time>2021-08-02T13:14:29.881Z</time>
      </trkpt>
      <trkpt lat="47.02357" lon="8.94587">
        <ele>845</ele>
        <time>2021-08-02T13:14:33.906Z</time>
      </trkpt>
      <trkpt lat="47.02353" lon="8.94586">
        <ele>851</ele>
        <time>2021-08-02T13:14:34.905Z</time>
      </trkpt>
      <trkpt lat="47.02352" lon="8.94585">
        <ele>851</ele>
        <time>2021-08-02T13:14:35.906Z</time>
      </trkpt>
      <trkpt lat="47.02351" lon="8.94585">
        <ele>851</ele>
        <time>2021-08-02T13:14:36.905Z</time>
      </trkpt>
      <trkpt lat="47.02352" lon="8.94586">
        <ele>851</ele>
        <time>2021-08-02T13:14:37.906Z</time>
      </trkpt>
      <trkpt lat="47.02352" lon="8.94585">
        <ele>851</ele>
        <time>2021-08-02T13:14:38.905Z</time>
      </trkpt>
      <trkpt lat="47.02351" lon="8.94584">
        <ele>851</ele>
        <time>2021-08-02T13:14:39.906Z</time>
      </trkpt>
      <trkpt lat="47.02351" lon="8.94584">
        <ele>852</ele>
        <time>2021-08-02T13:14:40.905Z</time>
      </trkpt>
      <trkpt lat="47.02351" lon="8.94583">
        <ele>851</ele>
        <time>2021-08-02T13:14:41.906Z</time>
      </trkpt>
      <trkpt lat="47.02351" lon="8.94583">
        <ele>851</ele>
        <time>2021-08-02T13:14:42.906Z</time>
      </trkpt>
      <trkpt lat="47.0235" lon="8.94581">
        <ele>852</ele>
        <time>2021-08-02T13:14:43.905Z</time>
      </trkpt>
      <trkpt lat="47.0235" lon="8.94582">
        <ele>851</ele>
        <time>2021-08-02T13:14:44.906Z</time>
      </trkpt>
      <trkpt lat="47.02351" lon="8.94583">
        <ele>850</ele>
        <time>2021-08-02T13:14:45.905Z</time>
      </trkpt>
      <trkpt lat="47.02352" lon="8.94584">
        <ele>849</ele>
        <time>2021-08-02T13:14:46.906Z</time>
      </trkpt>
      <trkpt lat="47.02352" lon="8.94584">
        <ele>849</ele>
        <time>2021-08-02T13:14:47.906Z</time>
      </trkpt>
      <trkpt lat="47.02353" lon="8.94583">
        <ele>848</ele>
        <time>2021-08-02T13:14:48.906Z</time>
      </trkpt>
      <trkpt lat="47.02353" lon="8.94583">
        <ele>848</ele>
        <time>2021-08-02T13:14:49.905Z</time>
      </trkpt>
      <trkpt lat="47.02354" lon="8.94582">
        <ele>848</ele>
        <time>2021-08-02T13:14:50.906Z</time>
      </trkpt>
      <trkpt lat="47.02354" lon="8.94582">
        <ele>848</ele>
        <time>2021-08-02T13:14:51.905Z</time>
      </trkpt>
      <trkpt lat="47.02353" lon="8.94582">
        <ele>848</ele>
        <time>2021-08-02T13:14:52.905Z</time>
      </trkpt>
      <trkpt lat="47.02353" lon="8.9458">
        <ele>848</ele>
        <time>2021-08-02T13:14:53.907Z</time>
      </trkpt>
      <trkpt lat="47.02353" lon="8.94579">
        <ele>848</ele>
        <time>2021-08-02T13:14:54.906Z</time>
      </trkpt>
      <trkpt lat="47.02353" lon="8.9458">
        <ele>847</ele>
        <time>2021-08-02T13:14:55.906Z</time>
      </trkpt>
      <trkpt lat="47.02353" lon="8.9458">
        <ele>847</ele>
        <time>2021-08-02T13:14:56.906Z</time>
      </trkpt>
      <trkpt lat="47.02352" lon="8.94582">
        <ele>849</ele>
        <time>2021-08-02T13:14:57.907Z</time>
      </trkpt>
      <trkpt lat="47.02352" lon="8.94583">
        <ele>849</ele>
        <time>2021-08-02T13:14:58.907Z</time>
      </trkpt>
      <trkpt lat="47.02352" lon="8.94583">
        <ele>850</ele>
        <time>2021-08-02T13:14:59.906Z</time>
      </trkpt>
      <trkpt lat="47.02352" lon="8.94584">
        <ele>850</ele>
        <time>2021-08-02T13:15:00.907Z</time>
      </trkpt>
      <trkpt lat="47.02352" lon="8.94584">
        <ele>850</ele>
        <time>2021-08-02T13:15:01.907Z</time>
      </trkpt>
      <trkpt lat="47.02352" lon="8.94584">
        <ele>850</ele>
        <time>2021-08-02T13:15:02.907Z</time>
      </trkpt>
      <trkpt lat="47.02352" lon="8.94583">
        <ele>850</ele>
        <time>2021-08-02T13:15:03.907Z</time>
      </trkpt>
      <trkpt lat="47.02352" lon="8.94583">
        <ele>850</ele>
        <time>2021-08-02T13:15:04.906Z</time>
      </trkpt>
      <trkpt lat="47.02352" lon="8.94582">
        <ele>850</ele>
        <time>2021-08-02T13:15:05.906Z</time>
      </trkpt>
      <trkpt lat="47.02352" lon="8.94582">
        <ele>850</ele>
        <time>2021-08-02T13:15:06.907Z</time>
      </trkpt>
      <trkpt lat="47.02351" lon="8.94582">
        <ele>851</ele>
        <time>2021-08-02T13:15:07.906Z</time>
      </trkpt>
      <trkpt lat="47.02352" lon="8.94582">
        <ele>851</ele>
        <time>2021-08-02T13:15:08.907Z</time>
      </trkpt>
      <trkpt lat="47.02353" lon="8.94583">
        <ele>853</ele>
        <time>2021-08-02T13:15:09.906Z</time>
      </trkpt>
      <trkpt lat="47.02353" lon="8.94583">
        <ele>853</ele>
        <time>2021-08-02T13:15:10.906Z</time>
      </trkpt>
      <trkpt lat="47.0235" lon="8.94582">
        <ele>857</ele>
        <time>2021-08-02T13:15:11.908Z</time>
      </trkpt>
      <trkpt lat="47.0235" lon="8.94582">
        <ele>858</ele>
        <time>2021-08-02T13:15:12.909Z</time>
      </trkpt>
      <trkpt lat="47.0235" lon="8.94584">
        <ele>858</ele>
        <time>2021-08-02T13:15:13.910Z</time>
      </trkpt>
      <trkpt lat="47.02351" lon="8.94584">
        <ele>858</ele>
        <time>2021-08-02T13:15:14.910Z</time>
      </trkpt>
      <trkpt lat="47.0235" lon="8.94583">
        <ele>858</ele>
        <time>2021-08-02T13:15:15.910Z</time>
      </trkpt>
      <trkpt lat="47.0235" lon="8.94582">
        <ele>858</ele>
        <time>2021-08-02T13:15:16.910Z</time>
      </trkpt>
      <trkpt lat="47.0235" lon="8.94583">
        <ele>858</ele>
        <time>2021-08-02T13:15:17.911Z</time>
      </trkpt>
      <trkpt lat="47.02349" lon="8.94583">
        <ele>858</ele>
        <time>2021-08-02T13:15:18.911Z</time>
      </trkpt>
      <trkpt lat="47.02349" lon="8.94583">
        <ele>858</ele>
        <time>2021-08-02T13:15:19.911Z</time>
      </trkpt>
      <trkpt lat="47.02348" lon="8.94583">
        <ele>858</ele>
        <time>2021-08-02T13:15:20.911Z</time>
      </trkpt>
      <trkpt lat="47.02348" lon="8.94583">
        <ele>858</ele>
        <time>2021-08-02T13:15:21.910Z</time>
      </trkpt>
      <trkpt lat="47.02348" lon="8.94584">
        <ele>858</ele>
        <time>2021-08-02T13:15:22.911Z</time>
      </trkpt>
      <trkpt lat="47.02348" lon="8.94584">
        <ele>858</ele>
        <time>2021-08-02T13:15:23.910Z</time>
      </trkpt>
      <trkpt lat="47.02348" lon="8.94583">
        <ele>859</ele>
        <time>2021-08-02T13:15:24.911Z</time>
      </trkpt>
      <trkpt lat="47.02347" lon="8.94584">
        <ele>859</ele>
        <time>2021-08-02T13:15:25.910Z</time>
      </trkpt>
      <trkpt lat="47.02348" lon="8.94583">
        <ele>859</ele>
        <time>2021-08-02T13:15:26.910Z</time>
      </trkpt>
      <trkpt lat="47.02347" lon="8.94583">
        <ele>859</ele>
        <time>2021-08-02T13:15:27.910Z</time>
      </trkpt>
      <trkpt lat="47.02347" lon="8.94583">
        <ele>860</ele>
        <time>2021-08-02T13:15:28.911Z</time>
      </trkpt>
      <trkpt lat="47.02347" lon="8.94583">
        <ele>860</ele>
        <time>2021-08-02T13:15:29.911Z</time>
      </trkpt>
      <trkpt lat="47.02347" lon="8.94583">
        <ele>860</ele>
        <time>2021-08-02T13:15:30.910Z</time>
      </trkpt>
      <trkpt lat="47.02346" lon="8.94582">
        <ele>860</ele>
        <time>2021-08-02T13:15:31.910Z</time>
      </trkpt>
      <trkpt lat="47.02346" lon="8.94582">
        <ele>861</ele>
        <time>2021-08-02T13:15:32.910Z</time>
      </trkpt>
      <trkpt lat="47.02346" lon="8.94581">
        <ele>861</ele>
        <time>2021-08-02T13:15:33.910Z</time>
      </trkpt>
      <trkpt lat="47.02346" lon="8.9458">
        <ele>861</ele>
        <time>2021-08-02T13:15:34.910Z</time>
      </trkpt>
      <trkpt lat="47.02347" lon="8.9458">
        <ele>861</ele>
        <time>2021-08-02T13:15:35.910Z</time>
      </trkpt>
      <trkpt lat="47.02347" lon="8.9458">
        <ele>861</ele>
        <time>2021-08-02T13:15:36.911Z</time>
      </trkpt>
      <trkpt lat="47.02347" lon="8.94581">
        <ele>861</ele>
        <time>2021-08-02T13:15:37.911Z</time>
      </trkpt>
      <trkpt lat="47.02351" lon="8.94584">
        <ele>864</ele>
        <time>2021-08-02T13:15:38.911Z</time>
      </trkpt>
      <trkpt lat="47.02351" lon="8.94584">
        <ele>864</ele>
        <time>2021-08-02T13:15:39.912Z</time>
      </trkpt>
      <trkpt lat="47.02352" lon="8.94585">
        <ele>864</ele>
        <time>2021-08-02T13:15:40.912Z</time>
      </trkpt>
      <trkpt lat="47.02352" lon="8.94585">
        <ele>864</ele>
        <time>2021-08-02T13:15:41.912Z</time>
      </trkpt>
      <trkpt lat="47.02352" lon="8.94585">
        <ele>864</ele>
        <time>2021-08-02T13:15:42.911Z</time>
      </trkpt>
      <trkpt lat="47.02352" lon="8.94585">
        <ele>864</ele>
        <time>2021-08-02T13:15:43.911Z</time>
      </trkpt>
      <trkpt lat="47.02353" lon="8.94587">
        <ele>864</ele>
        <time>2021-08-02T13:15:44.911Z</time>
      </trkpt>
      <trkpt lat="47.02353" lon="8.94586">
        <ele>864</ele>
        <time>2021-08-02T13:15:45.912Z</time>
      </trkpt>
      <trkpt lat="47.02354" lon="8.94585">
        <ele>864</ele>
        <time>2021-08-02T13:15:46.911Z</time>
      </trkpt>
      <trkpt lat="47.02354" lon="8.94584">
        <ele>864</ele>
        <time>2021-08-02T13:15:47.911Z</time>
      </trkpt>
      <trkpt lat="47.02354" lon="8.94583">
        <ele>864</ele>
        <time>2021-08-02T13:15:48.912Z</time>
      </trkpt>
      <trkpt lat="47.02354" lon="8.94583">
        <ele>864</ele>
        <time>2021-08-02T13:15:49.912Z</time>
      </trkpt>
      <trkpt lat="47.02354" lon="8.94582">
        <ele>864</ele>
        <time>2021-08-02T13:15:50.912Z</time>
      </trkpt>
      <trkpt lat="47.02354" lon="8.94582">
        <ele>864</ele>
        <time>2021-08-02T13:15:51.911Z</time>
      </trkpt>
      <trkpt lat="47.02353" lon="8.94581">
        <ele>864</ele>
        <time>2021-08-02T13:15:52.912Z</time>
      </trkpt>
      <trkpt lat="47.02352" lon="8.94581">
        <ele>864</ele>
        <time>2021-08-02T13:15:53.912Z</time>
      </trkpt>
      <trkpt lat="47.02352" lon="8.94582">
        <ele>863</ele>
        <time>2021-08-02T13:15:54.911Z</time>
      </trkpt>
      <trkpt lat="47.02352" lon="8.94582">
        <ele>862</ele>
        <time>2021-08-02T13:15:55.912Z</time>
      </trkpt>
      <trkpt lat="47.02353" lon="8.94582">
        <ele>862</ele>
        <time>2021-08-02T13:15:56.912Z</time>
      </trkpt>
      <trkpt lat="47.02352" lon="8.94581">
        <ele>861</ele>
        <time>2021-08-02T13:15:57.912Z</time>
      </trkpt>
    </trkseg>
  </trk>
</gpx>